<?xml version="1.0" encoding="UTF-8" standalone="no" ?>
<gpx xmlns="http://www.topografix.com/GPX/1/1" xmlns:xsi="http://www.w3.org/2001/XMLSchema-instance" xsi:schemaLocation="http://www.topografix.com/GPX/1/1 http://www.topografix.com/GPX/1/1/gpx.xsd" version="1.1" creator="VisuGPX - https://www.visugpx.com">
  <metadata>
    <name>Edirne-Mostar</name>
  </metadata>
  <trk>
    <name><![CDATA[Tour d'Europe: étape 672]]></name>
    <extensions>
      <line xmlns="http://www.topografix.com/GPX/gpx_style/0/2">
        <color>0000FF</color>
        <width>4</width>
      </line>
    </extensions>
    <trkseg>
      <trkpt lat="41.17664" lon="20.67606">
        <ele>761.792461</ele>
        <time>2022-05-01T07:07:47.723Z</time>
      </trkpt>
      <trkpt lat="41.17641" lon="20.67614">
        <ele>761.792461</ele>
        <time>2022-05-01T07:18:10.521Z</time>
      </trkpt>
      <trkpt lat="41.17651" lon="20.6761">
        <ele>761.792461</ele>
        <time>2022-05-01T07:18:14.519Z</time>
      </trkpt>
      <trkpt lat="41.17661" lon="20.67608">
        <ele>761.792461</ele>
        <time>2022-05-01T07:18:17.542Z</time>
      </trkpt>
      <trkpt lat="41.17671" lon="20.67608">
        <ele>761.792461</ele>
        <time>2022-05-01T07:18:20.586Z</time>
      </trkpt>
      <trkpt lat="41.17682" lon="20.6761">
        <ele>761.792461</ele>
        <time>2022-05-01T07:18:23.548Z</time>
      </trkpt>
      <trkpt lat="41.17692" lon="20.6761">
        <ele>761.792461</ele>
        <time>2022-05-01T07:18:27.553Z</time>
      </trkpt>
      <trkpt lat="41.17703" lon="20.67608">
        <ele>761.792461</ele>
        <time>2022-05-01T07:18:32.516Z</time>
      </trkpt>
      <trkpt lat="41.17713" lon="20.67604">
        <ele>761.697604</ele>
        <time>2022-05-01T07:18:36.540Z</time>
      </trkpt>
      <trkpt lat="41.17724" lon="20.676">
        <ele>761.547081</ele>
        <time>2022-05-01T07:18:40.521Z</time>
      </trkpt>
      <trkpt lat="41.17733" lon="20.676">
        <ele>761.425551</ele>
        <time>2022-05-01T07:18:43.518Z</time>
      </trkpt>
      <trkpt lat="41.17744" lon="20.67596">
        <ele>761.276833</ele>
        <time>2022-05-01T07:18:47.526Z</time>
      </trkpt>
      <trkpt lat="41.17755" lon="20.67598">
        <ele>761.120307</ele>
        <time>2022-05-01T07:18:51.566Z</time>
      </trkpt>
      <trkpt lat="41.17761" lon="20.67588">
        <ele>760.995316</ele>
        <time>2022-05-01T07:18:59.528Z</time>
      </trkpt>
      <trkpt lat="41.17763" lon="20.67577">
        <ele>760.874124</ele>
        <time>2022-05-01T07:19:03.524Z</time>
      </trkpt>
      <trkpt lat="41.17764" lon="20.67562">
        <ele>760.726634</ele>
        <time>2022-05-01T07:19:07.540Z</time>
      </trkpt>
      <trkpt lat="41.17763" lon="20.6755">
        <ele>760.602114</ele>
        <time>2022-05-01T07:19:10.540Z</time>
      </trkpt>
      <trkpt lat="41.17761" lon="20.67537">
        <ele>760.462197</ele>
        <time>2022-05-01T07:19:13.558Z</time>
      </trkpt>
      <trkpt lat="41.17758" lon="20.67522">
        <ele>760.307925</ele>
        <time>2022-05-01T07:19:16.517Z</time>
      </trkpt>
      <trkpt lat="41.17758" lon="20.6751">
        <ele>760.184651</ele>
        <time>2022-05-01T07:19:19.530Z</time>
      </trkpt>
      <trkpt lat="41.17758" lon="20.67497">
        <ele>760.056654</ele>
        <time>2022-05-01T07:19:22.543Z</time>
      </trkpt>
      <trkpt lat="41.17755" lon="20.67483">
        <ele>759.901412</ele>
        <time>2022-05-01T07:19:25.534Z</time>
      </trkpt>
      <trkpt lat="41.17753" lon="20.67468">
        <ele>759.751129</ele>
        <time>2022-05-01T07:19:28.528Z</time>
      </trkpt>
      <trkpt lat="41.17752" lon="20.67453">
        <ele>759.596585</ele>
        <time>2022-05-01T07:19:31.539Z</time>
      </trkpt>
      <trkpt lat="41.17748" lon="20.67442">
        <ele>759.472041</ele>
        <time>2022-05-01T07:19:33.534Z</time>
      </trkpt>
      <trkpt lat="41.17744" lon="20.67429">
        <ele>759.161557</ele>
        <time>2022-05-01T07:19:35.536Z</time>
      </trkpt>
      <trkpt lat="41.17741" lon="20.67415">
        <ele>758.32851</ele>
        <time>2022-05-01T07:19:37.537Z</time>
      </trkpt>
      <trkpt lat="41.17739" lon="20.67402">
        <ele>757.547869</ele>
        <time>2022-05-01T07:19:39.526Z</time>
      </trkpt>
      <trkpt lat="41.17739" lon="20.67387">
        <ele>756.666587</ele>
        <time>2022-05-01T07:19:42.525Z</time>
      </trkpt>
      <trkpt lat="41.17739" lon="20.67372">
        <ele>755.808791</ele>
        <time>2022-05-01T07:19:45.522Z</time>
      </trkpt>
      <trkpt lat="41.17736" lon="20.6736">
        <ele>755.106282</ele>
        <time>2022-05-01T07:19:50.531Z</time>
      </trkpt>
      <trkpt lat="41.17731" lon="20.67348">
        <ele>754.301604</ele>
        <time>2022-05-01T07:19:53.590Z</time>
      </trkpt>
      <trkpt lat="41.17729" lon="20.67335">
        <ele>753.505012</ele>
        <time>2022-05-01T07:19:56.527Z</time>
      </trkpt>
      <trkpt lat="41.17726" lon="20.6732">
        <ele>752.629222</ele>
        <time>2022-05-01T07:19:59.539Z</time>
      </trkpt>
      <trkpt lat="41.17724" lon="20.67305">
        <ele>751.765603</ele>
        <time>2022-05-01T07:20:02.564Z</time>
      </trkpt>
      <trkpt lat="41.17724" lon="20.67288">
        <ele>750.784609</ele>
        <time>2022-05-01T07:20:05.531Z</time>
      </trkpt>
      <trkpt lat="41.17722" lon="20.67273">
        <ele>749.875734</ele>
        <time>2022-05-01T07:20:08.538Z</time>
      </trkpt>
      <trkpt lat="41.1772" lon="20.67257">
        <ele>748.969971</ele>
        <time>2022-05-01T07:20:11.523Z</time>
      </trkpt>
      <trkpt lat="41.17717" lon="20.67241">
        <ele>747.975417</ele>
        <time>2022-05-01T07:20:14.540Z</time>
      </trkpt>
      <trkpt lat="41.17714" lon="20.67226">
        <ele>747.087148</ele>
        <time>2022-05-01T07:20:17.531Z</time>
      </trkpt>
      <trkpt lat="41.17707" lon="20.67216">
        <ele>746.286151</ele>
        <time>2022-05-01T07:20:19.530Z</time>
      </trkpt>
      <trkpt lat="41.17701" lon="20.67201">
        <ele>745.6163</ele>
        <time>2022-05-01T07:20:22.522Z</time>
      </trkpt>
      <trkpt lat="41.177" lon="20.67187">
        <ele>746.060752</ele>
        <time>2022-05-01T07:20:25.525Z</time>
      </trkpt>
      <trkpt lat="41.17699" lon="20.67171">
        <ele>746.531189</ele>
        <time>2022-05-01T07:20:28.547Z</time>
      </trkpt>
      <trkpt lat="41.17698" lon="20.67156">
        <ele>746.982957</ele>
        <time>2022-05-01T07:20:31.511Z</time>
      </trkpt>
      <trkpt lat="41.17695" lon="20.67143">
        <ele>747.401854</ele>
        <time>2022-05-01T07:20:34.518Z</time>
      </trkpt>
      <trkpt lat="41.17691" lon="20.6713">
        <ele>747.814385</ele>
        <time>2022-05-01T07:20:37.518Z</time>
      </trkpt>
      <trkpt lat="41.17688" lon="20.67116">
        <ele>748.253145</ele>
        <time>2022-05-01T07:20:40.530Z</time>
      </trkpt>
      <trkpt lat="41.17686" lon="20.671">
        <ele>748.729252</ele>
        <time>2022-05-01T07:20:43.538Z</time>
      </trkpt>
      <trkpt lat="41.17684" lon="20.67089">
        <ele>749.087763</ele>
        <time>2022-05-01T07:20:45.543Z</time>
      </trkpt>
      <trkpt lat="41.17681" lon="20.67072">
        <ele>749.608639</ele>
        <time>2022-05-01T07:20:48.533Z</time>
      </trkpt>
      <trkpt lat="41.17678" lon="20.6706">
        <ele>749.992379</ele>
        <time>2022-05-01T07:20:50.546Z</time>
      </trkpt>
      <trkpt lat="41.17675" lon="20.67048">
        <ele>750.358442</ele>
        <time>2022-05-01T07:20:52.548Z</time>
      </trkpt>
      <trkpt lat="41.17671" lon="20.67033">
        <ele>750.840735</ele>
        <time>2022-05-01T07:20:55.542Z</time>
      </trkpt>
      <trkpt lat="41.17667" lon="20.67017">
        <ele>751.362277</ele>
        <time>2022-05-01T07:20:58.525Z</time>
      </trkpt>
      <trkpt lat="41.17664" lon="20.67004">
        <ele>751.742694</ele>
        <time>2022-05-01T07:21:00.545Z</time>
      </trkpt>
      <trkpt lat="41.1766" lon="20.66988">
        <ele>752.275035</ele>
        <time>2022-05-01T07:21:03.518Z</time>
      </trkpt>
      <trkpt lat="41.17657" lon="20.66976">
        <ele>752.636892</ele>
        <time>2022-05-01T07:21:05.529Z</time>
      </trkpt>
      <trkpt lat="41.17654" lon="20.66965">
        <ele>752.459214</ele>
        <time>2022-05-01T07:21:07.527Z</time>
      </trkpt>
      <trkpt lat="41.1765" lon="20.66953">
        <ele>752.136253</ele>
        <time>2022-05-01T07:21:09.509Z</time>
      </trkpt>
      <trkpt lat="41.17646" lon="20.66942">
        <ele>751.843363</ele>
        <time>2022-05-01T07:21:11.534Z</time>
      </trkpt>
      <trkpt lat="41.17641" lon="20.66925">
        <ele>751.394541</ele>
        <time>2022-05-01T07:21:14.515Z</time>
      </trkpt>
      <trkpt lat="41.17638" lon="20.66912">
        <ele>751.066303</ele>
        <time>2022-05-01T07:21:16.532Z</time>
      </trkpt>
      <trkpt lat="41.17636" lon="20.66897">
        <ele>750.692762</ele>
        <time>2022-05-01T07:21:19.531Z</time>
      </trkpt>
      <trkpt lat="41.17635" lon="20.66883">
        <ele>750.347546</ele>
        <time>2022-05-01T07:21:22.524Z</time>
      </trkpt>
      <trkpt lat="41.17636" lon="20.66871">
        <ele>750.045447</ele>
        <time>2022-05-01T07:21:25.536Z</time>
      </trkpt>
      <trkpt lat="41.17634" lon="20.66856">
        <ele>749.67827</ele>
        <time>2022-05-01T07:21:28.532Z</time>
      </trkpt>
      <trkpt lat="41.17631" lon="20.6684">
        <ele>749.278101</ele>
        <time>2022-05-01T07:21:31.537Z</time>
      </trkpt>
      <trkpt lat="41.17628" lon="20.66828">
        <ele>748.964096</ele>
        <time>2022-05-01T07:21:33.522Z</time>
      </trkpt>
      <trkpt lat="41.17626" lon="20.66815">
        <ele>748.630114</ele>
        <time>2022-05-01T07:21:35.540Z</time>
      </trkpt>
      <trkpt lat="41.17623" lon="20.66803">
        <ele>748.322945</ele>
        <time>2022-05-01T07:21:37.545Z</time>
      </trkpt>
      <trkpt lat="41.1762" lon="20.66787">
        <ele>747.915204</ele>
        <time>2022-05-01T07:21:40.526Z</time>
      </trkpt>
      <trkpt lat="41.17616" lon="20.66774">
        <ele>747.573179</ele>
        <time>2022-05-01T07:21:43.511Z</time>
      </trkpt>
      <trkpt lat="41.17612" lon="20.66762">
        <ele>747.260913</ele>
        <time>2022-05-01T07:21:46.539Z</time>
      </trkpt>
      <trkpt lat="41.17609" lon="20.66748">
        <ele>746.886451</ele>
        <time>2022-05-01T07:21:49.547Z</time>
      </trkpt>
      <trkpt lat="41.17606" lon="20.66731">
        <ele>746.414088</ele>
        <time>2022-05-01T07:21:52.561Z</time>
      </trkpt>
      <trkpt lat="41.17603" lon="20.66716">
        <ele>745.93867</ele>
        <time>2022-05-01T07:21:55.531Z</time>
      </trkpt>
      <trkpt lat="41.17601" lon="20.66699">
        <ele>745.458137</ele>
        <time>2022-05-01T07:21:58.526Z</time>
      </trkpt>
      <trkpt lat="41.17599" lon="20.66682">
        <ele>744.957219</ele>
        <time>2022-05-01T07:22:01.516Z</time>
      </trkpt>
      <trkpt lat="41.17596" lon="20.66665">
        <ele>744.448129</ele>
        <time>2022-05-01T07:22:04.533Z</time>
      </trkpt>
      <trkpt lat="41.17593" lon="20.66649">
        <ele>743.96297</ele>
        <time>2022-05-01T07:22:07.530Z</time>
      </trkpt>
      <trkpt lat="41.1759" lon="20.66632">
        <ele>743.46314</ele>
        <time>2022-05-01T07:22:10.521Z</time>
      </trkpt>
      <trkpt lat="41.17588" lon="20.66615">
        <ele>742.972622</ele>
        <time>2022-05-01T07:22:13.542Z</time>
      </trkpt>
      <trkpt lat="41.17585" lon="20.666">
        <ele>742.495085</ele>
        <time>2022-05-01T07:22:16.516Z</time>
      </trkpt>
      <trkpt lat="41.17581" lon="20.66583">
        <ele>741.988111</ele>
        <time>2022-05-01T07:22:19.536Z</time>
      </trkpt>
      <trkpt lat="41.17576" lon="20.66567">
        <ele>741.479206</ele>
        <time>2022-05-01T07:22:22.538Z</time>
      </trkpt>
      <trkpt lat="41.17572" lon="20.66551">
        <ele>740.996104</ele>
        <time>2022-05-01T07:22:25.521Z</time>
      </trkpt>
      <trkpt lat="41.17568" lon="20.66534">
        <ele>740.492302</ele>
        <time>2022-05-01T07:22:28.528Z</time>
      </trkpt>
      <trkpt lat="41.17563" lon="20.66519">
        <ele>740.011133</ele>
        <time>2022-05-01T07:22:31.530Z</time>
      </trkpt>
      <trkpt lat="41.17557" lon="20.66503">
        <ele>739.737434</ele>
        <time>2022-05-01T07:22:34.537Z</time>
      </trkpt>
      <trkpt lat="41.17555" lon="20.66491">
        <ele>739.579665</ele>
        <time>2022-05-01T07:22:36.528Z</time>
      </trkpt>
      <trkpt lat="41.17552" lon="20.66474">
        <ele>739.363848</ele>
        <time>2022-05-01T07:22:39.537Z</time>
      </trkpt>
      <trkpt lat="41.17549" lon="20.66457">
        <ele>739.146214</ele>
        <time>2022-05-01T07:22:42.521Z</time>
      </trkpt>
      <trkpt lat="41.17546" lon="20.6644">
        <ele>738.924932</ele>
        <time>2022-05-01T07:22:45.532Z</time>
      </trkpt>
      <trkpt lat="41.17543" lon="20.66423">
        <ele>738.706467</ele>
        <time>2022-05-01T07:22:48.549Z</time>
      </trkpt>
      <trkpt lat="41.1754" lon="20.66407">
        <ele>738.497735</ele>
        <time>2022-05-01T07:22:51.561Z</time>
      </trkpt>
      <trkpt lat="41.17536" lon="20.6639">
        <ele>738.282548</ele>
        <time>2022-05-01T07:22:54.535Z</time>
      </trkpt>
      <trkpt lat="41.17533" lon="20.66374">
        <ele>738.073775</ele>
        <time>2022-05-01T07:22:57.540Z</time>
      </trkpt>
      <trkpt lat="41.1753" lon="20.66358">
        <ele>737.869084</ele>
        <time>2022-05-01T07:23:00.540Z</time>
      </trkpt>
      <trkpt lat="41.17528" lon="20.66347">
        <ele>737.71885</ele>
        <time>2022-05-01T07:23:02.574Z</time>
      </trkpt>
      <trkpt lat="41.17525" lon="20.66335">
        <ele>737.565536</ele>
        <time>2022-05-01T07:23:04.532Z</time>
      </trkpt>
      <trkpt lat="41.17522" lon="20.66318">
        <ele>737.345785</ele>
        <time>2022-05-01T07:23:07.530Z</time>
      </trkpt>
      <trkpt lat="41.17519" lon="20.66301">
        <ele>737.132075</ele>
        <time>2022-05-01T07:23:10.536Z</time>
      </trkpt>
      <trkpt lat="41.17516" lon="20.66285">
        <ele>736.928586</ele>
        <time>2022-05-01T07:23:13.565Z</time>
      </trkpt>
      <trkpt lat="41.17513" lon="20.66268">
        <ele>737.02369</ele>
        <time>2022-05-01T07:23:16.509Z</time>
      </trkpt>
      <trkpt lat="41.17509" lon="20.66251">
        <ele>737.117424</ele>
        <time>2022-05-01T07:23:19.551Z</time>
      </trkpt>
      <trkpt lat="41.17506" lon="20.66234">
        <ele>737.212339</ele>
        <time>2022-05-01T07:23:22.542Z</time>
      </trkpt>
      <trkpt lat="41.17502" lon="20.66218">
        <ele>737.307593</ele>
        <time>2022-05-01T07:23:25.572Z</time>
      </trkpt>
      <trkpt lat="41.17497" lon="20.66202">
        <ele>737.395191</ele>
        <time>2022-05-01T07:23:28.537Z</time>
      </trkpt>
      <trkpt lat="41.17493" lon="20.66188">
        <ele>737.475941</ele>
        <time>2022-05-01T07:23:31.544Z</time>
      </trkpt>
      <trkpt lat="41.1749" lon="20.66173">
        <ele>737.56282</ele>
        <time>2022-05-01T07:23:34.529Z</time>
      </trkpt>
      <trkpt lat="41.17488" lon="20.66156">
        <ele>737.654819</ele>
        <time>2022-05-01T07:23:37.544Z</time>
      </trkpt>
      <trkpt lat="41.17483" lon="20.6614">
        <ele>737.749613</ele>
        <time>2022-05-01T07:23:40.527Z</time>
      </trkpt>
      <trkpt lat="41.1748" lon="20.66123">
        <ele>737.841723</ele>
        <time>2022-05-01T07:23:43.518Z</time>
      </trkpt>
      <trkpt lat="41.17477" lon="20.66107">
        <ele>737.932243</ele>
        <time>2022-05-01T07:23:46.535Z</time>
      </trkpt>
      <trkpt lat="41.17473" lon="20.6609">
        <ele>738.031558</ele>
        <time>2022-05-01T07:23:49.543Z</time>
      </trkpt>
      <trkpt lat="41.17469" lon="20.66078">
        <ele>738.101649</ele>
        <time>2022-05-01T07:23:51.566Z</time>
      </trkpt>
      <trkpt lat="41.17466" lon="20.66066">
        <ele>738.170488</ele>
        <time>2022-05-01T07:23:53.533Z</time>
      </trkpt>
      <trkpt lat="41.17463" lon="20.66054">
        <ele>738.181678</ele>
        <time>2022-05-01T07:23:55.522Z</time>
      </trkpt>
      <trkpt lat="41.1746" lon="20.66043">
        <ele>738.00127</ele>
        <time>2022-05-01T07:23:57.530Z</time>
      </trkpt>
      <trkpt lat="41.17456" lon="20.6603">
        <ele>737.812719</ele>
        <time>2022-05-01T07:23:59.563Z</time>
      </trkpt>
      <trkpt lat="41.17453" lon="20.66018">
        <ele>737.624169</ele>
        <time>2022-05-01T07:24:01.534Z</time>
      </trkpt>
      <trkpt lat="41.1745" lon="20.66005">
        <ele>737.433274</ele>
        <time>2022-05-01T07:24:03.528Z</time>
      </trkpt>
      <trkpt lat="41.17447" lon="20.65992">
        <ele>737.243755</ele>
        <time>2022-05-01T07:24:05.526Z</time>
      </trkpt>
      <trkpt lat="41.17445" lon="20.6598">
        <ele>737.058605</ele>
        <time>2022-05-01T07:24:07.533Z</time>
      </trkpt>
      <trkpt lat="41.17442" lon="20.65968">
        <ele>736.875836</ele>
        <time>2022-05-01T07:24:09.523Z</time>
      </trkpt>
      <trkpt lat="41.17439" lon="20.65956">
        <ele>736.692072</ele>
        <time>2022-05-01T07:24:11.536Z</time>
      </trkpt>
      <trkpt lat="41.17436" lon="20.65943">
        <ele>736.50216</ele>
        <time>2022-05-01T07:24:13.540Z</time>
      </trkpt>
      <trkpt lat="41.17433" lon="20.65931">
        <ele>736.315585</ele>
        <time>2022-05-01T07:24:15.540Z</time>
      </trkpt>
      <trkpt lat="41.1743" lon="20.65919">
        <ele>736.134456</ele>
        <time>2022-05-01T07:24:17.619Z</time>
      </trkpt>
      <trkpt lat="41.17426" lon="20.65907">
        <ele>735.951372</ele>
        <time>2022-05-01T07:24:19.550Z</time>
      </trkpt>
      <trkpt lat="41.17423" lon="20.65896">
        <ele>735.774281</ele>
        <time>2022-05-01T07:24:21.542Z</time>
      </trkpt>
      <trkpt lat="41.1742" lon="20.65884">
        <ele>735.598597</ele>
        <time>2022-05-01T07:24:23.528Z</time>
      </trkpt>
      <trkpt lat="41.17415" lon="20.65867">
        <ele>735.341379</ele>
        <time>2022-05-01T07:24:26.547Z</time>
      </trkpt>
      <trkpt lat="41.17412" lon="20.65856">
        <ele>735.163415</ele>
        <time>2022-05-01T07:24:28.545Z</time>
      </trkpt>
      <trkpt lat="41.1741" lon="20.65844">
        <ele>734.984079</ele>
        <time>2022-05-01T07:24:30.531Z</time>
      </trkpt>
      <trkpt lat="41.17407" lon="20.65832">
        <ele>734.809012</ele>
        <time>2022-05-01T07:24:32.533Z</time>
      </trkpt>
      <trkpt lat="41.17404" lon="20.6582">
        <ele>734.990537</ele>
        <time>2022-05-01T07:24:34.531Z</time>
      </trkpt>
      <trkpt lat="41.17401" lon="20.65808">
        <ele>735.222492</ele>
        <time>2022-05-01T07:24:36.537Z</time>
      </trkpt>
      <trkpt lat="41.17398" lon="20.65796">
        <ele>735.452973</ele>
        <time>2022-05-01T07:24:38.520Z</time>
      </trkpt>
      <trkpt lat="41.17396" lon="20.65784">
        <ele>735.682502</ele>
        <time>2022-05-01T07:24:40.543Z</time>
      </trkpt>
      <trkpt lat="41.17393" lon="20.65772">
        <ele>735.91625</ele>
        <time>2022-05-01T07:24:42.550Z</time>
      </trkpt>
      <trkpt lat="41.1739" lon="20.6576">
        <ele>736.156652</ele>
        <time>2022-05-01T07:24:44.537Z</time>
      </trkpt>
      <trkpt lat="41.17387" lon="20.65743">
        <ele>736.474919</ele>
        <time>2022-05-01T07:24:47.548Z</time>
      </trkpt>
      <trkpt lat="41.17385" lon="20.65728">
        <ele>736.760168</ele>
        <time>2022-05-01T07:24:50.515Z</time>
      </trkpt>
      <trkpt lat="41.17394" lon="20.65718">
        <ele>737.047133</ele>
        <time>2022-05-01T07:24:53.537Z</time>
      </trkpt>
      <trkpt lat="41.17403" lon="20.65714">
        <ele>737.287272</ele>
        <time>2022-05-01T07:24:55.615Z</time>
      </trkpt>
      <trkpt lat="41.17411" lon="20.65706">
        <ele>737.538029</ele>
        <time>2022-05-01T07:24:57.548Z</time>
      </trkpt>
      <trkpt lat="41.17413" lon="20.65692">
        <ele>737.787434</ele>
        <time>2022-05-01T07:24:59.538Z</time>
      </trkpt>
      <trkpt lat="41.17411" lon="20.65678">
        <ele>738.07018</ele>
        <time>2022-05-01T07:25:01.521Z</time>
      </trkpt>
      <trkpt lat="41.17404" lon="20.65667">
        <ele>738.324644</ele>
        <time>2022-05-01T07:25:03.533Z</time>
      </trkpt>
      <trkpt lat="41.17394" lon="20.6566">
        <ele>738.590202</ele>
        <time>2022-05-01T07:25:05.594Z</time>
      </trkpt>
      <trkpt lat="41.17387" lon="20.65653">
        <ele>738.823414</ele>
        <time>2022-05-01T07:25:07.537Z</time>
      </trkpt>
      <trkpt lat="41.17382" lon="20.65642">
        <ele>739.049995</ele>
        <time>2022-05-01T07:25:09.528Z</time>
      </trkpt>
      <trkpt lat="41.17377" lon="20.6563">
        <ele>739.199379</ele>
        <time>2022-05-01T07:25:11.571Z</time>
      </trkpt>
      <trkpt lat="41.17372" lon="20.65617">
        <ele>739.192199</ele>
        <time>2022-05-01T07:25:13.528Z</time>
      </trkpt>
      <trkpt lat="41.17367" lon="20.65605">
        <ele>739.185132</ele>
        <time>2022-05-01T07:25:15.531Z</time>
      </trkpt>
      <trkpt lat="41.17362" lon="20.65593">
        <ele>739.178193</ele>
        <time>2022-05-01T07:25:17.540Z</time>
      </trkpt>
      <trkpt lat="41.17357" lon="20.65581">
        <ele>739.171223</ele>
        <time>2022-05-01T07:25:19.527Z</time>
      </trkpt>
      <trkpt lat="41.17352" lon="20.65569">
        <ele>739.164287</ele>
        <time>2022-05-01T07:25:21.519Z</time>
      </trkpt>
      <trkpt lat="41.17347" lon="20.65556">
        <ele>739.157348</ele>
        <time>2022-05-01T07:25:23.534Z</time>
      </trkpt>
      <trkpt lat="41.17343" lon="20.65545">
        <ele>739.150604</ele>
        <time>2022-05-01T07:25:25.526Z</time>
      </trkpt>
      <trkpt lat="41.17339" lon="20.65533">
        <ele>739.143996</ele>
        <time>2022-05-01T07:25:27.544Z</time>
      </trkpt>
      <trkpt lat="41.17335" lon="20.65521">
        <ele>739.137651</ele>
        <time>2022-05-01T07:25:29.526Z</time>
      </trkpt>
      <trkpt lat="41.17332" lon="20.65509">
        <ele>739.131069</ele>
        <time>2022-05-01T07:25:31.529Z</time>
      </trkpt>
      <trkpt lat="41.17328" lon="20.65497">
        <ele>739.124464</ele>
        <time>2022-05-01T07:25:33.529Z</time>
      </trkpt>
      <trkpt lat="41.17325" lon="20.65484">
        <ele>739.117739</ele>
        <time>2022-05-01T07:25:35.540Z</time>
      </trkpt>
      <trkpt lat="41.17321" lon="20.65471">
        <ele>739.110945</ele>
        <time>2022-05-01T07:25:37.535Z</time>
      </trkpt>
      <trkpt lat="41.17319" lon="20.65459">
        <ele>739.104564</ele>
        <time>2022-05-01T07:25:39.520Z</time>
      </trkpt>
      <trkpt lat="41.17316" lon="20.65447">
        <ele>739.098202</ele>
        <time>2022-05-01T07:25:41.534Z</time>
      </trkpt>
      <trkpt lat="41.17313" lon="20.65434">
        <ele>739.091451</ele>
        <time>2022-05-01T07:25:43.532Z</time>
      </trkpt>
      <trkpt lat="41.1731" lon="20.65422">
        <ele>739.084838</ele>
        <time>2022-05-01T07:25:45.561Z</time>
      </trkpt>
      <trkpt lat="41.17306" lon="20.65409">
        <ele>739.136758</ele>
        <time>2022-05-01T07:25:47.533Z</time>
      </trkpt>
      <trkpt lat="41.17303" lon="20.65397">
        <ele>739.236569</ele>
        <time>2022-05-01T07:25:49.541Z</time>
      </trkpt>
      <trkpt lat="41.173" lon="20.65385">
        <ele>739.336205</ele>
        <time>2022-05-01T07:25:51.541Z</time>
      </trkpt>
      <trkpt lat="41.17297" lon="20.65371">
        <ele>739.442697</ele>
        <time>2022-05-01T07:25:53.536Z</time>
      </trkpt>
      <trkpt lat="41.17294" lon="20.65359">
        <ele>739.544396</ele>
        <time>2022-05-01T07:25:55.544Z</time>
      </trkpt>
      <trkpt lat="41.17291" lon="20.65346">
        <ele>739.64682</ele>
        <time>2022-05-01T07:25:57.534Z</time>
      </trkpt>
      <trkpt lat="41.17288" lon="20.65333">
        <ele>739.749162</ele>
        <time>2022-05-01T07:25:59.540Z</time>
      </trkpt>
      <trkpt lat="41.17285" lon="20.6532">
        <ele>739.852445</ele>
        <time>2022-05-01T07:26:01.512Z</time>
      </trkpt>
      <trkpt lat="41.17282" lon="20.65308">
        <ele>739.949762</ele>
        <time>2022-05-01T07:26:03.524Z</time>
      </trkpt>
      <trkpt lat="41.17279" lon="20.65295">
        <ele>740.047358</ele>
        <time>2022-05-01T07:26:05.533Z</time>
      </trkpt>
      <trkpt lat="41.17276" lon="20.65284">
        <ele>740.142892</ele>
        <time>2022-05-01T07:26:07.594Z</time>
      </trkpt>
      <trkpt lat="41.17272" lon="20.65271">
        <ele>740.244956</ele>
        <time>2022-05-01T07:26:09.528Z</time>
      </trkpt>
      <trkpt lat="41.17268" lon="20.6526">
        <ele>740.340533</ele>
        <time>2022-05-01T07:26:11.540Z</time>
      </trkpt>
      <trkpt lat="41.17266" lon="20.65248">
        <ele>740.433326</ele>
        <time>2022-05-01T07:26:13.544Z</time>
      </trkpt>
      <trkpt lat="41.17263" lon="20.65236">
        <ele>740.528001</ele>
        <time>2022-05-01T07:26:15.541Z</time>
      </trkpt>
      <trkpt lat="41.1726" lon="20.65225">
        <ele>740.620927</ele>
        <time>2022-05-01T07:26:17.530Z</time>
      </trkpt>
      <trkpt lat="41.17257" lon="20.65212">
        <ele>740.718811</ele>
        <time>2022-05-01T07:26:19.525Z</time>
      </trkpt>
      <trkpt lat="41.17255" lon="20.652">
        <ele>740.816696</ele>
        <time>2022-05-01T07:26:21.535Z</time>
      </trkpt>
      <trkpt lat="41.17252" lon="20.65188">
        <ele>740.899515</ele>
        <time>2022-05-01T07:26:23.536Z</time>
      </trkpt>
      <trkpt lat="41.17248" lon="20.65175">
        <ele>740.879534</ele>
        <time>2022-05-01T07:26:25.533Z</time>
      </trkpt>
      <trkpt lat="41.17245" lon="20.65163">
        <ele>740.859973</ele>
        <time>2022-05-01T07:26:27.527Z</time>
      </trkpt>
      <trkpt lat="41.17241" lon="20.65152">
        <ele>740.841262</ele>
        <time>2022-05-01T07:26:29.571Z</time>
      </trkpt>
      <trkpt lat="41.17238" lon="20.65141">
        <ele>740.823169</ele>
        <time>2022-05-01T07:26:31.555Z</time>
      </trkpt>
      <trkpt lat="41.17233" lon="20.65125">
        <ele>740.796839</ele>
        <time>2022-05-01T07:26:34.530Z</time>
      </trkpt>
      <trkpt lat="41.17229" lon="20.65113">
        <ele>740.77833</ele>
        <time>2022-05-01T07:26:36.529Z</time>
      </trkpt>
      <trkpt lat="41.17225" lon="20.65102">
        <ele>740.759767</ele>
        <time>2022-05-01T07:26:38.541Z</time>
      </trkpt>
      <trkpt lat="41.17221" lon="20.65091">
        <ele>740.740122</ele>
        <time>2022-05-01T07:26:40.584Z</time>
      </trkpt>
      <trkpt lat="41.17216" lon="20.65079">
        <ele>740.720744</ele>
        <time>2022-05-01T07:26:42.538Z</time>
      </trkpt>
      <trkpt lat="41.17212" lon="20.65068">
        <ele>740.70151</ele>
        <time>2022-05-01T07:26:44.541Z</time>
      </trkpt>
      <trkpt lat="41.17207" lon="20.65057">
        <ele>740.68233</ele>
        <time>2022-05-01T07:26:46.571Z</time>
      </trkpt>
      <trkpt lat="41.17202" lon="20.65045">
        <ele>740.661757</ele>
        <time>2022-05-01T07:26:48.534Z</time>
      </trkpt>
      <trkpt lat="41.17196" lon="20.65034">
        <ele>740.642011</ele>
        <time>2022-05-01T07:26:50.544Z</time>
      </trkpt>
      <trkpt lat="41.17192" lon="20.65023">
        <ele>740.622633</ele>
        <time>2022-05-01T07:26:52.529Z</time>
      </trkpt>
      <trkpt lat="41.17187" lon="20.65011">
        <ele>740.602437</ele>
        <time>2022-05-01T07:26:54.538Z</time>
      </trkpt>
      <trkpt lat="41.17182" lon="20.65">
        <ele>740.582433</ele>
        <time>2022-05-01T07:26:56.529Z</time>
      </trkpt>
      <trkpt lat="41.17177" lon="20.64988">
        <ele>740.561908</ele>
        <time>2022-05-01T07:26:58.532Z</time>
      </trkpt>
      <trkpt lat="41.17171" lon="20.64977">
        <ele>740.541824</ele>
        <time>2022-05-01T07:27:00.529Z</time>
      </trkpt>
      <trkpt lat="41.17166" lon="20.64965">
        <ele>740.541694</ele>
        <time>2022-05-01T07:27:02.555Z</time>
      </trkpt>
      <trkpt lat="41.17162" lon="20.64954">
        <ele>740.541838</ele>
        <time>2022-05-01T07:27:04.518Z</time>
      </trkpt>
      <trkpt lat="41.17157" lon="20.64943">
        <ele>740.541984</ele>
        <time>2022-05-01T07:27:06.545Z</time>
      </trkpt>
      <trkpt lat="41.17151" lon="20.64931">
        <ele>740.542135</ele>
        <time>2022-05-01T07:27:08.579Z</time>
      </trkpt>
      <trkpt lat="41.17146" lon="20.6492">
        <ele>740.542284</ele>
        <time>2022-05-01T07:27:10.531Z</time>
      </trkpt>
      <trkpt lat="41.1714" lon="20.64909">
        <ele>740.542433</ele>
        <time>2022-05-01T07:27:12.541Z</time>
      </trkpt>
      <trkpt lat="41.17135" lon="20.64898">
        <ele>740.542581</ele>
        <time>2022-05-01T07:27:14.541Z</time>
      </trkpt>
      <trkpt lat="41.17129" lon="20.64886">
        <ele>740.542729</ele>
        <time>2022-05-01T07:27:16.544Z</time>
      </trkpt>
      <trkpt lat="41.17124" lon="20.64875">
        <ele>740.54288</ele>
        <time>2022-05-01T07:27:18.515Z</time>
      </trkpt>
      <trkpt lat="41.17119" lon="20.64864">
        <ele>740.543026</ele>
        <time>2022-05-01T07:27:20.525Z</time>
      </trkpt>
      <trkpt lat="41.17114" lon="20.64853">
        <ele>740.543168</ele>
        <time>2022-05-01T07:27:22.526Z</time>
      </trkpt>
      <trkpt lat="41.17109" lon="20.64842">
        <ele>740.543307</ele>
        <time>2022-05-01T07:27:24.534Z</time>
      </trkpt>
      <trkpt lat="41.17104" lon="20.64831">
        <ele>740.543453</ele>
        <time>2022-05-01T07:27:26.526Z</time>
      </trkpt>
      <trkpt lat="41.17099" lon="20.6482">
        <ele>740.543594</ele>
        <time>2022-05-01T07:27:28.534Z</time>
      </trkpt>
      <trkpt lat="41.17093" lon="20.64809">
        <ele>740.543748</ele>
        <time>2022-05-01T07:27:30.572Z</time>
      </trkpt>
      <trkpt lat="41.17087" lon="20.64798">
        <ele>740.543901</ele>
        <time>2022-05-01T07:27:32.543Z</time>
      </trkpt>
      <trkpt lat="41.17082" lon="20.64787">
        <ele>740.544045</ele>
        <time>2022-05-01T07:27:34.509Z</time>
      </trkpt>
      <trkpt lat="41.17077" lon="20.64776">
        <ele>740.544187</ele>
        <time>2022-05-01T07:27:36.540Z</time>
      </trkpt>
      <trkpt lat="41.17072" lon="20.64765">
        <ele>740.619367</ele>
        <time>2022-05-01T07:27:38.540Z</time>
      </trkpt>
      <trkpt lat="41.17067" lon="20.64754">
        <ele>740.708667</ele>
        <time>2022-05-01T07:27:40.539Z</time>
      </trkpt>
      <trkpt lat="41.17062" lon="20.64743">
        <ele>740.794672</ele>
        <time>2022-05-01T07:27:42.524Z</time>
      </trkpt>
      <trkpt lat="41.17056" lon="20.64732">
        <ele>740.881554</ele>
        <time>2022-05-01T07:27:44.523Z</time>
      </trkpt>
      <trkpt lat="41.17051" lon="20.64722">
        <ele>740.96996</ele>
        <time>2022-05-01T07:27:46.530Z</time>
      </trkpt>
      <trkpt lat="41.17046" lon="20.64711">
        <ele>741.055379</ele>
        <time>2022-05-01T07:27:48.561Z</time>
      </trkpt>
      <trkpt lat="41.17041" lon="20.64701">
        <ele>741.139266</ele>
        <time>2022-05-01T07:27:50.531Z</time>
      </trkpt>
      <trkpt lat="41.17036" lon="20.6469">
        <ele>741.226234</ele>
        <time>2022-05-01T07:27:52.519Z</time>
      </trkpt>
      <trkpt lat="41.17031" lon="20.64679">
        <ele>741.313617</ele>
        <time>2022-05-01T07:27:54.570Z</time>
      </trkpt>
      <trkpt lat="41.17025" lon="20.64668">
        <ele>741.404807</ele>
        <time>2022-05-01T07:27:56.548Z</time>
      </trkpt>
      <trkpt lat="41.17021" lon="20.64657">
        <ele>741.491524</ele>
        <time>2022-05-01T07:27:58.525Z</time>
      </trkpt>
      <trkpt lat="41.17016" lon="20.64647">
        <ele>741.57421</ele>
        <time>2022-05-01T07:28:00.526Z</time>
      </trkpt>
      <trkpt lat="41.17011" lon="20.64636">
        <ele>741.66439</ele>
        <time>2022-05-01T07:28:02.554Z</time>
      </trkpt>
      <trkpt lat="41.17005" lon="20.64625">
        <ele>741.753881</ele>
        <time>2022-05-01T07:28:04.530Z</time>
      </trkpt>
      <trkpt lat="41.17" lon="20.64614">
        <ele>741.845071</ele>
        <time>2022-05-01T07:28:06.540Z</time>
      </trkpt>
      <trkpt lat="41.16994" lon="20.64603">
        <ele>741.935251</ele>
        <time>2022-05-01T07:28:08.595Z</time>
      </trkpt>
      <trkpt lat="41.16989" lon="20.64592">
        <ele>742.027656</ele>
        <time>2022-05-01T07:28:10.545Z</time>
      </trkpt>
      <trkpt lat="41.16983" lon="20.6458">
        <ele>742.120731</ele>
        <time>2022-05-01T07:28:12.547Z</time>
      </trkpt>
      <trkpt lat="41.16978" lon="20.64569">
        <ele>742.159023</ele>
        <time>2022-05-01T07:28:14.546Z</time>
      </trkpt>
      <trkpt lat="41.16973" lon="20.64559">
        <ele>742.067723</ele>
        <time>2022-05-01T07:28:16.545Z</time>
      </trkpt>
      <trkpt lat="41.16968" lon="20.64549">
        <ele>741.981222</ele>
        <time>2022-05-01T07:28:18.550Z</time>
      </trkpt>
      <trkpt lat="41.16963" lon="20.64538">
        <ele>741.894055</ele>
        <time>2022-05-01T07:28:20.538Z</time>
      </trkpt>
      <trkpt lat="41.16959" lon="20.64527">
        <ele>741.805482</ele>
        <time>2022-05-01T07:28:22.535Z</time>
      </trkpt>
      <trkpt lat="41.16953" lon="20.64516">
        <ele>741.712355</ele>
        <time>2022-05-01T07:28:24.533Z</time>
      </trkpt>
      <trkpt lat="41.16948" lon="20.64505">
        <ele>741.616663</ele>
        <time>2022-05-01T07:28:26.553Z</time>
      </trkpt>
      <trkpt lat="41.16942" lon="20.64495">
        <ele>741.525093</ele>
        <time>2022-05-01T07:28:28.551Z</time>
      </trkpt>
      <trkpt lat="41.16937" lon="20.64485">
        <ele>741.43412</ele>
        <time>2022-05-01T07:28:30.551Z</time>
      </trkpt>
      <trkpt lat="41.16931" lon="20.64474">
        <ele>741.341925</ele>
        <time>2022-05-01T07:28:32.530Z</time>
      </trkpt>
      <trkpt lat="41.16925" lon="20.64463">
        <ele>741.24688</ele>
        <time>2022-05-01T07:28:34.539Z</time>
      </trkpt>
      <trkpt lat="41.16919" lon="20.64452">
        <ele>741.147807</ele>
        <time>2022-05-01T07:28:36.568Z</time>
      </trkpt>
      <trkpt lat="41.16914" lon="20.64441">
        <ele>741.053239</ele>
        <time>2022-05-01T07:28:38.551Z</time>
      </trkpt>
      <trkpt lat="41.16909" lon="20.6443">
        <ele>740.965376</ele>
        <time>2022-05-01T07:28:40.551Z</time>
      </trkpt>
      <trkpt lat="41.16904" lon="20.6442">
        <ele>740.874842</ele>
        <time>2022-05-01T07:28:42.539Z</time>
      </trkpt>
      <trkpt lat="41.16898" lon="20.64409">
        <ele>740.780869</ele>
        <time>2022-05-01T07:28:44.534Z</time>
      </trkpt>
      <trkpt lat="41.16893" lon="20.64398">
        <ele>740.68813</ele>
        <time>2022-05-01T07:28:46.571Z</time>
      </trkpt>
      <trkpt lat="41.16887" lon="20.64387">
        <ele>740.593085</ele>
        <time>2022-05-01T07:28:48.535Z</time>
      </trkpt>
      <trkpt lat="41.16881" lon="20.64377">
        <ele>740.501535</ele>
        <time>2022-05-01T07:28:50.543Z</time>
      </trkpt>
      <trkpt lat="41.16876" lon="20.64367">
        <ele>740.442391</ele>
        <time>2022-05-01T07:28:52.529Z</time>
      </trkpt>
      <trkpt lat="41.1687" lon="20.64357">
        <ele>740.393455</ele>
        <time>2022-05-01T07:28:54.559Z</time>
      </trkpt>
      <trkpt lat="41.16863" lon="20.64347">
        <ele>740.344149</ele>
        <time>2022-05-01T07:28:56.542Z</time>
      </trkpt>
      <trkpt lat="41.16857" lon="20.64337">
        <ele>740.293897</ele>
        <time>2022-05-01T07:28:58.542Z</time>
      </trkpt>
      <trkpt lat="41.1685" lon="20.64328">
        <ele>740.243545</ele>
        <time>2022-05-01T07:29:00.534Z</time>
      </trkpt>
      <trkpt lat="41.16843" lon="20.64318">
        <ele>740.192852</ele>
        <time>2022-05-01T07:29:02.525Z</time>
      </trkpt>
      <trkpt lat="41.16837" lon="20.64308">
        <ele>740.143506</ele>
        <time>2022-05-01T07:29:04.533Z</time>
      </trkpt>
      <trkpt lat="41.16831" lon="20.64298">
        <ele>740.095724</ele>
        <time>2022-05-01T07:29:06.560Z</time>
      </trkpt>
      <trkpt lat="41.16824" lon="20.64289">
        <ele>740.047456</ele>
        <time>2022-05-01T07:29:08.584Z</time>
      </trkpt>
      <trkpt lat="41.16818" lon="20.64279">
        <ele>739.997042</ele>
        <time>2022-05-01T07:29:10.584Z</time>
      </trkpt>
      <trkpt lat="41.16811" lon="20.6427">
        <ele>739.947408</ele>
        <time>2022-05-01T07:29:12.550Z</time>
      </trkpt>
      <trkpt lat="41.16805" lon="20.6426">
        <ele>739.898748</ele>
        <time>2022-05-01T07:29:14.543Z</time>
      </trkpt>
      <trkpt lat="41.16799" lon="20.6425">
        <ele>739.849299</ele>
        <time>2022-05-01T07:29:16.560Z</time>
      </trkpt>
      <trkpt lat="41.16792" lon="20.6424">
        <ele>739.799334</ele>
        <time>2022-05-01T07:29:18.561Z</time>
      </trkpt>
      <trkpt lat="41.16786" lon="20.6423">
        <ele>739.748577</ele>
        <time>2022-05-01T07:29:20.545Z</time>
      </trkpt>
      <trkpt lat="41.1678" lon="20.64219">
        <ele>739.69782</ele>
        <time>2022-05-01T07:29:22.547Z</time>
      </trkpt>
      <trkpt lat="41.16774" lon="20.64209">
        <ele>739.647373</ele>
        <time>2022-05-01T07:29:24.545Z</time>
      </trkpt>
      <trkpt lat="41.16767" lon="20.64198">
        <ele>739.597527</ele>
        <time>2022-05-01T07:29:26.551Z</time>
      </trkpt>
      <trkpt lat="41.16761" lon="20.64188">
        <ele>739.585056</ele>
        <time>2022-05-01T07:29:28.552Z</time>
      </trkpt>
      <trkpt lat="41.16755" lon="20.64177">
        <ele>739.640448</ele>
        <time>2022-05-01T07:29:30.545Z</time>
      </trkpt>
      <trkpt lat="41.1675" lon="20.64167">
        <ele>739.693154</ele>
        <time>2022-05-01T07:29:32.543Z</time>
      </trkpt>
      <trkpt lat="41.16744" lon="20.64157">
        <ele>739.74721</ele>
        <time>2022-05-01T07:29:34.543Z</time>
      </trkpt>
      <trkpt lat="41.16739" lon="20.64146">
        <ele>739.800727</ele>
        <time>2022-05-01T07:29:36.550Z</time>
      </trkpt>
      <trkpt lat="41.16734" lon="20.64135">
        <ele>739.85596</ele>
        <time>2022-05-01T07:29:38.531Z</time>
      </trkpt>
      <trkpt lat="41.16728" lon="20.64125">
        <ele>739.910031</ele>
        <time>2022-05-01T07:29:40.573Z</time>
      </trkpt>
      <trkpt lat="41.16722" lon="20.64114">
        <ele>739.964822</ele>
        <time>2022-05-01T07:29:42.543Z</time>
      </trkpt>
      <trkpt lat="41.16717" lon="20.64103">
        <ele>740.020226</ele>
        <time>2022-05-01T07:29:44.544Z</time>
      </trkpt>
      <trkpt lat="41.1671" lon="20.64093">
        <ele>740.075642</ele>
        <time>2022-05-01T07:29:46.581Z</time>
      </trkpt>
      <trkpt lat="41.16705" lon="20.64082">
        <ele>740.129692</ele>
        <time>2022-05-01T07:29:48.540Z</time>
      </trkpt>
      <trkpt lat="41.16699" lon="20.64072">
        <ele>740.182737</ele>
        <time>2022-05-01T07:29:50.541Z</time>
      </trkpt>
      <trkpt lat="41.16693" lon="20.64063">
        <ele>740.235167</ele>
        <time>2022-05-01T07:29:52.543Z</time>
      </trkpt>
      <trkpt lat="41.16686" lon="20.64053">
        <ele>740.28918</ele>
        <time>2022-05-01T07:29:54.547Z</time>
      </trkpt>
      <trkpt lat="41.16679" lon="20.64044">
        <ele>740.346449</ele>
        <time>2022-05-01T07:29:56.543Z</time>
      </trkpt>
      <trkpt lat="41.16672" lon="20.64036">
        <ele>740.398977</ele>
        <time>2022-05-01T07:29:58.544Z</time>
      </trkpt>
      <trkpt lat="41.16665" lon="20.64028">
        <ele>740.449263</ele>
        <time>2022-05-01T07:30:00.559Z</time>
      </trkpt>
      <trkpt lat="41.16658" lon="20.6402">
        <ele>740.500425</ele>
        <time>2022-05-01T07:30:02.587Z</time>
      </trkpt>
      <trkpt lat="41.1665" lon="20.64012">
        <ele>740.553272</ele>
        <time>2022-05-01T07:30:04.538Z</time>
      </trkpt>
      <trkpt lat="41.1664" lon="20.64002">
        <ele>740.713543</ele>
        <time>2022-05-01T07:30:07.544Z</time>
      </trkpt>
      <trkpt lat="41.16632" lon="20.63994">
        <ele>740.843781</ele>
        <time>2022-05-01T07:30:09.546Z</time>
      </trkpt>
      <trkpt lat="41.16625" lon="20.63987">
        <ele>740.97598</ele>
        <time>2022-05-01T07:30:11.548Z</time>
      </trkpt>
      <trkpt lat="41.16617" lon="20.63979">
        <ele>741.10582</ele>
        <time>2022-05-01T07:30:13.541Z</time>
      </trkpt>
      <trkpt lat="41.1661" lon="20.63971">
        <ele>741.238654</ele>
        <time>2022-05-01T07:30:15.562Z</time>
      </trkpt>
      <trkpt lat="41.16602" lon="20.63964">
        <ele>741.370714</ele>
        <time>2022-05-01T07:30:17.559Z</time>
      </trkpt>
      <trkpt lat="41.16594" lon="20.63957">
        <ele>741.500355</ele>
        <time>2022-05-01T07:30:19.580Z</time>
      </trkpt>
      <trkpt lat="41.16586" lon="20.63949">
        <ele>741.632925</ele>
        <time>2022-05-01T07:30:21.533Z</time>
      </trkpt>
      <trkpt lat="41.16579" lon="20.63942">
        <ele>741.758061</ele>
        <time>2022-05-01T07:30:23.534Z</time>
      </trkpt>
      <trkpt lat="41.16572" lon="20.63935">
        <ele>741.88544</ele>
        <time>2022-05-01T07:30:25.547Z</time>
      </trkpt>
      <trkpt lat="41.16564" lon="20.63928">
        <ele>742.009463</ele>
        <time>2022-05-01T07:30:27.540Z</time>
      </trkpt>
      <trkpt lat="41.16554" lon="20.63917">
        <ele>742.195505</ele>
        <time>2022-05-01T07:30:30.599Z</time>
      </trkpt>
      <trkpt lat="41.16546" lon="20.6391">
        <ele>742.321259</ele>
        <time>2022-05-01T07:30:32.562Z</time>
      </trkpt>
      <trkpt lat="41.16539" lon="20.63902">
        <ele>742.446724</ele>
        <time>2022-05-01T07:30:34.546Z</time>
      </trkpt>
      <trkpt lat="41.16529" lon="20.63891">
        <ele>742.632152</ele>
        <time>2022-05-01T07:30:37.540Z</time>
      </trkpt>
      <trkpt lat="41.16519" lon="20.6388">
        <ele>742.816022</ele>
        <time>2022-05-01T07:30:40.545Z</time>
      </trkpt>
      <trkpt lat="41.1651" lon="20.63867">
        <ele>742.991022</ele>
        <time>2022-05-01T07:30:43.573Z</time>
      </trkpt>
      <trkpt lat="41.16503" lon="20.63854">
        <ele>743.228618</ele>
        <time>2022-05-01T07:30:46.547Z</time>
      </trkpt>
      <trkpt lat="41.16495" lon="20.63841">
        <ele>743.502327</ele>
        <time>2022-05-01T07:30:49.551Z</time>
      </trkpt>
      <trkpt lat="41.16489" lon="20.63827">
        <ele>743.767542</ele>
        <time>2022-05-01T07:30:52.544Z</time>
      </trkpt>
      <trkpt lat="41.16482" lon="20.63813">
        <ele>744.055204</ele>
        <time>2022-05-01T07:30:55.540Z</time>
      </trkpt>
      <trkpt lat="41.16475" lon="20.63798">
        <ele>744.334919</ele>
        <time>2022-05-01T07:30:58.543Z</time>
      </trkpt>
      <trkpt lat="41.16468" lon="20.63784">
        <ele>744.615526</ele>
        <time>2022-05-01T07:31:01.546Z</time>
      </trkpt>
      <trkpt lat="41.16461" lon="20.63772">
        <ele>744.865597</ele>
        <time>2022-05-01T07:31:04.575Z</time>
      </trkpt>
      <trkpt lat="41.16455" lon="20.63762">
        <ele>745.086452</ele>
        <time>2022-05-01T07:31:07.541Z</time>
      </trkpt>
      <trkpt lat="41.16449" lon="20.6375">
        <ele>745.323138</ele>
        <time>2022-05-01T07:31:10.584Z</time>
      </trkpt>
      <trkpt lat="41.16442" lon="20.63738">
        <ele>745.575695</ele>
        <time>2022-05-01T07:31:13.538Z</time>
      </trkpt>
      <trkpt lat="41.16434" lon="20.63726">
        <ele>745.830905</ele>
        <time>2022-05-01T07:31:16.544Z</time>
      </trkpt>
      <trkpt lat="41.16426" lon="20.63715">
        <ele>746.085228</ele>
        <time>2022-05-01T07:31:19.538Z</time>
      </trkpt>
      <trkpt lat="41.16418" lon="20.63704">
        <ele>746.335427</ele>
        <time>2022-05-01T07:31:22.543Z</time>
      </trkpt>
      <trkpt lat="41.1641" lon="20.63694">
        <ele>746.579664</ele>
        <time>2022-05-01T07:31:25.537Z</time>
      </trkpt>
      <trkpt lat="41.16402" lon="20.63685">
        <ele>746.800757</ele>
        <time>2022-05-01T07:31:28.541Z</time>
      </trkpt>
      <trkpt lat="41.16395" lon="20.63676">
        <ele>747.004582</ele>
        <time>2022-05-01T07:31:31.598Z</time>
      </trkpt>
      <trkpt lat="41.16387" lon="20.63667">
        <ele>746.921742</ele>
        <time>2022-05-01T07:31:34.527Z</time>
      </trkpt>
      <trkpt lat="41.16379" lon="20.63659">
        <ele>746.837897</ele>
        <time>2022-05-01T07:31:37.548Z</time>
      </trkpt>
      <trkpt lat="41.16371" lon="20.6365">
        <ele>746.755063</ele>
        <time>2022-05-01T07:31:40.542Z</time>
      </trkpt>
      <trkpt lat="41.16363" lon="20.63642">
        <ele>746.675388</ele>
        <time>2022-05-01T07:31:43.534Z</time>
      </trkpt>
      <trkpt lat="41.16354" lon="20.63634">
        <ele>746.587373</ele>
        <time>2022-05-01T07:31:46.563Z</time>
      </trkpt>
      <trkpt lat="41.16344" lon="20.63625">
        <ele>746.492992</ele>
        <time>2022-05-01T07:31:49.562Z</time>
      </trkpt>
      <trkpt lat="41.16334" lon="20.63617">
        <ele>746.396731</ele>
        <time>2022-05-01T07:31:52.532Z</time>
      </trkpt>
      <trkpt lat="41.16323" lon="20.63609">
        <ele>746.297537</ele>
        <time>2022-05-01T07:31:55.542Z</time>
      </trkpt>
      <trkpt lat="41.16312" lon="20.63603">
        <ele>746.198339</ele>
        <time>2022-05-01T07:31:58.521Z</time>
      </trkpt>
      <trkpt lat="41.16301" lon="20.63596">
        <ele>746.106642</ele>
        <time>2022-05-01T07:32:01.553Z</time>
      </trkpt>
      <trkpt lat="41.1629" lon="20.6359">
        <ele>746.004683</ele>
        <time>2022-05-01T07:32:04.585Z</time>
      </trkpt>
      <trkpt lat="41.16281" lon="20.63585">
        <ele>745.930635</ele>
        <time>2022-05-01T07:32:06.566Z</time>
      </trkpt>
      <trkpt lat="41.16269" lon="20.63578">
        <ele>745.828513</ele>
        <time>2022-05-01T07:32:09.574Z</time>
      </trkpt>
      <trkpt lat="41.16257" lon="20.63571">
        <ele>745.72002</ele>
        <time>2022-05-01T07:32:12.544Z</time>
      </trkpt>
      <trkpt lat="41.16245" lon="20.63564">
        <ele>745.612756</ele>
        <time>2022-05-01T07:32:15.559Z</time>
      </trkpt>
      <trkpt lat="41.16233" lon="20.63557">
        <ele>745.556471</ele>
        <time>2022-05-01T07:32:18.541Z</time>
      </trkpt>
      <trkpt lat="41.16221" lon="20.6355">
        <ele>745.539656</ele>
        <time>2022-05-01T07:32:21.547Z</time>
      </trkpt>
      <trkpt lat="41.16209" lon="20.63544">
        <ele>745.522757</ele>
        <time>2022-05-01T07:32:24.576Z</time>
      </trkpt>
      <trkpt lat="41.162" lon="20.63541">
        <ele>745.51034</ele>
        <time>2022-05-01T07:32:26.589Z</time>
      </trkpt>
      <trkpt lat="41.16191" lon="20.63537">
        <ele>745.498451</ele>
        <time>2022-05-01T07:32:28.552Z</time>
      </trkpt>
      <trkpt lat="41.1618" lon="20.6353">
        <ele>745.482784</ele>
        <time>2022-05-01T07:32:31.552Z</time>
      </trkpt>
      <trkpt lat="41.1617" lon="20.63524">
        <ele>745.468761</ele>
        <time>2022-05-01T07:32:34.586Z</time>
      </trkpt>
      <trkpt lat="41.1616" lon="20.63517">
        <ele>745.453781</ele>
        <time>2022-05-01T07:32:37.545Z</time>
      </trkpt>
      <trkpt lat="41.16149" lon="20.6351">
        <ele>745.438507</ele>
        <time>2022-05-01T07:32:40.554Z</time>
      </trkpt>
      <trkpt lat="41.16138" lon="20.63504">
        <ele>745.423077</ele>
        <time>2022-05-01T07:32:43.542Z</time>
      </trkpt>
      <trkpt lat="41.16127" lon="20.63497">
        <ele>745.407134</ele>
        <time>2022-05-01T07:32:46.541Z</time>
      </trkpt>
      <trkpt lat="41.16115" lon="20.63491">
        <ele>745.390464</ele>
        <time>2022-05-01T07:32:49.558Z</time>
      </trkpt>
      <trkpt lat="41.16103" lon="20.63484">
        <ele>745.373924</ele>
        <time>2022-05-01T07:32:52.563Z</time>
      </trkpt>
      <trkpt lat="41.16092" lon="20.63479">
        <ele>745.358287</ele>
        <time>2022-05-01T07:32:55.566Z</time>
      </trkpt>
      <trkpt lat="41.1608" lon="20.63475">
        <ele>745.342895</ele>
        <time>2022-05-01T07:32:58.543Z</time>
      </trkpt>
      <trkpt lat="41.16068" lon="20.63472">
        <ele>745.380042</ele>
        <time>2022-05-01T07:33:01.537Z</time>
      </trkpt>
      <trkpt lat="41.16056" lon="20.63469">
        <ele>745.509062</ele>
        <time>2022-05-01T07:33:04.598Z</time>
      </trkpt>
      <trkpt lat="41.16044" lon="20.63467">
        <ele>745.640339</ele>
        <time>2022-05-01T07:33:07.532Z</time>
      </trkpt>
      <trkpt lat="41.16031" lon="20.63465">
        <ele>745.781456</ele>
        <time>2022-05-01T07:33:10.528Z</time>
      </trkpt>
      <trkpt lat="41.16018" lon="20.63464">
        <ele>745.922049</ele>
        <time>2022-05-01T07:33:13.541Z</time>
      </trkpt>
      <trkpt lat="41.16005" lon="20.63462">
        <ele>746.061655</ele>
        <time>2022-05-01T07:33:16.554Z</time>
      </trkpt>
      <trkpt lat="41.15992" lon="20.6346">
        <ele>746.202248</ele>
        <time>2022-05-01T07:33:19.518Z</time>
      </trkpt>
      <trkpt lat="41.15979" lon="20.63458">
        <ele>746.338926</ele>
        <time>2022-05-01T07:33:22.599Z</time>
      </trkpt>
      <trkpt lat="41.15967" lon="20.63456">
        <ele>746.472421</ele>
        <time>2022-05-01T07:33:25.535Z</time>
      </trkpt>
      <trkpt lat="41.15954" lon="20.63454">
        <ele>746.607287</ele>
        <time>2022-05-01T07:33:28.539Z</time>
      </trkpt>
      <trkpt lat="41.15942" lon="20.63452">
        <ele>746.743785</ele>
        <time>2022-05-01T07:33:31.541Z</time>
      </trkpt>
      <trkpt lat="41.1593" lon="20.6345">
        <ele>746.874001</ele>
        <time>2022-05-01T07:33:34.543Z</time>
      </trkpt>
      <trkpt lat="41.15918" lon="20.63448">
        <ele>747.000649</ele>
        <time>2022-05-01T07:33:37.533Z</time>
      </trkpt>
      <trkpt lat="41.15906" lon="20.63446">
        <ele>747.12672</ele>
        <time>2022-05-01T07:33:40.538Z</time>
      </trkpt>
      <trkpt lat="41.15895" lon="20.63444">
        <ele>747.246435</ele>
        <time>2022-05-01T07:33:43.558Z</time>
      </trkpt>
      <trkpt lat="41.15884" lon="20.63443">
        <ele>747.567332</ele>
        <time>2022-05-01T07:33:46.540Z</time>
      </trkpt>
      <trkpt lat="41.15874" lon="20.63441">
        <ele>747.896822</ele>
        <time>2022-05-01T07:33:49.521Z</time>
      </trkpt>
      <trkpt lat="41.15864" lon="20.63439">
        <ele>748.217582</ele>
        <time>2022-05-01T07:33:52.559Z</time>
      </trkpt>
      <trkpt lat="41.15854" lon="20.63438">
        <ele>748.515013</ele>
        <time>2022-05-01T07:33:55.529Z</time>
      </trkpt>
      <trkpt lat="41.15845" lon="20.63436">
        <ele>748.800233</ele>
        <time>2022-05-01T07:33:58.527Z</time>
      </trkpt>
      <trkpt lat="41.15836" lon="20.63434">
        <ele>749.11276</ele>
        <time>2022-05-01T07:34:01.539Z</time>
      </trkpt>
      <trkpt lat="41.15826" lon="20.63432">
        <ele>749.406701</ele>
        <time>2022-05-01T07:34:04.551Z</time>
      </trkpt>
      <trkpt lat="41.15815" lon="20.6343">
        <ele>749.761449</ele>
        <time>2022-05-01T07:34:08.560Z</time>
      </trkpt>
      <trkpt lat="41.15803" lon="20.63428">
        <ele>750.135212</ele>
        <time>2022-05-01T07:34:12.539Z</time>
      </trkpt>
      <trkpt lat="41.15793" lon="20.63426">
        <ele>750.477779</ele>
        <time>2022-05-01T07:34:16.532Z</time>
      </trkpt>
      <trkpt lat="41.15781" lon="20.63425">
        <ele>750.834433</ele>
        <time>2022-05-01T07:34:20.542Z</time>
      </trkpt>
      <trkpt lat="41.1577" lon="20.63423">
        <ele>751.188397</ele>
        <time>2022-05-01T07:34:24.531Z</time>
      </trkpt>
      <trkpt lat="41.1576" lon="20.63422">
        <ele>751.517888</ele>
        <time>2022-05-01T07:34:28.534Z</time>
      </trkpt>
      <trkpt lat="41.15749" lon="20.6342">
        <ele>751.847098</ele>
        <time>2022-05-01T07:34:32.564Z</time>
      </trkpt>
      <trkpt lat="41.15739" lon="20.63419">
        <ele>752.188313</ele>
        <time>2022-05-01T07:34:36.530Z</time>
      </trkpt>
      <trkpt lat="41.15728" lon="20.63417">
        <ele>752.524046</ele>
        <time>2022-05-01T07:34:40.526Z</time>
      </trkpt>
      <trkpt lat="41.15718" lon="20.63415">
        <ele>752.838927</ele>
        <time>2022-05-01T07:34:44.539Z</time>
      </trkpt>
      <trkpt lat="41.15708" lon="20.63413">
        <ele>753.338258</ele>
        <time>2022-05-01T07:34:48.533Z</time>
      </trkpt>
      <trkpt lat="41.15698" lon="20.63411">
        <ele>753.903769</ele>
        <time>2022-05-01T07:34:52.528Z</time>
      </trkpt>
      <trkpt lat="41.15688" lon="20.63409">
        <ele>754.50144</ele>
        <time>2022-05-01T07:34:56.534Z</time>
      </trkpt>
      <trkpt lat="41.15677" lon="20.63408">
        <ele>755.105203</ele>
        <time>2022-05-01T07:35:00.542Z</time>
      </trkpt>
      <trkpt lat="41.15667" lon="20.63405">
        <ele>755.707474</ele>
        <time>2022-05-01T07:35:04.526Z</time>
      </trkpt>
      <trkpt lat="41.15658" lon="20.63404">
        <ele>756.226435</ele>
        <time>2022-05-01T07:35:08.530Z</time>
      </trkpt>
      <trkpt lat="41.15648" lon="20.63403">
        <ele>756.799959</ele>
        <time>2022-05-01T07:35:12.536Z</time>
      </trkpt>
      <trkpt lat="41.15637" lon="20.63401">
        <ele>757.384785</ele>
        <time>2022-05-01T07:35:17.541Z</time>
      </trkpt>
      <trkpt lat="41.15628" lon="20.63395">
        <ele>757.987294</ele>
        <time>2022-05-01T07:35:24.528Z</time>
      </trkpt>
      <trkpt lat="41.15616" lon="20.63394">
        <ele>758.657769</ele>
        <time>2022-05-01T07:35:28.516Z</time>
      </trkpt>
      <trkpt lat="41.15605" lon="20.63392">
        <ele>759.258711</ele>
        <time>2022-05-01T07:35:32.531Z</time>
      </trkpt>
      <trkpt lat="41.15595" lon="20.6339">
        <ele>759.826098</ele>
        <time>2022-05-01T07:35:36.554Z</time>
      </trkpt>
      <trkpt lat="41.15585" lon="20.63389">
        <ele>760.416545</ele>
        <time>2022-05-01T07:35:40.524Z</time>
      </trkpt>
      <trkpt lat="41.15574" lon="20.63387">
        <ele>761.031556</ele>
        <time>2022-05-01T07:35:44.532Z</time>
      </trkpt>
      <trkpt lat="41.15564" lon="20.63386">
        <ele>761.616719</ele>
        <time>2022-05-01T07:35:48.530Z</time>
      </trkpt>
      <trkpt lat="41.15553" lon="20.63385">
        <ele>762.230844</ele>
        <time>2022-05-01T07:35:52.536Z</time>
      </trkpt>
      <trkpt lat="41.15542" lon="20.63384">
        <ele>762.831487</ele>
        <time>2022-05-01T07:35:56.574Z</time>
      </trkpt>
      <trkpt lat="41.15532" lon="20.63383">
        <ele>763.268621</ele>
        <time>2022-05-01T07:36:01.528Z</time>
      </trkpt>
      <trkpt lat="41.15522" lon="20.63382">
        <ele>763.55151</ele>
        <time>2022-05-01T07:36:05.563Z</time>
      </trkpt>
      <trkpt lat="41.15513" lon="20.63379">
        <ele>763.830601</ele>
        <time>2022-05-01T07:36:09.525Z</time>
      </trkpt>
      <trkpt lat="41.15504" lon="20.63377">
        <ele>764.117941</ele>
        <time>2022-05-01T07:36:13.538Z</time>
      </trkpt>
      <trkpt lat="41.15492" lon="20.63376">
        <ele>764.446646</ele>
        <time>2022-05-01T07:36:17.544Z</time>
      </trkpt>
      <trkpt lat="41.15482" lon="20.63375">
        <ele>764.764798</ele>
        <time>2022-05-01T07:36:22.533Z</time>
      </trkpt>
      <trkpt lat="41.15472" lon="20.63373">
        <ele>765.069359</ele>
        <time>2022-05-01T07:36:26.518Z</time>
      </trkpt>
      <trkpt lat="41.15462" lon="20.63372">
        <ele>765.343179</ele>
        <time>2022-05-01T07:36:29.587Z</time>
      </trkpt>
      <trkpt lat="41.15453" lon="20.6337">
        <ele>765.616999</ele>
        <time>2022-05-01T07:36:32.556Z</time>
      </trkpt>
      <trkpt lat="41.15443" lon="20.63369">
        <ele>765.914333</ele>
        <time>2022-05-01T07:36:36.530Z</time>
      </trkpt>
      <trkpt lat="41.15433" lon="20.63368">
        <ele>766.216608</ele>
        <time>2022-05-01T07:36:40.571Z</time>
      </trkpt>
      <trkpt lat="41.15424" lon="20.63366">
        <ele>766.495187</ele>
        <time>2022-05-01T07:36:44.535Z</time>
      </trkpt>
      <trkpt lat="41.15415" lon="20.63365">
        <ele>766.762651</ele>
        <time>2022-05-01T07:36:48.540Z</time>
      </trkpt>
      <trkpt lat="41.15406" lon="20.63364">
        <ele>767.02953</ele>
        <time>2022-05-01T07:36:52.562Z</time>
      </trkpt>
      <trkpt lat="41.15395" lon="20.63363">
        <ele>767.337448</ele>
        <time>2022-05-01T07:36:57.547Z</time>
      </trkpt>
      <trkpt lat="41.15386" lon="20.63362">
        <ele>767.626211</ele>
        <time>2022-05-01T07:37:00.539Z</time>
      </trkpt>
      <trkpt lat="41.15375" lon="20.63359">
        <ele>767.948967</ele>
        <time>2022-05-01T07:37:04.539Z</time>
      </trkpt>
      <trkpt lat="41.15364" lon="20.63357">
        <ele>768.262624</ele>
        <time>2022-05-01T07:37:08.542Z</time>
      </trkpt>
      <trkpt lat="41.15354" lon="20.63355">
        <ele>768.467891</ele>
        <time>2022-05-01T07:37:12.544Z</time>
      </trkpt>
      <trkpt lat="41.15343" lon="20.63354">
        <ele>768.589704</ele>
        <time>2022-05-01T07:37:16.525Z</time>
      </trkpt>
      <trkpt lat="41.15332" lon="20.63352">
        <ele>768.709366</ele>
        <time>2022-05-01T07:37:20.533Z</time>
      </trkpt>
      <trkpt lat="41.15323" lon="20.63351">
        <ele>768.808177</ele>
        <time>2022-05-01T07:37:23.532Z</time>
      </trkpt>
      <trkpt lat="41.15312" lon="20.63349">
        <ele>768.92728</ele>
        <time>2022-05-01T07:37:27.541Z</time>
      </trkpt>
      <trkpt lat="41.153" lon="20.63349">
        <ele>769.05164</ele>
        <time>2022-05-01T07:37:31.539Z</time>
      </trkpt>
      <trkpt lat="41.1529" lon="20.63347">
        <ele>769.158316</ele>
        <time>2022-05-01T07:37:34.540Z</time>
      </trkpt>
      <trkpt lat="41.15281" lon="20.63345">
        <ele>769.262146</ele>
        <time>2022-05-01T07:37:37.534Z</time>
      </trkpt>
      <trkpt lat="41.15272" lon="20.63343">
        <ele>769.362317</ele>
        <time>2022-05-01T07:37:40.526Z</time>
      </trkpt>
      <trkpt lat="41.15263" lon="20.6334">
        <ele>769.462805</ele>
        <time>2022-05-01T07:37:43.531Z</time>
      </trkpt>
      <trkpt lat="41.15254" lon="20.63336">
        <ele>769.560313</ele>
        <time>2022-05-01T07:37:46.536Z</time>
      </trkpt>
      <trkpt lat="41.15243" lon="20.63332">
        <ele>769.688865</ele>
        <time>2022-05-01T07:37:50.551Z</time>
      </trkpt>
      <trkpt lat="41.15232" lon="20.63327">
        <ele>769.818277</ele>
        <time>2022-05-01T07:37:54.572Z</time>
      </trkpt>
      <trkpt lat="41.15221" lon="20.63321">
        <ele>769.94456</ele>
        <time>2022-05-01T07:37:58.538Z</time>
      </trkpt>
      <trkpt lat="41.15212" lon="20.63315">
        <ele>770.05366</ele>
        <time>2022-05-01T07:38:02.549Z</time>
      </trkpt>
      <trkpt lat="41.15202" lon="20.6331">
        <ele>770.170022</ele>
        <time>2022-05-01T07:38:06.525Z</time>
      </trkpt>
      <trkpt lat="41.15193" lon="20.63305">
        <ele>770.271703</ele>
        <time>2022-05-01T07:38:09.531Z</time>
      </trkpt>
      <trkpt lat="41.15184" lon="20.633">
        <ele>770.33902</ele>
        <time>2022-05-01T07:38:12.530Z</time>
      </trkpt>
      <trkpt lat="41.15174" lon="20.63294">
        <ele>770.239432</ele>
        <time>2022-05-01T07:38:16.552Z</time>
      </trkpt>
      <trkpt lat="41.15165" lon="20.63289">
        <ele>770.153289</ele>
        <time>2022-05-01T07:38:19.579Z</time>
      </trkpt>
      <trkpt lat="41.15156" lon="20.63284">
        <ele>770.068972</ele>
        <time>2022-05-01T07:38:22.581Z</time>
      </trkpt>
      <trkpt lat="41.15147" lon="20.6328">
        <ele>769.988966</ele>
        <time>2022-05-01T07:38:25.545Z</time>
      </trkpt>
      <trkpt lat="41.15138" lon="20.63275">
        <ele>769.903194</ele>
        <time>2022-05-01T07:38:28.550Z</time>
      </trkpt>
      <trkpt lat="41.15128" lon="20.6327">
        <ele>769.815185</ele>
        <time>2022-05-01T07:38:31.523Z</time>
      </trkpt>
      <trkpt lat="41.15118" lon="20.63267">
        <ele>769.721172</ele>
        <time>2022-05-01T07:38:34.538Z</time>
      </trkpt>
      <trkpt lat="41.15107" lon="20.63266">
        <ele>769.625301</ele>
        <time>2022-05-01T07:38:37.546Z</time>
      </trkpt>
      <trkpt lat="41.15095" lon="20.63263">
        <ele>769.522127</ele>
        <time>2022-05-01T07:38:40.546Z</time>
      </trkpt>
      <trkpt lat="41.15082" lon="20.63261">
        <ele>769.410309</ele>
        <time>2022-05-01T07:38:43.533Z</time>
      </trkpt>
      <trkpt lat="41.15068" lon="20.63258">
        <ele>769.292009</ele>
        <time>2022-05-01T07:38:46.540Z</time>
      </trkpt>
      <trkpt lat="41.15059" lon="20.63255">
        <ele>769.205088</ele>
        <time>2022-05-01T07:38:48.543Z</time>
      </trkpt>
      <trkpt lat="41.15049" lon="20.63251">
        <ele>769.116201</ele>
        <time>2022-05-01T07:38:50.558Z</time>
      </trkpt>
      <trkpt lat="41.15038" lon="20.63247">
        <ele>769.022622</ele>
        <time>2022-05-01T07:38:52.534Z</time>
      </trkpt>
      <trkpt lat="41.15028" lon="20.63243">
        <ele>768.926189</ele>
        <time>2022-05-01T07:38:54.530Z</time>
      </trkpt>
      <trkpt lat="41.15017" lon="20.63238">
        <ele>768.825496</ele>
        <time>2022-05-01T07:38:56.556Z</time>
      </trkpt>
      <trkpt lat="41.15005" lon="20.63233">
        <ele>768.637664</ele>
        <time>2022-05-01T07:38:58.521Z</time>
      </trkpt>
      <trkpt lat="41.14994" lon="20.63228">
        <ele>768.412724</ele>
        <time>2022-05-01T07:39:00.531Z</time>
      </trkpt>
      <trkpt lat="41.14983" lon="20.63222">
        <ele>768.199161</ele>
        <time>2022-05-01T07:39:02.518Z</time>
      </trkpt>
      <trkpt lat="41.14972" lon="20.63217">
        <ele>767.981148</ele>
        <time>2022-05-01T07:39:04.540Z</time>
      </trkpt>
      <trkpt lat="41.1496" lon="20.63211">
        <ele>767.737854</ele>
        <time>2022-05-01T07:39:06.549Z</time>
      </trkpt>
      <trkpt lat="41.14947" lon="20.63205">
        <ele>767.490139</ele>
        <time>2022-05-01T07:39:08.542Z</time>
      </trkpt>
      <trkpt lat="41.14935" lon="20.63199">
        <ele>767.245905</ele>
        <time>2022-05-01T07:39:10.539Z</time>
      </trkpt>
      <trkpt lat="41.14923" lon="20.63194">
        <ele>767.011872</ele>
        <time>2022-05-01T07:39:12.517Z</time>
      </trkpt>
      <trkpt lat="41.14911" lon="20.63188">
        <ele>766.775067</ele>
        <time>2022-05-01T07:39:14.537Z</time>
      </trkpt>
      <trkpt lat="41.14898" lon="20.63182">
        <ele>766.534421</ele>
        <time>2022-05-01T07:39:16.532Z</time>
      </trkpt>
      <trkpt lat="41.14887" lon="20.63178">
        <ele>766.309001</ele>
        <time>2022-05-01T07:39:18.561Z</time>
      </trkpt>
      <trkpt lat="41.14875" lon="20.63173">
        <ele>766.083304</ele>
        <time>2022-05-01T07:39:20.565Z</time>
      </trkpt>
      <trkpt lat="41.14865" lon="20.63169">
        <ele>765.879545</ele>
        <time>2022-05-01T07:39:22.547Z</time>
      </trkpt>
      <trkpt lat="41.14854" lon="20.63165">
        <ele>765.681335</ele>
        <time>2022-05-01T07:39:24.564Z</time>
      </trkpt>
      <trkpt lat="41.14845" lon="20.63162">
        <ele>765.512848</ele>
        <time>2022-05-01T07:39:26.537Z</time>
      </trkpt>
      <trkpt lat="41.14833" lon="20.63157">
        <ele>765.518576</ele>
        <time>2022-05-01T07:39:29.538Z</time>
      </trkpt>
      <trkpt lat="41.14822" lon="20.63152">
        <ele>765.571163</ele>
        <time>2022-05-01T07:39:32.541Z</time>
      </trkpt>
      <trkpt lat="41.14811" lon="20.63148">
        <ele>765.62715</ele>
        <time>2022-05-01T07:39:35.524Z</time>
      </trkpt>
      <trkpt lat="41.14799" lon="20.63143">
        <ele>765.683771</ele>
        <time>2022-05-01T07:39:38.529Z</time>
      </trkpt>
      <trkpt lat="41.14789" lon="20.63138">
        <ele>765.735015</ele>
        <time>2022-05-01T07:39:41.530Z</time>
      </trkpt>
      <trkpt lat="41.14778" lon="20.63132">
        <ele>765.789854</ele>
        <time>2022-05-01T07:39:44.538Z</time>
      </trkpt>
      <trkpt lat="41.14767" lon="20.63126">
        <ele>765.845577</ele>
        <time>2022-05-01T07:39:47.538Z</time>
      </trkpt>
      <trkpt lat="41.14756" lon="20.63121">
        <ele>765.897283</ele>
        <time>2022-05-01T07:39:50.537Z</time>
      </trkpt>
      <trkpt lat="41.14746" lon="20.63116">
        <ele>765.945471</ele>
        <time>2022-05-01T07:39:53.550Z</time>
      </trkpt>
      <trkpt lat="41.14736" lon="20.63111">
        <ele>765.996125</ele>
        <time>2022-05-01T07:39:56.537Z</time>
      </trkpt>
      <trkpt lat="41.14727" lon="20.63105">
        <ele>766.043224</ele>
        <time>2022-05-01T07:39:59.519Z</time>
      </trkpt>
      <trkpt lat="41.14717" lon="20.631">
        <ele>766.091173</ele>
        <time>2022-05-01T07:40:02.553Z</time>
      </trkpt>
      <trkpt lat="41.14708" lon="20.63094">
        <ele>766.139949</ele>
        <time>2022-05-01T07:40:05.545Z</time>
      </trkpt>
      <trkpt lat="41.14697" lon="20.63088">
        <ele>766.193376</ele>
        <time>2022-05-01T07:40:08.556Z</time>
      </trkpt>
      <trkpt lat="41.14687" lon="20.63082">
        <ele>766.243567</ele>
        <time>2022-05-01T07:40:11.525Z</time>
      </trkpt>
      <trkpt lat="41.14677" lon="20.63076">
        <ele>766.294316</ele>
        <time>2022-05-01T07:40:14.528Z</time>
      </trkpt>
      <trkpt lat="41.14668" lon="20.6307">
        <ele>766.552288</ele>
        <time>2022-05-01T07:40:17.535Z</time>
      </trkpt>
      <trkpt lat="41.14659" lon="20.63064">
        <ele>766.838696</ele>
        <time>2022-05-01T07:40:20.538Z</time>
      </trkpt>
      <trkpt lat="41.14651" lon="20.63058">
        <ele>767.129234</ele>
        <time>2022-05-01T07:40:23.541Z</time>
      </trkpt>
      <trkpt lat="41.14641" lon="20.63052">
        <ele>767.436123</ele>
        <time>2022-05-01T07:40:26.536Z</time>
      </trkpt>
      <trkpt lat="41.14633" lon="20.63047">
        <ele>767.700214</ele>
        <time>2022-05-01T07:40:29.519Z</time>
      </trkpt>
      <trkpt lat="41.14622" lon="20.63041">
        <ele>768.04016</ele>
        <time>2022-05-01T07:40:33.571Z</time>
      </trkpt>
      <trkpt lat="41.14611" lon="20.63035">
        <ele>768.381128</ele>
        <time>2022-05-01T07:40:37.528Z</time>
      </trkpt>
      <trkpt lat="41.14601" lon="20.6303">
        <ele>768.703378</ele>
        <time>2022-05-01T07:40:41.527Z</time>
      </trkpt>
      <trkpt lat="41.14591" lon="20.63027">
        <ele>769.012853</ele>
        <time>2022-05-01T07:40:45.541Z</time>
      </trkpt>
      <trkpt lat="41.14579" lon="20.63024">
        <ele>769.356461</ele>
        <time>2022-05-01T07:40:49.532Z</time>
      </trkpt>
      <trkpt lat="41.14567" lon="20.63024">
        <ele>769.704928</ele>
        <time>2022-05-01T07:40:53.569Z</time>
      </trkpt>
      <trkpt lat="41.14556" lon="20.63023">
        <ele>770.048225</ele>
        <time>2022-05-01T07:40:57.519Z</time>
      </trkpt>
      <trkpt lat="41.14544" lon="20.63022">
        <ele>770.39736</ele>
        <time>2022-05-01T07:41:01.540Z</time>
      </trkpt>
      <trkpt lat="41.14534" lon="20.63018">
        <ele>770.681934</ele>
        <time>2022-05-01T07:41:04.571Z</time>
      </trkpt>
      <trkpt lat="41.14525" lon="20.63014">
        <ele>770.97921</ele>
        <time>2022-05-01T07:41:07.546Z</time>
      </trkpt>
      <trkpt lat="41.14516" lon="20.63009">
        <ele>771.262941</ele>
        <time>2022-05-01T07:41:10.545Z</time>
      </trkpt>
      <trkpt lat="41.14507" lon="20.63002">
        <ele>771.568612</ele>
        <time>2022-05-01T07:41:13.520Z</time>
      </trkpt>
      <trkpt lat="41.14498" lon="20.62995">
        <ele>771.80717</ele>
        <time>2022-05-01T07:41:16.529Z</time>
      </trkpt>
      <trkpt lat="41.14489" lon="20.62988">
        <ele>772.077058</ele>
        <time>2022-05-01T07:41:19.540Z</time>
      </trkpt>
      <trkpt lat="41.14479" lon="20.6298">
        <ele>772.360381</ele>
        <time>2022-05-01T07:41:22.538Z</time>
      </trkpt>
      <trkpt lat="41.14468" lon="20.62975">
        <ele>772.637953</ele>
        <time>2022-05-01T07:41:25.529Z</time>
      </trkpt>
      <trkpt lat="41.14456" lon="20.6297">
        <ele>772.929512</ele>
        <time>2022-05-01T07:41:28.523Z</time>
      </trkpt>
      <trkpt lat="41.14445" lon="20.62969">
        <ele>773.206819</ele>
        <time>2022-05-01T07:41:31.538Z</time>
      </trkpt>
      <trkpt lat="41.14434" lon="20.62969">
        <ele>773.473716</ele>
        <time>2022-05-01T07:41:34.536Z</time>
      </trkpt>
      <trkpt lat="41.14423" lon="20.62967">
        <ele>773.746685</ele>
        <time>2022-05-01T07:41:37.528Z</time>
      </trkpt>
      <trkpt lat="41.14411" lon="20.62966">
        <ele>774.024665</ele>
        <time>2022-05-01T07:41:40.547Z</time>
      </trkpt>
      <trkpt lat="41.14401" lon="20.62963">
        <ele>774.284551</ele>
        <time>2022-05-01T07:41:43.559Z</time>
      </trkpt>
      <trkpt lat="41.14391" lon="20.62961">
        <ele>774.533687</ele>
        <time>2022-05-01T07:41:46.531Z</time>
      </trkpt>
      <trkpt lat="41.1438" lon="20.62958">
        <ele>774.799256</ele>
        <time>2022-05-01T07:41:49.561Z</time>
      </trkpt>
      <trkpt lat="41.14369" lon="20.62954">
        <ele>775.072999</ele>
        <time>2022-05-01T07:41:52.565Z</time>
      </trkpt>
      <trkpt lat="41.14358" lon="20.62949">
        <ele>775.353243</ele>
        <time>2022-05-01T07:41:55.519Z</time>
      </trkpt>
      <trkpt lat="41.14348" lon="20.62945">
        <ele>775.603557</ele>
        <time>2022-05-01T07:41:58.538Z</time>
      </trkpt>
      <trkpt lat="41.14338" lon="20.62942">
        <ele>775.866523</ele>
        <time>2022-05-01T07:42:01.533Z</time>
      </trkpt>
      <trkpt lat="41.14327" lon="20.62938">
        <ele>776.17347</ele>
        <time>2022-05-01T07:42:04.526Z</time>
      </trkpt>
      <trkpt lat="41.14317" lon="20.62933">
        <ele>776.514008</ele>
        <time>2022-05-01T07:42:07.536Z</time>
      </trkpt>
      <trkpt lat="41.14307" lon="20.62931">
        <ele>776.795099</ele>
        <time>2022-05-01T07:42:10.545Z</time>
      </trkpt>
      <trkpt lat="41.14296" lon="20.62927">
        <ele>777.14189</ele>
        <time>2022-05-01T07:42:14.526Z</time>
      </trkpt>
      <trkpt lat="41.14285" lon="20.62924">
        <ele>777.493218</ele>
        <time>2022-05-01T07:42:18.563Z</time>
      </trkpt>
      <trkpt lat="41.14275" lon="20.6292">
        <ele>777.81455</ele>
        <time>2022-05-01T07:42:21.527Z</time>
      </trkpt>
      <trkpt lat="41.14264" lon="20.62915">
        <ele>778.152233</ele>
        <time>2022-05-01T07:42:24.549Z</time>
      </trkpt>
      <trkpt lat="41.14254" lon="20.6291">
        <ele>778.475226</ele>
        <time>2022-05-01T07:42:28.518Z</time>
      </trkpt>
      <trkpt lat="41.14245" lon="20.62903">
        <ele>778.788282</ele>
        <time>2022-05-01T07:42:32.542Z</time>
      </trkpt>
      <trkpt lat="41.14237" lon="20.62896">
        <ele>779.086102</ele>
        <time>2022-05-01T07:42:35.536Z</time>
      </trkpt>
      <trkpt lat="41.14228" lon="20.62891">
        <ele>779.372097</ele>
        <time>2022-05-01T07:42:38.524Z</time>
      </trkpt>
      <trkpt lat="41.14218" lon="20.62886">
        <ele>779.690304</ele>
        <time>2022-05-01T07:42:42.532Z</time>
      </trkpt>
      <trkpt lat="41.14209" lon="20.62879">
        <ele>780.006137</ele>
        <time>2022-05-01T07:42:46.528Z</time>
      </trkpt>
      <trkpt lat="41.14201" lon="20.62874">
        <ele>780.282774</ele>
        <time>2022-05-01T07:42:50.536Z</time>
      </trkpt>
      <trkpt lat="41.14192" lon="20.62869">
        <ele>780.571385</ele>
        <time>2022-05-01T07:42:54.539Z</time>
      </trkpt>
      <trkpt lat="41.14182" lon="20.62864">
        <ele>780.886794</ele>
        <time>2022-05-01T07:42:59.529Z</time>
      </trkpt>
      <trkpt lat="41.14173" lon="20.62859">
        <ele>781.186409</ele>
        <time>2022-05-01T07:43:04.538Z</time>
      </trkpt>
      <trkpt lat="41.14163" lon="20.62853">
        <ele>781.444647</ele>
        <time>2022-05-01T07:43:09.539Z</time>
      </trkpt>
      <trkpt lat="41.14154" lon="20.62848">
        <ele>781.603333</ele>
        <time>2022-05-01T07:43:13.580Z</time>
      </trkpt>
      <trkpt lat="41.14143" lon="20.62845">
        <ele>781.776602</ele>
        <time>2022-05-01T07:43:18.539Z</time>
      </trkpt>
      <trkpt lat="41.14133" lon="20.6284">
        <ele>781.952557</ele>
        <time>2022-05-01T07:43:23.525Z</time>
      </trkpt>
      <trkpt lat="41.14123" lon="20.62835">
        <ele>782.129331</ele>
        <time>2022-05-01T07:43:28.524Z</time>
      </trkpt>
      <trkpt lat="41.14113" lon="20.62833">
        <ele>782.285553</ele>
        <time>2022-05-01T07:43:32.535Z</time>
      </trkpt>
      <trkpt lat="41.14103" lon="20.62829">
        <ele>782.468469</ele>
        <time>2022-05-01T07:43:36.536Z</time>
      </trkpt>
      <trkpt lat="41.14094" lon="20.62826">
        <ele>782.61842</ele>
        <time>2022-05-01T07:43:39.531Z</time>
      </trkpt>
      <trkpt lat="41.14084" lon="20.62825">
        <ele>782.773481</ele>
        <time>2022-05-01T07:43:43.542Z</time>
      </trkpt>
      <trkpt lat="41.14074" lon="20.62825">
        <ele>782.946234</ele>
        <time>2022-05-01T07:43:47.545Z</time>
      </trkpt>
      <trkpt lat="41.14064" lon="20.62825">
        <ele>783.104359</ele>
        <time>2022-05-01T07:43:50.523Z</time>
      </trkpt>
      <trkpt lat="41.14055" lon="20.62824">
        <ele>783.258145</ele>
        <time>2022-05-01T07:43:53.540Z</time>
      </trkpt>
      <trkpt lat="41.14044" lon="20.62823">
        <ele>783.438121</ele>
        <time>2022-05-01T07:43:57.532Z</time>
      </trkpt>
      <trkpt lat="41.14034" lon="20.62822">
        <ele>783.598064</ele>
        <time>2022-05-01T07:44:01.521Z</time>
      </trkpt>
      <trkpt lat="41.14024" lon="20.62822">
        <ele>783.754559</ele>
        <time>2022-05-01T07:44:05.535Z</time>
      </trkpt>
      <trkpt lat="41.14014" lon="20.6282">
        <ele>783.923426</ele>
        <time>2022-05-01T07:44:10.525Z</time>
      </trkpt>
      <trkpt lat="41.14005" lon="20.6282">
        <ele>784.070105</ele>
        <time>2022-05-01T07:44:14.555Z</time>
      </trkpt>
      <trkpt lat="41.13993" lon="20.62821">
        <ele>784.260974</ele>
        <time>2022-05-01T07:44:18.575Z</time>
      </trkpt>
      <trkpt lat="41.13983" lon="20.6282">
        <ele>784.739208</ele>
        <time>2022-05-01T07:44:22.541Z</time>
      </trkpt>
      <trkpt lat="41.13973" lon="20.62819">
        <ele>785.235797</ele>
        <time>2022-05-01T07:44:26.570Z</time>
      </trkpt>
      <trkpt lat="41.13962" lon="20.62818">
        <ele>785.815702</ele>
        <time>2022-05-01T07:44:31.535Z</time>
      </trkpt>
      <trkpt lat="41.13952" lon="20.62818">
        <ele>786.324227</ele>
        <time>2022-05-01T07:44:35.536Z</time>
      </trkpt>
      <trkpt lat="41.13942" lon="20.62817">
        <ele>786.813897</ele>
        <time>2022-05-01T07:44:39.524Z</time>
      </trkpt>
      <trkpt lat="41.13933" lon="20.62815">
        <ele>787.297995</ele>
        <time>2022-05-01T07:44:43.529Z</time>
      </trkpt>
      <trkpt lat="41.13923" lon="20.62813">
        <ele>787.782714</ele>
        <time>2022-05-01T07:44:47.535Z</time>
      </trkpt>
      <trkpt lat="41.13912" lon="20.62812">
        <ele>788.350076</ele>
        <time>2022-05-01T07:44:52.540Z</time>
      </trkpt>
      <trkpt lat="41.13903" lon="20.62808">
        <ele>788.869231</ele>
        <time>2022-05-01T07:44:57.524Z</time>
      </trkpt>
      <trkpt lat="41.13891" lon="20.62805">
        <ele>789.446028</ele>
        <time>2022-05-01T07:45:02.538Z</time>
      </trkpt>
      <trkpt lat="41.13881" lon="20.62801">
        <ele>789.984826</ele>
        <time>2022-05-01T07:45:06.540Z</time>
      </trkpt>
      <trkpt lat="41.13871" lon="20.62798">
        <ele>790.522514</ele>
        <time>2022-05-01T07:45:10.569Z</time>
      </trkpt>
      <trkpt lat="41.13861" lon="20.62795">
        <ele>791.014265</ele>
        <time>2022-05-01T07:45:14.551Z</time>
      </trkpt>
      <trkpt lat="41.13851" lon="20.6279">
        <ele>791.567933</ele>
        <time>2022-05-01T07:45:18.541Z</time>
      </trkpt>
      <trkpt lat="41.13843" lon="20.62783">
        <ele>792.076919</ele>
        <time>2022-05-01T07:45:22.548Z</time>
      </trkpt>
      <trkpt lat="41.13833" lon="20.62778">
        <ele>792.63203</ele>
        <time>2022-05-01T07:45:26.547Z</time>
      </trkpt>
      <trkpt lat="41.13823" lon="20.62775">
        <ele>793.12191</ele>
        <time>2022-05-01T07:45:30.518Z</time>
      </trkpt>
      <trkpt lat="41.13813" lon="20.62774">
        <ele>793.718779</ele>
        <time>2022-05-01T07:45:34.531Z</time>
      </trkpt>
      <trkpt lat="41.13802" lon="20.62775">
        <ele>794.509509</ele>
        <time>2022-05-01T07:45:38.542Z</time>
      </trkpt>
      <trkpt lat="41.13792" lon="20.62777">
        <ele>795.205476</ele>
        <time>2022-05-01T07:45:42.540Z</time>
      </trkpt>
      <trkpt lat="41.13783" lon="20.62779">
        <ele>795.894376</ele>
        <time>2022-05-01T07:45:47.542Z</time>
      </trkpt>
      <trkpt lat="41.13773" lon="20.62781">
        <ele>796.604449</ele>
        <time>2022-05-01T07:45:51.532Z</time>
      </trkpt>
      <trkpt lat="41.13763" lon="20.62784">
        <ele>797.355697</ele>
        <time>2022-05-01T07:45:55.538Z</time>
      </trkpt>
      <trkpt lat="41.13752" lon="20.62787">
        <ele>798.105082</ele>
        <time>2022-05-01T07:45:59.522Z</time>
      </trkpt>
      <trkpt lat="41.13742" lon="20.62791">
        <ele>798.863269</ele>
        <time>2022-05-01T07:46:03.524Z</time>
      </trkpt>
      <trkpt lat="41.13732" lon="20.62793">
        <ele>799.595082</ele>
        <time>2022-05-01T07:46:07.526Z</time>
      </trkpt>
      <trkpt lat="41.13722" lon="20.62795">
        <ele>800.338649</ele>
        <time>2022-05-01T07:46:11.547Z</time>
      </trkpt>
      <trkpt lat="41.13711" lon="20.62797">
        <ele>801.095633</ele>
        <time>2022-05-01T07:46:15.536Z</time>
      </trkpt>
      <trkpt lat="41.13699" lon="20.62799">
        <ele>801.933448</ele>
        <time>2022-05-01T07:46:19.527Z</time>
      </trkpt>
      <trkpt lat="41.1369" lon="20.62801">
        <ele>802.632542</ele>
        <time>2022-05-01T07:46:22.539Z</time>
      </trkpt>
      <trkpt lat="41.13678" lon="20.62803">
        <ele>803.444931</ele>
        <time>2022-05-01T07:46:26.530Z</time>
      </trkpt>
      <trkpt lat="41.13668" lon="20.62806">
        <ele>804.218175</ele>
        <time>2022-05-01T07:46:30.534Z</time>
      </trkpt>
      <trkpt lat="41.13658" lon="20.6281">
        <ele>804.957457</ele>
        <time>2022-05-01T07:46:34.525Z</time>
      </trkpt>
      <trkpt lat="41.13647" lon="20.62813">
        <ele>805.727643</ele>
        <time>2022-05-01T07:46:38.528Z</time>
      </trkpt>
      <trkpt lat="41.13639" lon="20.62816">
        <ele>806.270924</ele>
        <time>2022-05-01T07:46:42.540Z</time>
      </trkpt>
      <trkpt lat="41.13629" lon="20.6282">
        <ele>806.508975</ele>
        <time>2022-05-01T07:46:46.526Z</time>
      </trkpt>
      <trkpt lat="41.1362" lon="20.62822">
        <ele>806.723899</ele>
        <time>2022-05-01T07:46:50.539Z</time>
      </trkpt>
      <trkpt lat="41.1361" lon="20.62825">
        <ele>806.95207</ele>
        <time>2022-05-01T07:46:55.567Z</time>
      </trkpt>
      <trkpt lat="41.13599" lon="20.62828">
        <ele>807.209397</ele>
        <time>2022-05-01T07:47:00.540Z</time>
      </trkpt>
      <trkpt lat="41.1359" lon="20.62831">
        <ele>807.429537</ele>
        <time>2022-05-01T07:47:04.532Z</time>
      </trkpt>
      <trkpt lat="41.13581" lon="20.62833">
        <ele>807.640092</ele>
        <time>2022-05-01T07:47:08.529Z</time>
      </trkpt>
      <trkpt lat="41.1357" lon="20.62835">
        <ele>807.909163</ele>
        <time>2022-05-01T07:47:13.535Z</time>
      </trkpt>
      <trkpt lat="41.1356" lon="20.62836">
        <ele>808.139366</ele>
        <time>2022-05-01T07:47:17.541Z</time>
      </trkpt>
      <trkpt lat="41.13551" lon="20.62838">
        <ele>808.353691</ele>
        <time>2022-05-01T07:47:21.539Z</time>
      </trkpt>
      <trkpt lat="41.13541" lon="20.6284">
        <ele>808.581781</ele>
        <time>2022-05-01T07:47:25.532Z</time>
      </trkpt>
      <trkpt lat="41.13531" lon="20.62842">
        <ele>808.822481</ele>
        <time>2022-05-01T07:47:30.547Z</time>
      </trkpt>
      <trkpt lat="41.13522" lon="20.62845">
        <ele>809.03727</ele>
        <time>2022-05-01T07:47:34.549Z</time>
      </trkpt>
      <trkpt lat="41.13512" lon="20.62849">
        <ele>809.273279</ele>
        <time>2022-05-01T07:47:39.540Z</time>
      </trkpt>
      <trkpt lat="41.13503" lon="20.62852">
        <ele>809.48352</ele>
        <time>2022-05-01T07:47:44.573Z</time>
      </trkpt>
      <trkpt lat="41.13493" lon="20.62856">
        <ele>809.725629</ele>
        <time>2022-05-01T07:47:50.536Z</time>
      </trkpt>
      <trkpt lat="41.13484" lon="20.62858">
        <ele>809.949409</ele>
        <time>2022-05-01T07:47:55.568Z</time>
      </trkpt>
      <trkpt lat="41.13475" lon="20.62859">
        <ele>810.16132</ele>
        <time>2022-05-01T07:47:59.543Z</time>
      </trkpt>
      <trkpt lat="41.13465" lon="20.6286">
        <ele>810.375806</ele>
        <time>2022-05-01T07:48:03.543Z</time>
      </trkpt>
      <trkpt lat="41.13456" lon="20.62861">
        <ele>810.449368</ele>
        <time>2022-05-01T07:48:07.544Z</time>
      </trkpt>
      <trkpt lat="41.13447" lon="20.62863">
        <ele>810.505117</ele>
        <time>2022-05-01T07:48:12.573Z</time>
      </trkpt>
      <trkpt lat="41.13437" lon="20.62865">
        <ele>810.563645</ele>
        <time>2022-05-01T07:48:17.526Z</time>
      </trkpt>
      <trkpt lat="41.13428" lon="20.62868">
        <ele>810.616461</ele>
        <time>2022-05-01T07:48:21.541Z</time>
      </trkpt>
      <trkpt lat="41.13418" lon="20.6287">
        <ele>810.67564</ele>
        <time>2022-05-01T07:48:26.538Z</time>
      </trkpt>
      <trkpt lat="41.13408" lon="20.62871">
        <ele>810.735156</ele>
        <time>2022-05-01T07:48:31.531Z</time>
      </trkpt>
      <trkpt lat="41.13398" lon="20.62872">
        <ele>810.79392</ele>
        <time>2022-05-01T07:48:36.561Z</time>
      </trkpt>
      <trkpt lat="41.13388" lon="20.62873">
        <ele>810.852791</ele>
        <time>2022-05-01T07:48:41.581Z</time>
      </trkpt>
      <trkpt lat="41.13377" lon="20.62873">
        <ele>810.913332</ele>
        <time>2022-05-01T07:48:46.573Z</time>
      </trkpt>
      <trkpt lat="41.13368" lon="20.62874">
        <ele>810.969272</ele>
        <time>2022-05-01T07:48:51.538Z</time>
      </trkpt>
      <trkpt lat="41.13358" lon="20.62875">
        <ele>811.024236</ele>
        <time>2022-05-01T07:48:56.514Z</time>
      </trkpt>
      <trkpt lat="41.13349" lon="20.62876">
        <ele>811.078338</ele>
        <time>2022-05-01T07:49:00.561Z</time>
      </trkpt>
      <trkpt lat="41.13338" lon="20.62878">
        <ele>811.142595</ele>
        <time>2022-05-01T07:49:05.520Z</time>
      </trkpt>
      <trkpt lat="41.13328" lon="20.62878">
        <ele>811.20136</ele>
        <time>2022-05-01T07:49:10.591Z</time>
      </trkpt>
      <trkpt lat="41.13318" lon="20.62877">
        <ele>811.259597</ele>
        <time>2022-05-01T07:49:15.545Z</time>
      </trkpt>
      <trkpt lat="41.13309" lon="20.62877">
        <ele>811.314267</ele>
        <time>2022-05-01T07:49:20.555Z</time>
      </trkpt>
      <trkpt lat="41.13298" lon="20.62877">
        <ele>811.373613</ele>
        <time>2022-05-01T07:49:25.572Z</time>
      </trkpt>
      <trkpt lat="41.13288" lon="20.62877">
        <ele>811.43119</ele>
        <time>2022-05-01T07:49:30.528Z</time>
      </trkpt>
      <trkpt lat="41.13279" lon="20.62876">
        <ele>811.608096</ele>
        <time>2022-05-01T07:49:35.526Z</time>
      </trkpt>
      <trkpt lat="41.13269" lon="20.62876">
        <ele>811.823924</ele>
        <time>2022-05-01T07:49:39.531Z</time>
      </trkpt>
      <trkpt lat="41.1326" lon="20.62878">
        <ele>812.044089</ele>
        <time>2022-05-01T07:49:44.533Z</time>
      </trkpt>
      <trkpt lat="41.13251" lon="20.62881">
        <ele>812.27079</ele>
        <time>2022-05-01T07:49:49.517Z</time>
      </trkpt>
      <trkpt lat="41.13241" lon="20.62887">
        <ele>812.513148</ele>
        <time>2022-05-01T07:49:54.535Z</time>
      </trkpt>
      <trkpt lat="41.13233" lon="20.62892">
        <ele>812.735479</ele>
        <time>2022-05-01T07:49:59.531Z</time>
      </trkpt>
      <trkpt lat="41.13222" lon="20.62896">
        <ele>812.986671</ele>
        <time>2022-05-01T07:50:06.550Z</time>
      </trkpt>
      <trkpt lat="41.13212" lon="20.62897">
        <ele>813.234538</ele>
        <time>2022-05-01T07:50:12.542Z</time>
      </trkpt>
      <trkpt lat="41.13202" lon="20.62898">
        <ele>813.469169</ele>
        <time>2022-05-01T07:50:19.522Z</time>
      </trkpt>
      <trkpt lat="41.13193" lon="20.62896">
        <ele>813.68445</ele>
        <time>2022-05-01T07:50:25.523Z</time>
      </trkpt>
      <trkpt lat="41.13184" lon="20.62892">
        <ele>813.901473</ele>
        <time>2022-05-01T07:50:31.518Z</time>
      </trkpt>
      <trkpt lat="41.13175" lon="20.62889">
        <ele>814.130902</ele>
        <time>2022-05-01T07:50:37.531Z</time>
      </trkpt>
      <trkpt lat="41.13165" lon="20.62887">
        <ele>814.351852</ele>
        <time>2022-05-01T07:50:43.525Z</time>
      </trkpt>
      <trkpt lat="41.13156" lon="20.62884">
        <ele>814.584039</ele>
        <time>2022-05-01T07:50:49.523Z</time>
      </trkpt>
      <trkpt lat="41.13146" lon="20.62882">
        <ele>814.81095</ele>
        <time>2022-05-01T07:50:56.541Z</time>
      </trkpt>
      <trkpt lat="41.13136" lon="20.62879">
        <ele>815.048061</ele>
        <time>2022-05-01T07:51:02.573Z</time>
      </trkpt>
      <trkpt lat="41.13126" lon="20.62875">
        <ele>815.289264</ele>
        <time>2022-05-01T07:51:08.578Z</time>
      </trkpt>
      <trkpt lat="41.13118" lon="20.62872">
        <ele>815.502341</ele>
        <time>2022-05-01T07:51:14.530Z</time>
      </trkpt>
      <trkpt lat="41.13108" lon="20.62869">
        <ele>815.761646</ele>
        <time>2022-05-01T07:51:20.543Z</time>
      </trkpt>
      <trkpt lat="41.13099" lon="20.62865">
        <ele>816.046136</ele>
        <time>2022-05-01T07:51:26.542Z</time>
      </trkpt>
      <trkpt lat="41.13089" lon="20.62861">
        <ele>816.347524</ele>
        <time>2022-05-01T07:51:33.542Z</time>
      </trkpt>
      <trkpt lat="41.13078" lon="20.62858">
        <ele>816.66829</ele>
        <time>2022-05-01T07:51:39.525Z</time>
      </trkpt>
      <trkpt lat="41.13069" lon="20.62854">
        <ele>816.938293</ele>
        <time>2022-05-01T07:51:44.535Z</time>
      </trkpt>
      <trkpt lat="41.1306" lon="20.62851">
        <ele>817.228426</ele>
        <time>2022-05-01T07:51:49.516Z</time>
      </trkpt>
      <trkpt lat="41.1305" lon="20.62846">
        <ele>817.5374</ele>
        <time>2022-05-01T07:51:55.542Z</time>
      </trkpt>
      <trkpt lat="41.13041" lon="20.62842">
        <ele>817.822605</ele>
        <time>2022-05-01T07:52:00.533Z</time>
      </trkpt>
      <trkpt lat="41.13032" lon="20.62836">
        <ele>818.104462</ele>
        <time>2022-05-01T07:52:05.537Z</time>
      </trkpt>
      <trkpt lat="41.13023" lon="20.6283">
        <ele>818.40227</ele>
        <time>2022-05-01T07:52:10.571Z</time>
      </trkpt>
      <trkpt lat="41.13015" lon="20.62824">
        <ele>818.688632</ele>
        <time>2022-05-01T07:52:15.535Z</time>
      </trkpt>
      <trkpt lat="41.13007" lon="20.62818">
        <ele>818.970931</ele>
        <time>2022-05-01T07:52:20.540Z</time>
      </trkpt>
      <trkpt lat="41.12999" lon="20.62811">
        <ele>819.242788</ele>
        <time>2022-05-01T07:52:25.524Z</time>
      </trkpt>
      <trkpt lat="41.12991" lon="20.62804">
        <ele>819.518391</ele>
        <time>2022-05-01T07:52:30.542Z</time>
      </trkpt>
      <trkpt lat="41.12983" lon="20.62799">
        <ele>819.795671</ele>
        <time>2022-05-01T07:52:35.558Z</time>
      </trkpt>
      <trkpt lat="41.12974" lon="20.62791">
        <ele>820.097218</ele>
        <time>2022-05-01T07:52:40.522Z</time>
      </trkpt>
      <trkpt lat="41.12966" lon="20.62784">
        <ele>820.393656</ele>
        <time>2022-05-01T07:52:45.536Z</time>
      </trkpt>
      <trkpt lat="41.12957" lon="20.62778">
        <ele>820.685755</ele>
        <time>2022-05-01T07:52:50.533Z</time>
      </trkpt>
      <trkpt lat="41.12948" lon="20.62772">
        <ele>820.994946</ele>
        <time>2022-05-01T07:52:55.567Z</time>
      </trkpt>
      <trkpt lat="41.12938" lon="20.62766">
        <ele>821.988859</ele>
        <time>2022-05-01T07:53:00.531Z</time>
      </trkpt>
      <trkpt lat="41.12929" lon="20.62762">
        <ele>822.888164</ele>
        <time>2022-05-01T07:53:05.531Z</time>
      </trkpt>
      <trkpt lat="41.1292" lon="20.62759">
        <ele>823.830297</ele>
        <time>2022-05-01T07:53:10.540Z</time>
      </trkpt>
      <trkpt lat="41.12911" lon="20.62757">
        <ele>824.704587</ele>
        <time>2022-05-01T07:53:14.528Z</time>
      </trkpt>
      <trkpt lat="41.12901" lon="20.62754">
        <ele>825.674472</ele>
        <time>2022-05-01T07:53:19.531Z</time>
      </trkpt>
      <trkpt lat="41.12891" lon="20.62752">
        <ele>826.597566</ele>
        <time>2022-05-01T07:53:24.541Z</time>
      </trkpt>
      <trkpt lat="41.12881" lon="20.62751">
        <ele>827.555542</ele>
        <time>2022-05-01T07:53:29.541Z</time>
      </trkpt>
      <trkpt lat="41.12871" lon="20.6275">
        <ele>828.513518</ele>
        <time>2022-05-01T07:53:34.564Z</time>
      </trkpt>
      <trkpt lat="41.12861" lon="20.62749">
        <ele>829.482143</ele>
        <time>2022-05-01T07:53:39.548Z</time>
      </trkpt>
      <trkpt lat="41.12851" lon="20.62749">
        <ele>830.402617</ele>
        <time>2022-05-01T07:53:44.538Z</time>
      </trkpt>
      <trkpt lat="41.1284" lon="20.62748">
        <ele>831.408254</ele>
        <time>2022-05-01T07:53:50.535Z</time>
      </trkpt>
      <trkpt lat="41.12831" lon="20.62747">
        <ele>832.321918</ele>
        <time>2022-05-01T07:53:55.542Z</time>
      </trkpt>
      <trkpt lat="41.12821" lon="20.62746">
        <ele>833.270777</ele>
        <time>2022-05-01T07:54:00.519Z</time>
      </trkpt>
      <trkpt lat="41.12812" lon="20.62747">
        <ele>834.138019</ele>
        <time>2022-05-01T07:54:05.574Z</time>
      </trkpt>
      <trkpt lat="41.12801" lon="20.62747">
        <ele>835.133169</ele>
        <time>2022-05-01T07:54:11.534Z</time>
      </trkpt>
      <trkpt lat="41.12791" lon="20.62747">
        <ele>836.071264</ele>
        <time>2022-05-01T07:54:16.545Z</time>
      </trkpt>
      <trkpt lat="41.12782" lon="20.62747">
        <ele>836.971882</ele>
        <time>2022-05-01T07:54:21.550Z</time>
      </trkpt>
      <trkpt lat="41.12772" lon="20.62746">
        <ele>837.912661</ele>
        <time>2022-05-01T07:54:26.539Z</time>
      </trkpt>
      <trkpt lat="41.12762" lon="20.62745">
        <ele>838.359255</ele>
        <time>2022-05-01T07:54:31.517Z</time>
      </trkpt>
      <trkpt lat="41.12752" lon="20.62744">
        <ele>838.773178</ele>
        <time>2022-05-01T07:54:36.525Z</time>
      </trkpt>
      <trkpt lat="41.12742" lon="20.62744">
        <ele>839.181709</ele>
        <time>2022-05-01T07:54:41.538Z</time>
      </trkpt>
      <trkpt lat="41.12732" lon="20.62744">
        <ele>839.578199</ele>
        <time>2022-05-01T07:54:46.535Z</time>
      </trkpt>
      <trkpt lat="41.12722" lon="20.62744">
        <ele>840.00704</ele>
        <time>2022-05-01T07:54:52.566Z</time>
      </trkpt>
      <trkpt lat="41.12711" lon="20.62743">
        <ele>840.43588</ele>
        <time>2022-05-01T07:54:58.536Z</time>
      </trkpt>
      <trkpt lat="41.12702" lon="20.62744">
        <ele>840.812646</ele>
        <time>2022-05-01T07:55:03.575Z</time>
      </trkpt>
      <trkpt lat="41.12692" lon="20.62745">
        <ele>841.225491</ele>
        <time>2022-05-01T07:55:08.610Z</time>
      </trkpt>
      <trkpt lat="41.12681" lon="20.62744">
        <ele>841.646685</ele>
        <time>2022-05-01T07:55:13.582Z</time>
      </trkpt>
      <trkpt lat="41.12671" lon="20.62744">
        <ele>842.067438</ele>
        <time>2022-05-01T07:55:18.543Z</time>
      </trkpt>
      <trkpt lat="41.12661" lon="20.62743">
        <ele>842.480103</ele>
        <time>2022-05-01T07:55:23.547Z</time>
      </trkpt>
      <trkpt lat="41.12651" lon="20.62744">
        <ele>842.852332</ele>
        <time>2022-05-01T07:55:28.544Z</time>
      </trkpt>
      <trkpt lat="41.12642" lon="20.62744">
        <ele>843.21739</ele>
        <time>2022-05-01T07:55:33.525Z</time>
      </trkpt>
      <trkpt lat="41.12633" lon="20.62745">
        <ele>843.614197</ele>
        <time>2022-05-01T07:55:38.516Z</time>
      </trkpt>
      <trkpt lat="41.12623" lon="20.62745">
        <ele>843.994403</ele>
        <time>2022-05-01T07:55:43.520Z</time>
      </trkpt>
      <trkpt lat="41.12613" lon="20.62746">
        <ele>844.391081</ele>
        <time>2022-05-01T07:55:48.533Z</time>
      </trkpt>
      <trkpt lat="41.12603" lon="20.62746">
        <ele>844.796484</ele>
        <time>2022-05-01T07:55:53.527Z</time>
      </trkpt>
      <trkpt lat="41.12593" lon="20.62746">
        <ele>845.205014</ele>
        <time>2022-05-01T07:55:58.558Z</time>
      </trkpt>
      <trkpt lat="41.12583" lon="20.62746">
        <ele>845.349097</ele>
        <time>2022-05-01T07:56:04.571Z</time>
      </trkpt>
      <trkpt lat="41.12573" lon="20.62747">
        <ele>845.410317</ele>
        <time>2022-05-01T07:56:09.539Z</time>
      </trkpt>
      <trkpt lat="41.12563" lon="20.62746">
        <ele>845.473001</ele>
        <time>2022-05-01T07:56:14.546Z</time>
      </trkpt>
      <trkpt lat="41.12554" lon="20.62745">
        <ele>845.532328</ele>
        <time>2022-05-01T07:56:19.544Z</time>
      </trkpt>
      <trkpt lat="41.12544" lon="20.62746">
        <ele>845.591669</ele>
        <time>2022-05-01T07:56:24.544Z</time>
      </trkpt>
      <trkpt lat="41.12533" lon="20.62747">
        <ele>845.660014</ele>
        <time>2022-05-01T07:56:30.533Z</time>
      </trkpt>
      <trkpt lat="41.12524" lon="20.62748">
        <ele>845.716898</ele>
        <time>2022-05-01T07:56:35.565Z</time>
      </trkpt>
      <trkpt lat="41.12514" lon="20.62749">
        <ele>845.78269</ele>
        <time>2022-05-01T07:56:41.557Z</time>
      </trkpt>
      <trkpt lat="41.12503" lon="20.62749">
        <ele>845.850203</ele>
        <time>2022-05-01T07:56:47.543Z</time>
      </trkpt>
      <trkpt lat="41.12493" lon="20.62748">
        <ele>845.913937</ele>
        <time>2022-05-01T07:56:53.533Z</time>
      </trkpt>
      <trkpt lat="41.12484" lon="20.62747">
        <ele>845.971231</ele>
        <time>2022-05-01T07:56:59.542Z</time>
      </trkpt>
      <trkpt lat="41.12475" lon="20.62745">
        <ele>846.030401</ele>
        <time>2022-05-01T07:57:05.535Z</time>
      </trkpt>
      <trkpt lat="41.12465" lon="20.62745">
        <ele>846.090345</ele>
        <time>2022-05-01T07:57:10.529Z</time>
      </trkpt>
      <trkpt lat="41.12456" lon="20.62745">
        <ele>846.149042</ele>
        <time>2022-05-01T07:57:16.526Z</time>
      </trkpt>
      <trkpt lat="41.12446" lon="20.62747">
        <ele>846.21244</ele>
        <time>2022-05-01T07:57:22.567Z</time>
      </trkpt>
      <trkpt lat="41.12437" lon="20.62747">
        <ele>846.269907</ele>
        <time>2022-05-01T07:57:27.523Z</time>
      </trkpt>
      <trkpt lat="41.12427" lon="20.62746">
        <ele>846.330599</ele>
        <time>2022-05-01T07:57:32.549Z</time>
      </trkpt>
      <trkpt lat="41.12418" lon="20.62746">
        <ele>846.389401</ele>
        <time>2022-05-01T07:57:37.527Z</time>
      </trkpt>
      <trkpt lat="41.12408" lon="20.62743">
        <ele>846.485818</ele>
        <time>2022-05-01T07:57:45.569Z</time>
      </trkpt>
      <trkpt lat="41.12398" lon="20.62741">
        <ele>846.618284</ele>
        <time>2022-05-01T07:57:51.575Z</time>
      </trkpt>
      <trkpt lat="41.12388" lon="20.62738">
        <ele>846.760389</ele>
        <time>2022-05-01T07:58:00.534Z</time>
      </trkpt>
      <trkpt lat="41.12377" lon="20.62735">
        <ele>846.900304</ele>
        <time>2022-05-01T07:58:05.536Z</time>
      </trkpt>
      <trkpt lat="41.12368" lon="20.62732">
        <ele>847.037368</ele>
        <time>2022-05-01T07:58:11.535Z</time>
      </trkpt>
      <trkpt lat="41.12358" lon="20.62729">
        <ele>847.162802</ele>
        <time>2022-05-01T07:58:17.533Z</time>
      </trkpt>
      <trkpt lat="41.12349" lon="20.62725">
        <ele>847.300906</ele>
        <time>2022-05-01T07:58:22.541Z</time>
      </trkpt>
      <trkpt lat="41.12339" lon="20.62721">
        <ele>847.439823</ele>
        <time>2022-05-01T07:58:28.537Z</time>
      </trkpt>
      <trkpt lat="41.12329" lon="20.62718">
        <ele>847.571593</ele>
        <time>2022-05-01T07:58:33.575Z</time>
      </trkpt>
      <trkpt lat="41.12319" lon="20.62715">
        <ele>847.704888</ele>
        <time>2022-05-01T07:58:38.532Z</time>
      </trkpt>
      <trkpt lat="41.1231" lon="20.62712">
        <ele>847.839348</ele>
        <time>2022-05-01T07:58:44.539Z</time>
      </trkpt>
      <trkpt lat="41.12301" lon="20.62708">
        <ele>847.969342</ele>
        <time>2022-05-01T07:58:50.532Z</time>
      </trkpt>
      <trkpt lat="41.12291" lon="20.62703">
        <ele>848.109261</ele>
        <time>2022-05-01T07:58:56.517Z</time>
      </trkpt>
      <trkpt lat="41.12282" lon="20.627">
        <ele>848.23362</ele>
        <time>2022-05-01T07:59:01.528Z</time>
      </trkpt>
      <trkpt lat="41.12273" lon="20.62695">
        <ele>848.361504</ele>
        <time>2022-05-01T07:59:08.570Z</time>
      </trkpt>
      <trkpt lat="41.12264" lon="20.6269">
        <ele>848.497494</ele>
        <time>2022-05-01T07:59:16.576Z</time>
      </trkpt>
      <trkpt lat="41.12257" lon="20.62681">
        <ele>848.628552</ele>
        <time>2022-05-01T07:59:25.564Z</time>
      </trkpt>
      <trkpt lat="41.12248" lon="20.62673">
        <ele>848.764012</ele>
        <time>2022-05-01T07:59:32.537Z</time>
      </trkpt>
      <trkpt lat="41.1224" lon="20.62665">
        <ele>848.969141</ele>
        <time>2022-05-01T07:59:38.543Z</time>
      </trkpt>
      <trkpt lat="41.12232" lon="20.62657">
        <ele>849.25818</ele>
        <time>2022-05-01T07:59:45.532Z</time>
      </trkpt>
      <trkpt lat="41.12226" lon="20.62647">
        <ele>849.525019</ele>
        <time>2022-05-01T07:59:51.540Z</time>
      </trkpt>
      <trkpt lat="41.1222" lon="20.62636">
        <ele>849.825873</ele>
        <time>2022-05-01T07:59:58.562Z</time>
      </trkpt>
      <trkpt lat="41.12213" lon="20.62627">
        <ele>850.08681</ele>
        <time>2022-05-01T08:00:04.543Z</time>
      </trkpt>
      <trkpt lat="41.12205" lon="20.62618">
        <ele>850.381686</ele>
        <time>2022-05-01T08:00:11.533Z</time>
      </trkpt>
      <trkpt lat="41.12198" lon="20.62609">
        <ele>850.650498</ele>
        <time>2022-05-01T08:00:16.541Z</time>
      </trkpt>
      <trkpt lat="41.12191" lon="20.62601">
        <ele>850.931551</ele>
        <time>2022-05-01T08:00:21.543Z</time>
      </trkpt>
      <trkpt lat="41.12182" lon="20.62592">
        <ele>851.23514</ele>
        <time>2022-05-01T08:00:27.528Z</time>
      </trkpt>
      <trkpt lat="41.12175" lon="20.62584">
        <ele>851.497522</ele>
        <time>2022-05-01T08:00:33.554Z</time>
      </trkpt>
      <trkpt lat="41.12168" lon="20.62576">
        <ele>851.760032</ele>
        <time>2022-05-01T08:00:40.548Z</time>
      </trkpt>
      <trkpt lat="41.1216" lon="20.6257">
        <ele>852.023668</ele>
        <time>2022-05-01T08:00:46.555Z</time>
      </trkpt>
      <trkpt lat="41.12151" lon="20.62565">
        <ele>852.286287</ele>
        <time>2022-05-01T08:00:52.549Z</time>
      </trkpt>
      <trkpt lat="41.12142" lon="20.6256">
        <ele>852.574181</ele>
        <time>2022-05-01T08:00:59.587Z</time>
      </trkpt>
      <trkpt lat="41.12132" lon="20.62555">
        <ele>852.861771</ele>
        <time>2022-05-01T08:01:06.520Z</time>
      </trkpt>
      <trkpt lat="41.12123" lon="20.6255">
        <ele>853.142474</ele>
        <time>2022-05-01T08:01:13.551Z</time>
      </trkpt>
      <trkpt lat="41.12114" lon="20.62545">
        <ele>853.41678</ele>
        <time>2022-05-01T08:01:19.526Z</time>
      </trkpt>
      <trkpt lat="41.12105" lon="20.62541">
        <ele>853.697628</ele>
        <time>2022-05-01T08:01:26.539Z</time>
      </trkpt>
      <trkpt lat="41.12095" lon="20.62537">
        <ele>854.147979</ele>
        <time>2022-05-01T08:01:32.566Z</time>
      </trkpt>
      <trkpt lat="41.12086" lon="20.62532">
        <ele>855.509453</ele>
        <time>2022-05-01T08:01:39.538Z</time>
      </trkpt>
      <trkpt lat="41.12078" lon="20.62526">
        <ele>856.733535</ele>
        <time>2022-05-01T08:01:47.544Z</time>
      </trkpt>
      <trkpt lat="41.12069" lon="20.6252">
        <ele>858.010753</ele>
        <time>2022-05-01T08:01:54.584Z</time>
      </trkpt>
      <trkpt lat="41.1206" lon="20.62513">
        <ele>859.339776</ele>
        <time>2022-05-01T08:02:03.535Z</time>
      </trkpt>
      <trkpt lat="41.12052" lon="20.62506">
        <ele>860.668156</ele>
        <time>2022-05-01T08:02:11.528Z</time>
      </trkpt>
      <trkpt lat="41.12044" lon="20.62497">
        <ele>862.003986</ele>
        <time>2022-05-01T08:02:19.558Z</time>
      </trkpt>
      <trkpt lat="41.12038" lon="20.62488">
        <ele>863.248205</ele>
        <time>2022-05-01T08:02:27.570Z</time>
      </trkpt>
      <trkpt lat="41.12033" lon="20.62477">
        <ele>864.534322</ele>
        <time>2022-05-01T08:02:36.522Z</time>
      </trkpt>
      <trkpt lat="41.1203" lon="20.62465">
        <ele>865.743231</ele>
        <time>2022-05-01T08:02:45.546Z</time>
      </trkpt>
      <trkpt lat="41.12028" lon="20.62452">
        <ele>867.122942</ele>
        <time>2022-05-01T08:02:54.560Z</time>
      </trkpt>
      <trkpt lat="41.12024" lon="20.62439">
        <ele>868.42813</ele>
        <time>2022-05-01T08:03:02.531Z</time>
      </trkpt>
      <trkpt lat="41.12021" lon="20.62427">
        <ele>869.701807</ele>
        <time>2022-05-01T08:03:09.542Z</time>
      </trkpt>
      <trkpt lat="41.12017" lon="20.62416">
        <ele>870.955538</ele>
        <time>2022-05-01T08:03:16.544Z</time>
      </trkpt>
      <trkpt lat="41.12014" lon="20.62404">
        <ele>872.201839</ele>
        <time>2022-05-01T08:03:23.555Z</time>
      </trkpt>
      <trkpt lat="41.12009" lon="20.62393">
        <ele>873.455571</ele>
        <time>2022-05-01T08:03:30.521Z</time>
      </trkpt>
      <trkpt lat="41.12006" lon="20.62381">
        <ele>874.789177</ele>
        <time>2022-05-01T08:03:38.544Z</time>
      </trkpt>
      <trkpt lat="41.12001" lon="20.62369">
        <ele>876.040203</ele>
        <time>2022-05-01T08:03:46.521Z</time>
      </trkpt>
      <trkpt lat="41.11995" lon="20.6236">
        <ele>877.30124</ele>
        <time>2022-05-01T08:03:53.531Z</time>
      </trkpt>
      <trkpt lat="41.11989" lon="20.62351">
        <ele>878.554887</ele>
        <time>2022-05-01T08:03:59.544Z</time>
      </trkpt>
      <trkpt lat="41.11982" lon="20.62342">
        <ele>879.84971</ele>
        <time>2022-05-01T08:04:05.530Z</time>
      </trkpt>
      <trkpt lat="41.11974" lon="20.62334">
        <ele>881.377679</ele>
        <time>2022-05-01T08:04:11.530Z</time>
      </trkpt>
      <trkpt lat="41.11967" lon="20.62325">
        <ele>882.654893</ele>
        <time>2022-05-01T08:04:16.537Z</time>
      </trkpt>
      <trkpt lat="41.1196" lon="20.62316">
        <ele>884.052786</ele>
        <time>2022-05-01T08:04:21.527Z</time>
      </trkpt>
      <trkpt lat="41.11953" lon="20.62307">
        <ele>885.455575</ele>
        <time>2022-05-01T08:04:26.539Z</time>
      </trkpt>
      <trkpt lat="41.11945" lon="20.62301">
        <ele>886.822006</ele>
        <time>2022-05-01T08:04:32.556Z</time>
      </trkpt>
      <trkpt lat="41.11935" lon="20.62295">
        <ele>888.293391</ele>
        <time>2022-05-01T08:04:38.543Z</time>
      </trkpt>
      <trkpt lat="41.11927" lon="20.6229">
        <ele>889.621556</ele>
        <time>2022-05-01T08:04:44.540Z</time>
      </trkpt>
      <trkpt lat="41.11917" lon="20.62287">
        <ele>890.999314</ele>
        <time>2022-05-01T08:04:50.531Z</time>
      </trkpt>
      <trkpt lat="41.11908" lon="20.62284">
        <ele>892.313888</ele>
        <time>2022-05-01T08:04:56.558Z</time>
      </trkpt>
      <trkpt lat="41.11898" lon="20.62281">
        <ele>893.767762</ele>
        <time>2022-05-01T08:05:02.573Z</time>
      </trkpt>
      <trkpt lat="41.11889" lon="20.62279">
        <ele>895.085915</ele>
        <time>2022-05-01T08:05:09.589Z</time>
      </trkpt>
      <trkpt lat="41.1188" lon="20.62277">
        <ele>896.446247</ele>
        <time>2022-05-01T08:05:16.542Z</time>
      </trkpt>
      <trkpt lat="41.1187" lon="20.62275">
        <ele>897.868807</ele>
        <time>2022-05-01T08:05:24.573Z</time>
      </trkpt>
      <trkpt lat="41.1186" lon="20.62271">
        <ele>899.34487</ele>
        <time>2022-05-01T08:05:32.539Z</time>
      </trkpt>
      <trkpt lat="41.1185" lon="20.62269">
        <ele>900.708223</ele>
        <time>2022-05-01T08:05:39.517Z</time>
      </trkpt>
      <trkpt lat="41.11841" lon="20.62266">
        <ele>902.063443</ele>
        <time>2022-05-01T08:05:46.532Z</time>
      </trkpt>
      <trkpt lat="41.11832" lon="20.62262">
        <ele>903.294328</ele>
        <time>2022-05-01T08:05:52.533Z</time>
      </trkpt>
      <trkpt lat="41.11824" lon="20.62256">
        <ele>904.118793</ele>
        <time>2022-05-01T08:05:59.530Z</time>
      </trkpt>
      <trkpt lat="41.11815" lon="20.62251">
        <ele>904.998647</ele>
        <time>2022-05-01T08:06:06.566Z</time>
      </trkpt>
      <trkpt lat="41.11806" lon="20.62247">
        <ele>905.826161</ele>
        <time>2022-05-01T08:06:12.548Z</time>
      </trkpt>
      <trkpt lat="41.11796" lon="20.62242">
        <ele>906.735223</ele>
        <time>2022-05-01T08:06:19.525Z</time>
      </trkpt>
      <trkpt lat="41.11787" lon="20.62237">
        <ele>907.588986</ele>
        <time>2022-05-01T08:06:25.522Z</time>
      </trkpt>
      <trkpt lat="41.11778" lon="20.62233">
        <ele>908.399984</ele>
        <time>2022-05-01T08:06:31.570Z</time>
      </trkpt>
      <trkpt lat="41.1177" lon="20.62229">
        <ele>909.195446</ele>
        <time>2022-05-01T08:06:37.546Z</time>
      </trkpt>
      <trkpt lat="41.1176" lon="20.62226">
        <ele>910.028373</ele>
        <time>2022-05-01T08:06:45.527Z</time>
      </trkpt>
      <trkpt lat="41.11751" lon="20.62223">
        <ele>910.852003</ele>
        <time>2022-05-01T08:06:53.520Z</time>
      </trkpt>
      <trkpt lat="41.11741" lon="20.62222">
        <ele>911.710078</ele>
        <time>2022-05-01T08:07:01.536Z</time>
      </trkpt>
      <trkpt lat="41.11732" lon="20.62221">
        <ele>912.527714</ele>
        <time>2022-05-01T08:07:08.563Z</time>
      </trkpt>
      <trkpt lat="41.11723" lon="20.62219">
        <ele>913.33438</ele>
        <time>2022-05-01T08:07:15.540Z</time>
      </trkpt>
      <trkpt lat="41.11713" lon="20.62218">
        <ele>914.14789</ele>
        <time>2022-05-01T08:07:21.534Z</time>
      </trkpt>
      <trkpt lat="41.11704" lon="20.62218">
        <ele>914.941333</ele>
        <time>2022-05-01T08:07:27.560Z</time>
      </trkpt>
      <trkpt lat="41.11695" lon="20.62219">
        <ele>915.727787</ele>
        <time>2022-05-01T08:07:34.543Z</time>
      </trkpt>
      <trkpt lat="41.11686" lon="20.62219">
        <ele>916.52123</ele>
        <time>2022-05-01T08:07:41.535Z</time>
      </trkpt>
      <trkpt lat="41.11677" lon="20.6222">
        <ele>917.337281</ele>
        <time>2022-05-01T08:07:48.547Z</time>
      </trkpt>
      <trkpt lat="41.11667" lon="20.62219">
        <ele>918.189515</ele>
        <time>2022-05-01T08:07:54.528Z</time>
      </trkpt>
      <trkpt lat="41.11658" lon="20.62215">
        <ele>918.833609</ele>
        <time>2022-05-01T08:08:01.542Z</time>
      </trkpt>
      <trkpt lat="41.11648" lon="20.62214">
        <ele>918.854731</ele>
        <time>2022-05-01T08:08:07.533Z</time>
      </trkpt>
      <trkpt lat="41.11637" lon="20.62212">
        <ele>918.875705</ele>
        <time>2022-05-01T08:08:15.529Z</time>
      </trkpt>
      <trkpt lat="41.11628" lon="20.62213">
        <ele>918.895822</ele>
        <time>2022-05-01T08:08:26.534Z</time>
      </trkpt>
      <trkpt lat="41.11618" lon="20.62212">
        <ele>918.915901</ele>
        <time>2022-05-01T08:08:34.543Z</time>
      </trkpt>
      <trkpt lat="41.11608" lon="20.6221">
        <ele>918.936934</ele>
        <time>2022-05-01T08:08:39.520Z</time>
      </trkpt>
      <trkpt lat="41.11599" lon="20.62208">
        <ele>918.955397</ele>
        <time>2022-05-01T08:08:45.559Z</time>
      </trkpt>
      <trkpt lat="41.11589" lon="20.62205">
        <ele>918.976571</ele>
        <time>2022-05-01T08:08:51.527Z</time>
      </trkpt>
      <trkpt lat="41.11579" lon="20.62202">
        <ele>918.997462</ele>
        <time>2022-05-01T08:08:58.526Z</time>
      </trkpt>
      <trkpt lat="41.11569" lon="20.62199">
        <ele>919.018179</ele>
        <time>2022-05-01T08:09:06.541Z</time>
      </trkpt>
      <trkpt lat="41.11559" lon="20.62194">
        <ele>919.038939</ele>
        <time>2022-05-01T08:09:13.540Z</time>
      </trkpt>
      <trkpt lat="41.11551" lon="20.6219">
        <ele>919.057862</ele>
        <time>2022-05-01T08:09:20.526Z</time>
      </trkpt>
      <trkpt lat="41.11542" lon="20.62184">
        <ele>919.076825</ele>
        <time>2022-05-01T08:09:28.539Z</time>
      </trkpt>
      <trkpt lat="41.11534" lon="20.6218">
        <ele>919.095311</ele>
        <time>2022-05-01T08:09:35.534Z</time>
      </trkpt>
      <trkpt lat="41.11525" lon="20.62176">
        <ele>919.114863</ele>
        <time>2022-05-01T08:09:45.528Z</time>
      </trkpt>
      <trkpt lat="41.11516" lon="20.62173">
        <ele>919.134322</ele>
        <time>2022-05-01T08:09:53.551Z</time>
      </trkpt>
      <trkpt lat="41.11508" lon="20.62166">
        <ele>919.153098</ele>
        <time>2022-05-01T08:10:01.539Z</time>
      </trkpt>
      <trkpt lat="41.11499" lon="20.62161">
        <ele>919.17441</ele>
        <time>2022-05-01T08:10:09.537Z</time>
      </trkpt>
      <trkpt lat="41.1149" lon="20.62159">
        <ele>919.193217</ele>
        <time>2022-05-01T08:10:16.548Z</time>
      </trkpt>
      <trkpt lat="41.11481" lon="20.62153">
        <ele>919.626823</ele>
        <time>2022-05-01T08:10:23.540Z</time>
      </trkpt>
      <trkpt lat="41.11472" lon="20.62148">
        <ele>920.202946</ele>
        <time>2022-05-01T08:10:32.532Z</time>
      </trkpt>
      <trkpt lat="41.11463" lon="20.62146">
        <ele>920.743263</ele>
        <time>2022-05-01T08:10:44.548Z</time>
      </trkpt>
      <trkpt lat="41.11453" lon="20.62144">
        <ele>921.317409</ele>
        <time>2022-05-01T08:10:54.546Z</time>
      </trkpt>
      <trkpt lat="41.11443" lon="20.62141">
        <ele>921.896328</ele>
        <time>2022-05-01T08:11:05.547Z</time>
      </trkpt>
      <trkpt lat="41.11433" lon="20.62139">
        <ele>922.456912</ele>
        <time>2022-05-01T08:11:13.542Z</time>
      </trkpt>
      <trkpt lat="41.11423" lon="20.62136">
        <ele>923.043147</ele>
        <time>2022-05-01T08:11:19.539Z</time>
      </trkpt>
      <trkpt lat="41.11414" lon="20.62133">
        <ele>923.590307</ele>
        <time>2022-05-01T08:11:29.569Z</time>
      </trkpt>
      <trkpt lat="41.11404" lon="20.62132">
        <ele>924.127162</ele>
        <time>2022-05-01T08:11:39.545Z</time>
      </trkpt>
      <trkpt lat="41.11395" lon="20.62133">
        <ele>924.662783</ele>
        <time>2022-05-01T08:11:50.532Z</time>
      </trkpt>
      <trkpt lat="41.11386" lon="20.62128">
        <ele>925.20244</ele>
        <time>2022-05-01T08:11:57.522Z</time>
      </trkpt>
      <trkpt lat="41.11376" lon="20.62127">
        <ele>925.749204</ele>
        <time>2022-05-01T08:12:09.538Z</time>
      </trkpt>
      <trkpt lat="41.11367" lon="20.62123">
        <ele>926.310903</ele>
        <time>2022-05-01T08:12:16.547Z</time>
      </trkpt>
      <trkpt lat="41.11358" lon="20.62119">
        <ele>926.853633</ele>
        <time>2022-05-01T08:12:26.530Z</time>
      </trkpt>
      <trkpt lat="41.11348" lon="20.62115">
        <ele>927.430053</ele>
        <time>2022-05-01T08:12:33.533Z</time>
      </trkpt>
      <trkpt lat="41.11338" lon="20.62115">
        <ele>928.021973</ele>
        <time>2022-05-01T08:12:43.528Z</time>
      </trkpt>
      <trkpt lat="41.11329" lon="20.62111">
        <ele>928.588119</ele>
        <time>2022-05-01T08:12:47.550Z</time>
      </trkpt>
      <trkpt lat="41.11319" lon="20.62108">
        <ele>929.151108</ele>
        <time>2022-05-01T08:12:55.526Z</time>
      </trkpt>
      <trkpt lat="41.1131" lon="20.62108">
        <ele>930.205504</ele>
        <time>2022-05-01T08:13:04.543Z</time>
      </trkpt>
      <trkpt lat="41.113" lon="20.62104">
        <ele>931.919878</ele>
        <time>2022-05-01T08:13:13.541Z</time>
      </trkpt>
      <trkpt lat="41.11292" lon="20.62099">
        <ele>933.477083</ele>
        <time>2022-05-01T08:13:19.571Z</time>
      </trkpt>
      <trkpt lat="41.11285" lon="20.62092">
        <ele>935.041377</ele>
        <time>2022-05-01T08:13:29.531Z</time>
      </trkpt>
      <trkpt lat="41.11277" lon="20.62084">
        <ele>936.72111</ele>
        <time>2022-05-01T08:13:38.541Z</time>
      </trkpt>
      <trkpt lat="41.11268" lon="20.62076">
        <ele>938.512656</ele>
        <time>2022-05-01T08:13:44.524Z</time>
      </trkpt>
      <trkpt lat="41.1126" lon="20.62071">
        <ele>940.123671</ele>
        <time>2022-05-01T08:13:53.533Z</time>
      </trkpt>
      <trkpt lat="41.11252" lon="20.62064">
        <ele>941.679138</ele>
        <time>2022-05-01T08:14:03.565Z</time>
      </trkpt>
      <trkpt lat="41.11245" lon="20.62056">
        <ele>943.363736</ele>
        <time>2022-05-01T08:14:13.546Z</time>
      </trkpt>
      <trkpt lat="41.11239" lon="20.62046">
        <ele>944.992454</ele>
        <time>2022-05-01T08:14:21.534Z</time>
      </trkpt>
      <trkpt lat="41.1123" lon="20.62038">
        <ele>946.758331</ele>
        <time>2022-05-01T08:14:34.528Z</time>
      </trkpt>
      <trkpt lat="41.11223" lon="20.62029">
        <ele>948.463221</ele>
        <time>2022-05-01T08:14:42.567Z</time>
      </trkpt>
      <trkpt lat="41.11215" lon="20.62022">
        <ele>950.097353</ele>
        <time>2022-05-01T08:14:50.541Z</time>
      </trkpt>
      <trkpt lat="41.11207" lon="20.62014">
        <ele>951.80286</ele>
        <time>2022-05-01T08:15:00.572Z</time>
      </trkpt>
      <trkpt lat="41.11189" lon="20.61996">
        <ele>955.720908</ele>
        <time>2022-05-01T08:20:35.552Z</time>
      </trkpt>
      <trkpt lat="41.11182" lon="20.61986">
        <ele>957.455063</ele>
        <time>2022-05-01T08:20:43.547Z</time>
      </trkpt>
      <trkpt lat="41.11177" lon="20.61975">
        <ele>959.153237</ele>
        <time>2022-05-01T08:20:50.529Z</time>
      </trkpt>
      <trkpt lat="41.1117" lon="20.61966">
        <ele>960.631981</ele>
        <time>2022-05-01T08:20:57.529Z</time>
      </trkpt>
      <trkpt lat="41.11164" lon="20.61957">
        <ele>961.696084</ele>
        <time>2022-05-01T08:21:04.589Z</time>
      </trkpt>
      <trkpt lat="41.11157" lon="20.61948">
        <ele>962.863486</ele>
        <time>2022-05-01T08:21:12.541Z</time>
      </trkpt>
      <trkpt lat="41.1115" lon="20.61938">
        <ele>964.071454</ele>
        <time>2022-05-01T08:21:20.520Z</time>
      </trkpt>
      <trkpt lat="41.11143" lon="20.61929">
        <ele>965.209238</ele>
        <time>2022-05-01T08:21:27.538Z</time>
      </trkpt>
      <trkpt lat="41.11136" lon="20.61921">
        <ele>966.332356</ele>
        <time>2022-05-01T08:21:35.527Z</time>
      </trkpt>
      <trkpt lat="41.11129" lon="20.61911">
        <ele>967.490256</ele>
        <time>2022-05-01T08:21:43.562Z</time>
      </trkpt>
      <trkpt lat="41.11123" lon="20.61901">
        <ele>968.617022</ele>
        <time>2022-05-01T08:21:51.551Z</time>
      </trkpt>
      <trkpt lat="41.11117" lon="20.61891">
        <ele>969.837685</ele>
        <time>2022-05-01T08:22:00.559Z</time>
      </trkpt>
      <trkpt lat="41.1111" lon="20.61881">
        <ele>971.000322</ele>
        <time>2022-05-01T08:22:07.545Z</time>
      </trkpt>
      <trkpt lat="41.11106" lon="20.6187">
        <ele>972.097455</ele>
        <time>2022-05-01T08:22:16.540Z</time>
      </trkpt>
      <trkpt lat="41.11101" lon="20.6186">
        <ele>973.155698</ele>
        <time>2022-05-01T08:22:25.536Z</time>
      </trkpt>
      <trkpt lat="41.11096" lon="20.6185">
        <ele>974.221389</ele>
        <time>2022-05-01T08:22:33.518Z</time>
      </trkpt>
      <trkpt lat="41.11091" lon="20.61839">
        <ele>975.293032</ele>
        <time>2022-05-01T08:22:41.530Z</time>
      </trkpt>
      <trkpt lat="41.11089" lon="20.61827">
        <ele>976.407476</ele>
        <time>2022-05-01T08:22:49.534Z</time>
      </trkpt>
      <trkpt lat="41.11085" lon="20.61815">
        <ele>977.578659</ele>
        <time>2022-05-01T08:22:59.539Z</time>
      </trkpt>
      <trkpt lat="41.11082" lon="20.61803">
        <ele>978.728482</ele>
        <time>2022-05-01T08:23:08.544Z</time>
      </trkpt>
      <trkpt lat="41.11078" lon="20.61791">
        <ele>979.89518</ele>
        <time>2022-05-01T08:23:19.535Z</time>
      </trkpt>
      <trkpt lat="41.11077" lon="20.61778">
        <ele>981.029264</ele>
        <time>2022-05-01T08:23:27.536Z</time>
      </trkpt>
      <trkpt lat="41.11073" lon="20.61767">
        <ele>981.818241</ele>
        <time>2022-05-01T08:23:36.540Z</time>
      </trkpt>
      <trkpt lat="41.11068" lon="20.61755">
        <ele>982.357119</ele>
        <time>2022-05-01T08:23:45.547Z</time>
      </trkpt>
      <trkpt lat="41.11062" lon="20.61746">
        <ele>982.834617</ele>
        <time>2022-05-01T08:23:53.538Z</time>
      </trkpt>
      <trkpt lat="41.11055" lon="20.61738">
        <ele>983.319191</ele>
        <time>2022-05-01T08:24:02.544Z</time>
      </trkpt>
      <trkpt lat="41.11048" lon="20.6173">
        <ele>983.830593</ele>
        <time>2022-05-01T08:24:11.570Z</time>
      </trkpt>
      <trkpt lat="41.1104" lon="20.61722">
        <ele>984.352902</ele>
        <time>2022-05-01T08:24:19.524Z</time>
      </trkpt>
      <trkpt lat="41.11031" lon="20.61716">
        <ele>984.874039</ele>
        <time>2022-05-01T08:24:28.579Z</time>
      </trkpt>
      <trkpt lat="41.11023" lon="20.61708">
        <ele>985.400577</ele>
        <time>2022-05-01T08:24:37.550Z</time>
      </trkpt>
      <trkpt lat="41.11015" lon="20.61701">
        <ele>985.917126</ele>
        <time>2022-05-01T08:24:47.552Z</time>
      </trkpt>
      <trkpt lat="41.11007" lon="20.61695">
        <ele>986.406032</ele>
        <time>2022-05-01T08:24:56.522Z</time>
      </trkpt>
      <trkpt lat="41.10998" lon="20.61689">
        <ele>986.93655</ele>
        <time>2022-05-01T08:25:05.548Z</time>
      </trkpt>
      <trkpt lat="41.10991" lon="20.61683">
        <ele>987.419949</ele>
        <time>2022-05-01T08:25:14.531Z</time>
      </trkpt>
      <trkpt lat="41.10982" lon="20.61678">
        <ele>987.925588</ele>
        <time>2022-05-01T08:25:25.540Z</time>
      </trkpt>
      <trkpt lat="41.10973" lon="20.61674">
        <ele>988.419269</ele>
        <time>2022-05-01T08:25:34.539Z</time>
      </trkpt>
      <trkpt lat="41.10965" lon="20.61669">
        <ele>988.913722</ele>
        <time>2022-05-01T08:25:42.541Z</time>
      </trkpt>
      <trkpt lat="41.10956" lon="20.61665">
        <ele>989.414805</ele>
        <time>2022-05-01T08:25:51.558Z</time>
      </trkpt>
      <trkpt lat="41.10946" lon="20.61663">
        <ele>989.948821</ele>
        <time>2022-05-01T08:26:00.543Z</time>
      </trkpt>
      <trkpt lat="41.10936" lon="20.61663">
        <ele>990.466482</ele>
        <time>2022-05-01T08:26:11.528Z</time>
      </trkpt>
      <trkpt lat="41.10927" lon="20.61661">
        <ele>990.975772</ele>
        <time>2022-05-01T08:26:20.543Z</time>
      </trkpt>
      <trkpt lat="41.10917" lon="20.61662">
        <ele>991.902029</ele>
        <time>2022-05-01T08:26:30.579Z</time>
      </trkpt>
      <trkpt lat="41.10908" lon="20.61661">
        <ele>992.984053</ele>
        <time>2022-05-01T08:26:41.584Z</time>
      </trkpt>
      <trkpt lat="41.10899" lon="20.61664">
        <ele>994.036966</ele>
        <time>2022-05-01T08:26:48.528Z</time>
      </trkpt>
      <trkpt lat="41.10889" lon="20.61661">
        <ele>995.193203</ele>
        <time>2022-05-01T08:26:54.529Z</time>
      </trkpt>
      <trkpt lat="41.10879" lon="20.61661">
        <ele>996.35326</ele>
        <time>2022-05-01T08:27:04.567Z</time>
      </trkpt>
      <trkpt lat="41.1087" lon="20.61662">
        <ele>997.48011</ele>
        <time>2022-05-01T08:27:15.566Z</time>
      </trkpt>
      <trkpt lat="41.1086" lon="20.61661">
        <ele>998.582285</ele>
        <time>2022-05-01T08:27:23.544Z</time>
      </trkpt>
      <trkpt lat="41.10851" lon="20.61658">
        <ele>999.64944</ele>
        <time>2022-05-01T08:27:31.543Z</time>
      </trkpt>
      <trkpt lat="41.10842" lon="20.61657">
        <ele>1000.730053</ele>
        <time>2022-05-01T08:27:40.539Z</time>
      </trkpt>
      <trkpt lat="41.10833" lon="20.61656">
        <ele>1001.813766</ele>
        <time>2022-05-01T08:27:49.538Z</time>
      </trkpt>
      <trkpt lat="41.10823" lon="20.61653">
        <ele>1002.934463</ele>
        <time>2022-05-01T08:28:00.547Z</time>
      </trkpt>
      <trkpt lat="41.10814" lon="20.6165">
        <ele>1004.043593</ele>
        <time>2022-05-01T08:28:10.531Z</time>
      </trkpt>
      <trkpt lat="41.10805" lon="20.61647">
        <ele>1005.144019</ele>
        <time>2022-05-01T08:28:18.539Z</time>
      </trkpt>
      <trkpt lat="41.10795" lon="20.61644">
        <ele>1006.310286</ele>
        <time>2022-05-01T08:28:26.519Z</time>
      </trkpt>
      <trkpt lat="41.10786" lon="20.61641">
        <ele>1007.386008</ele>
        <time>2022-05-01T08:28:34.531Z</time>
      </trkpt>
      <trkpt lat="41.10778" lon="20.61636">
        <ele>1008.445857</ele>
        <time>2022-05-01T08:28:45.547Z</time>
      </trkpt>
      <trkpt lat="41.10768" lon="20.61632">
        <ele>1009.559542</ele>
        <time>2022-05-01T08:28:54.530Z</time>
      </trkpt>
      <trkpt lat="41.1076" lon="20.61627">
        <ele>1010.65243</ele>
        <time>2022-05-01T08:29:02.542Z</time>
      </trkpt>
      <trkpt lat="41.10751" lon="20.61623">
        <ele>1011.706605</ele>
        <time>2022-05-01T08:29:10.545Z</time>
      </trkpt>
      <trkpt lat="41.10742" lon="20.6162">
        <ele>1012.244963</ele>
        <time>2022-05-01T08:29:18.546Z</time>
      </trkpt>
      <trkpt lat="41.10733" lon="20.61615">
        <ele>1012.585266</ele>
        <time>2022-05-01T08:29:25.533Z</time>
      </trkpt>
      <trkpt lat="41.10724" lon="20.6161">
        <ele>1012.963559</ele>
        <time>2022-05-01T08:29:33.542Z</time>
      </trkpt>
      <trkpt lat="41.10715" lon="20.61606">
        <ele>1013.296363</ele>
        <time>2022-05-01T08:29:40.572Z</time>
      </trkpt>
      <trkpt lat="41.10707" lon="20.61601">
        <ele>1013.635432</ele>
        <time>2022-05-01T08:29:48.540Z</time>
      </trkpt>
      <trkpt lat="41.10698" lon="20.61597">
        <ele>1013.971824</ele>
        <time>2022-05-01T08:29:55.543Z</time>
      </trkpt>
      <trkpt lat="41.1069" lon="20.61591">
        <ele>1014.318432</ele>
        <time>2022-05-01T08:30:02.534Z</time>
      </trkpt>
      <trkpt lat="41.10681" lon="20.61584">
        <ele>1014.691273</ele>
        <time>2022-05-01T08:30:10.543Z</time>
      </trkpt>
      <trkpt lat="41.10673" lon="20.61575">
        <ele>1015.067986</ele>
        <time>2022-05-01T08:30:18.542Z</time>
      </trkpt>
      <trkpt lat="41.10666" lon="20.61568">
        <ele>1015.400317</ele>
        <time>2022-05-01T08:30:25.541Z</time>
      </trkpt>
      <trkpt lat="41.10659" lon="20.61559">
        <ele>1015.775485</ele>
        <time>2022-05-01T08:30:33.529Z</time>
      </trkpt>
      <trkpt lat="41.10653" lon="20.61548">
        <ele>1016.143326</ele>
        <time>2022-05-01T08:30:41.544Z</time>
      </trkpt>
      <trkpt lat="41.10647" lon="20.61538">
        <ele>1016.500314</ele>
        <time>2022-05-01T08:30:49.536Z</time>
      </trkpt>
      <trkpt lat="41.10642" lon="20.61527">
        <ele>1016.862151</ele>
        <time>2022-05-01T08:30:57.530Z</time>
      </trkpt>
      <trkpt lat="41.10638" lon="20.61515">
        <ele>1017.213481</ele>
        <time>2022-05-01T08:31:06.540Z</time>
      </trkpt>
      <trkpt lat="41.10633" lon="20.61503">
        <ele>1017.592068</ele>
        <time>2022-05-01T08:31:15.545Z</time>
      </trkpt>
      <trkpt lat="41.10627" lon="20.61493">
        <ele>1017.931071</ele>
        <time>2022-05-01T08:31:22.562Z</time>
      </trkpt>
      <trkpt lat="41.10622" lon="20.61482">
        <ele>1018.294555</ele>
        <time>2022-05-01T08:31:31.555Z</time>
      </trkpt>
      <trkpt lat="41.10619" lon="20.6147">
        <ele>1018.742245</ele>
        <time>2022-05-01T08:31:39.536Z</time>
      </trkpt>
      <trkpt lat="41.10614" lon="20.61458">
        <ele>1019.72186</ele>
        <time>2022-05-01T08:31:47.543Z</time>
      </trkpt>
      <trkpt lat="41.10608" lon="20.61449">
        <ele>1020.589864</ele>
        <time>2022-05-01T08:31:54.565Z</time>
      </trkpt>
      <trkpt lat="41.10603" lon="20.61438">
        <ele>1021.48727</ele>
        <time>2022-05-01T08:32:02.548Z</time>
      </trkpt>
      <trkpt lat="41.10596" lon="20.6143">
        <ele>1022.358823</ele>
        <time>2022-05-01T08:32:09.542Z</time>
      </trkpt>
      <trkpt lat="41.1059" lon="20.61421">
        <ele>1023.243353</ele>
        <time>2022-05-01T08:32:16.542Z</time>
      </trkpt>
      <trkpt lat="41.10582" lon="20.61413">
        <ele>1024.174288</ele>
        <time>2022-05-01T08:32:24.549Z</time>
      </trkpt>
      <trkpt lat="41.10575" lon="20.61405">
        <ele>1025.079673</ele>
        <time>2022-05-01T08:32:31.540Z</time>
      </trkpt>
      <trkpt lat="41.10566" lon="20.61398">
        <ele>1026.020556</ele>
        <time>2022-05-01T08:32:39.573Z</time>
      </trkpt>
      <trkpt lat="41.10558" lon="20.61391">
        <ele>1026.898537</ele>
        <time>2022-05-01T08:32:46.534Z</time>
      </trkpt>
      <trkpt lat="41.1055" lon="20.61385">
        <ele>1027.797327</ele>
        <time>2022-05-01T08:32:53.526Z</time>
      </trkpt>
      <trkpt lat="41.10542" lon="20.61378">
        <ele>1028.726986</ele>
        <time>2022-05-01T08:33:01.531Z</time>
      </trkpt>
      <trkpt lat="41.10534" lon="20.61372">
        <ele>1029.611799</ele>
        <time>2022-05-01T08:33:08.520Z</time>
      </trkpt>
      <trkpt lat="41.10526" lon="20.61366">
        <ele>1030.501012</ele>
        <time>2022-05-01T08:33:15.538Z</time>
      </trkpt>
      <trkpt lat="41.10517" lon="20.61359">
        <ele>1031.446983</ele>
        <time>2022-05-01T08:33:23.546Z</time>
      </trkpt>
      <trkpt lat="41.10509" lon="20.61353">
        <ele>1032.303403</ele>
        <time>2022-05-01T08:33:30.539Z</time>
      </trkpt>
      <trkpt lat="41.105" lon="20.61347">
        <ele>1033.264132</ele>
        <time>2022-05-01T08:33:39.541Z</time>
      </trkpt>
      <trkpt lat="41.10492" lon="20.61341">
        <ele>1034.127564</ele>
        <time>2022-05-01T08:33:47.526Z</time>
      </trkpt>
      <trkpt lat="41.10485" lon="20.61334">
        <ele>1034.98919</ele>
        <time>2022-05-01T08:33:56.530Z</time>
      </trkpt>
      <trkpt lat="41.10477" lon="20.61328">
        <ele>1035.855539</ele>
        <time>2022-05-01T08:34:04.548Z</time>
      </trkpt>
      <trkpt lat="41.10468" lon="20.61322">
        <ele>1036.6161</ele>
        <time>2022-05-01T08:34:12.552Z</time>
      </trkpt>
      <trkpt lat="41.10459" lon="20.61318">
        <ele>1037.411249</ele>
        <time>2022-05-01T08:34:21.563Z</time>
      </trkpt>
      <trkpt lat="41.10451" lon="20.61311">
        <ele>1038.139819</ele>
        <time>2022-05-01T08:34:28.549Z</time>
      </trkpt>
      <trkpt lat="41.10443" lon="20.61307">
        <ele>1038.874856</ele>
        <time>2022-05-01T08:34:35.521Z</time>
      </trkpt>
      <trkpt lat="41.10434" lon="20.61301">
        <ele>1039.660297</ele>
        <time>2022-05-01T08:34:43.531Z</time>
      </trkpt>
      <trkpt lat="41.10426" lon="20.61295">
        <ele>1040.391493</ele>
        <time>2022-05-01T08:34:50.522Z</time>
      </trkpt>
      <trkpt lat="41.10417" lon="20.6129">
        <ele>1041.14723</ele>
        <time>2022-05-01T08:34:57.534Z</time>
      </trkpt>
      <trkpt lat="41.10408" lon="20.61285">
        <ele>1041.95729</ele>
        <time>2022-05-01T08:35:04.536Z</time>
      </trkpt>
      <trkpt lat="41.10399" lon="20.61281">
        <ele>1042.698239</ele>
        <time>2022-05-01T08:35:09.622Z</time>
      </trkpt>
      <trkpt lat="41.10389" lon="20.61274">
        <ele>1043.623701</ele>
        <time>2022-05-01T08:35:14.548Z</time>
      </trkpt>
      <trkpt lat="41.10379" lon="20.61268">
        <ele>1044.531382</ele>
        <time>2022-05-01T08:35:18.526Z</time>
      </trkpt>
      <trkpt lat="41.10369" lon="20.61262">
        <ele>1045.335956</ele>
        <time>2022-05-01T08:35:21.541Z</time>
      </trkpt>
      <trkpt lat="41.10358" lon="20.61255">
        <ele>1046.35078</ele>
        <time>2022-05-01T08:35:24.534Z</time>
      </trkpt>
      <trkpt lat="41.10349" lon="20.61249">
        <ele>1047.161377</ele>
        <time>2022-05-01T08:35:26.542Z</time>
      </trkpt>
      <trkpt lat="41.10339" lon="20.61244">
        <ele>1048.017642</ele>
        <time>2022-05-01T08:35:28.537Z</time>
      </trkpt>
      <trkpt lat="41.10329" lon="20.61239">
        <ele>1048.894083</ele>
        <time>2022-05-01T08:35:30.533Z</time>
      </trkpt>
      <trkpt lat="41.10318" lon="20.61233">
        <ele>1049.835554</ele>
        <time>2022-05-01T08:35:32.558Z</time>
      </trkpt>
      <trkpt lat="41.10306" lon="20.61226">
        <ele>1049.600068</ele>
        <time>2022-05-01T08:35:34.553Z</time>
      </trkpt>
      <trkpt lat="41.10294" lon="20.61219">
        <ele>1048.935782</ele>
        <time>2022-05-01T08:35:36.521Z</time>
      </trkpt>
      <trkpt lat="41.1028" lon="20.61212">
        <ele>1048.235307</ele>
        <time>2022-05-01T08:35:38.534Z</time>
      </trkpt>
      <trkpt lat="41.10267" lon="20.61205">
        <ele>1047.545029</ele>
        <time>2022-05-01T08:35:40.543Z</time>
      </trkpt>
      <trkpt lat="41.10254" lon="20.61197">
        <ele>1046.825119</ele>
        <time>2022-05-01T08:35:42.539Z</time>
      </trkpt>
      <trkpt lat="41.1024" lon="20.6119">
        <ele>1046.088119</ele>
        <time>2022-05-01T08:35:44.569Z</time>
      </trkpt>
      <trkpt lat="41.10226" lon="20.61183">
        <ele>1045.343285</ele>
        <time>2022-05-01T08:35:46.542Z</time>
      </trkpt>
      <trkpt lat="41.10211" lon="20.61176">
        <ele>1044.580441</ele>
        <time>2022-05-01T08:35:48.541Z</time>
      </trkpt>
      <trkpt lat="41.10196" lon="20.61169">
        <ele>1043.793094</ele>
        <time>2022-05-01T08:35:50.517Z</time>
      </trkpt>
      <trkpt lat="41.10181" lon="20.61163">
        <ele>1042.985519</ele>
        <time>2022-05-01T08:35:52.566Z</time>
      </trkpt>
      <trkpt lat="41.10165" lon="20.61158">
        <ele>1042.167711</ele>
        <time>2022-05-01T08:35:54.562Z</time>
      </trkpt>
      <trkpt lat="41.10148" lon="20.61154">
        <ele>1041.343912</ele>
        <time>2022-05-01T08:35:56.510Z</time>
      </trkpt>
      <trkpt lat="41.10132" lon="20.6115">
        <ele>1040.724658</ele>
        <time>2022-05-01T08:35:58.552Z</time>
      </trkpt>
      <trkpt lat="41.10115" lon="20.61147">
        <ele>1040.123916</ele>
        <time>2022-05-01T08:36:00.542Z</time>
      </trkpt>
      <trkpt lat="41.10098" lon="20.61145">
        <ele>1039.531957</ele>
        <time>2022-05-01T08:36:02.539Z</time>
      </trkpt>
      <trkpt lat="41.10081" lon="20.61145">
        <ele>1038.951842</ele>
        <time>2022-05-01T08:36:04.544Z</time>
      </trkpt>
      <trkpt lat="41.10065" lon="20.61144">
        <ele>1038.371794</ele>
        <time>2022-05-01T08:36:06.526Z</time>
      </trkpt>
      <trkpt lat="41.10049" lon="20.61145">
        <ele>1037.798871</ele>
        <time>2022-05-01T08:36:08.550Z</time>
      </trkpt>
      <trkpt lat="41.10032" lon="20.61146">
        <ele>1037.229019</ele>
        <time>2022-05-01T08:36:10.540Z</time>
      </trkpt>
      <trkpt lat="41.10016" lon="20.61146">
        <ele>1036.65966</ele>
        <time>2022-05-01T08:36:12.559Z</time>
      </trkpt>
      <trkpt lat="41.1" lon="20.61145">
        <ele>1036.082542</ele>
        <time>2022-05-01T08:36:14.522Z</time>
      </trkpt>
      <trkpt lat="41.09984" lon="20.61144">
        <ele>1035.523424</ele>
        <time>2022-05-01T08:36:16.546Z</time>
      </trkpt>
      <trkpt lat="41.09968" lon="20.61144">
        <ele>1034.978615</ele>
        <time>2022-05-01T08:36:18.534Z</time>
      </trkpt>
      <trkpt lat="41.09954" lon="20.61143">
        <ele>1034.313653</ele>
        <time>2022-05-01T08:36:20.538Z</time>
      </trkpt>
      <trkpt lat="41.09939" lon="20.61143">
        <ele>1033.628478</ele>
        <time>2022-05-01T08:36:22.564Z</time>
      </trkpt>
      <trkpt lat="41.09925" lon="20.61143">
        <ele>1032.971009</ele>
        <time>2022-05-01T08:36:24.533Z</time>
      </trkpt>
      <trkpt lat="41.09911" lon="20.61142">
        <ele>1032.331861</ele>
        <time>2022-05-01T08:36:26.545Z</time>
      </trkpt>
      <trkpt lat="41.09897" lon="20.61141">
        <ele>1031.701146</ele>
        <time>2022-05-01T08:36:28.563Z</time>
      </trkpt>
      <trkpt lat="41.09884" lon="20.61141">
        <ele>1031.071445</ele>
        <time>2022-05-01T08:36:30.546Z</time>
      </trkpt>
      <trkpt lat="41.0987" lon="20.6114">
        <ele>1030.432554</ele>
        <time>2022-05-01T08:36:32.533Z</time>
      </trkpt>
      <trkpt lat="41.09856" lon="20.6114">
        <ele>1029.798225</ele>
        <time>2022-05-01T08:36:34.554Z</time>
      </trkpt>
      <trkpt lat="41.09843" lon="20.6114">
        <ele>1029.177926</ele>
        <time>2022-05-01T08:36:36.540Z</time>
      </trkpt>
      <trkpt lat="41.09829" lon="20.6114">
        <ele>1028.539112</ele>
        <time>2022-05-01T08:36:38.546Z</time>
      </trkpt>
      <trkpt lat="41.09815" lon="20.6114">
        <ele>1027.909526</ele>
        <time>2022-05-01T08:36:40.548Z</time>
      </trkpt>
      <trkpt lat="41.09802" lon="20.61139">
        <ele>1027.303084</ele>
        <time>2022-05-01T08:36:42.544Z</time>
      </trkpt>
      <trkpt lat="41.09789" lon="20.61139">
        <ele>1026.715157</ele>
        <time>2022-05-01T08:36:44.544Z</time>
      </trkpt>
      <trkpt lat="41.09777" lon="20.61139">
        <ele>1026.138923</ele>
        <time>2022-05-01T08:36:46.546Z</time>
      </trkpt>
      <trkpt lat="41.09764" lon="20.61138">
        <ele>1025.590767</ele>
        <time>2022-05-01T08:36:48.543Z</time>
      </trkpt>
      <trkpt lat="41.09751" lon="20.61138">
        <ele>1025.029847</ele>
        <time>2022-05-01T08:36:50.563Z</time>
      </trkpt>
      <trkpt lat="41.09739" lon="20.61138">
        <ele>1024.486594</ele>
        <time>2022-05-01T08:36:52.541Z</time>
      </trkpt>
      <trkpt lat="41.09726" lon="20.61139">
        <ele>1023.925526</ele>
        <time>2022-05-01T08:36:54.541Z</time>
      </trkpt>
      <trkpt lat="41.09714" lon="20.61139">
        <ele>1023.377703</ele>
        <time>2022-05-01T08:36:56.550Z</time>
      </trkpt>
      <trkpt lat="41.09701" lon="20.6114">
        <ele>1022.811398</ele>
        <time>2022-05-01T08:36:58.539Z</time>
      </trkpt>
      <trkpt lat="41.09688" lon="20.61141">
        <ele>1022.227455</ele>
        <time>2022-05-01T08:37:00.541Z</time>
      </trkpt>
      <trkpt lat="41.09676" lon="20.61142">
        <ele>1021.68412</ele>
        <time>2022-05-01T08:37:02.527Z</time>
      </trkpt>
      <trkpt lat="41.09663" lon="20.61142">
        <ele>1021.11359</ele>
        <time>2022-05-01T08:37:04.544Z</time>
      </trkpt>
      <trkpt lat="41.0965" lon="20.61143">
        <ele>1020.547783</ele>
        <time>2022-05-01T08:37:06.518Z</time>
      </trkpt>
      <trkpt lat="41.09637" lon="20.61144">
        <ele>1019.951308</ele>
        <time>2022-05-01T08:37:08.531Z</time>
      </trkpt>
      <trkpt lat="41.09623" lon="20.61144">
        <ele>1019.350418</ele>
        <time>2022-05-01T08:37:10.532Z</time>
      </trkpt>
      <trkpt lat="41.0961" lon="20.61145">
        <ele>1018.767187</ele>
        <time>2022-05-01T08:37:12.544Z</time>
      </trkpt>
      <trkpt lat="41.09596" lon="20.61145">
        <ele>1018.660791</ele>
        <time>2022-05-01T08:37:14.562Z</time>
      </trkpt>
      <trkpt lat="41.09582" lon="20.61143">
        <ele>1018.699468</ele>
        <time>2022-05-01T08:37:16.544Z</time>
      </trkpt>
      <trkpt lat="41.09568" lon="20.6114">
        <ele>1018.737875</ele>
        <time>2022-05-01T08:37:18.540Z</time>
      </trkpt>
      <trkpt lat="41.09556" lon="20.61136">
        <ele>1018.773212</ele>
        <time>2022-05-01T08:37:20.520Z</time>
      </trkpt>
      <trkpt lat="41.09544" lon="20.6113">
        <ele>1018.808711</ele>
        <time>2022-05-01T08:37:22.549Z</time>
      </trkpt>
      <trkpt lat="41.09533" lon="20.61124">
        <ele>1018.842402</ele>
        <time>2022-05-01T08:37:24.543Z</time>
      </trkpt>
      <trkpt lat="41.09523" lon="20.61117">
        <ele>1018.87422</ele>
        <time>2022-05-01T08:37:26.558Z</time>
      </trkpt>
      <trkpt lat="41.09513" lon="20.61112">
        <ele>1018.902383</ele>
        <time>2022-05-01T08:37:28.546Z</time>
      </trkpt>
      <trkpt lat="41.09502" lon="20.61105">
        <ele>1018.936862</ele>
        <time>2022-05-01T08:37:31.568Z</time>
      </trkpt>
      <trkpt lat="41.09492" lon="20.61098">
        <ele>1018.968661</ele>
        <time>2022-05-01T08:37:34.548Z</time>
      </trkpt>
      <trkpt lat="41.09483" lon="20.61092">
        <ele>1018.998206</ele>
        <time>2022-05-01T08:37:37.526Z</time>
      </trkpt>
      <trkpt lat="41.09474" lon="20.61085">
        <ele>1019.026173</ele>
        <time>2022-05-01T08:37:40.547Z</time>
      </trkpt>
      <trkpt lat="41.09466" lon="20.61079">
        <ele>1019.052511</ele>
        <time>2022-05-01T08:37:43.524Z</time>
      </trkpt>
      <trkpt lat="41.09458" lon="20.61073">
        <ele>1019.078989</ele>
        <time>2022-05-01T08:37:46.533Z</time>
      </trkpt>
      <trkpt lat="41.09447" lon="20.61066">
        <ele>1019.112069</ele>
        <time>2022-05-01T08:37:50.543Z</time>
      </trkpt>
      <trkpt lat="41.09437" lon="20.61058">
        <ele>1019.320537</ele>
        <time>2022-05-01T08:37:54.550Z</time>
      </trkpt>
      <trkpt lat="41.09426" lon="20.61051">
        <ele>1019.821794</ele>
        <time>2022-05-01T08:37:58.541Z</time>
      </trkpt>
      <trkpt lat="41.09416" lon="20.61044">
        <ele>1020.310411</ele>
        <time>2022-05-01T08:38:02.541Z</time>
      </trkpt>
      <trkpt lat="41.09406" lon="20.61036">
        <ele>1020.804913</ele>
        <time>2022-05-01T08:38:06.564Z</time>
      </trkpt>
      <trkpt lat="41.09396" lon="20.61029">
        <ele>1021.295046</ele>
        <time>2022-05-01T08:38:10.546Z</time>
      </trkpt>
      <trkpt lat="41.09385" lon="20.61021">
        <ele>1021.792004</ele>
        <time>2022-05-01T08:38:14.538Z</time>
      </trkpt>
      <trkpt lat="41.09377" lon="20.61018">
        <ele>1022.181973</ele>
        <time>2022-05-01T08:38:18.560Z</time>
      </trkpt>
      <trkpt lat="41.09367" lon="20.61013">
        <ele>1022.625132</ele>
        <time>2022-05-01T08:38:22.543Z</time>
      </trkpt>
      <trkpt lat="41.09357" lon="20.61005">
        <ele>1023.118414</ele>
        <time>2022-05-01T08:38:26.537Z</time>
      </trkpt>
      <trkpt lat="41.09347" lon="20.60997">
        <ele>1023.612904</ele>
        <time>2022-05-01T08:38:30.565Z</time>
      </trkpt>
      <trkpt lat="41.09337" lon="20.6099">
        <ele>1024.08103</ele>
        <time>2022-05-01T08:38:34.529Z</time>
      </trkpt>
      <trkpt lat="41.09328" lon="20.60982">
        <ele>1024.543885</ele>
        <time>2022-05-01T08:38:38.543Z</time>
      </trkpt>
      <trkpt lat="41.09318" lon="20.60975">
        <ele>1025.011479</ele>
        <time>2022-05-01T08:38:42.545Z</time>
      </trkpt>
      <trkpt lat="41.09308" lon="20.60968">
        <ele>1025.485305</ele>
        <time>2022-05-01T08:38:46.573Z</time>
      </trkpt>
      <trkpt lat="41.09299" lon="20.60961">
        <ele>1025.936524</ele>
        <time>2022-05-01T08:38:50.545Z</time>
      </trkpt>
      <trkpt lat="41.0929" lon="20.60954">
        <ele>1026.406291</ele>
        <time>2022-05-01T08:38:54.584Z</time>
      </trkpt>
      <trkpt lat="41.09281" lon="20.60944">
        <ele>1026.796481</ele>
        <time>2022-05-01T08:38:58.530Z</time>
      </trkpt>
      <trkpt lat="41.09273" lon="20.60933">
        <ele>1026.973605</ele>
        <time>2022-05-01T08:39:02.536Z</time>
      </trkpt>
      <trkpt lat="41.09265" lon="20.60922">
        <ele>1027.143469</ele>
        <time>2022-05-01T08:39:06.535Z</time>
      </trkpt>
      <trkpt lat="41.09257" lon="20.60911">
        <ele>1027.319162</ele>
        <time>2022-05-01T08:39:10.548Z</time>
      </trkpt>
      <trkpt lat="41.0925" lon="20.60899">
        <ele>1027.492481</ele>
        <time>2022-05-01T08:39:14.573Z</time>
      </trkpt>
      <trkpt lat="41.09244" lon="20.6089">
        <ele>1027.62994</ele>
        <time>2022-05-01T08:39:17.538Z</time>
      </trkpt>
      <trkpt lat="41.09234" lon="20.60881">
        <ele>1027.808497</ele>
        <time>2022-05-01T08:39:21.613Z</time>
      </trkpt>
      <trkpt lat="41.09226" lon="20.60875">
        <ele>1027.948952</ele>
        <time>2022-05-01T08:39:24.553Z</time>
      </trkpt>
      <trkpt lat="41.09217" lon="20.60868">
        <ele>1028.113477</ele>
        <time>2022-05-01T08:39:28.532Z</time>
      </trkpt>
      <trkpt lat="41.09178" lon="20.60826">
        <ele>1028.867835</ele>
        <time>2022-05-01T08:45:39.554Z</time>
      </trkpt>
      <trkpt lat="41.09169" lon="20.60825">
        <ele>1029.010132</ele>
        <time>2022-05-01T08:45:42.535Z</time>
      </trkpt>
      <trkpt lat="41.09159" lon="20.60824">
        <ele>1029.152618</ele>
        <time>2022-05-01T08:45:45.536Z</time>
      </trkpt>
      <trkpt lat="41.09149" lon="20.60825">
        <ele>1029.304299</ele>
        <time>2022-05-01T08:45:48.537Z</time>
      </trkpt>
      <trkpt lat="41.09139" lon="20.60825">
        <ele>1029.45423</ele>
        <time>2022-05-01T08:45:51.542Z</time>
      </trkpt>
      <trkpt lat="41.09129" lon="20.60824">
        <ele>1029.717745</ele>
        <time>2022-05-01T08:45:54.541Z</time>
      </trkpt>
      <trkpt lat="41.09119" lon="20.60822">
        <ele>1029.987455</ele>
        <time>2022-05-01T08:45:57.547Z</time>
      </trkpt>
      <trkpt lat="41.09109" lon="20.60818">
        <ele>1030.275358</ele>
        <time>2022-05-01T08:46:00.545Z</time>
      </trkpt>
      <trkpt lat="41.09099" lon="20.60813">
        <ele>1030.559337</ele>
        <time>2022-05-01T08:46:03.522Z</time>
      </trkpt>
      <trkpt lat="41.09089" lon="20.60807">
        <ele>1030.843761</ele>
        <time>2022-05-01T08:46:06.551Z</time>
      </trkpt>
      <trkpt lat="41.09079" lon="20.60799">
        <ele>1031.162512</ele>
        <time>2022-05-01T08:46:09.539Z</time>
      </trkpt>
      <trkpt lat="41.09068" lon="20.60792">
        <ele>1031.475008</ele>
        <time>2022-05-01T08:46:12.535Z</time>
      </trkpt>
      <trkpt lat="41.09057" lon="20.60785">
        <ele>1031.807225</ele>
        <time>2022-05-01T08:46:15.540Z</time>
      </trkpt>
      <trkpt lat="41.09046" lon="20.60778">
        <ele>1032.134509</ele>
        <time>2022-05-01T08:46:18.545Z</time>
      </trkpt>
      <trkpt lat="41.09034" lon="20.60771">
        <ele>1032.478931</ele>
        <time>2022-05-01T08:46:21.528Z</time>
      </trkpt>
      <trkpt lat="41.09024" lon="20.60763">
        <ele>1032.799899</ele>
        <time>2022-05-01T08:46:24.539Z</time>
      </trkpt>
      <trkpt lat="41.09017" lon="20.60755">
        <ele>1033.042125</ele>
        <time>2022-05-01T08:46:27.543Z</time>
      </trkpt>
      <trkpt lat="41.09007" lon="20.60748">
        <ele>1033.32696</ele>
        <time>2022-05-01T08:46:32.562Z</time>
      </trkpt>
      <trkpt lat="41.09" lon="20.60738">
        <ele>1033.603179</ele>
        <time>2022-05-01T08:46:36.539Z</time>
      </trkpt>
      <trkpt lat="41.08993" lon="20.6073">
        <ele>1033.853266</ele>
        <time>2022-05-01T08:46:39.535Z</time>
      </trkpt>
      <trkpt lat="41.08986" lon="20.60723">
        <ele>1034.094216</ele>
        <time>2022-05-01T08:46:42.539Z</time>
      </trkpt>
      <trkpt lat="41.08977" lon="20.60713">
        <ele>1034.218542</ele>
        <time>2022-05-01T08:46:46.545Z</time>
      </trkpt>
      <trkpt lat="41.08968" lon="20.60707">
        <ele>1034.128108</ele>
        <time>2022-05-01T08:46:50.570Z</time>
      </trkpt>
      <trkpt lat="41.0896" lon="20.60701">
        <ele>1034.045999</ele>
        <time>2022-05-01T08:46:55.549Z</time>
      </trkpt>
      <trkpt lat="41.08957" lon="20.60688">
        <ele>1033.957174</ele>
        <time>2022-05-01T08:52:31.554Z</time>
      </trkpt>
      <trkpt lat="41.08932" lon="20.6067">
        <ele>1033.705053</ele>
        <time>2022-05-01T08:54:47.549Z</time>
      </trkpt>
      <trkpt lat="41.08926" lon="20.6066">
        <ele>1033.619099</ele>
        <time>2022-05-01T08:54:55.545Z</time>
      </trkpt>
      <trkpt lat="41.08904" lon="20.60647">
        <ele>1033.403054</ele>
        <time>2022-05-01T08:59:31.555Z</time>
      </trkpt>
      <trkpt lat="41.08895" lon="20.60645">
        <ele>1033.322222</ele>
        <time>2022-05-01T08:59:34.542Z</time>
      </trkpt>
      <trkpt lat="41.08883" lon="20.60644">
        <ele>1033.215531</ele>
        <time>2022-05-01T08:59:38.538Z</time>
      </trkpt>
      <trkpt lat="41.08873" lon="20.60643">
        <ele>1033.123975</ele>
        <time>2022-05-01T08:59:41.554Z</time>
      </trkpt>
      <trkpt lat="41.08863" lon="20.60642">
        <ele>1033.034853</ele>
        <time>2022-05-01T08:59:44.567Z</time>
      </trkpt>
      <trkpt lat="41.08853" lon="20.60642">
        <ele>1032.949701</ele>
        <time>2022-05-01T08:59:47.542Z</time>
      </trkpt>
      <trkpt lat="41.08842" lon="20.6064">
        <ele>1032.853236</ele>
        <time>2022-05-01T08:59:50.586Z</time>
      </trkpt>
      <trkpt lat="41.08832" lon="20.60638">
        <ele>1032.763726</ele>
        <time>2022-05-01T08:59:53.535Z</time>
      </trkpt>
      <trkpt lat="41.08823" lon="20.60636">
        <ele>1032.676326</ele>
        <time>2022-05-01T08:59:56.532Z</time>
      </trkpt>
      <trkpt lat="41.08812" lon="20.60631">
        <ele>1032.554326</ele>
        <time>2022-05-01T09:00:00.543Z</time>
      </trkpt>
      <trkpt lat="41.08803" lon="20.60626">
        <ele>1032.441031</ele>
        <time>2022-05-01T09:00:05.551Z</time>
      </trkpt>
      <trkpt lat="41.08794" lon="20.6062">
        <ele>1032.327994</ele>
        <time>2022-05-01T09:00:10.546Z</time>
      </trkpt>
      <trkpt lat="41.08784" lon="20.60615">
        <ele>1032.214698</ele>
        <time>2022-05-01T09:00:14.536Z</time>
      </trkpt>
      <trkpt lat="41.08776" lon="20.60607">
        <ele>1032.099788</ele>
        <time>2022-05-01T09:00:18.597Z</time>
      </trkpt>
      <trkpt lat="41.08768" lon="20.60601">
        <ele>1031.997461</ele>
        <time>2022-05-01T09:00:21.531Z</time>
      </trkpt>
      <trkpt lat="41.08759" lon="20.60598">
        <ele>1031.890123</ele>
        <time>2022-05-01T09:00:24.535Z</time>
      </trkpt>
      <trkpt lat="41.08749" lon="20.60591">
        <ele>1031.763439</ele>
        <time>2022-05-01T09:00:28.539Z</time>
      </trkpt>
      <trkpt lat="41.08739" lon="20.60584">
        <ele>1031.64238</ele>
        <time>2022-05-01T09:00:32.541Z</time>
      </trkpt>
      <trkpt lat="41.0873" lon="20.60578">
        <ele>1031.523222</ele>
        <time>2022-05-01T09:00:36.535Z</time>
      </trkpt>
      <trkpt lat="41.08719" lon="20.60572">
        <ele>1031.393812</ele>
        <time>2022-05-01T09:00:40.579Z</time>
      </trkpt>
      <trkpt lat="41.0871" lon="20.60568">
        <ele>1031.286004</ele>
        <time>2022-05-01T09:00:43.540Z</time>
      </trkpt>
      <trkpt lat="41.087" lon="20.60564">
        <ele>1031.17574</ele>
        <time>2022-05-01T09:00:46.583Z</time>
      </trkpt>
      <trkpt lat="41.0869" lon="20.60561">
        <ele>1031.062475</ele>
        <time>2022-05-01T09:00:49.543Z</time>
      </trkpt>
      <trkpt lat="41.0868" lon="20.60558">
        <ele>1030.938974</ele>
        <time>2022-05-01T09:00:52.587Z</time>
      </trkpt>
      <trkpt lat="41.08669" lon="20.60555">
        <ele>1030.820064</ele>
        <time>2022-05-01T09:00:55.551Z</time>
      </trkpt>
      <trkpt lat="41.08658" lon="20.60552">
        <ele>1030.695826</ele>
        <time>2022-05-01T09:00:58.588Z</time>
      </trkpt>
      <trkpt lat="41.08647" lon="20.60549">
        <ele>1030.327204</ele>
        <time>2022-05-01T09:01:01.545Z</time>
      </trkpt>
      <trkpt lat="41.08637" lon="20.6055">
        <ele>1029.963581</ele>
        <time>2022-05-01T09:01:03.535Z</time>
      </trkpt>
      <trkpt lat="41.08628" lon="20.60551">
        <ele>1029.606541</ele>
        <time>2022-05-01T09:01:05.549Z</time>
      </trkpt>
      <trkpt lat="41.08615" lon="20.60551">
        <ele>1029.119863</ele>
        <time>2022-05-01T09:01:08.526Z</time>
      </trkpt>
      <trkpt lat="41.08603" lon="20.6055">
        <ele>1028.643302</ele>
        <time>2022-05-01T09:01:11.552Z</time>
      </trkpt>
      <trkpt lat="41.08591" lon="20.60548">
        <ele>1028.157991</ele>
        <time>2022-05-01T09:01:14.556Z</time>
      </trkpt>
      <trkpt lat="41.08577" lon="20.60547">
        <ele>1027.631919</ele>
        <time>2022-05-01T09:01:17.545Z</time>
      </trkpt>
      <trkpt lat="41.08567" lon="20.60547">
        <ele>1027.237959</ele>
        <time>2022-05-01T09:01:19.547Z</time>
      </trkpt>
      <trkpt lat="41.08557" lon="20.60546">
        <ele>1026.839466</ele>
        <time>2022-05-01T09:01:21.546Z</time>
      </trkpt>
      <trkpt lat="41.08546" lon="20.60545">
        <ele>1026.436013</ele>
        <time>2022-05-01T09:01:23.544Z</time>
      </trkpt>
      <trkpt lat="41.08534" lon="20.60543">
        <ele>1025.982296</ele>
        <time>2022-05-01T09:01:25.533Z</time>
      </trkpt>
      <trkpt lat="41.08523" lon="20.60542">
        <ele>1025.535996</ele>
        <time>2022-05-01T09:01:27.555Z</time>
      </trkpt>
      <trkpt lat="41.08513" lon="20.60541">
        <ele>1025.155887</ele>
        <time>2022-05-01T09:01:29.534Z</time>
      </trkpt>
      <trkpt lat="41.08503" lon="20.60538">
        <ele>1024.766105</ele>
        <time>2022-05-01T09:01:31.571Z</time>
      </trkpt>
      <trkpt lat="41.08493" lon="20.60536">
        <ele>1024.358889</ele>
        <time>2022-05-01T09:01:33.547Z</time>
      </trkpt>
      <trkpt lat="41.0848" lon="20.60532">
        <ele>1023.841596</ele>
        <time>2022-05-01T09:01:36.537Z</time>
      </trkpt>
      <trkpt lat="41.08466" lon="20.60528">
        <ele>1024.283287</ele>
        <time>2022-05-01T09:01:39.554Z</time>
      </trkpt>
      <trkpt lat="41.08456" lon="20.60524">
        <ele>1024.847568</ele>
        <time>2022-05-01T09:01:41.555Z</time>
      </trkpt>
      <trkpt lat="41.08447" lon="20.6052">
        <ele>1025.377153</ele>
        <time>2022-05-01T09:01:43.544Z</time>
      </trkpt>
      <trkpt lat="41.08436" lon="20.60516">
        <ele>1026.004395</ele>
        <time>2022-05-01T09:01:46.578Z</time>
      </trkpt>
      <trkpt lat="41.08426" lon="20.60512">
        <ele>1026.544793</ele>
        <time>2022-05-01T09:01:49.550Z</time>
      </trkpt>
      <trkpt lat="41.08416" lon="20.6051">
        <ele>1027.119634</ele>
        <time>2022-05-01T09:01:52.581Z</time>
      </trkpt>
      <trkpt lat="41.08405" lon="20.60507">
        <ele>1027.715726</ele>
        <time>2022-05-01T09:01:55.547Z</time>
      </trkpt>
      <trkpt lat="41.08394" lon="20.60504">
        <ele>1028.347782</ele>
        <time>2022-05-01T09:01:59.545Z</time>
      </trkpt>
      <trkpt lat="41.08384" lon="20.60501">
        <ele>1028.899777</ele>
        <time>2022-05-01T09:02:03.557Z</time>
      </trkpt>
      <trkpt lat="41.08374" lon="20.60498">
        <ele>1029.421643</ele>
        <time>2022-05-01T09:02:07.561Z</time>
      </trkpt>
      <trkpt lat="41.08364" lon="20.60494">
        <ele>1030.005977</ele>
        <time>2022-05-01T09:02:12.548Z</time>
      </trkpt>
      <trkpt lat="41.08353" lon="20.60491">
        <ele>1030.605993</ele>
        <time>2022-05-01T09:02:17.530Z</time>
      </trkpt>
      <trkpt lat="41.08343" lon="20.60487">
        <ele>1031.16419</ele>
        <time>2022-05-01T09:02:22.558Z</time>
      </trkpt>
      <trkpt lat="41.08333" lon="20.60485">
        <ele>1031.704016</ele>
        <time>2022-05-01T09:02:27.547Z</time>
      </trkpt>
      <trkpt lat="41.08322" lon="20.60483">
        <ele>1032.30008</ele>
        <time>2022-05-01T09:02:33.550Z</time>
      </trkpt>
      <trkpt lat="41.08312" lon="20.60482">
        <ele>1032.869382</ele>
        <time>2022-05-01T09:02:38.550Z</time>
      </trkpt>
      <trkpt lat="41.08303" lon="20.6048">
        <ele>1033.368389</ele>
        <time>2022-05-01T09:02:43.543Z</time>
      </trkpt>
      <trkpt lat="41.08292" lon="20.60478">
        <ele>1034.224426</ele>
        <time>2022-05-01T09:02:49.551Z</time>
      </trkpt>
      <trkpt lat="41.08282" lon="20.60477">
        <ele>1035.154892</ele>
        <time>2022-05-01T09:02:55.539Z</time>
      </trkpt>
      <trkpt lat="41.08273" lon="20.60476">
        <ele>1035.932882</ele>
        <time>2022-05-01T09:03:00.564Z</time>
      </trkpt>
      <trkpt lat="41.08263" lon="20.60475">
        <ele>1036.806359</ele>
        <time>2022-05-01T09:03:06.546Z</time>
      </trkpt>
      <trkpt lat="41.08252" lon="20.60473">
        <ele>1037.70063</ele>
        <time>2022-05-01T09:03:12.551Z</time>
      </trkpt>
      <trkpt lat="41.08242" lon="20.60472">
        <ele>1038.571574</ele>
        <time>2022-05-01T09:03:18.543Z</time>
      </trkpt>
      <trkpt lat="41.08233" lon="20.60471">
        <ele>1039.391892</ele>
        <time>2022-05-01T09:03:24.544Z</time>
      </trkpt>
      <trkpt lat="41.08224" lon="20.6047">
        <ele>1040.182058</ele>
        <time>2022-05-01T09:03:30.539Z</time>
      </trkpt>
      <trkpt lat="41.08214" lon="20.60469">
        <ele>1041.027226</ele>
        <time>2022-05-01T09:03:36.557Z</time>
      </trkpt>
      <trkpt lat="41.08204" lon="20.60468">
        <ele>1041.875675</ele>
        <time>2022-05-01T09:03:42.539Z</time>
      </trkpt>
      <trkpt lat="41.08194" lon="20.60466">
        <ele>1042.737678</ele>
        <time>2022-05-01T09:03:48.528Z</time>
      </trkpt>
      <trkpt lat="41.08185" lon="20.60465">
        <ele>1043.512632</ele>
        <time>2022-05-01T09:03:54.586Z</time>
      </trkpt>
      <trkpt lat="41.08175" lon="20.60465">
        <ele>1044.374617</ele>
        <time>2022-05-01T09:04:00.546Z</time>
      </trkpt>
      <trkpt lat="41.08165" lon="20.60462">
        <ele>1045.239765</ele>
        <time>2022-05-01T09:04:06.551Z</time>
      </trkpt>
      <trkpt lat="41.08155" lon="20.60462">
        <ele>1046.118368</ele>
        <time>2022-05-01T09:04:12.559Z</time>
      </trkpt>
      <trkpt lat="41.08145" lon="20.60461">
        <ele>1046.971437</ele>
        <time>2022-05-01T09:04:18.540Z</time>
      </trkpt>
      <trkpt lat="41.08136" lon="20.60461">
        <ele>1047.771996</ele>
        <time>2022-05-01T09:04:24.548Z</time>
      </trkpt>
      <trkpt lat="41.08125" lon="20.60461">
        <ele>1048.658821</ele>
        <time>2022-05-01T09:04:30.539Z</time>
      </trkpt>
      <trkpt lat="41.08115" lon="20.60463">
        <ele>1048.976752</ele>
        <time>2022-05-01T09:04:36.539Z</time>
      </trkpt>
      <trkpt lat="41.08105" lon="20.60466">
        <ele>1049.029161</ele>
        <time>2022-05-01T09:04:41.539Z</time>
      </trkpt>
      <trkpt lat="41.08097" lon="20.6047">
        <ele>1049.077662</ele>
        <time>2022-05-01T09:04:46.535Z</time>
      </trkpt>
      <trkpt lat="41.08088" lon="20.60476">
        <ele>1049.131082</ele>
        <time>2022-05-01T09:04:51.541Z</time>
      </trkpt>
      <trkpt lat="41.08078" lon="20.60482">
        <ele>1049.188312</ele>
        <time>2022-05-01T09:04:56.584Z</time>
      </trkpt>
      <trkpt lat="41.08069" lon="20.60488">
        <ele>1049.235941</ele>
        <time>2022-05-01T09:05:00.549Z</time>
      </trkpt>
      <trkpt lat="41.08062" lon="20.60495">
        <ele>1049.28468</ele>
        <time>2022-05-01T09:05:04.582Z</time>
      </trkpt>
      <trkpt lat="41.08054" lon="20.60505">
        <ele>1049.341969</ele>
        <time>2022-05-01T09:05:08.539Z</time>
      </trkpt>
      <trkpt lat="41.08045" lon="20.60515">
        <ele>1049.401882</ele>
        <time>2022-05-01T09:05:12.610Z</time>
      </trkpt>
      <trkpt lat="41.08039" lon="20.60523">
        <ele>1049.448927</ele>
        <time>2022-05-01T09:05:15.552Z</time>
      </trkpt>
      <trkpt lat="41.08032" lon="20.60532">
        <ele>1049.49841</ele>
        <time>2022-05-01T09:05:18.541Z</time>
      </trkpt>
      <trkpt lat="41.08026" lon="20.60541">
        <ele>1049.547505</ele>
        <time>2022-05-01T09:05:21.517Z</time>
      </trkpt>
      <trkpt lat="41.08019" lon="20.60551">
        <ele>1049.59916</ele>
        <time>2022-05-01T09:05:24.553Z</time>
      </trkpt>
      <trkpt lat="41.08012" lon="20.60561">
        <ele>1049.652683</ele>
        <time>2022-05-01T09:05:27.547Z</time>
      </trkpt>
      <trkpt lat="41.08005" lon="20.60572">
        <ele>1049.709472</ele>
        <time>2022-05-01T09:05:30.542Z</time>
      </trkpt>
      <trkpt lat="41.07998" lon="20.60582">
        <ele>1049.763756</ele>
        <time>2022-05-01T09:05:33.551Z</time>
      </trkpt>
      <trkpt lat="41.0799" lon="20.60593">
        <ele>1049.823576</ele>
        <time>2022-05-01T09:05:36.528Z</time>
      </trkpt>
      <trkpt lat="41.07981" lon="20.60604">
        <ele>1049.846338</ele>
        <time>2022-05-01T09:05:39.530Z</time>
      </trkpt>
      <trkpt lat="41.07972" lon="20.60614">
        <ele>1049.571101</ele>
        <time>2022-05-01T09:05:42.545Z</time>
      </trkpt>
      <trkpt lat="41.07962" lon="20.60625">
        <ele>1049.284892</ele>
        <time>2022-05-01T09:05:45.594Z</time>
      </trkpt>
      <trkpt lat="41.07952" lon="20.60634">
        <ele>1049.014639</ele>
        <time>2022-05-01T09:05:48.546Z</time>
      </trkpt>
      <trkpt lat="41.07942" lon="20.60641">
        <ele>1048.755117</ele>
        <time>2022-05-01T09:05:51.609Z</time>
      </trkpt>
      <trkpt lat="41.07932" lon="20.60647">
        <ele>1048.502232</ele>
        <time>2022-05-01T09:05:54.552Z</time>
      </trkpt>
      <trkpt lat="41.07922" lon="20.60652">
        <ele>1048.255776</ele>
        <time>2022-05-01T09:05:57.552Z</time>
      </trkpt>
      <trkpt lat="41.07912" lon="20.60657">
        <ele>1048.01699</ele>
        <time>2022-05-01T09:06:00.545Z</time>
      </trkpt>
      <trkpt lat="41.07902" lon="20.60659">
        <ele>1047.780914</ele>
        <time>2022-05-01T09:06:03.612Z</time>
      </trkpt>
      <trkpt lat="41.07891" lon="20.60662">
        <ele>1047.540052</ele>
        <time>2022-05-01T09:06:06.544Z</time>
      </trkpt>
      <trkpt lat="41.0788" lon="20.60665">
        <ele>1047.281087</ele>
        <time>2022-05-01T09:06:09.544Z</time>
      </trkpt>
      <trkpt lat="41.07869" lon="20.60668">
        <ele>1047.017748</ele>
        <time>2022-05-01T09:06:12.548Z</time>
      </trkpt>
      <trkpt lat="41.07858" lon="20.60669">
        <ele>1046.767125</ele>
        <time>2022-05-01T09:06:15.554Z</time>
      </trkpt>
      <trkpt lat="41.07846" lon="20.60671">
        <ele>1046.499054</ele>
        <time>2022-05-01T09:06:18.553Z</time>
      </trkpt>
      <trkpt lat="41.07835" lon="20.60674">
        <ele>1046.248905</ele>
        <time>2022-05-01T09:06:21.527Z</time>
      </trkpt>
      <trkpt lat="41.07823" lon="20.60676">
        <ele>1045.981538</ele>
        <time>2022-05-01T09:06:24.537Z</time>
      </trkpt>
      <trkpt lat="41.07812" lon="20.60678">
        <ele>1045.774453</ele>
        <time>2022-05-01T09:06:27.538Z</time>
      </trkpt>
      <trkpt lat="41.078" lon="20.60681">
        <ele>1045.686866</ele>
        <time>2022-05-01T09:06:30.577Z</time>
      </trkpt>
      <trkpt lat="41.07788" lon="20.60683">
        <ele>1045.594366</ele>
        <time>2022-05-01T09:06:33.564Z</time>
      </trkpt>
      <trkpt lat="41.07776" lon="20.60685">
        <ele>1045.500529</ele>
        <time>2022-05-01T09:06:36.544Z</time>
      </trkpt>
      <trkpt lat="41.07763" lon="20.60687">
        <ele>1045.403446</ele>
        <time>2022-05-01T09:06:39.547Z</time>
      </trkpt>
      <trkpt lat="41.0775" lon="20.6069">
        <ele>1045.307916</ele>
        <time>2022-05-01T09:06:42.554Z</time>
      </trkpt>
      <trkpt lat="41.07737" lon="20.60692">
        <ele>1045.213404</ele>
        <time>2022-05-01T09:06:45.543Z</time>
      </trkpt>
      <trkpt lat="41.07724" lon="20.60694">
        <ele>1045.114181</ele>
        <time>2022-05-01T09:06:48.550Z</time>
      </trkpt>
      <trkpt lat="41.07715" lon="20.60695">
        <ele>1045.047385</ele>
        <time>2022-05-01T09:06:50.557Z</time>
      </trkpt>
      <trkpt lat="41.07703" lon="20.60698">
        <ele>1044.952669</ele>
        <time>2022-05-01T09:06:53.555Z</time>
      </trkpt>
      <trkpt lat="41.0769" lon="20.607">
        <ele>1044.853585</ele>
        <time>2022-05-01T09:06:56.553Z</time>
      </trkpt>
      <trkpt lat="41.07676" lon="20.60701">
        <ele>1044.7521</ele>
        <time>2022-05-01T09:06:59.549Z</time>
      </trkpt>
      <trkpt lat="41.07666" lon="20.607">
        <ele>1044.677517</ele>
        <time>2022-05-01T09:07:01.555Z</time>
      </trkpt>
      <trkpt lat="41.07656" lon="20.60698">
        <ele>1044.599114</ele>
        <time>2022-05-01T09:07:03.556Z</time>
      </trkpt>
      <trkpt lat="41.07645" lon="20.60694">
        <ele>1044.516703</ele>
        <time>2022-05-01T09:07:05.556Z</time>
      </trkpt>
      <trkpt lat="41.07636" lon="20.60687">
        <ele>1044.357533</ele>
        <time>2022-05-01T09:07:07.569Z</time>
      </trkpt>
      <trkpt lat="41.07628" lon="20.60677">
        <ele>1043.996901</ele>
        <time>2022-05-01T09:07:09.615Z</time>
      </trkpt>
      <trkpt lat="41.07622" lon="20.60663">
        <ele>1043.596779</ele>
        <time>2022-05-01T09:07:11.551Z</time>
      </trkpt>
      <trkpt lat="41.07616" lon="20.60649">
        <ele>1043.180403</ele>
        <time>2022-05-01T09:07:13.626Z</time>
      </trkpt>
      <trkpt lat="41.07611" lon="20.60633">
        <ele>1042.745077</ele>
        <time>2022-05-01T09:07:15.562Z</time>
      </trkpt>
      <trkpt lat="41.07607" lon="20.60616">
        <ele>1042.29215</ele>
        <time>2022-05-01T09:07:17.546Z</time>
      </trkpt>
      <trkpt lat="41.07602" lon="20.60598">
        <ele>1041.817927</ele>
        <time>2022-05-01T09:07:19.537Z</time>
      </trkpt>
      <trkpt lat="41.07597" lon="20.60579">
        <ele>1041.328114</ele>
        <time>2022-05-01T09:07:21.545Z</time>
      </trkpt>
      <trkpt lat="41.0759" lon="20.60561">
        <ele>1040.806875</ele>
        <time>2022-05-01T09:07:23.537Z</time>
      </trkpt>
      <trkpt lat="41.0758" lon="20.60543">
        <ele>1040.250709</ele>
        <time>2022-05-01T09:07:25.596Z</time>
      </trkpt>
      <trkpt lat="41.07567" lon="20.60528">
        <ele>1039.656207</ele>
        <time>2022-05-01T09:07:27.575Z</time>
      </trkpt>
      <trkpt lat="41.07559" lon="20.60522">
        <ele>1039.352119</ele>
        <time>2022-05-01T09:07:28.555Z</time>
      </trkpt>
      <trkpt lat="41.07541" lon="20.60516">
        <ele>1038.753067</ele>
        <time>2022-05-01T09:07:30.578Z</time>
      </trkpt>
      <trkpt lat="41.07523" lon="20.60515">
        <ele>1038.096179</ele>
        <time>2022-05-01T09:07:32.533Z</time>
      </trkpt>
      <trkpt lat="41.07514" lon="20.60517">
        <ele>1037.733808</ele>
        <time>2022-05-01T09:07:33.574Z</time>
      </trkpt>
      <trkpt lat="41.07497" lon="20.60524">
        <ele>1037.011931</ele>
        <time>2022-05-01T09:07:35.535Z</time>
      </trkpt>
      <trkpt lat="41.07481" lon="20.60532">
        <ele>1036.33382</ele>
        <time>2022-05-01T09:07:37.538Z</time>
      </trkpt>
      <trkpt lat="41.07466" lon="20.60538">
        <ele>1035.690972</ele>
        <time>2022-05-01T09:07:39.536Z</time>
      </trkpt>
      <trkpt lat="41.07448" lon="20.6054">
        <ele>1035.000729</ele>
        <time>2022-05-01T09:07:41.590Z</time>
      </trkpt>
      <trkpt lat="41.07439" lon="20.60538">
        <ele>1034.626543</ele>
        <time>2022-05-01T09:07:42.545Z</time>
      </trkpt>
      <trkpt lat="41.0743" lon="20.60535">
        <ele>1034.247876</ele>
        <time>2022-05-01T09:07:43.530Z</time>
      </trkpt>
      <trkpt lat="41.07421" lon="20.60529">
        <ele>1033.871587</ele>
        <time>2022-05-01T09:07:44.548Z</time>
      </trkpt>
      <trkpt lat="41.07413" lon="20.60522">
        <ele>1033.481723</ele>
        <time>2022-05-01T09:07:45.547Z</time>
      </trkpt>
      <trkpt lat="41.07406" lon="20.60514">
        <ele>1033.093956</ele>
        <time>2022-05-01T09:07:46.564Z</time>
      </trkpt>
      <trkpt lat="41.07399" lon="20.60505">
        <ele>1032.700886</ele>
        <time>2022-05-01T09:07:47.569Z</time>
      </trkpt>
      <trkpt lat="41.07392" lon="20.60496">
        <ele>1032.329697</ele>
        <time>2022-05-01T09:07:48.547Z</time>
      </trkpt>
      <trkpt lat="41.07378" lon="20.60486">
        <ele>1031.676033</ele>
        <time>2022-05-01T09:07:50.551Z</time>
      </trkpt>
      <trkpt lat="41.07361" lon="20.60481">
        <ele>1031.097999</ele>
        <time>2022-05-01T09:07:52.532Z</time>
      </trkpt>
      <trkpt lat="41.07343" lon="20.60482">
        <ele>1030.592575</ele>
        <time>2022-05-01T09:07:54.536Z</time>
      </trkpt>
      <trkpt lat="41.07334" lon="20.60485">
        <ele>1030.327453</ele>
        <time>2022-05-01T09:07:55.542Z</time>
      </trkpt>
      <trkpt lat="41.07317" lon="20.60495">
        <ele>1029.819758</ele>
        <time>2022-05-01T09:07:57.562Z</time>
      </trkpt>
      <trkpt lat="41.0731" lon="20.60503">
        <ele>1029.563515</ele>
        <time>2022-05-01T09:07:58.593Z</time>
      </trkpt>
      <trkpt lat="41.07303" lon="20.60511">
        <ele>1029.312563</ele>
        <time>2022-05-01T09:07:59.534Z</time>
      </trkpt>
      <trkpt lat="41.07297" lon="20.60519">
        <ele>1029.059263</ele>
        <time>2022-05-01T09:08:00.543Z</time>
      </trkpt>
      <trkpt lat="41.07285" lon="20.60537">
        <ele>1028.569911</ele>
        <time>2022-05-01T09:08:02.549Z</time>
      </trkpt>
      <trkpt lat="41.07278" lon="20.60545">
        <ele>1028.302429</ele>
        <time>2022-05-01T09:08:03.538Z</time>
      </trkpt>
      <trkpt lat="41.0727" lon="20.60553">
        <ele>1028.038716</ele>
        <time>2022-05-01T09:08:04.557Z</time>
      </trkpt>
      <trkpt lat="41.07261" lon="20.60558">
        <ele>1027.774401</ele>
        <time>2022-05-01T09:08:05.547Z</time>
      </trkpt>
      <trkpt lat="41.07252" lon="20.60562">
        <ele>1027.51032</ele>
        <time>2022-05-01T09:08:06.551Z</time>
      </trkpt>
      <trkpt lat="41.07243" lon="20.60565">
        <ele>1027.25324</ele>
        <time>2022-05-01T09:08:07.553Z</time>
      </trkpt>
      <trkpt lat="41.07234" lon="20.60567">
        <ele>1026.997261</ele>
        <time>2022-05-01T09:08:08.544Z</time>
      </trkpt>
      <trkpt lat="41.07225" lon="20.60568">
        <ele>1026.743859</ele>
        <time>2022-05-01T09:08:09.556Z</time>
      </trkpt>
      <trkpt lat="41.07207" lon="20.60568">
        <ele>1026.197356</ele>
        <time>2022-05-01T09:08:11.548Z</time>
      </trkpt>
      <trkpt lat="41.07198" lon="20.60568">
        <ele>1025.762527</ele>
        <time>2022-05-01T09:08:12.538Z</time>
      </trkpt>
      <trkpt lat="41.07189" lon="20.60567">
        <ele>1025.326865</ele>
        <time>2022-05-01T09:08:13.560Z</time>
      </trkpt>
      <trkpt lat="41.0718" lon="20.60566">
        <ele>1024.882335</ele>
        <time>2022-05-01T09:08:14.552Z</time>
      </trkpt>
      <trkpt lat="41.0717" lon="20.60566">
        <ele>1024.433195</ele>
        <time>2022-05-01T09:08:15.536Z</time>
      </trkpt>
      <trkpt lat="41.07161" lon="20.60565">
        <ele>1023.978942</ele>
        <time>2022-05-01T09:08:16.543Z</time>
      </trkpt>
      <trkpt lat="41.07152" lon="20.60564">
        <ele>1023.538989</ele>
        <time>2022-05-01T09:08:17.549Z</time>
      </trkpt>
      <trkpt lat="41.07142" lon="20.60564">
        <ele>1023.089503</ele>
        <time>2022-05-01T09:08:18.533Z</time>
      </trkpt>
      <trkpt lat="41.07133" lon="20.60563">
        <ele>1022.635592</ele>
        <time>2022-05-01T09:08:19.538Z</time>
      </trkpt>
      <trkpt lat="41.07123" lon="20.60562">
        <ele>1022.181525</ele>
        <time>2022-05-01T09:08:20.549Z</time>
      </trkpt>
      <trkpt lat="41.07114" lon="20.60562">
        <ele>1021.727457</ele>
        <time>2022-05-01T09:08:21.547Z</time>
      </trkpt>
      <trkpt lat="41.07104" lon="20.60561">
        <ele>1021.278158</ele>
        <time>2022-05-01T09:08:22.534Z</time>
      </trkpt>
      <trkpt lat="41.07095" lon="20.60561">
        <ele>1020.843165</ele>
        <time>2022-05-01T09:08:23.541Z</time>
      </trkpt>
      <trkpt lat="41.07079" lon="20.6056">
        <ele>1020.054592</ele>
        <time>2022-05-01T09:08:25.534Z</time>
      </trkpt>
      <trkpt lat="41.07064" lon="20.60559">
        <ele>1019.361391</ele>
        <time>2022-05-01T09:08:27.555Z</time>
      </trkpt>
      <trkpt lat="41.0705" lon="20.60558">
        <ele>1018.683209</ele>
        <time>2022-05-01T09:08:29.587Z</time>
      </trkpt>
      <trkpt lat="41.07035" lon="20.60558">
        <ele>1017.976611</ele>
        <time>2022-05-01T09:08:31.542Z</time>
      </trkpt>
      <trkpt lat="41.0702" lon="20.60558">
        <ele>1016.875848</ele>
        <time>2022-05-01T09:08:33.553Z</time>
      </trkpt>
      <trkpt lat="41.07003" lon="20.60557">
        <ele>1015.505807</ele>
        <time>2022-05-01T09:08:35.534Z</time>
      </trkpt>
      <trkpt lat="41.06986" lon="20.60556">
        <ele>1014.059381</ele>
        <time>2022-05-01T09:08:37.579Z</time>
      </trkpt>
      <trkpt lat="41.06968" lon="20.60555">
        <ele>1012.562039</ele>
        <time>2022-05-01T09:08:39.536Z</time>
      </trkpt>
      <trkpt lat="41.06959" lon="20.60555">
        <ele>1011.805352</ele>
        <time>2022-05-01T09:08:40.569Z</time>
      </trkpt>
      <trkpt lat="41.0695" lon="20.60554">
        <ele>1011.022239</ele>
        <time>2022-05-01T09:08:41.533Z</time>
      </trkpt>
      <trkpt lat="41.06941" lon="20.60554">
        <ele>1010.240127</ele>
        <time>2022-05-01T09:08:42.538Z</time>
      </trkpt>
      <trkpt lat="41.06932" lon="20.60553">
        <ele>1009.46641</ele>
        <time>2022-05-01T09:08:43.536Z</time>
      </trkpt>
      <trkpt lat="41.06922" lon="20.60553">
        <ele>1008.684528</ele>
        <time>2022-05-01T09:08:44.552Z</time>
      </trkpt>
      <trkpt lat="41.06905" lon="20.60552">
        <ele>1007.19655</ele>
        <time>2022-05-01T09:08:46.551Z</time>
      </trkpt>
      <trkpt lat="41.06887" lon="20.60552">
        <ele>1005.742625</ele>
        <time>2022-05-01T09:08:48.568Z</time>
      </trkpt>
      <trkpt lat="41.06869" lon="20.60552">
        <ele>1004.238503</ele>
        <time>2022-05-01T09:08:50.537Z</time>
      </trkpt>
      <trkpt lat="41.0686" lon="20.60552">
        <ele>1003.465409</ele>
        <time>2022-05-01T09:08:51.543Z</time>
      </trkpt>
      <trkpt lat="41.06851" lon="20.60552">
        <ele>1002.683706</ele>
        <time>2022-05-01T09:08:52.545Z</time>
      </trkpt>
      <trkpt lat="41.06842" lon="20.60552">
        <ele>1001.899731</ele>
        <time>2022-05-01T09:08:53.538Z</time>
      </trkpt>
      <trkpt lat="41.06832" lon="20.60553">
        <ele>1001.1066</ele>
        <time>2022-05-01T09:08:54.525Z</time>
      </trkpt>
      <trkpt lat="41.06823" lon="20.60554">
        <ele>1000.328097</ele>
        <time>2022-05-01T09:08:55.583Z</time>
      </trkpt>
      <trkpt lat="41.06805" lon="20.60557">
        <ele>998.83093</ele>
        <time>2022-05-01T09:08:57.543Z</time>
      </trkpt>
      <trkpt lat="41.06787" lon="20.60562">
        <ele>997.282303</ele>
        <time>2022-05-01T09:08:59.573Z</time>
      </trkpt>
      <trkpt lat="41.06778" lon="20.60565">
        <ele>996.442875</ele>
        <time>2022-05-01T09:09:00.549Z</time>
      </trkpt>
      <trkpt lat="41.06769" lon="20.60568">
        <ele>995.647796</ele>
        <time>2022-05-01T09:09:01.517Z</time>
      </trkpt>
      <trkpt lat="41.0676" lon="20.60572">
        <ele>994.871674</ele>
        <time>2022-05-01T09:09:02.538Z</time>
      </trkpt>
      <trkpt lat="41.06751" lon="20.60576">
        <ele>994.107215</ele>
        <time>2022-05-01T09:09:03.548Z</time>
      </trkpt>
      <trkpt lat="41.06735" lon="20.60585">
        <ele>992.652752</ele>
        <time>2022-05-01T09:09:05.532Z</time>
      </trkpt>
      <trkpt lat="41.06722" lon="20.60594">
        <ele>991.379365</ele>
        <time>2022-05-01T09:09:07.578Z</time>
      </trkpt>
      <trkpt lat="41.06711" lon="20.60602">
        <ele>990.34899</ele>
        <time>2022-05-01T09:09:09.545Z</time>
      </trkpt>
      <trkpt lat="41.06703" lon="20.60608">
        <ele>989.550871</ele>
        <time>2022-05-01T09:09:11.538Z</time>
      </trkpt>
      <trkpt lat="41.06694" lon="20.60614">
        <ele>988.743773</ele>
        <time>2022-05-01T09:09:14.535Z</time>
      </trkpt>
      <trkpt lat="41.06663" lon="20.60647">
        <ele>985.432853</ele>
        <time>2022-05-01T09:13:58.570Z</time>
      </trkpt>
      <trkpt lat="41.06654" lon="20.60658">
        <ele>984.452463</ele>
        <time>2022-05-01T09:14:00.590Z</time>
      </trkpt>
      <trkpt lat="41.06646" lon="20.60671">
        <ele>983.463464</ele>
        <time>2022-05-01T09:14:02.535Z</time>
      </trkpt>
      <trkpt lat="41.06639" lon="20.60684">
        <ele>982.474832</ele>
        <time>2022-05-01T09:14:04.536Z</time>
      </trkpt>
      <trkpt lat="41.06631" lon="20.60698">
        <ele>981.413511</ele>
        <time>2022-05-01T09:14:06.549Z</time>
      </trkpt>
      <trkpt lat="41.06623" lon="20.60714">
        <ele>980.307503</ele>
        <time>2022-05-01T09:14:08.538Z</time>
      </trkpt>
      <trkpt lat="41.06615" lon="20.6073">
        <ele>979.128433</ele>
        <time>2022-05-01T09:14:10.540Z</time>
      </trkpt>
      <trkpt lat="41.06607" lon="20.60745">
        <ele>978.012377</ele>
        <time>2022-05-01T09:14:12.543Z</time>
      </trkpt>
      <trkpt lat="41.066" lon="20.6076">
        <ele>976.915221</ele>
        <time>2022-05-01T09:14:14.561Z</time>
      </trkpt>
      <trkpt lat="41.06593" lon="20.60775">
        <ele>975.894896</ele>
        <time>2022-05-01T09:14:16.570Z</time>
      </trkpt>
      <trkpt lat="41.06586" lon="20.6079">
        <ele>974.805593</ele>
        <time>2022-05-01T09:14:18.574Z</time>
      </trkpt>
      <trkpt lat="41.06579" lon="20.60806">
        <ele>973.685383</ele>
        <time>2022-05-01T09:14:20.535Z</time>
      </trkpt>
      <trkpt lat="41.0657" lon="20.60823">
        <ele>972.628696</ele>
        <time>2022-05-01T09:14:22.534Z</time>
      </trkpt>
      <trkpt lat="41.06561" lon="20.6084">
        <ele>971.729148</ele>
        <time>2022-05-01T09:14:24.556Z</time>
      </trkpt>
      <trkpt lat="41.06551" lon="20.60856">
        <ele>970.879666</ele>
        <time>2022-05-01T09:14:26.531Z</time>
      </trkpt>
      <trkpt lat="41.06541" lon="20.60867">
        <ele>970.158216</ele>
        <time>2022-05-01T09:14:28.537Z</time>
      </trkpt>
      <trkpt lat="41.06528" lon="20.6087">
        <ele>969.414408</ele>
        <time>2022-05-01T09:14:30.554Z</time>
      </trkpt>
      <trkpt lat="41.06516" lon="20.60866">
        <ele>968.724128</ele>
        <time>2022-05-01T09:14:32.549Z</time>
      </trkpt>
      <trkpt lat="41.06509" lon="20.60855">
        <ele>968.11631</ele>
        <time>2022-05-01T09:14:34.616Z</time>
      </trkpt>
      <trkpt lat="41.06506" lon="20.60839">
        <ele>967.427519</ele>
        <time>2022-05-01T09:14:36.545Z</time>
      </trkpt>
      <trkpt lat="41.06508" lon="20.60824">
        <ele>966.787373</ele>
        <time>2022-05-01T09:14:38.552Z</time>
      </trkpt>
      <trkpt lat="41.06515" lon="20.60811">
        <ele>966.116255</ele>
        <time>2022-05-01T09:14:40.536Z</time>
      </trkpt>
      <trkpt lat="41.06524" lon="20.60801">
        <ele>965.459294</ele>
        <time>2022-05-01T09:14:42.564Z</time>
      </trkpt>
      <trkpt lat="41.06531" lon="20.60791">
        <ele>964.871324</ele>
        <time>2022-05-01T09:14:44.551Z</time>
      </trkpt>
      <trkpt lat="41.06538" lon="20.6078">
        <ele>964.271107</ele>
        <time>2022-05-01T09:14:46.527Z</time>
      </trkpt>
      <trkpt lat="41.06546" lon="20.6077">
        <ele>963.67839</ele>
        <time>2022-05-01T09:14:48.543Z</time>
      </trkpt>
      <trkpt lat="41.06551" lon="20.60758">
        <ele>963.076351</ele>
        <time>2022-05-01T09:14:50.553Z</time>
      </trkpt>
      <trkpt lat="41.06557" lon="20.60744">
        <ele>962.231516</ele>
        <time>2022-05-01T09:14:52.546Z</time>
      </trkpt>
      <trkpt lat="41.0656" lon="20.60728">
        <ele>961.319176</ele>
        <time>2022-05-01T09:14:54.559Z</time>
      </trkpt>
      <trkpt lat="41.06563" lon="20.6071">
        <ele>960.324264</ele>
        <time>2022-05-01T09:14:56.553Z</time>
      </trkpt>
      <trkpt lat="41.06565" lon="20.60692">
        <ele>959.317083</ele>
        <time>2022-05-01T09:14:58.555Z</time>
      </trkpt>
      <trkpt lat="41.06566" lon="20.60675">
        <ele>958.380061</ele>
        <time>2022-05-01T09:15:00.548Z</time>
      </trkpt>
      <trkpt lat="41.06567" lon="20.60657">
        <ele>957.384593</ele>
        <time>2022-05-01T09:15:02.547Z</time>
      </trkpt>
      <trkpt lat="41.06568" lon="20.60639">
        <ele>956.393817</ele>
        <time>2022-05-01T09:15:04.554Z</time>
      </trkpt>
      <trkpt lat="41.06569" lon="20.60621">
        <ele>955.406405</ele>
        <time>2022-05-01T09:15:06.526Z</time>
      </trkpt>
      <trkpt lat="41.06571" lon="20.60601">
        <ele>954.308384</ele>
        <time>2022-05-01T09:15:08.558Z</time>
      </trkpt>
      <trkpt lat="41.06575" lon="20.6058">
        <ele>953.095493</ele>
        <time>2022-05-01T09:15:10.571Z</time>
      </trkpt>
      <trkpt lat="41.06581" lon="20.60559">
        <ele>951.893508</ele>
        <time>2022-05-01T09:15:12.530Z</time>
      </trkpt>
      <trkpt lat="41.06587" lon="20.60539">
        <ele>950.70184</ele>
        <time>2022-05-01T09:15:14.544Z</time>
      </trkpt>
      <trkpt lat="41.06592" lon="20.60519">
        <ele>949.503816</ele>
        <time>2022-05-01T09:15:16.550Z</time>
      </trkpt>
      <trkpt lat="41.06598" lon="20.605">
        <ele>948.298316</ele>
        <time>2022-05-01T09:15:18.538Z</time>
      </trkpt>
      <trkpt lat="41.06603" lon="20.60481">
        <ele>947.095559</ele>
        <time>2022-05-01T09:15:20.544Z</time>
      </trkpt>
      <trkpt lat="41.06609" lon="20.6046">
        <ele>945.806914</ele>
        <time>2022-05-01T09:15:22.580Z</time>
      </trkpt>
      <trkpt lat="41.06611" lon="20.60437">
        <ele>944.478987</ele>
        <time>2022-05-01T09:15:24.548Z</time>
      </trkpt>
      <trkpt lat="41.06608" lon="20.60414">
        <ele>943.07332</ele>
        <time>2022-05-01T09:15:26.549Z</time>
      </trkpt>
      <trkpt lat="41.06605" lon="20.60402">
        <ele>942.339297</ele>
        <time>2022-05-01T09:15:27.543Z</time>
      </trkpt>
      <trkpt lat="41.06602" lon="20.6039">
        <ele>941.588471</ele>
        <time>2022-05-01T09:15:28.547Z</time>
      </trkpt>
      <trkpt lat="41.06597" lon="20.60379">
        <ele>940.828011</ele>
        <time>2022-05-01T09:15:29.536Z</time>
      </trkpt>
      <trkpt lat="41.06593" lon="20.60368">
        <ele>940.093474</ele>
        <time>2022-05-01T09:15:30.546Z</time>
      </trkpt>
      <trkpt lat="41.06589" lon="20.60357">
        <ele>939.376682</ele>
        <time>2022-05-01T09:15:31.521Z</time>
      </trkpt>
      <trkpt lat="41.06585" lon="20.60334">
        <ele>938.014162</ele>
        <time>2022-05-01T09:15:33.576Z</time>
      </trkpt>
      <trkpt lat="41.06587" lon="20.60311">
        <ele>936.652402</ele>
        <time>2022-05-01T09:15:35.552Z</time>
      </trkpt>
      <trkpt lat="41.0659" lon="20.603">
        <ele>935.935386</ele>
        <time>2022-05-01T09:15:36.529Z</time>
      </trkpt>
      <trkpt lat="41.06596" lon="20.60289">
        <ele>935.072461</ele>
        <time>2022-05-01T09:15:37.552Z</time>
      </trkpt>
      <trkpt lat="41.06602" lon="20.60279">
        <ele>934.16692</ele>
        <time>2022-05-01T09:15:38.538Z</time>
      </trkpt>
      <trkpt lat="41.0661" lon="20.6027">
        <ele>933.212543</ele>
        <time>2022-05-01T09:15:39.531Z</time>
      </trkpt>
      <trkpt lat="41.0662" lon="20.60261">
        <ele>932.206509</ele>
        <time>2022-05-01T09:15:40.554Z</time>
      </trkpt>
      <trkpt lat="41.06629" lon="20.60253">
        <ele>931.217898</ele>
        <time>2022-05-01T09:15:41.539Z</time>
      </trkpt>
      <trkpt lat="41.06636" lon="20.60243">
        <ele>930.303416</ele>
        <time>2022-05-01T09:15:42.549Z</time>
      </trkpt>
      <trkpt lat="41.06642" lon="20.60233">
        <ele>929.452841</ele>
        <time>2022-05-01T09:15:43.543Z</time>
      </trkpt>
      <trkpt lat="41.06646" lon="20.60222">
        <ele>928.610711</ele>
        <time>2022-05-01T09:15:44.565Z</time>
      </trkpt>
      <trkpt lat="41.06651" lon="20.6021">
        <ele>927.714987</ele>
        <time>2022-05-01T09:15:45.577Z</time>
      </trkpt>
      <trkpt lat="41.06655" lon="20.60197">
        <ele>926.777997</ele>
        <time>2022-05-01T09:15:46.546Z</time>
      </trkpt>
      <trkpt lat="41.06658" lon="20.60185">
        <ele>925.853723</ele>
        <time>2022-05-01T09:15:47.549Z</time>
      </trkpt>
      <trkpt lat="41.06662" lon="20.60172">
        <ele>924.954668</ele>
        <time>2022-05-01T09:15:48.537Z</time>
      </trkpt>
      <trkpt lat="41.06665" lon="20.6016">
        <ele>924.068136</ele>
        <time>2022-05-01T09:15:49.529Z</time>
      </trkpt>
      <trkpt lat="41.06669" lon="20.60148">
        <ele>923.171995</ele>
        <time>2022-05-01T09:15:50.534Z</time>
      </trkpt>
      <trkpt lat="41.06673" lon="20.60135">
        <ele>922.278636</ele>
        <time>2022-05-01T09:15:51.526Z</time>
      </trkpt>
      <trkpt lat="41.06677" lon="20.60123">
        <ele>921.407945</ele>
        <time>2022-05-01T09:15:52.574Z</time>
      </trkpt>
      <trkpt lat="41.0668" lon="20.60112">
        <ele>920.559353</ele>
        <time>2022-05-01T09:15:53.539Z</time>
      </trkpt>
      <trkpt lat="41.06684" lon="20.601">
        <ele>919.728106</ele>
        <time>2022-05-01T09:15:54.550Z</time>
      </trkpt>
      <trkpt lat="41.06687" lon="20.60088">
        <ele>919.01111</ele>
        <time>2022-05-01T09:15:55.579Z</time>
      </trkpt>
      <trkpt lat="41.06692" lon="20.60076">
        <ele>918.267358</ele>
        <time>2022-05-01T09:15:56.550Z</time>
      </trkpt>
      <trkpt lat="41.06696" lon="20.60063">
        <ele>917.512533</ele>
        <time>2022-05-01T09:15:57.535Z</time>
      </trkpt>
      <trkpt lat="41.067" lon="20.60051">
        <ele>916.77457</ele>
        <time>2022-05-01T09:15:58.536Z</time>
      </trkpt>
      <trkpt lat="41.06705" lon="20.60039">
        <ele>916.038317</ele>
        <time>2022-05-01T09:15:59.551Z</time>
      </trkpt>
      <trkpt lat="41.06709" lon="20.60028">
        <ele>915.298747</ele>
        <time>2022-05-01T09:16:00.565Z</time>
      </trkpt>
      <trkpt lat="41.06714" lon="20.60016">
        <ele>914.54749</ele>
        <time>2022-05-01T09:16:01.543Z</time>
      </trkpt>
      <trkpt lat="41.06719" lon="20.60004">
        <ele>913.809439</ele>
        <time>2022-05-01T09:16:02.551Z</time>
      </trkpt>
      <trkpt lat="41.06724" lon="20.59993">
        <ele>913.10056</ele>
        <time>2022-05-01T09:16:03.543Z</time>
      </trkpt>
      <trkpt lat="41.06728" lon="20.59982">
        <ele>912.4278</ele>
        <time>2022-05-01T09:16:04.545Z</time>
      </trkpt>
      <trkpt lat="41.06737" lon="20.59962">
        <ele>911.132798</ele>
        <time>2022-05-01T09:16:06.549Z</time>
      </trkpt>
      <trkpt lat="41.06745" lon="20.59942">
        <ele>909.914768</ele>
        <time>2022-05-01T09:16:08.536Z</time>
      </trkpt>
      <trkpt lat="41.06754" lon="20.59923">
        <ele>908.676858</ele>
        <time>2022-05-01T09:16:10.548Z</time>
      </trkpt>
      <trkpt lat="41.06765" lon="20.59905">
        <ele>907.386543</ele>
        <time>2022-05-01T09:16:12.527Z</time>
      </trkpt>
      <trkpt lat="41.06779" lon="20.59892">
        <ele>906.045354</ele>
        <time>2022-05-01T09:16:14.572Z</time>
      </trkpt>
      <trkpt lat="41.06788" lon="20.59887">
        <ele>905.26755</ele>
        <time>2022-05-01T09:16:15.533Z</time>
      </trkpt>
      <trkpt lat="41.06798" lon="20.59882">
        <ele>904.445498</ele>
        <time>2022-05-01T09:16:16.558Z</time>
      </trkpt>
      <trkpt lat="41.06809" lon="20.59879">
        <ele>903.612598</ele>
        <time>2022-05-01T09:16:17.562Z</time>
      </trkpt>
      <trkpt lat="41.06819" lon="20.59876">
        <ele>902.80912</ele>
        <time>2022-05-01T09:16:18.534Z</time>
      </trkpt>
      <trkpt lat="41.06828" lon="20.59874">
        <ele>902.032235</ele>
        <time>2022-05-01T09:16:19.566Z</time>
      </trkpt>
      <trkpt lat="41.06838" lon="20.59871">
        <ele>901.287717</ele>
        <time>2022-05-01T09:16:20.544Z</time>
      </trkpt>
      <trkpt lat="41.06846" lon="20.59868">
        <ele>900.563234</ele>
        <time>2022-05-01T09:16:21.566Z</time>
      </trkpt>
      <trkpt lat="41.06864" lon="20.59862">
        <ele>899.162974</ele>
        <time>2022-05-01T09:16:23.545Z</time>
      </trkpt>
      <trkpt lat="41.06881" lon="20.59858">
        <ele>897.79107</ele>
        <time>2022-05-01T09:16:25.522Z</time>
      </trkpt>
      <trkpt lat="41.06897" lon="20.59859">
        <ele>896.51547</ele>
        <time>2022-05-01T09:16:27.543Z</time>
      </trkpt>
      <trkpt lat="41.06911" lon="20.59862">
        <ele>895.405718</ele>
        <time>2022-05-01T09:16:29.560Z</time>
      </trkpt>
      <trkpt lat="41.06925" lon="20.59861">
        <ele>894.318795</ele>
        <time>2022-05-01T09:16:31.555Z</time>
      </trkpt>
      <trkpt lat="41.06936" lon="20.59852">
        <ele>893.275284</ele>
        <time>2022-05-01T09:16:33.519Z</time>
      </trkpt>
      <trkpt lat="41.06942" lon="20.59835">
        <ele>892.169206</ele>
        <time>2022-05-01T09:16:35.552Z</time>
      </trkpt>
      <trkpt lat="41.0694" lon="20.59815">
        <ele>890.957508</ele>
        <time>2022-05-01T09:16:37.550Z</time>
      </trkpt>
      <trkpt lat="41.0693" lon="20.598">
        <ele>889.740657</ele>
        <time>2022-05-01T09:16:39.529Z</time>
      </trkpt>
      <trkpt lat="41.06918" lon="20.59795">
        <ele>888.662824</ele>
        <time>2022-05-01T09:16:41.545Z</time>
      </trkpt>
      <trkpt lat="41.06905" lon="20.59796">
        <ele>887.642678</ele>
        <time>2022-05-01T09:16:43.527Z</time>
      </trkpt>
      <trkpt lat="41.06894" lon="20.59798">
        <ele>886.746982</ele>
        <time>2022-05-01T09:16:45.527Z</time>
      </trkpt>
      <trkpt lat="41.06881" lon="20.59801">
        <ele>885.658864</ele>
        <time>2022-05-01T09:16:47.564Z</time>
      </trkpt>
      <trkpt lat="41.06865" lon="20.59803">
        <ele>884.333311</ele>
        <time>2022-05-01T09:16:49.537Z</time>
      </trkpt>
      <trkpt lat="41.06856" lon="20.59805">
        <ele>883.602237</ele>
        <time>2022-05-01T09:16:50.566Z</time>
      </trkpt>
      <trkpt lat="41.06847" lon="20.59806">
        <ele>882.85581</ele>
        <time>2022-05-01T09:16:51.525Z</time>
      </trkpt>
      <trkpt lat="41.06838" lon="20.59808">
        <ele>882.101305</ele>
        <time>2022-05-01T09:16:52.559Z</time>
      </trkpt>
      <trkpt lat="41.06828" lon="20.59809">
        <ele>881.331348</ele>
        <time>2022-05-01T09:16:53.561Z</time>
      </trkpt>
      <trkpt lat="41.06819" lon="20.5981">
        <ele>880.560682</ele>
        <time>2022-05-01T09:16:54.527Z</time>
      </trkpt>
      <trkpt lat="41.0681" lon="20.59812">
        <ele>879.814987</ele>
        <time>2022-05-01T09:16:55.552Z</time>
      </trkpt>
      <trkpt lat="41.06793" lon="20.59815">
        <ele>878.457625</ele>
        <time>2022-05-01T09:16:57.533Z</time>
      </trkpt>
      <trkpt lat="41.06779" lon="20.59819">
        <ele>877.448857</ele>
        <time>2022-05-01T09:16:59.537Z</time>
      </trkpt>
      <trkpt lat="41.06765" lon="20.59825">
        <ele>876.684064</ele>
        <time>2022-05-01T09:17:01.552Z</time>
      </trkpt>
      <trkpt lat="41.06751" lon="20.59834">
        <ele>875.890621</ele>
        <time>2022-05-01T09:17:03.550Z</time>
      </trkpt>
      <trkpt lat="41.06738" lon="20.59845">
        <ele>875.071984</ele>
        <time>2022-05-01T09:17:05.556Z</time>
      </trkpt>
      <trkpt lat="41.06725" lon="20.59858">
        <ele>874.215118</ele>
        <time>2022-05-01T09:17:07.558Z</time>
      </trkpt>
      <trkpt lat="41.06712" lon="20.5987">
        <ele>873.385347</ele>
        <time>2022-05-01T09:17:09.522Z</time>
      </trkpt>
      <trkpt lat="41.067" lon="20.59882">
        <ele>872.583585</ele>
        <time>2022-05-01T09:17:11.549Z</time>
      </trkpt>
      <trkpt lat="41.06689" lon="20.59893">
        <ele>871.82449</ele>
        <time>2022-05-01T09:17:13.551Z</time>
      </trkpt>
      <trkpt lat="41.06677" lon="20.59905">
        <ele>871.066545</ele>
        <time>2022-05-01T09:17:15.539Z</time>
      </trkpt>
      <trkpt lat="41.06665" lon="20.59914">
        <ele>870.34166</ele>
        <time>2022-05-01T09:17:17.529Z</time>
      </trkpt>
      <trkpt lat="41.06652" lon="20.5992">
        <ele>869.589301</ele>
        <time>2022-05-01T09:17:19.542Z</time>
      </trkpt>
      <trkpt lat="41.06637" lon="20.59923">
        <ele>868.817643</ele>
        <time>2022-05-01T09:17:21.529Z</time>
      </trkpt>
      <trkpt lat="41.06622" lon="20.59921">
        <ele>868.166233</ele>
        <time>2022-05-01T09:17:23.577Z</time>
      </trkpt>
      <trkpt lat="41.06608" lon="20.59914">
        <ele>867.731691</ele>
        <time>2022-05-01T09:17:25.534Z</time>
      </trkpt>
      <trkpt lat="41.06596" lon="20.59905">
        <ele>867.339765</ele>
        <time>2022-05-01T09:17:27.538Z</time>
      </trkpt>
      <trkpt lat="41.06588" lon="20.59895">
        <ele>867.003467</ele>
        <time>2022-05-01T09:17:29.566Z</time>
      </trkpt>
      <trkpt lat="41.06582" lon="20.59884">
        <ele>866.718803</ele>
        <time>2022-05-01T09:17:31.531Z</time>
      </trkpt>
      <trkpt lat="41.06574" lon="20.59874">
        <ele>866.420212</ele>
        <time>2022-05-01T09:17:33.535Z</time>
      </trkpt>
      <trkpt lat="41.06567" lon="20.59865">
        <ele>866.128931</ele>
        <time>2022-05-01T09:17:35.579Z</time>
      </trkpt>
      <trkpt lat="41.0656" lon="20.59855">
        <ele>865.8167</ele>
        <time>2022-05-01T09:17:37.525Z</time>
      </trkpt>
      <trkpt lat="41.06552" lon="20.59843">
        <ele>865.486719</ele>
        <time>2022-05-01T09:17:39.550Z</time>
      </trkpt>
      <trkpt lat="41.06547" lon="20.59829">
        <ele>865.145272</ele>
        <time>2022-05-01T09:17:41.554Z</time>
      </trkpt>
      <trkpt lat="41.06545" lon="20.59812">
        <ele>864.783667</ele>
        <time>2022-05-01T09:17:43.589Z</time>
      </trkpt>
      <trkpt lat="41.06544" lon="20.59796">
        <ele>864.439002</ele>
        <time>2022-05-01T09:17:45.539Z</time>
      </trkpt>
      <trkpt lat="41.06545" lon="20.59781">
        <ele>864.099292</ele>
        <time>2022-05-01T09:17:47.559Z</time>
      </trkpt>
      <trkpt lat="41.06544" lon="20.59766">
        <ele>863.779278</ele>
        <time>2022-05-01T09:17:49.547Z</time>
      </trkpt>
      <trkpt lat="41.06542" lon="20.59754">
        <ele>863.505756</ele>
        <time>2022-05-01T09:17:51.531Z</time>
      </trkpt>
      <trkpt lat="41.06539" lon="20.59739">
        <ele>863.16795</ele>
        <time>2022-05-01T09:17:54.535Z</time>
      </trkpt>
      <trkpt lat="41.06533" lon="20.59728">
        <ele>862.883523</ele>
        <time>2022-05-01T09:17:57.539Z</time>
      </trkpt>
      <trkpt lat="41.06526" lon="20.59716">
        <ele>862.559627</ele>
        <time>2022-05-01T09:18:00.519Z</time>
      </trkpt>
      <trkpt lat="41.06517" lon="20.59706">
        <ele>862.220872</ele>
        <time>2022-05-01T09:18:03.531Z</time>
      </trkpt>
      <trkpt lat="41.06509" lon="20.59696">
        <ele>861.902113</ele>
        <time>2022-05-01T09:18:06.526Z</time>
      </trkpt>
      <trkpt lat="41.06502" lon="20.59688">
        <ele>861.639103</ele>
        <time>2022-05-01T09:18:08.535Z</time>
      </trkpt>
      <trkpt lat="41.06495" lon="20.59679">
        <ele>861.358065</ele>
        <time>2022-05-01T09:18:10.559Z</time>
      </trkpt>
      <trkpt lat="41.06487" lon="20.59669">
        <ele>861.045123</ele>
        <time>2022-05-01T09:18:12.526Z</time>
      </trkpt>
      <trkpt lat="41.06479" lon="20.59658">
        <ele>860.713907</ele>
        <time>2022-05-01T09:18:14.544Z</time>
      </trkpt>
      <trkpt lat="41.0647" lon="20.59647">
        <ele>860.363946</ele>
        <time>2022-05-01T09:18:16.545Z</time>
      </trkpt>
      <trkpt lat="41.06461" lon="20.59635">
        <ele>860.004322</ele>
        <time>2022-05-01T09:18:18.526Z</time>
      </trkpt>
      <trkpt lat="41.06451" lon="20.59622">
        <ele>859.608136</ele>
        <time>2022-05-01T09:18:20.577Z</time>
      </trkpt>
      <trkpt lat="41.06441" lon="20.59609">
        <ele>859.187611</ele>
        <time>2022-05-01T09:18:22.571Z</time>
      </trkpt>
      <trkpt lat="41.0643" lon="20.59594">
        <ele>858.747586</ele>
        <time>2022-05-01T09:18:24.535Z</time>
      </trkpt>
      <trkpt lat="41.06421" lon="20.59576">
        <ele>858.290364</ele>
        <time>2022-05-01T09:18:26.573Z</time>
      </trkpt>
      <trkpt lat="41.06414" lon="20.59556">
        <ele>857.550173</ele>
        <time>2022-05-01T09:18:28.534Z</time>
      </trkpt>
      <trkpt lat="41.06412" lon="20.59544">
        <ele>856.977373</ele>
        <time>2022-05-01T09:18:29.552Z</time>
      </trkpt>
      <trkpt lat="41.06409" lon="20.59531">
        <ele>856.347693</ele>
        <time>2022-05-01T09:18:30.536Z</time>
      </trkpt>
      <trkpt lat="41.06408" lon="20.59519">
        <ele>855.730934</ele>
        <time>2022-05-01T09:18:31.569Z</time>
      </trkpt>
      <trkpt lat="41.06406" lon="20.59507">
        <ele>855.135383</ele>
        <time>2022-05-01T09:18:32.559Z</time>
      </trkpt>
      <trkpt lat="41.06404" lon="20.59495">
        <ele>854.558776</ele>
        <time>2022-05-01T09:18:33.569Z</time>
      </trkpt>
      <trkpt lat="41.06402" lon="20.59472">
        <ele>853.430219</ele>
        <time>2022-05-01T09:18:35.539Z</time>
      </trkpt>
      <trkpt lat="41.064" lon="20.5945">
        <ele>852.407457</ele>
        <time>2022-05-01T09:18:37.597Z</time>
      </trkpt>
      <trkpt lat="41.06398" lon="20.5943">
        <ele>851.437163</ele>
        <time>2022-05-01T09:18:39.527Z</time>
      </trkpt>
      <trkpt lat="41.06398" lon="20.5941">
        <ele>850.44625</ele>
        <time>2022-05-01T09:18:41.537Z</time>
      </trkpt>
      <trkpt lat="41.06401" lon="20.59389">
        <ele>849.431266</ele>
        <time>2022-05-01T09:18:43.543Z</time>
      </trkpt>
      <trkpt lat="41.06407" lon="20.59369">
        <ele>848.384386</ele>
        <time>2022-05-01T09:18:45.536Z</time>
      </trkpt>
      <trkpt lat="41.06412" lon="20.59359">
        <ele>847.807702</ele>
        <time>2022-05-01T09:18:46.540Z</time>
      </trkpt>
      <trkpt lat="41.06421" lon="20.59339">
        <ele>846.674933</ele>
        <time>2022-05-01T09:18:48.535Z</time>
      </trkpt>
      <trkpt lat="41.06427" lon="20.59328">
        <ele>845.9381</ele>
        <time>2022-05-01T09:18:49.563Z</time>
      </trkpt>
      <trkpt lat="41.06432" lon="20.59318">
        <ele>845.136946</ele>
        <time>2022-05-01T09:18:50.551Z</time>
      </trkpt>
      <trkpt lat="41.06437" lon="20.59307">
        <ele>844.33461</ele>
        <time>2022-05-01T09:18:51.542Z</time>
      </trkpt>
      <trkpt lat="41.06443" lon="20.59297">
        <ele>843.507135</ele>
        <time>2022-05-01T09:18:52.550Z</time>
      </trkpt>
      <trkpt lat="41.06447" lon="20.59286">
        <ele>842.718284</ele>
        <time>2022-05-01T09:18:53.546Z</time>
      </trkpt>
      <trkpt lat="41.06452" lon="20.59275">
        <ele>841.928353</ele>
        <time>2022-05-01T09:18:54.570Z</time>
      </trkpt>
      <trkpt lat="41.06456" lon="20.59264">
        <ele>841.146076</ele>
        <time>2022-05-01T09:18:55.539Z</time>
      </trkpt>
      <trkpt lat="41.0646" lon="20.59253">
        <ele>840.373618</ele>
        <time>2022-05-01T09:18:56.569Z</time>
      </trkpt>
      <trkpt lat="41.06462" lon="20.59242">
        <ele>839.622683</ele>
        <time>2022-05-01T09:18:57.610Z</time>
      </trkpt>
      <trkpt lat="41.06464" lon="20.59218">
        <ele>838.100392</ele>
        <time>2022-05-01T09:18:59.560Z</time>
      </trkpt>
      <trkpt lat="41.06464" lon="20.59205">
        <ele>837.313499</ele>
        <time>2022-05-01T09:19:00.560Z</time>
      </trkpt>
      <trkpt lat="41.06463" lon="20.59193">
        <ele>836.50968</ele>
        <time>2022-05-01T09:19:01.555Z</time>
      </trkpt>
      <trkpt lat="41.06461" lon="20.5918">
        <ele>835.708519</ele>
        <time>2022-05-01T09:19:02.551Z</time>
      </trkpt>
      <trkpt lat="41.06459" lon="20.59169">
        <ele>834.930877</ele>
        <time>2022-05-01T09:19:03.547Z</time>
      </trkpt>
      <trkpt lat="41.06455" lon="20.59157">
        <ele>834.170988</ele>
        <time>2022-05-01T09:19:04.526Z</time>
      </trkpt>
      <trkpt lat="41.06448" lon="20.59137">
        <ele>832.738341</ele>
        <time>2022-05-01T09:19:06.549Z</time>
      </trkpt>
      <trkpt lat="41.06441" lon="20.59117">
        <ele>831.328243</ele>
        <time>2022-05-01T09:19:08.553Z</time>
      </trkpt>
      <trkpt lat="41.06434" lon="20.59097">
        <ele>829.922147</ele>
        <time>2022-05-01T09:19:10.546Z</time>
      </trkpt>
      <trkpt lat="41.06427" lon="20.59078">
        <ele>828.628245</ele>
        <time>2022-05-01T09:19:12.544Z</time>
      </trkpt>
      <trkpt lat="41.06423" lon="20.59062">
        <ele>827.565153</ele>
        <time>2022-05-01T09:19:14.532Z</time>
      </trkpt>
      <trkpt lat="41.0642" lon="20.59048">
        <ele>826.633257</ele>
        <time>2022-05-01T09:19:16.575Z</time>
      </trkpt>
      <trkpt lat="41.06422" lon="20.59034">
        <ele>825.764913</ele>
        <time>2022-05-01T09:19:18.554Z</time>
      </trkpt>
      <trkpt lat="41.06431" lon="20.59024">
        <ele>824.767804</ele>
        <time>2022-05-01T09:19:20.548Z</time>
      </trkpt>
      <trkpt lat="41.06443" lon="20.59023">
        <ele>823.785943</ele>
        <time>2022-05-01T09:19:22.575Z</time>
      </trkpt>
      <trkpt lat="41.06454" lon="20.59033">
        <ele>822.627347</ele>
        <time>2022-05-01T09:19:24.535Z</time>
      </trkpt>
      <trkpt lat="41.06463" lon="20.5905">
        <ele>821.369526</ele>
        <time>2022-05-01T09:19:26.535Z</time>
      </trkpt>
      <trkpt lat="41.06469" lon="20.59065">
        <ele>820.283054</ele>
        <time>2022-05-01T09:19:28.545Z</time>
      </trkpt>
      <trkpt lat="41.06473" lon="20.59076">
        <ele>819.515867</ele>
        <time>2022-05-01T09:19:30.544Z</time>
      </trkpt>
      <trkpt lat="41.06478" lon="20.59088">
        <ele>818.633855</ele>
        <time>2022-05-01T09:19:33.575Z</time>
      </trkpt>
      <trkpt lat="41.06483" lon="20.591">
        <ele>817.742367</ele>
        <time>2022-05-01T09:19:36.549Z</time>
      </trkpt>
      <trkpt lat="41.06489" lon="20.59111">
        <ele>816.915747</ele>
        <time>2022-05-01T09:19:40.552Z</time>
      </trkpt>
      <trkpt lat="41.06497" lon="20.59142">
        <ele>815.765458</ele>
        <time>2022-05-01T09:22:34.536Z</time>
      </trkpt>
      <trkpt lat="41.06497" lon="20.59157">
        <ele>815.399222</ele>
        <time>2022-05-01T09:22:37.563Z</time>
      </trkpt>
      <trkpt lat="41.06498" lon="20.59168">
        <ele>815.107089</ele>
        <time>2022-05-01T09:22:39.537Z</time>
      </trkpt>
      <trkpt lat="41.06502" lon="20.5918">
        <ele>814.787983</ele>
        <time>2022-05-01T09:22:41.537Z</time>
      </trkpt>
      <trkpt lat="41.06506" lon="20.59193">
        <ele>814.45641</ele>
        <time>2022-05-01T09:22:43.544Z</time>
      </trkpt>
      <trkpt lat="41.06511" lon="20.59206">
        <ele>814.10079</ele>
        <time>2022-05-01T09:22:45.540Z</time>
      </trkpt>
      <trkpt lat="41.06516" lon="20.59218">
        <ele>813.756027</ele>
        <time>2022-05-01T09:22:47.547Z</time>
      </trkpt>
      <trkpt lat="41.06521" lon="20.5923">
        <ele>813.417733</ele>
        <time>2022-05-01T09:22:49.552Z</time>
      </trkpt>
      <trkpt lat="41.06527" lon="20.59242">
        <ele>813.070886</ele>
        <time>2022-05-01T09:22:51.560Z</time>
      </trkpt>
      <trkpt lat="41.06534" lon="20.59253">
        <ele>812.712696</ele>
        <time>2022-05-01T09:22:53.590Z</time>
      </trkpt>
      <trkpt lat="41.06544" lon="20.59262">
        <ele>812.32756</ele>
        <time>2022-05-01T09:22:55.556Z</time>
      </trkpt>
      <trkpt lat="41.06556" lon="20.59268">
        <ele>811.924437</ele>
        <time>2022-05-01T09:22:57.538Z</time>
      </trkpt>
      <trkpt lat="41.06569" lon="20.59271">
        <ele>811.491286</ele>
        <time>2022-05-01T09:22:59.537Z</time>
      </trkpt>
      <trkpt lat="41.06584" lon="20.59274">
        <ele>810.992598</ele>
        <time>2022-05-01T09:23:01.538Z</time>
      </trkpt>
      <trkpt lat="41.066" lon="20.59276">
        <ele>810.42059</ele>
        <time>2022-05-01T09:23:03.553Z</time>
      </trkpt>
      <trkpt lat="41.06617" lon="20.59279">
        <ele>809.196776</ele>
        <time>2022-05-01T09:23:05.542Z</time>
      </trkpt>
      <trkpt lat="41.06634" lon="20.59276">
        <ele>808.013708</ele>
        <time>2022-05-01T09:23:07.573Z</time>
      </trkpt>
      <trkpt lat="41.06648" lon="20.59267">
        <ele>806.897046</ele>
        <time>2022-05-01T09:23:09.548Z</time>
      </trkpt>
      <trkpt lat="41.0666" lon="20.59253">
        <ele>805.760629</ele>
        <time>2022-05-01T09:23:11.551Z</time>
      </trkpt>
      <trkpt lat="41.06672" lon="20.59235">
        <ele>804.527259</ele>
        <time>2022-05-01T09:23:13.567Z</time>
      </trkpt>
      <trkpt lat="41.06678" lon="20.59226">
        <ele>803.892461</ele>
        <time>2022-05-01T09:23:14.558Z</time>
      </trkpt>
      <trkpt lat="41.06684" lon="20.59217">
        <ele>803.2277</ele>
        <time>2022-05-01T09:23:15.566Z</time>
      </trkpt>
      <trkpt lat="41.0669" lon="20.59208">
        <ele>802.560837</ele>
        <time>2022-05-01T09:23:16.587Z</time>
      </trkpt>
      <trkpt lat="41.06697" lon="20.59198">
        <ele>801.897878</ele>
        <time>2022-05-01T09:23:17.537Z</time>
      </trkpt>
      <trkpt lat="41.06703" lon="20.59189">
        <ele>801.226204</ele>
        <time>2022-05-01T09:23:18.549Z</time>
      </trkpt>
      <trkpt lat="41.0671" lon="20.5918">
        <ele>800.547508</ele>
        <time>2022-05-01T09:23:19.529Z</time>
      </trkpt>
      <trkpt lat="41.06716" lon="20.5917">
        <ele>799.872777</ele>
        <time>2022-05-01T09:23:20.539Z</time>
      </trkpt>
      <trkpt lat="41.06722" lon="20.59161">
        <ele>799.20199</ele>
        <time>2022-05-01T09:23:21.549Z</time>
      </trkpt>
      <trkpt lat="41.06729" lon="20.59152">
        <ele>798.551641</ele>
        <time>2022-05-01T09:23:22.584Z</time>
      </trkpt>
      <trkpt lat="41.0674" lon="20.59135">
        <ele>797.225354</ele>
        <time>2022-05-01T09:23:24.593Z</time>
      </trkpt>
      <trkpt lat="41.0675" lon="20.59117">
        <ele>795.762281</ele>
        <time>2022-05-01T09:23:26.533Z</time>
      </trkpt>
      <trkpt lat="41.06758" lon="20.59098">
        <ele>794.32016</ele>
        <time>2022-05-01T09:23:28.569Z</time>
      </trkpt>
      <trkpt lat="41.06763" lon="20.59076">
        <ele>792.819165</ele>
        <time>2022-05-01T09:23:30.531Z</time>
      </trkpt>
      <trkpt lat="41.06764" lon="20.59064">
        <ele>792.007441</ele>
        <time>2022-05-01T09:23:31.548Z</time>
      </trkpt>
      <trkpt lat="41.06765" lon="20.59052">
        <ele>791.196734</ele>
        <time>2022-05-01T09:23:32.564Z</time>
      </trkpt>
      <trkpt lat="41.06766" lon="20.59039">
        <ele>790.393891</ele>
        <time>2022-05-01T09:23:33.571Z</time>
      </trkpt>
      <trkpt lat="41.06766" lon="20.59027">
        <ele>789.610076</ele>
        <time>2022-05-01T09:23:34.547Z</time>
      </trkpt>
      <trkpt lat="41.06768" lon="20.59004">
        <ele>788.089567</ele>
        <time>2022-05-01T09:23:36.548Z</time>
      </trkpt>
      <trkpt lat="41.06772" lon="20.58982">
        <ele>786.558749</ele>
        <time>2022-05-01T09:23:38.557Z</time>
      </trkpt>
      <trkpt lat="41.06779" lon="20.58961">
        <ele>785.05097</ele>
        <time>2022-05-01T09:23:40.543Z</time>
      </trkpt>
      <trkpt lat="41.06786" lon="20.58941">
        <ele>783.591813</ele>
        <time>2022-05-01T09:23:42.550Z</time>
      </trkpt>
      <trkpt lat="41.06793" lon="20.5892">
        <ele>782.079684</ele>
        <time>2022-05-01T09:23:44.564Z</time>
      </trkpt>
      <trkpt lat="41.068" lon="20.58899">
        <ele>780.479961</ele>
        <time>2022-05-01T09:23:46.546Z</time>
      </trkpt>
      <trkpt lat="41.06807" lon="20.5888">
        <ele>778.915303</ele>
        <time>2022-05-01T09:23:48.531Z</time>
      </trkpt>
      <trkpt lat="41.06816" lon="20.58862">
        <ele>777.377581</ele>
        <time>2022-05-01T09:23:50.578Z</time>
      </trkpt>
      <trkpt lat="41.06829" lon="20.58849">
        <ele>775.84194</ele>
        <time>2022-05-01T09:23:52.556Z</time>
      </trkpt>
      <trkpt lat="41.06846" lon="20.58847">
        <ele>774.230436</ele>
        <time>2022-05-01T09:23:54.574Z</time>
      </trkpt>
      <trkpt lat="41.06856" lon="20.5885">
        <ele>773.308429</ele>
        <time>2022-05-01T09:23:55.550Z</time>
      </trkpt>
      <trkpt lat="41.06865" lon="20.58855">
        <ele>772.387876</ele>
        <time>2022-05-01T09:23:56.562Z</time>
      </trkpt>
      <trkpt lat="41.06873" lon="20.5886">
        <ele>771.482298</ele>
        <time>2022-05-01T09:23:57.532Z</time>
      </trkpt>
      <trkpt lat="41.06882" lon="20.58865">
        <ele>770.631405</ele>
        <time>2022-05-01T09:23:58.547Z</time>
      </trkpt>
      <trkpt lat="41.06895" lon="20.58877">
        <ele>769.112888</ele>
        <time>2022-05-01T09:24:00.550Z</time>
      </trkpt>
      <trkpt lat="41.06906" lon="20.58891">
        <ele>767.664714</ele>
        <time>2022-05-01T09:24:02.557Z</time>
      </trkpt>
      <trkpt lat="41.06915" lon="20.58907">
        <ele>766.207349</ele>
        <time>2022-05-01T09:24:04.545Z</time>
      </trkpt>
      <trkpt lat="41.06919" lon="20.58925">
        <ele>764.90578</ele>
        <time>2022-05-01T09:24:06.537Z</time>
      </trkpt>
      <trkpt lat="41.0692" lon="20.58944">
        <ele>764.001005</ele>
        <time>2022-05-01T09:24:08.549Z</time>
      </trkpt>
      <trkpt lat="41.0692" lon="20.58961">
        <ele>763.160646</ele>
        <time>2022-05-01T09:24:10.558Z</time>
      </trkpt>
      <trkpt lat="41.06919" lon="20.58976">
        <ele>762.413538</ele>
        <time>2022-05-01T09:24:12.575Z</time>
      </trkpt>
      <trkpt lat="41.06918" lon="20.5899">
        <ele>761.715756</ele>
        <time>2022-05-01T09:24:14.542Z</time>
      </trkpt>
      <trkpt lat="41.06916" lon="20.59004">
        <ele>761.017974</ele>
        <time>2022-05-01T09:24:16.537Z</time>
      </trkpt>
      <trkpt lat="41.06914" lon="20.59018">
        <ele>760.319994</ele>
        <time>2022-05-01T09:24:18.549Z</time>
      </trkpt>
      <trkpt lat="41.06912" lon="20.59031">
        <ele>759.640218</ele>
        <time>2022-05-01T09:24:20.543Z</time>
      </trkpt>
      <trkpt lat="41.0691" lon="20.59045">
        <ele>758.926474</ele>
        <time>2022-05-01T09:24:22.557Z</time>
      </trkpt>
      <trkpt lat="41.06909" lon="20.59058">
        <ele>758.300024</ele>
        <time>2022-05-01T09:24:24.557Z</time>
      </trkpt>
      <trkpt lat="41.06906" lon="20.5907">
        <ele>757.681277</ele>
        <time>2022-05-01T09:24:26.537Z</time>
      </trkpt>
      <trkpt lat="41.06903" lon="20.59082">
        <ele>757.063357</ele>
        <time>2022-05-01T09:24:28.539Z</time>
      </trkpt>
      <trkpt lat="41.069" lon="20.59093">
        <ele>756.470957</ele>
        <time>2022-05-01T09:24:30.548Z</time>
      </trkpt>
      <trkpt lat="41.06895" lon="20.5911">
        <ele>755.606335</ele>
        <time>2022-05-01T09:24:33.538Z</time>
      </trkpt>
      <trkpt lat="41.06891" lon="20.5912">
        <ele>755.008886</ele>
        <time>2022-05-01T09:24:35.555Z</time>
      </trkpt>
      <trkpt lat="41.06887" lon="20.59131">
        <ele>754.405469</ele>
        <time>2022-05-01T09:24:37.543Z</time>
      </trkpt>
      <trkpt lat="41.06882" lon="20.59147">
        <ele>753.529405</ele>
        <time>2022-05-01T09:24:40.567Z</time>
      </trkpt>
      <trkpt lat="41.06877" lon="20.59158">
        <ele>753.026417</ele>
        <time>2022-05-01T09:24:42.539Z</time>
      </trkpt>
      <trkpt lat="41.06873" lon="20.59169">
        <ele>752.601575</ele>
        <time>2022-05-01T09:24:44.540Z</time>
      </trkpt>
      <trkpt lat="41.06867" lon="20.5918">
        <ele>752.165522</ele>
        <time>2022-05-01T09:24:46.583Z</time>
      </trkpt>
      <trkpt lat="41.06861" lon="20.59191">
        <ele>751.716182</ele>
        <time>2022-05-01T09:24:48.539Z</time>
      </trkpt>
      <trkpt lat="41.06856" lon="20.59203">
        <ele>751.240812</ele>
        <time>2022-05-01T09:24:50.543Z</time>
      </trkpt>
      <trkpt lat="41.06853" lon="20.59217">
        <ele>750.73727</ele>
        <time>2022-05-01T09:24:52.547Z</time>
      </trkpt>
      <trkpt lat="41.06854" lon="20.59233">
        <ele>750.207941</ele>
        <time>2022-05-01T09:24:54.548Z</time>
      </trkpt>
      <trkpt lat="41.0686" lon="20.59248">
        <ele>749.637146</ele>
        <time>2022-05-01T09:24:56.548Z</time>
      </trkpt>
      <trkpt lat="41.06874" lon="20.59255">
        <ele>748.972494</ele>
        <time>2022-05-01T09:24:58.558Z</time>
      </trkpt>
      <trkpt lat="41.06889" lon="20.59253">
        <ele>748.272833</ele>
        <time>2022-05-01T09:25:00.569Z</time>
      </trkpt>
      <trkpt lat="41.06901" lon="20.5924">
        <ele>747.572931</ele>
        <time>2022-05-01T09:25:02.531Z</time>
      </trkpt>
      <trkpt lat="41.06912" lon="20.59221">
        <ele>746.752857</ele>
        <time>2022-05-01T09:25:04.537Z</time>
      </trkpt>
      <trkpt lat="41.06919" lon="20.59212">
        <ele>746.323651</ele>
        <time>2022-05-01T09:25:05.544Z</time>
      </trkpt>
      <trkpt lat="41.06926" lon="20.59204">
        <ele>745.901628</ele>
        <time>2022-05-01T09:25:06.530Z</time>
      </trkpt>
      <trkpt lat="41.06934" lon="20.59197">
        <ele>745.485165</ele>
        <time>2022-05-01T09:25:07.553Z</time>
      </trkpt>
      <trkpt lat="41.06951" lon="20.59191">
        <ele>744.276254</ele>
        <time>2022-05-01T09:25:09.563Z</time>
      </trkpt>
      <trkpt lat="41.06969" lon="20.59186">
        <ele>742.758325</ele>
        <time>2022-05-01T09:25:11.553Z</time>
      </trkpt>
      <trkpt lat="41.06977" lon="20.59183">
        <ele>741.999994</ele>
        <time>2022-05-01T09:25:12.547Z</time>
      </trkpt>
      <trkpt lat="41.06994" lon="20.59178">
        <ele>740.532749</ele>
        <time>2022-05-01T09:25:14.575Z</time>
      </trkpt>
      <trkpt lat="41.07011" lon="20.59168">
        <ele>739.051233</ele>
        <time>2022-05-01T09:25:16.548Z</time>
      </trkpt>
      <trkpt lat="41.07025" lon="20.59154">
        <ele>737.584368</ele>
        <time>2022-05-01T09:25:18.600Z</time>
      </trkpt>
      <trkpt lat="41.07037" lon="20.59136">
        <ele>736.043836</ele>
        <time>2022-05-01T09:25:20.575Z</time>
      </trkpt>
      <trkpt lat="41.07044" lon="20.59126">
        <ele>735.213299</ele>
        <time>2022-05-01T09:25:21.550Z</time>
      </trkpt>
      <trkpt lat="41.0705" lon="20.59116">
        <ele>734.380513</ele>
        <time>2022-05-01T09:25:22.548Z</time>
      </trkpt>
      <trkpt lat="41.07057" lon="20.59107">
        <ele>733.595956</ele>
        <time>2022-05-01T09:25:23.541Z</time>
      </trkpt>
      <trkpt lat="41.07064" lon="20.59099">
        <ele>732.820324</ele>
        <time>2022-05-01T09:25:24.531Z</time>
      </trkpt>
      <trkpt lat="41.07072" lon="20.59092">
        <ele>732.037307</ele>
        <time>2022-05-01T09:25:25.543Z</time>
      </trkpt>
      <trkpt lat="41.0708" lon="20.59086">
        <ele>731.227346</ele>
        <time>2022-05-01T09:25:26.579Z</time>
      </trkpt>
      <trkpt lat="41.07089" lon="20.5908">
        <ele>730.382181</ele>
        <time>2022-05-01T09:25:27.548Z</time>
      </trkpt>
      <trkpt lat="41.07099" lon="20.59076">
        <ele>729.649765</ele>
        <time>2022-05-01T09:25:28.548Z</time>
      </trkpt>
      <trkpt lat="41.0711" lon="20.59072">
        <ele>728.94996</ele>
        <time>2022-05-01T09:25:29.541Z</time>
      </trkpt>
      <trkpt lat="41.0712" lon="20.59067">
        <ele>728.228646</ele>
        <time>2022-05-01T09:25:30.611Z</time>
      </trkpt>
      <trkpt lat="41.07131" lon="20.59062">
        <ele>727.50281</ele>
        <time>2022-05-01T09:25:31.575Z</time>
      </trkpt>
      <trkpt lat="41.07141" lon="20.59057">
        <ele>726.773206</ele>
        <time>2022-05-01T09:25:32.585Z</time>
      </trkpt>
      <trkpt lat="41.07152" lon="20.59051">
        <ele>726.036683</ele>
        <time>2022-05-01T09:25:33.548Z</time>
      </trkpt>
      <trkpt lat="41.07161" lon="20.59045">
        <ele>725.325113</ele>
        <time>2022-05-01T09:25:34.536Z</time>
      </trkpt>
      <trkpt lat="41.07171" lon="20.59038">
        <ele>724.633875</ele>
        <time>2022-05-01T09:25:35.545Z</time>
      </trkpt>
      <trkpt lat="41.0718" lon="20.5903">
        <ele>723.946468</ele>
        <time>2022-05-01T09:25:36.539Z</time>
      </trkpt>
      <trkpt lat="41.07188" lon="20.59022">
        <ele>723.261011</ele>
        <time>2022-05-01T09:25:37.566Z</time>
      </trkpt>
      <trkpt lat="41.07196" lon="20.59013">
        <ele>722.59283</ele>
        <time>2022-05-01T09:25:38.557Z</time>
      </trkpt>
      <trkpt lat="41.07204" lon="20.59003">
        <ele>721.905132</ele>
        <time>2022-05-01T09:25:39.553Z</time>
      </trkpt>
      <trkpt lat="41.07211" lon="20.58993">
        <ele>721.223622</ele>
        <time>2022-05-01T09:25:40.544Z</time>
      </trkpt>
      <trkpt lat="41.07218" lon="20.58983">
        <ele>720.549013</ele>
        <time>2022-05-01T09:25:41.554Z</time>
      </trkpt>
      <trkpt lat="41.07224" lon="20.58972">
        <ele>719.880498</ele>
        <time>2022-05-01T09:25:42.546Z</time>
      </trkpt>
      <trkpt lat="41.0723" lon="20.58961">
        <ele>719.214331</ele>
        <time>2022-05-01T09:25:43.555Z</time>
      </trkpt>
      <trkpt lat="41.07235" lon="20.58949">
        <ele>718.548405</ele>
        <time>2022-05-01T09:25:44.570Z</time>
      </trkpt>
      <trkpt lat="41.0724" lon="20.58937">
        <ele>717.856145</ele>
        <time>2022-05-01T09:25:45.535Z</time>
      </trkpt>
      <trkpt lat="41.07244" lon="20.58924">
        <ele>717.170515</ele>
        <time>2022-05-01T09:25:46.539Z</time>
      </trkpt>
      <trkpt lat="41.07248" lon="20.58912">
        <ele>716.496741</ele>
        <time>2022-05-01T09:25:47.560Z</time>
      </trkpt>
      <trkpt lat="41.07252" lon="20.589">
        <ele>715.827545</ele>
        <time>2022-05-01T09:25:48.550Z</time>
      </trkpt>
      <trkpt lat="41.07256" lon="20.58887">
        <ele>715.161584</ele>
        <time>2022-05-01T09:25:49.629Z</time>
      </trkpt>
      <trkpt lat="41.0726" lon="20.58876">
        <ele>714.523335</ele>
        <time>2022-05-01T09:25:50.545Z</time>
      </trkpt>
      <trkpt lat="41.07264" lon="20.58865">
        <ele>713.906233</ele>
        <time>2022-05-01T09:25:51.549Z</time>
      </trkpt>
      <trkpt lat="41.0727" lon="20.58855">
        <ele>713.294139</ele>
        <time>2022-05-01T09:25:52.534Z</time>
      </trkpt>
      <trkpt lat="41.07277" lon="20.58847">
        <ele>712.673518</ele>
        <time>2022-05-01T09:25:53.544Z</time>
      </trkpt>
      <trkpt lat="41.07285" lon="20.5884">
        <ele>712.027829</ele>
        <time>2022-05-01T09:25:54.557Z</time>
      </trkpt>
      <trkpt lat="41.07294" lon="20.58834">
        <ele>711.365646</ele>
        <time>2022-05-01T09:25:55.549Z</time>
      </trkpt>
      <trkpt lat="41.07303" lon="20.58828">
        <ele>710.678786</ele>
        <time>2022-05-01T09:25:56.623Z</time>
      </trkpt>
      <trkpt lat="41.07312" lon="20.58823">
        <ele>710.036519</ele>
        <time>2022-05-01T09:25:57.544Z</time>
      </trkpt>
      <trkpt lat="41.0732" lon="20.58817">
        <ele>709.416578</ele>
        <time>2022-05-01T09:25:58.583Z</time>
      </trkpt>
      <trkpt lat="41.07333" lon="20.58804">
        <ele>708.326711</ele>
        <time>2022-05-01T09:26:00.529Z</time>
      </trkpt>
      <trkpt lat="41.07342" lon="20.58789">
        <ele>707.377234</ele>
        <time>2022-05-01T09:26:02.561Z</time>
      </trkpt>
      <trkpt lat="41.07354" lon="20.58775">
        <ele>706.290582</ele>
        <time>2022-05-01T09:26:04.548Z</time>
      </trkpt>
      <trkpt lat="41.07362" lon="20.58759">
        <ele>705.16361</ele>
        <time>2022-05-01T09:26:06.540Z</time>
      </trkpt>
      <trkpt lat="41.07366" lon="20.58743">
        <ele>704.197191</ele>
        <time>2022-05-01T09:26:08.594Z</time>
      </trkpt>
      <trkpt lat="41.07362" lon="20.58729">
        <ele>703.288896</ele>
        <time>2022-05-01T09:26:10.546Z</time>
      </trkpt>
      <trkpt lat="41.07349" lon="20.58721">
        <ele>702.199112</ele>
        <time>2022-05-01T09:26:12.539Z</time>
      </trkpt>
      <trkpt lat="41.07333" lon="20.58727">
        <ele>700.928092</ele>
        <time>2022-05-01T09:26:14.547Z</time>
      </trkpt>
      <trkpt lat="41.07319" lon="20.58743">
        <ele>699.525643</ele>
        <time>2022-05-01T09:26:16.554Z</time>
      </trkpt>
      <trkpt lat="41.07314" lon="20.58753">
        <ele>698.815958</ele>
        <time>2022-05-01T09:26:17.538Z</time>
      </trkpt>
      <trkpt lat="41.07302" lon="20.58768">
        <ele>697.558372</ele>
        <time>2022-05-01T09:26:19.548Z</time>
      </trkpt>
      <trkpt lat="41.07287" lon="20.58779">
        <ele>696.259792</ele>
        <time>2022-05-01T09:26:21.549Z</time>
      </trkpt>
      <trkpt lat="41.07279" lon="20.58783">
        <ele>695.56301</ele>
        <time>2022-05-01T09:26:22.544Z</time>
      </trkpt>
      <trkpt lat="41.07269" lon="20.58785">
        <ele>694.831983</ele>
        <time>2022-05-01T09:26:23.602Z</time>
      </trkpt>
      <trkpt lat="41.07259" lon="20.58785">
        <ele>694.030755</ele>
        <time>2022-05-01T09:26:24.537Z</time>
      </trkpt>
      <trkpt lat="41.07248" lon="20.58782">
        <ele>693.152727</ele>
        <time>2022-05-01T09:26:25.561Z</time>
      </trkpt>
      <trkpt lat="41.07236" lon="20.58778">
        <ele>692.223556</ele>
        <time>2022-05-01T09:26:26.578Z</time>
      </trkpt>
      <trkpt lat="41.07225" lon="20.58771">
        <ele>691.26904</ele>
        <time>2022-05-01T09:26:27.546Z</time>
      </trkpt>
      <trkpt lat="41.07214" lon="20.58764">
        <ele>690.343899</ele>
        <time>2022-05-01T09:26:28.546Z</time>
      </trkpt>
      <trkpt lat="41.07203" lon="20.58757">
        <ele>689.377271</ele>
        <time>2022-05-01T09:26:29.545Z</time>
      </trkpt>
      <trkpt lat="41.07191" lon="20.5875">
        <ele>688.389819</ele>
        <time>2022-05-01T09:26:30.543Z</time>
      </trkpt>
      <trkpt lat="41.07179" lon="20.58744">
        <ele>687.39035</ele>
        <time>2022-05-01T09:26:31.531Z</time>
      </trkpt>
      <trkpt lat="41.07167" lon="20.58737">
        <ele>686.369428</ele>
        <time>2022-05-01T09:26:32.582Z</time>
      </trkpt>
      <trkpt lat="41.07155" lon="20.58731">
        <ele>685.354831</ele>
        <time>2022-05-01T09:26:33.538Z</time>
      </trkpt>
      <trkpt lat="41.07143" lon="20.58726">
        <ele>684.401416</ele>
        <time>2022-05-01T09:26:34.566Z</time>
      </trkpt>
      <trkpt lat="41.07131" lon="20.58722">
        <ele>683.503943</ele>
        <time>2022-05-01T09:26:35.543Z</time>
      </trkpt>
      <trkpt lat="41.07121" lon="20.5872">
        <ele>682.674779</ele>
        <time>2022-05-01T09:26:36.550Z</time>
      </trkpt>
      <trkpt lat="41.07111" lon="20.58718">
        <ele>681.883593</ele>
        <time>2022-05-01T09:26:37.557Z</time>
      </trkpt>
      <trkpt lat="41.07101" lon="20.58715">
        <ele>681.131921</ele>
        <time>2022-05-01T09:26:38.539Z</time>
      </trkpt>
      <trkpt lat="41.07092" lon="20.58711">
        <ele>680.375868</ele>
        <time>2022-05-01T09:26:39.535Z</time>
      </trkpt>
      <trkpt lat="41.07083" lon="20.58706">
        <ele>679.630649</ele>
        <time>2022-05-01T09:26:40.531Z</time>
      </trkpt>
      <trkpt lat="41.07075" lon="20.58698">
        <ele>678.849847</ele>
        <time>2022-05-01T09:26:41.544Z</time>
      </trkpt>
      <trkpt lat="41.07066" lon="20.58689">
        <ele>677.98358</ele>
        <time>2022-05-01T09:26:42.548Z</time>
      </trkpt>
      <trkpt lat="41.07059" lon="20.58678">
        <ele>677.098911</ele>
        <time>2022-05-01T09:26:43.591Z</time>
      </trkpt>
      <trkpt lat="41.07053" lon="20.58666">
        <ele>676.240694</ele>
        <time>2022-05-01T09:26:44.545Z</time>
      </trkpt>
      <trkpt lat="41.07048" lon="20.58654">
        <ele>675.393914</ele>
        <time>2022-05-01T09:26:45.555Z</time>
      </trkpt>
      <trkpt lat="41.07043" lon="20.58641">
        <ele>674.540531</ele>
        <time>2022-05-01T09:26:46.557Z</time>
      </trkpt>
      <trkpt lat="41.07041" lon="20.58627">
        <ele>673.679834</ele>
        <time>2022-05-01T09:26:47.538Z</time>
      </trkpt>
      <trkpt lat="41.0704" lon="20.58612">
        <ele>672.789722</ele>
        <time>2022-05-01T09:26:48.549Z</time>
      </trkpt>
      <trkpt lat="41.07041" lon="20.58597">
        <ele>671.894233</ele>
        <time>2022-05-01T09:26:49.580Z</time>
      </trkpt>
      <trkpt lat="41.07042" lon="20.58582">
        <ele>670.970297</ele>
        <time>2022-05-01T09:26:50.575Z</time>
      </trkpt>
      <trkpt lat="41.07044" lon="20.58566">
        <ele>670.026218</ele>
        <time>2022-05-01T09:26:51.576Z</time>
      </trkpt>
      <trkpt lat="41.07046" lon="20.5855">
        <ele>669.058648</ele>
        <time>2022-05-01T09:26:52.545Z</time>
      </trkpt>
      <trkpt lat="41.07047" lon="20.58534">
        <ele>668.081131</ele>
        <time>2022-05-01T09:26:53.547Z</time>
      </trkpt>
      <trkpt lat="41.07048" lon="20.58517">
        <ele>667.072468</ele>
        <time>2022-05-01T09:26:54.548Z</time>
      </trkpt>
      <trkpt lat="41.07048" lon="20.585">
        <ele>666.065217</ele>
        <time>2022-05-01T09:26:55.562Z</time>
      </trkpt>
      <trkpt lat="41.07048" lon="20.58484">
        <ele>665.088032</ele>
        <time>2022-05-01T09:26:56.556Z</time>
      </trkpt>
      <trkpt lat="41.07049" lon="20.58468">
        <ele>664.169332</ele>
        <time>2022-05-01T09:26:57.548Z</time>
      </trkpt>
      <trkpt lat="41.07048" lon="20.58452">
        <ele>663.35007</ele>
        <time>2022-05-01T09:26:58.539Z</time>
      </trkpt>
      <trkpt lat="41.07048" lon="20.58437">
        <ele>662.520306</ele>
        <time>2022-05-01T09:26:59.554Z</time>
      </trkpt>
      <trkpt lat="41.07048" lon="20.58421">
        <ele>661.695881</ele>
        <time>2022-05-01T09:27:00.575Z</time>
      </trkpt>
      <trkpt lat="41.07049" lon="20.58405">
        <ele>660.875997</ele>
        <time>2022-05-01T09:27:01.543Z</time>
      </trkpt>
      <trkpt lat="41.0705" lon="20.5839">
        <ele>660.053897</ele>
        <time>2022-05-01T09:27:02.537Z</time>
      </trkpt>
      <trkpt lat="41.07051" lon="20.58374">
        <ele>659.237593</ele>
        <time>2022-05-01T09:27:03.555Z</time>
      </trkpt>
      <trkpt lat="41.07051" lon="20.58359">
        <ele>658.427483</ele>
        <time>2022-05-01T09:27:04.557Z</time>
      </trkpt>
      <trkpt lat="41.07052" lon="20.58343">
        <ele>657.618361</ele>
        <time>2022-05-01T09:27:05.547Z</time>
      </trkpt>
      <trkpt lat="41.07052" lon="20.58328">
        <ele>656.819127</ele>
        <time>2022-05-01T09:27:06.593Z</time>
      </trkpt>
      <trkpt lat="41.07053" lon="20.58313">
        <ele>656.020227</ele>
        <time>2022-05-01T09:27:07.535Z</time>
      </trkpt>
      <trkpt lat="41.07053" lon="20.58298">
        <ele>655.216082</ele>
        <time>2022-05-01T09:27:08.545Z</time>
      </trkpt>
      <trkpt lat="41.07054" lon="20.58282">
        <ele>654.412208</ele>
        <time>2022-05-01T09:27:09.538Z</time>
      </trkpt>
      <trkpt lat="41.07054" lon="20.58267">
        <ele>653.598047</ele>
        <time>2022-05-01T09:27:10.549Z</time>
      </trkpt>
      <trkpt lat="41.07055" lon="20.58251">
        <ele>652.778163</ele>
        <time>2022-05-01T09:27:11.534Z</time>
      </trkpt>
      <trkpt lat="41.07055" lon="20.58236">
        <ele>651.965317</ele>
        <time>2022-05-01T09:27:12.589Z</time>
      </trkpt>
      <trkpt lat="41.07055" lon="20.5822">
        <ele>651.380393</ele>
        <time>2022-05-01T09:27:13.539Z</time>
      </trkpt>
      <trkpt lat="41.07056" lon="20.58205">
        <ele>650.788031</ele>
        <time>2022-05-01T09:27:14.557Z</time>
      </trkpt>
      <trkpt lat="41.07056" lon="20.58189">
        <ele>650.195519</ele>
        <time>2022-05-01T09:27:15.545Z</time>
      </trkpt>
      <trkpt lat="41.07056" lon="20.58174">
        <ele>649.610854</ele>
        <time>2022-05-01T09:27:16.547Z</time>
      </trkpt>
      <trkpt lat="41.07056" lon="20.58158">
        <ele>649.014867</ele>
        <time>2022-05-01T09:27:17.550Z</time>
      </trkpt>
      <trkpt lat="41.07057" lon="20.58142">
        <ele>648.418817</ele>
        <time>2022-05-01T09:27:18.565Z</time>
      </trkpt>
      <trkpt lat="41.07057" lon="20.58127">
        <ele>647.833697</ele>
        <time>2022-05-01T09:27:19.548Z</time>
      </trkpt>
      <trkpt lat="41.07058" lon="20.58111">
        <ele>647.243947</ele>
        <time>2022-05-01T09:27:20.538Z</time>
      </trkpt>
      <trkpt lat="41.07058" lon="20.58096">
        <ele>646.647641</ele>
        <time>2022-05-01T09:27:21.548Z</time>
      </trkpt>
      <trkpt lat="41.07059" lon="20.5808">
        <ele>646.055279</ele>
        <time>2022-05-01T09:27:22.548Z</time>
      </trkpt>
      <trkpt lat="41.07059" lon="20.58065">
        <ele>645.482067</ele>
        <time>2022-05-01T09:27:23.565Z</time>
      </trkpt>
      <trkpt lat="41.07059" lon="20.58051">
        <ele>644.946743</ele>
        <time>2022-05-01T09:27:24.587Z</time>
      </trkpt>
      <trkpt lat="41.07059" lon="20.58037">
        <ele>644.430492</ele>
        <time>2022-05-01T09:27:25.571Z</time>
      </trkpt>
      <trkpt lat="41.07059" lon="20.58024">
        <ele>643.925228</ele>
        <time>2022-05-01T09:27:26.547Z</time>
      </trkpt>
      <trkpt lat="41.07058" lon="20.58011">
        <ele>643.427041</ele>
        <time>2022-05-01T09:27:27.539Z</time>
      </trkpt>
      <trkpt lat="41.07057" lon="20.57998">
        <ele>642.924737</ele>
        <time>2022-05-01T09:27:28.543Z</time>
      </trkpt>
      <trkpt lat="41.07056" lon="20.57984">
        <ele>642.506257</ele>
        <time>2022-05-01T09:27:29.535Z</time>
      </trkpt>
      <trkpt lat="41.07056" lon="20.57971">
        <ele>642.076955</ele>
        <time>2022-05-01T09:27:30.558Z</time>
      </trkpt>
      <trkpt lat="41.07055" lon="20.57957">
        <ele>641.647275</ele>
        <time>2022-05-01T09:27:31.553Z</time>
      </trkpt>
      <trkpt lat="41.07053" lon="20.57943">
        <ele>641.220279</ele>
        <time>2022-05-01T09:27:32.546Z</time>
      </trkpt>
      <trkpt lat="41.07052" lon="20.5793">
        <ele>640.795922</ele>
        <time>2022-05-01T09:27:33.569Z</time>
      </trkpt>
      <trkpt lat="41.07051" lon="20.57916">
        <ele>640.371565</ele>
        <time>2022-05-01T09:27:34.550Z</time>
      </trkpt>
      <trkpt lat="41.0705" lon="20.57903">
        <ele>639.950309</ele>
        <time>2022-05-01T09:27:35.593Z</time>
      </trkpt>
      <trkpt lat="41.07049" lon="20.57889">
        <ele>639.52235</ele>
        <time>2022-05-01T09:27:36.528Z</time>
      </trkpt>
      <trkpt lat="41.07047" lon="20.57876">
        <ele>639.097993</ele>
        <time>2022-05-01T09:27:37.548Z</time>
      </trkpt>
      <trkpt lat="41.07046" lon="20.57862">
        <ele>638.668914</ele>
        <time>2022-05-01T09:27:38.536Z</time>
      </trkpt>
      <trkpt lat="41.07045" lon="20.57849">
        <ele>638.244557</ele>
        <time>2022-05-01T09:27:39.546Z</time>
      </trkpt>
      <trkpt lat="41.07044" lon="20.57835">
        <ele>637.821089</ele>
        <time>2022-05-01T09:27:40.547Z</time>
      </trkpt>
      <trkpt lat="41.07043" lon="20.57822">
        <ele>637.403404</ele>
        <time>2022-05-01T09:27:41.543Z</time>
      </trkpt>
      <trkpt lat="41.07042" lon="20.57809">
        <ele>636.989255</ele>
        <time>2022-05-01T09:27:42.546Z</time>
      </trkpt>
      <trkpt lat="41.07041" lon="20.57796">
        <ele>636.572392</ele>
        <time>2022-05-01T09:27:43.556Z</time>
      </trkpt>
      <trkpt lat="41.0704" lon="20.57782">
        <ele>636.151602</ele>
        <time>2022-05-01T09:27:44.547Z</time>
      </trkpt>
      <trkpt lat="41.07038" lon="20.57769">
        <ele>635.730813</ele>
        <time>2022-05-01T09:27:45.554Z</time>
      </trkpt>
      <trkpt lat="41.07037" lon="20.57755">
        <ele>635.392498</ele>
        <time>2022-05-01T09:27:46.592Z</time>
      </trkpt>
      <trkpt lat="41.07036" lon="20.57742">
        <ele>635.196646</ele>
        <time>2022-05-01T09:27:47.547Z</time>
      </trkpt>
      <trkpt lat="41.07035" lon="20.57728">
        <ele>634.995098</ele>
        <time>2022-05-01T09:27:48.549Z</time>
      </trkpt>
      <trkpt lat="41.07034" lon="20.57715">
        <ele>634.807564</ele>
        <time>2022-05-01T09:27:49.551Z</time>
      </trkpt>
      <trkpt lat="41.07032" lon="20.57702">
        <ele>634.620669</ele>
        <time>2022-05-01T09:27:50.541Z</time>
      </trkpt>
      <trkpt lat="41.07031" lon="20.57689">
        <ele>634.434566</ele>
        <time>2022-05-01T09:27:51.539Z</time>
      </trkpt>
      <trkpt lat="41.07029" lon="20.57676">
        <ele>634.247951</ele>
        <time>2022-05-01T09:27:52.563Z</time>
      </trkpt>
      <trkpt lat="41.07027" lon="20.57663">
        <ele>634.059747</ele>
        <time>2022-05-01T09:27:53.550Z</time>
      </trkpt>
      <trkpt lat="41.07025" lon="20.5765">
        <ele>633.871764</ele>
        <time>2022-05-01T09:27:54.570Z</time>
      </trkpt>
      <trkpt lat="41.07022" lon="20.57638">
        <ele>633.68333</ele>
        <time>2022-05-01T09:27:55.552Z</time>
      </trkpt>
      <trkpt lat="41.07019" lon="20.57625">
        <ele>633.497738</ele>
        <time>2022-05-01T09:27:56.529Z</time>
      </trkpt>
      <trkpt lat="41.07015" lon="20.57613">
        <ele>633.31137</ele>
        <time>2022-05-01T09:27:57.591Z</time>
      </trkpt>
      <trkpt lat="41.07011" lon="20.57602">
        <ele>633.123706</ele>
        <time>2022-05-01T09:27:58.552Z</time>
      </trkpt>
      <trkpt lat="41.07006" lon="20.5759">
        <ele>632.935141</ele>
        <time>2022-05-01T09:27:59.547Z</time>
      </trkpt>
      <trkpt lat="41.07002" lon="20.57578">
        <ele>632.744412</ele>
        <time>2022-05-01T09:28:00.546Z</time>
      </trkpt>
      <trkpt lat="41.06997" lon="20.57567">
        <ele>632.550592</ele>
        <time>2022-05-01T09:28:01.556Z</time>
      </trkpt>
      <trkpt lat="41.06992" lon="20.57554">
        <ele>632.353921</ele>
        <time>2022-05-01T09:28:02.550Z</time>
      </trkpt>
      <trkpt lat="41.06987" lon="20.57542">
        <ele>632.156874</ele>
        <time>2022-05-01T09:28:03.559Z</time>
      </trkpt>
      <trkpt lat="41.06982" lon="20.5753">
        <ele>631.970344</ele>
        <time>2022-05-01T09:28:04.546Z</time>
      </trkpt>
      <trkpt lat="41.06978" lon="20.57519">
        <ele>631.799463</ele>
        <time>2022-05-01T09:28:05.536Z</time>
      </trkpt>
      <trkpt lat="41.06973" lon="20.57507">
        <ele>631.629739</ele>
        <time>2022-05-01T09:28:06.561Z</time>
      </trkpt>
      <trkpt lat="41.06969" lon="20.57495">
        <ele>631.458857</ele>
        <time>2022-05-01T09:28:07.558Z</time>
      </trkpt>
      <trkpt lat="41.06964" lon="20.57484">
        <ele>631.287975</ele>
        <time>2022-05-01T09:28:08.587Z</time>
      </trkpt>
      <trkpt lat="41.0696" lon="20.57472">
        <ele>631.119382</ele>
        <time>2022-05-01T09:28:09.551Z</time>
      </trkpt>
      <trkpt lat="41.06956" lon="20.5746">
        <ele>630.95354</ele>
        <time>2022-05-01T09:28:10.539Z</time>
      </trkpt>
      <trkpt lat="41.06952" lon="20.57449">
        <ele>630.788768</ele>
        <time>2022-05-01T09:28:11.542Z</time>
      </trkpt>
      <trkpt lat="41.06948" lon="20.57437">
        <ele>630.623795</ele>
        <time>2022-05-01T09:28:12.552Z</time>
      </trkpt>
      <trkpt lat="41.06945" lon="20.57425">
        <ele>630.454575</ele>
        <time>2022-05-01T09:28:13.546Z</time>
      </trkpt>
      <trkpt lat="41.06942" lon="20.57413">
        <ele>630.287414</ele>
        <time>2022-05-01T09:28:14.579Z</time>
      </trkpt>
      <trkpt lat="41.0694" lon="20.574">
        <ele>630.122791</ele>
        <time>2022-05-01T09:28:15.550Z</time>
      </trkpt>
      <trkpt lat="41.06939" lon="20.57387">
        <ele>629.954518</ele>
        <time>2022-05-01T09:28:16.542Z</time>
      </trkpt>
      <trkpt lat="41.06938" lon="20.57375">
        <ele>629.791562</ele>
        <time>2022-05-01T09:28:17.558Z</time>
      </trkpt>
      <trkpt lat="41.06938" lon="20.57362">
        <ele>629.623589</ele>
        <time>2022-05-01T09:28:18.552Z</time>
      </trkpt>
      <trkpt lat="41.06937" lon="20.57349">
        <ele>629.457024</ele>
        <time>2022-05-01T09:28:19.539Z</time>
      </trkpt>
      <trkpt lat="41.06937" lon="20.57337">
        <ele>629.293096</ele>
        <time>2022-05-01T09:28:20.557Z</time>
      </trkpt>
      <trkpt lat="41.06937" lon="20.57324">
        <ele>629.127642</ele>
        <time>2022-05-01T09:28:21.557Z</time>
      </trkpt>
      <trkpt lat="41.06936" lon="20.57311">
        <ele>628.963569</ele>
        <time>2022-05-01T09:28:22.555Z</time>
      </trkpt>
      <trkpt lat="41.06936" lon="20.57298">
        <ele>628.858366</ele>
        <time>2022-05-01T09:28:23.628Z</time>
      </trkpt>
      <trkpt lat="41.06935" lon="20.57285">
        <ele>628.764927</ele>
        <time>2022-05-01T09:28:24.543Z</time>
      </trkpt>
      <trkpt lat="41.06935" lon="20.57272">
        <ele>628.67509</ele>
        <time>2022-05-01T09:28:25.597Z</time>
      </trkpt>
      <trkpt lat="41.06935" lon="20.5726">
        <ele>628.588177</ele>
        <time>2022-05-01T09:28:26.547Z</time>
      </trkpt>
      <trkpt lat="41.06934" lon="20.57248">
        <ele>628.500536</ele>
        <time>2022-05-01T09:28:27.556Z</time>
      </trkpt>
      <trkpt lat="41.06934" lon="20.57224">
        <ele>628.333064</ele>
        <time>2022-05-01T09:28:29.556Z</time>
      </trkpt>
      <trkpt lat="41.06933" lon="20.57201">
        <ele>628.168441</ele>
        <time>2022-05-01T09:28:31.554Z</time>
      </trkpt>
      <trkpt lat="41.06933" lon="20.57179">
        <ele>628.010296</ele>
        <time>2022-05-01T09:28:33.548Z</time>
      </trkpt>
      <trkpt lat="41.06933" lon="20.57158">
        <ele>627.8614</ele>
        <time>2022-05-01T09:28:35.552Z</time>
      </trkpt>
      <trkpt lat="41.06933" lon="20.57138">
        <ele>627.716778</ele>
        <time>2022-05-01T09:28:37.566Z</time>
      </trkpt>
      <trkpt lat="41.06933" lon="20.57118">
        <ele>627.57643</ele>
        <time>2022-05-01T09:28:39.541Z</time>
      </trkpt>
      <trkpt lat="41.06932" lon="20.57099">
        <ele>627.441631</ele>
        <time>2022-05-01T09:28:41.555Z</time>
      </trkpt>
      <trkpt lat="41.06932" lon="20.5708">
        <ele>627.308406</ele>
        <time>2022-05-01T09:28:43.574Z</time>
      </trkpt>
      <trkpt lat="41.06932" lon="20.57061">
        <ele>627.593717</ele>
        <time>2022-05-01T09:28:45.639Z</time>
      </trkpt>
      <trkpt lat="41.06932" lon="20.57043">
        <ele>628.213932</ele>
        <time>2022-05-01T09:28:47.547Z</time>
      </trkpt>
      <trkpt lat="41.06932" lon="20.57026">
        <ele>628.806455</ele>
        <time>2022-05-01T09:28:49.552Z</time>
      </trkpt>
      <trkpt lat="41.06932" lon="20.5701">
        <ele>629.368124</ele>
        <time>2022-05-01T09:28:51.551Z</time>
      </trkpt>
      <trkpt lat="41.06932" lon="20.56994">
        <ele>629.922737</ele>
        <time>2022-05-01T09:28:53.546Z</time>
      </trkpt>
      <trkpt lat="41.06932" lon="20.56978">
        <ele>630.460145</ele>
        <time>2022-05-01T09:28:55.546Z</time>
      </trkpt>
      <trkpt lat="41.06931" lon="20.56963">
        <ele>630.983934</ele>
        <time>2022-05-01T09:28:57.650Z</time>
      </trkpt>
      <trkpt lat="41.06931" lon="20.56949">
        <ele>631.483513</ele>
        <time>2022-05-01T09:28:59.578Z</time>
      </trkpt>
      <trkpt lat="41.06931" lon="20.56935">
        <ele>631.948763</ele>
        <time>2022-05-01T09:29:01.562Z</time>
      </trkpt>
      <trkpt lat="41.0693" lon="20.56923">
        <ele>632.366809</ele>
        <time>2022-05-01T09:29:03.546Z</time>
      </trkpt>
      <trkpt lat="41.0693" lon="20.56907">
        <ele>632.911394</ele>
        <time>2022-05-01T09:29:06.568Z</time>
      </trkpt>
      <trkpt lat="41.0693" lon="20.56893">
        <ele>633.386798</ele>
        <time>2022-05-01T09:29:09.552Z</time>
      </trkpt>
      <trkpt lat="41.0693" lon="20.56879">
        <ele>633.889822</ele>
        <time>2022-05-01T09:29:13.543Z</time>
      </trkpt>
      <trkpt lat="41.06929" lon="20.56865">
        <ele>634.373154</ele>
        <time>2022-05-01T09:29:18.559Z</time>
      </trkpt>
      <trkpt lat="41.06929" lon="20.5685">
        <ele>634.869731</ele>
        <time>2022-05-01T09:29:23.607Z</time>
      </trkpt>
      <trkpt lat="41.06928" lon="20.56838">
        <ele>635.285624</ele>
        <time>2022-05-01T09:29:27.540Z</time>
      </trkpt>
      <trkpt lat="41.06927" lon="20.56825">
        <ele>635.631499</ele>
        <time>2022-05-01T09:29:32.546Z</time>
      </trkpt>
      <trkpt lat="41.06927" lon="20.56813">
        <ele>635.893277</ele>
        <time>2022-05-01T09:29:37.546Z</time>
      </trkpt>
      <trkpt lat="41.06927" lon="20.56801">
        <ele>636.148601</ele>
        <time>2022-05-01T09:29:41.542Z</time>
      </trkpt>
      <trkpt lat="41.06927" lon="20.56786">
        <ele>636.454276</ele>
        <time>2022-05-01T09:29:46.566Z</time>
      </trkpt>
      <trkpt lat="41.06926" lon="20.56772">
        <ele>636.747954</ele>
        <time>2022-05-01T09:29:52.550Z</time>
      </trkpt>
      <trkpt lat="41.06926" lon="20.56759">
        <ele>637.026728</ele>
        <time>2022-05-01T09:29:57.555Z</time>
      </trkpt>
      <trkpt lat="41.06926" lon="20.56746">
        <ele>637.305011</ele>
        <time>2022-05-01T09:30:02.530Z</time>
      </trkpt>
      <trkpt lat="41.06926" lon="20.56733">
        <ele>637.570867</ele>
        <time>2022-05-01T09:30:07.555Z</time>
      </trkpt>
      <trkpt lat="41.06925" lon="20.56721">
        <ele>637.822726</ele>
        <time>2022-05-01T09:30:11.537Z</time>
      </trkpt>
      <trkpt lat="41.06925" lon="20.56707">
        <ele>638.118191</ele>
        <time>2022-05-01T09:30:16.546Z</time>
      </trkpt>
      <trkpt lat="41.06925" lon="20.56694">
        <ele>638.394578</ele>
        <time>2022-05-01T09:30:20.549Z</time>
      </trkpt>
      <trkpt lat="41.06925" lon="20.56679">
        <ele>638.717311</ele>
        <time>2022-05-01T09:30:24.546Z</time>
      </trkpt>
      <trkpt lat="41.06925" lon="20.56666">
        <ele>638.987162</ele>
        <time>2022-05-01T09:30:27.539Z</time>
      </trkpt>
      <trkpt lat="41.06925" lon="20.5665">
        <ele>639.322396</ele>
        <time>2022-05-01T09:30:30.566Z</time>
      </trkpt>
      <trkpt lat="41.06925" lon="20.56638">
        <ele>639.588016</ele>
        <time>2022-05-01T09:30:32.585Z</time>
      </trkpt>
      <trkpt lat="41.06925" lon="20.56623">
        <ele>639.889474</ele>
        <time>2022-05-01T09:30:34.554Z</time>
      </trkpt>
      <trkpt lat="41.06926" lon="20.56607">
        <ele>640.234468</ele>
        <time>2022-05-01T09:30:36.553Z</time>
      </trkpt>
      <trkpt lat="41.06929" lon="20.56588">
        <ele>640.292625</ele>
        <time>2022-05-01T09:30:38.577Z</time>
      </trkpt>
      <trkpt lat="41.06933" lon="20.56568">
        <ele>639.679364</ele>
        <time>2022-05-01T09:30:40.555Z</time>
      </trkpt>
      <trkpt lat="41.0694" lon="20.56546">
        <ele>638.968288</ele>
        <time>2022-05-01T09:30:42.546Z</time>
      </trkpt>
      <trkpt lat="41.06944" lon="20.56535">
        <ele>638.592009</ele>
        <time>2022-05-01T09:30:43.559Z</time>
      </trkpt>
      <trkpt lat="41.06949" lon="20.56524">
        <ele>638.210655</ele>
        <time>2022-05-01T09:30:44.584Z</time>
      </trkpt>
      <trkpt lat="41.06955" lon="20.56514">
        <ele>637.811836</ele>
        <time>2022-05-01T09:30:45.559Z</time>
      </trkpt>
      <trkpt lat="41.06962" lon="20.56503">
        <ele>637.395906</ele>
        <time>2022-05-01T09:30:46.555Z</time>
      </trkpt>
      <trkpt lat="41.06971" lon="20.56494">
        <ele>636.970135</ele>
        <time>2022-05-01T09:30:47.536Z</time>
      </trkpt>
      <trkpt lat="41.0698" lon="20.56487">
        <ele>636.547845</ele>
        <time>2022-05-01T09:30:48.534Z</time>
      </trkpt>
      <trkpt lat="41.06989" lon="20.5648">
        <ele>636.126217</ele>
        <time>2022-05-01T09:30:49.535Z</time>
      </trkpt>
      <trkpt lat="41.06999" lon="20.56473">
        <ele>635.707422</ele>
        <time>2022-05-01T09:30:50.538Z</time>
      </trkpt>
      <trkpt lat="41.07008" lon="20.56468">
        <ele>635.286653</ele>
        <time>2022-05-01T09:30:51.541Z</time>
      </trkpt>
      <trkpt lat="41.07018" lon="20.56462">
        <ele>634.867114</ele>
        <time>2022-05-01T09:30:52.569Z</time>
      </trkpt>
      <trkpt lat="41.07027" lon="20.56456">
        <ele>634.465615</ele>
        <time>2022-05-01T09:30:53.554Z</time>
      </trkpt>
      <trkpt lat="41.07037" lon="20.5645">
        <ele>634.056832</ele>
        <time>2022-05-01T09:30:54.571Z</time>
      </trkpt>
      <trkpt lat="41.07046" lon="20.56445">
        <ele>633.65162</ele>
        <time>2022-05-01T09:30:55.576Z</time>
      </trkpt>
      <trkpt lat="41.07055" lon="20.56439">
        <ele>633.423968</ele>
        <time>2022-05-01T09:30:56.534Z</time>
      </trkpt>
      <trkpt lat="41.07064" lon="20.56433">
        <ele>633.479685</ele>
        <time>2022-05-01T09:30:57.549Z</time>
      </trkpt>
      <trkpt lat="41.07072" lon="20.56427">
        <ele>633.533645</ele>
        <time>2022-05-01T09:30:58.552Z</time>
      </trkpt>
      <trkpt lat="41.0708" lon="20.56421">
        <ele>633.58529</ele>
        <time>2022-05-01T09:30:59.547Z</time>
      </trkpt>
      <trkpt lat="41.07094" lon="20.56408">
        <ele>633.683055</ele>
        <time>2022-05-01T09:31:01.574Z</time>
      </trkpt>
      <trkpt lat="41.07107" lon="20.56394">
        <ele>633.776423</ele>
        <time>2022-05-01T09:31:03.562Z</time>
      </trkpt>
      <trkpt lat="41.07117" lon="20.56379">
        <ele>633.865921</ele>
        <time>2022-05-01T09:31:05.557Z</time>
      </trkpt>
      <trkpt lat="41.07126" lon="20.56363">
        <ele>633.950129</ele>
        <time>2022-05-01T09:31:07.550Z</time>
      </trkpt>
      <trkpt lat="41.07134" lon="20.56349">
        <ele>634.026518</ele>
        <time>2022-05-01T09:31:09.554Z</time>
      </trkpt>
      <trkpt lat="41.0714" lon="20.56334">
        <ele>634.097797</ele>
        <time>2022-05-01T09:31:11.558Z</time>
      </trkpt>
      <trkpt lat="41.07145" lon="20.56321">
        <ele>634.161011</ele>
        <time>2022-05-01T09:31:13.549Z</time>
      </trkpt>
      <trkpt lat="41.07149" lon="20.56309">
        <ele>634.21923</ele>
        <time>2022-05-01T09:31:15.557Z</time>
      </trkpt>
      <trkpt lat="41.07152" lon="20.56296">
        <ele>634.274606</ele>
        <time>2022-05-01T09:31:17.587Z</time>
      </trkpt>
      <trkpt lat="41.07155" lon="20.56285">
        <ele>634.327264</ele>
        <time>2022-05-01T09:31:19.545Z</time>
      </trkpt>
      <trkpt lat="41.07157" lon="20.56273">
        <ele>634.379576</ele>
        <time>2022-05-01T09:31:21.557Z</time>
      </trkpt>
      <trkpt lat="41.07159" lon="20.56261">
        <ele>634.421137</ele>
        <time>2022-05-01T09:31:23.555Z</time>
      </trkpt>
      <trkpt lat="41.0716" lon="20.56249">
        <ele>634.240209</ele>
        <time>2022-05-01T09:31:25.539Z</time>
      </trkpt>
      <trkpt lat="41.07161" lon="20.56236">
        <ele>634.055151</ele>
        <time>2022-05-01T09:31:27.542Z</time>
      </trkpt>
      <trkpt lat="41.07162" lon="20.56223">
        <ele>633.869035</ele>
        <time>2022-05-01T09:31:29.549Z</time>
      </trkpt>
      <trkpt lat="41.07162" lon="20.56209">
        <ele>633.665733</ele>
        <time>2022-05-01T09:31:31.611Z</time>
      </trkpt>
      <trkpt lat="41.07161" lon="20.56194">
        <ele>633.440364</ele>
        <time>2022-05-01T09:31:33.550Z</time>
      </trkpt>
      <trkpt lat="41.0716" lon="20.56178">
        <ele>633.209958</ele>
        <time>2022-05-01T09:31:35.531Z</time>
      </trkpt>
      <trkpt lat="41.07159" lon="20.56161">
        <ele>632.96684</ele>
        <time>2022-05-01T09:31:37.553Z</time>
      </trkpt>
      <trkpt lat="41.07158" lon="20.56145">
        <ele>632.732412</ele>
        <time>2022-05-01T09:31:39.550Z</time>
      </trkpt>
      <trkpt lat="41.07157" lon="20.56128">
        <ele>632.486398</ele>
        <time>2022-05-01T09:31:41.548Z</time>
      </trkpt>
      <trkpt lat="41.07157" lon="20.56111">
        <ele>632.233552</ele>
        <time>2022-05-01T09:31:43.552Z</time>
      </trkpt>
      <trkpt lat="41.07156" lon="20.56093">
        <ele>631.97047</ele>
        <time>2022-05-01T09:31:45.540Z</time>
      </trkpt>
      <trkpt lat="41.07155" lon="20.56074">
        <ele>631.700045</ele>
        <time>2022-05-01T09:31:47.536Z</time>
      </trkpt>
      <trkpt lat="41.07154" lon="20.56056">
        <ele>631.426076</ele>
        <time>2022-05-01T09:31:49.590Z</time>
      </trkpt>
      <trkpt lat="41.07153" lon="20.56037">
        <ele>631.154829</ele>
        <time>2022-05-01T09:31:51.554Z</time>
      </trkpt>
      <trkpt lat="41.07152" lon="20.56018">
        <ele>630.909293</ele>
        <time>2022-05-01T09:31:53.587Z</time>
      </trkpt>
      <trkpt lat="41.07152" lon="20.56">
        <ele>630.726145</ele>
        <time>2022-05-01T09:31:55.575Z</time>
      </trkpt>
      <trkpt lat="41.07152" lon="20.55982">
        <ele>630.542996</ele>
        <time>2022-05-01T09:31:57.556Z</time>
      </trkpt>
      <trkpt lat="41.07152" lon="20.55964">
        <ele>630.356818</ele>
        <time>2022-05-01T09:31:59.564Z</time>
      </trkpt>
      <trkpt lat="41.07151" lon="20.55945">
        <ele>630.164268</ele>
        <time>2022-05-01T09:32:01.591Z</time>
      </trkpt>
      <trkpt lat="41.0715" lon="20.55927">
        <ele>629.980531</ele>
        <time>2022-05-01T09:32:03.538Z</time>
      </trkpt>
      <trkpt lat="41.07149" lon="20.55909">
        <ele>629.799923</ele>
        <time>2022-05-01T09:32:05.529Z</time>
      </trkpt>
      <trkpt lat="41.07147" lon="20.5589">
        <ele>629.604315</ele>
        <time>2022-05-01T09:32:07.544Z</time>
      </trkpt>
      <trkpt lat="41.07146" lon="20.55872">
        <ele>629.423363</ele>
        <time>2022-05-01T09:32:09.542Z</time>
      </trkpt>
      <trkpt lat="41.07145" lon="20.55855">
        <ele>629.246155</ele>
        <time>2022-05-01T09:32:11.555Z</time>
      </trkpt>
      <trkpt lat="41.07143" lon="20.55837">
        <ele>629.068445</ele>
        <time>2022-05-01T09:32:13.563Z</time>
      </trkpt>
      <trkpt lat="41.07141" lon="20.5582">
        <ele>628.894403</ele>
        <time>2022-05-01T09:32:15.544Z</time>
      </trkpt>
      <trkpt lat="41.0714" lon="20.55804">
        <ele>628.728405</ele>
        <time>2022-05-01T09:32:17.558Z</time>
      </trkpt>
      <trkpt lat="41.07139" lon="20.5579">
        <ele>628.58735</ele>
        <time>2022-05-01T09:32:19.546Z</time>
      </trkpt>
      <trkpt lat="41.07138" lon="20.55774">
        <ele>628.503506</ele>
        <time>2022-05-01T09:32:21.558Z</time>
      </trkpt>
      <trkpt lat="41.07135" lon="20.5576">
        <ele>628.445601</ele>
        <time>2022-05-01T09:32:23.534Z</time>
      </trkpt>
      <trkpt lat="41.07133" lon="20.55745">
        <ele>628.38959</ele>
        <time>2022-05-01T09:32:25.585Z</time>
      </trkpt>
      <trkpt lat="41.0713" lon="20.5573">
        <ele>628.330133</ele>
        <time>2022-05-01T09:32:27.549Z</time>
      </trkpt>
      <trkpt lat="41.07127" lon="20.55716">
        <ele>628.272643</ele>
        <time>2022-05-01T09:32:29.543Z</time>
      </trkpt>
      <trkpt lat="41.07124" lon="20.55702">
        <ele>628.216918</ele>
        <time>2022-05-01T09:32:31.543Z</time>
      </trkpt>
      <trkpt lat="41.07121" lon="20.55688">
        <ele>628.158461</ele>
        <time>2022-05-01T09:32:33.548Z</time>
      </trkpt>
      <trkpt lat="41.07117" lon="20.55674">
        <ele>628.100943</ele>
        <time>2022-05-01T09:32:35.600Z</time>
      </trkpt>
      <trkpt lat="41.07114" lon="20.5566">
        <ele>628.046099</ele>
        <time>2022-05-01T09:32:37.543Z</time>
      </trkpt>
      <trkpt lat="41.07111" lon="20.55646">
        <ele>627.990374</ele>
        <time>2022-05-01T09:32:39.551Z</time>
      </trkpt>
      <trkpt lat="41.07108" lon="20.55633">
        <ele>627.937169</ele>
        <time>2022-05-01T09:32:41.572Z</time>
      </trkpt>
      <trkpt lat="41.07105" lon="20.5562">
        <ele>627.883303</ele>
        <time>2022-05-01T09:32:43.533Z</time>
      </trkpt>
      <trkpt lat="41.07102" lon="20.55604">
        <ele>627.821974</ele>
        <time>2022-05-01T09:32:45.555Z</time>
      </trkpt>
      <trkpt lat="41.07098" lon="20.55587">
        <ele>627.75322</ele>
        <time>2022-05-01T09:32:47.557Z</time>
      </trkpt>
      <trkpt lat="41.07093" lon="20.55569">
        <ele>627.677112</ele>
        <time>2022-05-01T09:32:49.546Z</time>
      </trkpt>
      <trkpt lat="41.07088" lon="20.55547">
        <ele>627.480122</ele>
        <time>2022-05-01T09:32:51.543Z</time>
      </trkpt>
      <trkpt lat="41.07086" lon="20.55535">
        <ele>627.302373</ele>
        <time>2022-05-01T09:32:52.542Z</time>
      </trkpt>
      <trkpt lat="41.07084" lon="20.55523">
        <ele>627.118448</ele>
        <time>2022-05-01T09:32:53.559Z</time>
      </trkpt>
      <trkpt lat="41.07082" lon="20.5551">
        <ele>626.926758</ele>
        <time>2022-05-01T09:32:54.552Z</time>
      </trkpt>
      <trkpt lat="41.0708" lon="20.55497">
        <ele>626.73793</ele>
        <time>2022-05-01T09:32:55.577Z</time>
      </trkpt>
      <trkpt lat="41.07078" lon="20.55484">
        <ele>626.545168</ele>
        <time>2022-05-01T09:32:56.583Z</time>
      </trkpt>
      <trkpt lat="41.07077" lon="20.55471">
        <ele>626.34643</ele>
        <time>2022-05-01T09:32:57.560Z</time>
      </trkpt>
      <trkpt lat="41.07076" lon="20.55457">
        <ele>626.149137</ele>
        <time>2022-05-01T09:32:58.543Z</time>
      </trkpt>
      <trkpt lat="41.07074" lon="20.55444">
        <ele>625.951844</ele>
        <time>2022-05-01T09:32:59.557Z</time>
      </trkpt>
      <trkpt lat="41.07073" lon="20.55431">
        <ele>625.759613</ele>
        <time>2022-05-01T09:33:00.549Z</time>
      </trkpt>
      <trkpt lat="41.07072" lon="20.55418">
        <ele>625.572947</ele>
        <time>2022-05-01T09:33:01.560Z</time>
      </trkpt>
      <trkpt lat="41.07071" lon="20.55406">
        <ele>625.390622</ele>
        <time>2022-05-01T09:33:02.539Z</time>
      </trkpt>
      <trkpt lat="41.0707" lon="20.55394">
        <ele>625.215998</ele>
        <time>2022-05-01T09:33:03.541Z</time>
      </trkpt>
      <trkpt lat="41.07067" lon="20.55372">
        <ele>624.893486</ele>
        <time>2022-05-01T09:33:05.539Z</time>
      </trkpt>
      <trkpt lat="41.07063" lon="20.55352">
        <ele>624.596891</ele>
        <time>2022-05-01T09:33:07.583Z</time>
      </trkpt>
      <trkpt lat="41.07059" lon="20.55333">
        <ele>624.301125</ele>
        <time>2022-05-01T09:33:09.553Z</time>
      </trkpt>
      <trkpt lat="41.07055" lon="20.55313">
        <ele>624.059605</ele>
        <time>2022-05-01T09:33:11.551Z</time>
      </trkpt>
      <trkpt lat="41.07051" lon="20.55295">
        <ele>623.88483</ele>
        <time>2022-05-01T09:33:13.556Z</time>
      </trkpt>
      <trkpt lat="41.07047" lon="20.55275">
        <ele>623.700618</ele>
        <time>2022-05-01T09:33:15.559Z</time>
      </trkpt>
      <trkpt lat="41.07043" lon="20.55254">
        <ele>623.508359</ele>
        <time>2022-05-01T09:33:17.555Z</time>
      </trkpt>
      <trkpt lat="41.07039" lon="20.55234">
        <ele>623.321061</ele>
        <time>2022-05-01T09:33:19.541Z</time>
      </trkpt>
      <trkpt lat="41.07035" lon="20.55214">
        <ele>623.136925</ele>
        <time>2022-05-01T09:33:21.530Z</time>
      </trkpt>
      <trkpt lat="41.07031" lon="20.55195">
        <ele>622.957166</ele>
        <time>2022-05-01T09:33:23.559Z</time>
      </trkpt>
      <trkpt lat="41.07027" lon="20.55176">
        <ele>622.777952</ele>
        <time>2022-05-01T09:33:25.546Z</time>
      </trkpt>
      <trkpt lat="41.07024" lon="20.55158">
        <ele>622.607279</ele>
        <time>2022-05-01T09:33:27.565Z</time>
      </trkpt>
      <trkpt lat="41.0702" lon="20.5514">
        <ele>622.440986</ele>
        <time>2022-05-01T09:33:29.553Z</time>
      </trkpt>
      <trkpt lat="41.07017" lon="20.55122">
        <ele>622.27436</ele>
        <time>2022-05-01T09:33:31.556Z</time>
      </trkpt>
      <trkpt lat="41.07014" lon="20.55104">
        <ele>622.110102</ele>
        <time>2022-05-01T09:33:33.551Z</time>
      </trkpt>
      <trkpt lat="41.07011" lon="20.55088">
        <ele>621.993695</ele>
        <time>2022-05-01T09:33:35.555Z</time>
      </trkpt>
      <trkpt lat="41.07008" lon="20.55071">
        <ele>621.984756</ele>
        <time>2022-05-01T09:33:37.553Z</time>
      </trkpt>
      <trkpt lat="41.07005" lon="20.55056">
        <ele>621.976853</ele>
        <time>2022-05-01T09:33:39.543Z</time>
      </trkpt>
      <trkpt lat="41.07002" lon="20.55042">
        <ele>621.969317</ele>
        <time>2022-05-01T09:33:41.573Z</time>
      </trkpt>
      <trkpt lat="41.06998" lon="20.55029">
        <ele>621.962247</ele>
        <time>2022-05-01T09:33:43.560Z</time>
      </trkpt>
      <trkpt lat="41.06994" lon="20.55013">
        <ele>621.953567</ele>
        <time>2022-05-01T09:33:46.546Z</time>
      </trkpt>
      <trkpt lat="41.0699" lon="20.55001">
        <ele>621.946867</ele>
        <time>2022-05-01T09:33:48.559Z</time>
      </trkpt>
      <trkpt lat="41.06984" lon="20.54989">
        <ele>621.939209</ele>
        <time>2022-05-01T09:33:50.571Z</time>
      </trkpt>
      <trkpt lat="41.06981" lon="20.54976">
        <ele>621.932206</ele>
        <time>2022-05-01T09:33:52.576Z</time>
      </trkpt>
      <trkpt lat="41.06976" lon="20.54964">
        <ele>621.925226</ele>
        <time>2022-05-01T09:33:54.562Z</time>
      </trkpt>
      <trkpt lat="41.06969" lon="20.54948">
        <ele>621.91578</ele>
        <time>2022-05-01T09:33:57.550Z</time>
      </trkpt>
      <trkpt lat="41.06964" lon="20.54935">
        <ele>621.908103</ele>
        <time>2022-05-01T09:33:59.579Z</time>
      </trkpt>
      <trkpt lat="41.06959" lon="20.54922">
        <ele>621.900924</ele>
        <time>2022-05-01T09:34:01.558Z</time>
      </trkpt>
      <trkpt lat="41.06955" lon="20.5491">
        <ele>621.893968</ele>
        <time>2022-05-01T09:34:03.533Z</time>
      </trkpt>
      <trkpt lat="41.06951" lon="20.54897">
        <ele>621.886882</ele>
        <time>2022-05-01T09:34:05.547Z</time>
      </trkpt>
      <trkpt lat="41.06947" lon="20.54884">
        <ele>621.879523</ele>
        <time>2022-05-01T09:34:07.548Z</time>
      </trkpt>
      <trkpt lat="41.06943" lon="20.54872">
        <ele>621.863966</ele>
        <time>2022-05-01T09:34:09.551Z</time>
      </trkpt>
      <trkpt lat="41.06939" lon="20.54859">
        <ele>621.724274</ele>
        <time>2022-05-01T09:34:11.547Z</time>
      </trkpt>
      <trkpt lat="41.06934" lon="20.54847">
        <ele>621.583728</ele>
        <time>2022-05-01T09:34:13.535Z</time>
      </trkpt>
      <trkpt lat="41.06929" lon="20.54834">
        <ele>621.437526</ele>
        <time>2022-05-01T09:34:15.554Z</time>
      </trkpt>
      <trkpt lat="41.06924" lon="20.54821">
        <ele>621.293443</ele>
        <time>2022-05-01T09:34:17.509Z</time>
      </trkpt>
      <trkpt lat="41.06919" lon="20.54808">
        <ele>621.14818</ele>
        <time>2022-05-01T09:34:19.534Z</time>
      </trkpt>
      <trkpt lat="41.06914" lon="20.54795">
        <ele>621.006781</ele>
        <time>2022-05-01T09:34:21.514Z</time>
      </trkpt>
      <trkpt lat="41.06909" lon="20.54784">
        <ele>620.87235</ele>
        <time>2022-05-01T09:34:23.527Z</time>
      </trkpt>
      <trkpt lat="41.06903" lon="20.54773">
        <ele>620.740318</ele>
        <time>2022-05-01T09:34:25.530Z</time>
      </trkpt>
      <trkpt lat="41.06897" lon="20.54762">
        <ele>620.605429</ele>
        <time>2022-05-01T09:34:27.562Z</time>
      </trkpt>
      <trkpt lat="41.06893" lon="20.54751">
        <ele>620.482322</ele>
        <time>2022-05-01T09:34:29.580Z</time>
      </trkpt>
      <trkpt lat="41.06887" lon="20.5474">
        <ele>620.351128</ele>
        <time>2022-05-01T09:34:31.552Z</time>
      </trkpt>
      <trkpt lat="41.06881" lon="20.54728">
        <ele>620.203578</ele>
        <time>2022-05-01T09:34:33.575Z</time>
      </trkpt>
      <trkpt lat="41.06875" lon="20.54715">
        <ele>620.053782</ele>
        <time>2022-05-01T09:34:35.553Z</time>
      </trkpt>
      <trkpt lat="41.0687" lon="20.54702">
        <ele>619.908925</ele>
        <time>2022-05-01T09:34:37.534Z</time>
      </trkpt>
      <trkpt lat="41.06864" lon="20.5469">
        <ele>619.761777</ele>
        <time>2022-05-01T09:34:39.554Z</time>
      </trkpt>
      <trkpt lat="41.06857" lon="20.54678">
        <ele>619.611583</ele>
        <time>2022-05-01T09:34:41.552Z</time>
      </trkpt>
      <trkpt lat="41.06852" lon="20.54665">
        <ele>619.458849</ele>
        <time>2022-05-01T09:34:43.564Z</time>
      </trkpt>
      <trkpt lat="41.06846" lon="20.54653">
        <ele>619.240027</ele>
        <time>2022-05-01T09:34:45.593Z</time>
      </trkpt>
      <trkpt lat="41.06841" lon="20.54641">
        <ele>619.026593</ele>
        <time>2022-05-01T09:34:47.534Z</time>
      </trkpt>
      <trkpt lat="41.06836" lon="20.5463">
        <ele>618.812109</ele>
        <time>2022-05-01T09:34:49.541Z</time>
      </trkpt>
      <trkpt lat="41.0683" lon="20.54618">
        <ele>618.606075</ele>
        <time>2022-05-01T09:34:51.558Z</time>
      </trkpt>
      <trkpt lat="41.06825" lon="20.54606">
        <ele>618.389991</ele>
        <time>2022-05-01T09:34:53.558Z</time>
      </trkpt>
      <trkpt lat="41.06819" lon="20.54594">
        <ele>618.170191</ele>
        <time>2022-05-01T09:34:55.549Z</time>
      </trkpt>
      <trkpt lat="41.06814" lon="20.54582">
        <ele>617.951724</ele>
        <time>2022-05-01T09:34:57.576Z</time>
      </trkpt>
      <trkpt lat="41.06809" lon="20.5457">
        <ele>617.739323</ele>
        <time>2022-05-01T09:34:59.565Z</time>
      </trkpt>
      <trkpt lat="41.06803" lon="20.54558">
        <ele>617.521556</ele>
        <time>2022-05-01T09:35:01.539Z</time>
      </trkpt>
      <trkpt lat="41.06798" lon="20.54546">
        <ele>617.307323</ele>
        <time>2022-05-01T09:35:03.545Z</time>
      </trkpt>
      <trkpt lat="41.06794" lon="20.54534">
        <ele>617.10721</ele>
        <time>2022-05-01T09:35:05.544Z</time>
      </trkpt>
      <trkpt lat="41.06789" lon="20.54522">
        <ele>616.902034</ele>
        <time>2022-05-01T09:35:07.547Z</time>
      </trkpt>
      <trkpt lat="41.06785" lon="20.5451">
        <ele>616.692664</ele>
        <time>2022-05-01T09:35:09.574Z</time>
      </trkpt>
      <trkpt lat="41.0678" lon="20.54497">
        <ele>616.464809</ele>
        <time>2022-05-01T09:35:11.546Z</time>
      </trkpt>
      <trkpt lat="41.06774" lon="20.54484">
        <ele>616.228107</ele>
        <time>2022-05-01T09:35:13.541Z</time>
      </trkpt>
      <trkpt lat="41.06768" lon="20.5447">
        <ele>615.98745</ele>
        <time>2022-05-01T09:35:15.555Z</time>
      </trkpt>
      <trkpt lat="41.06763" lon="20.54457">
        <ele>615.777071</ele>
        <time>2022-05-01T09:35:17.572Z</time>
      </trkpt>
      <trkpt lat="41.06758" lon="20.54443">
        <ele>615.653943</ele>
        <time>2022-05-01T09:35:19.572Z</time>
      </trkpt>
      <trkpt lat="41.06753" lon="20.5443">
        <ele>615.531519</ele>
        <time>2022-05-01T09:35:21.533Z</time>
      </trkpt>
      <trkpt lat="41.06748" lon="20.54416">
        <ele>615.409555</ele>
        <time>2022-05-01T09:35:23.569Z</time>
      </trkpt>
      <trkpt lat="41.06743" lon="20.54402">
        <ele>615.286856</ele>
        <time>2022-05-01T09:35:25.547Z</time>
      </trkpt>
      <trkpt lat="41.06738" lon="20.54388">
        <ele>615.162229</ele>
        <time>2022-05-01T09:35:27.550Z</time>
      </trkpt>
      <trkpt lat="41.06734" lon="20.54374">
        <ele>615.038694</ele>
        <time>2022-05-01T09:35:29.565Z</time>
      </trkpt>
      <trkpt lat="41.06729" lon="20.54361">
        <ele>614.917321</ele>
        <time>2022-05-01T09:35:31.556Z</time>
      </trkpt>
      <trkpt lat="41.06726" lon="20.54347">
        <ele>614.799589</ele>
        <time>2022-05-01T09:35:33.555Z</time>
      </trkpt>
      <trkpt lat="41.06721" lon="20.54332">
        <ele>614.670223</ele>
        <time>2022-05-01T09:35:35.542Z</time>
      </trkpt>
      <trkpt lat="41.06716" lon="20.54318">
        <ele>614.540542</ele>
        <time>2022-05-01T09:35:37.546Z</time>
      </trkpt>
      <trkpt lat="41.06711" lon="20.54304">
        <ele>614.414512</ele>
        <time>2022-05-01T09:35:39.534Z</time>
      </trkpt>
      <trkpt lat="41.06705" lon="20.5429">
        <ele>614.285282</ele>
        <time>2022-05-01T09:35:41.532Z</time>
      </trkpt>
      <trkpt lat="41.067" lon="20.54275">
        <ele>614.154135</ele>
        <time>2022-05-01T09:35:43.550Z</time>
      </trkpt>
      <trkpt lat="41.06695" lon="20.54261">
        <ele>614.02892</ele>
        <time>2022-05-01T09:35:45.552Z</time>
      </trkpt>
      <trkpt lat="41.06691" lon="20.54248">
        <ele>613.908594</ele>
        <time>2022-05-01T09:35:47.549Z</time>
      </trkpt>
      <trkpt lat="41.06687" lon="20.54234">
        <ele>613.859167</ele>
        <time>2022-05-01T09:35:49.546Z</time>
      </trkpt>
      <trkpt lat="41.06683" lon="20.54221">
        <ele>613.846856</ele>
        <time>2022-05-01T09:35:51.561Z</time>
      </trkpt>
      <trkpt lat="41.06679" lon="20.54206">
        <ele>613.833915</ele>
        <time>2022-05-01T09:35:53.549Z</time>
      </trkpt>
      <trkpt lat="41.06675" lon="20.54192">
        <ele>613.820896</ele>
        <time>2022-05-01T09:35:55.586Z</time>
      </trkpt>
      <trkpt lat="41.06671" lon="20.54178">
        <ele>613.808188</ele>
        <time>2022-05-01T09:35:57.569Z</time>
      </trkpt>
      <trkpt lat="41.06667" lon="20.54164">
        <ele>613.795745</ele>
        <time>2022-05-01T09:35:59.537Z</time>
      </trkpt>
      <trkpt lat="41.06664" lon="20.54149">
        <ele>613.783141</ele>
        <time>2022-05-01T09:36:01.559Z</time>
      </trkpt>
      <trkpt lat="41.0666" lon="20.54135">
        <ele>613.770157</ele>
        <time>2022-05-01T09:36:03.546Z</time>
      </trkpt>
      <trkpt lat="41.06657" lon="20.5412">
        <ele>613.757199</ele>
        <time>2022-05-01T09:36:05.543Z</time>
      </trkpt>
      <trkpt lat="41.06654" lon="20.54105">
        <ele>613.744479</ele>
        <time>2022-05-01T09:36:07.549Z</time>
      </trkpt>
      <trkpt lat="41.06651" lon="20.54091">
        <ele>613.731815</ele>
        <time>2022-05-01T09:36:09.546Z</time>
      </trkpt>
      <trkpt lat="41.06649" lon="20.54076">
        <ele>613.718948</ele>
        <time>2022-05-01T09:36:11.528Z</time>
      </trkpt>
      <trkpt lat="41.06646" lon="20.54061">
        <ele>613.706164</ele>
        <time>2022-05-01T09:36:13.544Z</time>
      </trkpt>
      <trkpt lat="41.06644" lon="20.54046">
        <ele>613.693295</ele>
        <time>2022-05-01T09:36:15.566Z</time>
      </trkpt>
      <trkpt lat="41.06642" lon="20.54031">
        <ele>613.680863</ele>
        <time>2022-05-01T09:36:17.534Z</time>
      </trkpt>
      <trkpt lat="41.0664" lon="20.54017">
        <ele>613.668677</ele>
        <time>2022-05-01T09:36:19.538Z</time>
      </trkpt>
      <trkpt lat="41.06638" lon="20.54004">
        <ele>613.680143</ele>
        <time>2022-05-01T09:36:21.551Z</time>
      </trkpt>
      <trkpt lat="41.06635" lon="20.5399">
        <ele>613.698496</ele>
        <time>2022-05-01T09:36:23.591Z</time>
      </trkpt>
      <trkpt lat="41.06632" lon="20.53976">
        <ele>613.717949</ele>
        <time>2022-05-01T09:36:25.558Z</time>
      </trkpt>
      <trkpt lat="41.0663" lon="20.53962">
        <ele>613.737319</ele>
        <time>2022-05-01T09:36:27.546Z</time>
      </trkpt>
      <trkpt lat="41.06627" lon="20.53947">
        <ele>613.756984</ele>
        <time>2022-05-01T09:36:29.553Z</time>
      </trkpt>
      <trkpt lat="41.06624" lon="20.53933">
        <ele>613.776059</ele>
        <time>2022-05-01T09:36:31.640Z</time>
      </trkpt>
      <trkpt lat="41.06622" lon="20.53919">
        <ele>613.795058</ele>
        <time>2022-05-01T09:36:33.559Z</time>
      </trkpt>
      <trkpt lat="41.0662" lon="20.53905">
        <ele>613.813765</ele>
        <time>2022-05-01T09:36:35.537Z</time>
      </trkpt>
      <trkpt lat="41.06618" lon="20.53891">
        <ele>613.832181</ele>
        <time>2022-05-01T09:36:37.543Z</time>
      </trkpt>
      <trkpt lat="41.06616" lon="20.53877">
        <ele>613.850797</ele>
        <time>2022-05-01T09:36:39.547Z</time>
      </trkpt>
      <trkpt lat="41.06613" lon="20.53863">
        <ele>613.86949</ele>
        <time>2022-05-01T09:36:41.550Z</time>
      </trkpt>
      <trkpt lat="41.06611" lon="20.53849">
        <ele>613.888233</ele>
        <time>2022-05-01T09:36:43.541Z</time>
      </trkpt>
      <trkpt lat="41.06609" lon="20.53835">
        <ele>613.906912</ele>
        <time>2022-05-01T09:36:45.568Z</time>
      </trkpt>
      <trkpt lat="41.06607" lon="20.5382">
        <ele>613.926264</ele>
        <time>2022-05-01T09:36:47.557Z</time>
      </trkpt>
      <trkpt lat="41.06605" lon="20.53805">
        <ele>613.946195</ele>
        <time>2022-05-01T09:36:49.532Z</time>
      </trkpt>
      <trkpt lat="41.06603" lon="20.53791">
        <ele>613.965478</ele>
        <time>2022-05-01T09:36:51.543Z</time>
      </trkpt>
      <trkpt lat="41.066" lon="20.53776">
        <ele>613.944661</ele>
        <time>2022-05-01T09:36:53.549Z</time>
      </trkpt>
      <trkpt lat="41.06598" lon="20.53762">
        <ele>613.848922</ele>
        <time>2022-05-01T09:36:55.542Z</time>
      </trkpt>
      <trkpt lat="41.06595" lon="20.53748">
        <ele>613.752752</ele>
        <time>2022-05-01T09:36:57.537Z</time>
      </trkpt>
      <trkpt lat="41.06593" lon="20.53734">
        <ele>613.655408</ele>
        <time>2022-05-01T09:36:59.554Z</time>
      </trkpt>
      <trkpt lat="41.06591" lon="20.53721">
        <ele>613.564773</ele>
        <time>2022-05-01T09:37:01.577Z</time>
      </trkpt>
      <trkpt lat="41.06588" lon="20.53707">
        <ele>613.46946</ele>
        <time>2022-05-01T09:37:03.540Z</time>
      </trkpt>
      <trkpt lat="41.06586" lon="20.53693">
        <ele>613.372288</ele>
        <time>2022-05-01T09:37:05.540Z</time>
      </trkpt>
      <trkpt lat="41.06584" lon="20.53678">
        <ele>613.271777</ele>
        <time>2022-05-01T09:37:07.556Z</time>
      </trkpt>
      <trkpt lat="41.06581" lon="20.53662">
        <ele>613.162019</ele>
        <time>2022-05-01T09:37:09.538Z</time>
      </trkpt>
      <trkpt lat="41.06578" lon="20.53646">
        <ele>613.050962</ele>
        <time>2022-05-01T09:37:11.561Z</time>
      </trkpt>
      <trkpt lat="41.06574" lon="20.53629">
        <ele>612.934941</ele>
        <time>2022-05-01T09:37:13.560Z</time>
      </trkpt>
      <trkpt lat="41.06571" lon="20.53612">
        <ele>612.814999</ele>
        <time>2022-05-01T09:37:15.553Z</time>
      </trkpt>
      <trkpt lat="41.06567" lon="20.53594">
        <ele>612.692003</ele>
        <time>2022-05-01T09:37:17.587Z</time>
      </trkpt>
      <trkpt lat="41.06563" lon="20.53577">
        <ele>612.573175</ele>
        <time>2022-05-01T09:37:19.552Z</time>
      </trkpt>
      <trkpt lat="41.0656" lon="20.53559">
        <ele>612.448735</ele>
        <time>2022-05-01T09:37:21.556Z</time>
      </trkpt>
      <trkpt lat="41.06555" lon="20.53541">
        <ele>612.260507</ele>
        <time>2022-05-01T09:37:23.595Z</time>
      </trkpt>
      <trkpt lat="41.0655" lon="20.53523">
        <ele>612.011391</ele>
        <time>2022-05-01T09:37:25.537Z</time>
      </trkpt>
      <trkpt lat="41.06545" lon="20.53506">
        <ele>611.761643</ele>
        <time>2022-05-01T09:37:27.548Z</time>
      </trkpt>
      <trkpt lat="41.0654" lon="20.53489">
        <ele>611.51398</ele>
        <time>2022-05-01T09:37:29.544Z</time>
      </trkpt>
      <trkpt lat="41.06534" lon="20.53472">
        <ele>611.275048</ele>
        <time>2022-05-01T09:37:31.553Z</time>
      </trkpt>
      <trkpt lat="41.06528" lon="20.53457">
        <ele>611.046681</ele>
        <time>2022-05-01T09:37:33.535Z</time>
      </trkpt>
      <trkpt lat="41.06523" lon="20.53442">
        <ele>610.822281</ele>
        <time>2022-05-01T09:37:35.535Z</time>
      </trkpt>
      <trkpt lat="41.06517" lon="20.53428">
        <ele>610.612556</ele>
        <time>2022-05-01T09:37:37.567Z</time>
      </trkpt>
      <trkpt lat="41.06512" lon="20.53415">
        <ele>610.414309</ele>
        <time>2022-05-01T09:37:39.559Z</time>
      </trkpt>
      <trkpt lat="41.06506" lon="20.53401">
        <ele>610.198419</ele>
        <time>2022-05-01T09:37:41.552Z</time>
      </trkpt>
      <trkpt lat="41.06501" lon="20.53388">
        <ele>610.008512</ele>
        <time>2022-05-01T09:37:43.560Z</time>
      </trkpt>
      <trkpt lat="41.06496" lon="20.53376">
        <ele>609.825329</ele>
        <time>2022-05-01T09:37:45.593Z</time>
      </trkpt>
      <trkpt lat="41.06492" lon="20.53363">
        <ele>609.638968</ele>
        <time>2022-05-01T09:37:47.549Z</time>
      </trkpt>
      <trkpt lat="41.06487" lon="20.53351">
        <ele>609.456964</ele>
        <time>2022-05-01T09:37:49.543Z</time>
      </trkpt>
      <trkpt lat="41.06481" lon="20.53339">
        <ele>609.269792</ele>
        <time>2022-05-01T09:37:51.570Z</time>
      </trkpt>
      <trkpt lat="41.06476" lon="20.53327">
        <ele>609.228175</ele>
        <time>2022-05-01T09:37:53.545Z</time>
      </trkpt>
      <trkpt lat="41.06471" lon="20.53315">
        <ele>609.252747</ele>
        <time>2022-05-01T09:37:55.527Z</time>
      </trkpt>
      <trkpt lat="41.06466" lon="20.53304">
        <ele>609.275771</ele>
        <time>2022-05-01T09:37:57.525Z</time>
      </trkpt>
      <trkpt lat="41.06461" lon="20.53291">
        <ele>609.299704</ele>
        <time>2022-05-01T09:37:59.551Z</time>
      </trkpt>
      <trkpt lat="41.06456" lon="20.53279">
        <ele>609.324209</ele>
        <time>2022-05-01T09:38:01.547Z</time>
      </trkpt>
      <trkpt lat="41.06451" lon="20.53267">
        <ele>609.347988</ele>
        <time>2022-05-01T09:38:03.549Z</time>
      </trkpt>
      <trkpt lat="41.06448" lon="20.53255">
        <ele>609.370701</ele>
        <time>2022-05-01T09:38:05.556Z</time>
      </trkpt>
      <trkpt lat="41.06443" lon="20.53243">
        <ele>609.394994</ele>
        <time>2022-05-01T09:38:07.555Z</time>
      </trkpt>
      <trkpt lat="41.06437" lon="20.53229">
        <ele>609.42166</ele>
        <time>2022-05-01T09:38:09.555Z</time>
      </trkpt>
      <trkpt lat="41.06432" lon="20.53216">
        <ele>609.448256</ele>
        <time>2022-05-01T09:38:11.546Z</time>
      </trkpt>
      <trkpt lat="41.06427" lon="20.53203">
        <ele>609.473664</ele>
        <time>2022-05-01T09:38:13.550Z</time>
      </trkpt>
      <trkpt lat="41.06421" lon="20.5319">
        <ele>609.499534</ele>
        <time>2022-05-01T09:38:15.536Z</time>
      </trkpt>
      <trkpt lat="41.06416" lon="20.53177">
        <ele>609.525515</ele>
        <time>2022-05-01T09:38:17.552Z</time>
      </trkpt>
      <trkpt lat="41.06411" lon="20.53165">
        <ele>609.549894</ele>
        <time>2022-05-01T09:38:19.584Z</time>
      </trkpt>
      <trkpt lat="41.06405" lon="20.53152">
        <ele>609.575835</ele>
        <time>2022-05-01T09:38:21.546Z</time>
      </trkpt>
      <trkpt lat="41.06399" lon="20.5314">
        <ele>609.601752</ele>
        <time>2022-05-01T09:38:23.550Z</time>
      </trkpt>
      <trkpt lat="41.06394" lon="20.53127">
        <ele>609.62793</ele>
        <time>2022-05-01T09:38:25.547Z</time>
      </trkpt>
      <trkpt lat="41.06389" lon="20.53114">
        <ele>609.458407</ele>
        <time>2022-05-01T09:38:27.548Z</time>
      </trkpt>
      <trkpt lat="41.06382" lon="20.531">
        <ele>609.261337</ele>
        <time>2022-05-01T09:38:29.549Z</time>
      </trkpt>
      <trkpt lat="41.06375" lon="20.53086">
        <ele>609.052765</ele>
        <time>2022-05-01T09:38:31.568Z</time>
      </trkpt>
      <trkpt lat="41.0637" lon="20.5307">
        <ele>608.839948</ele>
        <time>2022-05-01T09:38:33.540Z</time>
      </trkpt>
      <trkpt lat="41.06364" lon="20.53054">
        <ele>608.626709</ele>
        <time>2022-05-01T09:38:35.544Z</time>
      </trkpt>
      <trkpt lat="41.06358" lon="20.53039">
        <ele>608.416136</ele>
        <time>2022-05-01T09:38:37.544Z</time>
      </trkpt>
      <trkpt lat="41.06353" lon="20.53024">
        <ele>608.212137</ele>
        <time>2022-05-01T09:38:39.550Z</time>
      </trkpt>
      <trkpt lat="41.06347" lon="20.5301">
        <ele>608.01347</ele>
        <time>2022-05-01T09:38:41.546Z</time>
      </trkpt>
      <trkpt lat="41.06341" lon="20.52996">
        <ele>607.818806</ele>
        <time>2022-05-01T09:38:43.554Z</time>
      </trkpt>
      <trkpt lat="41.06336" lon="20.52982">
        <ele>607.624969</ele>
        <time>2022-05-01T09:38:45.549Z</time>
      </trkpt>
      <trkpt lat="41.06331" lon="20.52967">
        <ele>607.431573</ele>
        <time>2022-05-01T09:38:47.539Z</time>
      </trkpt>
      <trkpt lat="41.06327" lon="20.52952">
        <ele>607.234937</ele>
        <time>2022-05-01T09:38:49.559Z</time>
      </trkpt>
      <trkpt lat="41.06323" lon="20.52937">
        <ele>607.039022</ele>
        <time>2022-05-01T09:38:51.550Z</time>
      </trkpt>
      <trkpt lat="41.0632" lon="20.52922">
        <ele>606.84726</ele>
        <time>2022-05-01T09:38:53.580Z</time>
      </trkpt>
      <trkpt lat="41.06318" lon="20.52906">
        <ele>606.618522</ele>
        <time>2022-05-01T09:38:55.559Z</time>
      </trkpt>
      <trkpt lat="41.06316" lon="20.52889">
        <ele>606.333467</ele>
        <time>2022-05-01T09:38:57.548Z</time>
      </trkpt>
      <trkpt lat="41.06313" lon="20.52873">
        <ele>606.047108</ele>
        <time>2022-05-01T09:38:59.535Z</time>
      </trkpt>
      <trkpt lat="41.06313" lon="20.52856">
        <ele>605.762483</ele>
        <time>2022-05-01T09:39:01.551Z</time>
      </trkpt>
      <trkpt lat="41.06312" lon="20.52839">
        <ele>605.466175</ele>
        <time>2022-05-01T09:39:03.550Z</time>
      </trkpt>
      <trkpt lat="41.06312" lon="20.52822">
        <ele>605.17353</ele>
        <time>2022-05-01T09:39:05.552Z</time>
      </trkpt>
      <trkpt lat="41.06313" lon="20.52805">
        <ele>604.875502</ele>
        <time>2022-05-01T09:39:07.566Z</time>
      </trkpt>
      <trkpt lat="41.06314" lon="20.52787">
        <ele>604.572558</ele>
        <time>2022-05-01T09:39:09.582Z</time>
      </trkpt>
      <trkpt lat="41.06316" lon="20.52769">
        <ele>604.249791</ele>
        <time>2022-05-01T09:39:11.554Z</time>
      </trkpt>
      <trkpt lat="41.06319" lon="20.5275">
        <ele>603.916529</ele>
        <time>2022-05-01T09:39:13.536Z</time>
      </trkpt>
      <trkpt lat="41.06323" lon="20.5273">
        <ele>603.560913</ele>
        <time>2022-05-01T09:39:15.536Z</time>
      </trkpt>
      <trkpt lat="41.06328" lon="20.5271">
        <ele>603.189476</ele>
        <time>2022-05-01T09:39:17.565Z</time>
      </trkpt>
      <trkpt lat="41.06335" lon="20.52689">
        <ele>602.810847</ele>
        <time>2022-05-01T09:39:19.546Z</time>
      </trkpt>
      <trkpt lat="41.06342" lon="20.52669">
        <ele>602.454682</ele>
        <time>2022-05-01T09:39:21.553Z</time>
      </trkpt>
      <trkpt lat="41.06349" lon="20.52649">
        <ele>602.129018</ele>
        <time>2022-05-01T09:39:23.551Z</time>
      </trkpt>
      <trkpt lat="41.06358" lon="20.52629">
        <ele>601.801201</ele>
        <time>2022-05-01T09:39:25.601Z</time>
      </trkpt>
      <trkpt lat="41.06367" lon="20.52609">
        <ele>601.470241</ele>
        <time>2022-05-01T09:39:27.565Z</time>
      </trkpt>
      <trkpt lat="41.06377" lon="20.5259">
        <ele>601.133596</ele>
        <time>2022-05-01T09:39:29.551Z</time>
      </trkpt>
      <trkpt lat="41.06386" lon="20.5257">
        <ele>600.796112</ele>
        <time>2022-05-01T09:39:31.536Z</time>
      </trkpt>
      <trkpt lat="41.06395" lon="20.5255">
        <ele>600.464937</ele>
        <time>2022-05-01T09:39:33.546Z</time>
      </trkpt>
      <trkpt lat="41.06404" lon="20.52531">
        <ele>600.140428</ele>
        <time>2022-05-01T09:39:35.542Z</time>
      </trkpt>
      <trkpt lat="41.06413" lon="20.52512">
        <ele>599.820353</ele>
        <time>2022-05-01T09:39:37.546Z</time>
      </trkpt>
      <trkpt lat="41.06421" lon="20.52493">
        <ele>599.508506</ele>
        <time>2022-05-01T09:39:39.540Z</time>
      </trkpt>
      <trkpt lat="41.06428" lon="20.52475">
        <ele>599.220412</ele>
        <time>2022-05-01T09:39:41.554Z</time>
      </trkpt>
      <trkpt lat="41.06435" lon="20.52457">
        <ele>598.813322</ele>
        <time>2022-05-01T09:39:43.540Z</time>
      </trkpt>
      <trkpt lat="41.06442" lon="20.52438">
        <ele>598.369186</ele>
        <time>2022-05-01T09:39:45.557Z</time>
      </trkpt>
      <trkpt lat="41.06448" lon="20.52418">
        <ele>597.933953</ele>
        <time>2022-05-01T09:39:47.537Z</time>
      </trkpt>
      <trkpt lat="41.06453" lon="20.52399">
        <ele>597.503801</ele>
        <time>2022-05-01T09:39:49.538Z</time>
      </trkpt>
      <trkpt lat="41.06458" lon="20.5238">
        <ele>597.071527</ele>
        <time>2022-05-01T09:39:51.545Z</time>
      </trkpt>
      <trkpt lat="41.06464" lon="20.5236">
        <ele>596.643326</ele>
        <time>2022-05-01T09:39:53.539Z</time>
      </trkpt>
      <trkpt lat="41.06469" lon="20.52341">
        <ele>596.214134</ele>
        <time>2022-05-01T09:39:55.547Z</time>
      </trkpt>
      <trkpt lat="41.06475" lon="20.52322">
        <ele>595.79362</ele>
        <time>2022-05-01T09:39:57.558Z</time>
      </trkpt>
      <trkpt lat="41.06481" lon="20.52304">
        <ele>595.379941</ele>
        <time>2022-05-01T09:39:59.550Z</time>
      </trkpt>
      <trkpt lat="41.06487" lon="20.52287">
        <ele>594.979148</ele>
        <time>2022-05-01T09:40:01.549Z</time>
      </trkpt>
      <trkpt lat="41.06494" lon="20.5227">
        <ele>594.577149</ele>
        <time>2022-05-01T09:40:03.559Z</time>
      </trkpt>
      <trkpt lat="41.06501" lon="20.52253">
        <ele>594.187083</ele>
        <time>2022-05-01T09:40:05.589Z</time>
      </trkpt>
      <trkpt lat="41.06509" lon="20.52239">
        <ele>594.060032</ele>
        <time>2022-05-01T09:40:07.555Z</time>
      </trkpt>
      <trkpt lat="41.06518" lon="20.52225">
        <ele>593.93297</ele>
        <time>2022-05-01T09:40:09.540Z</time>
      </trkpt>
      <trkpt lat="41.06526" lon="20.52212">
        <ele>593.811576</ele>
        <time>2022-05-01T09:40:11.536Z</time>
      </trkpt>
      <trkpt lat="41.06533" lon="20.52199">
        <ele>593.697039</ele>
        <time>2022-05-01T09:40:13.547Z</time>
      </trkpt>
      <trkpt lat="41.06541" lon="20.52188">
        <ele>593.589741</ele>
        <time>2022-05-01T09:40:15.548Z</time>
      </trkpt>
      <trkpt lat="41.06548" lon="20.52176">
        <ele>593.481824</ele>
        <time>2022-05-01T09:40:17.551Z</time>
      </trkpt>
      <trkpt lat="41.06556" lon="20.52165">
        <ele>593.373283</ele>
        <time>2022-05-01T09:40:19.542Z</time>
      </trkpt>
      <trkpt lat="41.06563" lon="20.52153">
        <ele>593.265562</ele>
        <time>2022-05-01T09:40:21.578Z</time>
      </trkpt>
      <trkpt lat="41.06569" lon="20.52141">
        <ele>593.16174</ele>
        <time>2022-05-01T09:40:23.540Z</time>
      </trkpt>
      <trkpt lat="41.06575" lon="20.52129">
        <ele>593.059863</ele>
        <time>2022-05-01T09:40:25.564Z</time>
      </trkpt>
      <trkpt lat="41.06579" lon="20.52117">
        <ele>592.963207</ele>
        <time>2022-05-01T09:40:27.560Z</time>
      </trkpt>
      <trkpt lat="41.06583" lon="20.52104">
        <ele>592.866759</ele>
        <time>2022-05-01T09:40:29.540Z</time>
      </trkpt>
      <trkpt lat="41.06586" lon="20.52091">
        <ele>592.767265</ele>
        <time>2022-05-01T09:40:31.545Z</time>
      </trkpt>
      <trkpt lat="41.06589" lon="20.52077">
        <ele>592.666607</ele>
        <time>2022-05-01T09:40:33.541Z</time>
      </trkpt>
      <trkpt lat="41.06593" lon="20.52064">
        <ele>592.566738</ele>
        <time>2022-05-01T09:40:35.554Z</time>
      </trkpt>
      <trkpt lat="41.06596" lon="20.52051">
        <ele>592.520684</ele>
        <time>2022-05-01T09:40:37.547Z</time>
      </trkpt>
      <trkpt lat="41.06599" lon="20.52038">
        <ele>592.631942</ele>
        <time>2022-05-01T09:40:39.545Z</time>
      </trkpt>
      <trkpt lat="41.06603" lon="20.52024">
        <ele>592.744557</ele>
        <time>2022-05-01T09:40:41.562Z</time>
      </trkpt>
      <trkpt lat="41.06607" lon="20.52012">
        <ele>592.855942</ele>
        <time>2022-05-01T09:40:43.548Z</time>
      </trkpt>
      <trkpt lat="41.06612" lon="20.52001">
        <ele>592.957499</ele>
        <time>2022-05-01T09:40:45.543Z</time>
      </trkpt>
      <trkpt lat="41.06619" lon="20.51991">
        <ele>593.05703</ele>
        <time>2022-05-01T09:40:47.533Z</time>
      </trkpt>
      <trkpt lat="41.06628" lon="20.5198">
        <ele>593.196935</ele>
        <time>2022-05-01T09:40:50.546Z</time>
      </trkpt>
      <trkpt lat="41.06638" lon="20.51967">
        <ele>593.340317</ele>
        <time>2022-05-01T09:40:53.548Z</time>
      </trkpt>
      <trkpt lat="41.06645" lon="20.5196">
        <ele>593.435631</ele>
        <time>2022-05-01T09:40:55.587Z</time>
      </trkpt>
      <trkpt lat="41.06653" lon="20.51952">
        <ele>593.535881</ele>
        <time>2022-05-01T09:40:57.536Z</time>
      </trkpt>
      <trkpt lat="41.0666" lon="20.51944">
        <ele>593.637805</ele>
        <time>2022-05-01T09:40:59.558Z</time>
      </trkpt>
      <trkpt lat="41.06667" lon="20.51935">
        <ele>593.741294</ele>
        <time>2022-05-01T09:41:01.534Z</time>
      </trkpt>
      <trkpt lat="41.06674" lon="20.51926">
        <ele>593.84006</ele>
        <time>2022-05-01T09:41:03.550Z</time>
      </trkpt>
      <trkpt lat="41.06681" lon="20.51917">
        <ele>593.940289</ele>
        <time>2022-05-01T09:41:05.582Z</time>
      </trkpt>
      <trkpt lat="41.06687" lon="20.51908">
        <ele>594.03982</ele>
        <time>2022-05-01T09:41:07.530Z</time>
      </trkpt>
      <trkpt lat="41.06695" lon="20.51894">
        <ele>594.177301</ele>
        <time>2022-05-01T09:41:10.554Z</time>
      </trkpt>
      <trkpt lat="41.06698" lon="20.51882">
        <ele>594.281024</ele>
        <time>2022-05-01T09:41:12.557Z</time>
      </trkpt>
      <trkpt lat="41.06701" lon="20.5187">
        <ele>594.384377</ele>
        <time>2022-05-01T09:41:14.555Z</time>
      </trkpt>
      <trkpt lat="41.06704" lon="20.51857">
        <ele>594.490449</ele>
        <time>2022-05-01T09:41:16.543Z</time>
      </trkpt>
      <trkpt lat="41.06704" lon="20.51845">
        <ele>594.599438</ele>
        <time>2022-05-01T09:41:18.539Z</time>
      </trkpt>
      <trkpt lat="41.06704" lon="20.51832">
        <ele>594.709268</ele>
        <time>2022-05-01T09:41:20.547Z</time>
      </trkpt>
      <trkpt lat="41.06702" lon="20.51819">
        <ele>594.819699</ele>
        <time>2022-05-01T09:41:22.562Z</time>
      </trkpt>
      <trkpt lat="41.06699" lon="20.51806">
        <ele>594.931486</ele>
        <time>2022-05-01T09:41:24.550Z</time>
      </trkpt>
      <trkpt lat="41.06696" lon="20.51793">
        <ele>595.043544</ele>
        <time>2022-05-01T09:41:26.559Z</time>
      </trkpt>
      <trkpt lat="41.06692" lon="20.51781">
        <ele>595.157571</ele>
        <time>2022-05-01T09:41:28.543Z</time>
      </trkpt>
      <trkpt lat="41.06688" lon="20.51768">
        <ele>595.27763</ele>
        <time>2022-05-01T09:41:30.547Z</time>
      </trkpt>
      <trkpt lat="41.06684" lon="20.51755">
        <ele>595.394829</ele>
        <time>2022-05-01T09:41:32.559Z</time>
      </trkpt>
      <trkpt lat="41.0668" lon="20.51741">
        <ele>595.520363</ele>
        <time>2022-05-01T09:41:34.551Z</time>
      </trkpt>
      <trkpt lat="41.06676" lon="20.51726">
        <ele>595.652591</ele>
        <time>2022-05-01T09:41:36.539Z</time>
      </trkpt>
      <trkpt lat="41.06672" lon="20.5171">
        <ele>595.794243</ele>
        <time>2022-05-01T09:41:38.553Z</time>
      </trkpt>
      <trkpt lat="41.06669" lon="20.51693">
        <ele>595.946098</ele>
        <time>2022-05-01T09:41:40.592Z</time>
      </trkpt>
      <trkpt lat="41.06668" lon="20.51674">
        <ele>596.103727</ele>
        <time>2022-05-01T09:41:42.559Z</time>
      </trkpt>
      <trkpt lat="41.0667" lon="20.51656">
        <ele>596.256849</ele>
        <time>2022-05-01T09:41:44.554Z</time>
      </trkpt>
      <trkpt lat="41.06675" lon="20.51639">
        <ele>596.400894</ele>
        <time>2022-05-01T09:41:46.547Z</time>
      </trkpt>
      <trkpt lat="41.06683" lon="20.51623">
        <ele>596.339142</ele>
        <time>2022-05-01T09:41:48.546Z</time>
      </trkpt>
      <trkpt lat="41.06692" lon="20.51608">
        <ele>596.276827</ele>
        <time>2022-05-01T09:41:50.548Z</time>
      </trkpt>
      <trkpt lat="41.06702" lon="20.51595">
        <ele>596.217622</ele>
        <time>2022-05-01T09:41:52.563Z</time>
      </trkpt>
      <trkpt lat="41.06713" lon="20.51585">
        <ele>596.158235</ele>
        <time>2022-05-01T09:41:54.542Z</time>
      </trkpt>
      <trkpt lat="41.06725" lon="20.51576">
        <ele>596.096948</ele>
        <time>2022-05-01T09:41:56.529Z</time>
      </trkpt>
      <trkpt lat="41.06738" lon="20.51566">
        <ele>596.034909</ele>
        <time>2022-05-01T09:41:58.559Z</time>
      </trkpt>
      <trkpt lat="41.0675" lon="20.51557">
        <ele>595.970975</ele>
        <time>2022-05-01T09:42:00.557Z</time>
      </trkpt>
      <trkpt lat="41.06763" lon="20.51548">
        <ele>595.907509</ele>
        <time>2022-05-01T09:42:02.585Z</time>
      </trkpt>
      <trkpt lat="41.06776" lon="20.51538">
        <ele>595.843796</ele>
        <time>2022-05-01T09:42:04.551Z</time>
      </trkpt>
      <trkpt lat="41.06789" lon="20.51529">
        <ele>595.782553</ele>
        <time>2022-05-01T09:42:06.544Z</time>
      </trkpt>
      <trkpt lat="41.06801" lon="20.5152">
        <ele>595.719975</ele>
        <time>2022-05-01T09:42:08.581Z</time>
      </trkpt>
      <trkpt lat="41.06813" lon="20.5151">
        <ele>595.657276</ele>
        <time>2022-05-01T09:42:10.538Z</time>
      </trkpt>
      <trkpt lat="41.06826" lon="20.515">
        <ele>595.606828</ele>
        <time>2022-05-01T09:42:12.542Z</time>
      </trkpt>
      <trkpt lat="41.06839" lon="20.5149">
        <ele>595.569842</ele>
        <time>2022-05-01T09:42:14.535Z</time>
      </trkpt>
      <trkpt lat="41.06852" lon="20.51481">
        <ele>595.533936</ele>
        <time>2022-05-01T09:42:16.537Z</time>
      </trkpt>
      <trkpt lat="41.06865" lon="20.51472">
        <ele>595.498719</ele>
        <time>2022-05-01T09:42:18.578Z</time>
      </trkpt>
      <trkpt lat="41.06878" lon="20.51463">
        <ele>595.462598</ele>
        <time>2022-05-01T09:42:20.545Z</time>
      </trkpt>
      <trkpt lat="41.06891" lon="20.51454">
        <ele>595.426563</ele>
        <time>2022-05-01T09:42:22.550Z</time>
      </trkpt>
      <trkpt lat="41.06905" lon="20.51444">
        <ele>595.387988</ele>
        <time>2022-05-01T09:42:24.554Z</time>
      </trkpt>
      <trkpt lat="41.0692" lon="20.51434">
        <ele>595.348897</ele>
        <time>2022-05-01T09:42:26.562Z</time>
      </trkpt>
      <trkpt lat="41.06934" lon="20.51425">
        <ele>595.309706</ele>
        <time>2022-05-01T09:42:28.544Z</time>
      </trkpt>
      <trkpt lat="41.06948" lon="20.51416">
        <ele>595.272204</ele>
        <time>2022-05-01T09:42:30.579Z</time>
      </trkpt>
      <trkpt lat="41.06962" lon="20.51407">
        <ele>595.234613</ele>
        <time>2022-05-01T09:42:32.539Z</time>
      </trkpt>
      <trkpt lat="41.06976" lon="20.51399">
        <ele>595.196345</ele>
        <time>2022-05-01T09:42:34.546Z</time>
      </trkpt>
      <trkpt lat="41.06991" lon="20.51393">
        <ele>595.033003</ele>
        <time>2022-05-01T09:42:36.537Z</time>
      </trkpt>
      <trkpt lat="41.07007" lon="20.51387">
        <ele>594.819115</ele>
        <time>2022-05-01T09:42:38.544Z</time>
      </trkpt>
      <trkpt lat="41.07022" lon="20.51382">
        <ele>594.603038</ele>
        <time>2022-05-01T09:42:40.550Z</time>
      </trkpt>
      <trkpt lat="41.07038" lon="20.51378">
        <ele>594.388038</ele>
        <time>2022-05-01T09:42:42.555Z</time>
      </trkpt>
      <trkpt lat="41.07054" lon="20.51373">
        <ele>594.171521</ele>
        <time>2022-05-01T09:42:44.545Z</time>
      </trkpt>
      <trkpt lat="41.0707" lon="20.51368">
        <ele>593.948555</ele>
        <time>2022-05-01T09:42:46.540Z</time>
      </trkpt>
      <trkpt lat="41.07086" lon="20.51362">
        <ele>593.72299</ele>
        <time>2022-05-01T09:42:48.559Z</time>
      </trkpt>
      <trkpt lat="41.07102" lon="20.51356">
        <ele>593.498215</ele>
        <time>2022-05-01T09:42:50.570Z</time>
      </trkpt>
      <trkpt lat="41.07118" lon="20.51349">
        <ele>593.274811</ele>
        <time>2022-05-01T09:42:52.566Z</time>
      </trkpt>
      <trkpt lat="41.07131" lon="20.51339">
        <ele>593.076923</ele>
        <time>2022-05-01T09:42:54.538Z</time>
      </trkpt>
      <trkpt lat="41.07141" lon="20.51325">
        <ele>592.878975</ele>
        <time>2022-05-01T09:42:56.536Z</time>
      </trkpt>
      <trkpt lat="41.07148" lon="20.51308">
        <ele>592.473278</ele>
        <time>2022-05-01T09:42:58.595Z</time>
      </trkpt>
      <trkpt lat="41.07156" lon="20.51291">
        <ele>591.801104</ele>
        <time>2022-05-01T09:43:00.561Z</time>
      </trkpt>
      <trkpt lat="41.07166" lon="20.51275">
        <ele>591.125689</ele>
        <time>2022-05-01T09:43:02.537Z</time>
      </trkpt>
      <trkpt lat="41.07177" lon="20.51262">
        <ele>590.446576</ele>
        <time>2022-05-01T09:43:04.574Z</time>
      </trkpt>
      <trkpt lat="41.07192" lon="20.51253">
        <ele>589.739734</ele>
        <time>2022-05-01T09:43:06.537Z</time>
      </trkpt>
      <trkpt lat="41.07209" lon="20.51248">
        <ele>588.990993</ele>
        <time>2022-05-01T09:43:08.576Z</time>
      </trkpt>
      <trkpt lat="41.07226" lon="20.51244">
        <ele>588.233663</ele>
        <time>2022-05-01T09:43:10.553Z</time>
      </trkpt>
      <trkpt lat="41.0724" lon="20.51239">
        <ele>587.577329</ele>
        <time>2022-05-01T09:43:12.538Z</time>
      </trkpt>
      <trkpt lat="41.07253" lon="20.51236">
        <ele>587.011155</ele>
        <time>2022-05-01T09:43:14.566Z</time>
      </trkpt>
      <trkpt lat="41.07264" lon="20.51232">
        <ele>586.485942</ele>
        <time>2022-05-01T09:43:16.549Z</time>
      </trkpt>
      <trkpt lat="41.07278" lon="20.51228">
        <ele>585.8558</ele>
        <time>2022-05-01T09:43:18.551Z</time>
      </trkpt>
      <trkpt lat="41.07292" lon="20.5122">
        <ele>585.205548</ele>
        <time>2022-05-01T09:43:20.579Z</time>
      </trkpt>
      <trkpt lat="41.07304" lon="20.51211">
        <ele>584.506462</ele>
        <time>2022-05-01T09:43:22.561Z</time>
      </trkpt>
      <trkpt lat="41.07316" lon="20.51199">
        <ele>583.774708</ele>
        <time>2022-05-01T09:43:24.549Z</time>
      </trkpt>
      <trkpt lat="41.07325" lon="20.51187">
        <ele>583.067971</ele>
        <time>2022-05-01T09:43:26.595Z</time>
      </trkpt>
      <trkpt lat="41.07333" lon="20.51173">
        <ele>582.383915</ele>
        <time>2022-05-01T09:43:28.565Z</time>
      </trkpt>
      <trkpt lat="41.07339" lon="20.51157">
        <ele>581.679083</ele>
        <time>2022-05-01T09:43:30.564Z</time>
      </trkpt>
      <trkpt lat="41.07344" lon="20.51141">
        <ele>581.015369</ele>
        <time>2022-05-01T09:43:32.535Z</time>
      </trkpt>
      <trkpt lat="41.07347" lon="20.51125">
        <ele>580.36366</ele>
        <time>2022-05-01T09:43:34.545Z</time>
      </trkpt>
      <trkpt lat="41.07349" lon="20.5111">
        <ele>579.75515</ele>
        <time>2022-05-01T09:43:36.543Z</time>
      </trkpt>
      <trkpt lat="41.07347" lon="20.51094">
        <ele>579.138395</ele>
        <time>2022-05-01T09:43:38.561Z</time>
      </trkpt>
      <trkpt lat="41.07344" lon="20.51078">
        <ele>578.489775</ele>
        <time>2022-05-01T09:43:40.544Z</time>
      </trkpt>
      <trkpt lat="41.07337" lon="20.51062">
        <ele>577.738908</ele>
        <time>2022-05-01T09:43:42.582Z</time>
      </trkpt>
      <trkpt lat="41.07325" lon="20.51046">
        <ele>576.887107</ele>
        <time>2022-05-01T09:43:44.551Z</time>
      </trkpt>
      <trkpt lat="41.07318" lon="20.51039">
        <ele>576.403382</ele>
        <time>2022-05-01T09:43:45.544Z</time>
      </trkpt>
      <trkpt lat="41.07311" lon="20.51031">
        <ele>575.90417</ele>
        <time>2022-05-01T09:43:46.553Z</time>
      </trkpt>
      <trkpt lat="41.07304" lon="20.51022">
        <ele>575.41271</ele>
        <time>2022-05-01T09:43:47.545Z</time>
      </trkpt>
      <trkpt lat="41.07298" lon="20.51011">
        <ele>574.934511</ele>
        <time>2022-05-01T09:43:48.604Z</time>
      </trkpt>
      <trkpt lat="41.07294" lon="20.50999">
        <ele>574.43296</ele>
        <time>2022-05-01T09:43:49.551Z</time>
      </trkpt>
      <trkpt lat="41.07292" lon="20.50985">
        <ele>573.899076</ele>
        <time>2022-05-01T09:43:50.544Z</time>
      </trkpt>
      <trkpt lat="41.07293" lon="20.50969">
        <ele>573.329839</ele>
        <time>2022-05-01T09:43:51.539Z</time>
      </trkpt>
      <trkpt lat="41.07293" lon="20.50954">
        <ele>572.7774</ele>
        <time>2022-05-01T09:43:52.541Z</time>
      </trkpt>
      <trkpt lat="41.07296" lon="20.50939">
        <ele>572.211041</ele>
        <time>2022-05-01T09:43:53.552Z</time>
      </trkpt>
      <trkpt lat="41.07298" lon="20.50926">
        <ele>571.713936</ele>
        <time>2022-05-01T09:43:54.558Z</time>
      </trkpt>
      <trkpt lat="41.07301" lon="20.50915">
        <ele>571.261722</ele>
        <time>2022-05-01T09:43:55.570Z</time>
      </trkpt>
      <trkpt lat="41.07308" lon="20.50895">
        <ele>570.457599</ele>
        <time>2022-05-01T09:43:57.552Z</time>
      </trkpt>
      <trkpt lat="41.07316" lon="20.50878">
        <ele>569.713816</ele>
        <time>2022-05-01T09:43:59.591Z</time>
      </trkpt>
      <trkpt lat="41.07324" lon="20.5086">
        <ele>568.943437</ele>
        <time>2022-05-01T09:44:01.535Z</time>
      </trkpt>
      <trkpt lat="41.07334" lon="20.50841">
        <ele>568.092309</ele>
        <time>2022-05-01T09:44:03.535Z</time>
      </trkpt>
      <trkpt lat="41.07343" lon="20.50821">
        <ele>567.225794</ele>
        <time>2022-05-01T09:44:05.549Z</time>
      </trkpt>
      <trkpt lat="41.07349" lon="20.50799">
        <ele>566.412062</ele>
        <time>2022-05-01T09:44:07.552Z</time>
      </trkpt>
      <trkpt lat="41.07352" lon="20.50776">
        <ele>565.660668</ele>
        <time>2022-05-01T09:44:09.549Z</time>
      </trkpt>
      <trkpt lat="41.07351" lon="20.50753">
        <ele>564.895015</ele>
        <time>2022-05-01T09:44:11.546Z</time>
      </trkpt>
      <trkpt lat="41.07347" lon="20.5073">
        <ele>564.11634</ele>
        <time>2022-05-01T09:44:13.529Z</time>
      </trkpt>
      <trkpt lat="41.07343" lon="20.50718">
        <ele>563.718906</ele>
        <time>2022-05-01T09:44:14.553Z</time>
      </trkpt>
      <trkpt lat="41.0734" lon="20.50707">
        <ele>563.329596</ele>
        <time>2022-05-01T09:44:15.551Z</time>
      </trkpt>
      <trkpt lat="41.07335" lon="20.50697">
        <ele>562.941393</ele>
        <time>2022-05-01T09:44:16.554Z</time>
      </trkpt>
      <trkpt lat="41.07331" lon="20.50686">
        <ele>562.529366</ele>
        <time>2022-05-01T09:44:17.559Z</time>
      </trkpt>
      <trkpt lat="41.07326" lon="20.50674">
        <ele>562.110191</ele>
        <time>2022-05-01T09:44:18.545Z</time>
      </trkpt>
      <trkpt lat="41.07322" lon="20.50662">
        <ele>561.680515</ele>
        <time>2022-05-01T09:44:19.537Z</time>
      </trkpt>
      <trkpt lat="41.07318" lon="20.5065">
        <ele>561.25421</ele>
        <time>2022-05-01T09:44:20.557Z</time>
      </trkpt>
      <trkpt lat="41.07315" lon="20.50637">
        <ele>560.820199</ele>
        <time>2022-05-01T09:44:21.532Z</time>
      </trkpt>
      <trkpt lat="41.07314" lon="20.50624">
        <ele>560.377827</ele>
        <time>2022-05-01T09:44:22.535Z</time>
      </trkpt>
      <trkpt lat="41.07313" lon="20.50609">
        <ele>559.913273</ele>
        <time>2022-05-01T09:44:23.551Z</time>
      </trkpt>
      <trkpt lat="41.07313" lon="20.50595">
        <ele>559.449695</ele>
        <time>2022-05-01T09:44:24.555Z</time>
      </trkpt>
      <trkpt lat="41.07314" lon="20.50581">
        <ele>558.976809</ele>
        <time>2022-05-01T09:44:25.550Z</time>
      </trkpt>
      <trkpt lat="41.07316" lon="20.50566">
        <ele>558.266644</ele>
        <time>2022-05-01T09:44:26.554Z</time>
      </trkpt>
      <trkpt lat="41.0732" lon="20.50551">
        <ele>557.497722</ele>
        <time>2022-05-01T09:44:27.548Z</time>
      </trkpt>
      <trkpt lat="41.07324" lon="20.50537">
        <ele>556.742315</ele>
        <time>2022-05-01T09:44:28.538Z</time>
      </trkpt>
      <trkpt lat="41.07327" lon="20.50523">
        <ele>556.026492</ele>
        <time>2022-05-01T09:44:29.567Z</time>
      </trkpt>
      <trkpt lat="41.0733" lon="20.5051">
        <ele>555.338004</ele>
        <time>2022-05-01T09:44:30.538Z</time>
      </trkpt>
      <trkpt lat="41.07331" lon="20.50496">
        <ele>554.656504</ele>
        <time>2022-05-01T09:44:31.547Z</time>
      </trkpt>
      <trkpt lat="41.07331" lon="20.50482">
        <ele>553.9731</ele>
        <time>2022-05-01T09:44:32.578Z</time>
      </trkpt>
      <trkpt lat="41.0733" lon="20.50468">
        <ele>553.288276</ele>
        <time>2022-05-01T09:44:33.546Z</time>
      </trkpt>
      <trkpt lat="41.07329" lon="20.50455">
        <ele>552.628269</ele>
        <time>2022-05-01T09:44:34.544Z</time>
      </trkpt>
      <trkpt lat="41.07327" lon="20.50442">
        <ele>551.947725</ele>
        <time>2022-05-01T09:44:35.563Z</time>
      </trkpt>
      <trkpt lat="41.07326" lon="20.50427">
        <ele>551.211996</ele>
        <time>2022-05-01T09:44:36.559Z</time>
      </trkpt>
      <trkpt lat="41.07326" lon="20.50412">
        <ele>550.462938</ele>
        <time>2022-05-01T09:44:37.571Z</time>
      </trkpt>
      <trkpt lat="41.07325" lon="20.50396">
        <ele>549.708509</ele>
        <time>2022-05-01T09:44:38.574Z</time>
      </trkpt>
      <trkpt lat="41.07324" lon="20.50381">
        <ele>548.95672</ele>
        <time>2022-05-01T09:44:39.539Z</time>
      </trkpt>
      <trkpt lat="41.07322" lon="20.50366">
        <ele>548.208355</ele>
        <time>2022-05-01T09:44:40.557Z</time>
      </trkpt>
      <trkpt lat="41.07321" lon="20.50351">
        <ele>547.466414</ele>
        <time>2022-05-01T09:44:41.547Z</time>
      </trkpt>
      <trkpt lat="41.0732" lon="20.50337">
        <ele>546.838963</ele>
        <time>2022-05-01T09:44:42.548Z</time>
      </trkpt>
      <trkpt lat="41.0732" lon="20.50322">
        <ele>546.333379</ele>
        <time>2022-05-01T09:44:43.539Z</time>
      </trkpt>
      <trkpt lat="41.0732" lon="20.50308">
        <ele>545.827281</ele>
        <time>2022-05-01T09:44:44.576Z</time>
      </trkpt>
      <trkpt lat="41.07322" lon="20.50294">
        <ele>545.318796</ele>
        <time>2022-05-01T09:44:45.559Z</time>
      </trkpt>
      <trkpt lat="41.07325" lon="20.50279">
        <ele>544.793558</ele>
        <time>2022-05-01T09:44:46.552Z</time>
      </trkpt>
      <trkpt lat="41.07329" lon="20.50265">
        <ele>544.260205</ele>
        <time>2022-05-01T09:44:47.553Z</time>
      </trkpt>
      <trkpt lat="41.07334" lon="20.50251">
        <ele>543.711686</ele>
        <time>2022-05-01T09:44:48.542Z</time>
      </trkpt>
      <trkpt lat="41.07339" lon="20.50236">
        <ele>543.144139</ele>
        <time>2022-05-01T09:44:49.511Z</time>
      </trkpt>
      <trkpt lat="41.07344" lon="20.50221">
        <ele>542.57078</ele>
        <time>2022-05-01T09:44:50.548Z</time>
      </trkpt>
      <trkpt lat="41.07348" lon="20.50206">
        <ele>541.999255</ele>
        <time>2022-05-01T09:44:51.550Z</time>
      </trkpt>
      <trkpt lat="41.07353" lon="20.50191">
        <ele>541.420822</ele>
        <time>2022-05-01T09:44:52.531Z</time>
      </trkpt>
      <trkpt lat="41.07359" lon="20.50176">
        <ele>540.836636</ele>
        <time>2022-05-01T09:44:53.547Z</time>
      </trkpt>
      <trkpt lat="41.07364" lon="20.50161">
        <ele>540.250472</ele>
        <time>2022-05-01T09:44:54.545Z</time>
      </trkpt>
      <trkpt lat="41.0737" lon="20.50146">
        <ele>539.661326</ele>
        <time>2022-05-01T09:44:55.544Z</time>
      </trkpt>
      <trkpt lat="41.07376" lon="20.50131">
        <ele>539.083425</ele>
        <time>2022-05-01T09:44:56.546Z</time>
      </trkpt>
      <trkpt lat="41.07382" lon="20.50117">
        <ele>538.635179</ele>
        <time>2022-05-01T09:44:57.538Z</time>
      </trkpt>
      <trkpt lat="41.07388" lon="20.50103">
        <ele>538.393805</ele>
        <time>2022-05-01T09:44:58.543Z</time>
      </trkpt>
      <trkpt lat="41.07395" lon="20.5009">
        <ele>538.154291</ele>
        <time>2022-05-01T09:44:59.545Z</time>
      </trkpt>
      <trkpt lat="41.07401" lon="20.50077">
        <ele>537.916035</ele>
        <time>2022-05-01T09:45:00.552Z</time>
      </trkpt>
      <trkpt lat="41.07407" lon="20.50065">
        <ele>537.691743</ele>
        <time>2022-05-01T09:45:01.549Z</time>
      </trkpt>
      <trkpt lat="41.07413" lon="20.50052">
        <ele>537.474463</ele>
        <time>2022-05-01T09:45:02.571Z</time>
      </trkpt>
      <trkpt lat="41.07418" lon="20.50041">
        <ele>537.269085</ele>
        <time>2022-05-01T09:45:03.544Z</time>
      </trkpt>
      <trkpt lat="41.07423" lon="20.50029">
        <ele>537.06703</ele>
        <time>2022-05-01T09:45:04.556Z</time>
      </trkpt>
      <trkpt lat="41.07428" lon="20.50017">
        <ele>536.862664</ele>
        <time>2022-05-01T09:45:05.587Z</time>
      </trkpt>
      <trkpt lat="41.07433" lon="20.50005">
        <ele>536.655983</ele>
        <time>2022-05-01T09:45:06.539Z</time>
      </trkpt>
      <trkpt lat="41.07439" lon="20.49993">
        <ele>536.443622</ele>
        <time>2022-05-01T09:45:07.555Z</time>
      </trkpt>
      <trkpt lat="41.07444" lon="20.49982">
        <ele>536.234056</ele>
        <time>2022-05-01T09:45:08.534Z</time>
      </trkpt>
      <trkpt lat="41.0745" lon="20.4997">
        <ele>536.029571</ele>
        <time>2022-05-01T09:45:09.536Z</time>
      </trkpt>
      <trkpt lat="41.07455" lon="20.49959">
        <ele>535.828538</ele>
        <time>2022-05-01T09:45:10.547Z</time>
      </trkpt>
      <trkpt lat="41.07461" lon="20.49948">
        <ele>535.632573</ele>
        <time>2022-05-01T09:45:11.541Z</time>
      </trkpt>
      <trkpt lat="41.07466" lon="20.49938">
        <ele>535.438796</ele>
        <time>2022-05-01T09:45:12.565Z</time>
      </trkpt>
      <trkpt lat="41.07471" lon="20.49927">
        <ele>535.248192</ele>
        <time>2022-05-01T09:45:13.553Z</time>
      </trkpt>
      <trkpt lat="41.07475" lon="20.49916">
        <ele>535.052077</ele>
        <time>2022-05-01T09:45:14.549Z</time>
      </trkpt>
      <trkpt lat="41.07479" lon="20.49905">
        <ele>534.843532</ele>
        <time>2022-05-01T09:45:15.546Z</time>
      </trkpt>
      <trkpt lat="41.07483" lon="20.49894">
        <ele>534.636887</ele>
        <time>2022-05-01T09:45:16.591Z</time>
      </trkpt>
      <trkpt lat="41.07489" lon="20.49871">
        <ele>534.235533</ele>
        <time>2022-05-01T09:45:18.566Z</time>
      </trkpt>
      <trkpt lat="41.07494" lon="20.49849">
        <ele>533.839773</ele>
        <time>2022-05-01T09:45:20.553Z</time>
      </trkpt>
      <trkpt lat="41.07495" lon="20.49837">
        <ele>533.633208</ele>
        <time>2022-05-01T09:45:21.549Z</time>
      </trkpt>
      <trkpt lat="41.07497" lon="20.49825">
        <ele>533.427711</ele>
        <time>2022-05-01T09:45:22.573Z</time>
      </trkpt>
      <trkpt lat="41.07497" lon="20.49801">
        <ele>533.029061</ele>
        <time>2022-05-01T09:45:24.537Z</time>
      </trkpt>
      <trkpt lat="41.07495" lon="20.49778">
        <ele>532.623722</ele>
        <time>2022-05-01T09:45:26.541Z</time>
      </trkpt>
      <trkpt lat="41.07493" lon="20.49766">
        <ele>532.418207</ele>
        <time>2022-05-01T09:45:27.587Z</time>
      </trkpt>
      <trkpt lat="41.07489" lon="20.49744">
        <ele>532.041087</ele>
        <time>2022-05-01T09:45:29.544Z</time>
      </trkpt>
      <trkpt lat="41.07488" lon="20.49723">
        <ele>531.688369</ele>
        <time>2022-05-01T09:45:31.540Z</time>
      </trkpt>
      <trkpt lat="41.07487" lon="20.49703">
        <ele>531.342458</ele>
        <time>2022-05-01T09:45:33.547Z</time>
      </trkpt>
      <trkpt lat="41.07489" lon="20.49682">
        <ele>530.98881</ele>
        <time>2022-05-01T09:45:35.551Z</time>
      </trkpt>
      <trkpt lat="41.07492" lon="20.49662">
        <ele>530.648976</ele>
        <time>2022-05-01T09:45:37.547Z</time>
      </trkpt>
      <trkpt lat="41.07496" lon="20.49644">
        <ele>530.334962</ele>
        <time>2022-05-01T09:45:39.545Z</time>
      </trkpt>
      <trkpt lat="41.075" lon="20.49626">
        <ele>530.024615</ele>
        <time>2022-05-01T09:45:41.553Z</time>
      </trkpt>
      <trkpt lat="41.07502" lon="20.49608">
        <ele>529.725288</ele>
        <time>2022-05-01T09:45:43.556Z</time>
      </trkpt>
      <trkpt lat="41.07503" lon="20.4959">
        <ele>529.428288</ele>
        <time>2022-05-01T09:45:45.576Z</time>
      </trkpt>
      <trkpt lat="41.07503" lon="20.49573">
        <ele>529.148394</ele>
        <time>2022-05-01T09:45:47.550Z</time>
      </trkpt>
      <trkpt lat="41.07502" lon="20.49557">
        <ele>528.88181</ele>
        <time>2022-05-01T09:45:49.552Z</time>
      </trkpt>
      <trkpt lat="41.07499" lon="20.49541">
        <ele>528.623125</ele>
        <time>2022-05-01T09:45:51.544Z</time>
      </trkpt>
      <trkpt lat="41.07495" lon="20.49526">
        <ele>528.361892</ele>
        <time>2022-05-01T09:45:53.551Z</time>
      </trkpt>
      <trkpt lat="41.07491" lon="20.49512">
        <ele>528.115398</ele>
        <time>2022-05-01T09:45:55.587Z</time>
      </trkpt>
      <trkpt lat="41.07487" lon="20.49499">
        <ele>527.874763</ele>
        <time>2022-05-01T09:45:57.534Z</time>
      </trkpt>
      <trkpt lat="41.07482" lon="20.49487">
        <ele>527.65605</ele>
        <time>2022-05-01T09:45:59.552Z</time>
      </trkpt>
      <trkpt lat="41.07477" lon="20.49476">
        <ele>527.448788</ele>
        <time>2022-05-01T09:46:01.544Z</time>
      </trkpt>
      <trkpt lat="41.07472" lon="20.49465">
        <ele>527.220817</ele>
        <time>2022-05-01T09:46:03.554Z</time>
      </trkpt>
      <trkpt lat="41.07466" lon="20.49453">
        <ele>527.02563</ele>
        <time>2022-05-01T09:46:05.554Z</time>
      </trkpt>
      <trkpt lat="41.0746" lon="20.49441">
        <ele>526.838186</ele>
        <time>2022-05-01T09:46:07.549Z</time>
      </trkpt>
      <trkpt lat="41.07454" lon="20.49428">
        <ele>526.638326</ele>
        <time>2022-05-01T09:46:09.556Z</time>
      </trkpt>
      <trkpt lat="41.0745" lon="20.49414">
        <ele>526.445951</ele>
        <time>2022-05-01T09:46:11.575Z</time>
      </trkpt>
      <trkpt lat="41.07447" lon="20.49401">
        <ele>526.259605</ele>
        <time>2022-05-01T09:46:13.549Z</time>
      </trkpt>
      <trkpt lat="41.07446" lon="20.49386">
        <ele>526.075996</ele>
        <time>2022-05-01T09:46:15.554Z</time>
      </trkpt>
      <trkpt lat="41.07448" lon="20.49371">
        <ele>525.870146</ele>
        <time>2022-05-01T09:46:17.547Z</time>
      </trkpt>
      <trkpt lat="41.0745" lon="20.49353">
        <ele>525.642486</ele>
        <time>2022-05-01T09:46:19.546Z</time>
      </trkpt>
      <trkpt lat="41.07452" lon="20.49336">
        <ele>525.40942</ele>
        <time>2022-05-01T09:46:21.556Z</time>
      </trkpt>
      <trkpt lat="41.07455" lon="20.49318">
        <ele>525.173924</ele>
        <time>2022-05-01T09:46:23.567Z</time>
      </trkpt>
      <trkpt lat="41.07459" lon="20.493">
        <ele>524.926084</ele>
        <time>2022-05-01T09:46:25.559Z</time>
      </trkpt>
      <trkpt lat="41.07463" lon="20.49282">
        <ele>524.681221</ele>
        <time>2022-05-01T09:46:27.548Z</time>
      </trkpt>
      <trkpt lat="41.07467" lon="20.49263">
        <ele>524.424428</ele>
        <time>2022-05-01T09:46:29.549Z</time>
      </trkpt>
      <trkpt lat="41.07473" lon="20.49242">
        <ele>524.141853</ele>
        <time>2022-05-01T09:46:31.555Z</time>
      </trkpt>
      <trkpt lat="41.07477" lon="20.49222">
        <ele>523.944651</ele>
        <time>2022-05-01T09:46:33.569Z</time>
      </trkpt>
      <trkpt lat="41.07482" lon="20.49201">
        <ele>523.78647</ele>
        <time>2022-05-01T09:46:35.544Z</time>
      </trkpt>
      <trkpt lat="41.07487" lon="20.49179">
        <ele>523.625145</ele>
        <time>2022-05-01T09:46:37.552Z</time>
      </trkpt>
      <trkpt lat="41.0749" lon="20.49168">
        <ele>523.540182</ele>
        <time>2022-05-01T09:46:38.556Z</time>
      </trkpt>
      <trkpt lat="41.07493" lon="20.49156">
        <ele>523.450572</ele>
        <time>2022-05-01T09:46:39.576Z</time>
      </trkpt>
      <trkpt lat="41.07495" lon="20.49144">
        <ele>523.360281</ele>
        <time>2022-05-01T09:46:40.575Z</time>
      </trkpt>
      <trkpt lat="41.07498" lon="20.49131">
        <ele>523.26641</ele>
        <time>2022-05-01T09:46:41.540Z</time>
      </trkpt>
      <trkpt lat="41.07502" lon="20.49118">
        <ele>523.169825</ele>
        <time>2022-05-01T09:46:42.547Z</time>
      </trkpt>
      <trkpt lat="41.07505" lon="20.49105">
        <ele>523.073625</ele>
        <time>2022-05-01T09:46:43.545Z</time>
      </trkpt>
      <trkpt lat="41.07508" lon="20.49092">
        <ele>522.975152</ele>
        <time>2022-05-01T09:46:44.542Z</time>
      </trkpt>
      <trkpt lat="41.07511" lon="20.4908">
        <ele>522.880981</ele>
        <time>2022-05-01T09:46:45.557Z</time>
      </trkpt>
      <trkpt lat="41.07514" lon="20.49068">
        <ele>522.790408</ele>
        <time>2022-05-01T09:46:46.584Z</time>
      </trkpt>
      <trkpt lat="41.07517" lon="20.49055">
        <ele>522.698621</ele>
        <time>2022-05-01T09:46:47.562Z</time>
      </trkpt>
      <trkpt lat="41.07518" lon="20.49043">
        <ele>522.606064</ele>
        <time>2022-05-01T09:46:48.551Z</time>
      </trkpt>
      <trkpt lat="41.07519" lon="20.49029">
        <ele>522.512443</ele>
        <time>2022-05-01T09:46:49.553Z</time>
      </trkpt>
      <trkpt lat="41.07518" lon="20.49016">
        <ele>522.417896</ele>
        <time>2022-05-01T09:46:50.592Z</time>
      </trkpt>
      <trkpt lat="41.07516" lon="20.49003">
        <ele>522.355058</ele>
        <time>2022-05-01T09:46:51.594Z</time>
      </trkpt>
      <trkpt lat="41.07514" lon="20.4899">
        <ele>522.46567</ele>
        <time>2022-05-01T09:46:52.556Z</time>
      </trkpt>
      <trkpt lat="41.07511" lon="20.48978">
        <ele>522.575444</ele>
        <time>2022-05-01T09:46:53.547Z</time>
      </trkpt>
      <trkpt lat="41.07509" lon="20.48965">
        <ele>522.679541</ele>
        <time>2022-05-01T09:46:54.553Z</time>
      </trkpt>
      <trkpt lat="41.07507" lon="20.48943">
        <ele>522.871401</ele>
        <time>2022-05-01T09:46:56.556Z</time>
      </trkpt>
      <trkpt lat="41.07509" lon="20.48923">
        <ele>523.039853</ele>
        <time>2022-05-01T09:46:58.563Z</time>
      </trkpt>
      <trkpt lat="41.07514" lon="20.48904">
        <ele>523.204615</ele>
        <time>2022-05-01T09:47:00.557Z</time>
      </trkpt>
      <trkpt lat="41.07522" lon="20.4889">
        <ele>523.352312</ele>
        <time>2022-05-01T09:47:02.550Z</time>
      </trkpt>
      <trkpt lat="41.07528" lon="20.48879">
        <ele>523.469854</ele>
        <time>2022-05-01T09:47:04.540Z</time>
      </trkpt>
      <trkpt lat="41.07533" lon="20.48869">
        <ele>523.573409</ele>
        <time>2022-05-01T09:47:06.544Z</time>
      </trkpt>
      <trkpt lat="41.07541" lon="20.48854">
        <ele>523.718414</ele>
        <time>2022-05-01T09:47:09.569Z</time>
      </trkpt>
      <trkpt lat="41.07546" lon="20.48841">
        <ele>523.846015</ele>
        <time>2022-05-01T09:47:12.578Z</time>
      </trkpt>
      <trkpt lat="41.0755" lon="20.48828">
        <ele>523.96184</ele>
        <time>2022-05-01T09:47:15.539Z</time>
      </trkpt>
      <trkpt lat="41.07552" lon="20.48816">
        <ele>524.064311</ele>
        <time>2022-05-01T09:47:18.601Z</time>
      </trkpt>
      <trkpt lat="41.07554" lon="20.48801">
        <ele>524.190469</ele>
        <time>2022-05-01T09:47:22.550Z</time>
      </trkpt>
      <trkpt lat="41.07555" lon="20.48789">
        <ele>524.291882</ele>
        <time>2022-05-01T09:47:25.563Z</time>
      </trkpt>
      <trkpt lat="41.07554" lon="20.48774">
        <ele>524.537258</ele>
        <time>2022-05-01T09:47:29.560Z</time>
      </trkpt>
      <trkpt lat="41.07553" lon="20.48759">
        <ele>524.851224</ele>
        <time>2022-05-01T09:47:33.536Z</time>
      </trkpt>
      <trkpt lat="41.07552" lon="20.48746">
        <ele>525.139782</ele>
        <time>2022-05-01T09:47:37.546Z</time>
      </trkpt>
      <trkpt lat="41.0755" lon="20.48732">
        <ele>525.433054</ele>
        <time>2022-05-01T09:47:41.541Z</time>
      </trkpt>
      <trkpt lat="41.07547" lon="20.48718">
        <ele>525.733282</ele>
        <time>2022-05-01T09:47:45.546Z</time>
      </trkpt>
      <trkpt lat="41.07542" lon="20.48705">
        <ele>526.026969</ele>
        <time>2022-05-01T09:47:50.548Z</time>
      </trkpt>
      <trkpt lat="41.07536" lon="20.48695">
        <ele>526.299329</ele>
        <time>2022-05-01T09:47:54.550Z</time>
      </trkpt>
      <trkpt lat="41.07531" lon="20.48684">
        <ele>526.568388</ele>
        <time>2022-05-01T09:47:58.545Z</time>
      </trkpt>
      <trkpt lat="41.07524" lon="20.48674">
        <ele>526.859859</ele>
        <time>2022-05-01T09:48:02.538Z</time>
      </trkpt>
      <trkpt lat="41.07516" lon="20.48663">
        <ele>527.179612</ele>
        <time>2022-05-01T09:48:06.567Z</time>
      </trkpt>
      <trkpt lat="41.07508" lon="20.48651">
        <ele>527.497043</ele>
        <time>2022-05-01T09:48:10.556Z</time>
      </trkpt>
      <trkpt lat="41.075" lon="20.48644">
        <ele>527.754784</ele>
        <time>2022-05-01T09:48:13.559Z</time>
      </trkpt>
      <trkpt lat="41.07494" lon="20.48635">
        <ele>528.008276</ele>
        <time>2022-05-01T09:48:16.555Z</time>
      </trkpt>
      <trkpt lat="41.07487" lon="20.48627">
        <ele>528.276308</ele>
        <time>2022-05-01T09:48:19.530Z</time>
      </trkpt>
      <trkpt lat="41.07479" lon="20.48615">
        <ele>528.5838</ele>
        <time>2022-05-01T09:48:22.555Z</time>
      </trkpt>
      <trkpt lat="41.07473" lon="20.486">
        <ele>528.957145</ele>
        <time>2022-05-01T09:48:25.578Z</time>
      </trkpt>
      <trkpt lat="41.07469" lon="20.48587">
        <ele>529.240269</ele>
        <time>2022-05-01T09:48:27.559Z</time>
      </trkpt>
      <trkpt lat="41.07468" lon="20.48574">
        <ele>528.83636</ele>
        <time>2022-05-01T09:48:29.548Z</time>
      </trkpt>
      <trkpt lat="41.07469" lon="20.4856">
        <ele>528.223436</ele>
        <time>2022-05-01T09:48:31.589Z</time>
      </trkpt>
      <trkpt lat="41.07473" lon="20.48545">
        <ele>527.549341</ele>
        <time>2022-05-01T09:48:33.538Z</time>
      </trkpt>
      <trkpt lat="41.07477" lon="20.4853">
        <ele>526.845793</ele>
        <time>2022-05-01T09:48:35.546Z</time>
      </trkpt>
      <trkpt lat="41.07481" lon="20.48514">
        <ele>526.136784</ele>
        <time>2022-05-01T09:48:37.566Z</time>
      </trkpt>
      <trkpt lat="41.07484" lon="20.48497">
        <ele>525.370359</ele>
        <time>2022-05-01T09:48:39.547Z</time>
      </trkpt>
      <trkpt lat="41.07488" lon="20.48479">
        <ele>524.556841</ele>
        <time>2022-05-01T09:48:41.544Z</time>
      </trkpt>
      <trkpt lat="41.07492" lon="20.48462">
        <ele>523.782083</ele>
        <time>2022-05-01T09:48:43.551Z</time>
      </trkpt>
      <trkpt lat="41.07495" lon="20.48447">
        <ele>523.099192</ele>
        <time>2022-05-01T09:48:45.551Z</time>
      </trkpt>
      <trkpt lat="41.07496" lon="20.48431">
        <ele>522.403504</ele>
        <time>2022-05-01T09:48:47.551Z</time>
      </trkpt>
      <trkpt lat="41.07496" lon="20.48414">
        <ele>521.647303</ele>
        <time>2022-05-01T09:48:49.539Z</time>
      </trkpt>
      <trkpt lat="41.07494" lon="20.48395">
        <ele>520.820774</ele>
        <time>2022-05-01T09:48:51.546Z</time>
      </trkpt>
      <trkpt lat="41.07491" lon="20.48375">
        <ele>519.928194</ele>
        <time>2022-05-01T09:48:53.562Z</time>
      </trkpt>
      <trkpt lat="41.07487" lon="20.48352">
        <ele>518.897137</ele>
        <time>2022-05-01T09:48:55.558Z</time>
      </trkpt>
      <trkpt lat="41.07484" lon="20.48339">
        <ele>518.428466</ele>
        <time>2022-05-01T09:48:56.550Z</time>
      </trkpt>
      <trkpt lat="41.07482" lon="20.48326">
        <ele>517.964406</ele>
        <time>2022-05-01T09:48:57.559Z</time>
      </trkpt>
      <trkpt lat="41.07479" lon="20.48313">
        <ele>517.479503</ele>
        <time>2022-05-01T09:48:58.550Z</time>
      </trkpt>
      <trkpt lat="41.07477" lon="20.48299">
        <ele>516.952946</ele>
        <time>2022-05-01T09:48:59.544Z</time>
      </trkpt>
      <trkpt lat="41.07474" lon="20.48285">
        <ele>516.437938</ele>
        <time>2022-05-01T09:49:00.603Z</time>
      </trkpt>
      <trkpt lat="41.07472" lon="20.48271">
        <ele>515.937978</ele>
        <time>2022-05-01T09:49:01.546Z</time>
      </trkpt>
      <trkpt lat="41.07469" lon="20.48259">
        <ele>515.477261</ele>
        <time>2022-05-01T09:49:02.539Z</time>
      </trkpt>
      <trkpt lat="41.07466" lon="20.48247">
        <ele>515.042688</ele>
        <time>2022-05-01T09:49:03.541Z</time>
      </trkpt>
      <trkpt lat="41.0746" lon="20.48226">
        <ele>514.230397</ele>
        <time>2022-05-01T09:49:05.555Z</time>
      </trkpt>
      <trkpt lat="41.07456" lon="20.48204">
        <ele>513.424774</ele>
        <time>2022-05-01T09:49:07.548Z</time>
      </trkpt>
      <trkpt lat="41.07453" lon="20.48182">
        <ele>512.606866</ele>
        <time>2022-05-01T09:49:09.536Z</time>
      </trkpt>
      <trkpt lat="41.07452" lon="20.48158">
        <ele>511.768154</ele>
        <time>2022-05-01T09:49:11.548Z</time>
      </trkpt>
      <trkpt lat="41.07455" lon="20.48136">
        <ele>510.971027</ele>
        <time>2022-05-01T09:49:13.553Z</time>
      </trkpt>
      <trkpt lat="41.0746" lon="20.48116">
        <ele>510.29989</ele>
        <time>2022-05-01T09:49:15.550Z</time>
      </trkpt>
      <trkpt lat="41.07466" lon="20.48096">
        <ele>509.972719</ele>
        <time>2022-05-01T09:49:17.542Z</time>
      </trkpt>
      <trkpt lat="41.07472" lon="20.48076">
        <ele>509.656161</ele>
        <time>2022-05-01T09:49:19.538Z</time>
      </trkpt>
      <trkpt lat="41.07475" lon="20.48057">
        <ele>509.355092</ele>
        <time>2022-05-01T09:49:21.546Z</time>
      </trkpt>
      <trkpt lat="41.07474" lon="20.48036">
        <ele>509.039621</ele>
        <time>2022-05-01T09:49:23.550Z</time>
      </trkpt>
      <trkpt lat="41.07467" lon="20.48017">
        <ele>508.71489</ele>
        <time>2022-05-01T09:49:25.535Z</time>
      </trkpt>
      <trkpt lat="41.07454" lon="20.48001">
        <ele>508.373167</ele>
        <time>2022-05-01T09:49:27.573Z</time>
      </trkpt>
      <trkpt lat="41.07441" lon="20.47989">
        <ele>508.04455</ele>
        <time>2022-05-01T09:49:29.550Z</time>
      </trkpt>
      <trkpt lat="41.0743" lon="20.47974">
        <ele>507.718926</ele>
        <time>2022-05-01T09:49:31.550Z</time>
      </trkpt>
      <trkpt lat="41.07422" lon="20.47953">
        <ele>507.36575</ele>
        <time>2022-05-01T09:49:33.556Z</time>
      </trkpt>
      <trkpt lat="41.07419" lon="20.47941">
        <ele>507.170082</ele>
        <time>2022-05-01T09:49:34.554Z</time>
      </trkpt>
      <trkpt lat="41.07417" lon="20.47928">
        <ele>506.972994</ele>
        <time>2022-05-01T09:49:35.559Z</time>
      </trkpt>
      <trkpt lat="41.07415" lon="20.47915">
        <ele>506.773846</ele>
        <time>2022-05-01T09:49:36.535Z</time>
      </trkpt>
      <trkpt lat="41.07413" lon="20.47902">
        <ele>506.25332</ele>
        <time>2022-05-01T09:49:37.563Z</time>
      </trkpt>
      <trkpt lat="41.07411" lon="20.4789">
        <ele>505.725597</ele>
        <time>2022-05-01T09:49:38.581Z</time>
      </trkpt>
      <trkpt lat="41.07409" lon="20.47878">
        <ele>505.195272</ele>
        <time>2022-05-01T09:49:39.555Z</time>
      </trkpt>
      <trkpt lat="41.07407" lon="20.47866">
        <ele>504.690558</ele>
        <time>2022-05-01T09:49:40.545Z</time>
      </trkpt>
      <trkpt lat="41.07403" lon="20.47843">
        <ele>503.679936</ele>
        <time>2022-05-01T09:49:42.553Z</time>
      </trkpt>
      <trkpt lat="41.07401" lon="20.47831">
        <ele>503.168644</ele>
        <time>2022-05-01T09:49:43.550Z</time>
      </trkpt>
      <trkpt lat="41.07398" lon="20.47819">
        <ele>502.651752</ele>
        <time>2022-05-01T09:49:44.555Z</time>
      </trkpt>
      <trkpt lat="41.07396" lon="20.47807">
        <ele>502.118601</ele>
        <time>2022-05-01T09:49:45.531Z</time>
      </trkpt>
      <trkpt lat="41.07394" lon="20.47795">
        <ele>501.582652</ele>
        <time>2022-05-01T09:49:46.548Z</time>
      </trkpt>
      <trkpt lat="41.07391" lon="20.47783">
        <ele>501.059097</ele>
        <time>2022-05-01T09:49:47.539Z</time>
      </trkpt>
      <trkpt lat="41.07388" lon="20.47771">
        <ele>500.54772</ele>
        <time>2022-05-01T09:49:48.553Z</time>
      </trkpt>
      <trkpt lat="41.07385" lon="20.4776">
        <ele>500.040614</ele>
        <time>2022-05-01T09:49:49.582Z</time>
      </trkpt>
      <trkpt lat="41.07382" lon="20.47749">
        <ele>499.525431</ele>
        <time>2022-05-01T09:49:50.535Z</time>
      </trkpt>
      <trkpt lat="41.07378" lon="20.47738">
        <ele>499.008992</ele>
        <time>2022-05-01T09:49:51.551Z</time>
      </trkpt>
      <trkpt lat="41.07374" lon="20.47727">
        <ele>498.511584</ele>
        <time>2022-05-01T09:49:52.571Z</time>
      </trkpt>
      <trkpt lat="41.07366" lon="20.47707">
        <ele>497.567951</ele>
        <time>2022-05-01T09:49:54.544Z</time>
      </trkpt>
      <trkpt lat="41.0736" lon="20.47686">
        <ele>496.59721</ele>
        <time>2022-05-01T09:49:56.542Z</time>
      </trkpt>
      <trkpt lat="41.07359" lon="20.47674">
        <ele>495.990378</ele>
        <time>2022-05-01T09:49:57.552Z</time>
      </trkpt>
      <trkpt lat="41.07358" lon="20.47661">
        <ele>495.364433</ele>
        <time>2022-05-01T09:49:58.558Z</time>
      </trkpt>
      <trkpt lat="41.07358" lon="20.47647">
        <ele>494.659014</ele>
        <time>2022-05-01T09:49:59.550Z</time>
      </trkpt>
      <trkpt lat="41.07358" lon="20.47633">
        <ele>493.939351</ele>
        <time>2022-05-01T09:50:00.559Z</time>
      </trkpt>
      <trkpt lat="41.07358" lon="20.47617">
        <ele>493.159298</ele>
        <time>2022-05-01T09:50:01.552Z</time>
      </trkpt>
      <trkpt lat="41.07359" lon="20.47601">
        <ele>492.345138</ele>
        <time>2022-05-01T09:50:02.549Z</time>
      </trkpt>
      <trkpt lat="41.07363" lon="20.47585">
        <ele>491.501692</ele>
        <time>2022-05-01T09:50:03.551Z</time>
      </trkpt>
      <trkpt lat="41.07366" lon="20.47569">
        <ele>490.672887</ele>
        <time>2022-05-01T09:50:04.549Z</time>
      </trkpt>
      <trkpt lat="41.07371" lon="20.47554">
        <ele>489.866116</ele>
        <time>2022-05-01T09:50:05.556Z</time>
      </trkpt>
      <trkpt lat="41.07375" lon="20.47539">
        <ele>489.089801</ele>
        <time>2022-05-01T09:50:06.582Z</time>
      </trkpt>
      <trkpt lat="41.07378" lon="20.47525">
        <ele>488.343695</ele>
        <time>2022-05-01T09:50:07.570Z</time>
      </trkpt>
      <trkpt lat="41.07383" lon="20.47511">
        <ele>487.602077</ele>
        <time>2022-05-01T09:50:08.550Z</time>
      </trkpt>
      <trkpt lat="41.07387" lon="20.47498">
        <ele>486.870806</ele>
        <time>2022-05-01T09:50:09.560Z</time>
      </trkpt>
      <trkpt lat="41.07393" lon="20.47485">
        <ele>486.129047</ele>
        <time>2022-05-01T09:50:10.549Z</time>
      </trkpt>
      <trkpt lat="41.07399" lon="20.47472">
        <ele>485.365114</ele>
        <time>2022-05-01T09:50:11.559Z</time>
      </trkpt>
      <trkpt lat="41.07405" lon="20.4746">
        <ele>484.643055</ele>
        <time>2022-05-01T09:50:12.597Z</time>
      </trkpt>
      <trkpt lat="41.07412" lon="20.47448">
        <ele>484.039053</ele>
        <time>2022-05-01T09:50:13.555Z</time>
      </trkpt>
      <trkpt lat="41.07418" lon="20.47436">
        <ele>483.477367</ele>
        <time>2022-05-01T09:50:14.557Z</time>
      </trkpt>
      <trkpt lat="41.07423" lon="20.47425">
        <ele>482.943344</ele>
        <time>2022-05-01T09:50:15.557Z</time>
      </trkpt>
      <trkpt lat="41.07428" lon="20.47414">
        <ele>482.405847</ele>
        <time>2022-05-01T09:50:16.534Z</time>
      </trkpt>
      <trkpt lat="41.07433" lon="20.47403">
        <ele>481.85222</ele>
        <time>2022-05-01T09:50:17.552Z</time>
      </trkpt>
      <trkpt lat="41.07438" lon="20.47391">
        <ele>481.30349</ele>
        <time>2022-05-01T09:50:18.555Z</time>
      </trkpt>
      <trkpt lat="41.07443" lon="20.47379">
        <ele>480.757471</ele>
        <time>2022-05-01T09:50:19.564Z</time>
      </trkpt>
      <trkpt lat="41.07448" lon="20.47368">
        <ele>480.224783</ele>
        <time>2022-05-01T09:50:20.555Z</time>
      </trkpt>
      <trkpt lat="41.07453" lon="20.47357">
        <ele>479.690109</ele>
        <time>2022-05-01T09:50:21.565Z</time>
      </trkpt>
      <trkpt lat="41.07458" lon="20.47346">
        <ele>479.168933</ele>
        <time>2022-05-01T09:50:22.552Z</time>
      </trkpt>
      <trkpt lat="41.07462" lon="20.47334">
        <ele>478.647692</ele>
        <time>2022-05-01T09:50:23.548Z</time>
      </trkpt>
      <trkpt lat="41.07465" lon="20.47322">
        <ele>478.134958</ele>
        <time>2022-05-01T09:50:24.589Z</time>
      </trkpt>
      <trkpt lat="41.07467" lon="20.4731">
        <ele>477.612798</ele>
        <time>2022-05-01T09:50:25.529Z</time>
      </trkpt>
      <trkpt lat="41.07468" lon="20.47297">
        <ele>477.080591</ele>
        <time>2022-05-01T09:50:26.557Z</time>
      </trkpt>
      <trkpt lat="41.07467" lon="20.47284">
        <ele>476.544305</ele>
        <time>2022-05-01T09:50:27.569Z</time>
      </trkpt>
      <trkpt lat="41.07465" lon="20.4727">
        <ele>475.988122</ele>
        <time>2022-05-01T09:50:28.565Z</time>
      </trkpt>
      <trkpt lat="41.07462" lon="20.47257">
        <ele>475.435653</ele>
        <time>2022-05-01T09:50:29.569Z</time>
      </trkpt>
      <trkpt lat="41.07459" lon="20.47245">
        <ele>474.853046</ele>
        <time>2022-05-01T09:50:30.597Z</time>
      </trkpt>
      <trkpt lat="41.07454" lon="20.47233">
        <ele>474.199661</ele>
        <time>2022-05-01T09:50:31.528Z</time>
      </trkpt>
      <trkpt lat="41.07447" lon="20.47221">
        <ele>473.537491</ele>
        <time>2022-05-01T09:50:32.584Z</time>
      </trkpt>
      <trkpt lat="41.0744" lon="20.47211">
        <ele>472.86236</ele>
        <time>2022-05-01T09:50:33.539Z</time>
      </trkpt>
      <trkpt lat="41.07433" lon="20.47201">
        <ele>472.197625</ele>
        <time>2022-05-01T09:50:34.536Z</time>
      </trkpt>
      <trkpt lat="41.07425" lon="20.47192">
        <ele>471.543691</ele>
        <time>2022-05-01T09:50:35.564Z</time>
      </trkpt>
      <trkpt lat="41.07417" lon="20.47184">
        <ele>470.921394</ele>
        <time>2022-05-01T09:50:36.565Z</time>
      </trkpt>
      <trkpt lat="41.0741" lon="20.47176">
        <ele>470.302115</ele>
        <time>2022-05-01T09:50:37.554Z</time>
      </trkpt>
      <trkpt lat="41.07403" lon="20.47168">
        <ele>469.717974</ele>
        <time>2022-05-01T09:50:38.556Z</time>
      </trkpt>
      <trkpt lat="41.07391" lon="20.47151">
        <ele>468.599463</ele>
        <time>2022-05-01T09:50:40.551Z</time>
      </trkpt>
      <trkpt lat="41.0738" lon="20.47131">
        <ele>467.468073</ele>
        <time>2022-05-01T09:50:42.529Z</time>
      </trkpt>
      <trkpt lat="41.07376" lon="20.4712">
        <ele>466.866215</ele>
        <time>2022-05-01T09:50:43.545Z</time>
      </trkpt>
      <trkpt lat="41.07372" lon="20.47108">
        <ele>466.250347</ele>
        <time>2022-05-01T09:50:44.545Z</time>
      </trkpt>
      <trkpt lat="41.07369" lon="20.47095">
        <ele>465.619193</ele>
        <time>2022-05-01T09:50:45.545Z</time>
      </trkpt>
      <trkpt lat="41.07366" lon="20.47083">
        <ele>464.987458</ele>
        <time>2022-05-01T09:50:46.559Z</time>
      </trkpt>
      <trkpt lat="41.07364" lon="20.47069">
        <ele>464.341831</ele>
        <time>2022-05-01T09:50:47.538Z</time>
      </trkpt>
      <trkpt lat="41.07362" lon="20.47056">
        <ele>463.676206</ele>
        <time>2022-05-01T09:50:48.556Z</time>
      </trkpt>
      <trkpt lat="41.07359" lon="20.47043">
        <ele>463.209633</ele>
        <time>2022-05-01T09:50:49.551Z</time>
      </trkpt>
      <trkpt lat="41.07355" lon="20.4703">
        <ele>462.75133</ele>
        <time>2022-05-01T09:50:50.534Z</time>
      </trkpt>
      <trkpt lat="41.07351" lon="20.47017">
        <ele>462.299119</ele>
        <time>2022-05-01T09:50:51.554Z</time>
      </trkpt>
      <trkpt lat="41.07347" lon="20.47005">
        <ele>461.861707</ele>
        <time>2022-05-01T09:50:52.588Z</time>
      </trkpt>
      <trkpt lat="41.07343" lon="20.46993">
        <ele>461.432542</ele>
        <time>2022-05-01T09:50:53.544Z</time>
      </trkpt>
      <trkpt lat="41.07339" lon="20.46982">
        <ele>461.02108</ele>
        <time>2022-05-01T09:50:54.607Z</time>
      </trkpt>
      <trkpt lat="41.07335" lon="20.46971">
        <ele>460.606747</ele>
        <time>2022-05-01T09:50:55.563Z</time>
      </trkpt>
      <trkpt lat="41.0733" lon="20.4696">
        <ele>460.177455</ele>
        <time>2022-05-01T09:50:56.554Z</time>
      </trkpt>
      <trkpt lat="41.07326" lon="20.46948">
        <ele>459.74728</ele>
        <time>2022-05-01T09:50:57.561Z</time>
      </trkpt>
      <trkpt lat="41.07322" lon="20.46937">
        <ele>459.342536</ele>
        <time>2022-05-01T09:50:58.539Z</time>
      </trkpt>
      <trkpt lat="41.07314" lon="20.46916">
        <ele>458.558398</ele>
        <time>2022-05-01T09:51:00.554Z</time>
      </trkpt>
      <trkpt lat="41.07306" lon="20.46895">
        <ele>457.789969</ele>
        <time>2022-05-01T09:51:02.557Z</time>
      </trkpt>
      <trkpt lat="41.07298" lon="20.46876">
        <ele>457.04327</ele>
        <time>2022-05-01T09:51:04.549Z</time>
      </trkpt>
      <trkpt lat="41.07291" lon="20.46856">
        <ele>456.320181</ele>
        <time>2022-05-01T09:51:06.546Z</time>
      </trkpt>
      <trkpt lat="41.07286" lon="20.46836">
        <ele>455.821428</ele>
        <time>2022-05-01T09:51:08.600Z</time>
      </trkpt>
      <trkpt lat="41.07282" lon="20.46816">
        <ele>456.351447</ele>
        <time>2022-05-01T09:51:10.568Z</time>
      </trkpt>
      <trkpt lat="41.0728" lon="20.46797">
        <ele>456.864112</ele>
        <time>2022-05-01T09:51:12.548Z</time>
      </trkpt>
      <trkpt lat="41.07279" lon="20.46777">
        <ele>457.388082</ele>
        <time>2022-05-01T09:51:14.552Z</time>
      </trkpt>
      <trkpt lat="41.07281" lon="20.46757">
        <ele>457.914758</ele>
        <time>2022-05-01T09:51:16.550Z</time>
      </trkpt>
      <trkpt lat="41.07285" lon="20.4674">
        <ele>458.395981</ele>
        <time>2022-05-01T09:51:18.554Z</time>
      </trkpt>
      <trkpt lat="41.0729" lon="20.46724">
        <ele>458.83924</ele>
        <time>2022-05-01T09:51:20.545Z</time>
      </trkpt>
      <trkpt lat="41.07295" lon="20.4671">
        <ele>459.251882</ele>
        <time>2022-05-01T09:51:22.554Z</time>
      </trkpt>
      <trkpt lat="41.07296" lon="20.46697">
        <ele>459.602937</ele>
        <time>2022-05-01T09:51:24.559Z</time>
      </trkpt>
      <trkpt lat="41.073" lon="20.46685">
        <ele>459.931671</ele>
        <time>2022-05-01T09:51:26.605Z</time>
      </trkpt>
      <trkpt lat="41.07304" lon="20.46669">
        <ele>460.365108</ele>
        <time>2022-05-01T09:51:29.529Z</time>
      </trkpt>
      <trkpt lat="41.07307" lon="20.46657">
        <ele>460.716122</ele>
        <time>2022-05-01T09:51:32.552Z</time>
      </trkpt>
      <trkpt lat="41.0731" lon="20.46645">
        <ele>461.053563</ele>
        <time>2022-05-01T09:51:35.561Z</time>
      </trkpt>
      <trkpt lat="41.07313" lon="20.46632">
        <ele>461.390192</ele>
        <time>2022-05-01T09:51:38.557Z</time>
      </trkpt>
      <trkpt lat="41.07317" lon="20.46618">
        <ele>461.786255</ele>
        <time>2022-05-01T09:51:42.552Z</time>
      </trkpt>
      <trkpt lat="41.0732" lon="20.46604">
        <ele>462.413523</ele>
        <time>2022-05-01T09:51:46.554Z</time>
      </trkpt>
      <trkpt lat="41.07322" lon="20.46592">
        <ele>463.221607</ele>
        <time>2022-05-01T09:51:50.554Z</time>
      </trkpt>
      <trkpt lat="41.07325" lon="20.4658">
        <ele>464.05081</ele>
        <time>2022-05-01T09:51:54.548Z</time>
      </trkpt>
      <trkpt lat="41.07327" lon="20.46567">
        <ele>464.957387</ele>
        <time>2022-05-01T09:51:58.540Z</time>
      </trkpt>
      <trkpt lat="41.07329" lon="20.46555">
        <ele>465.810341</ele>
        <time>2022-05-01T09:52:02.568Z</time>
      </trkpt>
      <trkpt lat="41.07331" lon="20.46542">
        <ele>466.662503</ele>
        <time>2022-05-01T09:52:06.581Z</time>
      </trkpt>
      <trkpt lat="41.07334" lon="20.4653">
        <ele>467.48338</ele>
        <time>2022-05-01T09:52:10.540Z</time>
      </trkpt>
      <trkpt lat="41.07337" lon="20.46517">
        <ele>468.402088</ele>
        <time>2022-05-01T09:52:15.573Z</time>
      </trkpt>
      <trkpt lat="41.07341" lon="20.46503">
        <ele>469.390739</ele>
        <time>2022-05-01T09:52:20.566Z</time>
      </trkpt>
      <trkpt lat="41.07345" lon="20.4649">
        <ele>470.308769</ele>
        <time>2022-05-01T09:52:25.550Z</time>
      </trkpt>
      <trkpt lat="41.07348" lon="20.46478">
        <ele>471.164261</ele>
        <time>2022-05-01T09:52:30.541Z</time>
      </trkpt>
      <trkpt lat="41.07352" lon="20.46467">
        <ele>471.975852</ele>
        <time>2022-05-01T09:52:36.560Z</time>
      </trkpt>
      <trkpt lat="41.07356" lon="20.46456">
        <ele>472.789612</ele>
        <time>2022-05-01T09:52:41.543Z</time>
      </trkpt>
      <trkpt lat="41.07361" lon="20.46444">
        <ele>473.708167</ele>
        <time>2022-05-01T09:52:46.571Z</time>
      </trkpt>
      <trkpt lat="41.07367" lon="20.46432">
        <ele>474.63865</ele>
        <time>2022-05-01T09:52:51.547Z</time>
      </trkpt>
      <trkpt lat="41.07373" lon="20.46422">
        <ele>475.520015</ele>
        <time>2022-05-01T09:52:56.548Z</time>
      </trkpt>
      <trkpt lat="41.0738" lon="20.46412">
        <ele>476.389324</ele>
        <time>2022-05-01T09:53:01.552Z</time>
      </trkpt>
      <trkpt lat="41.07388" lon="20.46402">
        <ele>477.372266</ele>
        <time>2022-05-01T09:53:06.538Z</time>
      </trkpt>
      <trkpt lat="41.07394" lon="20.46392">
        <ele>477.869021</ele>
        <time>2022-05-01T09:53:10.568Z</time>
      </trkpt>
      <trkpt lat="41.07402" lon="20.46385">
        <ele>477.878417</ele>
        <time>2022-05-01T09:53:14.571Z</time>
      </trkpt>
      <trkpt lat="41.0741" lon="20.46377">
        <ele>477.888283</ele>
        <time>2022-05-01T09:53:18.554Z</time>
      </trkpt>
      <trkpt lat="41.07418" lon="20.46371">
        <ele>477.898205</ele>
        <time>2022-05-01T09:53:22.583Z</time>
      </trkpt>
      <trkpt lat="41.07428" lon="20.46365">
        <ele>477.908403</ele>
        <time>2022-05-01T09:53:26.553Z</time>
      </trkpt>
      <trkpt lat="41.07437" lon="20.46359">
        <ele>477.918979</ele>
        <time>2022-05-01T09:53:30.549Z</time>
      </trkpt>
      <trkpt lat="41.07446" lon="20.46354">
        <ele>477.928656</ele>
        <time>2022-05-01T09:53:34.572Z</time>
      </trkpt>
      <trkpt lat="41.07453" lon="20.46347">
        <ele>477.938144</ele>
        <time>2022-05-01T09:53:38.563Z</time>
      </trkpt>
      <trkpt lat="41.07462" lon="20.46338">
        <ele>477.949086</ele>
        <time>2022-05-01T09:53:42.570Z</time>
      </trkpt>
      <trkpt lat="41.07471" lon="20.46327">
        <ele>477.961111</ele>
        <time>2022-05-01T09:53:46.546Z</time>
      </trkpt>
      <trkpt lat="41.07479" lon="20.46315">
        <ele>477.973079</ele>
        <time>2022-05-01T09:53:50.583Z</time>
      </trkpt>
      <trkpt lat="41.07485" lon="20.46306">
        <ele>477.982376</ele>
        <time>2022-05-01T09:53:53.581Z</time>
      </trkpt>
      <trkpt lat="41.07492" lon="20.46294">
        <ele>477.993598</ele>
        <time>2022-05-01T09:53:57.534Z</time>
      </trkpt>
      <trkpt lat="41.07498" lon="20.46285">
        <ele>478.003069</ele>
        <time>2022-05-01T09:54:00.577Z</time>
      </trkpt>
      <trkpt lat="41.07504" lon="20.46276">
        <ele>478.012465</ele>
        <time>2022-05-01T09:54:03.560Z</time>
      </trkpt>
      <trkpt lat="41.07512" lon="20.46266">
        <ele>478.023408</ele>
        <time>2022-05-01T09:54:06.538Z</time>
      </trkpt>
      <trkpt lat="41.07522" lon="20.46256">
        <ele>478.035595</ele>
        <time>2022-05-01T09:54:09.561Z</time>
      </trkpt>
      <trkpt lat="41.07532" lon="20.46245">
        <ele>477.917459</ele>
        <time>2022-05-01T09:54:12.543Z</time>
      </trkpt>
      <trkpt lat="41.0754" lon="20.46237">
        <ele>477.545221</ele>
        <time>2022-05-01T09:54:14.548Z</time>
      </trkpt>
      <trkpt lat="41.07549" lon="20.46228">
        <ele>477.133042</ele>
        <time>2022-05-01T09:54:16.547Z</time>
      </trkpt>
      <trkpt lat="41.07558" lon="20.46219">
        <ele>476.702128</ele>
        <time>2022-05-01T09:54:18.600Z</time>
      </trkpt>
      <trkpt lat="41.07568" lon="20.46209">
        <ele>476.240119</ele>
        <time>2022-05-01T09:54:20.568Z</time>
      </trkpt>
      <trkpt lat="41.07579" lon="20.46199">
        <ele>475.761555</ele>
        <time>2022-05-01T09:54:22.555Z</time>
      </trkpt>
      <trkpt lat="41.07589" lon="20.4619">
        <ele>475.287774</ele>
        <time>2022-05-01T09:54:24.563Z</time>
      </trkpt>
      <trkpt lat="41.076" lon="20.46181">
        <ele>474.818092</ele>
        <time>2022-05-01T09:54:26.549Z</time>
      </trkpt>
      <trkpt lat="41.07611" lon="20.46172">
        <ele>474.331526</ele>
        <time>2022-05-01T09:54:28.566Z</time>
      </trkpt>
      <trkpt lat="41.07622" lon="20.46164">
        <ele>473.850745</ele>
        <time>2022-05-01T09:54:30.558Z</time>
      </trkpt>
      <trkpt lat="41.07633" lon="20.46155">
        <ele>473.36673</ele>
        <time>2022-05-01T09:54:32.555Z</time>
      </trkpt>
      <trkpt lat="41.07644" lon="20.46147">
        <ele>472.889623</ele>
        <time>2022-05-01T09:54:34.547Z</time>
      </trkpt>
      <trkpt lat="41.07656" lon="20.4614">
        <ele>472.428723</ele>
        <time>2022-05-01T09:54:36.548Z</time>
      </trkpt>
      <trkpt lat="41.07666" lon="20.46133">
        <ele>471.992934</ele>
        <time>2022-05-01T09:54:38.567Z</time>
      </trkpt>
      <trkpt lat="41.07677" lon="20.46127">
        <ele>471.560616</ele>
        <time>2022-05-01T09:54:40.553Z</time>
      </trkpt>
      <trkpt lat="41.07688" lon="20.46122">
        <ele>471.088881</ele>
        <time>2022-05-01T09:54:42.552Z</time>
      </trkpt>
      <trkpt lat="41.07699" lon="20.46116">
        <ele>470.542424</ele>
        <time>2022-05-01T09:54:44.550Z</time>
      </trkpt>
      <trkpt lat="41.07711" lon="20.4611">
        <ele>469.958761</ele>
        <time>2022-05-01T09:54:46.579Z</time>
      </trkpt>
      <trkpt lat="41.07723" lon="20.46104">
        <ele>469.38601</ele>
        <time>2022-05-01T09:54:48.549Z</time>
      </trkpt>
      <trkpt lat="41.07736" lon="20.46098">
        <ele>468.801988</ele>
        <time>2022-05-01T09:54:50.557Z</time>
      </trkpt>
      <trkpt lat="41.07749" lon="20.46091">
        <ele>468.189449</ele>
        <time>2022-05-01T09:54:52.546Z</time>
      </trkpt>
      <trkpt lat="41.07763" lon="20.46084">
        <ele>467.521043</ele>
        <time>2022-05-01T09:54:54.546Z</time>
      </trkpt>
      <trkpt lat="41.07778" lon="20.46077">
        <ele>466.781924</ele>
        <time>2022-05-01T09:54:56.550Z</time>
      </trkpt>
      <trkpt lat="41.07795" lon="20.46069">
        <ele>465.989944</ele>
        <time>2022-05-01T09:54:58.540Z</time>
      </trkpt>
      <trkpt lat="41.07804" lon="20.46064">
        <ele>465.57341</ele>
        <time>2022-05-01T09:54:59.565Z</time>
      </trkpt>
      <trkpt lat="41.07812" lon="20.46059">
        <ele>465.169239</ele>
        <time>2022-05-01T09:55:00.537Z</time>
      </trkpt>
      <trkpt lat="41.07821" lon="20.46054">
        <ele>464.748877</ele>
        <time>2022-05-01T09:55:01.559Z</time>
      </trkpt>
      <trkpt lat="41.0783" lon="20.46049">
        <ele>464.320425</ele>
        <time>2022-05-01T09:55:02.542Z</time>
      </trkpt>
      <trkpt lat="41.07838" lon="20.46043">
        <ele>463.88738</ele>
        <time>2022-05-01T09:55:03.582Z</time>
      </trkpt>
      <trkpt lat="41.07846" lon="20.46037">
        <ele>463.464247</ele>
        <time>2022-05-01T09:55:04.554Z</time>
      </trkpt>
      <trkpt lat="41.07855" lon="20.4603">
        <ele>463.157709</ele>
        <time>2022-05-01T09:55:05.555Z</time>
      </trkpt>
      <trkpt lat="41.07862" lon="20.46022">
        <ele>462.926898</ele>
        <time>2022-05-01T09:55:06.550Z</time>
      </trkpt>
      <trkpt lat="41.07869" lon="20.46015">
        <ele>462.701532</ele>
        <time>2022-05-01T09:55:07.548Z</time>
      </trkpt>
      <trkpt lat="41.07876" lon="20.46006">
        <ele>462.476253</ele>
        <time>2022-05-01T09:55:08.555Z</time>
      </trkpt>
      <trkpt lat="41.07883" lon="20.45998">
        <ele>462.246109</ele>
        <time>2022-05-01T09:55:09.574Z</time>
      </trkpt>
      <trkpt lat="41.0789" lon="20.45989">
        <ele>462.003496</ele>
        <time>2022-05-01T09:55:10.538Z</time>
      </trkpt>
      <trkpt lat="41.07897" lon="20.4598">
        <ele>461.763084</ele>
        <time>2022-05-01T09:55:11.545Z</time>
      </trkpt>
      <trkpt lat="41.07904" lon="20.4597">
        <ele>461.521355</ele>
        <time>2022-05-01T09:55:12.550Z</time>
      </trkpt>
      <trkpt lat="41.07911" lon="20.45961">
        <ele>461.272598</ele>
        <time>2022-05-01T09:55:13.526Z</time>
      </trkpt>
      <trkpt lat="41.07918" lon="20.45951">
        <ele>461.028567</ele>
        <time>2022-05-01T09:55:14.588Z</time>
      </trkpt>
      <trkpt lat="41.07924" lon="20.45942">
        <ele>460.789241</ele>
        <time>2022-05-01T09:55:15.553Z</time>
      </trkpt>
      <trkpt lat="41.07931" lon="20.45933">
        <ele>460.562329</ele>
        <time>2022-05-01T09:55:16.550Z</time>
      </trkpt>
      <trkpt lat="41.07937" lon="20.45924">
        <ele>460.338461</ele>
        <time>2022-05-01T09:55:17.558Z</time>
      </trkpt>
      <trkpt lat="41.07949" lon="20.45908">
        <ele>459.916778</ele>
        <time>2022-05-01T09:55:19.549Z</time>
      </trkpt>
      <trkpt lat="41.07961" lon="20.45892">
        <ele>459.499832</ele>
        <time>2022-05-01T09:55:21.559Z</time>
      </trkpt>
      <trkpt lat="41.07972" lon="20.45876">
        <ele>459.093676</ele>
        <time>2022-05-01T09:55:23.547Z</time>
      </trkpt>
      <trkpt lat="41.07983" lon="20.4586">
        <ele>458.897685</ele>
        <time>2022-05-01T09:55:25.558Z</time>
      </trkpt>
      <trkpt lat="41.07995" lon="20.45844">
        <ele>458.895001</ele>
        <time>2022-05-01T09:55:27.567Z</time>
      </trkpt>
      <trkpt lat="41.08006" lon="20.45828">
        <ele>458.892324</ele>
        <time>2022-05-01T09:55:29.554Z</time>
      </trkpt>
      <trkpt lat="41.08017" lon="20.45813">
        <ele>458.889665</ele>
        <time>2022-05-01T09:55:31.546Z</time>
      </trkpt>
      <trkpt lat="41.08028" lon="20.45797">
        <ele>458.887026</ele>
        <time>2022-05-01T09:55:33.545Z</time>
      </trkpt>
      <trkpt lat="41.0804" lon="20.45781">
        <ele>458.884302</ele>
        <time>2022-05-01T09:55:35.546Z</time>
      </trkpt>
      <trkpt lat="41.08051" lon="20.45765">
        <ele>458.881549</ele>
        <time>2022-05-01T09:55:37.548Z</time>
      </trkpt>
      <trkpt lat="41.08062" lon="20.45749">
        <ele>458.878893</ele>
        <time>2022-05-01T09:55:39.561Z</time>
      </trkpt>
      <trkpt lat="41.08071" lon="20.45733">
        <ele>458.876391</ele>
        <time>2022-05-01T09:55:41.545Z</time>
      </trkpt>
      <trkpt lat="41.0808" lon="20.45717">
        <ele>458.874008</ele>
        <time>2022-05-01T09:55:43.547Z</time>
      </trkpt>
      <trkpt lat="41.08088" lon="20.45702">
        <ele>458.871781</ele>
        <time>2022-05-01T09:55:45.531Z</time>
      </trkpt>
      <trkpt lat="41.08095" lon="20.45688">
        <ele>458.869925</ele>
        <time>2022-05-01T09:55:47.567Z</time>
      </trkpt>
      <trkpt lat="41.08101" lon="20.45674">
        <ele>458.974879</ele>
        <time>2022-05-01T09:55:49.586Z</time>
      </trkpt>
      <trkpt lat="41.08107" lon="20.45662">
        <ele>459.069981</ele>
        <time>2022-05-01T09:55:51.554Z</time>
      </trkpt>
      <trkpt lat="41.08111" lon="20.4565">
        <ele>459.157794</ele>
        <time>2022-05-01T09:55:53.587Z</time>
      </trkpt>
      <trkpt lat="41.08116" lon="20.45639">
        <ele>459.243632</ele>
        <time>2022-05-01T09:55:55.535Z</time>
      </trkpt>
      <trkpt lat="41.0812" lon="20.45627">
        <ele>459.331635</ele>
        <time>2022-05-01T09:55:57.550Z</time>
      </trkpt>
      <trkpt lat="41.08125" lon="20.45615">
        <ele>459.420035</ele>
        <time>2022-05-01T09:55:59.556Z</time>
      </trkpt>
      <trkpt lat="41.0813" lon="20.45603">
        <ele>459.506505</ele>
        <time>2022-05-01T09:56:01.560Z</time>
      </trkpt>
      <trkpt lat="41.08135" lon="20.45592">
        <ele>459.594583</ele>
        <time>2022-05-01T09:56:03.550Z</time>
      </trkpt>
      <trkpt lat="41.08141" lon="20.4558">
        <ele>459.686045</ele>
        <time>2022-05-01T09:56:05.560Z</time>
      </trkpt>
      <trkpt lat="41.08146" lon="20.4557">
        <ele>459.771029</ele>
        <time>2022-05-01T09:56:07.548Z</time>
      </trkpt>
      <trkpt lat="41.08153" lon="20.4556">
        <ele>459.864269</ele>
        <time>2022-05-01T09:56:09.552Z</time>
      </trkpt>
      <trkpt lat="41.08162" lon="20.45549">
        <ele>459.964507</ele>
        <time>2022-05-01T09:56:11.542Z</time>
      </trkpt>
      <trkpt lat="41.0817" lon="20.4554">
        <ele>460.060705</ele>
        <time>2022-05-01T09:56:13.568Z</time>
      </trkpt>
      <trkpt lat="41.08178" lon="20.45532">
        <ele>460.148423</ele>
        <time>2022-05-01T09:56:15.576Z</time>
      </trkpt>
      <trkpt lat="41.08187" lon="20.45525">
        <ele>460.235881</ele>
        <time>2022-05-01T09:56:17.545Z</time>
      </trkpt>
      <trkpt lat="41.08195" lon="20.45519">
        <ele>460.318322</ele>
        <time>2022-05-01T09:56:19.561Z</time>
      </trkpt>
      <trkpt lat="41.08207" lon="20.45511">
        <ele>460.439635</ele>
        <time>2022-05-01T09:56:22.557Z</time>
      </trkpt>
      <trkpt lat="41.08216" lon="20.45505">
        <ele>460.708498</ele>
        <time>2022-05-01T09:56:24.552Z</time>
      </trkpt>
      <trkpt lat="41.08224" lon="20.45499">
        <ele>460.976325</ele>
        <time>2022-05-01T09:56:26.600Z</time>
      </trkpt>
      <trkpt lat="41.08232" lon="20.45492">
        <ele>461.240982</ele>
        <time>2022-05-01T09:56:28.557Z</time>
      </trkpt>
      <trkpt lat="41.08242" lon="20.45484">
        <ele>461.575396</ele>
        <time>2022-05-01T09:56:31.553Z</time>
      </trkpt>
      <trkpt lat="41.0825" lon="20.4548">
        <ele>461.846894</ele>
        <time>2022-05-01T09:56:35.567Z</time>
      </trkpt>
      <trkpt lat="41.08265" lon="20.45461">
        <ele>462.438161</ele>
        <time>2022-05-01T10:00:18.554Z</time>
      </trkpt>
      <trkpt lat="41.08272" lon="20.45449">
        <ele>462.757905</ele>
        <time>2022-05-01T10:00:22.545Z</time>
      </trkpt>
      <trkpt lat="41.08278" lon="20.45439">
        <ele>463.03254</ele>
        <time>2022-05-01T10:00:25.570Z</time>
      </trkpt>
      <trkpt lat="41.08283" lon="20.45428">
        <ele>463.324323</ele>
        <time>2022-05-01T10:00:28.546Z</time>
      </trkpt>
      <trkpt lat="41.08288" lon="20.45414">
        <ele>463.665241</ele>
        <time>2022-05-01T10:00:31.547Z</time>
      </trkpt>
      <trkpt lat="41.08293" lon="20.45399">
        <ele>464.001573</ele>
        <time>2022-05-01T10:00:34.558Z</time>
      </trkpt>
      <trkpt lat="41.08297" lon="20.45384">
        <ele>464.359998</ele>
        <time>2022-05-01T10:00:37.573Z</time>
      </trkpt>
      <trkpt lat="41.08302" lon="20.45368">
        <ele>464.732637</ele>
        <time>2022-05-01T10:00:40.559Z</time>
      </trkpt>
      <trkpt lat="41.08305" lon="20.45354">
        <ele>465.055674</ele>
        <time>2022-05-01T10:00:43.545Z</time>
      </trkpt>
      <trkpt lat="41.08309" lon="20.45341">
        <ele>465.363152</ele>
        <time>2022-05-01T10:00:46.567Z</time>
      </trkpt>
      <trkpt lat="41.08312" lon="20.45328">
        <ele>465.64006</ele>
        <time>2022-05-01T10:00:49.554Z</time>
      </trkpt>
      <trkpt lat="41.08318" lon="20.45314">
        <ele>465.65936</ele>
        <time>2022-05-01T10:00:53.594Z</time>
      </trkpt>
      <trkpt lat="41.08322" lon="20.45302">
        <ele>465.674598</ele>
        <time>2022-05-01T10:00:56.552Z</time>
      </trkpt>
      <trkpt lat="41.08328" lon="20.45291">
        <ele>465.690297</ele>
        <time>2022-05-01T10:00:59.531Z</time>
      </trkpt>
      <trkpt lat="41.08334" lon="20.45279">
        <ele>465.707116</ele>
        <time>2022-05-01T10:01:02.553Z</time>
      </trkpt>
      <trkpt lat="41.08342" lon="20.45269">
        <ele>465.724706</ele>
        <time>2022-05-01T10:01:05.554Z</time>
      </trkpt>
      <trkpt lat="41.0835" lon="20.4526">
        <ele>465.741311</ele>
        <time>2022-05-01T10:01:08.561Z</time>
      </trkpt>
      <trkpt lat="41.0836" lon="20.45251">
        <ele>465.759516</ele>
        <time>2022-05-01T10:01:11.558Z</time>
      </trkpt>
      <trkpt lat="41.08369" lon="20.45244">
        <ele>465.776587</ele>
        <time>2022-05-01T10:01:14.539Z</time>
      </trkpt>
      <trkpt lat="41.08378" lon="20.45238">
        <ele>465.792331</ele>
        <time>2022-05-01T10:01:17.535Z</time>
      </trkpt>
      <trkpt lat="41.08388" lon="20.45234">
        <ele>465.808806</ele>
        <time>2022-05-01T10:01:20.557Z</time>
      </trkpt>
      <trkpt lat="41.08399" lon="20.4523">
        <ele>465.825338</ele>
        <time>2022-05-01T10:01:23.559Z</time>
      </trkpt>
      <trkpt lat="41.08412" lon="20.45226">
        <ele>465.846186</ele>
        <time>2022-05-01T10:01:26.551Z</time>
      </trkpt>
      <trkpt lat="41.08424" lon="20.45223">
        <ele>465.865636</ele>
        <time>2022-05-01T10:01:29.558Z</time>
      </trkpt>
      <trkpt lat="41.08435" lon="20.45219">
        <ele>465.884299</ele>
        <time>2022-05-01T10:01:32.602Z</time>
      </trkpt>
      <trkpt lat="41.08447" lon="20.45215">
        <ele>465.90264</ele>
        <time>2022-05-01T10:01:35.541Z</time>
      </trkpt>
      <trkpt lat="41.08457" lon="20.45212">
        <ele>465.91938</ele>
        <time>2022-05-01T10:01:38.551Z</time>
      </trkpt>
      <trkpt lat="41.08467" lon="20.45208">
        <ele>465.998209</ele>
        <time>2022-05-01T10:01:41.543Z</time>
      </trkpt>
      <trkpt lat="41.08476" lon="20.45205">
        <ele>466.073508</ele>
        <time>2022-05-01T10:01:44.555Z</time>
      </trkpt>
      <trkpt lat="41.08486" lon="20.45201">
        <ele>466.151437</ele>
        <time>2022-05-01T10:01:47.566Z</time>
      </trkpt>
      <trkpt lat="41.08495" lon="20.45197">
        <ele>466.23041</ele>
        <time>2022-05-01T10:01:50.549Z</time>
      </trkpt>
      <trkpt lat="41.08504" lon="20.45193">
        <ele>466.308795</ele>
        <time>2022-05-01T10:01:53.568Z</time>
      </trkpt>
      <trkpt lat="41.08513" lon="20.45189">
        <ele>466.386231</ele>
        <time>2022-05-01T10:01:56.570Z</time>
      </trkpt>
      <trkpt lat="41.08523" lon="20.45184">
        <ele>466.46754</ele>
        <time>2022-05-01T10:01:59.550Z</time>
      </trkpt>
      <trkpt lat="41.08533" lon="20.45179">
        <ele>466.556369</ele>
        <time>2022-05-01T10:02:02.573Z</time>
      </trkpt>
      <trkpt lat="41.08543" lon="20.45174">
        <ele>466.637149</ele>
        <time>2022-05-01T10:02:05.552Z</time>
      </trkpt>
      <trkpt lat="41.08553" lon="20.4517">
        <ele>466.72125</ele>
        <time>2022-05-01T10:02:08.557Z</time>
      </trkpt>
      <trkpt lat="41.08563" lon="20.45165">
        <ele>466.806662</ele>
        <time>2022-05-01T10:02:11.554Z</time>
      </trkpt>
      <trkpt lat="41.08574" lon="20.45161">
        <ele>466.901601</ele>
        <time>2022-05-01T10:02:14.539Z</time>
      </trkpt>
      <trkpt lat="41.08585" lon="20.45157">
        <ele>466.991618</ele>
        <time>2022-05-01T10:02:17.551Z</time>
      </trkpt>
      <trkpt lat="41.08595" lon="20.45152">
        <ele>467.077982</ele>
        <time>2022-05-01T10:02:20.554Z</time>
      </trkpt>
      <trkpt lat="41.08606" lon="20.45148">
        <ele>467.166617</ele>
        <time>2022-05-01T10:02:23.555Z</time>
      </trkpt>
      <trkpt lat="41.08617" lon="20.45143">
        <ele>467.258006</ele>
        <time>2022-05-01T10:02:26.546Z</time>
      </trkpt>
      <trkpt lat="41.08628" lon="20.4514">
        <ele>467.349075</ele>
        <time>2022-05-01T10:02:29.581Z</time>
      </trkpt>
      <trkpt lat="41.08638" lon="20.45136">
        <ele>467.857498</ele>
        <time>2022-05-01T10:02:32.560Z</time>
      </trkpt>
      <trkpt lat="41.08648" lon="20.45132">
        <ele>468.418174</ele>
        <time>2022-05-01T10:02:35.540Z</time>
      </trkpt>
      <trkpt lat="41.08658" lon="20.45128">
        <ele>468.941547</ele>
        <time>2022-05-01T10:02:38.548Z</time>
      </trkpt>
      <trkpt lat="41.08669" lon="20.45123">
        <ele>469.579145</ele>
        <time>2022-05-01T10:02:42.540Z</time>
      </trkpt>
      <trkpt lat="41.0868" lon="20.45118">
        <ele>470.212743</ele>
        <time>2022-05-01T10:02:46.598Z</time>
      </trkpt>
      <trkpt lat="41.0869" lon="20.45114">
        <ele>470.765904</ele>
        <time>2022-05-01T10:02:50.554Z</time>
      </trkpt>
      <trkpt lat="41.087" lon="20.45109">
        <ele>471.338151</ele>
        <time>2022-05-01T10:02:55.552Z</time>
      </trkpt>
      <trkpt lat="41.0871" lon="20.45102">
        <ele>471.919279</ele>
        <time>2022-05-01T10:03:00.547Z</time>
      </trkpt>
      <trkpt lat="41.08719" lon="20.45096">
        <ele>472.434179</ele>
        <time>2022-05-01T10:03:04.548Z</time>
      </trkpt>
      <trkpt lat="41.08728" lon="20.45089">
        <ele>472.990558</ele>
        <time>2022-05-01T10:03:08.596Z</time>
      </trkpt>
      <trkpt lat="41.08736" lon="20.45083">
        <ele>473.497249</ele>
        <time>2022-05-01T10:03:12.556Z</time>
      </trkpt>
      <trkpt lat="41.08745" lon="20.45075">
        <ele>474.070091</ele>
        <time>2022-05-01T10:03:17.546Z</time>
      </trkpt>
      <trkpt lat="41.08753" lon="20.45068">
        <ele>474.567849</ele>
        <time>2022-05-01T10:03:21.559Z</time>
      </trkpt>
      <trkpt lat="41.0876" lon="20.45061">
        <ele>475.065607</ele>
        <time>2022-05-01T10:03:25.560Z</time>
      </trkpt>
      <trkpt lat="41.08768" lon="20.45053">
        <ele>475.569007</ele>
        <time>2022-05-01T10:03:29.568Z</time>
      </trkpt>
      <trkpt lat="41.08775" lon="20.45044">
        <ele>476.081949</ele>
        <time>2022-05-01T10:03:34.552Z</time>
      </trkpt>
      <trkpt lat="41.08783" lon="20.45036">
        <ele>476.613666</ele>
        <time>2022-05-01T10:03:38.559Z</time>
      </trkpt>
      <trkpt lat="41.0879" lon="20.45028">
        <ele>477.157135</ele>
        <time>2022-05-01T10:03:42.580Z</time>
      </trkpt>
      <trkpt lat="41.08796" lon="20.45019">
        <ele>477.733043</ele>
        <time>2022-05-01T10:03:46.548Z</time>
      </trkpt>
      <trkpt lat="41.08803" lon="20.45011">
        <ele>478.308951</ele>
        <time>2022-05-01T10:03:50.566Z</time>
      </trkpt>
      <trkpt lat="41.08809" lon="20.45">
        <ele>478.977488</ele>
        <time>2022-05-01T10:03:56.566Z</time>
      </trkpt>
      <trkpt lat="41.08816" lon="20.44989">
        <ele>479.627165</ele>
        <time>2022-05-01T10:04:01.548Z</time>
      </trkpt>
      <trkpt lat="41.08822" lon="20.44978">
        <ele>480.269548</ele>
        <time>2022-05-01T10:04:06.557Z</time>
      </trkpt>
      <trkpt lat="41.08827" lon="20.44968">
        <ele>480.840822</ele>
        <time>2022-05-01T10:04:10.551Z</time>
      </trkpt>
      <trkpt lat="41.08833" lon="20.44956">
        <ele>481.533662</ele>
        <time>2022-05-01T10:04:15.576Z</time>
      </trkpt>
      <trkpt lat="41.08838" lon="20.44943">
        <ele>482.219687</ele>
        <time>2022-05-01T10:04:20.558Z</time>
      </trkpt>
      <trkpt lat="41.08843" lon="20.44932">
        <ele>482.817492</ele>
        <time>2022-05-01T10:04:25.567Z</time>
      </trkpt>
      <trkpt lat="41.08848" lon="20.4492">
        <ele>483.477352</ele>
        <time>2022-05-01T10:04:31.549Z</time>
      </trkpt>
      <trkpt lat="41.08852" lon="20.44909">
        <ele>484.060824</ele>
        <time>2022-05-01T10:04:36.548Z</time>
      </trkpt>
      <trkpt lat="41.08857" lon="20.44897">
        <ele>484.696372</ele>
        <time>2022-05-01T10:04:42.564Z</time>
      </trkpt>
      <trkpt lat="41.08861" lon="20.44885">
        <ele>485.365008</ele>
        <time>2022-05-01T10:04:49.532Z</time>
      </trkpt>
      <trkpt lat="41.08866" lon="20.44873">
        <ele>485.986887</ele>
        <time>2022-05-01T10:04:56.565Z</time>
      </trkpt>
      <trkpt lat="41.0887" lon="20.44862">
        <ele>486.559786</ele>
        <time>2022-05-01T10:05:01.560Z</time>
      </trkpt>
      <trkpt lat="41.08874" lon="20.44851">
        <ele>487.149238</ele>
        <time>2022-05-01T10:05:06.558Z</time>
      </trkpt>
      <trkpt lat="41.08877" lon="20.44839">
        <ele>487.728015</ele>
        <time>2022-05-01T10:05:11.538Z</time>
      </trkpt>
      <trkpt lat="41.08879" lon="20.44827">
        <ele>488.230864</ele>
        <time>2022-05-01T10:05:16.574Z</time>
      </trkpt>
      <trkpt lat="41.08882" lon="20.44813">
        <ele>488.042197</ele>
        <time>2022-05-01T10:05:21.555Z</time>
      </trkpt>
      <trkpt lat="41.08884" lon="20.44799">
        <ele>487.857463</ele>
        <time>2022-05-01T10:05:25.532Z</time>
      </trkpt>
      <trkpt lat="41.08886" lon="20.44786">
        <ele>487.682178</ele>
        <time>2022-05-01T10:05:28.551Z</time>
      </trkpt>
      <trkpt lat="41.08891" lon="20.44773">
        <ele>487.500675</ele>
        <time>2022-05-01T10:05:31.548Z</time>
      </trkpt>
      <trkpt lat="41.08896" lon="20.44758">
        <ele>487.290143</ele>
        <time>2022-05-01T10:05:34.561Z</time>
      </trkpt>
      <trkpt lat="41.08902" lon="20.44748">
        <ele>487.131568</ele>
        <time>2022-05-01T10:05:36.549Z</time>
      </trkpt>
      <trkpt lat="41.08908" lon="20.44738">
        <ele>486.953207</ele>
        <time>2022-05-01T10:05:38.550Z</time>
      </trkpt>
      <trkpt lat="41.08916" lon="20.44727">
        <ele>486.757508</ele>
        <time>2022-05-01T10:05:40.546Z</time>
      </trkpt>
      <trkpt lat="41.08925" lon="20.44717">
        <ele>486.564245</ele>
        <time>2022-05-01T10:05:42.551Z</time>
      </trkpt>
      <trkpt lat="41.08934" lon="20.44707">
        <ele>486.362319</ele>
        <time>2022-05-01T10:05:44.547Z</time>
      </trkpt>
      <trkpt lat="41.08944" lon="20.44697">
        <ele>486.141342</ele>
        <time>2022-05-01T10:05:46.559Z</time>
      </trkpt>
      <trkpt lat="41.08955" lon="20.44684">
        <ele>485.889927</ele>
        <time>2022-05-01T10:05:48.555Z</time>
      </trkpt>
      <trkpt lat="41.08967" lon="20.44672">
        <ele>485.632056</ele>
        <time>2022-05-01T10:05:50.540Z</time>
      </trkpt>
      <trkpt lat="41.08978" lon="20.44659">
        <ele>485.375005</ele>
        <time>2022-05-01T10:05:52.569Z</time>
      </trkpt>
      <trkpt lat="41.0899" lon="20.44646">
        <ele>484.967311</ele>
        <time>2022-05-01T10:05:54.539Z</time>
      </trkpt>
      <trkpt lat="41.09002" lon="20.44634">
        <ele>484.076307</ele>
        <time>2022-05-01T10:05:56.538Z</time>
      </trkpt>
      <trkpt lat="41.09015" lon="20.44622">
        <ele>483.154664</ele>
        <time>2022-05-01T10:05:58.546Z</time>
      </trkpt>
      <trkpt lat="41.09028" lon="20.44611">
        <ele>482.240631</ele>
        <time>2022-05-01T10:06:00.556Z</time>
      </trkpt>
      <trkpt lat="41.09042" lon="20.446">
        <ele>481.283835</ele>
        <time>2022-05-01T10:06:02.566Z</time>
      </trkpt>
      <trkpt lat="41.09058" lon="20.44588">
        <ele>480.223454</ele>
        <time>2022-05-01T10:06:04.558Z</time>
      </trkpt>
      <trkpt lat="41.09066" lon="20.44581">
        <ele>479.646535</ele>
        <time>2022-05-01T10:06:05.535Z</time>
      </trkpt>
      <trkpt lat="41.09076" lon="20.44574">
        <ele>479.030191</ele>
        <time>2022-05-01T10:06:06.550Z</time>
      </trkpt>
      <trkpt lat="41.09085" lon="20.44567">
        <ele>478.399235</ele>
        <time>2022-05-01T10:06:07.548Z</time>
      </trkpt>
      <trkpt lat="41.09095" lon="20.4456">
        <ele>477.725909</ele>
        <time>2022-05-01T10:06:08.548Z</time>
      </trkpt>
      <trkpt lat="41.09105" lon="20.44553">
        <ele>477.03609</ele>
        <time>2022-05-01T10:06:09.549Z</time>
      </trkpt>
      <trkpt lat="41.09116" lon="20.44546">
        <ele>476.333114</ele>
        <time>2022-05-01T10:06:10.575Z</time>
      </trkpt>
      <trkpt lat="41.09127" lon="20.4454">
        <ele>475.635404</ele>
        <time>2022-05-01T10:06:11.559Z</time>
      </trkpt>
      <trkpt lat="41.09138" lon="20.44535">
        <ele>474.93902</ele>
        <time>2022-05-01T10:06:12.590Z</time>
      </trkpt>
      <trkpt lat="41.0915" lon="20.44532">
        <ele>474.328346</ele>
        <time>2022-05-01T10:06:13.535Z</time>
      </trkpt>
      <trkpt lat="41.09162" lon="20.4453">
        <ele>473.775481</ele>
        <time>2022-05-01T10:06:14.567Z</time>
      </trkpt>
      <trkpt lat="41.09173" lon="20.44529">
        <ele>473.250691</ele>
        <time>2022-05-01T10:06:15.560Z</time>
      </trkpt>
      <trkpt lat="41.09184" lon="20.4453">
        <ele>472.753082</ele>
        <time>2022-05-01T10:06:16.551Z</time>
      </trkpt>
      <trkpt lat="41.09195" lon="20.44531">
        <ele>472.237255</ele>
        <time>2022-05-01T10:06:17.552Z</time>
      </trkpt>
      <trkpt lat="41.09206" lon="20.44531">
        <ele>471.758468</ele>
        <time>2022-05-01T10:06:18.548Z</time>
      </trkpt>
      <trkpt lat="41.09216" lon="20.44531">
        <ele>471.30657</ele>
        <time>2022-05-01T10:06:19.553Z</time>
      </trkpt>
      <trkpt lat="41.09233" lon="20.44535">
        <ele>470.505088</ele>
        <time>2022-05-01T10:06:21.565Z</time>
      </trkpt>
      <trkpt lat="41.0925" lon="20.44536">
        <ele>469.722899</ele>
        <time>2022-05-01T10:06:23.585Z</time>
      </trkpt>
      <trkpt lat="41.09264" lon="20.44538">
        <ele>469.086984</ele>
        <time>2022-05-01T10:06:25.546Z</time>
      </trkpt>
      <trkpt lat="41.09278" lon="20.44538">
        <ele>468.475874</ele>
        <time>2022-05-01T10:06:27.559Z</time>
      </trkpt>
      <trkpt lat="41.09293" lon="20.44537">
        <ele>467.773115</ele>
        <time>2022-05-01T10:06:29.586Z</time>
      </trkpt>
      <trkpt lat="41.09309" lon="20.44535">
        <ele>467.030898</ele>
        <time>2022-05-01T10:06:31.559Z</time>
      </trkpt>
      <trkpt lat="41.09327" lon="20.44529">
        <ele>466.19231</ele>
        <time>2022-05-01T10:06:33.562Z</time>
      </trkpt>
      <trkpt lat="41.09335" lon="20.44524">
        <ele>465.716872</ele>
        <time>2022-05-01T10:06:34.546Z</time>
      </trkpt>
      <trkpt lat="41.09344" lon="20.4452">
        <ele>465.21025</ele>
        <time>2022-05-01T10:06:35.586Z</time>
      </trkpt>
      <trkpt lat="41.09354" lon="20.44515">
        <ele>464.693946</ele>
        <time>2022-05-01T10:06:36.627Z</time>
      </trkpt>
      <trkpt lat="41.09363" lon="20.4451">
        <ele>464.158197</ele>
        <time>2022-05-01T10:06:37.538Z</time>
      </trkpt>
      <trkpt lat="41.09373" lon="20.44506">
        <ele>463.614017</ele>
        <time>2022-05-01T10:06:38.547Z</time>
      </trkpt>
      <trkpt lat="41.09384" lon="20.44503">
        <ele>463.060138</ele>
        <time>2022-05-01T10:06:39.615Z</time>
      </trkpt>
      <trkpt lat="41.09394" lon="20.44501">
        <ele>462.531434</ele>
        <time>2022-05-01T10:06:40.546Z</time>
      </trkpt>
      <trkpt lat="41.09404" lon="20.445">
        <ele>461.984989</ele>
        <time>2022-05-01T10:06:41.554Z</time>
      </trkpt>
      <trkpt lat="41.09415" lon="20.44499">
        <ele>461.422373</ele>
        <time>2022-05-01T10:06:42.551Z</time>
      </trkpt>
      <trkpt lat="41.09425" lon="20.44498">
        <ele>460.887298</ele>
        <time>2022-05-01T10:06:43.549Z</time>
      </trkpt>
      <trkpt lat="41.09436" lon="20.44496">
        <ele>460.342645</ele>
        <time>2022-05-01T10:06:44.543Z</time>
      </trkpt>
      <trkpt lat="41.09446" lon="20.44493">
        <ele>459.815087</ele>
        <time>2022-05-01T10:06:45.562Z</time>
      </trkpt>
      <trkpt lat="41.09455" lon="20.44488">
        <ele>459.274649</ele>
        <time>2022-05-01T10:06:46.598Z</time>
      </trkpt>
      <trkpt lat="41.09465" lon="20.44483">
        <ele>458.757365</ele>
        <time>2022-05-01T10:06:47.576Z</time>
      </trkpt>
      <trkpt lat="41.09473" lon="20.44477">
        <ele>458.256866</ele>
        <time>2022-05-01T10:06:48.544Z</time>
      </trkpt>
      <trkpt lat="41.09481" lon="20.44471">
        <ele>457.774607</ele>
        <time>2022-05-01T10:06:49.552Z</time>
      </trkpt>
      <trkpt lat="41.09496" lon="20.44458">
        <ele>456.791549</ele>
        <time>2022-05-01T10:06:51.543Z</time>
      </trkpt>
      <trkpt lat="41.09505" lon="20.4445">
        <ele>456.172027</ele>
        <time>2022-05-01T10:06:52.540Z</time>
      </trkpt>
      <trkpt lat="41.09513" lon="20.44443">
        <ele>455.567959</ele>
        <time>2022-05-01T10:06:53.555Z</time>
      </trkpt>
      <trkpt lat="41.09522" lon="20.44436">
        <ele>454.950916</ele>
        <time>2022-05-01T10:06:54.533Z</time>
      </trkpt>
      <trkpt lat="41.0953" lon="20.44429">
        <ele>454.303207</ele>
        <time>2022-05-01T10:06:55.552Z</time>
      </trkpt>
      <trkpt lat="41.09539" lon="20.44422">
        <ele>453.709357</ele>
        <time>2022-05-01T10:06:56.551Z</time>
      </trkpt>
      <trkpt lat="41.09547" lon="20.44415">
        <ele>453.106655</ele>
        <time>2022-05-01T10:06:57.640Z</time>
      </trkpt>
      <trkpt lat="41.09556" lon="20.44409">
        <ele>452.499533</ele>
        <time>2022-05-01T10:06:58.548Z</time>
      </trkpt>
      <trkpt lat="41.09566" lon="20.44405">
        <ele>451.846228</ele>
        <time>2022-05-01T10:06:59.571Z</time>
      </trkpt>
      <trkpt lat="41.09577" lon="20.44401">
        <ele>451.143118</ele>
        <time>2022-05-01T10:07:00.573Z</time>
      </trkpt>
      <trkpt lat="41.09589" lon="20.44399">
        <ele>450.423235</ele>
        <time>2022-05-01T10:07:01.542Z</time>
      </trkpt>
      <trkpt lat="41.09601" lon="20.44398">
        <ele>449.672576</ele>
        <time>2022-05-01T10:07:02.539Z</time>
      </trkpt>
      <trkpt lat="41.09613" lon="20.44397">
        <ele>448.910563</ele>
        <time>2022-05-01T10:07:03.547Z</time>
      </trkpt>
      <trkpt lat="41.09626" lon="20.44396">
        <ele>448.128026</ele>
        <time>2022-05-01T10:07:04.562Z</time>
      </trkpt>
      <trkpt lat="41.09638" lon="20.44393">
        <ele>447.355202</ele>
        <time>2022-05-01T10:07:05.543Z</time>
      </trkpt>
      <trkpt lat="41.0965" lon="20.44387">
        <ele>446.602635</ele>
        <time>2022-05-01T10:07:06.543Z</time>
      </trkpt>
      <trkpt lat="41.09661" lon="20.44381">
        <ele>445.885801</ele>
        <time>2022-05-01T10:07:07.615Z</time>
      </trkpt>
      <trkpt lat="41.09672" lon="20.44376">
        <ele>445.323658</ele>
        <time>2022-05-01T10:07:08.541Z</time>
      </trkpt>
      <trkpt lat="41.09682" lon="20.44371">
        <ele>444.802326</ele>
        <time>2022-05-01T10:07:09.547Z</time>
      </trkpt>
      <trkpt lat="41.09692" lon="20.44367">
        <ele>444.275112</ele>
        <time>2022-05-01T10:07:10.557Z</time>
      </trkpt>
      <trkpt lat="41.09703" lon="20.44364">
        <ele>443.764916</ele>
        <time>2022-05-01T10:07:11.545Z</time>
      </trkpt>
      <trkpt lat="41.09713" lon="20.44363">
        <ele>443.267618</ele>
        <time>2022-05-01T10:07:12.610Z</time>
      </trkpt>
      <trkpt lat="41.09723" lon="20.44364">
        <ele>442.776145</ele>
        <time>2022-05-01T10:07:13.595Z</time>
      </trkpt>
      <trkpt lat="41.09732" lon="20.44366">
        <ele>442.31772</ele>
        <time>2022-05-01T10:07:14.565Z</time>
      </trkpt>
      <trkpt lat="41.09741" lon="20.44369">
        <ele>441.868663</ele>
        <time>2022-05-01T10:07:15.543Z</time>
      </trkpt>
      <trkpt lat="41.09757" lon="20.44378">
        <ele>441.045022</ele>
        <time>2022-05-01T10:07:17.556Z</time>
      </trkpt>
      <trkpt lat="41.0977" lon="20.44389">
        <ele>440.285624</ele>
        <time>2022-05-01T10:07:19.570Z</time>
      </trkpt>
      <trkpt lat="41.09783" lon="20.444">
        <ele>439.542582</ele>
        <time>2022-05-01T10:07:21.543Z</time>
      </trkpt>
      <trkpt lat="41.09796" lon="20.44412">
        <ele>438.775237</ele>
        <time>2022-05-01T10:07:23.561Z</time>
      </trkpt>
      <trkpt lat="41.09809" lon="20.44423">
        <ele>438.031856</ele>
        <time>2022-05-01T10:07:25.545Z</time>
      </trkpt>
      <trkpt lat="41.09823" lon="20.44432">
        <ele>437.265066</ele>
        <time>2022-05-01T10:07:27.559Z</time>
      </trkpt>
      <trkpt lat="41.09838" lon="20.44439">
        <ele>436.455138</ele>
        <time>2022-05-01T10:07:29.579Z</time>
      </trkpt>
      <trkpt lat="41.09856" lon="20.44443">
        <ele>435.57418</ele>
        <time>2022-05-01T10:07:31.544Z</time>
      </trkpt>
      <trkpt lat="41.09866" lon="20.44442">
        <ele>435.093798</ele>
        <time>2022-05-01T10:07:32.559Z</time>
      </trkpt>
      <trkpt lat="41.09875" lon="20.4444">
        <ele>434.604368</ele>
        <time>2022-05-01T10:07:33.555Z</time>
      </trkpt>
      <trkpt lat="41.09885" lon="20.44437">
        <ele>434.126088</ele>
        <time>2022-05-01T10:07:34.560Z</time>
      </trkpt>
      <trkpt lat="41.09894" lon="20.44433">
        <ele>433.644353</ele>
        <time>2022-05-01T10:07:35.552Z</time>
      </trkpt>
      <trkpt lat="41.09902" lon="20.44427">
        <ele>433.180299</ele>
        <time>2022-05-01T10:07:36.558Z</time>
      </trkpt>
      <trkpt lat="41.0991" lon="20.4442">
        <ele>432.703783</ele>
        <time>2022-05-01T10:07:37.563Z</time>
      </trkpt>
      <trkpt lat="41.09918" lon="20.44411">
        <ele>432.204805</ele>
        <time>2022-05-01T10:07:38.554Z</time>
      </trkpt>
      <trkpt lat="41.09924" lon="20.44401">
        <ele>431.71293</ele>
        <time>2022-05-01T10:07:39.648Z</time>
      </trkpt>
      <trkpt lat="41.0993" lon="20.44391">
        <ele>431.242213</ele>
        <time>2022-05-01T10:07:40.577Z</time>
      </trkpt>
      <trkpt lat="41.09938" lon="20.44371">
        <ele>430.397748</ele>
        <time>2022-05-01T10:07:42.554Z</time>
      </trkpt>
      <trkpt lat="41.0994" lon="20.44359">
        <ele>429.922826</ele>
        <time>2022-05-01T10:07:43.533Z</time>
      </trkpt>
      <trkpt lat="41.09941" lon="20.44346">
        <ele>429.448029</ele>
        <time>2022-05-01T10:07:44.556Z</time>
      </trkpt>
      <trkpt lat="41.09942" lon="20.44333">
        <ele>428.967025</ele>
        <time>2022-05-01T10:07:45.556Z</time>
      </trkpt>
      <trkpt lat="41.09941" lon="20.4432">
        <ele>428.465917</ele>
        <time>2022-05-01T10:07:46.565Z</time>
      </trkpt>
      <trkpt lat="41.09939" lon="20.44307">
        <ele>428.043289</ele>
        <time>2022-05-01T10:07:47.565Z</time>
      </trkpt>
      <trkpt lat="41.09936" lon="20.44294">
        <ele>427.639546</ele>
        <time>2022-05-01T10:07:48.562Z</time>
      </trkpt>
      <trkpt lat="41.09932" lon="20.44283">
        <ele>427.261964</ele>
        <time>2022-05-01T10:07:49.537Z</time>
      </trkpt>
      <trkpt lat="41.09922" lon="20.44263">
        <ele>426.55057</ele>
        <time>2022-05-01T10:07:51.593Z</time>
      </trkpt>
      <trkpt lat="41.0991" lon="20.44247">
        <ele>425.867145</ele>
        <time>2022-05-01T10:07:53.553Z</time>
      </trkpt>
      <trkpt lat="41.09895" lon="20.44233">
        <ele>425.134425</ele>
        <time>2022-05-01T10:07:55.554Z</time>
      </trkpt>
      <trkpt lat="41.09887" lon="20.44226">
        <ele>424.734721</ele>
        <time>2022-05-01T10:07:56.546Z</time>
      </trkpt>
      <trkpt lat="41.09878" lon="20.44219">
        <ele>424.323219</ele>
        <time>2022-05-01T10:07:57.543Z</time>
      </trkpt>
      <trkpt lat="41.09869" lon="20.44212">
        <ele>423.919884</ele>
        <time>2022-05-01T10:07:58.543Z</time>
      </trkpt>
      <trkpt lat="41.09861" lon="20.44205">
        <ele>423.525189</ele>
        <time>2022-05-01T10:07:59.551Z</time>
      </trkpt>
      <trkpt lat="41.09853" lon="20.44197">
        <ele>423.129998</ele>
        <time>2022-05-01T10:08:00.546Z</time>
      </trkpt>
      <trkpt lat="41.09846" lon="20.44189">
        <ele>422.747225</ele>
        <time>2022-05-01T10:08:01.538Z</time>
      </trkpt>
      <trkpt lat="41.09839" lon="20.44179">
        <ele>422.358099</ele>
        <time>2022-05-01T10:08:02.592Z</time>
      </trkpt>
      <trkpt lat="41.09834" lon="20.44169">
        <ele>421.981225</ele>
        <time>2022-05-01T10:08:03.562Z</time>
      </trkpt>
      <trkpt lat="41.0983" lon="20.44157">
        <ele>421.585981</ele>
        <time>2022-05-01T10:08:04.547Z</time>
      </trkpt>
      <trkpt lat="41.09827" lon="20.44145">
        <ele>421.203602</ele>
        <time>2022-05-01T10:08:05.559Z</time>
      </trkpt>
      <trkpt lat="41.09826" lon="20.44132">
        <ele>420.939098</ele>
        <time>2022-05-01T10:08:06.568Z</time>
      </trkpt>
      <trkpt lat="41.09827" lon="20.44118">
        <ele>420.69524</ele>
        <time>2022-05-01T10:08:07.547Z</time>
      </trkpt>
      <trkpt lat="41.09829" lon="20.44103">
        <ele>420.404909</ele>
        <time>2022-05-01T10:08:08.566Z</time>
      </trkpt>
      <trkpt lat="41.09833" lon="20.44088">
        <ele>420.136095</ele>
        <time>2022-05-01T10:08:09.551Z</time>
      </trkpt>
      <trkpt lat="41.09836" lon="20.44075">
        <ele>419.876923</ele>
        <time>2022-05-01T10:08:10.536Z</time>
      </trkpt>
      <trkpt lat="41.0984" lon="20.44062">
        <ele>419.62446</ele>
        <time>2022-05-01T10:08:11.551Z</time>
      </trkpt>
      <trkpt lat="41.09843" lon="20.44048">
        <ele>419.369495</ele>
        <time>2022-05-01T10:08:12.553Z</time>
      </trkpt>
      <trkpt lat="41.09847" lon="20.44036">
        <ele>419.130554</ele>
        <time>2022-05-01T10:08:13.599Z</time>
      </trkpt>
      <trkpt lat="41.09851" lon="20.44023">
        <ele>418.886579</ele>
        <time>2022-05-01T10:08:14.564Z</time>
      </trkpt>
      <trkpt lat="41.09854" lon="20.44011">
        <ele>418.640912</ele>
        <time>2022-05-01T10:08:15.555Z</time>
      </trkpt>
      <trkpt lat="41.09858" lon="20.43998">
        <ele>418.397796</ele>
        <time>2022-05-01T10:08:16.548Z</time>
      </trkpt>
      <trkpt lat="41.09862" lon="20.43986">
        <ele>418.156288</ele>
        <time>2022-05-01T10:08:17.548Z</time>
      </trkpt>
      <trkpt lat="41.09865" lon="20.43973">
        <ele>417.917348</ele>
        <time>2022-05-01T10:08:18.557Z</time>
      </trkpt>
      <trkpt lat="41.0987" lon="20.43961">
        <ele>417.675359</ele>
        <time>2022-05-01T10:08:19.528Z</time>
      </trkpt>
      <trkpt lat="41.09874" lon="20.43949">
        <ele>417.437269</ele>
        <time>2022-05-01T10:08:20.550Z</time>
      </trkpt>
      <trkpt lat="41.09879" lon="20.43938">
        <ele>417.203965</ele>
        <time>2022-05-01T10:08:21.550Z</time>
      </trkpt>
      <trkpt lat="41.09883" lon="20.43927">
        <ele>416.972681</ele>
        <time>2022-05-01T10:08:22.558Z</time>
      </trkpt>
      <trkpt lat="41.09888" lon="20.43916">
        <ele>416.69153</ele>
        <time>2022-05-01T10:08:23.552Z</time>
      </trkpt>
      <trkpt lat="41.09894" lon="20.43905">
        <ele>416.354806</ele>
        <time>2022-05-01T10:08:24.588Z</time>
      </trkpt>
      <trkpt lat="41.099" lon="20.43895">
        <ele>416.017765</ele>
        <time>2022-05-01T10:08:25.550Z</time>
      </trkpt>
      <trkpt lat="41.09907" lon="20.43886">
        <ele>415.687433</ele>
        <time>2022-05-01T10:08:26.567Z</time>
      </trkpt>
      <trkpt lat="41.09914" lon="20.43877">
        <ele>415.361852</ele>
        <time>2022-05-01T10:08:27.548Z</time>
      </trkpt>
      <trkpt lat="41.09922" lon="20.43869">
        <ele>415.031665</ele>
        <time>2022-05-01T10:08:28.551Z</time>
      </trkpt>
      <trkpt lat="41.09929" lon="20.43862">
        <ele>414.705633</ele>
        <time>2022-05-01T10:08:29.549Z</time>
      </trkpt>
      <trkpt lat="41.09937" lon="20.43855">
        <ele>414.389654</ele>
        <time>2022-05-01T10:08:30.547Z</time>
      </trkpt>
      <trkpt lat="41.09945" lon="20.43848">
        <ele>414.072278</ele>
        <time>2022-05-01T10:08:31.555Z</time>
      </trkpt>
      <trkpt lat="41.09952" lon="20.43842">
        <ele>413.7576</ele>
        <time>2022-05-01T10:08:32.559Z</time>
      </trkpt>
      <trkpt lat="41.09961" lon="20.43836">
        <ele>413.442328</ele>
        <time>2022-05-01T10:08:33.551Z</time>
      </trkpt>
      <trkpt lat="41.09969" lon="20.43831">
        <ele>413.122826</ele>
        <time>2022-05-01T10:08:34.552Z</time>
      </trkpt>
      <trkpt lat="41.09978" lon="20.43825">
        <ele>412.793255</ele>
        <time>2022-05-01T10:08:35.585Z</time>
      </trkpt>
      <trkpt lat="41.09986" lon="20.43821">
        <ele>412.478266</ele>
        <time>2022-05-01T10:08:36.553Z</time>
      </trkpt>
      <trkpt lat="41.09995" lon="20.43817">
        <ele>412.16147</ele>
        <time>2022-05-01T10:08:37.565Z</time>
      </trkpt>
      <trkpt lat="41.10004" lon="20.43813">
        <ele>411.847185</ele>
        <time>2022-05-01T10:08:38.545Z</time>
      </trkpt>
      <trkpt lat="41.10012" lon="20.4381">
        <ele>411.5367</ele>
        <time>2022-05-01T10:08:39.526Z</time>
      </trkpt>
      <trkpt lat="41.10021" lon="20.43807">
        <ele>411.223428</ele>
        <time>2022-05-01T10:08:40.536Z</time>
      </trkpt>
      <trkpt lat="41.10039" lon="20.43803">
        <ele>410.643725</ele>
        <time>2022-05-01T10:08:42.565Z</time>
      </trkpt>
      <trkpt lat="41.10056" lon="20.43799">
        <ele>410.365386</ele>
        <time>2022-05-01T10:08:44.567Z</time>
      </trkpt>
      <trkpt lat="41.10072" lon="20.43796">
        <ele>410.091817</ele>
        <time>2022-05-01T10:08:46.589Z</time>
      </trkpt>
      <trkpt lat="41.10088" lon="20.43792">
        <ele>409.836104</ele>
        <time>2022-05-01T10:08:48.547Z</time>
      </trkpt>
      <trkpt lat="41.10105" lon="20.43788">
        <ele>409.564695</ele>
        <time>2022-05-01T10:08:50.537Z</time>
      </trkpt>
      <trkpt lat="41.10121" lon="20.43785">
        <ele>409.295294</ele>
        <time>2022-05-01T10:08:52.558Z</time>
      </trkpt>
      <trkpt lat="41.10138" lon="20.43781">
        <ele>409.023681</ele>
        <time>2022-05-01T10:08:54.561Z</time>
      </trkpt>
      <trkpt lat="41.10154" lon="20.43776">
        <ele>408.755559</ele>
        <time>2022-05-01T10:08:56.550Z</time>
      </trkpt>
      <trkpt lat="41.1017" lon="20.43772">
        <ele>408.496802</ele>
        <time>2022-05-01T10:08:58.548Z</time>
      </trkpt>
      <trkpt lat="41.10185" lon="20.43769">
        <ele>408.244456</ele>
        <time>2022-05-01T10:09:00.557Z</time>
      </trkpt>
      <trkpt lat="41.102" lon="20.43766">
        <ele>408.012546</ele>
        <time>2022-05-01T10:09:02.561Z</time>
      </trkpt>
      <trkpt lat="41.10213" lon="20.43762">
        <ele>407.791268</ele>
        <time>2022-05-01T10:09:04.562Z</time>
      </trkpt>
      <trkpt lat="41.10226" lon="20.43758">
        <ele>408.280952</ele>
        <time>2022-05-01T10:09:06.537Z</time>
      </trkpt>
      <trkpt lat="41.10237" lon="20.43754">
        <ele>408.776293</ele>
        <time>2022-05-01T10:09:08.535Z</time>
      </trkpt>
      <trkpt lat="41.10246" lon="20.43749">
        <ele>409.2149</ele>
        <time>2022-05-01T10:09:10.559Z</time>
      </trkpt>
      <trkpt lat="41.10254" lon="20.43744">
        <ele>409.626138</ele>
        <time>2022-05-01T10:09:12.553Z</time>
      </trkpt>
      <trkpt lat="41.10264" lon="20.43734">
        <ele>410.163785</ele>
        <time>2022-05-01T10:09:15.569Z</time>
      </trkpt>
      <trkpt lat="41.10273" lon="20.43724">
        <ele>410.651846</ele>
        <time>2022-05-01T10:09:18.547Z</time>
      </trkpt>
      <trkpt lat="41.10281" lon="20.43714">
        <ele>411.125958</ele>
        <time>2022-05-01T10:09:21.565Z</time>
      </trkpt>
      <trkpt lat="41.10287" lon="20.43702">
        <ele>411.612264</ele>
        <time>2022-05-01T10:09:24.579Z</time>
      </trkpt>
      <trkpt lat="41.10293" lon="20.43689">
        <ele>412.102311</ele>
        <time>2022-05-01T10:09:27.561Z</time>
      </trkpt>
      <trkpt lat="41.10297" lon="20.43675">
        <ele>412.597071</ele>
        <time>2022-05-01T10:09:30.541Z</time>
      </trkpt>
      <trkpt lat="41.103" lon="20.43661">
        <ele>413.090915</ele>
        <time>2022-05-01T10:09:33.567Z</time>
      </trkpt>
      <trkpt lat="41.10302" lon="20.43645">
        <ele>413.592049</ele>
        <time>2022-05-01T10:09:36.551Z</time>
      </trkpt>
      <trkpt lat="41.10303" lon="20.43631">
        <ele>414.079186</ele>
        <time>2022-05-01T10:09:39.551Z</time>
      </trkpt>
      <trkpt lat="41.10302" lon="20.43616">
        <ele>414.544622</ele>
        <time>2022-05-01T10:09:42.555Z</time>
      </trkpt>
      <trkpt lat="41.10301" lon="20.43602">
        <ele>415.009497</ele>
        <time>2022-05-01T10:09:45.564Z</time>
      </trkpt>
      <trkpt lat="41.103" lon="20.43587">
        <ele>415.50362</ele>
        <time>2022-05-01T10:09:48.553Z</time>
      </trkpt>
      <trkpt lat="41.10297" lon="20.43572">
        <ele>415.535536</ele>
        <time>2022-05-01T10:09:51.554Z</time>
      </trkpt>
      <trkpt lat="41.10295" lon="20.43555">
        <ele>415.468672</ele>
        <time>2022-05-01T10:09:54.545Z</time>
      </trkpt>
      <trkpt lat="41.10294" lon="20.43538">
        <ele>415.402778</ele>
        <time>2022-05-01T10:09:57.581Z</time>
      </trkpt>
      <trkpt lat="41.10293" lon="20.43526">
        <ele>415.356453</ele>
        <time>2022-05-01T10:09:59.545Z</time>
      </trkpt>
      <trkpt lat="41.10295" lon="20.43513">
        <ele>415.307016</ele>
        <time>2022-05-01T10:10:01.569Z</time>
      </trkpt>
      <trkpt lat="41.10297" lon="20.435">
        <ele>415.255033</ele>
        <time>2022-05-01T10:10:03.585Z</time>
      </trkpt>
      <trkpt lat="41.10302" lon="20.43486">
        <ele>415.199435</ele>
        <time>2022-05-01T10:10:05.539Z</time>
      </trkpt>
      <trkpt lat="41.10308" lon="20.43473">
        <ele>415.140948</ele>
        <time>2022-05-01T10:10:07.548Z</time>
      </trkpt>
      <trkpt lat="41.10316" lon="20.4346">
        <ele>415.076382</ele>
        <time>2022-05-01T10:10:09.552Z</time>
      </trkpt>
      <trkpt lat="41.10326" lon="20.43449">
        <ele>415.007762</ele>
        <time>2022-05-01T10:10:11.549Z</time>
      </trkpt>
      <trkpt lat="41.10338" lon="20.4344">
        <ele>414.937217</ele>
        <time>2022-05-01T10:10:13.562Z</time>
      </trkpt>
      <trkpt lat="41.10354" lon="20.43434">
        <ele>414.855497</ele>
        <time>2022-05-01T10:10:15.553Z</time>
      </trkpt>
      <trkpt lat="41.1037" lon="20.43429">
        <ele>414.770083</ele>
        <time>2022-05-01T10:10:17.539Z</time>
      </trkpt>
      <trkpt lat="41.10387" lon="20.43427">
        <ele>414.684579</ele>
        <time>2022-05-01T10:10:19.552Z</time>
      </trkpt>
      <trkpt lat="41.10403" lon="20.43425">
        <ele>414.505744</ele>
        <time>2022-05-01T10:10:21.548Z</time>
      </trkpt>
      <trkpt lat="41.10418" lon="20.43424">
        <ele>414.312522</ele>
        <time>2022-05-01T10:10:23.561Z</time>
      </trkpt>
      <trkpt lat="41.10433" lon="20.43423">
        <ele>414.116633</ele>
        <time>2022-05-01T10:10:25.580Z</time>
      </trkpt>
      <trkpt lat="41.10448" lon="20.43421">
        <ele>413.935654</ele>
        <time>2022-05-01T10:10:27.543Z</time>
      </trkpt>
      <trkpt lat="41.10462" lon="20.43419">
        <ele>413.752883</ele>
        <time>2022-05-01T10:10:29.545Z</time>
      </trkpt>
      <trkpt lat="41.10475" lon="20.43417">
        <ele>413.582289</ele>
        <time>2022-05-01T10:10:31.540Z</time>
      </trkpt>
      <trkpt lat="41.10489" lon="20.43414">
        <ele>413.405544</ele>
        <time>2022-05-01T10:10:33.552Z</time>
      </trkpt>
      <trkpt lat="41.10502" lon="20.4341">
        <ele>413.236566</ele>
        <time>2022-05-01T10:10:35.547Z</time>
      </trkpt>
      <trkpt lat="41.10516" lon="20.43407">
        <ele>413.063378</ele>
        <time>2022-05-01T10:10:37.566Z</time>
      </trkpt>
      <trkpt lat="41.10529" lon="20.43403">
        <ele>412.891931</ele>
        <time>2022-05-01T10:10:39.544Z</time>
      </trkpt>
      <trkpt lat="41.10544" lon="20.43399">
        <ele>412.705081</ele>
        <time>2022-05-01T10:10:41.584Z</time>
      </trkpt>
      <trkpt lat="41.10558" lon="20.43395">
        <ele>412.514712</ele>
        <time>2022-05-01T10:10:43.547Z</time>
      </trkpt>
      <trkpt lat="41.10574" lon="20.43391">
        <ele>412.440266</ele>
        <time>2022-05-01T10:10:45.619Z</time>
      </trkpt>
      <trkpt lat="41.1059" lon="20.43386">
        <ele>412.52194</ele>
        <time>2022-05-01T10:10:47.566Z</time>
      </trkpt>
      <trkpt lat="41.10605" lon="20.43379">
        <ele>412.605082</ele>
        <time>2022-05-01T10:10:49.555Z</time>
      </trkpt>
      <trkpt lat="41.10619" lon="20.43369">
        <ele>412.687291</ele>
        <time>2022-05-01T10:10:51.576Z</time>
      </trkpt>
      <trkpt lat="41.10634" lon="20.43357">
        <ele>412.776235</ele>
        <time>2022-05-01T10:10:53.571Z</time>
      </trkpt>
      <trkpt lat="41.10648" lon="20.43345">
        <ele>412.861662</ele>
        <time>2022-05-01T10:10:55.555Z</time>
      </trkpt>
      <trkpt lat="41.10662" lon="20.43332">
        <ele>412.949231</ele>
        <time>2022-05-01T10:10:57.552Z</time>
      </trkpt>
      <trkpt lat="41.10675" lon="20.4332">
        <ele>413.032319</ele>
        <time>2022-05-01T10:10:59.549Z</time>
      </trkpt>
      <trkpt lat="41.10688" lon="20.43307">
        <ele>413.116407</ele>
        <time>2022-05-01T10:11:01.531Z</time>
      </trkpt>
      <trkpt lat="41.10699" lon="20.43292">
        <ele>413.199015</ele>
        <time>2022-05-01T10:11:03.548Z</time>
      </trkpt>
      <trkpt lat="41.10709" lon="20.43275">
        <ele>413.283659</ele>
        <time>2022-05-01T10:11:05.550Z</time>
      </trkpt>
      <trkpt lat="41.10718" lon="20.43257">
        <ele>413.444622</ele>
        <time>2022-05-01T10:11:07.559Z</time>
      </trkpt>
      <trkpt lat="41.10725" lon="20.43241">
        <ele>413.670117</ele>
        <time>2022-05-01T10:11:09.559Z</time>
      </trkpt>
      <trkpt lat="41.10731" lon="20.43228">
        <ele>413.871233</ele>
        <time>2022-05-01T10:11:11.586Z</time>
      </trkpt>
      <trkpt lat="41.10737" lon="20.43216">
        <ele>414.053593</ele>
        <time>2022-05-01T10:11:13.526Z</time>
      </trkpt>
      <trkpt lat="41.10743" lon="20.43205">
        <ele>414.21994</ele>
        <time>2022-05-01T10:11:15.539Z</time>
      </trkpt>
      <trkpt lat="41.10751" lon="20.43192">
        <ele>414.426419</ele>
        <time>2022-05-01T10:11:17.551Z</time>
      </trkpt>
      <trkpt lat="41.10757" lon="20.43182">
        <ele>414.586712</ele>
        <time>2022-05-01T10:11:19.551Z</time>
      </trkpt>
      <trkpt lat="41.10764" lon="20.43171">
        <ele>414.765272</ele>
        <time>2022-05-01T10:11:22.538Z</time>
      </trkpt>
      <trkpt lat="41.10772" lon="20.43159">
        <ele>414.96405</ele>
        <time>2022-05-01T10:11:25.554Z</time>
      </trkpt>
      <trkpt lat="41.10779" lon="20.43148">
        <ele>415.158894</ele>
        <time>2022-05-01T10:11:28.589Z</time>
      </trkpt>
      <trkpt lat="41.10786" lon="20.43135">
        <ele>415.354236</ele>
        <time>2022-05-01T10:11:31.551Z</time>
      </trkpt>
      <trkpt lat="41.10792" lon="20.43126">
        <ele>415.505575</ele>
        <time>2022-05-01T10:11:33.534Z</time>
      </trkpt>
      <trkpt lat="41.10799" lon="20.43112">
        <ele>415.70821</ele>
        <time>2022-05-01T10:11:36.551Z</time>
      </trkpt>
      <trkpt lat="41.10804" lon="20.43097">
        <ele>415.923151</ele>
        <time>2022-05-01T10:11:39.552Z</time>
      </trkpt>
      <trkpt lat="41.10807" lon="20.43085">
        <ele>416.07693</ele>
        <time>2022-05-01T10:11:41.557Z</time>
      </trkpt>
      <trkpt lat="41.10811" lon="20.43073">
        <ele>416.245946</ele>
        <time>2022-05-01T10:11:43.550Z</time>
      </trkpt>
      <trkpt lat="41.10814" lon="20.43059">
        <ele>416.127093</ele>
        <time>2022-05-01T10:11:45.579Z</time>
      </trkpt>
      <trkpt lat="41.10818" lon="20.43044">
        <ele>415.773501</ele>
        <time>2022-05-01T10:11:47.562Z</time>
      </trkpt>
      <trkpt lat="41.10822" lon="20.43028">
        <ele>415.377064</ele>
        <time>2022-05-01T10:11:49.531Z</time>
      </trkpt>
      <trkpt lat="41.10828" lon="20.43009">
        <ele>414.909751</ele>
        <time>2022-05-01T10:11:51.542Z</time>
      </trkpt>
      <trkpt lat="41.10837" lon="20.4299">
        <ele>414.406049</ele>
        <time>2022-05-01T10:11:53.552Z</time>
      </trkpt>
      <trkpt lat="41.10847" lon="20.42973">
        <ele>413.905481</ele>
        <time>2022-05-01T10:11:55.553Z</time>
      </trkpt>
      <trkpt lat="41.10857" lon="20.42956">
        <ele>413.404432</ele>
        <time>2022-05-01T10:11:57.560Z</time>
      </trkpt>
      <trkpt lat="41.10867" lon="20.4294">
        <ele>412.93055</ele>
        <time>2022-05-01T10:11:59.539Z</time>
      </trkpt>
      <trkpt lat="41.10877" lon="20.42924">
        <ele>412.459145</ele>
        <time>2022-05-01T10:12:01.559Z</time>
      </trkpt>
      <trkpt lat="41.10887" lon="20.42908">
        <ele>411.986043</ele>
        <time>2022-05-01T10:12:03.568Z</time>
      </trkpt>
      <trkpt lat="41.10895" lon="20.42893">
        <ele>411.544184</ele>
        <time>2022-05-01T10:12:05.557Z</time>
      </trkpt>
      <trkpt lat="41.10903" lon="20.42877">
        <ele>411.114805</ele>
        <time>2022-05-01T10:12:07.590Z</time>
      </trkpt>
      <trkpt lat="41.10911" lon="20.42862">
        <ele>410.654523</ele>
        <time>2022-05-01T10:12:09.549Z</time>
      </trkpt>
      <trkpt lat="41.10918" lon="20.42845">
        <ele>410.126099</ele>
        <time>2022-05-01T10:12:11.543Z</time>
      </trkpt>
      <trkpt lat="41.10924" lon="20.42829">
        <ele>409.595127</ele>
        <time>2022-05-01T10:12:13.587Z</time>
      </trkpt>
      <trkpt lat="41.1093" lon="20.42811">
        <ele>409.054559</ele>
        <time>2022-05-01T10:12:15.588Z</time>
      </trkpt>
      <trkpt lat="41.10935" lon="20.42793">
        <ele>408.501769</ele>
        <time>2022-05-01T10:12:17.552Z</time>
      </trkpt>
      <trkpt lat="41.10941" lon="20.42773">
        <ele>407.90941</ele>
        <time>2022-05-01T10:12:19.550Z</time>
      </trkpt>
      <trkpt lat="41.10946" lon="20.42753">
        <ele>407.302416</ele>
        <time>2022-05-01T10:12:21.549Z</time>
      </trkpt>
      <trkpt lat="41.10952" lon="20.42733">
        <ele>406.68481</ele>
        <time>2022-05-01T10:12:23.542Z</time>
      </trkpt>
      <trkpt lat="41.10959" lon="20.42712">
        <ele>406.052505</ele>
        <time>2022-05-01T10:12:25.558Z</time>
      </trkpt>
      <trkpt lat="41.10966" lon="20.42691">
        <ele>405.416154</ele>
        <time>2022-05-01T10:12:27.552Z</time>
      </trkpt>
      <trkpt lat="41.10973" lon="20.42671">
        <ele>404.781209</ele>
        <time>2022-05-01T10:12:29.537Z</time>
      </trkpt>
      <trkpt lat="41.10981" lon="20.42652">
        <ele>404.172437</ele>
        <time>2022-05-01T10:12:31.556Z</time>
      </trkpt>
      <trkpt lat="41.1099" lon="20.42634">
        <ele>403.806899</ele>
        <time>2022-05-01T10:12:33.539Z</time>
      </trkpt>
      <trkpt lat="41.10999" lon="20.42616">
        <ele>403.481297</ele>
        <time>2022-05-01T10:12:35.550Z</time>
      </trkpt>
      <trkpt lat="41.11007" lon="20.426">
        <ele>403.188593</ele>
        <time>2022-05-01T10:12:37.563Z</time>
      </trkpt>
      <trkpt lat="41.11014" lon="20.42584">
        <ele>402.896799</ele>
        <time>2022-05-01T10:12:39.557Z</time>
      </trkpt>
      <trkpt lat="41.11023" lon="20.42569">
        <ele>402.607138</ele>
        <time>2022-05-01T10:12:41.558Z</time>
      </trkpt>
      <trkpt lat="41.1103" lon="20.42554">
        <ele>402.32585</ele>
        <time>2022-05-01T10:12:43.550Z</time>
      </trkpt>
      <trkpt lat="41.11038" lon="20.4254">
        <ele>402.055879</ele>
        <time>2022-05-01T10:12:45.551Z</time>
      </trkpt>
      <trkpt lat="41.11046" lon="20.42525">
        <ele>401.777244</ele>
        <time>2022-05-01T10:12:47.555Z</time>
      </trkpt>
      <trkpt lat="41.11054" lon="20.42509">
        <ele>401.482624</ele>
        <time>2022-05-01T10:12:49.556Z</time>
      </trkpt>
      <trkpt lat="41.11062" lon="20.42494">
        <ele>401.191706</ele>
        <time>2022-05-01T10:12:51.531Z</time>
      </trkpt>
      <trkpt lat="41.1107" lon="20.42478">
        <ele>400.906409</ele>
        <time>2022-05-01T10:12:53.558Z</time>
      </trkpt>
      <trkpt lat="41.11076" lon="20.42463">
        <ele>400.631397</ele>
        <time>2022-05-01T10:12:55.550Z</time>
      </trkpt>
      <trkpt lat="41.11082" lon="20.42447">
        <ele>400.324943</ele>
        <time>2022-05-01T10:12:57.559Z</time>
      </trkpt>
      <trkpt lat="41.11087" lon="20.4243">
        <ele>399.851773</ele>
        <time>2022-05-01T10:12:59.548Z</time>
      </trkpt>
      <trkpt lat="41.11092" lon="20.42413">
        <ele>399.373067</ele>
        <time>2022-05-01T10:13:01.559Z</time>
      </trkpt>
      <trkpt lat="41.11096" lon="20.42395">
        <ele>398.905357</ele>
        <time>2022-05-01T10:13:03.567Z</time>
      </trkpt>
      <trkpt lat="41.111" lon="20.42378">
        <ele>398.444762</ele>
        <time>2022-05-01T10:13:05.551Z</time>
      </trkpt>
      <trkpt lat="41.11102" lon="20.42361">
        <ele>398.003622</ele>
        <time>2022-05-01T10:13:07.537Z</time>
      </trkpt>
      <trkpt lat="41.11105" lon="20.42343">
        <ele>397.544262</ele>
        <time>2022-05-01T10:13:09.607Z</time>
      </trkpt>
      <trkpt lat="41.11108" lon="20.42326">
        <ele>397.0835</ele>
        <time>2022-05-01T10:13:11.549Z</time>
      </trkpt>
      <trkpt lat="41.11112" lon="20.42308">
        <ele>396.616183</ele>
        <time>2022-05-01T10:13:13.548Z</time>
      </trkpt>
      <trkpt lat="41.11116" lon="20.4229">
        <ele>396.145035</ele>
        <time>2022-05-01T10:13:15.557Z</time>
      </trkpt>
      <trkpt lat="41.11122" lon="20.42274">
        <ele>395.670989</ele>
        <time>2022-05-01T10:13:17.558Z</time>
      </trkpt>
      <trkpt lat="41.11128" lon="20.42259">
        <ele>395.242907</ele>
        <time>2022-05-01T10:13:19.565Z</time>
      </trkpt>
      <trkpt lat="41.11135" lon="20.42247">
        <ele>394.858871</ele>
        <time>2022-05-01T10:13:21.584Z</time>
      </trkpt>
      <trkpt lat="41.11142" lon="20.42237">
        <ele>394.509312</ele>
        <time>2022-05-01T10:13:23.592Z</time>
      </trkpt>
      <trkpt lat="41.11152" lon="20.42227">
        <ele>394.247799</ele>
        <time>2022-05-01T10:13:26.554Z</time>
      </trkpt>
      <trkpt lat="41.11162" lon="20.42218">
        <ele>394.117203</ele>
        <time>2022-05-01T10:13:29.528Z</time>
      </trkpt>
      <trkpt lat="41.11173" lon="20.4221">
        <ele>393.976028</ele>
        <time>2022-05-01T10:13:32.541Z</time>
      </trkpt>
      <trkpt lat="41.11184" lon="20.42203">
        <ele>393.846474</ele>
        <time>2022-05-01T10:13:35.543Z</time>
      </trkpt>
      <trkpt lat="41.11193" lon="20.42196">
        <ele>393.730447</ele>
        <time>2022-05-01T10:13:38.563Z</time>
      </trkpt>
      <trkpt lat="41.11205" lon="20.42189">
        <ele>393.590243</ele>
        <time>2022-05-01T10:13:41.542Z</time>
      </trkpt>
      <trkpt lat="41.11216" lon="20.42183">
        <ele>393.462351</ele>
        <time>2022-05-01T10:13:44.562Z</time>
      </trkpt>
      <trkpt lat="41.11226" lon="20.42176">
        <ele>393.344336</ele>
        <time>2022-05-01T10:13:47.528Z</time>
      </trkpt>
      <trkpt lat="41.11234" lon="20.4217">
        <ele>393.238819</ele>
        <time>2022-05-01T10:13:50.525Z</time>
      </trkpt>
      <trkpt lat="41.11243" lon="20.42165">
        <ele>393.134858</ele>
        <time>2022-05-01T10:13:53.535Z</time>
      </trkpt>
      <trkpt lat="41.11252" lon="20.42158">
        <ele>393.021695</ele>
        <time>2022-05-01T10:13:56.545Z</time>
      </trkpt>
      <trkpt lat="41.11262" lon="20.42152">
        <ele>392.908293</ele>
        <time>2022-05-01T10:13:59.549Z</time>
      </trkpt>
      <trkpt lat="41.11272" lon="20.42145">
        <ele>392.781309</ele>
        <time>2022-05-01T10:14:02.562Z</time>
      </trkpt>
      <trkpt lat="41.11284" lon="20.42138">
        <ele>392.64171</ele>
        <time>2022-05-01T10:14:05.540Z</time>
      </trkpt>
      <trkpt lat="41.11296" lon="20.4213">
        <ele>392.496896</ele>
        <time>2022-05-01T10:14:08.600Z</time>
      </trkpt>
      <trkpt lat="41.11304" lon="20.42124">
        <ele>392.397147</ele>
        <time>2022-05-01T10:14:10.554Z</time>
      </trkpt>
      <trkpt lat="41.11312" lon="20.42118">
        <ele>392.285247</ele>
        <time>2022-05-01T10:14:12.548Z</time>
      </trkpt>
      <trkpt lat="41.11321" lon="20.42112">
        <ele>392.166333</ele>
        <time>2022-05-01T10:14:14.578Z</time>
      </trkpt>
      <trkpt lat="41.11331" lon="20.42106">
        <ele>392.041132</ele>
        <time>2022-05-01T10:14:16.560Z</time>
      </trkpt>
      <trkpt lat="41.11341" lon="20.421">
        <ele>391.916864</ele>
        <time>2022-05-01T10:14:18.560Z</time>
      </trkpt>
      <trkpt lat="41.1135" lon="20.42093">
        <ele>391.788495</ele>
        <time>2022-05-01T10:14:20.578Z</time>
      </trkpt>
      <trkpt lat="41.11361" lon="20.42086">
        <ele>391.650395</ele>
        <time>2022-05-01T10:14:22.577Z</time>
      </trkpt>
      <trkpt lat="41.11372" lon="20.42079">
        <ele>391.511901</ele>
        <time>2022-05-01T10:14:24.551Z</time>
      </trkpt>
      <trkpt lat="41.11382" lon="20.42071">
        <ele>391.369726</ele>
        <time>2022-05-01T10:14:26.609Z</time>
      </trkpt>
      <trkpt lat="41.11394" lon="20.42064">
        <ele>391.224569</ele>
        <time>2022-05-01T10:14:28.565Z</time>
      </trkpt>
      <trkpt lat="41.11405" lon="20.42056">
        <ele>391.071581</ele>
        <time>2022-05-01T10:14:30.570Z</time>
      </trkpt>
      <trkpt lat="41.11417" lon="20.42049">
        <ele>390.917922</ele>
        <time>2022-05-01T10:14:32.598Z</time>
      </trkpt>
      <trkpt lat="41.11429" lon="20.42041">
        <ele>390.758807</ele>
        <time>2022-05-01T10:14:34.538Z</time>
      </trkpt>
      <trkpt lat="41.11441" lon="20.42032">
        <ele>390.608163</ele>
        <time>2022-05-01T10:14:36.556Z</time>
      </trkpt>
      <trkpt lat="41.11453" lon="20.42023">
        <ele>390.44261</ele>
        <time>2022-05-01T10:14:38.539Z</time>
      </trkpt>
      <trkpt lat="41.11466" lon="20.42013">
        <ele>390.307231</ele>
        <time>2022-05-01T10:14:40.544Z</time>
      </trkpt>
      <trkpt lat="41.11479" lon="20.42001">
        <ele>390.798447</ele>
        <time>2022-05-01T10:14:42.555Z</time>
      </trkpt>
      <trkpt lat="41.11491" lon="20.4199">
        <ele>391.287004</ele>
        <time>2022-05-01T10:14:44.558Z</time>
      </trkpt>
      <trkpt lat="41.11503" lon="20.41978">
        <ele>391.773217</ele>
        <time>2022-05-01T10:14:46.543Z</time>
      </trkpt>
      <trkpt lat="41.11515" lon="20.41967">
        <ele>392.227342</ele>
        <time>2022-05-01T10:14:48.565Z</time>
      </trkpt>
      <trkpt lat="41.11525" lon="20.41957">
        <ele>392.654325</ele>
        <time>2022-05-01T10:14:50.553Z</time>
      </trkpt>
      <trkpt lat="41.11535" lon="20.41947">
        <ele>393.052582</ele>
        <time>2022-05-01T10:14:52.535Z</time>
      </trkpt>
      <trkpt lat="41.11544" lon="20.41939">
        <ele>393.414605</ele>
        <time>2022-05-01T10:14:54.547Z</time>
      </trkpt>
      <trkpt lat="41.11552" lon="20.41931">
        <ele>393.732408</ele>
        <time>2022-05-01T10:14:56.566Z</time>
      </trkpt>
      <trkpt lat="41.1156" lon="20.41924">
        <ele>394.029132</ele>
        <time>2022-05-01T10:14:58.556Z</time>
      </trkpt>
      <trkpt lat="41.11567" lon="20.41917">
        <ele>394.325312</ele>
        <time>2022-05-01T10:15:00.579Z</time>
      </trkpt>
      <trkpt lat="41.11575" lon="20.4191">
        <ele>394.616057</ele>
        <time>2022-05-01T10:15:02.557Z</time>
      </trkpt>
      <trkpt lat="41.11585" lon="20.419">
        <ele>395.033355</ele>
        <time>2022-05-01T10:15:05.553Z</time>
      </trkpt>
      <trkpt lat="41.11596" lon="20.41891">
        <ele>395.446524</ele>
        <time>2022-05-01T10:15:08.549Z</time>
      </trkpt>
      <trkpt lat="41.11605" lon="20.41881">
        <ele>395.822364</ele>
        <time>2022-05-01T10:15:11.587Z</time>
      </trkpt>
      <trkpt lat="41.11614" lon="20.41872">
        <ele>396.185758</ele>
        <time>2022-05-01T10:15:14.563Z</time>
      </trkpt>
      <trkpt lat="41.11622" lon="20.41862">
        <ele>396.544934</ele>
        <time>2022-05-01T10:15:17.545Z</time>
      </trkpt>
      <trkpt lat="41.11629" lon="20.41852">
        <ele>396.879081</ele>
        <time>2022-05-01T10:15:20.547Z</time>
      </trkpt>
      <trkpt lat="41.11636" lon="20.41841">
        <ele>397.215777</ele>
        <time>2022-05-01T10:15:23.551Z</time>
      </trkpt>
      <trkpt lat="41.11641" lon="20.41829">
        <ele>397.541868</ele>
        <time>2022-05-01T10:15:26.559Z</time>
      </trkpt>
      <trkpt lat="41.11646" lon="20.41817">
        <ele>397.872194</ele>
        <time>2022-05-01T10:15:29.554Z</time>
      </trkpt>
      <trkpt lat="41.1165" lon="20.41806">
        <ele>398.165514</ele>
        <time>2022-05-01T10:15:32.540Z</time>
      </trkpt>
      <trkpt lat="41.11652" lon="20.41794">
        <ele>398.468624</ele>
        <time>2022-05-01T10:15:35.558Z</time>
      </trkpt>
      <trkpt lat="41.11655" lon="20.41783">
        <ele>398.76516</ele>
        <time>2022-05-01T10:15:38.580Z</time>
      </trkpt>
      <trkpt lat="41.11658" lon="20.41771">
        <ele>399.053766</ele>
        <time>2022-05-01T10:15:41.539Z</time>
      </trkpt>
      <trkpt lat="41.11662" lon="20.41758">
        <ele>399.396974</ele>
        <time>2022-05-01T10:15:45.558Z</time>
      </trkpt>
      <trkpt lat="41.11665" lon="20.41744">
        <ele>399.740182</ele>
        <time>2022-05-01T10:15:49.556Z</time>
      </trkpt>
      <trkpt lat="41.11668" lon="20.41731">
        <ele>400.07324</ele>
        <time>2022-05-01T10:15:53.551Z</time>
      </trkpt>
      <trkpt lat="41.11671" lon="20.4172">
        <ele>400.360662</ele>
        <time>2022-05-01T10:15:56.555Z</time>
      </trkpt>
      <trkpt lat="41.11674" lon="20.41708">
        <ele>400.661663</ele>
        <time>2022-05-01T10:15:59.542Z</time>
      </trkpt>
      <trkpt lat="41.11678" lon="20.41696">
        <ele>400.965101</ele>
        <time>2022-05-01T10:16:02.550Z</time>
      </trkpt>
      <trkpt lat="41.11683" lon="20.41683">
        <ele>401.335362</ele>
        <time>2022-05-01T10:16:06.572Z</time>
      </trkpt>
      <trkpt lat="41.11689" lon="20.4167">
        <ele>401.693104</ele>
        <time>2022-05-01T10:16:10.542Z</time>
      </trkpt>
      <trkpt lat="41.11695" lon="20.41658">
        <ele>401.854677</ele>
        <time>2022-05-01T10:16:14.551Z</time>
      </trkpt>
      <trkpt lat="41.11701" lon="20.41647">
        <ele>401.882128</ele>
        <time>2022-05-01T10:16:18.547Z</time>
      </trkpt>
      <trkpt lat="41.11708" lon="20.41635">
        <ele>401.912301</ele>
        <time>2022-05-01T10:16:22.603Z</time>
      </trkpt>
      <trkpt lat="41.11715" lon="20.41623">
        <ele>401.944435</ele>
        <time>2022-05-01T10:16:26.561Z</time>
      </trkpt>
      <trkpt lat="41.11722" lon="20.41614">
        <ele>401.970107</ele>
        <time>2022-05-01T10:16:29.585Z</time>
      </trkpt>
      <trkpt lat="41.11729" lon="20.41605">
        <ele>401.996875</ele>
        <time>2022-05-01T10:16:32.554Z</time>
      </trkpt>
      <trkpt lat="41.11738" lon="20.41595">
        <ele>402.026752</ele>
        <time>2022-05-01T10:16:35.574Z</time>
      </trkpt>
      <trkpt lat="41.11747" lon="20.41586">
        <ele>402.057383</ele>
        <time>2022-05-01T10:16:38.560Z</time>
      </trkpt>
      <trkpt lat="41.11757" lon="20.41578">
        <ele>402.087827</ele>
        <time>2022-05-01T10:16:41.584Z</time>
      </trkpt>
      <trkpt lat="41.11768" lon="20.41569">
        <ele>402.121626</ele>
        <time>2022-05-01T10:16:44.551Z</time>
      </trkpt>
      <trkpt lat="41.11776" lon="20.41562">
        <ele>402.148222</ele>
        <time>2022-05-01T10:16:46.550Z</time>
      </trkpt>
      <trkpt lat="41.11785" lon="20.41556">
        <ele>402.17588</ele>
        <time>2022-05-01T10:16:48.549Z</time>
      </trkpt>
      <trkpt lat="41.11794" lon="20.41549">
        <ele>402.203634</ele>
        <time>2022-05-01T10:16:50.546Z</time>
      </trkpt>
      <trkpt lat="41.11804" lon="20.41542">
        <ele>402.233178</ele>
        <time>2022-05-01T10:16:52.545Z</time>
      </trkpt>
      <trkpt lat="41.11814" lon="20.41534">
        <ele>402.263426</ele>
        <time>2022-05-01T10:16:54.556Z</time>
      </trkpt>
      <trkpt lat="41.11824" lon="20.41526">
        <ele>402.295441</ele>
        <time>2022-05-01T10:16:56.565Z</time>
      </trkpt>
      <trkpt lat="41.11834" lon="20.41515">
        <ele>402.180586</ele>
        <time>2022-05-01T10:16:58.539Z</time>
      </trkpt>
      <trkpt lat="41.11845" lon="20.41502">
        <ele>401.75401</ele>
        <time>2022-05-01T10:17:00.550Z</time>
      </trkpt>
      <trkpt lat="41.11856" lon="20.41488">
        <ele>401.30624</ele>
        <time>2022-05-01T10:17:02.564Z</time>
      </trkpt>
      <trkpt lat="41.11863" lon="20.41472">
        <ele>400.872293</ele>
        <time>2022-05-01T10:17:04.559Z</time>
      </trkpt>
      <trkpt lat="41.1187" lon="20.41455">
        <ele>400.432756</ele>
        <time>2022-05-01T10:17:06.545Z</time>
      </trkpt>
      <trkpt lat="41.11876" lon="20.41435">
        <ele>399.955063</ele>
        <time>2022-05-01T10:17:08.540Z</time>
      </trkpt>
      <trkpt lat="41.11883" lon="20.41414">
        <ele>399.431414</ele>
        <time>2022-05-01T10:17:10.544Z</time>
      </trkpt>
      <trkpt lat="41.11891" lon="20.41393">
        <ele>398.902449</ele>
        <time>2022-05-01T10:17:12.550Z</time>
      </trkpt>
      <trkpt lat="41.119" lon="20.41374">
        <ele>398.395861</ele>
        <time>2022-05-01T10:17:14.585Z</time>
      </trkpt>
      <trkpt lat="41.11912" lon="20.41357">
        <ele>397.88204</ele>
        <time>2022-05-01T10:17:16.552Z</time>
      </trkpt>
      <trkpt lat="41.11919" lon="20.4135">
        <ele>397.606674</ele>
        <time>2022-05-01T10:17:17.540Z</time>
      </trkpt>
      <trkpt lat="41.11927" lon="20.41343">
        <ele>397.326833</ele>
        <time>2022-05-01T10:17:18.554Z</time>
      </trkpt>
      <trkpt lat="41.11935" lon="20.41339">
        <ele>397.047146</ele>
        <time>2022-05-01T10:17:19.560Z</time>
      </trkpt>
      <trkpt lat="41.11944" lon="20.41335">
        <ele>396.671133</ele>
        <time>2022-05-01T10:17:20.547Z</time>
      </trkpt>
      <trkpt lat="41.11955" lon="20.41333">
        <ele>396.182909</ele>
        <time>2022-05-01T10:17:21.574Z</time>
      </trkpt>
      <trkpt lat="41.11965" lon="20.41331">
        <ele>395.708371</ele>
        <time>2022-05-01T10:17:22.551Z</time>
      </trkpt>
      <trkpt lat="41.11975" lon="20.4133">
        <ele>395.221369</ele>
        <time>2022-05-01T10:17:23.558Z</time>
      </trkpt>
      <trkpt lat="41.11986" lon="20.41328">
        <ele>394.715621</ele>
        <time>2022-05-01T10:17:24.564Z</time>
      </trkpt>
      <trkpt lat="41.11996" lon="20.41327">
        <ele>394.222401</ele>
        <time>2022-05-01T10:17:25.590Z</time>
      </trkpt>
      <trkpt lat="41.12006" lon="20.41324">
        <ele>393.734177</ele>
        <time>2022-05-01T10:17:26.548Z</time>
      </trkpt>
      <trkpt lat="41.12016" lon="20.4132">
        <ele>393.243589</ele>
        <time>2022-05-01T10:17:27.557Z</time>
      </trkpt>
      <trkpt lat="41.12025" lon="20.41315">
        <ele>392.767193</ele>
        <time>2022-05-01T10:17:28.557Z</time>
      </trkpt>
      <trkpt lat="41.12035" lon="20.41307">
        <ele>392.252284</ele>
        <time>2022-05-01T10:17:29.551Z</time>
      </trkpt>
      <trkpt lat="41.12043" lon="20.41299">
        <ele>391.75137</ele>
        <time>2022-05-01T10:17:30.559Z</time>
      </trkpt>
      <trkpt lat="41.12051" lon="20.41289">
        <ele>391.244329</ele>
        <time>2022-05-01T10:17:31.567Z</time>
      </trkpt>
      <trkpt lat="41.12058" lon="20.41278">
        <ele>390.737022</ele>
        <time>2022-05-01T10:17:32.546Z</time>
      </trkpt>
      <trkpt lat="41.12064" lon="20.41266">
        <ele>390.225485</ele>
        <time>2022-05-01T10:17:33.566Z</time>
      </trkpt>
      <trkpt lat="41.12069" lon="20.41253">
        <ele>389.69989</ele>
        <time>2022-05-01T10:17:34.565Z</time>
      </trkpt>
      <trkpt lat="41.12074" lon="20.4124">
        <ele>389.180159</ele>
        <time>2022-05-01T10:17:35.536Z</time>
      </trkpt>
      <trkpt lat="41.12079" lon="20.41225">
        <ele>388.623691</ele>
        <time>2022-05-01T10:17:36.586Z</time>
      </trkpt>
      <trkpt lat="41.12083" lon="20.41211">
        <ele>388.207357</ele>
        <time>2022-05-01T10:17:37.536Z</time>
      </trkpt>
      <trkpt lat="41.12087" lon="20.41196">
        <ele>387.805001</ele>
        <time>2022-05-01T10:17:38.565Z</time>
      </trkpt>
      <trkpt lat="41.12092" lon="20.41183">
        <ele>387.443087</ele>
        <time>2022-05-01T10:17:39.557Z</time>
      </trkpt>
      <trkpt lat="41.12097" lon="20.41169">
        <ele>387.042379</ele>
        <time>2022-05-01T10:17:40.554Z</time>
      </trkpt>
      <trkpt lat="41.12102" lon="20.41154">
        <ele>386.630764</ele>
        <time>2022-05-01T10:17:41.572Z</time>
      </trkpt>
      <trkpt lat="41.12108" lon="20.41139">
        <ele>386.230944</ele>
        <time>2022-05-01T10:17:42.566Z</time>
      </trkpt>
      <trkpt lat="41.12113" lon="20.41124">
        <ele>385.830541</ele>
        <time>2022-05-01T10:17:43.555Z</time>
      </trkpt>
      <trkpt lat="41.12119" lon="20.41111">
        <ele>385.445398</ele>
        <time>2022-05-01T10:17:44.557Z</time>
      </trkpt>
      <trkpt lat="41.12126" lon="20.41099">
        <ele>385.076246</ele>
        <time>2022-05-01T10:17:45.543Z</time>
      </trkpt>
      <trkpt lat="41.12134" lon="20.41089">
        <ele>384.711061</ele>
        <time>2022-05-01T10:17:46.551Z</time>
      </trkpt>
      <trkpt lat="41.12142" lon="20.41081">
        <ele>384.361858</ele>
        <time>2022-05-01T10:17:47.593Z</time>
      </trkpt>
      <trkpt lat="41.12151" lon="20.41074">
        <ele>384.014587</ele>
        <time>2022-05-01T10:17:48.544Z</time>
      </trkpt>
      <trkpt lat="41.12161" lon="20.4107">
        <ele>383.690369</ele>
        <time>2022-05-01T10:17:49.544Z</time>
      </trkpt>
      <trkpt lat="41.1217" lon="20.41067">
        <ele>383.37319</ele>
        <time>2022-05-01T10:17:50.554Z</time>
      </trkpt>
      <trkpt lat="41.12179" lon="20.41066">
        <ele>383.069416</ele>
        <time>2022-05-01T10:17:51.548Z</time>
      </trkpt>
      <trkpt lat="41.12189" lon="20.41066">
        <ele>382.746181</ele>
        <time>2022-05-01T10:17:52.598Z</time>
      </trkpt>
      <trkpt lat="41.12204" lon="20.4107">
        <ele>383.240852</ele>
        <time>2022-05-01T10:17:54.555Z</time>
      </trkpt>
      <trkpt lat="41.12216" lon="20.41074">
        <ele>384.300091</ele>
        <time>2022-05-01T10:17:56.534Z</time>
      </trkpt>
      <trkpt lat="41.12225" lon="20.41077">
        <ele>385.046983</ele>
        <time>2022-05-01T10:17:58.612Z</time>
      </trkpt>
      <trkpt lat="41.12235" lon="20.4108">
        <ele>385.853854</ele>
        <time>2022-05-01T10:18:01.551Z</time>
      </trkpt>
      <trkpt lat="41.12245" lon="20.41082">
        <ele>386.739141</ele>
        <time>2022-05-01T10:18:05.548Z</time>
      </trkpt>
      <trkpt lat="41.12256" lon="20.41082">
        <ele>387.626878</ele>
        <time>2022-05-01T10:18:09.600Z</time>
      </trkpt>
      <trkpt lat="41.12267" lon="20.41081">
        <ele>388.510113</ele>
        <time>2022-05-01T10:18:13.543Z</time>
      </trkpt>
      <trkpt lat="41.12277" lon="20.41079">
        <ele>389.396984</ele>
        <time>2022-05-01T10:18:17.557Z</time>
      </trkpt>
      <trkpt lat="41.12286" lon="20.41075">
        <ele>390.155188</ele>
        <time>2022-05-01T10:18:21.538Z</time>
      </trkpt>
      <trkpt lat="41.12296" lon="20.41072">
        <ele>391.030298</ele>
        <time>2022-05-01T10:18:26.550Z</time>
      </trkpt>
      <trkpt lat="41.12306" lon="20.41067">
        <ele>391.884722</ele>
        <time>2022-05-01T10:18:31.547Z</time>
      </trkpt>
      <trkpt lat="41.12316" lon="20.4106">
        <ele>392.810001</ele>
        <time>2022-05-01T10:18:36.539Z</time>
      </trkpt>
      <trkpt lat="41.12324" lon="20.41055">
        <ele>393.596161</ele>
        <time>2022-05-01T10:18:41.573Z</time>
      </trkpt>
      <trkpt lat="41.12334" lon="20.41049">
        <ele>394.445487</ele>
        <time>2022-05-01T10:18:46.553Z</time>
      </trkpt>
      <trkpt lat="41.12344" lon="20.41043">
        <ele>395.374253</ele>
        <time>2022-05-01T10:18:51.565Z</time>
      </trkpt>
      <trkpt lat="41.12352" lon="20.41038">
        <ele>396.12743</ele>
        <time>2022-05-01T10:18:55.542Z</time>
      </trkpt>
      <trkpt lat="41.1236" lon="20.41033">
        <ele>396.895788</ele>
        <time>2022-05-01T10:19:00.576Z</time>
      </trkpt>
      <trkpt lat="41.1237" lon="20.41027">
        <ele>397.581002</ele>
        <time>2022-05-01T10:19:06.556Z</time>
      </trkpt>
      <trkpt lat="41.12378" lon="20.41021">
        <ele>397.934813</ele>
        <time>2022-05-01T10:19:11.561Z</time>
      </trkpt>
      <trkpt lat="41.12386" lon="20.41015">
        <ele>398.281622</ele>
        <time>2022-05-01T10:19:15.551Z</time>
      </trkpt>
      <trkpt lat="41.12394" lon="20.41006">
        <ele>398.654815</ele>
        <time>2022-05-01T10:19:20.547Z</time>
      </trkpt>
      <trkpt lat="41.12403" lon="20.40997">
        <ele>399.056967</ele>
        <time>2022-05-01T10:19:26.558Z</time>
      </trkpt>
      <trkpt lat="41.12409" lon="20.40989">
        <ele>399.405331</ele>
        <time>2022-05-01T10:19:31.531Z</time>
      </trkpt>
      <trkpt lat="41.12416" lon="20.40979">
        <ele>399.773881</ele>
        <time>2022-05-01T10:19:36.609Z</time>
      </trkpt>
      <trkpt lat="41.12421" lon="20.40969">
        <ele>400.117586</ele>
        <time>2022-05-01T10:19:41.547Z</time>
      </trkpt>
      <trkpt lat="41.12427" lon="20.40958">
        <ele>400.492613</ele>
        <time>2022-05-01T10:19:46.539Z</time>
      </trkpt>
      <trkpt lat="41.12434" lon="20.40946">
        <ele>400.901023</ele>
        <time>2022-05-01T10:19:51.532Z</time>
      </trkpt>
      <trkpt lat="41.1244" lon="20.40937">
        <ele>401.252572</ele>
        <time>2022-05-01T10:19:56.555Z</time>
      </trkpt>
      <trkpt lat="41.12447" lon="20.40928">
        <ele>401.612864</ele>
        <time>2022-05-01T10:20:01.565Z</time>
      </trkpt>
      <trkpt lat="41.12455" lon="20.4092">
        <ele>401.992401</ele>
        <time>2022-05-01T10:20:06.582Z</time>
      </trkpt>
      <trkpt lat="41.12464" lon="20.40912">
        <ele>402.360164</ele>
        <time>2022-05-01T10:20:11.537Z</time>
      </trkpt>
      <trkpt lat="41.12472" lon="20.40907">
        <ele>402.711851</ele>
        <time>2022-05-01T10:20:16.552Z</time>
      </trkpt>
      <trkpt lat="41.12481" lon="20.40902">
        <ele>403.072527</ele>
        <time>2022-05-01T10:20:21.553Z</time>
      </trkpt>
      <trkpt lat="41.1249" lon="20.40897">
        <ele>403.446096</ele>
        <time>2022-05-01T10:20:26.546Z</time>
      </trkpt>
      <trkpt lat="41.125" lon="20.40892">
        <ele>403.835517</ele>
        <time>2022-05-01T10:20:31.529Z</time>
      </trkpt>
      <trkpt lat="41.1251" lon="20.40887">
        <ele>404.065499</ele>
        <time>2022-05-01T10:20:36.549Z</time>
      </trkpt>
      <trkpt lat="41.12518" lon="20.40882">
        <ele>403.911224</ele>
        <time>2022-05-01T10:20:40.555Z</time>
      </trkpt>
      <trkpt lat="41.12527" lon="20.40876">
        <ele>403.74302</ele>
        <time>2022-05-01T10:20:44.557Z</time>
      </trkpt>
      <trkpt lat="41.12537" lon="20.40869">
        <ele>403.566538</ele>
        <time>2022-05-01T10:20:48.559Z</time>
      </trkpt>
      <trkpt lat="41.12544" lon="20.40862">
        <ele>403.412906</ele>
        <time>2022-05-01T10:20:51.551Z</time>
      </trkpt>
      <trkpt lat="41.12552" lon="20.40853">
        <ele>403.23262</ele>
        <time>2022-05-01T10:20:54.540Z</time>
      </trkpt>
      <trkpt lat="41.12561" lon="20.40841">
        <ele>403.020705</ele>
        <time>2022-05-01T10:20:57.571Z</time>
      </trkpt>
      <trkpt lat="41.12568" lon="20.40832">
        <ele>402.857374</ele>
        <time>2022-05-01T10:20:59.546Z</time>
      </trkpt>
      <trkpt lat="41.12576" lon="20.40821">
        <ele>402.670946</ele>
        <time>2022-05-01T10:21:01.547Z</time>
      </trkpt>
      <trkpt lat="41.12585" lon="20.40809">
        <ele>402.457012</ele>
        <time>2022-05-01T10:21:03.556Z</time>
      </trkpt>
      <trkpt lat="41.12595" lon="20.40794">
        <ele>402.208298</ele>
        <time>2022-05-01T10:21:05.554Z</time>
      </trkpt>
      <trkpt lat="41.12606" lon="20.40778">
        <ele>401.92321</ele>
        <time>2022-05-01T10:21:07.605Z</time>
      </trkpt>
      <trkpt lat="41.12613" lon="20.40769">
        <ele>401.767869</ele>
        <time>2022-05-01T10:21:08.538Z</time>
      </trkpt>
      <trkpt lat="41.12619" lon="20.4076">
        <ele>401.613978</ele>
        <time>2022-05-01T10:21:09.545Z</time>
      </trkpt>
      <trkpt lat="41.12626" lon="20.4075">
        <ele>401.43945</ele>
        <time>2022-05-01T10:21:10.552Z</time>
      </trkpt>
      <trkpt lat="41.12633" lon="20.40739">
        <ele>401.265243</ele>
        <time>2022-05-01T10:21:11.550Z</time>
      </trkpt>
      <trkpt lat="41.1264" lon="20.40728">
        <ele>401.053498</ele>
        <time>2022-05-01T10:21:12.582Z</time>
      </trkpt>
      <trkpt lat="41.12646" lon="20.40717">
        <ele>400.552936</ele>
        <time>2022-05-01T10:21:13.595Z</time>
      </trkpt>
      <trkpt lat="41.12652" lon="20.40704">
        <ele>400.036483</ele>
        <time>2022-05-01T10:21:14.573Z</time>
      </trkpt>
      <trkpt lat="41.12656" lon="20.40692">
        <ele>399.551634</ele>
        <time>2022-05-01T10:21:15.553Z</time>
      </trkpt>
      <trkpt lat="41.1266" lon="20.40679">
        <ele>399.039885</ele>
        <time>2022-05-01T10:21:16.548Z</time>
      </trkpt>
      <trkpt lat="41.12663" lon="20.40665">
        <ele>398.523943</ele>
        <time>2022-05-01T10:21:17.564Z</time>
      </trkpt>
      <trkpt lat="41.12665" lon="20.4065">
        <ele>398.015204</ele>
        <time>2022-05-01T10:21:18.543Z</time>
      </trkpt>
      <trkpt lat="41.12667" lon="20.40635">
        <ele>397.464491</ele>
        <time>2022-05-01T10:21:19.591Z</time>
      </trkpt>
      <trkpt lat="41.12668" lon="20.4062">
        <ele>396.924953</ele>
        <time>2022-05-01T10:21:20.574Z</time>
      </trkpt>
      <trkpt lat="41.1267" lon="20.40604">
        <ele>396.363735</ele>
        <time>2022-05-01T10:21:21.554Z</time>
      </trkpt>
      <trkpt lat="41.12672" lon="20.40589">
        <ele>395.812606</ele>
        <time>2022-05-01T10:21:22.556Z</time>
      </trkpt>
      <trkpt lat="41.12675" lon="20.40574">
        <ele>395.271516</ele>
        <time>2022-05-01T10:21:23.568Z</time>
      </trkpt>
      <trkpt lat="41.12679" lon="20.40559">
        <ele>394.718268</ele>
        <time>2022-05-01T10:21:24.551Z</time>
      </trkpt>
      <trkpt lat="41.12683" lon="20.40545">
        <ele>394.168091</ele>
        <time>2022-05-01T10:21:25.536Z</time>
      </trkpt>
      <trkpt lat="41.12688" lon="20.40531">
        <ele>393.615448</ele>
        <time>2022-05-01T10:21:26.550Z</time>
      </trkpt>
      <trkpt lat="41.12693" lon="20.40516">
        <ele>393.058757</ele>
        <time>2022-05-01T10:21:27.551Z</time>
      </trkpt>
      <trkpt lat="41.12698" lon="20.40502">
        <ele>392.537814</ele>
        <time>2022-05-01T10:21:28.551Z</time>
      </trkpt>
      <trkpt lat="41.12703" lon="20.40487">
        <ele>392.14344</ele>
        <time>2022-05-01T10:21:29.541Z</time>
      </trkpt>
      <trkpt lat="41.12707" lon="20.40473">
        <ele>391.76143</ele>
        <time>2022-05-01T10:21:30.564Z</time>
      </trkpt>
      <trkpt lat="41.12712" lon="20.4046">
        <ele>391.388679</ele>
        <time>2022-05-01T10:21:31.555Z</time>
      </trkpt>
      <trkpt lat="41.12716" lon="20.40447">
        <ele>391.019587</ele>
        <time>2022-05-01T10:21:32.584Z</time>
      </trkpt>
      <trkpt lat="41.1272" lon="20.40434">
        <ele>390.662426</ele>
        <time>2022-05-01T10:21:33.544Z</time>
      </trkpt>
      <trkpt lat="41.12724" lon="20.40421">
        <ele>390.31861</ele>
        <time>2022-05-01T10:21:34.582Z</time>
      </trkpt>
      <trkpt lat="41.12727" lon="20.40409">
        <ele>389.995593</ele>
        <time>2022-05-01T10:21:35.562Z</time>
      </trkpt>
      <trkpt lat="41.12729" lon="20.40396">
        <ele>389.673614</ele>
        <time>2022-05-01T10:21:36.588Z</time>
      </trkpt>
      <trkpt lat="41.1273" lon="20.40384">
        <ele>389.355851</ele>
        <time>2022-05-01T10:21:37.552Z</time>
      </trkpt>
      <trkpt lat="41.12729" lon="20.40361">
        <ele>388.774497</ele>
        <time>2022-05-01T10:21:39.557Z</time>
      </trkpt>
      <trkpt lat="41.12727" lon="20.40338">
        <ele>388.205337</ele>
        <time>2022-05-01T10:21:41.554Z</time>
      </trkpt>
      <trkpt lat="41.12726" lon="20.40317">
        <ele>387.669002</ele>
        <time>2022-05-01T10:21:43.552Z</time>
      </trkpt>
      <trkpt lat="41.12727" lon="20.40296">
        <ele>387.138596</ele>
        <time>2022-05-01T10:21:45.530Z</time>
      </trkpt>
      <trkpt lat="41.12729" lon="20.40278">
        <ele>386.66957</ele>
        <time>2022-05-01T10:21:47.585Z</time>
      </trkpt>
      <trkpt lat="41.12734" lon="20.40261">
        <ele>386.371056</ele>
        <time>2022-05-01T10:21:49.558Z</time>
      </trkpt>
      <trkpt lat="41.1274" lon="20.40244">
        <ele>386.074255</ele>
        <time>2022-05-01T10:21:51.548Z</time>
      </trkpt>
      <trkpt lat="41.12749" lon="20.4023">
        <ele>385.789746</ele>
        <time>2022-05-01T10:21:53.561Z</time>
      </trkpt>
      <trkpt lat="41.12758" lon="20.40217">
        <ele>385.506194</ele>
        <time>2022-05-01T10:21:55.567Z</time>
      </trkpt>
      <trkpt lat="41.12769" lon="20.40207">
        <ele>385.229798</ele>
        <time>2022-05-01T10:21:57.556Z</time>
      </trkpt>
      <trkpt lat="41.1278" lon="20.40199">
        <ele>384.972869</ele>
        <time>2022-05-01T10:21:59.558Z</time>
      </trkpt>
      <trkpt lat="41.1279" lon="20.40193">
        <ele>384.734927</ele>
        <time>2022-05-01T10:22:01.562Z</time>
      </trkpt>
      <trkpt lat="41.128" lon="20.40189">
        <ele>384.520874</ele>
        <time>2022-05-01T10:22:03.551Z</time>
      </trkpt>
      <trkpt lat="41.12811" lon="20.40186">
        <ele>384.28751</ele>
        <time>2022-05-01T10:22:05.551Z</time>
      </trkpt>
      <trkpt lat="41.1282" lon="20.40183">
        <ele>384.094461</ele>
        <time>2022-05-01T10:22:07.546Z</time>
      </trkpt>
      <trkpt lat="41.12832" lon="20.40179">
        <ele>383.836427</ele>
        <time>2022-05-01T10:22:10.557Z</time>
      </trkpt>
      <trkpt lat="41.1284" lon="20.40175">
        <ele>383.644306</ele>
        <time>2022-05-01T10:22:12.552Z</time>
      </trkpt>
      <trkpt lat="41.12849" lon="20.4017">
        <ele>383.447789</ele>
        <time>2022-05-01T10:22:14.556Z</time>
      </trkpt>
      <trkpt lat="41.12858" lon="20.40165">
        <ele>383.254529</ele>
        <time>2022-05-01T10:22:16.546Z</time>
      </trkpt>
      <trkpt lat="41.12867" lon="20.4016">
        <ele>383.050445</ele>
        <time>2022-05-01T10:22:18.542Z</time>
      </trkpt>
      <trkpt lat="41.12875" lon="20.40154">
        <ele>382.861207</ele>
        <time>2022-05-01T10:22:20.551Z</time>
      </trkpt>
      <trkpt lat="41.12884" lon="20.40148">
        <ele>382.782475</ele>
        <time>2022-05-01T10:22:22.558Z</time>
      </trkpt>
      <trkpt lat="41.12893" lon="20.40143">
        <ele>382.701419</ele>
        <time>2022-05-01T10:22:24.567Z</time>
      </trkpt>
      <trkpt lat="41.12902" lon="20.40137">
        <ele>382.621267</ele>
        <time>2022-05-01T10:22:26.582Z</time>
      </trkpt>
      <trkpt lat="41.1291" lon="20.40131">
        <ele>382.5492</ele>
        <time>2022-05-01T10:22:28.558Z</time>
      </trkpt>
      <trkpt lat="41.12919" lon="20.40126">
        <ele>382.471008</ele>
        <time>2022-05-01T10:22:30.566Z</time>
      </trkpt>
      <trkpt lat="41.12928" lon="20.4012">
        <ele>382.393795</ele>
        <time>2022-05-01T10:22:32.563Z</time>
      </trkpt>
      <trkpt lat="41.12937" lon="20.40114">
        <ele>382.312931</ele>
        <time>2022-05-01T10:22:34.557Z</time>
      </trkpt>
      <trkpt lat="41.12946" lon="20.40108">
        <ele>382.232594</ele>
        <time>2022-05-01T10:22:36.547Z</time>
      </trkpt>
      <trkpt lat="41.12955" lon="20.40102">
        <ele>382.152709</ele>
        <time>2022-05-01T10:22:38.551Z</time>
      </trkpt>
      <trkpt lat="41.12964" lon="20.40097">
        <ele>382.075518</ele>
        <time>2022-05-01T10:22:40.555Z</time>
      </trkpt>
      <trkpt lat="41.12973" lon="20.40092">
        <ele>381.9947</ele>
        <time>2022-05-01T10:22:42.549Z</time>
      </trkpt>
      <trkpt lat="41.12983" lon="20.40087">
        <ele>381.914108</ele>
        <time>2022-05-01T10:22:44.533Z</time>
      </trkpt>
      <trkpt lat="41.12992" lon="20.40083">
        <ele>381.835927</ele>
        <time>2022-05-01T10:22:46.559Z</time>
      </trkpt>
      <trkpt lat="41.13002" lon="20.40079">
        <ele>381.756238</ele>
        <time>2022-05-01T10:22:48.611Z</time>
      </trkpt>
      <trkpt lat="41.13011" lon="20.40075">
        <ele>381.677862</ele>
        <time>2022-05-01T10:22:50.551Z</time>
      </trkpt>
      <trkpt lat="41.1302" lon="20.40071">
        <ele>381.604576</ele>
        <time>2022-05-01T10:22:52.555Z</time>
      </trkpt>
      <trkpt lat="41.13029" lon="20.40067">
        <ele>381.525831</ele>
        <time>2022-05-01T10:22:54.546Z</time>
      </trkpt>
      <trkpt lat="41.13039" lon="20.40063">
        <ele>381.442357</ele>
        <time>2022-05-01T10:22:56.547Z</time>
      </trkpt>
      <trkpt lat="41.13049" lon="20.40059">
        <ele>381.583313</ele>
        <time>2022-05-01T10:22:58.552Z</time>
      </trkpt>
      <trkpt lat="41.1306" lon="20.40055">
        <ele>381.743685</ele>
        <time>2022-05-01T10:23:00.558Z</time>
      </trkpt>
      <trkpt lat="41.13071" lon="20.4005">
        <ele>381.909035</ele>
        <time>2022-05-01T10:23:02.590Z</time>
      </trkpt>
      <trkpt lat="41.13082" lon="20.40046">
        <ele>382.079031</ele>
        <time>2022-05-01T10:23:04.545Z</time>
      </trkpt>
      <trkpt lat="41.13093" lon="20.40041">
        <ele>382.255094</ele>
        <time>2022-05-01T10:23:06.546Z</time>
      </trkpt>
      <trkpt lat="41.13105" lon="20.40036">
        <ele>382.431484</ele>
        <time>2022-05-01T10:23:08.567Z</time>
      </trkpt>
      <trkpt lat="41.13117" lon="20.40032">
        <ele>382.609682</ele>
        <time>2022-05-01T10:23:10.569Z</time>
      </trkpt>
      <trkpt lat="41.13128" lon="20.40027">
        <ele>382.785013</ele>
        <time>2022-05-01T10:23:12.536Z</time>
      </trkpt>
      <trkpt lat="41.13139" lon="20.40022">
        <ele>382.954785</ele>
        <time>2022-05-01T10:23:14.551Z</time>
      </trkpt>
      <trkpt lat="41.13149" lon="20.40018">
        <ele>383.109983</ele>
        <time>2022-05-01T10:23:16.587Z</time>
      </trkpt>
      <trkpt lat="41.13158" lon="20.40015">
        <ele>383.251127</ele>
        <time>2022-05-01T10:23:18.556Z</time>
      </trkpt>
      <trkpt lat="41.13167" lon="20.40012">
        <ele>383.383536</ele>
        <time>2022-05-01T10:23:20.549Z</time>
      </trkpt>
      <trkpt lat="41.13179" lon="20.40009">
        <ele>383.552373</ele>
        <time>2022-05-01T10:23:23.555Z</time>
      </trkpt>
      <trkpt lat="41.13188" lon="20.40006">
        <ele>383.695518</ele>
        <time>2022-05-01T10:23:26.541Z</time>
      </trkpt>
      <trkpt lat="41.13198" lon="20.40002">
        <ele>383.84238</ele>
        <time>2022-05-01T10:23:29.540Z</time>
      </trkpt>
      <trkpt lat="41.13208" lon="20.39996">
        <ele>384.00295</ele>
        <time>2022-05-01T10:23:32.531Z</time>
      </trkpt>
      <trkpt lat="41.13216" lon="20.39987">
        <ele>384.257306</ele>
        <time>2022-05-01T10:23:35.534Z</time>
      </trkpt>
      <trkpt lat="41.13224" lon="20.39977">
        <ele>384.579703</ele>
        <time>2022-05-01T10:23:38.591Z</time>
      </trkpt>
      <trkpt lat="41.13233" lon="20.39967">
        <ele>384.907232</ele>
        <time>2022-05-01T10:23:41.546Z</time>
      </trkpt>
      <trkpt lat="41.13238" lon="20.39952">
        <ele>385.272474</ele>
        <time>2022-05-01T10:23:44.543Z</time>
      </trkpt>
      <trkpt lat="41.13246" lon="20.39939">
        <ele>385.634488</ele>
        <time>2022-05-01T10:23:47.546Z</time>
      </trkpt>
      <trkpt lat="41.13255" lon="20.39927">
        <ele>386.004549</ele>
        <time>2022-05-01T10:23:50.550Z</time>
      </trkpt>
      <trkpt lat="41.13263" lon="20.39921">
        <ele>386.271296</ele>
        <time>2022-05-01T10:23:52.557Z</time>
      </trkpt>
      <trkpt lat="41.13272" lon="20.39914">
        <ele>386.562245</ele>
        <time>2022-05-01T10:23:54.555Z</time>
      </trkpt>
      <trkpt lat="41.13279" lon="20.39905">
        <ele>386.845224</ele>
        <time>2022-05-01T10:23:56.550Z</time>
      </trkpt>
      <trkpt lat="41.13286" lon="20.39896">
        <ele>387.15058</ele>
        <time>2022-05-01T10:23:58.591Z</time>
      </trkpt>
      <trkpt lat="41.13294" lon="20.39886">
        <ele>387.457494</ele>
        <time>2022-05-01T10:24:00.543Z</time>
      </trkpt>
      <trkpt lat="41.13301" lon="20.39875">
        <ele>387.776309</ele>
        <time>2022-05-01T10:24:02.547Z</time>
      </trkpt>
      <trkpt lat="41.13308" lon="20.39864">
        <ele>388.095636</ele>
        <time>2022-05-01T10:24:04.556Z</time>
      </trkpt>
      <trkpt lat="41.13315" lon="20.39853">
        <ele>388.410425</ele>
        <time>2022-05-01T10:24:06.608Z</time>
      </trkpt>
      <trkpt lat="41.13321" lon="20.3984">
        <ele>388.740834</ele>
        <time>2022-05-01T10:24:08.546Z</time>
      </trkpt>
      <trkpt lat="41.13324" lon="20.39825">
        <ele>389.072455</ele>
        <time>2022-05-01T10:24:10.562Z</time>
      </trkpt>
      <trkpt lat="41.13326" lon="20.3981">
        <ele>389.129128</ele>
        <time>2022-05-01T10:24:12.554Z</time>
      </trkpt>
      <trkpt lat="41.13329" lon="20.39795">
        <ele>388.616244</ele>
        <time>2022-05-01T10:24:14.564Z</time>
      </trkpt>
      <trkpt lat="41.13333" lon="20.39782">
        <ele>388.14143</ele>
        <time>2022-05-01T10:24:16.550Z</time>
      </trkpt>
      <trkpt lat="41.13337" lon="20.39769">
        <ele>387.654007</ele>
        <time>2022-05-01T10:24:18.557Z</time>
      </trkpt>
      <trkpt lat="41.13342" lon="20.39755">
        <ele>387.14303</ele>
        <time>2022-05-01T10:24:20.554Z</time>
      </trkpt>
      <trkpt lat="41.13347" lon="20.3974">
        <ele>386.606661</ele>
        <time>2022-05-01T10:24:22.567Z</time>
      </trkpt>
      <trkpt lat="41.13353" lon="20.39725">
        <ele>386.051867</ele>
        <time>2022-05-01T10:24:24.561Z</time>
      </trkpt>
      <trkpt lat="41.1336" lon="20.3971">
        <ele>385.453454</ele>
        <time>2022-05-01T10:24:26.549Z</time>
      </trkpt>
      <trkpt lat="41.1337" lon="20.39697">
        <ele>384.833628</ele>
        <time>2022-05-01T10:24:28.577Z</time>
      </trkpt>
      <trkpt lat="41.13382" lon="20.39685">
        <ele>384.180213</ele>
        <time>2022-05-01T10:24:30.546Z</time>
      </trkpt>
      <trkpt lat="41.13398" lon="20.39676">
        <ele>383.419655</ele>
        <time>2022-05-01T10:24:32.566Z</time>
      </trkpt>
      <trkpt lat="41.13415" lon="20.39672">
        <ele>382.661623</ele>
        <time>2022-05-01T10:24:34.539Z</time>
      </trkpt>
      <trkpt lat="41.13431" lon="20.39669">
        <ele>381.913636</ele>
        <time>2022-05-01T10:24:36.552Z</time>
      </trkpt>
      <trkpt lat="41.13448" lon="20.39666">
        <ele>381.194103</ele>
        <time>2022-05-01T10:24:38.556Z</time>
      </trkpt>
      <trkpt lat="41.13465" lon="20.39661">
        <ele>380.462904</ele>
        <time>2022-05-01T10:24:40.559Z</time>
      </trkpt>
      <trkpt lat="41.13473" lon="20.39657">
        <ele>380.080281</ele>
        <time>2022-05-01T10:24:41.557Z</time>
      </trkpt>
      <trkpt lat="41.13488" lon="20.39643">
        <ele>379.324166</ele>
        <time>2022-05-01T10:24:43.552Z</time>
      </trkpt>
      <trkpt lat="41.13495" lon="20.39635">
        <ele>378.912276</ele>
        <time>2022-05-01T10:24:44.559Z</time>
      </trkpt>
      <trkpt lat="41.13502" lon="20.39626">
        <ele>378.527664</ele>
        <time>2022-05-01T10:24:45.553Z</time>
      </trkpt>
      <trkpt lat="41.13509" lon="20.39618">
        <ele>378.125072</ele>
        <time>2022-05-01T10:24:46.551Z</time>
      </trkpt>
      <trkpt lat="41.13515" lon="20.39609">
        <ele>377.737378</ele>
        <time>2022-05-01T10:24:47.555Z</time>
      </trkpt>
      <trkpt lat="41.13522" lon="20.396">
        <ele>377.328895</ele>
        <time>2022-05-01T10:24:48.552Z</time>
      </trkpt>
      <trkpt lat="41.13529" lon="20.39592">
        <ele>376.936133</ele>
        <time>2022-05-01T10:24:49.550Z</time>
      </trkpt>
      <trkpt lat="41.13535" lon="20.39583">
        <ele>376.539634</ele>
        <time>2022-05-01T10:24:50.587Z</time>
      </trkpt>
      <trkpt lat="41.13542" lon="20.39574">
        <ele>376.139357</ele>
        <time>2022-05-01T10:24:51.544Z</time>
      </trkpt>
      <trkpt lat="41.13549" lon="20.39565">
        <ele>375.736117</ele>
        <time>2022-05-01T10:24:52.549Z</time>
      </trkpt>
      <trkpt lat="41.13556" lon="20.39556">
        <ele>375.321632</ele>
        <time>2022-05-01T10:24:53.565Z</time>
      </trkpt>
      <trkpt lat="41.13563" lon="20.39546">
        <ele>374.896641</ele>
        <time>2022-05-01T10:24:54.549Z</time>
      </trkpt>
      <trkpt lat="41.1357" lon="20.39537">
        <ele>374.474672</ele>
        <time>2022-05-01T10:24:55.558Z</time>
      </trkpt>
      <trkpt lat="41.13577" lon="20.39528">
        <ele>374.057619</ele>
        <time>2022-05-01T10:24:56.544Z</time>
      </trkpt>
      <trkpt lat="41.13583" lon="20.39518">
        <ele>373.684073</ele>
        <time>2022-05-01T10:24:57.557Z</time>
      </trkpt>
      <trkpt lat="41.13588" lon="20.39508">
        <ele>373.406576</ele>
        <time>2022-05-01T10:24:58.558Z</time>
      </trkpt>
      <trkpt lat="41.13594" lon="20.39498">
        <ele>373.12913</ele>
        <time>2022-05-01T10:24:59.552Z</time>
      </trkpt>
      <trkpt lat="41.13599" lon="20.39488">
        <ele>372.863234</ele>
        <time>2022-05-01T10:25:00.543Z</time>
      </trkpt>
      <trkpt lat="41.13607" lon="20.39468">
        <ele>372.352873</ele>
        <time>2022-05-01T10:25:02.560Z</time>
      </trkpt>
      <trkpt lat="41.13614" lon="20.39448">
        <ele>371.868758</ele>
        <time>2022-05-01T10:25:04.552Z</time>
      </trkpt>
      <trkpt lat="41.13618" lon="20.39429">
        <ele>371.422298</ele>
        <time>2022-05-01T10:25:06.541Z</time>
      </trkpt>
      <trkpt lat="41.13623" lon="20.39411">
        <ele>371.005547</ele>
        <time>2022-05-01T10:25:08.542Z</time>
      </trkpt>
      <trkpt lat="41.13627" lon="20.39393">
        <ele>370.581536</ele>
        <time>2022-05-01T10:25:10.550Z</time>
      </trkpt>
      <trkpt lat="41.1363" lon="20.39377">
        <ele>370.203596</ele>
        <time>2022-05-01T10:25:12.633Z</time>
      </trkpt>
      <trkpt lat="41.13633" lon="20.3936">
        <ele>369.836364</ele>
        <time>2022-05-01T10:25:14.550Z</time>
      </trkpt>
      <trkpt lat="41.13636" lon="20.39344">
        <ele>369.471305</ele>
        <time>2022-05-01T10:25:16.559Z</time>
      </trkpt>
      <trkpt lat="41.13638" lon="20.3933">
        <ele>369.137042</ele>
        <time>2022-05-01T10:25:18.551Z</time>
      </trkpt>
      <trkpt lat="41.1364" lon="20.39314">
        <ele>368.772737</ele>
        <time>2022-05-01T10:25:20.545Z</time>
      </trkpt>
      <trkpt lat="41.13643" lon="20.39298">
        <ele>368.410553</ele>
        <time>2022-05-01T10:25:22.563Z</time>
      </trkpt>
      <trkpt lat="41.13646" lon="20.39281">
        <ele>367.98975</ele>
        <time>2022-05-01T10:25:24.555Z</time>
      </trkpt>
      <trkpt lat="41.13649" lon="20.39263">
        <ele>367.538942</ele>
        <time>2022-05-01T10:25:26.542Z</time>
      </trkpt>
      <trkpt lat="41.13652" lon="20.39245">
        <ele>367.080338</ele>
        <time>2022-05-01T10:25:28.553Z</time>
      </trkpt>
      <trkpt lat="41.13655" lon="20.39227">
        <ele>366.633318</ele>
        <time>2022-05-01T10:25:30.557Z</time>
      </trkpt>
      <trkpt lat="41.13658" lon="20.39209">
        <ele>366.195842</ele>
        <time>2022-05-01T10:25:32.550Z</time>
      </trkpt>
      <trkpt lat="41.13661" lon="20.39191">
        <ele>365.724926</ele>
        <time>2022-05-01T10:25:34.602Z</time>
      </trkpt>
      <trkpt lat="41.13664" lon="20.3917">
        <ele>365.224008</ele>
        <time>2022-05-01T10:25:36.549Z</time>
      </trkpt>
      <trkpt lat="41.13667" lon="20.39149">
        <ele>364.693087</ele>
        <time>2022-05-01T10:25:38.555Z</time>
      </trkpt>
      <trkpt lat="41.13669" lon="20.39137">
        <ele>364.388927</ele>
        <time>2022-05-01T10:25:39.539Z</time>
      </trkpt>
      <trkpt lat="41.13671" lon="20.39125">
        <ele>364.097651</ele>
        <time>2022-05-01T10:25:40.545Z</time>
      </trkpt>
      <trkpt lat="41.13673" lon="20.39114">
        <ele>363.804735</ele>
        <time>2022-05-01T10:25:41.554Z</time>
      </trkpt>
      <trkpt lat="41.13676" lon="20.39102">
        <ele>363.503204</ele>
        <time>2022-05-01T10:25:42.561Z</time>
      </trkpt>
      <trkpt lat="41.13678" lon="20.39089">
        <ele>363.194518</ele>
        <time>2022-05-01T10:25:43.552Z</time>
      </trkpt>
      <trkpt lat="41.13681" lon="20.39078">
        <ele>362.891087</ele>
        <time>2022-05-01T10:25:44.555Z</time>
      </trkpt>
      <trkpt lat="41.13683" lon="20.39065">
        <ele>362.586472</ele>
        <time>2022-05-01T10:25:45.588Z</time>
      </trkpt>
      <trkpt lat="41.13686" lon="20.39053">
        <ele>362.332172</ele>
        <time>2022-05-01T10:25:46.546Z</time>
      </trkpt>
      <trkpt lat="41.1369" lon="20.39041">
        <ele>362.075312</ele>
        <time>2022-05-01T10:25:47.558Z</time>
      </trkpt>
      <trkpt lat="41.13693" lon="20.39029">
        <ele>361.817457</ele>
        <time>2022-05-01T10:25:48.549Z</time>
      </trkpt>
      <trkpt lat="41.13696" lon="20.39017">
        <ele>361.562461</ele>
        <time>2022-05-01T10:25:49.558Z</time>
      </trkpt>
      <trkpt lat="41.13699" lon="20.39005">
        <ele>361.318611</ele>
        <time>2022-05-01T10:25:50.558Z</time>
      </trkpt>
      <trkpt lat="41.13703" lon="20.38993">
        <ele>361.071053</ele>
        <time>2022-05-01T10:25:51.556Z</time>
      </trkpt>
      <trkpt lat="41.13706" lon="20.38982">
        <ele>360.830891</ele>
        <time>2022-05-01T10:25:52.560Z</time>
      </trkpt>
      <trkpt lat="41.13709" lon="20.3897">
        <ele>360.583259</ele>
        <time>2022-05-01T10:25:53.551Z</time>
      </trkpt>
      <trkpt lat="41.13712" lon="20.38959">
        <ele>360.339409</ele>
        <time>2022-05-01T10:25:54.568Z</time>
      </trkpt>
      <trkpt lat="41.13719" lon="20.38937">
        <ele>359.883164</ele>
        <time>2022-05-01T10:25:56.589Z</time>
      </trkpt>
      <trkpt lat="41.13724" lon="20.38916">
        <ele>359.436132</ele>
        <time>2022-05-01T10:25:58.566Z</time>
      </trkpt>
      <trkpt lat="41.13728" lon="20.38894">
        <ele>358.992751</ele>
        <time>2022-05-01T10:26:00.696Z</time>
      </trkpt>
      <trkpt lat="41.1373" lon="20.38871">
        <ele>358.524961</ele>
        <time>2022-05-01T10:26:02.585Z</time>
      </trkpt>
      <trkpt lat="41.1373" lon="20.38848">
        <ele>358.07714</ele>
        <time>2022-05-01T10:26:04.546Z</time>
      </trkpt>
      <trkpt lat="41.13729" lon="20.38826">
        <ele>357.615608</ele>
        <time>2022-05-01T10:26:06.556Z</time>
      </trkpt>
      <trkpt lat="41.13729" lon="20.38806">
        <ele>357.181955</ele>
        <time>2022-05-01T10:26:08.558Z</time>
      </trkpt>
      <trkpt lat="41.1373" lon="20.38784">
        <ele>356.710387</ele>
        <time>2022-05-01T10:26:10.567Z</time>
      </trkpt>
      <trkpt lat="41.13733" lon="20.38764">
        <ele>356.274287</ele>
        <time>2022-05-01T10:26:12.604Z</time>
      </trkpt>
      <trkpt lat="41.13735" lon="20.38746">
        <ele>355.874155</ele>
        <time>2022-05-01T10:26:14.558Z</time>
      </trkpt>
      <trkpt lat="41.13737" lon="20.3873">
        <ele>355.516957</ele>
        <time>2022-05-01T10:26:16.549Z</time>
      </trkpt>
      <trkpt lat="41.13738" lon="20.38714">
        <ele>355.177338</ele>
        <time>2022-05-01T10:26:18.547Z</time>
      </trkpt>
      <trkpt lat="41.1374" lon="20.38698">
        <ele>354.817918</ele>
        <time>2022-05-01T10:26:20.549Z</time>
      </trkpt>
      <trkpt lat="41.13739" lon="20.38682">
        <ele>354.474133</ele>
        <time>2022-05-01T10:26:22.640Z</time>
      </trkpt>
      <trkpt lat="41.13736" lon="20.38666">
        <ele>354.12253</ele>
        <time>2022-05-01T10:26:24.546Z</time>
      </trkpt>
      <trkpt lat="41.13732" lon="20.38652">
        <ele>353.787712</ele>
        <time>2022-05-01T10:26:26.550Z</time>
      </trkpt>
      <trkpt lat="41.13727" lon="20.38637">
        <ele>353.446608</ele>
        <time>2022-05-01T10:26:28.558Z</time>
      </trkpt>
      <trkpt lat="41.13721" lon="20.38624">
        <ele>353.103769</ele>
        <time>2022-05-01T10:26:30.555Z</time>
      </trkpt>
      <trkpt lat="41.13714" lon="20.3861">
        <ele>352.752693</ele>
        <time>2022-05-01T10:26:32.560Z</time>
      </trkpt>
      <trkpt lat="41.13707" lon="20.38596">
        <ele>352.354505</ele>
        <time>2022-05-01T10:26:34.586Z</time>
      </trkpt>
      <trkpt lat="41.13699" lon="20.38583">
        <ele>351.936607</ele>
        <time>2022-05-01T10:26:36.565Z</time>
      </trkpt>
      <trkpt lat="41.1369" lon="20.3857">
        <ele>351.532177</ele>
        <time>2022-05-01T10:26:38.550Z</time>
      </trkpt>
      <trkpt lat="41.1368" lon="20.3856">
        <ele>351.113402</ele>
        <time>2022-05-01T10:26:40.568Z</time>
      </trkpt>
      <trkpt lat="41.13668" lon="20.38552">
        <ele>350.687472</ele>
        <time>2022-05-01T10:26:42.557Z</time>
      </trkpt>
      <trkpt lat="41.13655" lon="20.38545">
        <ele>350.254681</ele>
        <time>2022-05-01T10:26:44.634Z</time>
      </trkpt>
      <trkpt lat="41.13642" lon="20.38538">
        <ele>349.816627</ele>
        <time>2022-05-01T10:26:46.533Z</time>
      </trkpt>
      <trkpt lat="41.13628" lon="20.38532">
        <ele>349.352653</ele>
        <time>2022-05-01T10:26:48.562Z</time>
      </trkpt>
      <trkpt lat="41.13613" lon="20.38525">
        <ele>348.85184</ele>
        <time>2022-05-01T10:26:50.554Z</time>
      </trkpt>
      <trkpt lat="41.13599" lon="20.38516">
        <ele>348.339841</ele>
        <time>2022-05-01T10:26:52.557Z</time>
      </trkpt>
      <trkpt lat="41.13584" lon="20.38506">
        <ele>347.827108</ele>
        <time>2022-05-01T10:26:54.562Z</time>
      </trkpt>
      <trkpt lat="41.13571" lon="20.38493">
        <ele>347.312087</ele>
        <time>2022-05-01T10:26:56.612Z</time>
      </trkpt>
      <trkpt lat="41.1356" lon="20.38477">
        <ele>346.755342</ele>
        <time>2022-05-01T10:26:58.569Z</time>
      </trkpt>
      <trkpt lat="41.13551" lon="20.38458">
        <ele>346.141885</ele>
        <time>2022-05-01T10:27:00.565Z</time>
      </trkpt>
      <trkpt lat="41.13544" lon="20.38438">
        <ele>345.55383</ele>
        <time>2022-05-01T10:27:02.582Z</time>
      </trkpt>
      <trkpt lat="41.1354" lon="20.38415">
        <ele>344.918953</ele>
        <time>2022-05-01T10:27:04.555Z</time>
      </trkpt>
      <trkpt lat="41.13539" lon="20.38403">
        <ele>344.574281</ele>
        <time>2022-05-01T10:27:05.559Z</time>
      </trkpt>
      <trkpt lat="41.13538" lon="20.3839">
        <ele>344.232666</ele>
        <time>2022-05-01T10:27:06.560Z</time>
      </trkpt>
      <trkpt lat="41.1354" lon="20.38367">
        <ele>343.589432</ele>
        <time>2022-05-01T10:27:08.544Z</time>
      </trkpt>
      <trkpt lat="41.13544" lon="20.38345">
        <ele>342.970355</ele>
        <time>2022-05-01T10:27:10.547Z</time>
      </trkpt>
      <trkpt lat="41.13548" lon="20.38323">
        <ele>342.361745</ele>
        <time>2022-05-01T10:27:12.571Z</time>
      </trkpt>
      <trkpt lat="41.13553" lon="20.38302">
        <ele>341.751056</ele>
        <time>2022-05-01T10:27:14.561Z</time>
      </trkpt>
      <trkpt lat="41.13559" lon="20.3828">
        <ele>341.127745</ele>
        <time>2022-05-01T10:27:16.555Z</time>
      </trkpt>
      <trkpt lat="41.13562" lon="20.38269">
        <ele>340.802304</ele>
        <time>2022-05-01T10:27:17.556Z</time>
      </trkpt>
      <trkpt lat="41.13565" lon="20.38258">
        <ele>340.471092</ele>
        <time>2022-05-01T10:27:18.560Z</time>
      </trkpt>
      <trkpt lat="41.13569" lon="20.38247">
        <ele>340.255142</ele>
        <time>2022-05-01T10:27:19.599Z</time>
      </trkpt>
      <trkpt lat="41.13579" lon="20.38227">
        <ele>339.844852</ele>
        <time>2022-05-01T10:27:21.555Z</time>
      </trkpt>
      <trkpt lat="41.1359" lon="20.3821">
        <ele>339.458476</ele>
        <time>2022-05-01T10:27:23.552Z</time>
      </trkpt>
      <trkpt lat="41.13602" lon="20.38199">
        <ele>339.139562</ele>
        <time>2022-05-01T10:27:25.538Z</time>
      </trkpt>
      <trkpt lat="41.13614" lon="20.38191">
        <ele>338.812564</ele>
        <time>2022-05-01T10:27:27.566Z</time>
      </trkpt>
      <trkpt lat="41.13629" lon="20.38184">
        <ele>338.446534</ele>
        <time>2022-05-01T10:27:29.557Z</time>
      </trkpt>
      <trkpt lat="41.13645" lon="20.38181">
        <ele>338.078532</ele>
        <time>2022-05-01T10:27:31.543Z</time>
      </trkpt>
      <trkpt lat="41.13662" lon="20.38182">
        <ele>337.696126</ele>
        <time>2022-05-01T10:27:33.552Z</time>
      </trkpt>
      <trkpt lat="41.13677" lon="20.38186">
        <ele>337.334139</ele>
        <time>2022-05-01T10:27:35.562Z</time>
      </trkpt>
      <trkpt lat="41.13691" lon="20.38193">
        <ele>336.983219</ele>
        <time>2022-05-01T10:27:37.565Z</time>
      </trkpt>
      <trkpt lat="41.13704" lon="20.38202">
        <ele>336.646449</ele>
        <time>2022-05-01T10:27:39.578Z</time>
      </trkpt>
      <trkpt lat="41.13717" lon="20.38212">
        <ele>336.323791</ele>
        <time>2022-05-01T10:27:41.551Z</time>
      </trkpt>
      <trkpt lat="41.13728" lon="20.38222">
        <ele>336.246284</ele>
        <time>2022-05-01T10:27:43.551Z</time>
      </trkpt>
      <trkpt lat="41.13736" lon="20.3823">
        <ele>336.186865</ele>
        <time>2022-05-01T10:27:45.554Z</time>
      </trkpt>
      <trkpt lat="41.13745" lon="20.38237">
        <ele>336.120683</ele>
        <time>2022-05-01T10:27:47.594Z</time>
      </trkpt>
      <trkpt lat="41.13755" lon="20.38246">
        <ele>336.048464</ele>
        <time>2022-05-01T10:27:49.533Z</time>
      </trkpt>
      <trkpt lat="41.13767" lon="20.38256">
        <ele>335.964659</ele>
        <time>2022-05-01T10:27:51.532Z</time>
      </trkpt>
      <trkpt lat="41.13778" lon="20.38266">
        <ele>335.880867</ele>
        <time>2022-05-01T10:27:53.539Z</time>
      </trkpt>
      <trkpt lat="41.13789" lon="20.38277">
        <ele>335.800767</ele>
        <time>2022-05-01T10:27:55.544Z</time>
      </trkpt>
      <trkpt lat="41.13799" lon="20.38286">
        <ele>335.727545</ele>
        <time>2022-05-01T10:27:57.559Z</time>
      </trkpt>
      <trkpt lat="41.13808" lon="20.38294">
        <ele>335.662109</ele>
        <time>2022-05-01T10:27:59.543Z</time>
      </trkpt>
      <trkpt lat="41.13817" lon="20.38301">
        <ele>335.600185</ele>
        <time>2022-05-01T10:28:01.563Z</time>
      </trkpt>
      <trkpt lat="41.13825" lon="20.38308">
        <ele>335.539489</ele>
        <time>2022-05-01T10:28:03.553Z</time>
      </trkpt>
      <trkpt lat="41.13834" lon="20.38315">
        <ele>335.480009</ele>
        <time>2022-05-01T10:28:05.546Z</time>
      </trkpt>
      <trkpt lat="41.13842" lon="20.3832">
        <ele>335.424516</ele>
        <time>2022-05-01T10:28:07.565Z</time>
      </trkpt>
      <trkpt lat="41.13851" lon="20.38325">
        <ele>335.366697</ele>
        <time>2022-05-01T10:28:09.530Z</time>
      </trkpt>
      <trkpt lat="41.1386" lon="20.38329">
        <ele>335.307504</ele>
        <time>2022-05-01T10:28:11.545Z</time>
      </trkpt>
      <trkpt lat="41.1387" lon="20.38333">
        <ele>335.248997</ele>
        <time>2022-05-01T10:28:13.622Z</time>
      </trkpt>
      <trkpt lat="41.13879" lon="20.38337">
        <ele>335.613238</ele>
        <time>2022-05-01T10:28:15.550Z</time>
      </trkpt>
      <trkpt lat="41.13888" lon="20.3834">
        <ele>336.004124</ele>
        <time>2022-05-01T10:28:17.544Z</time>
      </trkpt>
      <trkpt lat="41.13898" lon="20.38343">
        <ele>336.395011</ele>
        <time>2022-05-01T10:28:19.532Z</time>
      </trkpt>
      <trkpt lat="41.13908" lon="20.38347">
        <ele>336.808806</ele>
        <time>2022-05-01T10:28:21.540Z</time>
      </trkpt>
      <trkpt lat="41.13918" lon="20.38351">
        <ele>337.220261</ele>
        <time>2022-05-01T10:28:23.562Z</time>
      </trkpt>
      <trkpt lat="41.13928" lon="20.38354">
        <ele>337.618079</ele>
        <time>2022-05-01T10:28:25.576Z</time>
      </trkpt>
      <trkpt lat="41.13937" lon="20.38357">
        <ele>337.977938</ele>
        <time>2022-05-01T10:28:27.566Z</time>
      </trkpt>
      <trkpt lat="41.13949" lon="20.38361">
        <ele>338.491758</ele>
        <time>2022-05-01T10:28:30.547Z</time>
      </trkpt>
      <trkpt lat="41.13962" lon="20.38364">
        <ele>339.017343</ele>
        <time>2022-05-01T10:28:33.548Z</time>
      </trkpt>
      <trkpt lat="41.13975" lon="20.38367">
        <ele>339.530757</ele>
        <time>2022-05-01T10:28:36.567Z</time>
      </trkpt>
      <trkpt lat="41.13986" lon="20.3837">
        <ele>339.984995</ele>
        <time>2022-05-01T10:28:39.555Z</time>
      </trkpt>
      <trkpt lat="41.13998" lon="20.38373">
        <ele>340.438107</ele>
        <time>2022-05-01T10:28:42.560Z</time>
      </trkpt>
      <trkpt lat="41.1401" lon="20.38375">
        <ele>340.911304</ele>
        <time>2022-05-01T10:28:46.549Z</time>
      </trkpt>
      <trkpt lat="41.1402" lon="20.38378">
        <ele>341.338566</ele>
        <time>2022-05-01T10:28:50.549Z</time>
      </trkpt>
      <trkpt lat="41.14031" lon="20.38379">
        <ele>341.748072</ele>
        <time>2022-05-01T10:28:54.569Z</time>
      </trkpt>
      <trkpt lat="41.14042" lon="20.38382">
        <ele>342.184089</ele>
        <time>2022-05-01T10:28:59.537Z</time>
      </trkpt>
      <trkpt lat="41.14052" lon="20.38385">
        <ele>342.452612</ele>
        <time>2022-05-01T10:29:04.545Z</time>
      </trkpt>
      <trkpt lat="41.14062" lon="20.38387">
        <ele>342.635473</ele>
        <time>2022-05-01T10:29:09.535Z</time>
      </trkpt>
      <trkpt lat="41.14072" lon="20.38388">
        <ele>342.806428</ele>
        <time>2022-05-01T10:29:14.585Z</time>
      </trkpt>
      <trkpt lat="41.14082" lon="20.38388">
        <ele>342.983591</ele>
        <time>2022-05-01T10:29:18.548Z</time>
      </trkpt>
      <trkpt lat="41.14092" lon="20.38388">
        <ele>343.164298</ele>
        <time>2022-05-01T10:29:22.546Z</time>
      </trkpt>
      <trkpt lat="41.14102" lon="20.38387">
        <ele>343.340677</ele>
        <time>2022-05-01T10:29:26.545Z</time>
      </trkpt>
      <trkpt lat="41.14112" lon="20.38384">
        <ele>343.526672</ele>
        <time>2022-05-01T10:29:30.557Z</time>
      </trkpt>
      <trkpt lat="41.14123" lon="20.3838">
        <ele>343.724723</ele>
        <time>2022-05-01T10:29:34.567Z</time>
      </trkpt>
      <trkpt lat="41.14132" lon="20.38375">
        <ele>343.900832</ele>
        <time>2022-05-01T10:29:38.554Z</time>
      </trkpt>
      <trkpt lat="41.14141" lon="20.38369">
        <ele>344.078061</ele>
        <time>2022-05-01T10:29:42.567Z</time>
      </trkpt>
      <trkpt lat="41.14151" lon="20.38362">
        <ele>344.285844</ele>
        <time>2022-05-01T10:29:46.542Z</time>
      </trkpt>
      <trkpt lat="41.1416" lon="20.38354">
        <ele>344.466672</ele>
        <time>2022-05-01T10:29:49.543Z</time>
      </trkpt>
      <trkpt lat="41.14169" lon="20.38342">
        <ele>344.69988</ele>
        <time>2022-05-01T10:29:52.560Z</time>
      </trkpt>
      <trkpt lat="41.14176" lon="20.38331">
        <ele>344.885535</ele>
        <time>2022-05-01T10:29:54.547Z</time>
      </trkpt>
      <trkpt lat="41.14183" lon="20.38319">
        <ele>345.09016</ele>
        <time>2022-05-01T10:29:56.531Z</time>
      </trkpt>
      <trkpt lat="41.1419" lon="20.38306">
        <ele>345.304753</ele>
        <time>2022-05-01T10:29:58.573Z</time>
      </trkpt>
      <trkpt lat="41.14196" lon="20.38291">
        <ele>345.516644</ele>
        <time>2022-05-01T10:30:00.545Z</time>
      </trkpt>
      <trkpt lat="41.14203" lon="20.38276">
        <ele>345.35546</ele>
        <time>2022-05-01T10:30:02.552Z</time>
      </trkpt>
      <trkpt lat="41.14211" lon="20.38261">
        <ele>345.185912</ele>
        <time>2022-05-01T10:30:04.554Z</time>
      </trkpt>
      <trkpt lat="41.1422" lon="20.38244">
        <ele>345.006328</ele>
        <time>2022-05-01T10:30:06.543Z</time>
      </trkpt>
      <trkpt lat="41.14229" lon="20.38228">
        <ele>344.823322</ele>
        <time>2022-05-01T10:30:08.567Z</time>
      </trkpt>
      <trkpt lat="41.14239" lon="20.38211">
        <ele>344.628025</ele>
        <time>2022-05-01T10:30:10.585Z</time>
      </trkpt>
      <trkpt lat="41.14249" lon="20.38193">
        <ele>344.424054</ele>
        <time>2022-05-01T10:30:12.557Z</time>
      </trkpt>
      <trkpt lat="41.14259" lon="20.38174">
        <ele>344.219997</ele>
        <time>2022-05-01T10:30:14.548Z</time>
      </trkpt>
      <trkpt lat="41.14269" lon="20.38157">
        <ele>344.021092</ele>
        <time>2022-05-01T10:30:16.556Z</time>
      </trkpt>
      <trkpt lat="41.14278" lon="20.3814">
        <ele>343.834484</ele>
        <time>2022-05-01T10:30:18.565Z</time>
      </trkpt>
      <trkpt lat="41.14287" lon="20.38125">
        <ele>343.660153</ele>
        <time>2022-05-01T10:30:20.584Z</time>
      </trkpt>
      <trkpt lat="41.14295" lon="20.38111">
        <ele>343.498824</ele>
        <time>2022-05-01T10:30:22.548Z</time>
      </trkpt>
      <trkpt lat="41.14302" lon="20.38099">
        <ele>343.362764</ele>
        <time>2022-05-01T10:30:24.546Z</time>
      </trkpt>
      <trkpt lat="41.14309" lon="20.38089">
        <ele>343.767777</ele>
        <time>2022-05-01T10:30:26.543Z</time>
      </trkpt>
      <trkpt lat="41.14317" lon="20.38075">
        <ele>344.306415</ele>
        <time>2022-05-01T10:30:29.555Z</time>
      </trkpt>
      <trkpt lat="41.14324" lon="20.38064">
        <ele>344.751319</ele>
        <time>2022-05-01T10:30:32.559Z</time>
      </trkpt>
      <trkpt lat="41.1433" lon="20.38054">
        <ele>345.131931</ele>
        <time>2022-05-01T10:30:35.547Z</time>
      </trkpt>
      <trkpt lat="41.14336" lon="20.38044">
        <ele>345.53443</ele>
        <time>2022-05-01T10:30:39.571Z</time>
      </trkpt>
      <trkpt lat="41.14342" lon="20.38034">
        <ele>345.922581</ele>
        <time>2022-05-01T10:30:43.531Z</time>
      </trkpt>
      <trkpt lat="41.14349" lon="20.38025">
        <ele>346.292711</ele>
        <time>2022-05-01T10:30:47.586Z</time>
      </trkpt>
      <trkpt lat="41.14355" lon="20.38015">
        <ele>346.673435</ele>
        <time>2022-05-01T10:30:51.537Z</time>
      </trkpt>
      <trkpt lat="41.14361" lon="20.38005">
        <ele>347.083815</ele>
        <time>2022-05-01T10:30:56.540Z</time>
      </trkpt>
      <trkpt lat="41.14367" lon="20.37995">
        <ele>347.469427</ele>
        <time>2022-05-01T10:31:01.533Z</time>
      </trkpt>
      <trkpt lat="41.14374" lon="20.37986">
        <ele>347.849151</ele>
        <time>2022-05-01T10:31:06.550Z</time>
      </trkpt>
      <trkpt lat="41.1438" lon="20.37977">
        <ele>348.241357</ele>
        <time>2022-05-01T10:31:11.550Z</time>
      </trkpt>
      <trkpt lat="41.14387" lon="20.37966">
        <ele>348.666515</ele>
        <time>2022-05-01T10:31:16.546Z</time>
      </trkpt>
      <trkpt lat="41.14395" lon="20.37956">
        <ele>349.097628</ele>
        <time>2022-05-01T10:31:20.543Z</time>
      </trkpt>
      <trkpt lat="41.14403" lon="20.37945">
        <ele>349.5517</ele>
        <time>2022-05-01T10:31:24.549Z</time>
      </trkpt>
      <trkpt lat="41.14411" lon="20.37934">
        <ele>350.007966</ele>
        <time>2022-05-01T10:31:28.541Z</time>
      </trkpt>
      <trkpt lat="41.14417" lon="20.37925">
        <ele>350.389158</ele>
        <time>2022-05-01T10:31:31.555Z</time>
      </trkpt>
      <trkpt lat="41.14424" lon="20.37915">
        <ele>350.7733</ele>
        <time>2022-05-01T10:31:34.556Z</time>
      </trkpt>
      <trkpt lat="41.14431" lon="20.37905">
        <ele>351.141909</ele>
        <time>2022-05-01T10:31:37.561Z</time>
      </trkpt>
      <trkpt lat="41.14439" lon="20.37895">
        <ele>351.51415</ele>
        <time>2022-05-01T10:31:40.553Z</time>
      </trkpt>
      <trkpt lat="41.14446" lon="20.37886">
        <ele>351.87277</ele>
        <time>2022-05-01T10:31:43.578Z</time>
      </trkpt>
      <trkpt lat="41.14453" lon="20.37877">
        <ele>352.215967</ele>
        <time>2022-05-01T10:31:46.554Z</time>
      </trkpt>
      <trkpt lat="41.14462" lon="20.37866">
        <ele>352.639212</ele>
        <time>2022-05-01T10:31:50.560Z</time>
      </trkpt>
      <trkpt lat="41.1447" lon="20.37858">
        <ele>352.994181</ele>
        <time>2022-05-01T10:31:53.553Z</time>
      </trkpt>
      <trkpt lat="41.14478" lon="20.3785">
        <ele>353.335588</ele>
        <time>2022-05-01T10:31:56.564Z</time>
      </trkpt>
      <trkpt lat="41.14487" lon="20.37842">
        <ele>353.708438</ele>
        <time>2022-05-01T10:31:59.557Z</time>
      </trkpt>
      <trkpt lat="41.14498" lon="20.37834">
        <ele>354.154759</ele>
        <time>2022-05-01T10:32:02.558Z</time>
      </trkpt>
      <trkpt lat="41.14506" lon="20.37828">
        <ele>354.474721</ele>
        <time>2022-05-01T10:32:04.547Z</time>
      </trkpt>
      <trkpt lat="41.14514" lon="20.37822">
        <ele>354.805756</ele>
        <time>2022-05-01T10:32:06.579Z</time>
      </trkpt>
      <trkpt lat="41.14523" lon="20.37816">
        <ele>355.136791</ele>
        <time>2022-05-01T10:32:08.552Z</time>
      </trkpt>
      <trkpt lat="41.14531" lon="20.3781">
        <ele>355.462309</ele>
        <time>2022-05-01T10:32:10.560Z</time>
      </trkpt>
      <trkpt lat="41.14541" lon="20.37806">
        <ele>355.813504</ele>
        <time>2022-05-01T10:32:12.556Z</time>
      </trkpt>
      <trkpt lat="41.1455" lon="20.378">
        <ele>356.182273</ele>
        <time>2022-05-01T10:32:14.532Z</time>
      </trkpt>
      <trkpt lat="41.1456" lon="20.37793">
        <ele>356.578213</ele>
        <time>2022-05-01T10:32:16.565Z</time>
      </trkpt>
      <trkpt lat="41.1457" lon="20.37787">
        <ele>356.800443</ele>
        <time>2022-05-01T10:32:18.548Z</time>
      </trkpt>
      <trkpt lat="41.14581" lon="20.37781">
        <ele>356.211764</ele>
        <time>2022-05-01T10:32:20.548Z</time>
      </trkpt>
      <trkpt lat="41.14592" lon="20.37774">
        <ele>355.578507</ele>
        <time>2022-05-01T10:32:22.529Z</time>
      </trkpt>
      <trkpt lat="41.14604" lon="20.37766">
        <ele>354.901997</ele>
        <time>2022-05-01T10:32:24.541Z</time>
      </trkpt>
      <trkpt lat="41.14617" lon="20.37758">
        <ele>354.194521</ele>
        <time>2022-05-01T10:32:26.538Z</time>
      </trkpt>
      <trkpt lat="41.14631" lon="20.37749">
        <ele>353.39046</ele>
        <time>2022-05-01T10:32:28.571Z</time>
      </trkpt>
      <trkpt lat="41.14646" lon="20.37739">
        <ele>352.557105</ele>
        <time>2022-05-01T10:32:30.552Z</time>
      </trkpt>
      <trkpt lat="41.14661" lon="20.3773">
        <ele>351.711368</ele>
        <time>2022-05-01T10:32:32.543Z</time>
      </trkpt>
      <trkpt lat="41.14677" lon="20.3772">
        <ele>350.845808</ele>
        <time>2022-05-01T10:32:34.550Z</time>
      </trkpt>
      <trkpt lat="41.14693" lon="20.3771">
        <ele>349.974062</ele>
        <time>2022-05-01T10:32:36.551Z</time>
      </trkpt>
      <trkpt lat="41.14708" lon="20.377">
        <ele>349.10521</ele>
        <time>2022-05-01T10:32:38.563Z</time>
      </trkpt>
      <trkpt lat="41.14724" lon="20.3769">
        <ele>348.21324</ele>
        <time>2022-05-01T10:32:40.550Z</time>
      </trkpt>
      <trkpt lat="41.14732" lon="20.37684">
        <ele>347.737182</ele>
        <time>2022-05-01T10:32:41.543Z</time>
      </trkpt>
      <trkpt lat="41.14741" lon="20.37679">
        <ele>347.192067</ele>
        <time>2022-05-01T10:32:42.555Z</time>
      </trkpt>
      <trkpt lat="41.14749" lon="20.37673">
        <ele>346.645058</ele>
        <time>2022-05-01T10:32:43.555Z</time>
      </trkpt>
      <trkpt lat="41.14758" lon="20.37668">
        <ele>346.091314</ele>
        <time>2022-05-01T10:32:44.542Z</time>
      </trkpt>
      <trkpt lat="41.14767" lon="20.37662">
        <ele>345.535262</ele>
        <time>2022-05-01T10:32:45.594Z</time>
      </trkpt>
      <trkpt lat="41.14775" lon="20.37657">
        <ele>344.972088</ele>
        <time>2022-05-01T10:32:46.536Z</time>
      </trkpt>
      <trkpt lat="41.14784" lon="20.37651">
        <ele>344.41008</ele>
        <time>2022-05-01T10:32:47.540Z</time>
      </trkpt>
      <trkpt lat="41.14792" lon="20.37644">
        <ele>343.842637</ele>
        <time>2022-05-01T10:32:48.542Z</time>
      </trkpt>
      <trkpt lat="41.14801" lon="20.37637">
        <ele>343.280715</ele>
        <time>2022-05-01T10:32:49.542Z</time>
      </trkpt>
      <trkpt lat="41.14809" lon="20.3763">
        <ele>342.714403</ele>
        <time>2022-05-01T10:32:50.546Z</time>
      </trkpt>
      <trkpt lat="41.14817" lon="20.37622">
        <ele>342.121433</ele>
        <time>2022-05-01T10:32:51.592Z</time>
      </trkpt>
      <trkpt lat="41.14826" lon="20.37615">
        <ele>341.525956</ele>
        <time>2022-05-01T10:32:52.574Z</time>
      </trkpt>
      <trkpt lat="41.14834" lon="20.37607">
        <ele>340.935471</ele>
        <time>2022-05-01T10:32:53.536Z</time>
      </trkpt>
      <trkpt lat="41.14843" lon="20.37599">
        <ele>340.315746</ele>
        <time>2022-05-01T10:32:54.555Z</time>
      </trkpt>
      <trkpt lat="41.14851" lon="20.3759">
        <ele>339.69347</ele>
        <time>2022-05-01T10:32:55.558Z</time>
      </trkpt>
      <trkpt lat="41.1486" lon="20.37582">
        <ele>339.059265</ele>
        <time>2022-05-01T10:32:56.542Z</time>
      </trkpt>
      <trkpt lat="41.14869" lon="20.37573">
        <ele>338.436989</ele>
        <time>2022-05-01T10:32:57.559Z</time>
      </trkpt>
      <trkpt lat="41.14878" lon="20.37565">
        <ele>337.817265</ele>
        <time>2022-05-01T10:32:58.554Z</time>
      </trkpt>
      <trkpt lat="41.14886" lon="20.37557">
        <ele>337.341001</ele>
        <time>2022-05-01T10:32:59.537Z</time>
      </trkpt>
      <trkpt lat="41.14895" lon="20.37549">
        <ele>337.103487</ele>
        <time>2022-05-01T10:33:00.536Z</time>
      </trkpt>
      <trkpt lat="41.14904" lon="20.3754">
        <ele>336.865859</ele>
        <time>2022-05-01T10:33:01.567Z</time>
      </trkpt>
      <trkpt lat="41.14912" lon="20.37533">
        <ele>336.63484</ele>
        <time>2022-05-01T10:33:02.538Z</time>
      </trkpt>
      <trkpt lat="41.14921" lon="20.37524">
        <ele>336.399011</ele>
        <time>2022-05-01T10:33:03.547Z</time>
      </trkpt>
      <trkpt lat="41.14929" lon="20.37516">
        <ele>336.166756</ele>
        <time>2022-05-01T10:33:04.540Z</time>
      </trkpt>
      <trkpt lat="41.14938" lon="20.37508">
        <ele>335.933837</ele>
        <time>2022-05-01T10:33:05.546Z</time>
      </trkpt>
      <trkpt lat="41.14947" lon="20.37501">
        <ele>335.70652</ele>
        <time>2022-05-01T10:33:06.547Z</time>
      </trkpt>
      <trkpt lat="41.14955" lon="20.37493">
        <ele>335.479123</ele>
        <time>2022-05-01T10:33:07.548Z</time>
      </trkpt>
      <trkpt lat="41.14964" lon="20.37487">
        <ele>335.258143</ele>
        <time>2022-05-01T10:33:08.543Z</time>
      </trkpt>
      <trkpt lat="41.14973" lon="20.37482">
        <ele>335.047856</ele>
        <time>2022-05-01T10:33:09.550Z</time>
      </trkpt>
      <trkpt lat="41.14981" lon="20.37478">
        <ele>334.843074</ele>
        <time>2022-05-01T10:33:10.566Z</time>
      </trkpt>
      <trkpt lat="41.1499" lon="20.37475">
        <ele>334.639771</ele>
        <time>2022-05-01T10:33:11.539Z</time>
      </trkpt>
      <trkpt lat="41.15008" lon="20.37471">
        <ele>334.245575</ele>
        <time>2022-05-01T10:33:13.584Z</time>
      </trkpt>
      <trkpt lat="41.15025" lon="20.37467">
        <ele>333.860068</ele>
        <time>2022-05-01T10:33:15.554Z</time>
      </trkpt>
      <trkpt lat="41.15041" lon="20.37464">
        <ele>333.493791</ele>
        <time>2022-05-01T10:33:17.546Z</time>
      </trkpt>
      <trkpt lat="41.15057" lon="20.3746">
        <ele>333.371985</ele>
        <time>2022-05-01T10:33:19.552Z</time>
      </trkpt>
      <trkpt lat="41.15072" lon="20.37456">
        <ele>333.303117</ele>
        <time>2022-05-01T10:33:21.550Z</time>
      </trkpt>
      <trkpt lat="41.15085" lon="20.37451">
        <ele>333.239591</ele>
        <time>2022-05-01T10:33:23.550Z</time>
      </trkpt>
      <trkpt lat="41.15099" lon="20.37445">
        <ele>333.17643</ele>
        <time>2022-05-01T10:33:25.558Z</time>
      </trkpt>
      <trkpt lat="41.15111" lon="20.37439">
        <ele>333.114547</ele>
        <time>2022-05-01T10:33:27.565Z</time>
      </trkpt>
      <trkpt lat="41.15123" lon="20.37433">
        <ele>333.056503</ele>
        <time>2022-05-01T10:33:29.535Z</time>
      </trkpt>
      <trkpt lat="41.15135" lon="20.37427">
        <ele>332.999603</ele>
        <time>2022-05-01T10:33:31.548Z</time>
      </trkpt>
      <trkpt lat="41.15146" lon="20.3742">
        <ele>332.944948</ele>
        <time>2022-05-01T10:33:33.561Z</time>
      </trkpt>
      <trkpt lat="41.15156" lon="20.37413">
        <ele>332.892198</ele>
        <time>2022-05-01T10:33:35.534Z</time>
      </trkpt>
      <trkpt lat="41.15166" lon="20.37406">
        <ele>332.841798</ele>
        <time>2022-05-01T10:33:37.556Z</time>
      </trkpt>
      <trkpt lat="41.15175" lon="20.37398">
        <ele>332.791188</ele>
        <time>2022-05-01T10:33:39.563Z</time>
      </trkpt>
      <trkpt lat="41.15184" lon="20.37389">
        <ele>332.742406</ele>
        <time>2022-05-01T10:33:41.530Z</time>
      </trkpt>
      <trkpt lat="41.15191" lon="20.37382">
        <ele>332.699569</ele>
        <time>2022-05-01T10:33:43.569Z</time>
      </trkpt>
      <trkpt lat="41.15199" lon="20.37373">
        <ele>332.651414</ele>
        <time>2022-05-01T10:33:45.553Z</time>
      </trkpt>
      <trkpt lat="41.15207" lon="20.37364">
        <ele>332.590235</ele>
        <time>2022-05-01T10:33:47.569Z</time>
      </trkpt>
      <trkpt lat="41.15214" lon="20.37354">
        <ele>332.477537</ele>
        <time>2022-05-01T10:33:49.559Z</time>
      </trkpt>
      <trkpt lat="41.15222" lon="20.37343">
        <ele>332.357042</ele>
        <time>2022-05-01T10:33:51.543Z</time>
      </trkpt>
      <trkpt lat="41.15229" lon="20.37331">
        <ele>332.228354</ele>
        <time>2022-05-01T10:33:53.549Z</time>
      </trkpt>
      <trkpt lat="41.15236" lon="20.37318">
        <ele>332.09044</ele>
        <time>2022-05-01T10:33:55.563Z</time>
      </trkpt>
      <trkpt lat="41.15244" lon="20.37303">
        <ele>331.938642</ele>
        <time>2022-05-01T10:33:57.559Z</time>
      </trkpt>
      <trkpt lat="41.15253" lon="20.37287">
        <ele>331.780137</ele>
        <time>2022-05-01T10:33:59.537Z</time>
      </trkpt>
      <trkpt lat="41.15262" lon="20.37269">
        <ele>331.601122</ele>
        <time>2022-05-01T10:34:01.578Z</time>
      </trkpt>
      <trkpt lat="41.15271" lon="20.3725">
        <ele>331.409971</ele>
        <time>2022-05-01T10:34:03.559Z</time>
      </trkpt>
      <trkpt lat="41.15281" lon="20.37229">
        <ele>331.214972</ele>
        <time>2022-05-01T10:34:05.571Z</time>
      </trkpt>
      <trkpt lat="41.15284" lon="20.37218">
        <ele>331.114544</ele>
        <time>2022-05-01T10:34:06.561Z</time>
      </trkpt>
      <trkpt lat="41.15288" lon="20.37207">
        <ele>331.014862</ele>
        <time>2022-05-01T10:34:07.536Z</time>
      </trkpt>
      <trkpt lat="41.15292" lon="20.37196">
        <ele>330.913839</ele>
        <time>2022-05-01T10:34:08.531Z</time>
      </trkpt>
      <trkpt lat="41.15296" lon="20.37185">
        <ele>330.807244</ele>
        <time>2022-05-01T10:34:09.558Z</time>
      </trkpt>
      <trkpt lat="41.153" lon="20.37173">
        <ele>330.6999</ele>
        <time>2022-05-01T10:34:10.548Z</time>
      </trkpt>
      <trkpt lat="41.15304" lon="20.3716">
        <ele>330.532393</ele>
        <time>2022-05-01T10:34:11.536Z</time>
      </trkpt>
      <trkpt lat="41.15308" lon="20.37147">
        <ele>330.302278</ele>
        <time>2022-05-01T10:34:12.557Z</time>
      </trkpt>
      <trkpt lat="41.15311" lon="20.37133">
        <ele>330.065424</ele>
        <time>2022-05-01T10:34:13.540Z</time>
      </trkpt>
      <trkpt lat="41.15313" lon="20.37119">
        <ele>329.831356</ele>
        <time>2022-05-01T10:34:14.535Z</time>
      </trkpt>
      <trkpt lat="41.15315" lon="20.37106">
        <ele>329.604181</ele>
        <time>2022-05-01T10:34:15.580Z</time>
      </trkpt>
      <trkpt lat="41.15318" lon="20.37093">
        <ele>329.390627</ele>
        <time>2022-05-01T10:34:16.548Z</time>
      </trkpt>
      <trkpt lat="41.15322" lon="20.3708">
        <ele>329.162051</ele>
        <time>2022-05-01T10:34:17.544Z</time>
      </trkpt>
      <trkpt lat="41.15327" lon="20.37069">
        <ele>328.952949</ele>
        <time>2022-05-01T10:34:18.630Z</time>
      </trkpt>
      <trkpt lat="41.15339" lon="20.37051">
        <ele>328.554183</ele>
        <time>2022-05-01T10:34:20.545Z</time>
      </trkpt>
      <trkpt lat="41.15345" lon="20.37041">
        <ele>328.348654</ele>
        <time>2022-05-01T10:34:21.588Z</time>
      </trkpt>
      <trkpt lat="41.1535" lon="20.37032">
        <ele>328.152884</ele>
        <time>2022-05-01T10:34:22.561Z</time>
      </trkpt>
      <trkpt lat="41.15359" lon="20.37013">
        <ele>327.795037</ele>
        <time>2022-05-01T10:34:24.552Z</time>
      </trkpt>
      <trkpt lat="41.15365" lon="20.36994">
        <ele>327.452387</ele>
        <time>2022-05-01T10:34:26.574Z</time>
      </trkpt>
      <trkpt lat="41.15369" lon="20.36979">
        <ele>327.192211</ele>
        <time>2022-05-01T10:34:28.541Z</time>
      </trkpt>
      <trkpt lat="41.1537" lon="20.36966">
        <ele>326.967094</ele>
        <time>2022-05-01T10:34:30.567Z</time>
      </trkpt>
      <trkpt lat="41.15371" lon="20.36952">
        <ele>326.743034</ele>
        <time>2022-05-01T10:34:32.548Z</time>
      </trkpt>
      <trkpt lat="41.15369" lon="20.36935">
        <ele>326.898532</ele>
        <time>2022-05-01T10:34:35.566Z</time>
      </trkpt>
      <trkpt lat="41.15367" lon="20.36923">
        <ele>327.051014</ele>
        <time>2022-05-01T10:34:37.593Z</time>
      </trkpt>
      <trkpt lat="41.15364" lon="20.36911">
        <ele>327.202553</ele>
        <time>2022-05-01T10:34:39.559Z</time>
      </trkpt>
      <trkpt lat="41.1536" lon="20.36898">
        <ele>327.362551</ele>
        <time>2022-05-01T10:34:41.563Z</time>
      </trkpt>
      <trkpt lat="41.15355" lon="20.36886">
        <ele>327.529288</ele>
        <time>2022-05-01T10:34:43.547Z</time>
      </trkpt>
      <trkpt lat="41.15351" lon="20.36875">
        <ele>327.68768</ele>
        <time>2022-05-01T10:34:45.534Z</time>
      </trkpt>
      <trkpt lat="41.15345" lon="20.36862">
        <ele>327.858344</ele>
        <time>2022-05-01T10:34:47.566Z</time>
      </trkpt>
      <trkpt lat="41.1534" lon="20.36849">
        <ele>328.035552</ele>
        <time>2022-05-01T10:34:49.559Z</time>
      </trkpt>
      <trkpt lat="41.15335" lon="20.36837">
        <ele>328.211493</ele>
        <time>2022-05-01T10:34:51.545Z</time>
      </trkpt>
      <trkpt lat="41.1533" lon="20.36824">
        <ele>328.381778</ele>
        <time>2022-05-01T10:34:53.559Z</time>
      </trkpt>
      <trkpt lat="41.15326" lon="20.3681">
        <ele>328.559139</ele>
        <time>2022-05-01T10:34:55.549Z</time>
      </trkpt>
      <trkpt lat="41.15322" lon="20.36796">
        <ele>328.734701</ele>
        <time>2022-05-01T10:34:57.583Z</time>
      </trkpt>
      <trkpt lat="41.15318" lon="20.36782">
        <ele>328.921514</ele>
        <time>2022-05-01T10:34:59.625Z</time>
      </trkpt>
      <trkpt lat="41.15315" lon="20.36767">
        <ele>329.110058</ele>
        <time>2022-05-01T10:35:01.553Z</time>
      </trkpt>
      <trkpt lat="41.15312" lon="20.36753">
        <ele>329.284159</ele>
        <time>2022-05-01T10:35:03.544Z</time>
      </trkpt>
      <trkpt lat="41.15309" lon="20.36739">
        <ele>329.462851</ele>
        <time>2022-05-01T10:35:05.543Z</time>
      </trkpt>
      <trkpt lat="41.15307" lon="20.36724">
        <ele>329.682175</ele>
        <time>2022-05-01T10:35:07.568Z</time>
      </trkpt>
      <trkpt lat="41.15304" lon="20.36712">
        <ele>329.980637</ele>
        <time>2022-05-01T10:35:09.550Z</time>
      </trkpt>
      <trkpt lat="41.15301" lon="20.36698">
        <ele>330.313153</ele>
        <time>2022-05-01T10:35:11.555Z</time>
      </trkpt>
      <trkpt lat="41.15298" lon="20.36684">
        <ele>330.637518</ele>
        <time>2022-05-01T10:35:13.554Z</time>
      </trkpt>
      <trkpt lat="41.15295" lon="20.3667">
        <ele>330.964086</ele>
        <time>2022-05-01T10:35:15.562Z</time>
      </trkpt>
      <trkpt lat="41.15293" lon="20.36658">
        <ele>331.251689</ele>
        <time>2022-05-01T10:35:17.556Z</time>
      </trkpt>
      <trkpt lat="41.1529" lon="20.36646">
        <ele>331.527902</ele>
        <time>2022-05-01T10:35:19.545Z</time>
      </trkpt>
      <trkpt lat="41.15288" lon="20.36634">
        <ele>331.811151</ele>
        <time>2022-05-01T10:35:21.548Z</time>
      </trkpt>
      <trkpt lat="41.15285" lon="20.36623">
        <ele>332.083454</ele>
        <time>2022-05-01T10:35:23.543Z</time>
      </trkpt>
      <trkpt lat="41.15283" lon="20.36611">
        <ele>332.36232</ele>
        <time>2022-05-01T10:35:25.538Z</time>
      </trkpt>
      <trkpt lat="41.1528" lon="20.36599">
        <ele>332.640708</ele>
        <time>2022-05-01T10:35:27.578Z</time>
      </trkpt>
      <trkpt lat="41.15276" lon="20.36583">
        <ele>333.024236</ele>
        <time>2022-05-01T10:35:30.565Z</time>
      </trkpt>
      <trkpt lat="41.15272" lon="20.36567">
        <ele>333.420743</ele>
        <time>2022-05-01T10:35:33.591Z</time>
      </trkpt>
      <trkpt lat="41.15268" lon="20.36555">
        <ele>333.706444</ele>
        <time>2022-05-01T10:35:35.547Z</time>
      </trkpt>
      <trkpt lat="41.15265" lon="20.36539">
        <ele>334.094231</ele>
        <time>2022-05-01T10:35:38.549Z</time>
      </trkpt>
      <trkpt lat="41.15263" lon="20.36527">
        <ele>334.368743</ele>
        <time>2022-05-01T10:35:40.563Z</time>
      </trkpt>
      <trkpt lat="41.15262" lon="20.36513">
        <ele>334.682875</ele>
        <time>2022-05-01T10:35:42.558Z</time>
      </trkpt>
      <trkpt lat="41.15261" lon="20.36499">
        <ele>335.015237</ele>
        <time>2022-05-01T10:35:44.541Z</time>
      </trkpt>
      <trkpt lat="41.15262" lon="20.36484">
        <ele>334.734849</ele>
        <time>2022-05-01T10:35:46.552Z</time>
      </trkpt>
      <trkpt lat="41.15264" lon="20.36469">
        <ele>334.434341</ele>
        <time>2022-05-01T10:35:48.538Z</time>
      </trkpt>
      <trkpt lat="41.15267" lon="20.36454">
        <ele>334.143729</ele>
        <time>2022-05-01T10:35:50.543Z</time>
      </trkpt>
      <trkpt lat="41.15271" lon="20.36439">
        <ele>333.837175</ele>
        <time>2022-05-01T10:35:52.542Z</time>
      </trkpt>
      <trkpt lat="41.15276" lon="20.36425">
        <ele>333.531451</ele>
        <time>2022-05-01T10:35:54.554Z</time>
      </trkpt>
      <trkpt lat="41.15282" lon="20.36412">
        <ele>333.239755</ele>
        <time>2022-05-01T10:35:56.564Z</time>
      </trkpt>
      <trkpt lat="41.1529" lon="20.364">
        <ele>332.934536</ele>
        <time>2022-05-01T10:35:58.554Z</time>
      </trkpt>
      <trkpt lat="41.15299" lon="20.36388">
        <ele>332.613098</ele>
        <time>2022-05-01T10:36:00.559Z</time>
      </trkpt>
      <trkpt lat="41.15308" lon="20.36378">
        <ele>332.290538</ele>
        <time>2022-05-01T10:36:02.536Z</time>
      </trkpt>
      <trkpt lat="41.15318" lon="20.36366">
        <ele>331.952609</ele>
        <time>2022-05-01T10:36:04.545Z</time>
      </trkpt>
      <trkpt lat="41.15328" lon="20.36356">
        <ele>331.624855</ele>
        <time>2022-05-01T10:36:06.534Z</time>
      </trkpt>
      <trkpt lat="41.15339" lon="20.36345">
        <ele>331.2766</ele>
        <time>2022-05-01T10:36:08.543Z</time>
      </trkpt>
      <trkpt lat="41.1535" lon="20.36333">
        <ele>330.907262</ele>
        <time>2022-05-01T10:36:10.544Z</time>
      </trkpt>
      <trkpt lat="41.15361" lon="20.36322">
        <ele>330.549343</ele>
        <time>2022-05-01T10:36:12.613Z</time>
      </trkpt>
      <trkpt lat="41.15372" lon="20.36311">
        <ele>330.195419</ele>
        <time>2022-05-01T10:36:14.554Z</time>
      </trkpt>
      <trkpt lat="41.15383" lon="20.363">
        <ele>329.827883</ele>
        <time>2022-05-01T10:36:16.580Z</time>
      </trkpt>
      <trkpt lat="41.15395" lon="20.36289">
        <ele>329.462301</ele>
        <time>2022-05-01T10:36:18.568Z</time>
      </trkpt>
      <trkpt lat="41.15406" lon="20.36277">
        <ele>329.089745</ele>
        <time>2022-05-01T10:36:20.557Z</time>
      </trkpt>
      <trkpt lat="41.15418" lon="20.36265">
        <ele>328.704662</ele>
        <time>2022-05-01T10:36:22.577Z</time>
      </trkpt>
      <trkpt lat="41.15429" lon="20.36252">
        <ele>328.323503</ele>
        <time>2022-05-01T10:36:24.620Z</time>
      </trkpt>
      <trkpt lat="41.15439" lon="20.36239">
        <ele>327.935983</ele>
        <time>2022-05-01T10:36:26.586Z</time>
      </trkpt>
      <trkpt lat="41.15449" lon="20.36224">
        <ele>327.559378</ele>
        <time>2022-05-01T10:36:28.531Z</time>
      </trkpt>
      <trkpt lat="41.15458" lon="20.36208">
        <ele>327.166786</ele>
        <time>2022-05-01T10:36:30.551Z</time>
      </trkpt>
      <trkpt lat="41.15467" lon="20.3619">
        <ele>326.746766</ele>
        <time>2022-05-01T10:36:32.557Z</time>
      </trkpt>
      <trkpt lat="41.15475" lon="20.36171">
        <ele>326.30555</ele>
        <time>2022-05-01T10:36:34.563Z</time>
      </trkpt>
      <trkpt lat="41.1548" lon="20.3616">
        <ele>326.067617</ele>
        <time>2022-05-01T10:36:35.593Z</time>
      </trkpt>
      <trkpt lat="41.15484" lon="20.36149">
        <ele>325.818073</ele>
        <time>2022-05-01T10:36:36.538Z</time>
      </trkpt>
      <trkpt lat="41.15488" lon="20.36138">
        <ele>325.582135</ele>
        <time>2022-05-01T10:36:37.566Z</time>
      </trkpt>
      <trkpt lat="41.15493" lon="20.36127">
        <ele>325.363945</ele>
        <time>2022-05-01T10:36:38.573Z</time>
      </trkpt>
      <trkpt lat="41.15497" lon="20.36116">
        <ele>325.143057</ele>
        <time>2022-05-01T10:36:39.546Z</time>
      </trkpt>
      <trkpt lat="41.155" lon="20.36105">
        <ele>324.925501</ele>
        <time>2022-05-01T10:36:40.547Z</time>
      </trkpt>
      <trkpt lat="41.15503" lon="20.36093">
        <ele>324.707807</ele>
        <time>2022-05-01T10:36:41.579Z</time>
      </trkpt>
      <trkpt lat="41.15506" lon="20.36082">
        <ele>324.492566</ele>
        <time>2022-05-01T10:36:42.549Z</time>
      </trkpt>
      <trkpt lat="41.1551" lon="20.3606">
        <ele>324.08401</ele>
        <time>2022-05-01T10:36:44.532Z</time>
      </trkpt>
      <trkpt lat="41.15513" lon="20.36039">
        <ele>323.699011</ele>
        <time>2022-05-01T10:36:46.546Z</time>
      </trkpt>
      <trkpt lat="41.15515" lon="20.36019">
        <ele>323.335387</ele>
        <time>2022-05-01T10:36:48.591Z</time>
      </trkpt>
      <trkpt lat="41.15517" lon="20.36">
        <ele>322.992105</ele>
        <time>2022-05-01T10:36:50.534Z</time>
      </trkpt>
      <trkpt lat="41.15519" lon="20.35982">
        <ele>322.65959</ele>
        <time>2022-05-01T10:36:52.513Z</time>
      </trkpt>
      <trkpt lat="41.15523" lon="20.35965">
        <ele>322.348841</ele>
        <time>2022-05-01T10:36:54.541Z</time>
      </trkpt>
      <trkpt lat="41.15528" lon="20.3595">
        <ele>322.060521</ele>
        <time>2022-05-01T10:36:56.548Z</time>
      </trkpt>
      <trkpt lat="41.15533" lon="20.35936">
        <ele>321.774377</ele>
        <time>2022-05-01T10:36:58.577Z</time>
      </trkpt>
      <trkpt lat="41.1554" lon="20.35924">
        <ele>321.507658</ele>
        <time>2022-05-01T10:37:00.546Z</time>
      </trkpt>
      <trkpt lat="41.15547" lon="20.35914">
        <ele>321.410986</ele>
        <time>2022-05-01T10:37:02.536Z</time>
      </trkpt>
      <trkpt lat="41.15555" lon="20.35905">
        <ele>321.418726</ele>
        <time>2022-05-01T10:37:04.546Z</time>
      </trkpt>
      <trkpt lat="41.15564" lon="20.35896">
        <ele>321.426537</ele>
        <time>2022-05-01T10:37:06.534Z</time>
      </trkpt>
      <trkpt lat="41.15573" lon="20.35889">
        <ele>321.434403</ele>
        <time>2022-05-01T10:37:08.540Z</time>
      </trkpt>
      <trkpt lat="41.15582" lon="20.35882">
        <ele>321.441792</ele>
        <time>2022-05-01T10:37:10.532Z</time>
      </trkpt>
      <trkpt lat="41.1559" lon="20.35875">
        <ele>321.448907</ele>
        <time>2022-05-01T10:37:12.550Z</time>
      </trkpt>
      <trkpt lat="41.15599" lon="20.35868">
        <ele>321.456528</ele>
        <time>2022-05-01T10:37:14.582Z</time>
      </trkpt>
      <trkpt lat="41.15608" lon="20.35862">
        <ele>321.464277</ele>
        <time>2022-05-01T10:37:16.580Z</time>
      </trkpt>
      <trkpt lat="41.15618" lon="20.35858">
        <ele>321.471634</ele>
        <time>2022-05-01T10:37:18.546Z</time>
      </trkpt>
      <trkpt lat="41.1563" lon="20.35853">
        <ele>321.481172</ele>
        <time>2022-05-01T10:37:21.563Z</time>
      </trkpt>
      <trkpt lat="41.15641" lon="20.35849">
        <ele>321.489581</ele>
        <time>2022-05-01T10:37:24.556Z</time>
      </trkpt>
      <trkpt lat="41.15651" lon="20.35845">
        <ele>321.497081</ele>
        <time>2022-05-01T10:37:27.563Z</time>
      </trkpt>
      <trkpt lat="41.15661" lon="20.35842">
        <ele>321.504168</ele>
        <time>2022-05-01T10:37:30.559Z</time>
      </trkpt>
      <trkpt lat="41.1567" lon="20.35839">
        <ele>321.511045</ele>
        <time>2022-05-01T10:37:33.548Z</time>
      </trkpt>
      <trkpt lat="41.1568" lon="20.35836">
        <ele>321.518615</ele>
        <time>2022-05-01T10:37:36.557Z</time>
      </trkpt>
      <trkpt lat="41.15689" lon="20.35833">
        <ele>321.525732</ele>
        <time>2022-05-01T10:37:39.554Z</time>
      </trkpt>
      <trkpt lat="41.15699" lon="20.35829">
        <ele>321.533643</ele>
        <time>2022-05-01T10:37:43.543Z</time>
      </trkpt>
      <trkpt lat="41.1571" lon="20.35825">
        <ele>321.839571</ele>
        <time>2022-05-01T10:37:47.546Z</time>
      </trkpt>
      <trkpt lat="41.15721" lon="20.35821">
        <ele>322.545512</ele>
        <time>2022-05-01T10:37:51.565Z</time>
      </trkpt>
      <trkpt lat="41.15732" lon="20.35818">
        <ele>323.237334</ele>
        <time>2022-05-01T10:37:55.587Z</time>
      </trkpt>
      <trkpt lat="41.15743" lon="20.35814">
        <ele>323.949274</ele>
        <time>2022-05-01T10:37:59.555Z</time>
      </trkpt>
      <trkpt lat="41.15752" lon="20.35811">
        <ele>324.52658</ele>
        <time>2022-05-01T10:38:02.549Z</time>
      </trkpt>
      <trkpt lat="41.15761" lon="20.35808">
        <ele>325.101494</ele>
        <time>2022-05-01T10:38:05.556Z</time>
      </trkpt>
      <trkpt lat="41.15771" lon="20.35805">
        <ele>325.752699</ele>
        <time>2022-05-01T10:38:10.557Z</time>
      </trkpt>
      <trkpt lat="41.1578" lon="20.35801">
        <ele>326.382049</ele>
        <time>2022-05-01T10:38:15.554Z</time>
      </trkpt>
      <trkpt lat="41.1579" lon="20.35798">
        <ele>326.989628</ele>
        <time>2022-05-01T10:38:20.549Z</time>
      </trkpt>
      <trkpt lat="41.158" lon="20.35795">
        <ele>327.661373</ele>
        <time>2022-05-01T10:38:26.550Z</time>
      </trkpt>
      <trkpt lat="41.1581" lon="20.35791">
        <ele>328.275019</ele>
        <time>2022-05-01T10:38:31.540Z</time>
      </trkpt>
      <trkpt lat="41.15819" lon="20.35789">
        <ele>328.848864</ele>
        <time>2022-05-01T10:38:36.549Z</time>
      </trkpt>
      <trkpt lat="41.15828" lon="20.35787">
        <ele>329.450046</ele>
        <time>2022-05-01T10:38:42.590Z</time>
      </trkpt>
      <trkpt lat="41.15838" lon="20.35785">
        <ele>330.079636</ele>
        <time>2022-05-01T10:38:49.552Z</time>
      </trkpt>
      <trkpt lat="41.15847" lon="20.35784">
        <ele>330.659992</ele>
        <time>2022-05-01T10:38:55.549Z</time>
      </trkpt>
      <trkpt lat="41.15858" lon="20.35783">
        <ele>331.344091</ele>
        <time>2022-05-01T10:39:02.579Z</time>
      </trkpt>
      <trkpt lat="41.15868" lon="20.35783">
        <ele>331.951448</ele>
        <time>2022-05-01T10:39:08.558Z</time>
      </trkpt>
      <trkpt lat="41.15878" lon="20.35782">
        <ele>332.565337</ele>
        <time>2022-05-01T10:39:16.529Z</time>
      </trkpt>
      <trkpt lat="41.15887" lon="20.35782">
        <ele>333.320171</ele>
        <time>2022-05-01T10:39:23.535Z</time>
      </trkpt>
      <trkpt lat="41.15896" lon="20.3578">
        <ele>334.131658</ele>
        <time>2022-05-01T10:39:31.560Z</time>
      </trkpt>
      <trkpt lat="41.15906" lon="20.35779">
        <ele>335.028259</ele>
        <time>2022-05-01T10:39:40.550Z</time>
      </trkpt>
      <trkpt lat="41.15915" lon="20.35779">
        <ele>335.868803</ele>
        <time>2022-05-01T10:39:47.578Z</time>
      </trkpt>
      <trkpt lat="41.15925" lon="20.35778">
        <ele>336.728139</ele>
        <time>2022-05-01T10:39:54.563Z</time>
      </trkpt>
      <trkpt lat="41.15934" lon="20.35778">
        <ele>337.579212</ele>
        <time>2022-05-01T10:40:00.547Z</time>
      </trkpt>
      <trkpt lat="41.15944" lon="20.35777">
        <ele>338.438549</ele>
        <time>2022-05-01T10:40:07.550Z</time>
      </trkpt>
      <trkpt lat="41.15954" lon="20.35776">
        <ele>339.343014</ele>
        <time>2022-05-01T10:40:13.558Z</time>
      </trkpt>
      <trkpt lat="41.15963" lon="20.35776">
        <ele>340.165942</ele>
        <time>2022-05-01T10:40:21.553Z</time>
      </trkpt>
      <trkpt lat="41.15973" lon="20.35776">
        <ele>341.05152</ele>
        <time>2022-05-01T10:40:29.550Z</time>
      </trkpt>
      <trkpt lat="41.15982" lon="20.35775">
        <ele>341.91056</ele>
        <time>2022-05-01T10:40:36.538Z</time>
      </trkpt>
      <trkpt lat="41.15991" lon="20.35775">
        <ele>342.741932</ele>
        <time>2022-05-01T10:40:43.555Z</time>
      </trkpt>
      <trkpt lat="41.16002" lon="20.35774">
        <ele>343.738643</ele>
        <time>2022-05-01T10:40:50.545Z</time>
      </trkpt>
      <trkpt lat="41.16012" lon="20.35773">
        <ele>344.636868</ele>
        <time>2022-05-01T10:40:57.553Z</time>
      </trkpt>
      <trkpt lat="41.16022" lon="20.35771">
        <ele>345.536058</ele>
        <time>2022-05-01T10:41:04.550Z</time>
      </trkpt>
      <trkpt lat="41.16031" lon="20.35768">
        <ele>346.377878</ele>
        <time>2022-05-01T10:41:11.543Z</time>
      </trkpt>
      <trkpt lat="41.16041" lon="20.35764">
        <ele>347.270495</ele>
        <time>2022-05-01T10:41:19.540Z</time>
      </trkpt>
      <trkpt lat="41.1605" lon="20.35757">
        <ele>348.199391</ele>
        <time>2022-05-01T10:41:26.538Z</time>
      </trkpt>
      <trkpt lat="41.16059" lon="20.35752">
        <ele>349.058417</ele>
        <time>2022-05-01T10:41:32.549Z</time>
      </trkpt>
      <trkpt lat="41.16067" lon="20.35746">
        <ele>349.172373</ele>
        <time>2022-05-01T10:41:38.559Z</time>
      </trkpt>
      <trkpt lat="41.16076" lon="20.35739">
        <ele>349.296622</ele>
        <time>2022-05-01T10:41:44.543Z</time>
      </trkpt>
      <trkpt lat="41.16083" lon="20.35733">
        <ele>349.406493</ele>
        <time>2022-05-01T10:41:48.551Z</time>
      </trkpt>
      <trkpt lat="41.16093" lon="20.35725">
        <ele>349.540632</ele>
        <time>2022-05-01T10:41:53.557Z</time>
      </trkpt>
      <trkpt lat="41.16101" lon="20.35718">
        <ele>349.66147</ele>
        <time>2022-05-01T10:41:57.556Z</time>
      </trkpt>
      <trkpt lat="41.1611" lon="20.3571">
        <ele>349.790939</ele>
        <time>2022-05-01T10:42:01.561Z</time>
      </trkpt>
      <trkpt lat="41.1612" lon="20.35703">
        <ele>349.926573</ele>
        <time>2022-05-01T10:42:05.553Z</time>
      </trkpt>
      <trkpt lat="41.16128" lon="20.35697">
        <ele>350.042647</ele>
        <time>2022-05-01T10:42:08.554Z</time>
      </trkpt>
      <trkpt lat="41.16137" lon="20.35689">
        <ele>350.176229</ele>
        <time>2022-05-01T10:42:11.548Z</time>
      </trkpt>
      <trkpt lat="41.16148" lon="20.35681">
        <ele>350.326116</ele>
        <time>2022-05-01T10:42:14.546Z</time>
      </trkpt>
      <trkpt lat="41.16159" lon="20.35673">
        <ele>350.47575</ele>
        <time>2022-05-01T10:42:17.566Z</time>
      </trkpt>
      <trkpt lat="41.16169" lon="20.35666">
        <ele>350.623018</ele>
        <time>2022-05-01T10:42:20.555Z</time>
      </trkpt>
      <trkpt lat="41.1618" lon="20.35658">
        <ele>350.770729</ele>
        <time>2022-05-01T10:42:23.555Z</time>
      </trkpt>
      <trkpt lat="41.16191" lon="20.3565">
        <ele>350.917559</ele>
        <time>2022-05-01T10:42:26.548Z</time>
      </trkpt>
      <trkpt lat="41.16202" lon="20.35642">
        <ele>351.077305</ele>
        <time>2022-05-01T10:42:29.575Z</time>
      </trkpt>
      <trkpt lat="41.16214" lon="20.35634">
        <ele>351.236405</ele>
        <time>2022-05-01T10:42:32.564Z</time>
      </trkpt>
      <trkpt lat="41.16225" lon="20.35626">
        <ele>351.171964</ele>
        <time>2022-05-01T10:42:35.541Z</time>
      </trkpt>
      <trkpt lat="41.16233" lon="20.3562">
        <ele>351.117833</ele>
        <time>2022-05-01T10:42:37.566Z</time>
      </trkpt>
      <trkpt lat="41.16242" lon="20.35614">
        <ele>351.062351</ele>
        <time>2022-05-01T10:42:39.562Z</time>
      </trkpt>
      <trkpt lat="41.1625" lon="20.35608">
        <ele>351.006978</ele>
        <time>2022-05-01T10:42:41.555Z</time>
      </trkpt>
      <trkpt lat="41.16259" lon="20.35603">
        <ele>350.950623</ele>
        <time>2022-05-01T10:42:43.559Z</time>
      </trkpt>
      <trkpt lat="41.16267" lon="20.35597">
        <ele>350.896078</ele>
        <time>2022-05-01T10:42:45.595Z</time>
      </trkpt>
      <trkpt lat="41.16275" lon="20.35591">
        <ele>350.840186</ele>
        <time>2022-05-01T10:42:47.565Z</time>
      </trkpt>
      <trkpt lat="41.16284" lon="20.35585">
        <ele>350.78233</ele>
        <time>2022-05-01T10:42:49.551Z</time>
      </trkpt>
      <trkpt lat="41.16292" lon="20.35579">
        <ele>350.72736</ele>
        <time>2022-05-01T10:42:51.551Z</time>
      </trkpt>
      <trkpt lat="41.163" lon="20.35573">
        <ele>350.673115</ele>
        <time>2022-05-01T10:42:53.554Z</time>
      </trkpt>
      <trkpt lat="41.16312" lon="20.35563">
        <ele>350.592679</ele>
        <time>2022-05-01T10:42:56.586Z</time>
      </trkpt>
      <trkpt lat="41.1632" lon="20.35556">
        <ele>350.535407</ele>
        <time>2022-05-01T10:42:58.550Z</time>
      </trkpt>
      <trkpt lat="41.16328" lon="20.35548">
        <ele>350.475108</ele>
        <time>2022-05-01T10:43:00.546Z</time>
      </trkpt>
      <trkpt lat="41.16337" lon="20.35538">
        <ele>350.409119</ele>
        <time>2022-05-01T10:43:02.549Z</time>
      </trkpt>
      <trkpt lat="41.16346" lon="20.35526">
        <ele>350.336497</ele>
        <time>2022-05-01T10:43:04.558Z</time>
      </trkpt>
      <trkpt lat="41.16354" lon="20.35512">
        <ele>350.259797</ele>
        <time>2022-05-01T10:43:06.552Z</time>
      </trkpt>
      <trkpt lat="41.1636" lon="20.35497">
        <ele>350.12299</ele>
        <time>2022-05-01T10:43:08.548Z</time>
      </trkpt>
      <trkpt lat="41.16365" lon="20.3548">
        <ele>349.513558</ele>
        <time>2022-05-01T10:43:10.555Z</time>
      </trkpt>
      <trkpt lat="41.16369" lon="20.35462">
        <ele>348.890306</ele>
        <time>2022-05-01T10:43:12.559Z</time>
      </trkpt>
      <trkpt lat="41.16372" lon="20.35442">
        <ele>348.215339</ele>
        <time>2022-05-01T10:43:14.554Z</time>
      </trkpt>
      <trkpt lat="41.16375" lon="20.35421">
        <ele>347.512136</ele>
        <time>2022-05-01T10:43:16.569Z</time>
      </trkpt>
      <trkpt lat="41.16379" lon="20.35398">
        <ele>346.727334</ele>
        <time>2022-05-01T10:43:18.589Z</time>
      </trkpt>
      <trkpt lat="41.16382" lon="20.35386">
        <ele>346.314</ele>
        <time>2022-05-01T10:43:19.550Z</time>
      </trkpt>
      <trkpt lat="41.16386" lon="20.35374">
        <ele>345.880482</ele>
        <time>2022-05-01T10:43:20.535Z</time>
      </trkpt>
      <trkpt lat="41.16391" lon="20.35362">
        <ele>345.449723</ele>
        <time>2022-05-01T10:43:21.547Z</time>
      </trkpt>
      <trkpt lat="41.16395" lon="20.35351">
        <ele>345.045127</ele>
        <time>2022-05-01T10:43:22.546Z</time>
      </trkpt>
      <trkpt lat="41.16401" lon="20.35341">
        <ele>344.628757</ele>
        <time>2022-05-01T10:43:23.548Z</time>
      </trkpt>
      <trkpt lat="41.16411" lon="20.35323">
        <ele>343.88932</ele>
        <time>2022-05-01T10:43:25.558Z</time>
      </trkpt>
      <trkpt lat="41.1642" lon="20.35305">
        <ele>343.167797</ele>
        <time>2022-05-01T10:43:27.541Z</time>
      </trkpt>
      <trkpt lat="41.16426" lon="20.35286">
        <ele>342.491094</ele>
        <time>2022-05-01T10:43:29.576Z</time>
      </trkpt>
      <trkpt lat="41.16429" lon="20.35262">
        <ele>341.346338</ele>
        <time>2022-05-01T10:43:31.534Z</time>
      </trkpt>
      <trkpt lat="41.16427" lon="20.35244">
        <ele>340.438681</ele>
        <time>2022-05-01T10:43:33.559Z</time>
      </trkpt>
      <trkpt lat="41.16423" lon="20.35222">
        <ele>339.316027</ele>
        <time>2022-05-01T10:43:35.553Z</time>
      </trkpt>
      <trkpt lat="41.1642" lon="20.3521">
        <ele>338.708535</ele>
        <time>2022-05-01T10:43:36.550Z</time>
      </trkpt>
      <trkpt lat="41.16417" lon="20.35198">
        <ele>338.07377</ele>
        <time>2022-05-01T10:43:37.564Z</time>
      </trkpt>
      <trkpt lat="41.16414" lon="20.35185">
        <ele>337.391487</ele>
        <time>2022-05-01T10:43:38.587Z</time>
      </trkpt>
      <trkpt lat="41.16411" lon="20.35172">
        <ele>336.684264</ele>
        <time>2022-05-01T10:43:39.548Z</time>
      </trkpt>
      <trkpt lat="41.16409" lon="20.35157">
        <ele>335.935649</ele>
        <time>2022-05-01T10:43:40.585Z</time>
      </trkpt>
      <trkpt lat="41.16408" lon="20.35143">
        <ele>335.218662</ele>
        <time>2022-05-01T10:43:41.546Z</time>
      </trkpt>
      <trkpt lat="41.16409" lon="20.35128">
        <ele>334.482091</ele>
        <time>2022-05-01T10:43:42.535Z</time>
      </trkpt>
      <trkpt lat="41.1641" lon="20.35112">
        <ele>333.666228</ele>
        <time>2022-05-01T10:43:43.550Z</time>
      </trkpt>
      <trkpt lat="41.16412" lon="20.35095">
        <ele>332.807291</ele>
        <time>2022-05-01T10:43:44.556Z</time>
      </trkpt>
      <trkpt lat="41.16414" lon="20.35079">
        <ele>331.997869</ele>
        <time>2022-05-01T10:43:45.551Z</time>
      </trkpt>
      <trkpt lat="41.16416" lon="20.35062">
        <ele>331.178549</ele>
        <time>2022-05-01T10:43:46.551Z</time>
      </trkpt>
      <trkpt lat="41.16418" lon="20.35047">
        <ele>330.37306</ele>
        <time>2022-05-01T10:43:47.540Z</time>
      </trkpt>
      <trkpt lat="41.16419" lon="20.35031">
        <ele>329.39628</ele>
        <time>2022-05-01T10:43:48.552Z</time>
      </trkpt>
      <trkpt lat="41.16421" lon="20.35015">
        <ele>328.418606</ele>
        <time>2022-05-01T10:43:49.553Z</time>
      </trkpt>
      <trkpt lat="41.16423" lon="20.35">
        <ele>327.504999</ele>
        <time>2022-05-01T10:43:50.546Z</time>
      </trkpt>
      <trkpt lat="41.16424" lon="20.34987">
        <ele>326.670038</ele>
        <time>2022-05-01T10:43:51.531Z</time>
      </trkpt>
      <trkpt lat="41.16424" lon="20.34973">
        <ele>325.856714</ele>
        <time>2022-05-01T10:43:52.554Z</time>
      </trkpt>
      <trkpt lat="41.16424" lon="20.34961">
        <ele>325.123294</ele>
        <time>2022-05-01T10:43:53.566Z</time>
      </trkpt>
      <trkpt lat="41.16422" lon="20.34938">
        <ele>323.667047</ele>
        <time>2022-05-01T10:43:55.567Z</time>
      </trkpt>
      <trkpt lat="41.1642" lon="20.34925">
        <ele>322.902347</ele>
        <time>2022-05-01T10:43:56.543Z</time>
      </trkpt>
      <trkpt lat="41.16417" lon="20.34913">
        <ele>322.137647</ele>
        <time>2022-05-01T10:43:57.557Z</time>
      </trkpt>
      <trkpt lat="41.16416" lon="20.34901">
        <ele>321.393853</ele>
        <time>2022-05-01T10:43:58.550Z</time>
      </trkpt>
      <trkpt lat="41.16419" lon="20.34882">
        <ele>320.174853</ele>
        <time>2022-05-01T10:44:00.557Z</time>
      </trkpt>
      <trkpt lat="41.16423" lon="20.3487">
        <ele>319.413875</ele>
        <time>2022-05-01T10:44:01.536Z</time>
      </trkpt>
      <trkpt lat="41.16429" lon="20.3486">
        <ele>318.630533</ele>
        <time>2022-05-01T10:44:02.594Z</time>
      </trkpt>
      <trkpt lat="41.16434" lon="20.34849">
        <ele>317.81022</ele>
        <time>2022-05-01T10:44:03.560Z</time>
      </trkpt>
      <trkpt lat="41.16441" lon="20.34837">
        <ele>316.916693</ele>
        <time>2022-05-01T10:44:04.551Z</time>
      </trkpt>
      <trkpt lat="41.16449" lon="20.34827">
        <ele>316.042293</ele>
        <time>2022-05-01T10:44:05.546Z</time>
      </trkpt>
      <trkpt lat="41.16456" lon="20.34817">
        <ele>315.363764</ele>
        <time>2022-05-01T10:44:06.558Z</time>
      </trkpt>
      <trkpt lat="41.16464" lon="20.34808">
        <ele>314.781247</ele>
        <time>2022-05-01T10:44:07.545Z</time>
      </trkpt>
      <trkpt lat="41.16473" lon="20.348">
        <ele>314.192342</ele>
        <time>2022-05-01T10:44:08.543Z</time>
      </trkpt>
      <trkpt lat="41.16482" lon="20.34792">
        <ele>313.587707</ele>
        <time>2022-05-01T10:44:09.543Z</time>
      </trkpt>
      <trkpt lat="41.16491" lon="20.34783">
        <ele>312.962126</ele>
        <time>2022-05-01T10:44:10.567Z</time>
      </trkpt>
      <trkpt lat="41.165" lon="20.34774">
        <ele>312.317738</ele>
        <time>2022-05-01T10:44:11.543Z</time>
      </trkpt>
      <trkpt lat="41.1651" lon="20.34765">
        <ele>311.666366</ele>
        <time>2022-05-01T10:44:12.550Z</time>
      </trkpt>
      <trkpt lat="41.16519" lon="20.34757">
        <ele>311.024409</ele>
        <time>2022-05-01T10:44:13.534Z</time>
      </trkpt>
      <trkpt lat="41.16529" lon="20.34748">
        <ele>310.384864</ele>
        <time>2022-05-01T10:44:14.558Z</time>
      </trkpt>
      <trkpt lat="41.16538" lon="20.3474">
        <ele>309.750122</ele>
        <time>2022-05-01T10:44:15.557Z</time>
      </trkpt>
      <trkpt lat="41.16547" lon="20.34731">
        <ele>309.136282</ele>
        <time>2022-05-01T10:44:16.556Z</time>
      </trkpt>
      <trkpt lat="41.16556" lon="20.34723">
        <ele>308.527054</ele>
        <time>2022-05-01T10:44:17.554Z</time>
      </trkpt>
      <trkpt lat="41.16566" lon="20.34715">
        <ele>307.906236</ele>
        <time>2022-05-01T10:44:18.552Z</time>
      </trkpt>
      <trkpt lat="41.16574" lon="20.34706">
        <ele>307.296775</ele>
        <time>2022-05-01T10:44:19.591Z</time>
      </trkpt>
      <trkpt lat="41.16583" lon="20.34698">
        <ele>306.707873</ele>
        <time>2022-05-01T10:44:20.551Z</time>
      </trkpt>
      <trkpt lat="41.16592" lon="20.34689">
        <ele>306.084038</ele>
        <time>2022-05-01T10:44:21.539Z</time>
      </trkpt>
      <trkpt lat="41.16601" lon="20.3468">
        <ele>305.469062</ele>
        <time>2022-05-01T10:44:22.558Z</time>
      </trkpt>
      <trkpt lat="41.1661" lon="20.3467">
        <ele>304.855319</ele>
        <time>2022-05-01T10:44:23.570Z</time>
      </trkpt>
      <trkpt lat="41.16618" lon="20.3466">
        <ele>304.249697</ele>
        <time>2022-05-01T10:44:24.559Z</time>
      </trkpt>
      <trkpt lat="41.16626" lon="20.3465">
        <ele>303.654094</ele>
        <time>2022-05-01T10:44:25.548Z</time>
      </trkpt>
      <trkpt lat="41.16634" lon="20.34639">
        <ele>303.070667</ele>
        <time>2022-05-01T10:44:26.582Z</time>
      </trkpt>
      <trkpt lat="41.16641" lon="20.34629">
        <ele>302.525399</ele>
        <time>2022-05-01T10:44:27.546Z</time>
      </trkpt>
      <trkpt lat="41.16647" lon="20.34619">
        <ele>301.997187</ele>
        <time>2022-05-01T10:44:28.556Z</time>
      </trkpt>
      <trkpt lat="41.16653" lon="20.34608">
        <ele>301.488266</ele>
        <time>2022-05-01T10:44:29.549Z</time>
      </trkpt>
      <trkpt lat="41.16658" lon="20.34598">
        <ele>300.978849</ele>
        <time>2022-05-01T10:44:30.583Z</time>
      </trkpt>
      <trkpt lat="41.16663" lon="20.34587">
        <ele>300.491055</ele>
        <time>2022-05-01T10:44:31.539Z</time>
      </trkpt>
      <trkpt lat="41.16668" lon="20.34577">
        <ele>300.005788</ele>
        <time>2022-05-01T10:44:32.554Z</time>
      </trkpt>
      <trkpt lat="41.16675" lon="20.34556">
        <ele>299.090379</ele>
        <time>2022-05-01T10:44:34.545Z</time>
      </trkpt>
      <trkpt lat="41.16682" lon="20.34536">
        <ele>298.21546</ele>
        <time>2022-05-01T10:44:36.554Z</time>
      </trkpt>
      <trkpt lat="41.16687" lon="20.34516">
        <ele>297.377278</ele>
        <time>2022-05-01T10:44:38.533Z</time>
      </trkpt>
      <trkpt lat="41.16692" lon="20.34497">
        <ele>296.562838</ele>
        <time>2022-05-01T10:44:40.554Z</time>
      </trkpt>
      <trkpt lat="41.16696" lon="20.34478">
        <ele>296.321487</ele>
        <time>2022-05-01T10:44:42.547Z</time>
      </trkpt>
      <trkpt lat="41.16698" lon="20.34462">
        <ele>296.487109</ele>
        <time>2022-05-01T10:44:44.559Z</time>
      </trkpt>
      <trkpt lat="41.167" lon="20.34447">
        <ele>296.641046</ele>
        <time>2022-05-01T10:44:46.544Z</time>
      </trkpt>
      <trkpt lat="41.16702" lon="20.34432">
        <ele>296.783779</ele>
        <time>2022-05-01T10:44:48.548Z</time>
      </trkpt>
      <trkpt lat="41.16702" lon="20.34418">
        <ele>296.923564</ele>
        <time>2022-05-01T10:44:50.566Z</time>
      </trkpt>
      <trkpt lat="41.16703" lon="20.34403">
        <ele>297.073116</ele>
        <time>2022-05-01T10:44:52.578Z</time>
      </trkpt>
      <trkpt lat="41.16702" lon="20.34389">
        <ele>297.217681</ele>
        <time>2022-05-01T10:44:54.544Z</time>
      </trkpt>
      <trkpt lat="41.16702" lon="20.34373">
        <ele>297.37328</ele>
        <time>2022-05-01T10:44:56.551Z</time>
      </trkpt>
      <trkpt lat="41.167" lon="20.34358">
        <ele>297.524036</ele>
        <time>2022-05-01T10:44:58.594Z</time>
      </trkpt>
      <trkpt lat="41.16697" lon="20.34342">
        <ele>297.684691</ele>
        <time>2022-05-01T10:45:00.564Z</time>
      </trkpt>
      <trkpt lat="41.16693" lon="20.34327">
        <ele>297.844956</ele>
        <time>2022-05-01T10:45:02.531Z</time>
      </trkpt>
      <trkpt lat="41.16687" lon="20.34312">
        <ele>298.010108</ele>
        <time>2022-05-01T10:45:04.571Z</time>
      </trkpt>
      <trkpt lat="41.16681" lon="20.34298">
        <ele>298.171936</ele>
        <time>2022-05-01T10:45:06.553Z</time>
      </trkpt>
      <trkpt lat="41.16673" lon="20.34285">
        <ele>298.33332</ele>
        <time>2022-05-01T10:45:08.562Z</time>
      </trkpt>
      <trkpt lat="41.16665" lon="20.34272">
        <ele>298.505254</ele>
        <time>2022-05-01T10:45:10.547Z</time>
      </trkpt>
      <trkpt lat="41.16656" lon="20.34259">
        <ele>298.65401</ele>
        <time>2022-05-01T10:45:12.547Z</time>
      </trkpt>
      <trkpt lat="41.16646" lon="20.34247">
        <ele>298.792117</ele>
        <time>2022-05-01T10:45:14.550Z</time>
      </trkpt>
      <trkpt lat="41.16635" lon="20.34234">
        <ele>298.934891</ele>
        <time>2022-05-01T10:45:16.551Z</time>
      </trkpt>
      <trkpt lat="41.16624" lon="20.34221">
        <ele>299.08532</ele>
        <time>2022-05-01T10:45:18.553Z</time>
      </trkpt>
      <trkpt lat="41.16614" lon="20.34207">
        <ele>299.230705</ele>
        <time>2022-05-01T10:45:20.595Z</time>
      </trkpt>
      <trkpt lat="41.16602" lon="20.34193">
        <ele>299.387154</ele>
        <time>2022-05-01T10:45:22.546Z</time>
      </trkpt>
      <trkpt lat="41.16592" lon="20.34177">
        <ele>299.548602</ele>
        <time>2022-05-01T10:45:24.552Z</time>
      </trkpt>
      <trkpt lat="41.16583" lon="20.34157">
        <ele>299.719188</ele>
        <time>2022-05-01T10:45:26.548Z</time>
      </trkpt>
      <trkpt lat="41.16578" lon="20.34136">
        <ele>299.885364</ele>
        <time>2022-05-01T10:45:28.559Z</time>
      </trkpt>
      <trkpt lat="41.16577" lon="20.34115">
        <ele>300.045813</ele>
        <time>2022-05-01T10:45:30.554Z</time>
      </trkpt>
      <trkpt lat="41.1658" lon="20.34095">
        <ele>300.202264</ele>
        <time>2022-05-01T10:45:32.553Z</time>
      </trkpt>
      <trkpt lat="41.16586" lon="20.34075">
        <ele>300.360695</ele>
        <time>2022-05-01T10:45:34.567Z</time>
      </trkpt>
      <trkpt lat="41.16595" lon="20.34059">
        <ele>300.544041</ele>
        <time>2022-05-01T10:45:36.560Z</time>
      </trkpt>
      <trkpt lat="41.16603" lon="20.34047">
        <ele>300.708494</ele>
        <time>2022-05-01T10:45:38.550Z</time>
      </trkpt>
      <trkpt lat="41.1661" lon="20.34036">
        <ele>300.843095</ele>
        <time>2022-05-01T10:45:40.546Z</time>
      </trkpt>
      <trkpt lat="41.16617" lon="20.34028">
        <ele>300.962979</ele>
        <time>2022-05-01T10:45:42.554Z</time>
      </trkpt>
      <trkpt lat="41.16624" lon="20.34018">
        <ele>301.099901</ele>
        <time>2022-05-01T10:45:45.535Z</time>
      </trkpt>
      <trkpt lat="41.16632" lon="20.3401">
        <ele>301.22051</ele>
        <time>2022-05-01T10:45:50.552Z</time>
      </trkpt>
      <trkpt lat="41.1664" lon="20.34001">
        <ele>301.357736</ele>
        <time>2022-05-01T10:45:55.544Z</time>
      </trkpt>
      <trkpt lat="41.16647" lon="20.33992">
        <ele>301.482857</ele>
        <time>2022-05-01T10:46:00.544Z</time>
      </trkpt>
      <trkpt lat="41.16653" lon="20.33983">
        <ele>301.605044</ele>
        <time>2022-05-01T10:46:05.547Z</time>
      </trkpt>
      <trkpt lat="41.1666" lon="20.33973">
        <ele>301.734711</ele>
        <time>2022-05-01T10:46:09.555Z</time>
      </trkpt>
      <trkpt lat="41.16667" lon="20.33962">
        <ele>301.875521</ele>
        <time>2022-05-01T10:46:14.550Z</time>
      </trkpt>
      <trkpt lat="41.16674" lon="20.33953">
        <ele>302.004308</ele>
        <time>2022-05-01T10:46:18.558Z</time>
      </trkpt>
      <trkpt lat="41.1668" lon="20.33941">
        <ele>302.142841</ele>
        <time>2022-05-01T10:46:22.551Z</time>
      </trkpt>
      <trkpt lat="41.16686" lon="20.33932">
        <ele>302.265879</ele>
        <time>2022-05-01T10:46:25.556Z</time>
      </trkpt>
      <trkpt lat="41.16691" lon="20.3392">
        <ele>302.390149</ele>
        <time>2022-05-01T10:46:28.563Z</time>
      </trkpt>
      <trkpt lat="41.16695" lon="20.33907">
        <ele>302.530567</ele>
        <time>2022-05-01T10:46:31.564Z</time>
      </trkpt>
      <trkpt lat="41.16698" lon="20.33889">
        <ele>302.705276</ele>
        <time>2022-05-01T10:46:34.584Z</time>
      </trkpt>
      <trkpt lat="41.167" lon="20.33874">
        <ele>302.544971</ele>
        <time>2022-05-01T10:46:36.548Z</time>
      </trkpt>
      <trkpt lat="41.16702" lon="20.33859">
        <ele>302.366103</ele>
        <time>2022-05-01T10:46:38.550Z</time>
      </trkpt>
      <trkpt lat="41.16704" lon="20.33842">
        <ele>302.177491</ele>
        <time>2022-05-01T10:46:40.538Z</time>
      </trkpt>
      <trkpt lat="41.16706" lon="20.33824">
        <ele>301.977232</ele>
        <time>2022-05-01T10:46:42.553Z</time>
      </trkpt>
      <trkpt lat="41.16709" lon="20.33806">
        <ele>301.77488</ele>
        <time>2022-05-01T10:46:44.560Z</time>
      </trkpt>
      <trkpt lat="41.16711" lon="20.33789">
        <ele>301.580109</ele>
        <time>2022-05-01T10:46:46.582Z</time>
      </trkpt>
      <trkpt lat="41.16713" lon="20.33772">
        <ele>301.393322</ele>
        <time>2022-05-01T10:46:48.554Z</time>
      </trkpt>
      <trkpt lat="41.16715" lon="20.33757">
        <ele>301.216338</ele>
        <time>2022-05-01T10:46:50.573Z</time>
      </trkpt>
      <trkpt lat="41.16718" lon="20.33742">
        <ele>301.044916</ele>
        <time>2022-05-01T10:46:52.579Z</time>
      </trkpt>
      <trkpt lat="41.16721" lon="20.33728">
        <ele>300.881858</ele>
        <time>2022-05-01T10:46:54.584Z</time>
      </trkpt>
      <trkpt lat="41.16724" lon="20.33713">
        <ele>300.71725</ele>
        <time>2022-05-01T10:46:56.570Z</time>
      </trkpt>
      <trkpt lat="41.16728" lon="20.337">
        <ele>300.558429</ele>
        <time>2022-05-01T10:46:58.549Z</time>
      </trkpt>
      <trkpt lat="41.16731" lon="20.33685">
        <ele>300.391297</ele>
        <time>2022-05-01T10:47:00.535Z</time>
      </trkpt>
      <trkpt lat="41.16735" lon="20.33672">
        <ele>300.229017</ele>
        <time>2022-05-01T10:47:02.556Z</time>
      </trkpt>
      <trkpt lat="41.16739" lon="20.33659">
        <ele>300.078692</ele>
        <time>2022-05-01T10:47:04.550Z</time>
      </trkpt>
      <trkpt lat="41.16742" lon="20.33647">
        <ele>299.792525</ele>
        <time>2022-05-01T10:47:06.553Z</time>
      </trkpt>
      <trkpt lat="41.16746" lon="20.33635">
        <ele>299.49451</ele>
        <time>2022-05-01T10:47:08.531Z</time>
      </trkpt>
      <trkpt lat="41.16751" lon="20.33621">
        <ele>299.158679</ele>
        <time>2022-05-01T10:47:10.556Z</time>
      </trkpt>
      <trkpt lat="41.16755" lon="20.33607">
        <ele>298.797706</ele>
        <time>2022-05-01T10:47:12.590Z</time>
      </trkpt>
      <trkpt lat="41.1676" lon="20.33592">
        <ele>298.420349</ele>
        <time>2022-05-01T10:47:14.547Z</time>
      </trkpt>
      <trkpt lat="41.16766" lon="20.33576">
        <ele>298.019024</ele>
        <time>2022-05-01T10:47:16.546Z</time>
      </trkpt>
      <trkpt lat="41.16772" lon="20.33561">
        <ele>297.615148</ele>
        <time>2022-05-01T10:47:18.550Z</time>
      </trkpt>
      <trkpt lat="41.16778" lon="20.33544">
        <ele>297.191928</ele>
        <time>2022-05-01T10:47:20.555Z</time>
      </trkpt>
      <trkpt lat="41.16785" lon="20.33527">
        <ele>296.749756</ele>
        <time>2022-05-01T10:47:22.552Z</time>
      </trkpt>
      <trkpt lat="41.16794" lon="20.3351">
        <ele>296.2701</ele>
        <time>2022-05-01T10:47:24.551Z</time>
      </trkpt>
      <trkpt lat="41.16804" lon="20.33491">
        <ele>295.734105</ele>
        <time>2022-05-01T10:47:26.552Z</time>
      </trkpt>
      <trkpt lat="41.16811" lon="20.33482">
        <ele>295.440188</ele>
        <time>2022-05-01T10:47:27.555Z</time>
      </trkpt>
      <trkpt lat="41.16817" lon="20.33473">
        <ele>295.148372</ele>
        <time>2022-05-01T10:47:28.546Z</time>
      </trkpt>
      <trkpt lat="41.16825" lon="20.33463">
        <ele>294.833204</ele>
        <time>2022-05-01T10:47:29.578Z</time>
      </trkpt>
      <trkpt lat="41.16833" lon="20.33454">
        <ele>294.529429</ele>
        <time>2022-05-01T10:47:30.536Z</time>
      </trkpt>
      <trkpt lat="41.16842" lon="20.33446">
        <ele>294.398619</ele>
        <time>2022-05-01T10:47:31.547Z</time>
      </trkpt>
      <trkpt lat="41.1685" lon="20.33439">
        <ele>294.280219</ele>
        <time>2022-05-01T10:47:32.538Z</time>
      </trkpt>
      <trkpt lat="41.16859" lon="20.33432">
        <ele>294.155515</ele>
        <time>2022-05-01T10:47:33.565Z</time>
      </trkpt>
      <trkpt lat="41.16869" lon="20.33426">
        <ele>294.031433</ele>
        <time>2022-05-01T10:47:34.548Z</time>
      </trkpt>
      <trkpt lat="41.16878" lon="20.3342">
        <ele>293.90645</ele>
        <time>2022-05-01T10:47:35.547Z</time>
      </trkpt>
      <trkpt lat="41.16888" lon="20.33414">
        <ele>293.779293</ele>
        <time>2022-05-01T10:47:36.540Z</time>
      </trkpt>
      <trkpt lat="41.16898" lon="20.33408">
        <ele>293.647063</ele>
        <time>2022-05-01T10:47:37.554Z</time>
      </trkpt>
      <trkpt lat="41.16909" lon="20.33402">
        <ele>293.512296</ele>
        <time>2022-05-01T10:47:38.539Z</time>
      </trkpt>
      <trkpt lat="41.16918" lon="20.33397">
        <ele>293.387675</ele>
        <time>2022-05-01T10:47:39.548Z</time>
      </trkpt>
      <trkpt lat="41.16928" lon="20.33391">
        <ele>293.266677</ele>
        <time>2022-05-01T10:47:40.558Z</time>
      </trkpt>
      <trkpt lat="41.16936" lon="20.33386">
        <ele>293.151084</ele>
        <time>2022-05-01T10:47:41.584Z</time>
      </trkpt>
      <trkpt lat="41.16945" lon="20.3338">
        <ele>293.035386</ele>
        <time>2022-05-01T10:47:42.579Z</time>
      </trkpt>
      <trkpt lat="41.16961" lon="20.3337">
        <ele>292.826978</ele>
        <time>2022-05-01T10:47:44.534Z</time>
      </trkpt>
      <trkpt lat="41.16975" lon="20.33359">
        <ele>292.634412</ele>
        <time>2022-05-01T10:47:46.534Z</time>
      </trkpt>
      <trkpt lat="41.16989" lon="20.33348">
        <ele>292.443585</ele>
        <time>2022-05-01T10:47:48.548Z</time>
      </trkpt>
      <trkpt lat="41.17002" lon="20.33338">
        <ele>292.649018</ele>
        <time>2022-05-01T10:47:50.556Z</time>
      </trkpt>
      <trkpt lat="41.17013" lon="20.33327">
        <ele>292.932603</ele>
        <time>2022-05-01T10:47:52.598Z</time>
      </trkpt>
      <trkpt lat="41.17024" lon="20.33316">
        <ele>293.209785</ele>
        <time>2022-05-01T10:47:54.562Z</time>
      </trkpt>
      <trkpt lat="41.17034" lon="20.33305">
        <ele>293.480003</ele>
        <time>2022-05-01T10:47:56.547Z</time>
      </trkpt>
      <trkpt lat="41.17044" lon="20.33292">
        <ele>293.759856</ele>
        <time>2022-05-01T10:47:58.543Z</time>
      </trkpt>
      <trkpt lat="41.17055" lon="20.33278">
        <ele>294.062838</ele>
        <time>2022-05-01T10:48:00.565Z</time>
      </trkpt>
      <trkpt lat="41.17065" lon="20.33264">
        <ele>294.361895</ele>
        <time>2022-05-01T10:48:02.566Z</time>
      </trkpt>
      <trkpt lat="41.17075" lon="20.33251">
        <ele>294.637647</ele>
        <time>2022-05-01T10:48:04.564Z</time>
      </trkpt>
      <trkpt lat="41.17083" lon="20.33238">
        <ele>294.892042</ele>
        <time>2022-05-01T10:48:06.567Z</time>
      </trkpt>
      <trkpt lat="41.1709" lon="20.33225">
        <ele>295.137429</ele>
        <time>2022-05-01T10:48:08.554Z</time>
      </trkpt>
      <trkpt lat="41.17096" lon="20.33213">
        <ele>295.354079</ele>
        <time>2022-05-01T10:48:10.549Z</time>
      </trkpt>
      <trkpt lat="41.17101" lon="20.33203">
        <ele>295.551207</ele>
        <time>2022-05-01T10:48:12.544Z</time>
      </trkpt>
      <trkpt lat="41.17108" lon="20.33188">
        <ele>295.812026</ele>
        <time>2022-05-01T10:48:15.549Z</time>
      </trkpt>
      <trkpt lat="41.17114" lon="20.33175">
        <ele>296.038579</ele>
        <time>2022-05-01T10:48:18.547Z</time>
      </trkpt>
      <trkpt lat="41.17119" lon="20.33161">
        <ele>295.818188</ele>
        <time>2022-05-01T10:48:21.538Z</time>
      </trkpt>
      <trkpt lat="41.17124" lon="20.33148">
        <ele>295.593374</ele>
        <time>2022-05-01T10:48:24.542Z</time>
      </trkpt>
      <trkpt lat="41.17129" lon="20.33134">
        <ele>295.365053</ele>
        <time>2022-05-01T10:48:27.538Z</time>
      </trkpt>
      <trkpt lat="41.17134" lon="20.33121">
        <ele>295.149929</ele>
        <time>2022-05-01T10:48:30.549Z</time>
      </trkpt>
      <trkpt lat="41.17139" lon="20.33107">
        <ele>294.925971</ele>
        <time>2022-05-01T10:48:33.534Z</time>
      </trkpt>
      <trkpt lat="41.17145" lon="20.33091">
        <ele>294.667271</ele>
        <time>2022-05-01T10:48:36.588Z</time>
      </trkpt>
      <trkpt lat="41.17149" lon="20.33081">
        <ele>294.489092</ele>
        <time>2022-05-01T10:48:38.548Z</time>
      </trkpt>
      <trkpt lat="41.17153" lon="20.3307">
        <ele>294.307854</ele>
        <time>2022-05-01T10:48:40.551Z</time>
      </trkpt>
      <trkpt lat="41.17158" lon="20.33059">
        <ele>294.123657</ele>
        <time>2022-05-01T10:48:42.561Z</time>
      </trkpt>
      <trkpt lat="41.17163" lon="20.33048">
        <ele>293.9362</ele>
        <time>2022-05-01T10:48:44.526Z</time>
      </trkpt>
      <trkpt lat="41.17168" lon="20.33037">
        <ele>293.751498</ele>
        <time>2022-05-01T10:48:46.567Z</time>
      </trkpt>
      <trkpt lat="41.17173" lon="20.33027">
        <ele>293.569709</ele>
        <time>2022-05-01T10:48:48.543Z</time>
      </trkpt>
      <trkpt lat="41.17179" lon="20.33017">
        <ele>293.382138</ele>
        <time>2022-05-01T10:48:50.552Z</time>
      </trkpt>
      <trkpt lat="41.17185" lon="20.33007">
        <ele>293.191684</ele>
        <time>2022-05-01T10:48:52.556Z</time>
      </trkpt>
      <trkpt lat="41.17192" lon="20.32998">
        <ele>293.000542</ele>
        <time>2022-05-01T10:48:54.551Z</time>
      </trkpt>
      <trkpt lat="41.17199" lon="20.32989">
        <ele>292.810866</ele>
        <time>2022-05-01T10:48:56.549Z</time>
      </trkpt>
      <trkpt lat="41.17206" lon="20.32981">
        <ele>292.619394</ele>
        <time>2022-05-01T10:48:58.614Z</time>
      </trkpt>
      <trkpt lat="41.17214" lon="20.32973">
        <ele>292.599275</ele>
        <time>2022-05-01T10:49:00.562Z</time>
      </trkpt>
      <trkpt lat="41.17222" lon="20.32966">
        <ele>292.797138</ele>
        <time>2022-05-01T10:49:02.553Z</time>
      </trkpt>
      <trkpt lat="41.17231" lon="20.32959">
        <ele>293.005284</ele>
        <time>2022-05-01T10:49:04.550Z</time>
      </trkpt>
      <trkpt lat="41.17241" lon="20.32952">
        <ele>293.214699</ele>
        <time>2022-05-01T10:49:06.551Z</time>
      </trkpt>
      <trkpt lat="41.1725" lon="20.32945">
        <ele>293.431797</ele>
        <time>2022-05-01T10:49:08.553Z</time>
      </trkpt>
      <trkpt lat="41.1726" lon="20.32939">
        <ele>293.650237</ele>
        <time>2022-05-01T10:49:10.548Z</time>
      </trkpt>
      <trkpt lat="41.1727" lon="20.32933">
        <ele>293.855964</ele>
        <time>2022-05-01T10:49:12.531Z</time>
      </trkpt>
      <trkpt lat="41.17278" lon="20.32928">
        <ele>294.039374</ele>
        <time>2022-05-01T10:49:14.556Z</time>
      </trkpt>
      <trkpt lat="41.17287" lon="20.32923">
        <ele>294.221021</ele>
        <time>2022-05-01T10:49:16.546Z</time>
      </trkpt>
      <trkpt lat="41.17299" lon="20.32916">
        <ele>294.483527</ele>
        <time>2022-05-01T10:49:19.556Z</time>
      </trkpt>
      <trkpt lat="41.17309" lon="20.3291">
        <ele>294.696642</ele>
        <time>2022-05-01T10:49:22.548Z</time>
      </trkpt>
      <trkpt lat="41.17319" lon="20.32904">
        <ele>294.915232</ele>
        <time>2022-05-01T10:49:26.550Z</time>
      </trkpt>
      <trkpt lat="41.17327" lon="20.32898">
        <ele>295.112118</ele>
        <time>2022-05-01T10:49:31.549Z</time>
      </trkpt>
      <trkpt lat="41.17336" lon="20.32891">
        <ele>295.308395</ele>
        <time>2022-05-01T10:49:36.546Z</time>
      </trkpt>
      <trkpt lat="41.17344" lon="20.32884">
        <ele>295.498835</ele>
        <time>2022-05-01T10:49:42.540Z</time>
      </trkpt>
      <trkpt lat="41.17351" lon="20.32876">
        <ele>295.676253</ele>
        <time>2022-05-01T10:49:47.579Z</time>
      </trkpt>
      <trkpt lat="41.17359" lon="20.32867">
        <ele>295.882719</ele>
        <time>2022-05-01T10:49:53.579Z</time>
      </trkpt>
      <trkpt lat="41.17366" lon="20.32856">
        <ele>296.149839</ele>
        <time>2022-05-01T10:50:00.552Z</time>
      </trkpt>
      <trkpt lat="41.17373" lon="20.32846">
        <ele>296.704169</ele>
        <time>2022-05-01T10:50:06.548Z</time>
      </trkpt>
      <trkpt lat="41.17378" lon="20.32836">
        <ele>297.191854</ele>
        <time>2022-05-01T10:50:12.545Z</time>
      </trkpt>
      <trkpt lat="41.17383" lon="20.32825">
        <ele>297.676697</ele>
        <time>2022-05-01T10:50:18.571Z</time>
      </trkpt>
      <trkpt lat="41.17388" lon="20.32813">
        <ele>298.205713</ele>
        <time>2022-05-01T10:50:23.553Z</time>
      </trkpt>
      <trkpt lat="41.17392" lon="20.32801">
        <ele>298.737313</ele>
        <time>2022-05-01T10:50:28.531Z</time>
      </trkpt>
      <trkpt lat="41.17396" lon="20.32788">
        <ele>299.288179</ele>
        <time>2022-05-01T10:50:34.538Z</time>
      </trkpt>
      <trkpt lat="41.17398" lon="20.32777">
        <ele>299.759689</ele>
        <time>2022-05-01T10:50:39.552Z</time>
      </trkpt>
      <trkpt lat="41.17401" lon="20.32764">
        <ele>300.28497</ele>
        <time>2022-05-01T10:50:45.531Z</time>
      </trkpt>
      <trkpt lat="41.17403" lon="20.32752">
        <ele>300.775868</ele>
        <time>2022-05-01T10:50:51.568Z</time>
      </trkpt>
      <trkpt lat="41.17405" lon="20.3274">
        <ele>301.272393</ele>
        <time>2022-05-01T10:50:56.535Z</time>
      </trkpt>
      <trkpt lat="41.17407" lon="20.32726">
        <ele>301.808123</ele>
        <time>2022-05-01T10:51:01.542Z</time>
      </trkpt>
      <trkpt lat="41.17409" lon="20.32713">
        <ele>302.342377</ele>
        <time>2022-05-01T10:51:06.570Z</time>
      </trkpt>
      <trkpt lat="41.17412" lon="20.32699">
        <ele>302.91686</ele>
        <time>2022-05-01T10:51:11.539Z</time>
      </trkpt>
      <trkpt lat="41.17414" lon="20.32685">
        <ele>303.484682</ele>
        <time>2022-05-01T10:51:16.557Z</time>
      </trkpt>
      <trkpt lat="41.17415" lon="20.32672">
        <ele>303.997219</ele>
        <time>2022-05-01T10:51:20.543Z</time>
      </trkpt>
      <trkpt lat="41.17416" lon="20.32657">
        <ele>304.599739</ele>
        <time>2022-05-01T10:51:24.556Z</time>
      </trkpt>
      <trkpt lat="41.17415" lon="20.32643">
        <ele>305.173282</ele>
        <time>2022-05-01T10:51:27.564Z</time>
      </trkpt>
      <trkpt lat="41.17412" lon="20.32625">
        <ele>305.246291</ele>
        <time>2022-05-01T10:51:30.564Z</time>
      </trkpt>
      <trkpt lat="41.1741" lon="20.3261">
        <ele>304.707191</ele>
        <time>2022-05-01T10:51:32.554Z</time>
      </trkpt>
      <trkpt lat="41.1741" lon="20.32592">
        <ele>304.049287</ele>
        <time>2022-05-01T10:51:34.588Z</time>
      </trkpt>
      <trkpt lat="41.17412" lon="20.3257">
        <ele>303.279376</ele>
        <time>2022-05-01T10:51:36.543Z</time>
      </trkpt>
      <trkpt lat="41.17418" lon="20.32549">
        <ele>302.457803</ele>
        <time>2022-05-01T10:51:38.553Z</time>
      </trkpt>
      <trkpt lat="41.17423" lon="20.32539">
        <ele>302.023147</ele>
        <time>2022-05-01T10:51:39.555Z</time>
      </trkpt>
      <trkpt lat="41.17436" lon="20.32522">
        <ele>301.181955</ele>
        <time>2022-05-01T10:51:41.555Z</time>
      </trkpt>
      <trkpt lat="41.17443" lon="20.32514">
        <ele>300.736496</ele>
        <time>2022-05-01T10:51:42.536Z</time>
      </trkpt>
      <trkpt lat="41.1745" lon="20.32506">
        <ele>300.302837</ele>
        <time>2022-05-01T10:51:43.551Z</time>
      </trkpt>
      <trkpt lat="41.17457" lon="20.32498">
        <ele>299.868091</ele>
        <time>2022-05-01T10:51:44.551Z</time>
      </trkpt>
      <trkpt lat="41.17464" lon="20.3249">
        <ele>299.43802</ele>
        <time>2022-05-01T10:51:45.610Z</time>
      </trkpt>
      <trkpt lat="41.17471" lon="20.32482">
        <ele>299.002051</ele>
        <time>2022-05-01T10:51:46.549Z</time>
      </trkpt>
      <trkpt lat="41.17478" lon="20.32474">
        <ele>298.556682</ele>
        <time>2022-05-01T10:51:47.557Z</time>
      </trkpt>
      <trkpt lat="41.17485" lon="20.32465">
        <ele>298.100703</ele>
        <time>2022-05-01T10:51:48.540Z</time>
      </trkpt>
      <trkpt lat="41.17493" lon="20.32457">
        <ele>297.613347</ele>
        <time>2022-05-01T10:51:49.550Z</time>
      </trkpt>
      <trkpt lat="41.17501" lon="20.32448">
        <ele>297.125991</ele>
        <time>2022-05-01T10:51:50.563Z</time>
      </trkpt>
      <trkpt lat="41.1751" lon="20.3244">
        <ele>296.576289</ele>
        <time>2022-05-01T10:51:51.543Z</time>
      </trkpt>
      <trkpt lat="41.17518" lon="20.32431">
        <ele>295.994655</ele>
        <time>2022-05-01T10:51:52.556Z</time>
      </trkpt>
      <trkpt lat="41.17527" lon="20.32422">
        <ele>295.418811</ele>
        <time>2022-05-01T10:51:53.532Z</time>
      </trkpt>
      <trkpt lat="41.17535" lon="20.32413">
        <ele>294.872069</ele>
        <time>2022-05-01T10:51:54.546Z</time>
      </trkpt>
      <trkpt lat="41.17542" lon="20.32405">
        <ele>294.350904</ele>
        <time>2022-05-01T10:51:55.554Z</time>
      </trkpt>
      <trkpt lat="41.1755" lon="20.32396">
        <ele>293.836378</ele>
        <time>2022-05-01T10:51:56.571Z</time>
      </trkpt>
      <trkpt lat="41.17557" lon="20.32388">
        <ele>293.323219</ele>
        <time>2022-05-01T10:51:57.556Z</time>
      </trkpt>
      <trkpt lat="41.17564" lon="20.32378">
        <ele>292.80759</ele>
        <time>2022-05-01T10:51:58.567Z</time>
      </trkpt>
      <trkpt lat="41.1757" lon="20.32369">
        <ele>292.308595</ele>
        <time>2022-05-01T10:51:59.557Z</time>
      </trkpt>
      <trkpt lat="41.17575" lon="20.32359">
        <ele>291.826138</ele>
        <time>2022-05-01T10:52:00.545Z</time>
      </trkpt>
      <trkpt lat="41.17586" lon="20.3234">
        <ele>290.870806</ele>
        <time>2022-05-01T10:52:02.549Z</time>
      </trkpt>
      <trkpt lat="41.17596" lon="20.32322">
        <ele>289.953755</ele>
        <time>2022-05-01T10:52:04.554Z</time>
      </trkpt>
      <trkpt lat="41.17606" lon="20.32304">
        <ele>289.062134</ele>
        <time>2022-05-01T10:52:06.555Z</time>
      </trkpt>
      <trkpt lat="41.17616" lon="20.32285">
        <ele>288.170345</ele>
        <time>2022-05-01T10:52:08.557Z</time>
      </trkpt>
      <trkpt lat="41.17625" lon="20.32267">
        <ele>287.283164</ele>
        <time>2022-05-01T10:52:10.549Z</time>
      </trkpt>
      <trkpt lat="41.17636" lon="20.32249">
        <ele>286.39404</ele>
        <time>2022-05-01T10:52:12.541Z</time>
      </trkpt>
      <trkpt lat="41.17645" lon="20.3223">
        <ele>285.509094</ele>
        <time>2022-05-01T10:52:14.567Z</time>
      </trkpt>
      <trkpt lat="41.17655" lon="20.32211">
        <ele>284.622337</ele>
        <time>2022-05-01T10:52:16.547Z</time>
      </trkpt>
      <trkpt lat="41.17664" lon="20.32193">
        <ele>283.732627</ele>
        <time>2022-05-01T10:52:18.543Z</time>
      </trkpt>
      <trkpt lat="41.17674" lon="20.32173">
        <ele>282.829729</ele>
        <time>2022-05-01T10:52:20.550Z</time>
      </trkpt>
      <trkpt lat="41.17682" lon="20.32153">
        <ele>281.932608</ele>
        <time>2022-05-01T10:52:22.602Z</time>
      </trkpt>
      <trkpt lat="41.17689" lon="20.32132">
        <ele>281.031558</ele>
        <time>2022-05-01T10:52:24.539Z</time>
      </trkpt>
      <trkpt lat="41.17695" lon="20.3211">
        <ele>280.13802</ele>
        <time>2022-05-01T10:52:26.581Z</time>
      </trkpt>
      <trkpt lat="41.177" lon="20.32089">
        <ele>279.289174</ele>
        <time>2022-05-01T10:52:28.539Z</time>
      </trkpt>
      <trkpt lat="41.17704" lon="20.32068">
        <ele>278.419523</ele>
        <time>2022-05-01T10:52:30.509Z</time>
      </trkpt>
      <trkpt lat="41.1771" lon="20.32047">
        <ele>277.918554</ele>
        <time>2022-05-01T10:52:32.543Z</time>
      </trkpt>
      <trkpt lat="41.17715" lon="20.32023">
        <ele>277.535425</ele>
        <time>2022-05-01T10:52:34.540Z</time>
      </trkpt>
      <trkpt lat="41.17718" lon="20.32011">
        <ele>277.347399</ele>
        <time>2022-05-01T10:52:35.553Z</time>
      </trkpt>
      <trkpt lat="41.1772" lon="20.32">
        <ele>277.163465</ele>
        <time>2022-05-01T10:52:36.575Z</time>
      </trkpt>
      <trkpt lat="41.17723" lon="20.31977">
        <ele>276.80371</ele>
        <time>2022-05-01T10:52:38.548Z</time>
      </trkpt>
      <trkpt lat="41.17725" lon="20.31954">
        <ele>276.451207</ele>
        <time>2022-05-01T10:52:40.543Z</time>
      </trkpt>
      <trkpt lat="41.17726" lon="20.31933">
        <ele>276.121215</ele>
        <time>2022-05-01T10:52:42.548Z</time>
      </trkpt>
      <trkpt lat="41.17726" lon="20.31913">
        <ele>275.812898</ele>
        <time>2022-05-01T10:52:44.555Z</time>
      </trkpt>
      <trkpt lat="41.17725" lon="20.31894">
        <ele>275.527695</ele>
        <time>2022-05-01T10:52:46.556Z</time>
      </trkpt>
      <trkpt lat="41.17725" lon="20.31877">
        <ele>275.259129</ele>
        <time>2022-05-01T10:52:48.551Z</time>
      </trkpt>
      <trkpt lat="41.17725" lon="20.31861">
        <ele>275.007868</ele>
        <time>2022-05-01T10:52:50.547Z</time>
      </trkpt>
      <trkpt lat="41.17726" lon="20.31846">
        <ele>274.785461</ele>
        <time>2022-05-01T10:52:52.567Z</time>
      </trkpt>
      <trkpt lat="41.17728" lon="20.31832">
        <ele>274.558254</ele>
        <time>2022-05-01T10:52:54.552Z</time>
      </trkpt>
      <trkpt lat="41.17731" lon="20.31817">
        <ele>274.489009</ele>
        <time>2022-05-01T10:52:56.569Z</time>
      </trkpt>
      <trkpt lat="41.17735" lon="20.31802">
        <ele>274.502337</ele>
        <time>2022-05-01T10:52:58.612Z</time>
      </trkpt>
      <trkpt lat="41.17739" lon="20.31788">
        <ele>274.515408</ele>
        <time>2022-05-01T10:53:00.557Z</time>
      </trkpt>
      <trkpt lat="41.17744" lon="20.31774">
        <ele>274.528603</ele>
        <time>2022-05-01T10:53:02.550Z</time>
      </trkpt>
      <trkpt lat="41.17749" lon="20.31758">
        <ele>274.543097</ele>
        <time>2022-05-01T10:53:04.553Z</time>
      </trkpt>
      <trkpt lat="41.17755" lon="20.3174">
        <ele>274.559329</ele>
        <time>2022-05-01T10:53:06.550Z</time>
      </trkpt>
      <trkpt lat="41.17761" lon="20.3172">
        <ele>274.577537</ele>
        <time>2022-05-01T10:53:08.546Z</time>
      </trkpt>
      <trkpt lat="41.17767" lon="20.317">
        <ele>274.596306</ele>
        <time>2022-05-01T10:53:10.574Z</time>
      </trkpt>
      <trkpt lat="41.17774" lon="20.3168">
        <ele>274.614754</ele>
        <time>2022-05-01T10:53:12.653Z</time>
      </trkpt>
      <trkpt lat="41.1778" lon="20.3166">
        <ele>274.63341</ele>
        <time>2022-05-01T10:53:14.534Z</time>
      </trkpt>
      <trkpt lat="41.17787" lon="20.31641">
        <ele>274.651054</ele>
        <time>2022-05-01T10:53:16.565Z</time>
      </trkpt>
      <trkpt lat="41.17793" lon="20.31623">
        <ele>274.667941</ele>
        <time>2022-05-01T10:53:18.549Z</time>
      </trkpt>
      <trkpt lat="41.17798" lon="20.31605">
        <ele>274.75748</ele>
        <time>2022-05-01T10:53:20.581Z</time>
      </trkpt>
      <trkpt lat="41.17803" lon="20.3159">
        <ele>275.893356</ele>
        <time>2022-05-01T10:53:22.556Z</time>
      </trkpt>
      <trkpt lat="41.17808" lon="20.31574">
        <ele>276.966431</ele>
        <time>2022-05-01T10:53:24.547Z</time>
      </trkpt>
      <trkpt lat="41.17813" lon="20.31559">
        <ele>278.057221</ele>
        <time>2022-05-01T10:53:26.540Z</time>
      </trkpt>
      <trkpt lat="41.17818" lon="20.31547">
        <ele>279.024742</ele>
        <time>2022-05-01T10:53:28.552Z</time>
      </trkpt>
      <trkpt lat="41.17823" lon="20.31535">
        <ele>279.906282</ele>
        <time>2022-05-01T10:53:30.551Z</time>
      </trkpt>
      <trkpt lat="41.17828" lon="20.31524">
        <ele>280.723701</ele>
        <time>2022-05-01T10:53:32.558Z</time>
      </trkpt>
      <trkpt lat="41.17833" lon="20.3151">
        <ele>281.813684</ele>
        <time>2022-05-01T10:53:35.571Z</time>
      </trkpt>
      <trkpt lat="41.17837" lon="20.31499">
        <ele>282.64101</ele>
        <time>2022-05-01T10:53:38.580Z</time>
      </trkpt>
      <trkpt lat="41.17841" lon="20.31487">
        <ele>283.47088</ele>
        <time>2022-05-01T10:53:43.543Z</time>
      </trkpt>
      <trkpt lat="41.17845" lon="20.31475">
        <ele>284.374511</ele>
        <time>2022-05-01T10:53:48.570Z</time>
      </trkpt>
      <trkpt lat="41.17853" lon="20.31465">
        <ele>285.324308</ele>
        <time>2022-05-01T10:55:20.583Z</time>
      </trkpt>
      <trkpt lat="41.17882" lon="20.31442">
        <ele>288.302244</ele>
        <time>2022-05-01T10:57:01.546Z</time>
      </trkpt>
      <trkpt lat="41.17891" lon="20.31437">
        <ele>289.170112</ele>
        <time>2022-05-01T10:57:06.547Z</time>
      </trkpt>
      <trkpt lat="41.17903" lon="20.31434">
        <ele>290.230511</ele>
        <time>2022-05-01T11:02:14.646Z</time>
      </trkpt>
      <trkpt lat="41.17899" lon="20.3141">
        <ele>291.337844</ele>
        <time>2022-05-01T11:04:48.548Z</time>
      </trkpt>
      <trkpt lat="41.17915" lon="20.31421">
        <ele>292.306851</ele>
        <time>2022-05-01T11:06:10.540Z</time>
      </trkpt>
      <trkpt lat="41.17901" lon="20.3142">
        <ele>293.091173</ele>
        <time>2022-05-01T11:06:19.546Z</time>
      </trkpt>
      <trkpt lat="41.17915" lon="20.31435">
        <ele>294.063197</ele>
        <time>2022-05-01T11:09:16.581Z</time>
      </trkpt>
      <trkpt lat="41.17925" lon="20.31432">
        <ele>294.603915</ele>
        <time>2022-05-01T11:09:19.556Z</time>
      </trkpt>
      <trkpt lat="41.17933" lon="20.31427">
        <ele>295.09228</ele>
        <time>2022-05-01T11:09:21.556Z</time>
      </trkpt>
      <trkpt lat="41.17942" lon="20.31427">
        <ele>295.574781</ele>
        <time>2022-05-01T11:09:23.539Z</time>
      </trkpt>
      <trkpt lat="41.17951" lon="20.31422">
        <ele>296.112338</ele>
        <time>2022-05-01T11:09:25.586Z</time>
      </trkpt>
      <trkpt lat="41.17963" lon="20.31413">
        <ele>296.82244</ele>
        <time>2022-05-01T11:09:28.563Z</time>
      </trkpt>
      <trkpt lat="41.17972" lon="20.31408">
        <ele>297.338485</ele>
        <time>2022-05-01T11:09:31.566Z</time>
      </trkpt>
      <trkpt lat="41.1798" lon="20.31402">
        <ele>297.8268</ele>
        <time>2022-05-01T11:09:34.546Z</time>
      </trkpt>
      <trkpt lat="41.17984" lon="20.31391">
        <ele>298.327822</ele>
        <time>2022-05-01T11:09:38.570Z</time>
      </trkpt>
      <trkpt lat="41.17988" lon="20.3138">
        <ele>298.817028</ele>
        <time>2022-05-01T11:09:41.547Z</time>
      </trkpt>
      <trkpt lat="41.17994" lon="20.31367">
        <ele>299.4432</ele>
        <time>2022-05-01T11:09:44.549Z</time>
      </trkpt>
      <trkpt lat="41.17998" lon="20.31353">
        <ele>300.055034</ele>
        <time>2022-05-01T11:09:47.545Z</time>
      </trkpt>
      <trkpt lat="41.18003" lon="20.31338">
        <ele>299.153193</ele>
        <time>2022-05-01T11:09:50.552Z</time>
      </trkpt>
      <trkpt lat="41.18009" lon="20.31325">
        <ele>297.923461</ele>
        <time>2022-05-01T11:09:53.542Z</time>
      </trkpt>
      <trkpt lat="41.18014" lon="20.31313">
        <ele>296.836528</ele>
        <time>2022-05-01T11:09:56.526Z</time>
      </trkpt>
      <trkpt lat="41.18019" lon="20.31301">
        <ele>295.775787</ele>
        <time>2022-05-01T11:09:59.559Z</time>
      </trkpt>
      <trkpt lat="41.18023" lon="20.31289">
        <ele>294.708804</ele>
        <time>2022-05-01T11:10:02.607Z</time>
      </trkpt>
      <trkpt lat="41.18027" lon="20.31274">
        <ele>293.518739</ele>
        <time>2022-05-01T11:10:06.571Z</time>
      </trkpt>
      <trkpt lat="41.1803" lon="20.31261">
        <ele>292.468504</ele>
        <time>2022-05-01T11:10:10.560Z</time>
      </trkpt>
      <trkpt lat="41.18034" lon="20.3125">
        <ele>291.508069</ele>
        <time>2022-05-01T11:10:13.547Z</time>
      </trkpt>
      <trkpt lat="41.18038" lon="20.31238">
        <ele>290.482774</ele>
        <time>2022-05-01T11:10:16.555Z</time>
      </trkpt>
      <trkpt lat="41.18042" lon="20.31226">
        <ele>289.447631</ele>
        <time>2022-05-01T11:10:19.556Z</time>
      </trkpt>
      <trkpt lat="41.18046" lon="20.31214">
        <ele>288.399271</ele>
        <time>2022-05-01T11:10:22.569Z</time>
      </trkpt>
      <trkpt lat="41.1805" lon="20.31201">
        <ele>287.359832</ele>
        <time>2022-05-01T11:10:25.537Z</time>
      </trkpt>
      <trkpt lat="41.18054" lon="20.31189">
        <ele>286.289005</ele>
        <time>2022-05-01T11:10:28.559Z</time>
      </trkpt>
      <trkpt lat="41.18058" lon="20.31176">
        <ele>285.211014</ele>
        <time>2022-05-01T11:10:31.570Z</time>
      </trkpt>
      <trkpt lat="41.18063" lon="20.31164">
        <ele>284.127473</ele>
        <time>2022-05-01T11:10:34.553Z</time>
      </trkpt>
      <trkpt lat="41.18067" lon="20.31151">
        <ele>283.031901</ele>
        <time>2022-05-01T11:10:37.555Z</time>
      </trkpt>
      <trkpt lat="41.18076" lon="20.31141">
        <ele>281.831729</ele>
        <time>2022-05-01T11:10:41.549Z</time>
      </trkpt>
      <trkpt lat="41.18085" lon="20.31139">
        <ele>282.072377</ele>
        <time>2022-05-01T11:10:45.538Z</time>
      </trkpt>
      <trkpt lat="41.18094" lon="20.31136">
        <ele>282.882566</ele>
        <time>2022-05-01T11:10:49.551Z</time>
      </trkpt>
      <trkpt lat="41.18103" lon="20.3113">
        <ele>283.68399</ele>
        <time>2022-05-01T11:10:52.579Z</time>
      </trkpt>
      <trkpt lat="41.18111" lon="20.31126">
        <ele>284.480254</ele>
        <time>2022-05-01T11:10:55.578Z</time>
      </trkpt>
      <trkpt lat="41.18122" lon="20.31124">
        <ele>285.390476</ele>
        <time>2022-05-01T11:11:00.551Z</time>
      </trkpt>
      <trkpt lat="41.18133" lon="20.31123">
        <ele>286.310627</ele>
        <time>2022-05-01T11:11:05.566Z</time>
      </trkpt>
      <trkpt lat="41.18142" lon="20.3112">
        <ele>287.108212</ele>
        <time>2022-05-01T11:11:09.602Z</time>
      </trkpt>
      <trkpt lat="41.18151" lon="20.31116">
        <ele>287.930856</ele>
        <time>2022-05-01T11:11:14.579Z</time>
      </trkpt>
      <trkpt lat="41.18162" lon="20.31114">
        <ele>288.859651</ele>
        <time>2022-05-01T11:11:20.582Z</time>
      </trkpt>
      <trkpt lat="41.18172" lon="20.31111">
        <ele>289.757873</ele>
        <time>2022-05-01T11:11:26.580Z</time>
      </trkpt>
      <trkpt lat="41.18182" lon="20.31109">
        <ele>290.625561</ele>
        <time>2022-05-01T11:11:32.572Z</time>
      </trkpt>
      <trkpt lat="41.18191" lon="20.31106">
        <ele>291.412</ele>
        <time>2022-05-01T11:11:37.549Z</time>
      </trkpt>
      <trkpt lat="41.18202" lon="20.31103">
        <ele>292.337932</ele>
        <time>2022-05-01T11:11:43.551Z</time>
      </trkpt>
      <trkpt lat="41.18212" lon="20.31099">
        <ele>293.247339</ele>
        <time>2022-05-01T11:11:49.604Z</time>
      </trkpt>
      <trkpt lat="41.18221" lon="20.31095">
        <ele>294.069982</ele>
        <time>2022-05-01T11:11:55.544Z</time>
      </trkpt>
      <trkpt lat="41.1823" lon="20.31091">
        <ele>294.851264</ele>
        <time>2022-05-01T11:12:00.591Z</time>
      </trkpt>
      <trkpt lat="41.18239" lon="20.31086">
        <ele>295.703171</ele>
        <time>2022-05-01T11:12:06.586Z</time>
      </trkpt>
      <trkpt lat="41.18249" lon="20.31081">
        <ele>296.613255</ele>
        <time>2022-05-01T11:12:12.572Z</time>
      </trkpt>
      <trkpt lat="41.18257" lon="20.31074">
        <ele>296.956347</ele>
        <time>2022-05-01T11:12:17.565Z</time>
      </trkpt>
      <trkpt lat="41.18265" lon="20.31067">
        <ele>297.07035</ele>
        <time>2022-05-01T11:12:21.559Z</time>
      </trkpt>
      <trkpt lat="41.18273" lon="20.31059">
        <ele>297.187432</ele>
        <time>2022-05-01T11:12:25.559Z</time>
      </trkpt>
      <trkpt lat="41.18282" lon="20.31052">
        <ele>297.309862</ele>
        <time>2022-05-01T11:12:29.548Z</time>
      </trkpt>
      <trkpt lat="41.1829" lon="20.31043">
        <ele>297.436473</ele>
        <time>2022-05-01T11:12:33.549Z</time>
      </trkpt>
      <trkpt lat="41.18298" lon="20.31034">
        <ele>297.558835</ele>
        <time>2022-05-01T11:12:37.551Z</time>
      </trkpt>
      <trkpt lat="41.18305" lon="20.31025">
        <ele>297.675451</ele>
        <time>2022-05-01T11:12:41.545Z</time>
      </trkpt>
      <trkpt lat="41.18311" lon="20.31014">
        <ele>297.801508</ele>
        <time>2022-05-01T11:12:45.546Z</time>
      </trkpt>
      <trkpt lat="41.18318" lon="20.31003">
        <ele>297.924609</ele>
        <time>2022-05-01T11:12:49.542Z</time>
      </trkpt>
      <trkpt lat="41.18323" lon="20.30992">
        <ele>298.040003</ele>
        <time>2022-05-01T11:12:53.567Z</time>
      </trkpt>
      <trkpt lat="41.18328" lon="20.30981">
        <ele>298.154089</ele>
        <time>2022-05-01T11:12:57.550Z</time>
      </trkpt>
      <trkpt lat="41.18333" lon="20.30971">
        <ele>298.269051</ele>
        <time>2022-05-01T11:13:01.554Z</time>
      </trkpt>
      <trkpt lat="41.18338" lon="20.30959">
        <ele>298.391337</ele>
        <time>2022-05-01T11:13:05.561Z</time>
      </trkpt>
      <trkpt lat="41.18343" lon="20.30948">
        <ele>298.505228</ele>
        <time>2022-05-01T11:13:09.560Z</time>
      </trkpt>
      <trkpt lat="41.18348" lon="20.30935">
        <ele>298.630386</ele>
        <time>2022-05-01T11:13:14.613Z</time>
      </trkpt>
      <trkpt lat="41.18353" lon="20.30925">
        <ele>298.740288</ele>
        <time>2022-05-01T11:13:18.545Z</time>
      </trkpt>
      <trkpt lat="41.18358" lon="20.30913">
        <ele>298.856326</ele>
        <time>2022-05-01T11:13:22.557Z</time>
      </trkpt>
      <trkpt lat="41.18362" lon="20.30902">
        <ele>298.977258</ele>
        <time>2022-05-01T11:13:26.588Z</time>
      </trkpt>
      <trkpt lat="41.18367" lon="20.30891">
        <ele>299.41443</ele>
        <time>2022-05-01T11:13:30.552Z</time>
      </trkpt>
      <trkpt lat="41.18372" lon="20.30881">
        <ele>300.015157</ele>
        <time>2022-05-01T11:13:34.543Z</time>
      </trkpt>
      <trkpt lat="41.18378" lon="20.30871">
        <ele>300.615885</ele>
        <time>2022-05-01T11:13:38.533Z</time>
      </trkpt>
      <trkpt lat="41.18385" lon="20.30862">
        <ele>301.282528</ele>
        <time>2022-05-01T11:13:43.559Z</time>
      </trkpt>
      <trkpt lat="41.18393" lon="20.30855">
        <ele>301.918737</ele>
        <time>2022-05-01T11:13:48.548Z</time>
      </trkpt>
      <trkpt lat="41.18401" lon="20.30848">
        <ele>302.538281</ele>
        <time>2022-05-01T11:13:53.575Z</time>
      </trkpt>
      <trkpt lat="41.18408" lon="20.30841">
        <ele>303.157826</ele>
        <time>2022-05-01T11:13:59.574Z</time>
      </trkpt>
      <trkpt lat="41.18417" lon="20.30834">
        <ele>303.807799</ele>
        <time>2022-05-01T11:14:05.539Z</time>
      </trkpt>
      <trkpt lat="41.18424" lon="20.30827">
        <ele>304.433709</ele>
        <time>2022-05-01T11:14:11.535Z</time>
      </trkpt>
      <trkpt lat="41.18431" lon="20.30818">
        <ele>305.064781</ele>
        <time>2022-05-01T11:14:18.553Z</time>
      </trkpt>
      <trkpt lat="41.18437" lon="20.30806">
        <ele>305.738582</ele>
        <time>2022-05-01T11:14:25.546Z</time>
      </trkpt>
      <trkpt lat="41.18442" lon="20.30796">
        <ele>306.376544</ele>
        <time>2022-05-01T11:14:31.549Z</time>
      </trkpt>
      <trkpt lat="41.18446" lon="20.30785">
        <ele>306.982115</ele>
        <time>2022-05-01T11:14:37.558Z</time>
      </trkpt>
      <trkpt lat="41.18452" lon="20.30775">
        <ele>307.618235</ele>
        <time>2022-05-01T11:14:43.559Z</time>
      </trkpt>
      <trkpt lat="41.18458" lon="20.30762">
        <ele>308.342079</ele>
        <time>2022-05-01T11:14:49.552Z</time>
      </trkpt>
      <trkpt lat="41.18462" lon="20.30751">
        <ele>308.942623</ele>
        <time>2022-05-01T11:14:54.551Z</time>
      </trkpt>
      <trkpt lat="41.18466" lon="20.3074">
        <ele>309.578667</ele>
        <time>2022-05-01T11:14:59.547Z</time>
      </trkpt>
      <trkpt lat="41.1847" lon="20.30727">
        <ele>310.298939</ele>
        <time>2022-05-01T11:15:04.551Z</time>
      </trkpt>
      <trkpt lat="41.18474" lon="20.30715">
        <ele>310.894778</ele>
        <time>2022-05-01T11:15:08.539Z</time>
      </trkpt>
      <trkpt lat="41.18478" lon="20.30702">
        <ele>310.680685</ele>
        <time>2022-05-01T11:15:12.544Z</time>
      </trkpt>
      <trkpt lat="41.18482" lon="20.30688">
        <ele>310.436976</ele>
        <time>2022-05-01T11:15:16.554Z</time>
      </trkpt>
      <trkpt lat="41.18484" lon="20.30675">
        <ele>310.23482</ele>
        <time>2022-05-01T11:15:19.561Z</time>
      </trkpt>
      <trkpt lat="41.18487" lon="20.30662">
        <ele>310.012913</ele>
        <time>2022-05-01T11:15:22.537Z</time>
      </trkpt>
      <trkpt lat="41.18492" lon="20.30647">
        <ele>309.757305</ele>
        <time>2022-05-01T11:15:25.558Z</time>
      </trkpt>
      <trkpt lat="41.18495" lon="20.30636">
        <ele>309.56196</ele>
        <time>2022-05-01T11:15:27.553Z</time>
      </trkpt>
      <trkpt lat="41.18501" lon="20.30623">
        <ele>309.335487</ele>
        <time>2022-05-01T11:15:29.580Z</time>
      </trkpt>
      <trkpt lat="41.18507" lon="20.3061">
        <ele>309.091107</ele>
        <time>2022-05-01T11:15:31.553Z</time>
      </trkpt>
      <trkpt lat="41.18514" lon="20.30597">
        <ele>308.841699</ele>
        <time>2022-05-01T11:15:33.561Z</time>
      </trkpt>
      <trkpt lat="41.18522" lon="20.30581">
        <ele>308.536697</ele>
        <time>2022-05-01T11:15:35.580Z</time>
      </trkpt>
      <trkpt lat="41.18531" lon="20.30565">
        <ele>308.209095</ele>
        <time>2022-05-01T11:15:37.551Z</time>
      </trkpt>
      <trkpt lat="41.18541" lon="20.30547">
        <ele>307.863786</ele>
        <time>2022-05-01T11:15:39.552Z</time>
      </trkpt>
      <trkpt lat="41.18551" lon="20.30529">
        <ele>307.5008</ele>
        <time>2022-05-01T11:15:41.561Z</time>
      </trkpt>
      <trkpt lat="41.18561" lon="20.3051">
        <ele>307.133988</ele>
        <time>2022-05-01T11:15:43.537Z</time>
      </trkpt>
      <trkpt lat="41.18572" lon="20.30491">
        <ele>306.836072</ele>
        <time>2022-05-01T11:15:45.570Z</time>
      </trkpt>
      <trkpt lat="41.18582" lon="20.30473">
        <ele>306.543502</ele>
        <time>2022-05-01T11:15:47.561Z</time>
      </trkpt>
      <trkpt lat="41.18592" lon="20.30455">
        <ele>306.260944</ele>
        <time>2022-05-01T11:15:49.551Z</time>
      </trkpt>
      <trkpt lat="41.18602" lon="20.30437">
        <ele>305.988535</ele>
        <time>2022-05-01T11:15:51.551Z</time>
      </trkpt>
      <trkpt lat="41.18611" lon="20.3042">
        <ele>305.724194</ele>
        <time>2022-05-01T11:15:53.550Z</time>
      </trkpt>
      <trkpt lat="41.1862" lon="20.30404">
        <ele>305.470909</ele>
        <time>2022-05-01T11:15:55.547Z</time>
      </trkpt>
      <trkpt lat="41.18629" lon="20.30388">
        <ele>305.221678</ele>
        <time>2022-05-01T11:15:57.568Z</time>
      </trkpt>
      <trkpt lat="41.18636" lon="20.30373">
        <ele>304.990982</ele>
        <time>2022-05-01T11:15:59.540Z</time>
      </trkpt>
      <trkpt lat="41.18641" lon="20.30357">
        <ele>304.779876</ele>
        <time>2022-05-01T11:16:01.564Z</time>
      </trkpt>
      <trkpt lat="41.18644" lon="20.30343">
        <ele>304.595755</ele>
        <time>2022-05-01T11:16:03.550Z</time>
      </trkpt>
      <trkpt lat="41.18645" lon="20.30331">
        <ele>304.43643</ele>
        <time>2022-05-01T11:16:05.547Z</time>
      </trkpt>
      <trkpt lat="41.18645" lon="20.30315">
        <ele>304.239463</ele>
        <time>2022-05-01T11:16:08.557Z</time>
      </trkpt>
      <trkpt lat="41.18644" lon="20.30303">
        <ele>304.200331</ele>
        <time>2022-05-01T11:16:11.533Z</time>
      </trkpt>
      <trkpt lat="41.18642" lon="20.30289">
        <ele>304.984655</ele>
        <time>2022-05-01T11:16:15.546Z</time>
      </trkpt>
      <trkpt lat="41.1864" lon="20.30278">
        <ele>305.682778</ele>
        <time>2022-05-01T11:16:19.550Z</time>
      </trkpt>
      <trkpt lat="41.18637" lon="20.30266">
        <ele>306.39428</ele>
        <time>2022-05-01T11:16:23.567Z</time>
      </trkpt>
      <trkpt lat="41.18634" lon="20.30254">
        <ele>307.120188</ele>
        <time>2022-05-01T11:16:27.551Z</time>
      </trkpt>
      <trkpt lat="41.1863" lon="20.30243">
        <ele>307.883056</ele>
        <time>2022-05-01T11:16:32.559Z</time>
      </trkpt>
      <trkpt lat="41.18626" lon="20.30231">
        <ele>308.586591</ele>
        <time>2022-05-01T11:16:37.565Z</time>
      </trkpt>
      <trkpt lat="41.18622" lon="20.30218">
        <ele>309.417893</ele>
        <time>2022-05-01T11:16:43.549Z</time>
      </trkpt>
      <trkpt lat="41.1862" lon="20.30205">
        <ele>310.157329</ele>
        <time>2022-05-01T11:16:49.556Z</time>
      </trkpt>
      <trkpt lat="41.18618" lon="20.30193">
        <ele>310.895034</ele>
        <time>2022-05-01T11:16:55.557Z</time>
      </trkpt>
      <trkpt lat="41.18618" lon="20.3018">
        <ele>311.638317</ele>
        <time>2022-05-01T11:17:01.551Z</time>
      </trkpt>
      <trkpt lat="41.18618" lon="20.30168">
        <ele>312.376444</ele>
        <time>2022-05-01T11:17:08.550Z</time>
      </trkpt>
      <trkpt lat="41.1862" lon="20.30155">
        <ele>313.107834</ele>
        <time>2022-05-01T11:17:15.555Z</time>
      </trkpt>
      <trkpt lat="41.18621" lon="20.30143">
        <ele>313.803711</ele>
        <time>2022-05-01T11:17:21.556Z</time>
      </trkpt>
      <trkpt lat="41.18624" lon="20.3013">
        <ele>314.605072</ele>
        <time>2022-05-01T11:17:28.595Z</time>
      </trkpt>
      <trkpt lat="41.18628" lon="20.30119">
        <ele>315.31728</ele>
        <time>2022-05-01T11:17:34.555Z</time>
      </trkpt>
      <trkpt lat="41.18633" lon="20.30109">
        <ele>316.013118</ele>
        <time>2022-05-01T11:17:39.543Z</time>
      </trkpt>
      <trkpt lat="41.1864" lon="20.30101">
        <ele>316.712403</ele>
        <time>2022-05-01T11:17:45.553Z</time>
      </trkpt>
      <trkpt lat="41.18646" lon="20.30092">
        <ele>317.414607</ele>
        <time>2022-05-01T11:17:51.548Z</time>
      </trkpt>
      <trkpt lat="41.18653" lon="20.30081">
        <ele>317.886842</ele>
        <time>2022-05-01T11:17:58.547Z</time>
      </trkpt>
      <trkpt lat="41.18659" lon="20.30071">
        <ele>317.598983</ele>
        <time>2022-05-01T11:18:04.544Z</time>
      </trkpt>
      <trkpt lat="41.18666" lon="20.3006">
        <ele>317.286111</ele>
        <time>2022-05-01T11:18:09.566Z</time>
      </trkpt>
      <trkpt lat="41.18672" lon="20.30048">
        <ele>316.975758</ele>
        <time>2022-05-01T11:18:13.532Z</time>
      </trkpt>
      <trkpt lat="41.18677" lon="20.30038">
        <ele>316.714058</ele>
        <time>2022-05-01T11:18:16.557Z</time>
      </trkpt>
      <trkpt lat="41.18682" lon="20.30025">
        <ele>316.398476</ele>
        <time>2022-05-01T11:18:19.546Z</time>
      </trkpt>
      <trkpt lat="41.18685" lon="20.30013">
        <ele>316.136986</ele>
        <time>2022-05-01T11:18:21.563Z</time>
      </trkpt>
      <trkpt lat="41.18689" lon="20.29999">
        <ele>315.819982</ele>
        <time>2022-05-01T11:18:23.563Z</time>
      </trkpt>
      <trkpt lat="41.18692" lon="20.29983">
        <ele>315.451863</ele>
        <time>2022-05-01T11:18:25.566Z</time>
      </trkpt>
      <trkpt lat="41.18696" lon="20.29965">
        <ele>315.047785</ele>
        <time>2022-05-01T11:18:27.549Z</time>
      </trkpt>
      <trkpt lat="41.18701" lon="20.29946">
        <ele>314.614507</ele>
        <time>2022-05-01T11:18:29.555Z</time>
      </trkpt>
      <trkpt lat="41.18707" lon="20.29926">
        <ele>314.155107</ele>
        <time>2022-05-01T11:18:31.560Z</time>
      </trkpt>
      <trkpt lat="41.18715" lon="20.29907">
        <ele>313.675461</ele>
        <time>2022-05-01T11:18:33.554Z</time>
      </trkpt>
      <trkpt lat="41.18725" lon="20.29888">
        <ele>313.178384</ele>
        <time>2022-05-01T11:18:35.557Z</time>
      </trkpt>
      <trkpt lat="41.1873" lon="20.29878">
        <ele>312.916359</ele>
        <time>2022-05-01T11:18:36.538Z</time>
      </trkpt>
      <trkpt lat="41.18736" lon="20.29869">
        <ele>312.411942</ele>
        <time>2022-05-01T11:18:37.535Z</time>
      </trkpt>
      <trkpt lat="41.18749" lon="20.29852">
        <ele>311.147498</ele>
        <time>2022-05-01T11:18:39.565Z</time>
      </trkpt>
      <trkpt lat="41.18762" lon="20.29836">
        <ele>309.886668</ele>
        <time>2022-05-01T11:18:41.598Z</time>
      </trkpt>
      <trkpt lat="41.18774" lon="20.29819">
        <ele>308.635923</ele>
        <time>2022-05-01T11:18:43.551Z</time>
      </trkpt>
      <trkpt lat="41.18785" lon="20.298">
        <ele>307.3555</ele>
        <time>2022-05-01T11:18:45.552Z</time>
      </trkpt>
      <trkpt lat="41.18789" lon="20.29788">
        <ele>306.661713</ele>
        <time>2022-05-01T11:18:46.552Z</time>
      </trkpt>
      <trkpt lat="41.18792" lon="20.29776">
        <ele>305.966641</ele>
        <time>2022-05-01T11:18:47.589Z</time>
      </trkpt>
      <trkpt lat="41.18794" lon="20.29763">
        <ele>305.273645</ele>
        <time>2022-05-01T11:18:48.553Z</time>
      </trkpt>
      <trkpt lat="41.18794" lon="20.29749">
        <ele>304.535379</ele>
        <time>2022-05-01T11:18:49.575Z</time>
      </trkpt>
      <trkpt lat="41.18794" lon="20.29736">
        <ele>303.812655</ele>
        <time>2022-05-01T11:18:50.550Z</time>
      </trkpt>
      <trkpt lat="41.18792" lon="20.29722">
        <ele>303.056362</ele>
        <time>2022-05-01T11:18:51.557Z</time>
      </trkpt>
      <trkpt lat="41.1879" lon="20.29708">
        <ele>302.305102</ele>
        <time>2022-05-01T11:18:52.548Z</time>
      </trkpt>
      <trkpt lat="41.18788" lon="20.29694">
        <ele>301.568845</ele>
        <time>2022-05-01T11:18:53.549Z</time>
      </trkpt>
      <trkpt lat="41.18785" lon="20.29682">
        <ele>300.851789</ele>
        <time>2022-05-01T11:18:54.556Z</time>
      </trkpt>
      <trkpt lat="41.18781" lon="20.29669">
        <ele>300.103894</ele>
        <time>2022-05-01T11:18:55.551Z</time>
      </trkpt>
      <trkpt lat="41.18777" lon="20.29656">
        <ele>299.546736</ele>
        <time>2022-05-01T11:18:56.566Z</time>
      </trkpt>
      <trkpt lat="41.18774" lon="20.29643">
        <ele>298.993982</ele>
        <time>2022-05-01T11:18:57.542Z</time>
      </trkpt>
      <trkpt lat="41.18772" lon="20.29629">
        <ele>298.440418</ele>
        <time>2022-05-01T11:18:58.587Z</time>
      </trkpt>
      <trkpt lat="41.18772" lon="20.29615">
        <ele>297.885808</ele>
        <time>2022-05-01T11:18:59.546Z</time>
      </trkpt>
      <trkpt lat="41.18772" lon="20.29601">
        <ele>297.323065</ele>
        <time>2022-05-01T11:19:00.549Z</time>
      </trkpt>
      <trkpt lat="41.18773" lon="20.29586">
        <ele>296.760051</ele>
        <time>2022-05-01T11:19:01.544Z</time>
      </trkpt>
      <trkpt lat="41.18773" lon="20.29572">
        <ele>296.208895</ele>
        <time>2022-05-01T11:19:02.562Z</time>
      </trkpt>
      <trkpt lat="41.18774" lon="20.29558">
        <ele>295.640832</ele>
        <time>2022-05-01T11:19:03.551Z</time>
      </trkpt>
      <trkpt lat="41.18776" lon="20.29544">
        <ele>295.069888</ele>
        <time>2022-05-01T11:19:04.533Z</time>
      </trkpt>
      <trkpt lat="41.18778" lon="20.2953">
        <ele>294.495971</ele>
        <time>2022-05-01T11:19:05.548Z</time>
      </trkpt>
      <trkpt lat="41.18781" lon="20.29515">
        <ele>293.911038</ele>
        <time>2022-05-01T11:19:06.547Z</time>
      </trkpt>
      <trkpt lat="41.18785" lon="20.29502">
        <ele>293.336691</ele>
        <time>2022-05-01T11:19:07.555Z</time>
      </trkpt>
      <trkpt lat="41.18791" lon="20.29489">
        <ele>292.735938</ele>
        <time>2022-05-01T11:19:08.555Z</time>
      </trkpt>
      <trkpt lat="41.18797" lon="20.29475">
        <ele>292.091999</ele>
        <time>2022-05-01T11:19:09.554Z</time>
      </trkpt>
      <trkpt lat="41.18804" lon="20.29461">
        <ele>291.428525</ele>
        <time>2022-05-01T11:19:10.592Z</time>
      </trkpt>
      <trkpt lat="41.1881" lon="20.29446">
        <ele>290.766492</ele>
        <time>2022-05-01T11:19:11.565Z</time>
      </trkpt>
      <trkpt lat="41.18816" lon="20.29432">
        <ele>290.104255</ele>
        <time>2022-05-01T11:19:12.547Z</time>
      </trkpt>
      <trkpt lat="41.18822" lon="20.29418">
        <ele>289.437285</ele>
        <time>2022-05-01T11:19:13.530Z</time>
      </trkpt>
      <trkpt lat="41.18828" lon="20.29403">
        <ele>288.768127</ele>
        <time>2022-05-01T11:19:14.551Z</time>
      </trkpt>
      <trkpt lat="41.18833" lon="20.29389">
        <ele>288.092819</ele>
        <time>2022-05-01T11:19:15.552Z</time>
      </trkpt>
      <trkpt lat="41.18839" lon="20.29374">
        <ele>287.407709</ele>
        <time>2022-05-01T11:19:16.543Z</time>
      </trkpt>
      <trkpt lat="41.18846" lon="20.29359">
        <ele>286.689007</ele>
        <time>2022-05-01T11:19:17.543Z</time>
      </trkpt>
      <trkpt lat="41.18852" lon="20.29344">
        <ele>285.990879</ele>
        <time>2022-05-01T11:19:18.555Z</time>
      </trkpt>
      <trkpt lat="41.18857" lon="20.2933">
        <ele>285.336292</ele>
        <time>2022-05-01T11:19:19.556Z</time>
      </trkpt>
      <trkpt lat="41.18863" lon="20.29316">
        <ele>284.695145</ele>
        <time>2022-05-01T11:19:20.551Z</time>
      </trkpt>
      <trkpt lat="41.18869" lon="20.29303">
        <ele>284.056287</ele>
        <time>2022-05-01T11:19:21.598Z</time>
      </trkpt>
      <trkpt lat="41.18876" lon="20.2929">
        <ele>283.412751</ele>
        <time>2022-05-01T11:19:22.533Z</time>
      </trkpt>
      <trkpt lat="41.18883" lon="20.29277">
        <ele>282.762734</ele>
        <time>2022-05-01T11:19:23.543Z</time>
      </trkpt>
      <trkpt lat="41.18889" lon="20.29264">
        <ele>282.123877</ele>
        <time>2022-05-01T11:19:24.555Z</time>
      </trkpt>
      <trkpt lat="41.18894" lon="20.2925">
        <ele>281.493591</ele>
        <time>2022-05-01T11:19:25.552Z</time>
      </trkpt>
      <trkpt lat="41.18899" lon="20.29236">
        <ele>280.862624</ele>
        <time>2022-05-01T11:19:26.583Z</time>
      </trkpt>
      <trkpt lat="41.18902" lon="20.29221">
        <ele>280.003866</ele>
        <time>2022-05-01T11:19:27.577Z</time>
      </trkpt>
      <trkpt lat="41.18904" lon="20.29206">
        <ele>279.103762</ele>
        <time>2022-05-01T11:19:28.550Z</time>
      </trkpt>
      <trkpt lat="41.18903" lon="20.29191">
        <ele>278.180408</ele>
        <time>2022-05-01T11:19:29.550Z</time>
      </trkpt>
      <trkpt lat="41.18901" lon="20.29175">
        <ele>277.243118</ele>
        <time>2022-05-01T11:19:30.553Z</time>
      </trkpt>
      <trkpt lat="41.18898" lon="20.29159">
        <ele>276.26433</ele>
        <time>2022-05-01T11:19:31.548Z</time>
      </trkpt>
      <trkpt lat="41.18894" lon="20.29143">
        <ele>275.273844</ele>
        <time>2022-05-01T11:19:32.551Z</time>
      </trkpt>
      <trkpt lat="41.18889" lon="20.29127">
        <ele>274.277766</ele>
        <time>2022-05-01T11:19:33.540Z</time>
      </trkpt>
      <trkpt lat="41.18883" lon="20.29112">
        <ele>273.262019</ele>
        <time>2022-05-01T11:19:34.567Z</time>
      </trkpt>
      <trkpt lat="41.18876" lon="20.29097">
        <ele>272.270975</ele>
        <time>2022-05-01T11:19:35.557Z</time>
      </trkpt>
      <trkpt lat="41.18869" lon="20.29084">
        <ele>271.302488</ele>
        <time>2022-05-01T11:19:36.553Z</time>
      </trkpt>
      <trkpt lat="41.18862" lon="20.29071">
        <ele>270.348954</ele>
        <time>2022-05-01T11:19:37.545Z</time>
      </trkpt>
      <trkpt lat="41.18854" lon="20.29059">
        <ele>269.397055</ele>
        <time>2022-05-01T11:19:38.570Z</time>
      </trkpt>
      <trkpt lat="41.18845" lon="20.29048">
        <ele>268.467614</ele>
        <time>2022-05-01T11:19:39.548Z</time>
      </trkpt>
      <trkpt lat="41.18837" lon="20.29037">
        <ele>267.574861</ele>
        <time>2022-05-01T11:19:40.549Z</time>
      </trkpt>
      <trkpt lat="41.18828" lon="20.29028">
        <ele>266.69741</ele>
        <time>2022-05-01T11:19:41.560Z</time>
      </trkpt>
      <trkpt lat="41.18819" lon="20.29018">
        <ele>266.063219</ele>
        <time>2022-05-01T11:19:42.536Z</time>
      </trkpt>
      <trkpt lat="41.18811" lon="20.29009">
        <ele>265.426384</ele>
        <time>2022-05-01T11:19:43.553Z</time>
      </trkpt>
      <trkpt lat="41.18802" lon="20.29">
        <ele>264.801055</ele>
        <time>2022-05-01T11:19:44.535Z</time>
      </trkpt>
      <trkpt lat="41.18794" lon="20.28991">
        <ele>264.188124</ele>
        <time>2022-05-01T11:19:45.558Z</time>
      </trkpt>
      <trkpt lat="41.18785" lon="20.28982">
        <ele>263.565459</ele>
        <time>2022-05-01T11:19:46.557Z</time>
      </trkpt>
      <trkpt lat="41.18776" lon="20.28973">
        <ele>262.94544</ele>
        <time>2022-05-01T11:19:47.559Z</time>
      </trkpt>
      <trkpt lat="41.18768" lon="20.28964">
        <ele>262.340339</ele>
        <time>2022-05-01T11:19:48.547Z</time>
      </trkpt>
      <trkpt lat="41.18759" lon="20.28956">
        <ele>261.732645</ele>
        <time>2022-05-01T11:19:49.581Z</time>
      </trkpt>
      <trkpt lat="41.18751" lon="20.28947">
        <ele>261.133886</ele>
        <time>2022-05-01T11:19:50.587Z</time>
      </trkpt>
      <trkpt lat="41.18743" lon="20.28938">
        <ele>260.534207</ele>
        <time>2022-05-01T11:19:51.539Z</time>
      </trkpt>
      <trkpt lat="41.18735" lon="20.28929">
        <ele>259.938903</ele>
        <time>2022-05-01T11:19:52.558Z</time>
      </trkpt>
      <trkpt lat="41.18727" lon="20.2892">
        <ele>259.360472</ele>
        <time>2022-05-01T11:19:53.536Z</time>
      </trkpt>
      <trkpt lat="41.18719" lon="20.28912">
        <ele>258.791816</ele>
        <time>2022-05-01T11:19:54.547Z</time>
      </trkpt>
      <trkpt lat="41.18711" lon="20.28904">
        <ele>258.219561</ele>
        <time>2022-05-01T11:19:55.548Z</time>
      </trkpt>
      <trkpt lat="41.18703" lon="20.28896">
        <ele>257.653579</ele>
        <time>2022-05-01T11:19:56.565Z</time>
      </trkpt>
      <trkpt lat="41.18696" lon="20.28887">
        <ele>257.092006</ele>
        <time>2022-05-01T11:19:57.552Z</time>
      </trkpt>
      <trkpt lat="41.18688" lon="20.28879">
        <ele>256.543746</ele>
        <time>2022-05-01T11:19:58.546Z</time>
      </trkpt>
      <trkpt lat="41.1868" lon="20.28871">
        <ele>256.470105</ele>
        <time>2022-05-01T11:19:59.545Z</time>
      </trkpt>
      <trkpt lat="41.18672" lon="20.28863">
        <ele>256.39706</ele>
        <time>2022-05-01T11:20:00.549Z</time>
      </trkpt>
      <trkpt lat="41.18665" lon="20.28855">
        <ele>256.32376</ele>
        <time>2022-05-01T11:20:01.595Z</time>
      </trkpt>
      <trkpt lat="41.18657" lon="20.28848">
        <ele>256.251898</ele>
        <time>2022-05-01T11:20:02.547Z</time>
      </trkpt>
      <trkpt lat="41.1865" lon="20.28839">
        <ele>256.179581</ele>
        <time>2022-05-01T11:20:03.540Z</time>
      </trkpt>
      <trkpt lat="41.18643" lon="20.28829">
        <ele>256.105832</ele>
        <time>2022-05-01T11:20:04.552Z</time>
      </trkpt>
      <trkpt lat="41.18638" lon="20.28818">
        <ele>256.028358</ele>
        <time>2022-05-01T11:20:05.553Z</time>
      </trkpt>
      <trkpt lat="41.18634" lon="20.28805">
        <ele>255.953224</ele>
        <time>2022-05-01T11:20:06.552Z</time>
      </trkpt>
      <trkpt lat="41.18632" lon="20.28793">
        <ele>255.882115</ele>
        <time>2022-05-01T11:20:07.561Z</time>
      </trkpt>
      <trkpt lat="41.18631" lon="20.2878">
        <ele>255.810908</ele>
        <time>2022-05-01T11:20:08.565Z</time>
      </trkpt>
      <trkpt lat="41.18631" lon="20.28768">
        <ele>255.740834</ele>
        <time>2022-05-01T11:20:09.552Z</time>
      </trkpt>
      <trkpt lat="41.18632" lon="20.28756">
        <ele>255.672311</ele>
        <time>2022-05-01T11:20:10.559Z</time>
      </trkpt>
      <trkpt lat="41.18633" lon="20.28733">
        <ele>255.542125</ele>
        <time>2022-05-01T11:20:12.533Z</time>
      </trkpt>
      <trkpt lat="41.18635" lon="20.28711">
        <ele>255.416723</ele>
        <time>2022-05-01T11:20:14.538Z</time>
      </trkpt>
      <trkpt lat="41.1864" lon="20.28691">
        <ele>255.296324</ele>
        <time>2022-05-01T11:20:16.570Z</time>
      </trkpt>
      <trkpt lat="41.18646" lon="20.28672">
        <ele>255.180496</ele>
        <time>2022-05-01T11:20:18.552Z</time>
      </trkpt>
      <trkpt lat="41.18651" lon="20.28653">
        <ele>255.069108</ele>
        <time>2022-05-01T11:20:20.565Z</time>
      </trkpt>
      <trkpt lat="41.18656" lon="20.28635">
        <ele>254.956677</ele>
        <time>2022-05-01T11:20:22.546Z</time>
      </trkpt>
      <trkpt lat="41.18662" lon="20.28615">
        <ele>254.837315</ele>
        <time>2022-05-01T11:20:24.601Z</time>
      </trkpt>
      <trkpt lat="41.18669" lon="20.28596">
        <ele>254.720994</ele>
        <time>2022-05-01T11:20:26.560Z</time>
      </trkpt>
      <trkpt lat="41.18676" lon="20.28579">
        <ele>254.607874</ele>
        <time>2022-05-01T11:20:28.560Z</time>
      </trkpt>
      <trkpt lat="41.18685" lon="20.28563">
        <ele>254.495818</ele>
        <time>2022-05-01T11:20:30.531Z</time>
      </trkpt>
      <trkpt lat="41.18693" lon="20.28547">
        <ele>254.385581</ele>
        <time>2022-05-01T11:20:32.555Z</time>
      </trkpt>
      <trkpt lat="41.18701" lon="20.28532">
        <ele>254.281169</ele>
        <time>2022-05-01T11:20:34.529Z</time>
      </trkpt>
      <trkpt lat="41.18709" lon="20.28516">
        <ele>254.174774</ele>
        <time>2022-05-01T11:20:36.594Z</time>
      </trkpt>
      <trkpt lat="41.18715" lon="20.28501">
        <ele>254.079755</ele>
        <time>2022-05-01T11:20:38.557Z</time>
      </trkpt>
      <trkpt lat="41.18722" lon="20.28487">
        <ele>253.984801</ele>
        <time>2022-05-01T11:20:40.534Z</time>
      </trkpt>
      <trkpt lat="41.1873" lon="20.28473">
        <ele>253.884081</ele>
        <time>2022-05-01T11:20:42.587Z</time>
      </trkpt>
      <trkpt lat="41.18738" lon="20.2846">
        <ele>253.721202</ele>
        <time>2022-05-01T11:20:44.552Z</time>
      </trkpt>
      <trkpt lat="41.18746" lon="20.28448">
        <ele>253.523513</ele>
        <time>2022-05-01T11:20:46.530Z</time>
      </trkpt>
      <trkpt lat="41.18754" lon="20.28435">
        <ele>253.309609</ele>
        <time>2022-05-01T11:20:48.589Z</time>
      </trkpt>
      <trkpt lat="41.18763" lon="20.28423">
        <ele>253.103781</ele>
        <time>2022-05-01T11:20:50.551Z</time>
      </trkpt>
      <trkpt lat="41.18771" lon="20.28411">
        <ele>252.908115</ele>
        <time>2022-05-01T11:20:52.564Z</time>
      </trkpt>
      <trkpt lat="41.18777" lon="20.28398">
        <ele>252.714313</ele>
        <time>2022-05-01T11:20:54.542Z</time>
      </trkpt>
      <trkpt lat="41.18783" lon="20.28384">
        <ele>252.513206</ele>
        <time>2022-05-01T11:20:56.554Z</time>
      </trkpt>
      <trkpt lat="41.18787" lon="20.28369">
        <ele>252.315843</ele>
        <time>2022-05-01T11:20:58.538Z</time>
      </trkpt>
      <trkpt lat="41.1879" lon="20.28354">
        <ele>252.119007</ele>
        <time>2022-05-01T11:21:00.553Z</time>
      </trkpt>
      <trkpt lat="41.18791" lon="20.28339">
        <ele>251.935012</ele>
        <time>2022-05-01T11:21:02.544Z</time>
      </trkpt>
      <trkpt lat="41.1879" lon="20.28325">
        <ele>251.757667</ele>
        <time>2022-05-01T11:21:04.549Z</time>
      </trkpt>
      <trkpt lat="41.18788" lon="20.28311">
        <ele>251.585397</ele>
        <time>2022-05-01T11:21:06.559Z</time>
      </trkpt>
      <trkpt lat="41.18786" lon="20.283">
        <ele>251.435794</ele>
        <time>2022-05-01T11:21:08.544Z</time>
      </trkpt>
      <trkpt lat="41.18781" lon="20.28288">
        <ele>251.271504</ele>
        <time>2022-05-01T11:21:10.595Z</time>
      </trkpt>
      <trkpt lat="41.18776" lon="20.28277">
        <ele>251.109257</ele>
        <time>2022-05-01T11:21:12.555Z</time>
      </trkpt>
      <trkpt lat="41.18771" lon="20.28266">
        <ele>250.944364</ele>
        <time>2022-05-01T11:21:14.552Z</time>
      </trkpt>
      <trkpt lat="41.18763" lon="20.28255">
        <ele>250.751529</ele>
        <time>2022-05-01T11:21:16.591Z</time>
      </trkpt>
      <trkpt lat="41.18754" lon="20.28245">
        <ele>250.567051</ele>
        <time>2022-05-01T11:21:18.570Z</time>
      </trkpt>
      <trkpt lat="41.18745" lon="20.28237">
        <ele>250.383212</ele>
        <time>2022-05-01T11:21:20.553Z</time>
      </trkpt>
      <trkpt lat="41.18736" lon="20.28229">
        <ele>250.202262</ele>
        <time>2022-05-01T11:21:22.549Z</time>
      </trkpt>
      <trkpt lat="41.18728" lon="20.28222">
        <ele>250.028306</ele>
        <time>2022-05-01T11:21:24.550Z</time>
      </trkpt>
      <trkpt lat="41.18719" lon="20.28215">
        <ele>249.859971</ele>
        <time>2022-05-01T11:21:26.548Z</time>
      </trkpt>
      <trkpt lat="41.18711" lon="20.2821">
        <ele>249.702271</ele>
        <time>2022-05-01T11:21:28.534Z</time>
      </trkpt>
      <trkpt lat="41.18701" lon="20.28202">
        <ele>249.504384</ele>
        <time>2022-05-01T11:21:30.558Z</time>
      </trkpt>
      <trkpt lat="41.1869" lon="20.28194">
        <ele>249.300065</ele>
        <time>2022-05-01T11:21:32.563Z</time>
      </trkpt>
      <trkpt lat="41.1868" lon="20.28186">
        <ele>249.101244</ele>
        <time>2022-05-01T11:21:34.547Z</time>
      </trkpt>
      <trkpt lat="41.1867" lon="20.28178">
        <ele>248.899232</ele>
        <time>2022-05-01T11:21:36.546Z</time>
      </trkpt>
      <trkpt lat="41.18659" lon="20.28169">
        <ele>248.688812</ele>
        <time>2022-05-01T11:21:38.551Z</time>
      </trkpt>
      <trkpt lat="41.18648" lon="20.2816">
        <ele>248.478997</ele>
        <time>2022-05-01T11:21:40.560Z</time>
      </trkpt>
      <trkpt lat="41.18638" lon="20.2815">
        <ele>248.266466</ele>
        <time>2022-05-01T11:21:42.559Z</time>
      </trkpt>
      <trkpt lat="41.18628" lon="20.2814">
        <ele>248.057045</ele>
        <time>2022-05-01T11:21:44.578Z</time>
      </trkpt>
      <trkpt lat="41.18618" lon="20.28129">
        <ele>247.837614</ele>
        <time>2022-05-01T11:21:46.564Z</time>
      </trkpt>
      <trkpt lat="41.18608" lon="20.28118">
        <ele>248.231932</ele>
        <time>2022-05-01T11:21:48.544Z</time>
      </trkpt>
      <trkpt lat="41.18599" lon="20.28106">
        <ele>248.636543</ele>
        <time>2022-05-01T11:21:50.547Z</time>
      </trkpt>
      <trkpt lat="41.1859" lon="20.28094">
        <ele>249.028193</ele>
        <time>2022-05-01T11:21:52.544Z</time>
      </trkpt>
      <trkpt lat="41.18581" lon="20.28082">
        <ele>249.418942</ele>
        <time>2022-05-01T11:21:54.543Z</time>
      </trkpt>
      <trkpt lat="41.18573" lon="20.28071">
        <ele>249.784126</ele>
        <time>2022-05-01T11:21:56.560Z</time>
      </trkpt>
      <trkpt lat="41.18566" lon="20.28059">
        <ele>250.142022</ele>
        <time>2022-05-01T11:21:58.551Z</time>
      </trkpt>
      <trkpt lat="41.18558" lon="20.28049">
        <ele>250.490939</ele>
        <time>2022-05-01T11:22:00.550Z</time>
      </trkpt>
      <trkpt lat="41.18551" lon="20.28038">
        <ele>250.831763</ele>
        <time>2022-05-01T11:22:02.554Z</time>
      </trkpt>
      <trkpt lat="41.18544" lon="20.28027">
        <ele>251.169269</ele>
        <time>2022-05-01T11:22:04.559Z</time>
      </trkpt>
      <trkpt lat="41.18538" lon="20.28015">
        <ele>251.501328</ele>
        <time>2022-05-01T11:22:06.531Z</time>
      </trkpt>
      <trkpt lat="41.18532" lon="20.28004">
        <ele>251.823891</ele>
        <time>2022-05-01T11:22:08.535Z</time>
      </trkpt>
      <trkpt lat="41.18526" lon="20.27993">
        <ele>252.129954</ele>
        <time>2022-05-01T11:22:10.594Z</time>
      </trkpt>
      <trkpt lat="41.18521" lon="20.27981">
        <ele>252.452249</ele>
        <time>2022-05-01T11:22:12.569Z</time>
      </trkpt>
      <trkpt lat="41.18516" lon="20.27969">
        <ele>252.767448</ele>
        <time>2022-05-01T11:22:14.558Z</time>
      </trkpt>
      <trkpt lat="41.18512" lon="20.27957">
        <ele>253.083999</ele>
        <time>2022-05-01T11:22:16.552Z</time>
      </trkpt>
      <trkpt lat="41.18508" lon="20.27944">
        <ele>253.407206</ele>
        <time>2022-05-01T11:22:18.544Z</time>
      </trkpt>
      <trkpt lat="41.18504" lon="20.27932">
        <ele>253.556866</ele>
        <time>2022-05-01T11:22:20.549Z</time>
      </trkpt>
      <trkpt lat="41.18501" lon="20.2792">
        <ele>253.683441</ele>
        <time>2022-05-01T11:22:22.562Z</time>
      </trkpt>
      <trkpt lat="41.18498" lon="20.27909">
        <ele>253.804456</ele>
        <time>2022-05-01T11:22:24.535Z</time>
      </trkpt>
      <trkpt lat="41.18494" lon="20.27892">
        <ele>253.983967</ele>
        <time>2022-05-01T11:22:27.566Z</time>
      </trkpt>
      <trkpt lat="41.18491" lon="20.27881">
        <ele>254.105536</ele>
        <time>2022-05-01T11:22:29.546Z</time>
      </trkpt>
      <trkpt lat="41.18489" lon="20.27869">
        <ele>254.229862</ele>
        <time>2022-05-01T11:22:31.564Z</time>
      </trkpt>
      <trkpt lat="41.18487" lon="20.27856">
        <ele>254.358826</ele>
        <time>2022-05-01T11:22:33.562Z</time>
      </trkpt>
      <trkpt lat="41.18485" lon="20.27844">
        <ele>254.489</ele>
        <time>2022-05-01T11:22:35.540Z</time>
      </trkpt>
      <trkpt lat="41.18485" lon="20.2783">
        <ele>254.621444</ele>
        <time>2022-05-01T11:22:37.544Z</time>
      </trkpt>
      <trkpt lat="41.18485" lon="20.27818">
        <ele>254.749719</ele>
        <time>2022-05-01T11:22:39.544Z</time>
      </trkpt>
      <trkpt lat="41.18486" lon="20.27805">
        <ele>254.875434</ele>
        <time>2022-05-01T11:22:41.556Z</time>
      </trkpt>
      <trkpt lat="41.18487" lon="20.27792">
        <ele>255.014145</ele>
        <time>2022-05-01T11:22:43.545Z</time>
      </trkpt>
      <trkpt lat="41.18489" lon="20.27778">
        <ele>255.15233</ele>
        <time>2022-05-01T11:22:45.566Z</time>
      </trkpt>
      <trkpt lat="41.1849" lon="20.27764">
        <ele>255.29367</ele>
        <time>2022-05-01T11:22:47.552Z</time>
      </trkpt>
      <trkpt lat="41.18492" lon="20.2775">
        <ele>255.435782</ele>
        <time>2022-05-01T11:22:49.583Z</time>
      </trkpt>
      <trkpt lat="41.18493" lon="20.27737">
        <ele>255.574821</ele>
        <time>2022-05-01T11:22:51.542Z</time>
      </trkpt>
      <trkpt lat="41.18495" lon="20.27722">
        <ele>255.720179</ele>
        <time>2022-05-01T11:22:53.536Z</time>
      </trkpt>
      <trkpt lat="41.18496" lon="20.27708">
        <ele>255.861487</ele>
        <time>2022-05-01T11:22:55.530Z</time>
      </trkpt>
      <trkpt lat="41.18498" lon="20.27694">
        <ele>255.955685</ele>
        <time>2022-05-01T11:22:57.548Z</time>
      </trkpt>
      <trkpt lat="41.185" lon="20.2768">
        <ele>256.045871</ele>
        <time>2022-05-01T11:22:59.542Z</time>
      </trkpt>
      <trkpt lat="41.18502" lon="20.27667">
        <ele>256.132087</ele>
        <time>2022-05-01T11:23:01.548Z</time>
      </trkpt>
      <trkpt lat="41.18504" lon="20.27653">
        <ele>256.225145</ele>
        <time>2022-05-01T11:23:03.545Z</time>
      </trkpt>
      <trkpt lat="41.18507" lon="20.27637">
        <ele>256.329414</ele>
        <time>2022-05-01T11:23:05.554Z</time>
      </trkpt>
      <trkpt lat="41.1851" lon="20.27622">
        <ele>256.431891</ele>
        <time>2022-05-01T11:23:07.555Z</time>
      </trkpt>
      <trkpt lat="41.18513" lon="20.27607">
        <ele>256.529304</ele>
        <time>2022-05-01T11:23:09.569Z</time>
      </trkpt>
      <trkpt lat="41.18517" lon="20.27593">
        <ele>256.625346</ele>
        <time>2022-05-01T11:23:11.564Z</time>
      </trkpt>
      <trkpt lat="41.1852" lon="20.27579">
        <ele>256.721282</ele>
        <time>2022-05-01T11:23:13.533Z</time>
      </trkpt>
      <trkpt lat="41.18523" lon="20.27565">
        <ele>256.81445</ele>
        <time>2022-05-01T11:23:15.547Z</time>
      </trkpt>
      <trkpt lat="41.18527" lon="20.27551">
        <ele>256.909413</ele>
        <time>2022-05-01T11:23:17.552Z</time>
      </trkpt>
      <trkpt lat="41.1853" lon="20.27537">
        <ele>257.005712</ele>
        <time>2022-05-01T11:23:19.549Z</time>
      </trkpt>
      <trkpt lat="41.18533" lon="20.27523">
        <ele>257.103294</ele>
        <time>2022-05-01T11:23:21.553Z</time>
      </trkpt>
      <trkpt lat="41.18536" lon="20.27508">
        <ele>257.200707</ele>
        <time>2022-05-01T11:23:23.587Z</time>
      </trkpt>
      <trkpt lat="41.18539" lon="20.27494">
        <ele>257.293895</ele>
        <time>2022-05-01T11:23:25.550Z</time>
      </trkpt>
      <trkpt lat="41.18541" lon="20.2748">
        <ele>257.383769</ele>
        <time>2022-05-01T11:23:27.557Z</time>
      </trkpt>
      <trkpt lat="41.18542" lon="20.27467">
        <ele>257.318849</ele>
        <time>2022-05-01T11:23:29.580Z</time>
      </trkpt>
      <trkpt lat="41.18543" lon="20.27453">
        <ele>257.22492</ele>
        <time>2022-05-01T11:23:31.546Z</time>
      </trkpt>
      <trkpt lat="41.18543" lon="20.27439">
        <ele>257.133194</ele>
        <time>2022-05-01T11:23:33.536Z</time>
      </trkpt>
      <trkpt lat="41.18544" lon="20.27425">
        <ele>257.03795</ele>
        <time>2022-05-01T11:23:35.539Z</time>
      </trkpt>
      <trkpt lat="41.18545" lon="20.2741">
        <ele>256.943294</ele>
        <time>2022-05-01T11:23:37.536Z</time>
      </trkpt>
      <trkpt lat="41.18545" lon="20.27397">
        <ele>256.854796</ele>
        <time>2022-05-01T11:23:39.543Z</time>
      </trkpt>
      <trkpt lat="41.18545" lon="20.27379">
        <ele>256.738029</ele>
        <time>2022-05-01T11:23:42.531Z</time>
      </trkpt>
      <trkpt lat="41.18545" lon="20.27362">
        <ele>256.625234</ele>
        <time>2022-05-01T11:23:45.552Z</time>
      </trkpt>
      <trkpt lat="41.18544" lon="20.27346">
        <ele>256.517658</ele>
        <time>2022-05-01T11:23:48.559Z</time>
      </trkpt>
      <trkpt lat="41.18545" lon="20.27334">
        <ele>256.438498</ele>
        <time>2022-05-01T11:23:50.554Z</time>
      </trkpt>
      <trkpt lat="41.18545" lon="20.27317">
        <ele>256.325012</ele>
        <time>2022-05-01T11:23:53.540Z</time>
      </trkpt>
      <trkpt lat="41.18546" lon="20.273">
        <ele>256.215948</ele>
        <time>2022-05-01T11:23:56.557Z</time>
      </trkpt>
      <trkpt lat="41.18546" lon="20.27283">
        <ele>256.100501</ele>
        <time>2022-05-01T11:23:59.541Z</time>
      </trkpt>
      <trkpt lat="41.18545" lon="20.27265">
        <ele>255.985606</ele>
        <time>2022-05-01T11:24:02.545Z</time>
      </trkpt>
      <trkpt lat="41.18543" lon="20.27248">
        <ele>255.869884</ele>
        <time>2022-05-01T11:24:05.558Z</time>
      </trkpt>
      <trkpt lat="41.18539" lon="20.27231">
        <ele>255.605012</ele>
        <time>2022-05-01T11:24:08.552Z</time>
      </trkpt>
      <trkpt lat="41.18532" lon="20.27217">
        <ele>255.234114</ele>
        <time>2022-05-01T11:24:11.548Z</time>
      </trkpt>
      <trkpt lat="41.18523" lon="20.27204">
        <ele>254.847836</ele>
        <time>2022-05-01T11:24:14.528Z</time>
      </trkpt>
      <trkpt lat="41.18513" lon="20.27194">
        <ele>254.470545</ele>
        <time>2022-05-01T11:24:17.560Z</time>
      </trkpt>
      <trkpt lat="41.18504" lon="20.27188">
        <ele>254.19147</ele>
        <time>2022-05-01T11:24:19.554Z</time>
      </trkpt>
      <trkpt lat="41.18495" lon="20.27183">
        <ele>253.899502</ele>
        <time>2022-05-01T11:24:21.549Z</time>
      </trkpt>
      <trkpt lat="41.18485" lon="20.2718">
        <ele>253.615555</ele>
        <time>2022-05-01T11:24:23.548Z</time>
      </trkpt>
      <trkpt lat="41.18475" lon="20.27179">
        <ele>253.3082</ele>
        <time>2022-05-01T11:24:25.549Z</time>
      </trkpt>
      <trkpt lat="41.18464" lon="20.27179">
        <ele>253.013037</ele>
        <time>2022-05-01T11:24:27.548Z</time>
      </trkpt>
      <trkpt lat="41.18454" lon="20.27181">
        <ele>252.721026</ele>
        <time>2022-05-01T11:24:29.551Z</time>
      </trkpt>
      <trkpt lat="41.18444" lon="20.27184">
        <ele>252.422472</ele>
        <time>2022-05-01T11:24:31.581Z</time>
      </trkpt>
      <trkpt lat="41.18435" lon="20.27187">
        <ele>252.13162</ele>
        <time>2022-05-01T11:24:33.546Z</time>
      </trkpt>
      <trkpt lat="41.18426" lon="20.27193">
        <ele>251.848332</ele>
        <time>2022-05-01T11:24:35.559Z</time>
      </trkpt>
      <trkpt lat="41.18418" lon="20.27201">
        <ele>251.553959</ele>
        <time>2022-05-01T11:24:37.555Z</time>
      </trkpt>
      <trkpt lat="41.1841" lon="20.27211">
        <ele>251.252124</ele>
        <time>2022-05-01T11:24:39.645Z</time>
      </trkpt>
      <trkpt lat="41.18403" lon="20.27221">
        <ele>250.959457</ele>
        <time>2022-05-01T11:24:41.534Z</time>
      </trkpt>
      <trkpt lat="41.18396" lon="20.27231">
        <ele>250.639428</ele>
        <time>2022-05-01T11:24:43.540Z</time>
      </trkpt>
      <trkpt lat="41.18388" lon="20.27243">
        <ele>250.111135</ele>
        <time>2022-05-01T11:24:45.556Z</time>
      </trkpt>
      <trkpt lat="41.18381" lon="20.27255">
        <ele>249.557413</ele>
        <time>2022-05-01T11:24:47.546Z</time>
      </trkpt>
      <trkpt lat="41.18374" lon="20.27266">
        <ele>249.009031</ele>
        <time>2022-05-01T11:24:49.554Z</time>
      </trkpt>
      <trkpt lat="41.18366" lon="20.27278">
        <ele>248.451595</ele>
        <time>2022-05-01T11:24:51.540Z</time>
      </trkpt>
      <trkpt lat="41.18359" lon="20.27289">
        <ele>247.888609</ele>
        <time>2022-05-01T11:24:53.563Z</time>
      </trkpt>
      <trkpt lat="41.18351" lon="20.27303">
        <ele>247.259278</ele>
        <time>2022-05-01T11:24:55.575Z</time>
      </trkpt>
      <trkpt lat="41.18342" lon="20.27316">
        <ele>246.64024</ele>
        <time>2022-05-01T11:24:57.535Z</time>
      </trkpt>
      <trkpt lat="41.18333" lon="20.2733">
        <ele>245.974626</ele>
        <time>2022-05-01T11:24:59.567Z</time>
      </trkpt>
      <trkpt lat="41.18324" lon="20.27344">
        <ele>245.285287</ele>
        <time>2022-05-01T11:25:01.573Z</time>
      </trkpt>
      <trkpt lat="41.18315" lon="20.27358">
        <ele>244.597094</ele>
        <time>2022-05-01T11:25:03.550Z</time>
      </trkpt>
      <trkpt lat="41.18306" lon="20.27372">
        <ele>243.918633</ele>
        <time>2022-05-01T11:25:05.542Z</time>
      </trkpt>
      <trkpt lat="41.18294" lon="20.27382">
        <ele>243.234729</ele>
        <time>2022-05-01T11:25:07.566Z</time>
      </trkpt>
      <trkpt lat="41.18281" lon="20.27386">
        <ele>242.588263</ele>
        <time>2022-05-01T11:25:09.546Z</time>
      </trkpt>
      <trkpt lat="41.18269" lon="20.27383">
        <ele>242.006848</ele>
        <time>2022-05-01T11:25:11.556Z</time>
      </trkpt>
      <trkpt lat="41.18258" lon="20.2738">
        <ele>242.151368</ele>
        <time>2022-05-01T11:25:13.557Z</time>
      </trkpt>
      <trkpt lat="41.18247" lon="20.27376">
        <ele>242.457248</ele>
        <time>2022-05-01T11:25:15.588Z</time>
      </trkpt>
      <trkpt lat="41.18238" lon="20.27374">
        <ele>242.725963</ele>
        <time>2022-05-01T11:25:17.550Z</time>
      </trkpt>
      <trkpt lat="41.18228" lon="20.27373">
        <ele>242.997477</ele>
        <time>2022-05-01T11:25:19.535Z</time>
      </trkpt>
      <trkpt lat="41.18218" lon="20.27372">
        <ele>243.262285</ele>
        <time>2022-05-01T11:25:21.526Z</time>
      </trkpt>
      <trkpt lat="41.18209" lon="20.27371">
        <ele>243.523232</ele>
        <time>2022-05-01T11:25:23.536Z</time>
      </trkpt>
      <trkpt lat="41.18195" lon="20.27368">
        <ele>243.897422</ele>
        <time>2022-05-01T11:25:26.545Z</time>
      </trkpt>
      <trkpt lat="41.18186" lon="20.27366">
        <ele>244.162519</ele>
        <time>2022-05-01T11:25:28.567Z</time>
      </trkpt>
      <trkpt lat="41.18177" lon="20.27362">
        <ele>244.421263</ele>
        <time>2022-05-01T11:25:30.550Z</time>
      </trkpt>
      <trkpt lat="41.18166" lon="20.27357">
        <ele>244.749965</ele>
        <time>2022-05-01T11:25:33.546Z</time>
      </trkpt>
      <trkpt lat="41.18157" lon="20.27351">
        <ele>245.031818</ele>
        <time>2022-05-01T11:25:36.542Z</time>
      </trkpt>
      <trkpt lat="41.18149" lon="20.27344">
        <ele>245.295668</ele>
        <time>2022-05-01T11:25:39.552Z</time>
      </trkpt>
      <trkpt lat="41.18139" lon="20.27335">
        <ele>245.6188</ele>
        <time>2022-05-01T11:25:43.553Z</time>
      </trkpt>
      <trkpt lat="41.18133" lon="20.27324">
        <ele>245.903523</ele>
        <time>2022-05-01T11:25:48.540Z</time>
      </trkpt>
      <trkpt lat="41.18126" lon="20.27314">
        <ele>246.182476</ele>
        <time>2022-05-01T11:25:54.568Z</time>
      </trkpt>
      <trkpt lat="41.18121" lon="20.27304">
        <ele>246.441937</ele>
        <time>2022-05-01T11:26:00.565Z</time>
      </trkpt>
      <trkpt lat="41.18115" lon="20.27294">
        <ele>246.703016</ele>
        <time>2022-05-01T11:26:06.559Z</time>
      </trkpt>
      <trkpt lat="41.18108" lon="20.27286">
        <ele>247.195303</ele>
        <time>2022-05-01T11:26:12.595Z</time>
      </trkpt>
      <trkpt lat="41.18103" lon="20.27276">
        <ele>248.188544</ele>
        <time>2022-05-01T11:26:19.559Z</time>
      </trkpt>
      <trkpt lat="41.18098" lon="20.27265">
        <ele>249.245123</ele>
        <time>2022-05-01T11:26:26.547Z</time>
      </trkpt>
      <trkpt lat="41.18091" lon="20.27256">
        <ele>250.331579</ele>
        <time>2022-05-01T11:26:33.562Z</time>
      </trkpt>
      <trkpt lat="41.18084" lon="20.27246">
        <ele>251.475499</ele>
        <time>2022-05-01T11:26:40.544Z</time>
      </trkpt>
      <trkpt lat="41.18077" lon="20.27237">
        <ele>252.522783</ele>
        <time>2022-05-01T11:26:47.587Z</time>
      </trkpt>
      <trkpt lat="41.18071" lon="20.27227">
        <ele>253.592892</ele>
        <time>2022-05-01T11:26:54.542Z</time>
      </trkpt>
      <trkpt lat="41.18064" lon="20.27218">
        <ele>254.63719</ele>
        <time>2022-05-01T11:27:01.555Z</time>
      </trkpt>
      <trkpt lat="41.18058" lon="20.27207">
        <ele>255.763854</ele>
        <time>2022-05-01T11:27:08.556Z</time>
      </trkpt>
      <trkpt lat="41.1805" lon="20.272">
        <ele>256.793688</ele>
        <time>2022-05-01T11:27:14.553Z</time>
      </trkpt>
      <trkpt lat="41.18043" lon="20.2719">
        <ele>257.870015</ele>
        <time>2022-05-01T11:27:21.547Z</time>
      </trkpt>
      <trkpt lat="41.18037" lon="20.27179">
        <ele>259.022119</ele>
        <time>2022-05-01T11:27:28.537Z</time>
      </trkpt>
      <trkpt lat="41.18032" lon="20.27169">
        <ele>260.048419</ele>
        <time>2022-05-01T11:27:34.549Z</time>
      </trkpt>
      <trkpt lat="41.18025" lon="20.27161">
        <ele>261.109497</ele>
        <time>2022-05-01T11:27:41.551Z</time>
      </trkpt>
      <trkpt lat="41.18018" lon="20.27151">
        <ele>262.185786</ele>
        <time>2022-05-01T11:27:48.547Z</time>
      </trkpt>
      <trkpt lat="41.18011" lon="20.27142">
        <ele>263.251816</ele>
        <time>2022-05-01T11:27:54.570Z</time>
      </trkpt>
      <trkpt lat="41.18004" lon="20.27133">
        <ele>264.330721</ele>
        <time>2022-05-01T11:28:00.595Z</time>
      </trkpt>
      <trkpt lat="41.17997" lon="20.27124">
        <ele>265.39123</ele>
        <time>2022-05-01T11:28:06.584Z</time>
      </trkpt>
      <trkpt lat="41.1799" lon="20.27116">
        <ele>266.428564</ele>
        <time>2022-05-01T11:28:12.585Z</time>
      </trkpt>
      <trkpt lat="41.17984" lon="20.27106">
        <ele>267.426539</ele>
        <time>2022-05-01T11:28:19.552Z</time>
      </trkpt>
      <trkpt lat="41.17977" lon="20.27096">
        <ele>268.444958</ele>
        <time>2022-05-01T11:28:25.543Z</time>
      </trkpt>
      <trkpt lat="41.1797" lon="20.27087">
        <ele>269.408209</ele>
        <time>2022-05-01T11:28:31.547Z</time>
      </trkpt>
      <trkpt lat="41.17963" lon="20.27078">
        <ele>270.371863</ele>
        <time>2022-05-01T11:28:37.558Z</time>
      </trkpt>
      <trkpt lat="41.17957" lon="20.27069">
        <ele>271.292212</ele>
        <time>2022-05-01T11:28:43.540Z</time>
      </trkpt>
      <trkpt lat="41.17951" lon="20.27058">
        <ele>272.339081</ele>
        <time>2022-05-01T11:28:49.564Z</time>
      </trkpt>
      <trkpt lat="41.17946" lon="20.27047">
        <ele>273.307067</ele>
        <time>2022-05-01T11:28:55.554Z</time>
      </trkpt>
      <trkpt lat="41.17941" lon="20.27037">
        <ele>274.247244</ele>
        <time>2022-05-01T11:29:01.566Z</time>
      </trkpt>
      <trkpt lat="41.17936" lon="20.27026">
        <ele>275.188524</ele>
        <time>2022-05-01T11:29:07.569Z</time>
      </trkpt>
      <trkpt lat="41.17931" lon="20.27015">
        <ele>276.145642</ele>
        <time>2022-05-01T11:29:13.565Z</time>
      </trkpt>
      <trkpt lat="41.17927" lon="20.27004">
        <ele>277.108339</ele>
        <time>2022-05-01T11:29:19.544Z</time>
      </trkpt>
      <trkpt lat="41.17922" lon="20.26993">
        <ele>278.049051</ele>
        <time>2022-05-01T11:29:25.535Z</time>
      </trkpt>
      <trkpt lat="41.17918" lon="20.26982">
        <ele>278.996595</ele>
        <time>2022-05-01T11:29:31.549Z</time>
      </trkpt>
      <trkpt lat="41.17913" lon="20.2697">
        <ele>280.029636</ele>
        <time>2022-05-01T11:29:37.558Z</time>
      </trkpt>
      <trkpt lat="41.1791" lon="20.26958">
        <ele>281.018692</ele>
        <time>2022-05-01T11:29:45.552Z</time>
      </trkpt>
      <trkpt lat="41.17907" lon="20.26945">
        <ele>282.0128</ele>
        <time>2022-05-01T11:29:52.550Z</time>
      </trkpt>
      <trkpt lat="41.17904" lon="20.26933">
        <ele>282.990405</ele>
        <time>2022-05-01T11:29:58.554Z</time>
      </trkpt>
      <trkpt lat="41.17899" lon="20.26921">
        <ele>284.005544</ele>
        <time>2022-05-01T11:30:05.548Z</time>
      </trkpt>
      <trkpt lat="41.17896" lon="20.26908">
        <ele>284.883397</ele>
        <time>2022-05-01T11:30:12.549Z</time>
      </trkpt>
      <trkpt lat="41.17893" lon="20.26896">
        <ele>285.303061</ele>
        <time>2022-05-01T11:30:18.558Z</time>
      </trkpt>
      <trkpt lat="41.17891" lon="20.26884">
        <ele>285.743981</ele>
        <time>2022-05-01T11:30:24.557Z</time>
      </trkpt>
      <trkpt lat="41.17888" lon="20.26873">
        <ele>286.180512</ele>
        <time>2022-05-01T11:30:30.577Z</time>
      </trkpt>
      <trkpt lat="41.17884" lon="20.2686">
        <ele>286.663784</ele>
        <time>2022-05-01T11:30:37.575Z</time>
      </trkpt>
      <trkpt lat="41.17882" lon="20.26847">
        <ele>287.146313</ele>
        <time>2022-05-01T11:30:44.556Z</time>
      </trkpt>
      <trkpt lat="41.17879" lon="20.26835">
        <ele>287.576776</ele>
        <time>2022-05-01T11:30:50.551Z</time>
      </trkpt>
      <trkpt lat="41.17877" lon="20.26821">
        <ele>288.064349</ele>
        <time>2022-05-01T11:30:57.540Z</time>
      </trkpt>
      <trkpt lat="41.17876" lon="20.26809">
        <ele>288.500909</ele>
        <time>2022-05-01T11:31:03.555Z</time>
      </trkpt>
      <trkpt lat="41.17874" lon="20.26796">
        <ele>288.959042</ele>
        <time>2022-05-01T11:31:09.560Z</time>
      </trkpt>
      <trkpt lat="41.17873" lon="20.26783">
        <ele>289.409703</ele>
        <time>2022-05-01T11:31:15.566Z</time>
      </trkpt>
      <trkpt lat="41.17873" lon="20.26771">
        <ele>289.842024</ele>
        <time>2022-05-01T11:31:21.553Z</time>
      </trkpt>
      <trkpt lat="41.17872" lon="20.26759">
        <ele>290.269473</ele>
        <time>2022-05-01T11:31:27.546Z</time>
      </trkpt>
      <trkpt lat="41.1787" lon="20.26745">
        <ele>290.764265</ele>
        <time>2022-05-01T11:31:33.574Z</time>
      </trkpt>
      <trkpt lat="41.1787" lon="20.26731">
        <ele>291.256233</ele>
        <time>2022-05-01T11:31:39.562Z</time>
      </trkpt>
      <trkpt lat="41.17869" lon="20.26719">
        <ele>291.67571</ele>
        <time>2022-05-01T11:31:45.565Z</time>
      </trkpt>
      <trkpt lat="41.17868" lon="20.26706">
        <ele>292.12521</ele>
        <time>2022-05-01T11:31:51.564Z</time>
      </trkpt>
      <trkpt lat="41.17867" lon="20.26693">
        <ele>292.595055</ele>
        <time>2022-05-01T11:31:57.560Z</time>
      </trkpt>
      <trkpt lat="41.17867" lon="20.2668">
        <ele>293.041897</ele>
        <time>2022-05-01T11:32:02.563Z</time>
      </trkpt>
      <trkpt lat="41.17865" lon="20.26667">
        <ele>293.22263</ele>
        <time>2022-05-01T11:32:07.558Z</time>
      </trkpt>
      <trkpt lat="41.17864" lon="20.26654">
        <ele>293.313716</ele>
        <time>2022-05-01T11:32:12.561Z</time>
      </trkpt>
      <trkpt lat="41.17863" lon="20.26639">
        <ele>293.41838</ele>
        <time>2022-05-01T11:32:17.550Z</time>
      </trkpt>
      <trkpt lat="41.17861" lon="20.26627">
        <ele>293.503751</ele>
        <time>2022-05-01T11:32:21.539Z</time>
      </trkpt>
      <trkpt lat="41.17859" lon="20.26614">
        <ele>293.597047</ele>
        <time>2022-05-01T11:32:25.538Z</time>
      </trkpt>
      <trkpt lat="41.17855" lon="20.26601">
        <ele>293.693614</ele>
        <time>2022-05-01T11:32:29.568Z</time>
      </trkpt>
      <trkpt lat="41.17853" lon="20.26587">
        <ele>293.792507</ele>
        <time>2022-05-01T11:32:33.541Z</time>
      </trkpt>
      <trkpt lat="41.1785" lon="20.26575">
        <ele>293.879964</ele>
        <time>2022-05-01T11:32:36.588Z</time>
      </trkpt>
      <trkpt lat="41.17848" lon="20.26561">
        <ele>293.97841</ele>
        <time>2022-05-01T11:32:39.557Z</time>
      </trkpt>
      <trkpt lat="41.17844" lon="20.26546">
        <ele>294.091051</ele>
        <time>2022-05-01T11:32:42.541Z</time>
      </trkpt>
      <trkpt lat="41.1784" lon="20.26528">
        <ele>294.217047</ele>
        <time>2022-05-01T11:32:45.550Z</time>
      </trkpt>
      <trkpt lat="41.17837" lon="20.26516">
        <ele>294.306354</ele>
        <time>2022-05-01T11:32:47.575Z</time>
      </trkpt>
      <trkpt lat="41.17833" lon="20.26503">
        <ele>294.402101</ele>
        <time>2022-05-01T11:32:49.549Z</time>
      </trkpt>
      <trkpt lat="41.17829" lon="20.2649">
        <ele>294.501437</ele>
        <time>2022-05-01T11:32:51.549Z</time>
      </trkpt>
      <trkpt lat="41.17824" lon="20.26477">
        <ele>294.602896</ele>
        <time>2022-05-01T11:32:53.590Z</time>
      </trkpt>
      <trkpt lat="41.1782" lon="20.26463">
        <ele>294.710485</ele>
        <time>2022-05-01T11:32:55.565Z</time>
      </trkpt>
      <trkpt lat="41.17815" lon="20.26448">
        <ele>294.752455</ele>
        <time>2022-05-01T11:32:57.552Z</time>
      </trkpt>
      <trkpt lat="41.1781" lon="20.26432">
        <ele>294.128564</ele>
        <time>2022-05-01T11:32:59.543Z</time>
      </trkpt>
      <trkpt lat="41.17803" lon="20.26414">
        <ele>293.407341</ele>
        <time>2022-05-01T11:33:01.557Z</time>
      </trkpt>
      <trkpt lat="41.17796" lon="20.26396">
        <ele>292.631539</ele>
        <time>2022-05-01T11:33:03.543Z</time>
      </trkpt>
      <trkpt lat="41.17787" lon="20.26375">
        <ele>291.778884</ele>
        <time>2022-05-01T11:33:05.559Z</time>
      </trkpt>
      <trkpt lat="41.17782" lon="20.26365">
        <ele>291.324533</ele>
        <time>2022-05-01T11:33:06.554Z</time>
      </trkpt>
      <trkpt lat="41.17777" lon="20.26354">
        <ele>290.858786</ele>
        <time>2022-05-01T11:33:07.567Z</time>
      </trkpt>
      <trkpt lat="41.17771" lon="20.26343">
        <ele>290.369768</ele>
        <time>2022-05-01T11:33:08.563Z</time>
      </trkpt>
      <trkpt lat="41.17766" lon="20.26331">
        <ele>289.85088</ele>
        <time>2022-05-01T11:33:09.558Z</time>
      </trkpt>
      <trkpt lat="41.17759" lon="20.26319">
        <ele>289.315865</ele>
        <time>2022-05-01T11:33:10.579Z</time>
      </trkpt>
      <trkpt lat="41.17752" lon="20.26307">
        <ele>288.775207</ele>
        <time>2022-05-01T11:33:11.532Z</time>
      </trkpt>
      <trkpt lat="41.17745" lon="20.26296">
        <ele>288.225392</ele>
        <time>2022-05-01T11:33:12.549Z</time>
      </trkpt>
      <trkpt lat="41.17738" lon="20.26285">
        <ele>287.686372</ele>
        <time>2022-05-01T11:33:13.538Z</time>
      </trkpt>
      <trkpt lat="41.17731" lon="20.26274">
        <ele>287.163675</ele>
        <time>2022-05-01T11:33:14.557Z</time>
      </trkpt>
      <trkpt lat="41.17724" lon="20.26264">
        <ele>286.662175</ele>
        <time>2022-05-01T11:33:15.556Z</time>
      </trkpt>
      <trkpt lat="41.17717" lon="20.26254">
        <ele>286.180115</ele>
        <time>2022-05-01T11:33:16.557Z</time>
      </trkpt>
      <trkpt lat="41.17711" lon="20.26245">
        <ele>285.609904</ele>
        <time>2022-05-01T11:33:17.565Z</time>
      </trkpt>
      <trkpt lat="41.17704" lon="20.26235">
        <ele>284.995216</ele>
        <time>2022-05-01T11:33:18.557Z</time>
      </trkpt>
      <trkpt lat="41.17698" lon="20.26224">
        <ele>284.347424</ele>
        <time>2022-05-01T11:33:19.540Z</time>
      </trkpt>
      <trkpt lat="41.17691" lon="20.26213">
        <ele>283.673226</ele>
        <time>2022-05-01T11:33:20.541Z</time>
      </trkpt>
      <trkpt lat="41.17684" lon="20.26202">
        <ele>282.997839</ele>
        <time>2022-05-01T11:33:21.539Z</time>
      </trkpt>
      <trkpt lat="41.17677" lon="20.2619">
        <ele>282.296369</ele>
        <time>2022-05-01T11:33:22.539Z</time>
      </trkpt>
      <trkpt lat="41.1767" lon="20.26178">
        <ele>281.569516</ele>
        <time>2022-05-01T11:33:23.553Z</time>
      </trkpt>
      <trkpt lat="41.17662" lon="20.26166">
        <ele>280.815413</ele>
        <time>2022-05-01T11:33:24.554Z</time>
      </trkpt>
      <trkpt lat="41.17654" lon="20.26154">
        <ele>280.057569</ele>
        <time>2022-05-01T11:33:25.548Z</time>
      </trkpt>
      <trkpt lat="41.17646" lon="20.26142">
        <ele>279.304006</ele>
        <time>2022-05-01T11:33:26.550Z</time>
      </trkpt>
      <trkpt lat="41.17637" lon="20.26131">
        <ele>278.554296</ele>
        <time>2022-05-01T11:33:27.548Z</time>
      </trkpt>
      <trkpt lat="41.17629" lon="20.2612">
        <ele>277.78983</ele>
        <time>2022-05-01T11:33:28.547Z</time>
      </trkpt>
      <trkpt lat="41.17619" lon="20.26108">
        <ele>276.984975</ele>
        <time>2022-05-01T11:33:29.572Z</time>
      </trkpt>
      <trkpt lat="41.17609" lon="20.26097">
        <ele>276.169247</ele>
        <time>2022-05-01T11:33:30.552Z</time>
      </trkpt>
      <trkpt lat="41.17599" lon="20.26086">
        <ele>275.348376</ele>
        <time>2022-05-01T11:33:31.550Z</time>
      </trkpt>
      <trkpt lat="41.17589" lon="20.26075">
        <ele>274.563389</ele>
        <time>2022-05-01T11:33:32.558Z</time>
      </trkpt>
      <trkpt lat="41.17579" lon="20.26064">
        <ele>273.814271</ele>
        <time>2022-05-01T11:33:33.541Z</time>
      </trkpt>
      <trkpt lat="41.1757" lon="20.26053">
        <ele>273.079719</ele>
        <time>2022-05-01T11:33:34.557Z</time>
      </trkpt>
      <trkpt lat="41.1756" lon="20.26043">
        <ele>272.365313</ele>
        <time>2022-05-01T11:33:35.551Z</time>
      </trkpt>
      <trkpt lat="41.17551" lon="20.26033">
        <ele>271.671641</ele>
        <time>2022-05-01T11:33:36.563Z</time>
      </trkpt>
      <trkpt lat="41.17542" lon="20.26023">
        <ele>270.983592</ele>
        <time>2022-05-01T11:33:37.582Z</time>
      </trkpt>
      <trkpt lat="41.17533" lon="20.26013">
        <ele>270.302828</ele>
        <time>2022-05-01T11:33:38.555Z</time>
      </trkpt>
      <trkpt lat="41.17524" lon="20.26003">
        <ele>269.641104</ele>
        <time>2022-05-01T11:33:39.553Z</time>
      </trkpt>
      <trkpt lat="41.17516" lon="20.25994">
        <ele>268.992672</ele>
        <time>2022-05-01T11:33:40.536Z</time>
      </trkpt>
      <trkpt lat="41.17507" lon="20.25984">
        <ele>268.348326</ele>
        <time>2022-05-01T11:33:41.556Z</time>
      </trkpt>
      <trkpt lat="41.17499" lon="20.25975">
        <ele>267.714061</ele>
        <time>2022-05-01T11:33:42.549Z</time>
      </trkpt>
      <trkpt lat="41.17491" lon="20.25966">
        <ele>267.091564</ele>
        <time>2022-05-01T11:33:43.554Z</time>
      </trkpt>
      <trkpt lat="41.17483" lon="20.25957">
        <ele>266.477418</ele>
        <time>2022-05-01T11:33:44.553Z</time>
      </trkpt>
      <trkpt lat="41.17475" lon="20.25948">
        <ele>265.875078</ele>
        <time>2022-05-01T11:33:45.557Z</time>
      </trkpt>
      <trkpt lat="41.17467" lon="20.2594">
        <ele>265.272739</ele>
        <time>2022-05-01T11:33:46.547Z</time>
      </trkpt>
      <trkpt lat="41.17459" lon="20.25932">
        <ele>264.686712</ele>
        <time>2022-05-01T11:33:47.564Z</time>
      </trkpt>
      <trkpt lat="41.1745" lon="20.25925">
        <ele>264.30188</ele>
        <time>2022-05-01T11:33:48.598Z</time>
      </trkpt>
      <trkpt lat="41.17442" lon="20.25919">
        <ele>264.225694</ele>
        <time>2022-05-01T11:33:49.548Z</time>
      </trkpt>
      <trkpt lat="41.17434" lon="20.25914">
        <ele>264.154676</ele>
        <time>2022-05-01T11:33:50.588Z</time>
      </trkpt>
      <trkpt lat="41.17418" lon="20.25906">
        <ele>264.021056</ele>
        <time>2022-05-01T11:33:52.545Z</time>
      </trkpt>
      <trkpt lat="41.17404" lon="20.25901">
        <ele>263.906791</ele>
        <time>2022-05-01T11:33:54.563Z</time>
      </trkpt>
      <trkpt lat="41.17392" lon="20.25895">
        <ele>263.806392</ele>
        <time>2022-05-01T11:33:56.568Z</time>
      </trkpt>
      <trkpt lat="41.17381" lon="20.25888">
        <ele>263.70923</ele>
        <time>2022-05-01T11:33:58.570Z</time>
      </trkpt>
      <trkpt lat="41.1737" lon="20.2588">
        <ele>263.61757</ele>
        <time>2022-05-01T11:34:00.555Z</time>
      </trkpt>
      <trkpt lat="41.1736" lon="20.25871">
        <ele>263.520859</ele>
        <time>2022-05-01T11:34:02.539Z</time>
      </trkpt>
      <trkpt lat="41.1735" lon="20.25862">
        <ele>263.425128</ele>
        <time>2022-05-01T11:34:04.561Z</time>
      </trkpt>
      <trkpt lat="41.17339" lon="20.25853">
        <ele>263.32411</ele>
        <time>2022-05-01T11:34:06.559Z</time>
      </trkpt>
      <trkpt lat="41.17328" lon="20.25843">
        <ele>263.215265</ele>
        <time>2022-05-01T11:34:08.560Z</time>
      </trkpt>
      <trkpt lat="41.17315" lon="20.25833">
        <ele>263.101827</ele>
        <time>2022-05-01T11:34:10.543Z</time>
      </trkpt>
      <trkpt lat="41.17303" lon="20.25822">
        <ele>262.986732</ele>
        <time>2022-05-01T11:34:12.586Z</time>
      </trkpt>
      <trkpt lat="41.17291" lon="20.2581">
        <ele>262.752862</ele>
        <time>2022-05-01T11:34:14.569Z</time>
      </trkpt>
      <trkpt lat="41.17278" lon="20.25797">
        <ele>262.350256</ele>
        <time>2022-05-01T11:34:16.570Z</time>
      </trkpt>
      <trkpt lat="41.17266" lon="20.25783">
        <ele>261.930684</ele>
        <time>2022-05-01T11:34:18.590Z</time>
      </trkpt>
      <trkpt lat="41.17254" lon="20.25765">
        <ele>261.467281</ele>
        <time>2022-05-01T11:34:20.539Z</time>
      </trkpt>
      <trkpt lat="41.17248" lon="20.25755">
        <ele>261.230907</ele>
        <time>2022-05-01T11:34:21.548Z</time>
      </trkpt>
      <trkpt lat="41.17243" lon="20.25745">
        <ele>260.993022</ele>
        <time>2022-05-01T11:34:22.551Z</time>
      </trkpt>
      <trkpt lat="41.17238" lon="20.25735">
        <ele>260.75468</ele>
        <time>2022-05-01T11:34:23.550Z</time>
      </trkpt>
      <trkpt lat="41.17233" lon="20.25724">
        <ele>260.509241</ele>
        <time>2022-05-01T11:34:24.550Z</time>
      </trkpt>
      <trkpt lat="41.17228" lon="20.25712">
        <ele>260.252366</ele>
        <time>2022-05-01T11:34:25.558Z</time>
      </trkpt>
      <trkpt lat="41.17224" lon="20.25699">
        <ele>259.98913</ele>
        <time>2022-05-01T11:34:26.551Z</time>
      </trkpt>
      <trkpt lat="41.17219" lon="20.25686">
        <ele>259.709415</ele>
        <time>2022-05-01T11:34:27.543Z</time>
      </trkpt>
      <trkpt lat="41.17215" lon="20.25672">
        <ele>259.425363</ele>
        <time>2022-05-01T11:34:28.558Z</time>
      </trkpt>
      <trkpt lat="41.17211" lon="20.25658">
        <ele>259.136791</ele>
        <time>2022-05-01T11:34:29.578Z</time>
      </trkpt>
      <trkpt lat="41.17207" lon="20.25644">
        <ele>258.85096</ele>
        <time>2022-05-01T11:34:30.563Z</time>
      </trkpt>
      <trkpt lat="41.17203" lon="20.2563">
        <ele>258.558918</ele>
        <time>2022-05-01T11:34:31.555Z</time>
      </trkpt>
      <trkpt lat="41.17198" lon="20.25616">
        <ele>258.236791</ele>
        <time>2022-05-01T11:34:32.559Z</time>
      </trkpt>
      <trkpt lat="41.17194" lon="20.25602">
        <ele>257.801099</ele>
        <time>2022-05-01T11:34:33.543Z</time>
      </trkpt>
      <trkpt lat="41.17189" lon="20.25587">
        <ele>257.365406</ele>
        <time>2022-05-01T11:34:34.572Z</time>
      </trkpt>
      <trkpt lat="41.17184" lon="20.25573">
        <ele>256.940245</ele>
        <time>2022-05-01T11:34:35.554Z</time>
      </trkpt>
      <trkpt lat="41.17179" lon="20.2556">
        <ele>256.52585</ele>
        <time>2022-05-01T11:34:36.560Z</time>
      </trkpt>
      <trkpt lat="41.17173" lon="20.25546">
        <ele>256.104634</ele>
        <time>2022-05-01T11:34:37.546Z</time>
      </trkpt>
      <trkpt lat="41.17168" lon="20.25533">
        <ele>255.68226</ele>
        <time>2022-05-01T11:34:38.554Z</time>
      </trkpt>
      <trkpt lat="41.17162" lon="20.2552">
        <ele>255.264672</ele>
        <time>2022-05-01T11:34:39.558Z</time>
      </trkpt>
      <trkpt lat="41.17156" lon="20.25507">
        <ele>254.846179</ele>
        <time>2022-05-01T11:34:40.579Z</time>
      </trkpt>
      <trkpt lat="41.1715" lon="20.25494">
        <ele>254.434705</ele>
        <time>2022-05-01T11:34:41.554Z</time>
      </trkpt>
      <trkpt lat="41.17144" lon="20.25482">
        <ele>254.025561</ele>
        <time>2022-05-01T11:34:42.542Z</time>
      </trkpt>
      <trkpt lat="41.17138" lon="20.25469">
        <ele>253.605127</ele>
        <time>2022-05-01T11:34:43.566Z</time>
      </trkpt>
      <trkpt lat="41.17131" lon="20.25456">
        <ele>253.180748</ele>
        <time>2022-05-01T11:34:44.555Z</time>
      </trkpt>
      <trkpt lat="41.17125" lon="20.25443">
        <ele>252.752743</ele>
        <time>2022-05-01T11:34:45.568Z</time>
      </trkpt>
      <trkpt lat="41.17118" lon="20.25431">
        <ele>252.331507</ele>
        <time>2022-05-01T11:34:46.550Z</time>
      </trkpt>
      <trkpt lat="41.1711" lon="20.2542">
        <ele>251.922298</ele>
        <time>2022-05-01T11:34:47.548Z</time>
      </trkpt>
      <trkpt lat="41.17102" lon="20.2541">
        <ele>251.524041</ele>
        <time>2022-05-01T11:34:48.556Z</time>
      </trkpt>
      <trkpt lat="41.17093" lon="20.25402">
        <ele>251.137662</ele>
        <time>2022-05-01T11:34:49.550Z</time>
      </trkpt>
      <trkpt lat="41.17083" lon="20.25394">
        <ele>250.749611</ele>
        <time>2022-05-01T11:34:50.551Z</time>
      </trkpt>
      <trkpt lat="41.17072" lon="20.25388">
        <ele>250.34073</ele>
        <time>2022-05-01T11:34:51.585Z</time>
      </trkpt>
      <trkpt lat="41.17062" lon="20.25382">
        <ele>249.952907</ele>
        <time>2022-05-01T11:34:52.546Z</time>
      </trkpt>
      <trkpt lat="41.17052" lon="20.25376">
        <ele>249.561309</ele>
        <time>2022-05-01T11:34:53.565Z</time>
      </trkpt>
      <trkpt lat="41.17041" lon="20.25371">
        <ele>249.167374</ele>
        <time>2022-05-01T11:34:54.577Z</time>
      </trkpt>
      <trkpt lat="41.1703" lon="20.25366">
        <ele>248.770689</ele>
        <time>2022-05-01T11:34:55.557Z</time>
      </trkpt>
      <trkpt lat="41.1702" lon="20.2536">
        <ele>248.37332</ele>
        <time>2022-05-01T11:34:56.556Z</time>
      </trkpt>
      <trkpt lat="41.17009" lon="20.25353">
        <ele>247.976792</ele>
        <time>2022-05-01T11:34:57.553Z</time>
      </trkpt>
      <trkpt lat="41.16999" lon="20.25345">
        <ele>247.580143</ele>
        <time>2022-05-01T11:34:58.538Z</time>
      </trkpt>
      <trkpt lat="41.1699" lon="20.25337">
        <ele>247.181035</ele>
        <time>2022-05-01T11:34:59.560Z</time>
      </trkpt>
      <trkpt lat="41.16982" lon="20.25326">
        <ele>246.785439</ele>
        <time>2022-05-01T11:35:00.549Z</time>
      </trkpt>
      <trkpt lat="41.16975" lon="20.25313">
        <ele>246.373562</ele>
        <time>2022-05-01T11:35:01.552Z</time>
      </trkpt>
      <trkpt lat="41.16969" lon="20.25299">
        <ele>245.954841</ele>
        <time>2022-05-01T11:35:02.591Z</time>
      </trkpt>
      <trkpt lat="41.16966" lon="20.25283">
        <ele>245.536154</ele>
        <time>2022-05-01T11:35:03.569Z</time>
      </trkpt>
      <trkpt lat="41.16964" lon="20.25268">
        <ele>245.613787</ele>
        <time>2022-05-01T11:35:04.557Z</time>
      </trkpt>
      <trkpt lat="41.16962" lon="20.25254">
        <ele>245.715502</ele>
        <time>2022-05-01T11:35:05.551Z</time>
      </trkpt>
      <trkpt lat="41.1696" lon="20.2524">
        <ele>245.812366</ele>
        <time>2022-05-01T11:35:06.554Z</time>
      </trkpt>
      <trkpt lat="41.16958" lon="20.25226">
        <ele>245.905974</ele>
        <time>2022-05-01T11:35:07.559Z</time>
      </trkpt>
      <trkpt lat="41.16956" lon="20.25214">
        <ele>245.993144</ele>
        <time>2022-05-01T11:35:08.546Z</time>
      </trkpt>
      <trkpt lat="41.16953" lon="20.25192">
        <ele>246.146412</ele>
        <time>2022-05-01T11:35:10.573Z</time>
      </trkpt>
      <trkpt lat="41.16948" lon="20.25175">
        <ele>246.273756</ele>
        <time>2022-05-01T11:35:12.568Z</time>
      </trkpt>
      <trkpt lat="41.16943" lon="20.25161">
        <ele>246.37824</ele>
        <time>2022-05-01T11:35:14.555Z</time>
      </trkpt>
      <trkpt lat="41.16938" lon="20.25151">
        <ele>246.463452</ele>
        <time>2022-05-01T11:35:16.545Z</time>
      </trkpt>
      <trkpt lat="41.16929" lon="20.2514">
        <ele>246.571874</ele>
        <time>2022-05-01T11:35:19.615Z</time>
      </trkpt>
      <trkpt lat="41.16921" lon="20.25131">
        <ele>246.669345</ele>
        <time>2022-05-01T11:35:22.565Z</time>
      </trkpt>
      <trkpt lat="41.16914" lon="20.25124">
        <ele>246.752476</ele>
        <time>2022-05-01T11:35:25.564Z</time>
      </trkpt>
      <trkpt lat="41.16904" lon="20.25116">
        <ele>246.853123</ele>
        <time>2022-05-01T11:35:29.552Z</time>
      </trkpt>
      <trkpt lat="41.16895" lon="20.2511">
        <ele>246.944964</ele>
        <time>2022-05-01T11:35:33.555Z</time>
      </trkpt>
      <trkpt lat="41.16886" lon="20.25104">
        <ele>247.039521</ele>
        <time>2022-05-01T11:35:37.557Z</time>
      </trkpt>
      <trkpt lat="41.16876" lon="20.25101">
        <ele>247.131502</ele>
        <time>2022-05-01T11:35:41.569Z</time>
      </trkpt>
      <trkpt lat="41.16866" lon="20.25097">
        <ele>247.627427</ele>
        <time>2022-05-01T11:35:46.550Z</time>
      </trkpt>
      <trkpt lat="41.16857" lon="20.25095">
        <ele>248.193842</ele>
        <time>2022-05-01T11:35:50.559Z</time>
      </trkpt>
      <trkpt lat="41.16848" lon="20.25093">
        <ele>248.782204</ele>
        <time>2022-05-01T11:35:54.552Z</time>
      </trkpt>
      <trkpt lat="41.16838" lon="20.25091">
        <ele>249.406767</ele>
        <time>2022-05-01T11:35:59.552Z</time>
      </trkpt>
      <trkpt lat="41.16828" lon="20.25088">
        <ele>250.014364</ele>
        <time>2022-05-01T11:36:04.591Z</time>
      </trkpt>
      <trkpt lat="41.16819" lon="20.25084">
        <ele>250.627009</ele>
        <time>2022-05-01T11:36:09.555Z</time>
      </trkpt>
      <trkpt lat="41.16811" lon="20.25078">
        <ele>251.241824</ele>
        <time>2022-05-01T11:36:14.549Z</time>
      </trkpt>
      <trkpt lat="41.16802" lon="20.25068">
        <ele>251.918864</ele>
        <time>2022-05-01T11:36:19.581Z</time>
      </trkpt>
      <trkpt lat="41.16796" lon="20.25057">
        <ele>252.571988</ele>
        <time>2022-05-01T11:36:23.543Z</time>
      </trkpt>
      <trkpt lat="41.16791" lon="20.25042">
        <ele>253.327834</ele>
        <time>2022-05-01T11:36:27.567Z</time>
      </trkpt>
      <trkpt lat="41.16789" lon="20.25028">
        <ele>254.041383</ele>
        <time>2022-05-01T11:36:30.552Z</time>
      </trkpt>
      <trkpt lat="41.16786" lon="20.25015">
        <ele>254.644096</ele>
        <time>2022-05-01T11:36:32.544Z</time>
      </trkpt>
      <trkpt lat="41.16784" lon="20.25001">
        <ele>255.315145</ele>
        <time>2022-05-01T11:36:34.546Z</time>
      </trkpt>
      <trkpt lat="41.16782" lon="20.24985">
        <ele>256.112778</ele>
        <time>2022-05-01T11:36:36.552Z</time>
      </trkpt>
      <trkpt lat="41.1678" lon="20.24966">
        <ele>257.008881</ele>
        <time>2022-05-01T11:36:38.560Z</time>
      </trkpt>
      <trkpt lat="41.16777" lon="20.24946">
        <ele>257.966367</ele>
        <time>2022-05-01T11:36:40.552Z</time>
      </trkpt>
      <trkpt lat="41.16772" lon="20.24925">
        <ele>258.172082</ele>
        <time>2022-05-01T11:36:42.557Z</time>
      </trkpt>
      <trkpt lat="41.16765" lon="20.24904">
        <ele>257.817729</ele>
        <time>2022-05-01T11:36:44.565Z</time>
      </trkpt>
      <trkpt lat="41.16758" lon="20.24883">
        <ele>257.450695</ele>
        <time>2022-05-01T11:36:46.567Z</time>
      </trkpt>
      <trkpt lat="41.16754" lon="20.24872">
        <ele>257.259632</ele>
        <time>2022-05-01T11:36:47.555Z</time>
      </trkpt>
      <trkpt lat="41.16751" lon="20.24861">
        <ele>257.062778</ele>
        <time>2022-05-01T11:36:48.556Z</time>
      </trkpt>
      <trkpt lat="41.16747" lon="20.2485">
        <ele>256.864002</ele>
        <time>2022-05-01T11:36:49.555Z</time>
      </trkpt>
      <trkpt lat="41.16744" lon="20.24838">
        <ele>256.660789</ele>
        <time>2022-05-01T11:36:50.575Z</time>
      </trkpt>
      <trkpt lat="41.1674" lon="20.24825">
        <ele>256.450881</ele>
        <time>2022-05-01T11:36:51.556Z</time>
      </trkpt>
      <trkpt lat="41.16737" lon="20.24812">
        <ele>256.236128</ele>
        <time>2022-05-01T11:36:52.550Z</time>
      </trkpt>
      <trkpt lat="41.16734" lon="20.24799">
        <ele>256.021988</ele>
        <time>2022-05-01T11:36:53.562Z</time>
      </trkpt>
      <trkpt lat="41.16731" lon="20.24787">
        <ele>255.813937</ele>
        <time>2022-05-01T11:36:54.540Z</time>
      </trkpt>
      <trkpt lat="41.16729" lon="20.24774">
        <ele>255.601527</ele>
        <time>2022-05-01T11:36:55.552Z</time>
      </trkpt>
      <trkpt lat="41.16727" lon="20.24761">
        <ele>255.38424</ele>
        <time>2022-05-01T11:36:56.576Z</time>
      </trkpt>
      <trkpt lat="41.16725" lon="20.24747">
        <ele>255.163035</ele>
        <time>2022-05-01T11:36:57.576Z</time>
      </trkpt>
      <trkpt lat="41.16724" lon="20.24733">
        <ele>254.935904</ele>
        <time>2022-05-01T11:36:58.554Z</time>
      </trkpt>
      <trkpt lat="41.16722" lon="20.24719">
        <ele>254.707203</ele>
        <time>2022-05-01T11:36:59.559Z</time>
      </trkpt>
      <trkpt lat="41.1672" lon="20.24704">
        <ele>254.364721</ele>
        <time>2022-05-01T11:37:00.558Z</time>
      </trkpt>
      <trkpt lat="41.16718" lon="20.2469">
        <ele>253.853847</ele>
        <time>2022-05-01T11:37:01.535Z</time>
      </trkpt>
      <trkpt lat="41.16716" lon="20.24675">
        <ele>253.33624</ele>
        <time>2022-05-01T11:37:02.555Z</time>
      </trkpt>
      <trkpt lat="41.16714" lon="20.2466">
        <ele>252.810018</ele>
        <time>2022-05-01T11:37:03.547Z</time>
      </trkpt>
      <trkpt lat="41.16712" lon="20.24644">
        <ele>252.273084</ele>
        <time>2022-05-01T11:37:04.592Z</time>
      </trkpt>
      <trkpt lat="41.16709" lon="20.24629">
        <ele>251.732319</ele>
        <time>2022-05-01T11:37:05.559Z</time>
      </trkpt>
      <trkpt lat="41.16706" lon="20.24614">
        <ele>251.22253</ele>
        <time>2022-05-01T11:37:06.599Z</time>
      </trkpt>
      <trkpt lat="41.16703" lon="20.246">
        <ele>250.71509</ele>
        <time>2022-05-01T11:37:07.580Z</time>
      </trkpt>
      <trkpt lat="41.16699" lon="20.24586">
        <ele>250.209137</ele>
        <time>2022-05-01T11:37:08.577Z</time>
      </trkpt>
      <trkpt lat="41.16696" lon="20.24572">
        <ele>249.696272</ele>
        <time>2022-05-01T11:37:09.551Z</time>
      </trkpt>
      <trkpt lat="41.16692" lon="20.24558">
        <ele>249.191293</ele>
        <time>2022-05-01T11:37:10.585Z</time>
      </trkpt>
      <trkpt lat="41.16689" lon="20.24544">
        <ele>248.680293</ele>
        <time>2022-05-01T11:37:11.574Z</time>
      </trkpt>
      <trkpt lat="41.16685" lon="20.2453">
        <ele>248.172542</ele>
        <time>2022-05-01T11:37:12.548Z</time>
      </trkpt>
      <trkpt lat="41.16682" lon="20.24515">
        <ele>247.66011</ele>
        <time>2022-05-01T11:37:13.549Z</time>
      </trkpt>
      <trkpt lat="41.16678" lon="20.24501">
        <ele>247.14621</ele>
        <time>2022-05-01T11:37:14.556Z</time>
      </trkpt>
      <trkpt lat="41.16674" lon="20.24487">
        <ele>246.62584</ele>
        <time>2022-05-01T11:37:15.555Z</time>
      </trkpt>
      <trkpt lat="41.16671" lon="20.24473">
        <ele>245.896043</ele>
        <time>2022-05-01T11:37:16.552Z</time>
      </trkpt>
      <trkpt lat="41.16666" lon="20.24459">
        <ele>244.990418</ele>
        <time>2022-05-01T11:37:17.560Z</time>
      </trkpt>
      <trkpt lat="41.16661" lon="20.24446">
        <ele>244.110774</ele>
        <time>2022-05-01T11:37:18.577Z</time>
      </trkpt>
      <trkpt lat="41.16655" lon="20.24434">
        <ele>243.265747</ele>
        <time>2022-05-01T11:37:19.549Z</time>
      </trkpt>
      <trkpt lat="41.16648" lon="20.24423">
        <ele>242.380528</ele>
        <time>2022-05-01T11:37:20.554Z</time>
      </trkpt>
      <trkpt lat="41.1664" lon="20.24414">
        <ele>241.527128</ele>
        <time>2022-05-01T11:37:21.554Z</time>
      </trkpt>
      <trkpt lat="41.16631" lon="20.24407">
        <ele>240.720015</ele>
        <time>2022-05-01T11:37:22.563Z</time>
      </trkpt>
      <trkpt lat="41.16622" lon="20.24401">
        <ele>239.901275</ele>
        <time>2022-05-01T11:37:23.543Z</time>
      </trkpt>
      <trkpt lat="41.16612" lon="20.24397">
        <ele>239.084071</ele>
        <time>2022-05-01T11:37:24.615Z</time>
      </trkpt>
      <trkpt lat="41.16602" lon="20.24395">
        <ele>238.2953</ele>
        <time>2022-05-01T11:37:25.569Z</time>
      </trkpt>
      <trkpt lat="41.16592" lon="20.24393">
        <ele>237.480425</ele>
        <time>2022-05-01T11:37:26.552Z</time>
      </trkpt>
      <trkpt lat="41.16582" lon="20.24391">
        <ele>236.66732</ele>
        <time>2022-05-01T11:37:27.567Z</time>
      </trkpt>
      <trkpt lat="41.16572" lon="20.24388">
        <ele>235.889756</ele>
        <time>2022-05-01T11:37:28.554Z</time>
      </trkpt>
      <trkpt lat="41.16563" lon="20.24385">
        <ele>235.14711</ele>
        <time>2022-05-01T11:37:29.557Z</time>
      </trkpt>
      <trkpt lat="41.16555" lon="20.24381">
        <ele>234.405854</ele>
        <time>2022-05-01T11:37:30.626Z</time>
      </trkpt>
      <trkpt lat="41.16546" lon="20.24373">
        <ele>233.599044</ele>
        <time>2022-05-01T11:37:31.548Z</time>
      </trkpt>
      <trkpt lat="41.16538" lon="20.24366">
        <ele>232.792234</ele>
        <time>2022-05-01T11:37:32.542Z</time>
      </trkpt>
      <trkpt lat="41.1653" lon="20.24358">
        <ele>232.028235</ele>
        <time>2022-05-01T11:37:33.599Z</time>
      </trkpt>
      <trkpt lat="41.16523" lon="20.24351">
        <ele>231.449592</ele>
        <time>2022-05-01T11:37:34.571Z</time>
      </trkpt>
      <trkpt lat="41.1651" lon="20.24335">
        <ele>230.324257</ele>
        <time>2022-05-01T11:37:36.550Z</time>
      </trkpt>
      <trkpt lat="41.16499" lon="20.24318">
        <ele>229.259575</ele>
        <time>2022-05-01T11:37:38.538Z</time>
      </trkpt>
      <trkpt lat="41.16491" lon="20.24301">
        <ele>228.270837</ele>
        <time>2022-05-01T11:37:40.554Z</time>
      </trkpt>
      <trkpt lat="41.16484" lon="20.24283">
        <ele>227.349824</ele>
        <time>2022-05-01T11:37:42.561Z</time>
      </trkpt>
      <trkpt lat="41.16479" lon="20.24267">
        <ele>226.485733</ele>
        <time>2022-05-01T11:37:44.560Z</time>
      </trkpt>
      <trkpt lat="41.16477" lon="20.24251">
        <ele>225.7255</ele>
        <time>2022-05-01T11:37:46.588Z</time>
      </trkpt>
      <trkpt lat="41.16476" lon="20.24238">
        <ele>225.066319</ele>
        <time>2022-05-01T11:37:48.567Z</time>
      </trkpt>
      <trkpt lat="41.16475" lon="20.2422">
        <ele>224.208582</ele>
        <time>2022-05-01T11:37:51.545Z</time>
      </trkpt>
      <trkpt lat="41.16475" lon="20.24207">
        <ele>223.605424</ele>
        <time>2022-05-01T11:37:53.555Z</time>
      </trkpt>
      <trkpt lat="41.16474" lon="20.24191">
        <ele>222.821628</ele>
        <time>2022-05-01T11:37:56.557Z</time>
      </trkpt>
      <trkpt lat="41.16476" lon="20.24174">
        <ele>222.017785</ele>
        <time>2022-05-01T11:37:59.548Z</time>
      </trkpt>
      <trkpt lat="41.16478" lon="20.24162">
        <ele>221.417472</ele>
        <time>2022-05-01T11:38:01.545Z</time>
      </trkpt>
      <trkpt lat="41.16479" lon="20.24149">
        <ele>220.774654</ele>
        <time>2022-05-01T11:38:03.595Z</time>
      </trkpt>
      <trkpt lat="41.16481" lon="20.24135">
        <ele>220.611705</ele>
        <time>2022-05-01T11:38:05.546Z</time>
      </trkpt>
      <trkpt lat="41.16484" lon="20.24121">
        <ele>220.654313</ele>
        <time>2022-05-01T11:38:07.615Z</time>
      </trkpt>
      <trkpt lat="41.16485" lon="20.24108">
        <ele>220.694702</ele>
        <time>2022-05-01T11:38:09.555Z</time>
      </trkpt>
      <trkpt lat="41.16487" lon="20.24095">
        <ele>220.734139</ele>
        <time>2022-05-01T11:38:11.560Z</time>
      </trkpt>
      <trkpt lat="41.16488" lon="20.24082">
        <ele>220.773218</ele>
        <time>2022-05-01T11:38:13.549Z</time>
      </trkpt>
      <trkpt lat="41.16489" lon="20.24066">
        <ele>220.820847</ele>
        <time>2022-05-01T11:38:16.549Z</time>
      </trkpt>
      <trkpt lat="41.16489" lon="20.24052">
        <ele>220.864324</ele>
        <time>2022-05-01T11:38:19.584Z</time>
      </trkpt>
      <trkpt lat="41.1649" lon="20.24035">
        <ele>220.912832</ele>
        <time>2022-05-01T11:38:22.554Z</time>
      </trkpt>
      <trkpt lat="41.16489" lon="20.24018">
        <ele>220.966195</ele>
        <time>2022-05-01T11:38:25.548Z</time>
      </trkpt>
      <trkpt lat="41.16489" lon="20.24004">
        <ele>221.005717</ele>
        <time>2022-05-01T11:38:27.628Z</time>
      </trkpt>
      <trkpt lat="41.16489" lon="20.23991">
        <ele>221.047049</ele>
        <time>2022-05-01T11:38:29.549Z</time>
      </trkpt>
      <trkpt lat="41.16491" lon="20.23976">
        <ele>221.09102</ele>
        <time>2022-05-01T11:38:31.554Z</time>
      </trkpt>
      <trkpt lat="41.16493" lon="20.2396">
        <ele>221.138692</ele>
        <time>2022-05-01T11:38:33.606Z</time>
      </trkpt>
      <trkpt lat="41.16496" lon="20.23944">
        <ele>221.189663</ele>
        <time>2022-05-01T11:38:35.562Z</time>
      </trkpt>
      <trkpt lat="41.16501" lon="20.23928">
        <ele>221.241223</ele>
        <time>2022-05-01T11:38:37.549Z</time>
      </trkpt>
      <trkpt lat="41.16506" lon="20.23913">
        <ele>221.290664</ele>
        <time>2022-05-01T11:38:39.570Z</time>
      </trkpt>
      <trkpt lat="41.16511" lon="20.23896">
        <ele>221.69003</ele>
        <time>2022-05-01T11:38:41.548Z</time>
      </trkpt>
      <trkpt lat="41.16517" lon="20.2388">
        <ele>222.153912</ele>
        <time>2022-05-01T11:38:43.562Z</time>
      </trkpt>
      <trkpt lat="41.16524" lon="20.23862">
        <ele>222.657087</ele>
        <time>2022-05-01T11:38:45.542Z</time>
      </trkpt>
      <trkpt lat="41.16531" lon="20.23844">
        <ele>223.163789</ele>
        <time>2022-05-01T11:38:47.586Z</time>
      </trkpt>
      <trkpt lat="41.1654" lon="20.23829">
        <ele>223.636199</ele>
        <time>2022-05-01T11:38:49.579Z</time>
      </trkpt>
      <trkpt lat="41.16548" lon="20.23815">
        <ele>224.070882</ele>
        <time>2022-05-01T11:38:51.555Z</time>
      </trkpt>
      <trkpt lat="41.16556" lon="20.23802">
        <ele>224.498026</ele>
        <time>2022-05-01T11:38:53.560Z</time>
      </trkpt>
      <trkpt lat="41.16564" lon="20.23789">
        <ele>224.900807</ele>
        <time>2022-05-01T11:38:55.561Z</time>
      </trkpt>
      <trkpt lat="41.1657" lon="20.23777">
        <ele>225.266173</ele>
        <time>2022-05-01T11:38:57.537Z</time>
      </trkpt>
      <trkpt lat="41.16576" lon="20.23764">
        <ele>225.643158</ele>
        <time>2022-05-01T11:38:59.536Z</time>
      </trkpt>
      <trkpt lat="41.16581" lon="20.23751">
        <ele>226.012609</ele>
        <time>2022-05-01T11:39:01.551Z</time>
      </trkpt>
      <trkpt lat="41.16585" lon="20.23739">
        <ele>226.338154</ele>
        <time>2022-05-01T11:39:03.554Z</time>
      </trkpt>
      <trkpt lat="41.1659" lon="20.23724">
        <ele>226.745118</ele>
        <time>2022-05-01T11:39:06.547Z</time>
      </trkpt>
      <trkpt lat="41.16594" lon="20.2371">
        <ele>227.136524</ele>
        <time>2022-05-01T11:39:09.599Z</time>
      </trkpt>
      <trkpt lat="41.16598" lon="20.23696">
        <ele>227.476821</ele>
        <time>2022-05-01T11:39:12.544Z</time>
      </trkpt>
      <trkpt lat="41.16601" lon="20.23684">
        <ele>227.761335</ele>
        <time>2022-05-01T11:39:15.532Z</time>
      </trkpt>
      <trkpt lat="41.16603" lon="20.23671">
        <ele>228.058063</ele>
        <time>2022-05-01T11:39:19.560Z</time>
      </trkpt>
      <trkpt lat="41.16605" lon="20.23659">
        <ele>228.331143</ele>
        <time>2022-05-01T11:39:23.559Z</time>
      </trkpt>
      <trkpt lat="41.16607" lon="20.23646">
        <ele>228.614849</ele>
        <time>2022-05-01T11:39:28.557Z</time>
      </trkpt>
      <trkpt lat="41.1661" lon="20.23634">
        <ele>228.893394</ele>
        <time>2022-05-01T11:39:33.554Z</time>
      </trkpt>
      <trkpt lat="41.16613" lon="20.23622">
        <ele>229.185725</ele>
        <time>2022-05-01T11:39:38.555Z</time>
      </trkpt>
      <trkpt lat="41.16616" lon="20.2361">
        <ele>229.454885</ele>
        <time>2022-05-01T11:39:43.555Z</time>
      </trkpt>
      <trkpt lat="41.16618" lon="20.23597">
        <ele>229.769521</ele>
        <time>2022-05-01T11:39:49.607Z</time>
      </trkpt>
      <trkpt lat="41.1662" lon="20.23585">
        <ele>230.041444</ele>
        <time>2022-05-01T11:39:54.556Z</time>
      </trkpt>
      <trkpt lat="41.16623" lon="20.23572">
        <ele>230.346029</ele>
        <time>2022-05-01T11:39:59.596Z</time>
      </trkpt>
      <trkpt lat="41.16626" lon="20.23557">
        <ele>230.670126</ele>
        <time>2022-05-01T11:40:04.554Z</time>
      </trkpt>
      <trkpt lat="41.16627" lon="20.23544">
        <ele>230.968865</ele>
        <time>2022-05-01T11:40:09.557Z</time>
      </trkpt>
      <trkpt lat="41.16629" lon="20.23531">
        <ele>231.263949</ele>
        <time>2022-05-01T11:40:13.554Z</time>
      </trkpt>
      <trkpt lat="41.16631" lon="20.23517">
        <ele>231.58026</ele>
        <time>2022-05-01T11:40:17.557Z</time>
      </trkpt>
      <trkpt lat="41.16633" lon="20.23503">
        <ele>231.889</ele>
        <time>2022-05-01T11:40:20.568Z</time>
      </trkpt>
      <trkpt lat="41.16635" lon="20.23488">
        <ele>232.233147</ele>
        <time>2022-05-01T11:40:23.555Z</time>
      </trkpt>
      <trkpt lat="41.16637" lon="20.23471">
        <ele>232.557072</ele>
        <time>2022-05-01T11:40:26.539Z</time>
      </trkpt>
      <trkpt lat="41.16639" lon="20.23454">
        <ele>232.362444</ele>
        <time>2022-05-01T11:40:29.562Z</time>
      </trkpt>
      <trkpt lat="41.16641" lon="20.23436">
        <ele>232.159335</ele>
        <time>2022-05-01T11:40:32.593Z</time>
      </trkpt>
      <trkpt lat="41.16642" lon="20.23423">
        <ele>232.007472</ele>
        <time>2022-05-01T11:40:34.565Z</time>
      </trkpt>
      <trkpt lat="41.16642" lon="20.23408">
        <ele>231.842465</ele>
        <time>2022-05-01T11:40:36.567Z</time>
      </trkpt>
      <trkpt lat="41.16643" lon="20.23391">
        <ele>231.644706</ele>
        <time>2022-05-01T11:40:38.598Z</time>
      </trkpt>
      <trkpt lat="41.16643" lon="20.23372">
        <ele>231.429795</ele>
        <time>2022-05-01T11:40:40.557Z</time>
      </trkpt>
      <trkpt lat="41.16645" lon="20.23352">
        <ele>231.198076</ele>
        <time>2022-05-01T11:40:42.548Z</time>
      </trkpt>
      <trkpt lat="41.16647" lon="20.2333">
        <ele>230.949585</ele>
        <time>2022-05-01T11:40:44.535Z</time>
      </trkpt>
      <trkpt lat="41.16647" lon="20.23309">
        <ele>230.710071</ele>
        <time>2022-05-01T11:40:46.552Z</time>
      </trkpt>
      <trkpt lat="41.16646" lon="20.23287">
        <ele>230.470895</ele>
        <time>2022-05-01T11:40:48.568Z</time>
      </trkpt>
      <trkpt lat="41.16643" lon="20.23265">
        <ele>230.219067</ele>
        <time>2022-05-01T11:40:50.555Z</time>
      </trkpt>
      <trkpt lat="41.16639" lon="20.23245">
        <ele>229.976963</ele>
        <time>2022-05-01T11:40:52.610Z</time>
      </trkpt>
      <trkpt lat="41.16633" lon="20.23226">
        <ele>229.802012</ele>
        <time>2022-05-01T11:40:54.552Z</time>
      </trkpt>
      <trkpt lat="41.16628" lon="20.23209">
        <ele>229.680801</ele>
        <time>2022-05-01T11:40:56.537Z</time>
      </trkpt>
      <trkpt lat="41.16622" lon="20.23193">
        <ele>229.564256</ele>
        <time>2022-05-01T11:40:58.572Z</time>
      </trkpt>
      <trkpt lat="41.16615" lon="20.23179">
        <ele>229.460895</ele>
        <time>2022-05-01T11:41:00.591Z</time>
      </trkpt>
      <trkpt lat="41.16609" lon="20.23167">
        <ele>229.365736</ele>
        <time>2022-05-01T11:41:02.555Z</time>
      </trkpt>
      <trkpt lat="41.16603" lon="20.23156">
        <ele>229.277703</ele>
        <time>2022-05-01T11:41:04.564Z</time>
      </trkpt>
      <trkpt lat="41.16597" lon="20.23147">
        <ele>229.194983</ele>
        <time>2022-05-01T11:41:06.551Z</time>
      </trkpt>
      <trkpt lat="41.1659" lon="20.23138">
        <ele>229.11507</ele>
        <time>2022-05-01T11:41:08.552Z</time>
      </trkpt>
      <trkpt lat="41.16582" lon="20.23125">
        <ele>229.00029</ele>
        <time>2022-05-01T11:41:11.579Z</time>
      </trkpt>
      <trkpt lat="41.16574" lon="20.23112">
        <ele>228.893681</ele>
        <time>2022-05-01T11:41:14.623Z</time>
      </trkpt>
      <trkpt lat="41.16567" lon="20.23102">
        <ele>228.803006</ele>
        <time>2022-05-01T11:41:17.550Z</time>
      </trkpt>
      <trkpt lat="41.16561" lon="20.23091">
        <ele>228.716499</ele>
        <time>2022-05-01T11:41:20.531Z</time>
      </trkpt>
      <trkpt lat="41.16554" lon="20.23081">
        <ele>228.628077</ele>
        <time>2022-05-01T11:41:23.560Z</time>
      </trkpt>
      <trkpt lat="41.16547" lon="20.23072">
        <ele>228.540959</ele>
        <time>2022-05-01T11:41:26.555Z</time>
      </trkpt>
      <trkpt lat="41.16541" lon="20.23062">
        <ele>228.459003</ele>
        <time>2022-05-01T11:41:29.546Z</time>
      </trkpt>
      <trkpt lat="41.16534" lon="20.23052">
        <ele>228.372012</ele>
        <time>2022-05-01T11:41:32.548Z</time>
      </trkpt>
      <trkpt lat="41.16527" lon="20.23043">
        <ele>228.575406</ele>
        <time>2022-05-01T11:41:35.641Z</time>
      </trkpt>
      <trkpt lat="41.1652" lon="20.23033">
        <ele>229.238461</ele>
        <time>2022-05-01T11:41:38.567Z</time>
      </trkpt>
      <trkpt lat="41.16513" lon="20.23023">
        <ele>229.926781</ele>
        <time>2022-05-01T11:41:41.580Z</time>
      </trkpt>
      <trkpt lat="41.16506" lon="20.23014">
        <ele>230.594135</ele>
        <time>2022-05-01T11:41:44.553Z</time>
      </trkpt>
      <trkpt lat="41.16499" lon="20.23004">
        <ele>231.246442</ele>
        <time>2022-05-01T11:41:47.566Z</time>
      </trkpt>
      <trkpt lat="41.16491" lon="20.22995">
        <ele>231.916541</ele>
        <time>2022-05-01T11:41:50.596Z</time>
      </trkpt>
      <trkpt lat="41.16484" lon="20.22986">
        <ele>232.559803</ele>
        <time>2022-05-01T11:41:53.567Z</time>
      </trkpt>
      <trkpt lat="41.16476" lon="20.22974">
        <ele>233.327259</ele>
        <time>2022-05-01T11:41:56.567Z</time>
      </trkpt>
      <trkpt lat="41.16469" lon="20.22962">
        <ele>234.14077</ele>
        <time>2022-05-01T11:41:59.560Z</time>
      </trkpt>
      <trkpt lat="41.16461" lon="20.22949">
        <ele>234.926392</ele>
        <time>2022-05-01T11:42:02.559Z</time>
      </trkpt>
      <trkpt lat="41.16456" lon="20.22937">
        <ele>235.642929</ele>
        <time>2022-05-01T11:42:05.572Z</time>
      </trkpt>
      <trkpt lat="41.1645" lon="20.22923">
        <ele>236.415929</ele>
        <time>2022-05-01T11:42:08.576Z</time>
      </trkpt>
      <trkpt lat="41.16446" lon="20.22908">
        <ele>237.162851</ele>
        <time>2022-05-01T11:42:11.562Z</time>
      </trkpt>
      <trkpt lat="41.16442" lon="20.22895">
        <ele>237.880732</ele>
        <time>2022-05-01T11:42:14.568Z</time>
      </trkpt>
      <trkpt lat="41.16437" lon="20.22881">
        <ele>238.633705</ele>
        <time>2022-05-01T11:42:17.556Z</time>
      </trkpt>
      <trkpt lat="41.16433" lon="20.22867">
        <ele>239.382914</ele>
        <time>2022-05-01T11:42:20.530Z</time>
      </trkpt>
      <trkpt lat="41.1643" lon="20.22854">
        <ele>240.063478</ele>
        <time>2022-05-01T11:42:23.544Z</time>
      </trkpt>
      <trkpt lat="41.16427" lon="20.22841">
        <ele>239.69308</ele>
        <time>2022-05-01T11:42:26.589Z</time>
      </trkpt>
      <trkpt lat="41.16423" lon="20.22826">
        <ele>239.14516</ele>
        <time>2022-05-01T11:42:29.565Z</time>
      </trkpt>
      <trkpt lat="41.16421" lon="20.2281">
        <ele>238.593981</ele>
        <time>2022-05-01T11:42:32.553Z</time>
      </trkpt>
      <trkpt lat="41.1642" lon="20.22795">
        <ele>238.075728</ele>
        <time>2022-05-01T11:42:35.555Z</time>
      </trkpt>
      <trkpt lat="41.1642" lon="20.22779">
        <ele>237.545058</ele>
        <time>2022-05-01T11:42:38.543Z</time>
      </trkpt>
      <trkpt lat="41.1642" lon="20.22762">
        <ele>236.952746</ele>
        <time>2022-05-01T11:42:41.599Z</time>
      </trkpt>
      <trkpt lat="41.16421" lon="20.22744">
        <ele>236.360014</ele>
        <time>2022-05-01T11:42:44.550Z</time>
      </trkpt>
      <trkpt lat="41.16421" lon="20.22727">
        <ele>235.77002</ele>
        <time>2022-05-01T11:42:47.586Z</time>
      </trkpt>
      <trkpt lat="41.16423" lon="20.2271">
        <ele>235.177548</ele>
        <time>2022-05-01T11:42:50.559Z</time>
      </trkpt>
      <trkpt lat="41.16425" lon="20.22698">
        <ele>234.75357</ele>
        <time>2022-05-01T11:42:52.549Z</time>
      </trkpt>
      <trkpt lat="41.16427" lon="20.22685">
        <ele>234.284015</ele>
        <time>2022-05-01T11:42:54.563Z</time>
      </trkpt>
      <trkpt lat="41.1643" lon="20.2267">
        <ele>233.756828</ele>
        <time>2022-05-01T11:42:56.546Z</time>
      </trkpt>
      <trkpt lat="41.16434" lon="20.22655">
        <ele>233.222446</ele>
        <time>2022-05-01T11:42:58.538Z</time>
      </trkpt>
      <trkpt lat="41.16438" lon="20.2264">
        <ele>232.688535</ele>
        <time>2022-05-01T11:43:00.534Z</time>
      </trkpt>
      <trkpt lat="41.16443" lon="20.22622">
        <ele>232.025235</ele>
        <time>2022-05-01T11:43:02.548Z</time>
      </trkpt>
      <trkpt lat="41.16448" lon="20.22603">
        <ele>231.295666</ele>
        <time>2022-05-01T11:43:04.579Z</time>
      </trkpt>
      <trkpt lat="41.16453" lon="20.22584">
        <ele>230.573119</ele>
        <time>2022-05-01T11:43:06.544Z</time>
      </trkpt>
      <trkpt lat="41.16459" lon="20.22565">
        <ele>229.816074</ele>
        <time>2022-05-01T11:43:08.587Z</time>
      </trkpt>
      <trkpt lat="41.16465" lon="20.22547">
        <ele>229.090104</ele>
        <time>2022-05-01T11:43:10.598Z</time>
      </trkpt>
      <trkpt lat="41.1647" lon="20.22529">
        <ele>228.386309</ele>
        <time>2022-05-01T11:43:12.538Z</time>
      </trkpt>
      <trkpt lat="41.16475" lon="20.22509">
        <ele>227.641127</ele>
        <time>2022-05-01T11:43:14.573Z</time>
      </trkpt>
      <trkpt lat="41.1648" lon="20.2249">
        <ele>226.894633</ele>
        <time>2022-05-01T11:43:16.533Z</time>
      </trkpt>
      <trkpt lat="41.16485" lon="20.22471">
        <ele>226.149916</ele>
        <time>2022-05-01T11:43:18.545Z</time>
      </trkpt>
      <trkpt lat="41.16491" lon="20.22452">
        <ele>225.427168</ele>
        <time>2022-05-01T11:43:20.544Z</time>
      </trkpt>
      <trkpt lat="41.16496" lon="20.22435">
        <ele>224.7261</ele>
        <time>2022-05-01T11:43:22.555Z</time>
      </trkpt>
      <trkpt lat="41.16502" lon="20.22417">
        <ele>224.029147</ele>
        <time>2022-05-01T11:43:24.555Z</time>
      </trkpt>
      <trkpt lat="41.16508" lon="20.22402">
        <ele>223.395548</ele>
        <time>2022-05-01T11:43:26.551Z</time>
      </trkpt>
      <trkpt lat="41.16515" lon="20.22386">
        <ele>223.257015</ele>
        <time>2022-05-01T11:43:28.551Z</time>
      </trkpt>
      <trkpt lat="41.16521" lon="20.22372">
        <ele>223.26953</ele>
        <time>2022-05-01T11:43:30.551Z</time>
      </trkpt>
      <trkpt lat="41.16528" lon="20.22359">
        <ele>223.281928</ele>
        <time>2022-05-01T11:43:32.549Z</time>
      </trkpt>
      <trkpt lat="41.16535" lon="20.22346">
        <ele>223.293369</ele>
        <time>2022-05-01T11:43:34.553Z</time>
      </trkpt>
      <trkpt lat="41.1654" lon="20.22335">
        <ele>223.303396</ele>
        <time>2022-05-01T11:43:36.535Z</time>
      </trkpt>
      <trkpt lat="41.16546" lon="20.22324">
        <ele>223.313091</ele>
        <time>2022-05-01T11:43:38.588Z</time>
      </trkpt>
      <trkpt lat="41.16551" lon="20.22314">
        <ele>223.322575</ele>
        <time>2022-05-01T11:43:40.558Z</time>
      </trkpt>
      <trkpt lat="41.16555" lon="20.22302">
        <ele>223.332111</ele>
        <time>2022-05-01T11:43:42.551Z</time>
      </trkpt>
      <trkpt lat="41.16559" lon="20.22291">
        <ele>223.341719</ele>
        <time>2022-05-01T11:43:44.550Z</time>
      </trkpt>
      <trkpt lat="41.16563" lon="20.22279">
        <ele>223.351345</ele>
        <time>2022-05-01T11:43:46.565Z</time>
      </trkpt>
      <trkpt lat="41.16567" lon="20.22267">
        <ele>223.361354</ele>
        <time>2022-05-01T11:43:48.570Z</time>
      </trkpt>
      <trkpt lat="41.16572" lon="20.22255">
        <ele>223.371704</ele>
        <time>2022-05-01T11:43:50.554Z</time>
      </trkpt>
      <trkpt lat="41.16576" lon="20.22242">
        <ele>223.382027</ele>
        <time>2022-05-01T11:43:52.558Z</time>
      </trkpt>
      <trkpt lat="41.1658" lon="20.2223">
        <ele>223.392325</ele>
        <time>2022-05-01T11:43:54.558Z</time>
      </trkpt>
      <trkpt lat="41.16583" lon="20.22217">
        <ele>223.402536</ele>
        <time>2022-05-01T11:43:56.536Z</time>
      </trkpt>
      <trkpt lat="41.16586" lon="20.22204">
        <ele>223.412551</ele>
        <time>2022-05-01T11:43:58.548Z</time>
      </trkpt>
      <trkpt lat="41.16589" lon="20.22192">
        <ele>223.421876</ele>
        <time>2022-05-01T11:44:00.579Z</time>
      </trkpt>
      <trkpt lat="41.16592" lon="20.22178">
        <ele>223.4787</ele>
        <time>2022-05-01T11:44:02.567Z</time>
      </trkpt>
      <trkpt lat="41.16596" lon="20.22163">
        <ele>223.581174</ele>
        <time>2022-05-01T11:44:04.583Z</time>
      </trkpt>
      <trkpt lat="41.166" lon="20.22149">
        <ele>223.68182</ele>
        <time>2022-05-01T11:44:06.545Z</time>
      </trkpt>
      <trkpt lat="41.16603" lon="20.22135">
        <ele>223.777042</ele>
        <time>2022-05-01T11:44:08.560Z</time>
      </trkpt>
      <trkpt lat="41.16607" lon="20.22122">
        <ele>223.867142</ele>
        <time>2022-05-01T11:44:10.550Z</time>
      </trkpt>
      <trkpt lat="41.1661" lon="20.22109">
        <ele>223.953113</ele>
        <time>2022-05-01T11:44:12.574Z</time>
      </trkpt>
      <trkpt lat="41.16612" lon="20.22096">
        <ele>224.037306</ele>
        <time>2022-05-01T11:44:14.531Z</time>
      </trkpt>
      <trkpt lat="41.16615" lon="20.22079">
        <ele>224.154016</ele>
        <time>2022-05-01T11:44:17.578Z</time>
      </trkpt>
      <trkpt lat="41.16618" lon="20.22063">
        <ele>224.258222</ele>
        <time>2022-05-01T11:44:20.548Z</time>
      </trkpt>
      <trkpt lat="41.16621" lon="20.22049">
        <ele>224.355611</ele>
        <time>2022-05-01T11:44:23.558Z</time>
      </trkpt>
      <trkpt lat="41.16625" lon="20.22033">
        <ele>224.45971</ele>
        <time>2022-05-01T11:44:26.558Z</time>
      </trkpt>
      <trkpt lat="41.1663" lon="20.22017">
        <ele>224.574598</ele>
        <time>2022-05-01T11:44:29.560Z</time>
      </trkpt>
      <trkpt lat="41.16634" lon="20.22004">
        <ele>224.66417</ele>
        <time>2022-05-01T11:44:31.556Z</time>
      </trkpt>
      <trkpt lat="41.16638" lon="20.2199">
        <ele>224.761778</ele>
        <time>2022-05-01T11:44:33.552Z</time>
      </trkpt>
      <trkpt lat="41.16641" lon="20.21976">
        <ele>224.857894</ele>
        <time>2022-05-01T11:44:35.547Z</time>
      </trkpt>
      <trkpt lat="41.16645" lon="20.21961">
        <ele>224.958539</ele>
        <time>2022-05-01T11:44:37.549Z</time>
      </trkpt>
      <trkpt lat="41.16649" lon="20.21947">
        <ele>224.985057</ele>
        <time>2022-05-01T11:44:39.588Z</time>
      </trkpt>
      <trkpt lat="41.16652" lon="20.21932">
        <ele>224.997536</ele>
        <time>2022-05-01T11:44:41.555Z</time>
      </trkpt>
      <trkpt lat="41.16656" lon="20.21916">
        <ele>225.010427</ele>
        <time>2022-05-01T11:44:43.537Z</time>
      </trkpt>
      <trkpt lat="41.1666" lon="20.21901">
        <ele>225.023591</ele>
        <time>2022-05-01T11:44:45.552Z</time>
      </trkpt>
      <trkpt lat="41.16663" lon="20.21884">
        <ele>225.037252</ele>
        <time>2022-05-01T11:44:47.558Z</time>
      </trkpt>
      <trkpt lat="41.16668" lon="20.21867">
        <ele>225.052342</ele>
        <time>2022-05-01T11:44:49.566Z</time>
      </trkpt>
      <trkpt lat="41.16673" lon="20.21848">
        <ele>225.068172</ele>
        <time>2022-05-01T11:44:51.549Z</time>
      </trkpt>
      <trkpt lat="41.16678" lon="20.21828">
        <ele>225.085134</ele>
        <time>2022-05-01T11:44:53.559Z</time>
      </trkpt>
      <trkpt lat="41.16685" lon="20.21809">
        <ele>225.101863</ele>
        <time>2022-05-01T11:44:55.565Z</time>
      </trkpt>
      <trkpt lat="41.1669" lon="20.21791">
        <ele>225.117254</ele>
        <time>2022-05-01T11:44:57.577Z</time>
      </trkpt>
      <trkpt lat="41.16695" lon="20.21774">
        <ele>225.131336</ele>
        <time>2022-05-01T11:44:59.565Z</time>
      </trkpt>
      <trkpt lat="41.16699" lon="20.21759">
        <ele>225.144291</ele>
        <time>2022-05-01T11:45:01.587Z</time>
      </trkpt>
      <trkpt lat="41.16702" lon="20.21747">
        <ele>225.154626</ele>
        <time>2022-05-01T11:45:03.549Z</time>
      </trkpt>
      <trkpt lat="41.16708" lon="20.21732">
        <ele>225.201778</ele>
        <time>2022-05-01T11:45:06.558Z</time>
      </trkpt>
      <trkpt lat="41.16712" lon="20.2172">
        <ele>225.370942</ele>
        <time>2022-05-01T11:45:09.544Z</time>
      </trkpt>
      <trkpt lat="41.16717" lon="20.21706">
        <ele>225.574667</ele>
        <time>2022-05-01T11:45:13.549Z</time>
      </trkpt>
      <trkpt lat="41.16721" lon="20.21695">
        <ele>225.732516</ele>
        <time>2022-05-01T11:45:16.556Z</time>
      </trkpt>
      <trkpt lat="41.16725" lon="20.21681">
        <ele>225.933165</ele>
        <time>2022-05-01T11:45:20.548Z</time>
      </trkpt>
      <trkpt lat="41.16729" lon="20.21667">
        <ele>226.123914</ele>
        <time>2022-05-01T11:45:24.555Z</time>
      </trkpt>
      <trkpt lat="41.16732" lon="20.21653">
        <ele>226.320561</ele>
        <time>2022-05-01T11:45:28.563Z</time>
      </trkpt>
      <trkpt lat="41.16735" lon="20.2164">
        <ele>226.486169</ele>
        <time>2022-05-01T11:45:32.540Z</time>
      </trkpt>
      <trkpt lat="41.16737" lon="20.21627">
        <ele>226.671507</ele>
        <time>2022-05-01T11:45:36.550Z</time>
      </trkpt>
      <trkpt lat="41.1674" lon="20.21613">
        <ele>226.860609</ele>
        <time>2022-05-01T11:45:40.583Z</time>
      </trkpt>
      <trkpt lat="41.16742" lon="20.21601">
        <ele>227.01618</ele>
        <time>2022-05-01T11:45:43.551Z</time>
      </trkpt>
      <trkpt lat="41.16744" lon="20.21589">
        <ele>227.177153</ele>
        <time>2022-05-01T11:45:46.589Z</time>
      </trkpt>
      <trkpt lat="41.16745" lon="20.21577">
        <ele>227.337781</ele>
        <time>2022-05-01T11:45:49.554Z</time>
      </trkpt>
      <trkpt lat="41.16747" lon="20.21561">
        <ele>227.544593</ele>
        <time>2022-05-01T11:45:53.559Z</time>
      </trkpt>
      <trkpt lat="41.16747" lon="20.21549">
        <ele>227.704078</ele>
        <time>2022-05-01T11:45:56.550Z</time>
      </trkpt>
      <trkpt lat="41.16748" lon="20.21536">
        <ele>227.869617</ele>
        <time>2022-05-01T11:45:59.541Z</time>
      </trkpt>
      <trkpt lat="41.16749" lon="20.21521">
        <ele>228.05941</ele>
        <time>2022-05-01T11:46:02.552Z</time>
      </trkpt>
      <trkpt lat="41.1675" lon="20.21505">
        <ele>228.271243</ele>
        <time>2022-05-01T11:46:05.544Z</time>
      </trkpt>
      <trkpt lat="41.16751" lon="20.21493">
        <ele>228.110201</ele>
        <time>2022-05-01T11:46:07.568Z</time>
      </trkpt>
      <trkpt lat="41.16751" lon="20.2148">
        <ele>227.920581</ele>
        <time>2022-05-01T11:46:09.560Z</time>
      </trkpt>
      <trkpt lat="41.16751" lon="20.21464">
        <ele>227.707286</ele>
        <time>2022-05-01T11:46:11.553Z</time>
      </trkpt>
      <trkpt lat="41.1675" lon="20.21448">
        <ele>227.469525</ele>
        <time>2022-05-01T11:46:13.566Z</time>
      </trkpt>
      <trkpt lat="41.1675" lon="20.21429">
        <ele>227.205534</ele>
        <time>2022-05-01T11:46:15.577Z</time>
      </trkpt>
      <trkpt lat="41.1675" lon="20.21409">
        <ele>226.920351</ele>
        <time>2022-05-01T11:46:17.556Z</time>
      </trkpt>
      <trkpt lat="41.16749" lon="20.21387">
        <ele>226.616788</ele>
        <time>2022-05-01T11:46:19.536Z</time>
      </trkpt>
      <trkpt lat="41.16749" lon="20.21365">
        <ele>226.297612</ele>
        <time>2022-05-01T11:46:21.538Z</time>
      </trkpt>
      <trkpt lat="41.16748" lon="20.21341">
        <ele>225.965608</ele>
        <time>2022-05-01T11:46:23.548Z</time>
      </trkpt>
      <trkpt lat="41.16748" lon="20.21318">
        <ele>225.640787</ele>
        <time>2022-05-01T11:46:25.550Z</time>
      </trkpt>
      <trkpt lat="41.16747" lon="20.21296">
        <ele>225.32853</ele>
        <time>2022-05-01T11:46:27.553Z</time>
      </trkpt>
      <trkpt lat="41.16747" lon="20.21276">
        <ele>225.040548</ele>
        <time>2022-05-01T11:46:29.587Z</time>
      </trkpt>
      <trkpt lat="41.16747" lon="20.21256">
        <ele>224.92522</ele>
        <time>2022-05-01T11:46:31.560Z</time>
      </trkpt>
      <trkpt lat="41.16746" lon="20.21239">
        <ele>224.961585</ele>
        <time>2022-05-01T11:46:33.554Z</time>
      </trkpt>
      <trkpt lat="41.16746" lon="20.21225">
        <ele>224.993234</ele>
        <time>2022-05-01T11:46:35.563Z</time>
      </trkpt>
      <trkpt lat="41.16746" lon="20.21212">
        <ele>225.021031</ele>
        <time>2022-05-01T11:46:37.541Z</time>
      </trkpt>
      <trkpt lat="41.16745" lon="20.21194">
        <ele>225.05826</ele>
        <time>2022-05-01T11:46:40.556Z</time>
      </trkpt>
      <trkpt lat="41.16745" lon="20.21177">
        <ele>225.094198</ele>
        <time>2022-05-01T11:46:43.543Z</time>
      </trkpt>
      <trkpt lat="41.16745" lon="20.21165">
        <ele>225.11988</ele>
        <time>2022-05-01T11:46:45.556Z</time>
      </trkpt>
      <trkpt lat="41.16744" lon="20.21153">
        <ele>225.146303</ele>
        <time>2022-05-01T11:46:47.583Z</time>
      </trkpt>
      <trkpt lat="41.16743" lon="20.2114">
        <ele>225.173636</ele>
        <time>2022-05-01T11:46:49.553Z</time>
      </trkpt>
      <trkpt lat="41.16742" lon="20.21128">
        <ele>225.200937</ele>
        <time>2022-05-01T11:46:51.552Z</time>
      </trkpt>
      <trkpt lat="41.16741" lon="20.21116">
        <ele>225.226482</ele>
        <time>2022-05-01T11:46:53.573Z</time>
      </trkpt>
      <trkpt lat="41.1674" lon="20.21103">
        <ele>225.253425</ele>
        <time>2022-05-01T11:46:55.559Z</time>
      </trkpt>
      <trkpt lat="41.16738" lon="20.21091">
        <ele>225.279177</ele>
        <time>2022-05-01T11:46:57.534Z</time>
      </trkpt>
      <trkpt lat="41.16736" lon="20.21075">
        <ele>225.315848</ele>
        <time>2022-05-01T11:47:00.564Z</time>
      </trkpt>
      <trkpt lat="41.16734" lon="20.21059">
        <ele>225.349472</ele>
        <time>2022-05-01T11:47:03.552Z</time>
      </trkpt>
      <trkpt lat="41.16731" lon="20.21044">
        <ele>225.382146</ele>
        <time>2022-05-01T11:47:06.538Z</time>
      </trkpt>
      <trkpt lat="41.16729" lon="20.2103">
        <ele>225.413143</ele>
        <time>2022-05-01T11:47:09.559Z</time>
      </trkpt>
      <trkpt lat="41.16727" lon="20.21016">
        <ele>225.519912</ele>
        <time>2022-05-01T11:47:12.560Z</time>
      </trkpt>
      <trkpt lat="41.16724" lon="20.21003">
        <ele>225.63371</ele>
        <time>2022-05-01T11:47:15.537Z</time>
      </trkpt>
      <trkpt lat="41.16721" lon="20.20989">
        <ele>225.747019</ele>
        <time>2022-05-01T11:47:18.548Z</time>
      </trkpt>
      <trkpt lat="41.16718" lon="20.20976">
        <ele>225.855086</ele>
        <time>2022-05-01T11:47:21.552Z</time>
      </trkpt>
      <trkpt lat="41.16715" lon="20.20962">
        <ele>225.979851</ele>
        <time>2022-05-01T11:47:24.572Z</time>
      </trkpt>
      <trkpt lat="41.16711" lon="20.20946">
        <ele>226.108018</ele>
        <time>2022-05-01T11:47:27.558Z</time>
      </trkpt>
      <trkpt lat="41.16707" lon="20.20931">
        <ele>226.244745</ele>
        <time>2022-05-01T11:47:30.555Z</time>
      </trkpt>
      <trkpt lat="41.16702" lon="20.20914">
        <ele>226.388644</ele>
        <time>2022-05-01T11:47:33.570Z</time>
      </trkpt>
      <trkpt lat="41.16699" lon="20.20902">
        <ele>226.489516</ele>
        <time>2022-05-01T11:47:35.544Z</time>
      </trkpt>
      <trkpt lat="41.16695" lon="20.2089">
        <ele>226.5984</ele>
        <time>2022-05-01T11:47:37.547Z</time>
      </trkpt>
      <trkpt lat="41.1669" lon="20.20877">
        <ele>226.710058</ele>
        <time>2022-05-01T11:47:39.554Z</time>
      </trkpt>
      <trkpt lat="41.16686" lon="20.20864">
        <ele>226.826144</ele>
        <time>2022-05-01T11:47:41.552Z</time>
      </trkpt>
      <trkpt lat="41.16682" lon="20.2085">
        <ele>226.947526</ele>
        <time>2022-05-01T11:47:43.609Z</time>
      </trkpt>
      <trkpt lat="41.16677" lon="20.20836">
        <ele>227.076251</ele>
        <time>2022-05-01T11:47:45.556Z</time>
      </trkpt>
      <trkpt lat="41.16672" lon="20.2082">
        <ele>227.20983</ele>
        <time>2022-05-01T11:47:47.554Z</time>
      </trkpt>
      <trkpt lat="41.16666" lon="20.20805">
        <ele>227.343688</ele>
        <time>2022-05-01T11:47:49.552Z</time>
      </trkpt>
      <trkpt lat="41.16661" lon="20.2079">
        <ele>227.328269</ele>
        <time>2022-05-01T11:47:51.556Z</time>
      </trkpt>
      <trkpt lat="41.16656" lon="20.20774">
        <ele>227.31303</ele>
        <time>2022-05-01T11:47:53.573Z</time>
      </trkpt>
      <trkpt lat="41.16652" lon="20.20758">
        <ele>227.297847</ele>
        <time>2022-05-01T11:47:55.537Z</time>
      </trkpt>
      <trkpt lat="41.16648" lon="20.20743">
        <ele>227.282992</ele>
        <time>2022-05-01T11:47:57.554Z</time>
      </trkpt>
      <trkpt lat="41.16644" lon="20.20727">
        <ele>227.268021</ele>
        <time>2022-05-01T11:47:59.549Z</time>
      </trkpt>
      <trkpt lat="41.16642" lon="20.20711">
        <ele>227.253202</ele>
        <time>2022-05-01T11:48:01.584Z</time>
      </trkpt>
      <trkpt lat="41.1664" lon="20.20695">
        <ele>227.238615</ele>
        <time>2022-05-01T11:48:03.556Z</time>
      </trkpt>
      <trkpt lat="41.16639" lon="20.20679">
        <ele>227.223904</ele>
        <time>2022-05-01T11:48:05.548Z</time>
      </trkpt>
      <trkpt lat="41.16639" lon="20.20663">
        <ele>227.210072</ele>
        <time>2022-05-01T11:48:07.550Z</time>
      </trkpt>
      <trkpt lat="41.16639" lon="20.20648">
        <ele>227.196056</ele>
        <time>2022-05-01T11:48:09.551Z</time>
      </trkpt>
      <trkpt lat="41.1664" lon="20.20632">
        <ele>227.182022</ele>
        <time>2022-05-01T11:48:11.566Z</time>
      </trkpt>
      <trkpt lat="41.1664" lon="20.20617">
        <ele>227.168342</ele>
        <time>2022-05-01T11:48:13.543Z</time>
      </trkpt>
      <trkpt lat="41.16641" lon="20.20602">
        <ele>227.154473</ele>
        <time>2022-05-01T11:48:15.549Z</time>
      </trkpt>
      <trkpt lat="41.16642" lon="20.20588">
        <ele>227.141529</ele>
        <time>2022-05-01T11:48:17.556Z</time>
      </trkpt>
      <trkpt lat="41.16643" lon="20.20574">
        <ele>227.12948</ele>
        <time>2022-05-01T11:48:19.554Z</time>
      </trkpt>
      <trkpt lat="41.16644" lon="20.20562">
        <ele>227.383981</ele>
        <time>2022-05-01T11:48:21.544Z</time>
      </trkpt>
      <trkpt lat="41.16643" lon="20.20549">
        <ele>227.671498</ele>
        <time>2022-05-01T11:48:23.559Z</time>
      </trkpt>
      <trkpt lat="41.16641" lon="20.20537">
        <ele>227.948673</ele>
        <time>2022-05-01T11:48:25.560Z</time>
      </trkpt>
      <trkpt lat="41.16637" lon="20.20521">
        <ele>228.3438</ele>
        <time>2022-05-01T11:48:28.558Z</time>
      </trkpt>
      <trkpt lat="41.16631" lon="20.20506">
        <ele>228.738178</ele>
        <time>2022-05-01T11:48:31.553Z</time>
      </trkpt>
      <trkpt lat="41.16625" lon="20.20491">
        <ele>229.13203</ele>
        <time>2022-05-01T11:48:34.559Z</time>
      </trkpt>
      <trkpt lat="41.16618" lon="20.20476">
        <ele>229.540109</ele>
        <time>2022-05-01T11:48:37.550Z</time>
      </trkpt>
      <trkpt lat="41.16614" lon="20.20465">
        <ele>229.818888</ele>
        <time>2022-05-01T11:48:39.553Z</time>
      </trkpt>
      <trkpt lat="41.1661" lon="20.20454">
        <ele>230.096394</ele>
        <time>2022-05-01T11:48:41.538Z</time>
      </trkpt>
      <trkpt lat="41.16606" lon="20.20443">
        <ele>230.389397</ele>
        <time>2022-05-01T11:48:43.550Z</time>
      </trkpt>
      <trkpt lat="41.16603" lon="20.20431">
        <ele>230.680559</ele>
        <time>2022-05-01T11:48:45.555Z</time>
      </trkpt>
      <trkpt lat="41.16601" lon="20.20419">
        <ele>230.962244</ele>
        <time>2022-05-01T11:48:47.561Z</time>
      </trkpt>
      <trkpt lat="41.16601" lon="20.20401">
        <ele>231.366952</ele>
        <time>2022-05-01T11:48:50.581Z</time>
      </trkpt>
      <trkpt lat="41.16601" lon="20.20389">
        <ele>231.653568</ele>
        <time>2022-05-01T11:48:52.565Z</time>
      </trkpt>
      <trkpt lat="41.16602" lon="20.20376">
        <ele>231.945239</ele>
        <time>2022-05-01T11:48:54.558Z</time>
      </trkpt>
      <trkpt lat="41.16603" lon="20.20359">
        <ele>232.346331</ele>
        <time>2022-05-01T11:48:57.555Z</time>
      </trkpt>
      <trkpt lat="41.16603" lon="20.20342">
        <ele>232.695005</ele>
        <time>2022-05-01T11:49:00.553Z</time>
      </trkpt>
      <trkpt lat="41.16605" lon="20.20326">
        <ele>232.873621</ele>
        <time>2022-05-01T11:49:03.568Z</time>
      </trkpt>
      <trkpt lat="41.16607" lon="20.2031">
        <ele>233.047481</ele>
        <time>2022-05-01T11:49:06.570Z</time>
      </trkpt>
      <trkpt lat="41.16609" lon="20.20297">
        <ele>233.201492</ele>
        <time>2022-05-01T11:49:09.555Z</time>
      </trkpt>
      <trkpt lat="41.1661" lon="20.20282">
        <ele>233.369587</ele>
        <time>2022-05-01T11:49:12.552Z</time>
      </trkpt>
      <trkpt lat="41.16611" lon="20.20266">
        <ele>233.542682</ele>
        <time>2022-05-01T11:49:15.559Z</time>
      </trkpt>
      <trkpt lat="41.16613" lon="20.2025">
        <ele>233.719329</ele>
        <time>2022-05-01T11:49:18.568Z</time>
      </trkpt>
      <trkpt lat="41.16615" lon="20.20236">
        <ele>233.87993</ele>
        <time>2022-05-01T11:49:21.558Z</time>
      </trkpt>
      <trkpt lat="41.16616" lon="20.20222">
        <ele>234.036631</ele>
        <time>2022-05-01T11:49:24.548Z</time>
      </trkpt>
      <trkpt lat="41.16617" lon="20.20209">
        <ele>234.182127</ele>
        <time>2022-05-01T11:49:27.565Z</time>
      </trkpt>
      <trkpt lat="41.16619" lon="20.20194">
        <ele>234.348021</ele>
        <time>2022-05-01T11:49:30.549Z</time>
      </trkpt>
      <trkpt lat="41.1662" lon="20.2018">
        <ele>234.510752</ele>
        <time>2022-05-01T11:49:33.562Z</time>
      </trkpt>
      <trkpt lat="41.1662" lon="20.20165">
        <ele>234.669614</ele>
        <time>2022-05-01T11:49:36.585Z</time>
      </trkpt>
      <trkpt lat="41.1662" lon="20.20151">
        <ele>234.827366</ele>
        <time>2022-05-01T11:49:39.556Z</time>
      </trkpt>
      <trkpt lat="41.1662" lon="20.20138">
        <ele>234.977341</ele>
        <time>2022-05-01T11:49:42.544Z</time>
      </trkpt>
      <trkpt lat="41.1662" lon="20.20125">
        <ele>235.120645</ele>
        <time>2022-05-01T11:49:45.555Z</time>
      </trkpt>
      <trkpt lat="41.1662" lon="20.20113">
        <ele>235.253958</ele>
        <time>2022-05-01T11:49:48.588Z</time>
      </trkpt>
      <trkpt lat="41.1662" lon="20.20098">
        <ele>235.160279</ele>
        <time>2022-05-01T11:49:52.555Z</time>
      </trkpt>
      <trkpt lat="41.16619" lon="20.20083">
        <ele>234.970924</ele>
        <time>2022-05-01T11:49:56.542Z</time>
      </trkpt>
      <trkpt lat="41.16619" lon="20.20067">
        <ele>234.772755</ele>
        <time>2022-05-01T11:50:00.553Z</time>
      </trkpt>
      <trkpt lat="41.16618" lon="20.20056">
        <ele>234.619419</ele>
        <time>2022-05-01T11:50:03.549Z</time>
      </trkpt>
      <trkpt lat="41.16617" lon="20.20043">
        <ele>234.451263</ele>
        <time>2022-05-01T11:50:06.549Z</time>
      </trkpt>
      <trkpt lat="41.16615" lon="20.20028">
        <ele>234.265471</ele>
        <time>2022-05-01T11:50:09.545Z</time>
      </trkpt>
      <trkpt lat="41.16614" lon="20.20013">
        <ele>234.066565</ele>
        <time>2022-05-01T11:50:12.561Z</time>
      </trkpt>
      <trkpt lat="41.16613" lon="20.19999">
        <ele>233.879499</ele>
        <time>2022-05-01T11:50:15.547Z</time>
      </trkpt>
      <trkpt lat="41.16611" lon="20.19984">
        <ele>233.69166</ele>
        <time>2022-05-01T11:50:18.557Z</time>
      </trkpt>
      <trkpt lat="41.16609" lon="20.19969">
        <ele>233.496901</ele>
        <time>2022-05-01T11:50:21.593Z</time>
      </trkpt>
      <trkpt lat="41.16607" lon="20.19956">
        <ele>233.315382</ele>
        <time>2022-05-01T11:50:24.596Z</time>
      </trkpt>
      <trkpt lat="41.16604" lon="20.19942">
        <ele>233.129309</ele>
        <time>2022-05-01T11:50:27.556Z</time>
      </trkpt>
      <trkpt lat="41.166" lon="20.19926">
        <ele>232.923209</ele>
        <time>2022-05-01T11:50:30.595Z</time>
      </trkpt>
      <trkpt lat="41.16596" lon="20.19912">
        <ele>232.720769</ele>
        <time>2022-05-01T11:50:33.556Z</time>
      </trkpt>
      <trkpt lat="41.16592" lon="20.19896">
        <ele>232.508807</ele>
        <time>2022-05-01T11:50:36.581Z</time>
      </trkpt>
      <trkpt lat="41.16587" lon="20.19882">
        <ele>232.307328</ele>
        <time>2022-05-01T11:50:39.555Z</time>
      </trkpt>
      <trkpt lat="41.16582" lon="20.19869">
        <ele>232.292585</ele>
        <time>2022-05-01T11:50:42.604Z</time>
      </trkpt>
      <trkpt lat="41.16576" lon="20.19856">
        <ele>232.408489</ele>
        <time>2022-05-01T11:50:45.556Z</time>
      </trkpt>
      <trkpt lat="41.1657" lon="20.19843">
        <ele>232.528228</ele>
        <time>2022-05-01T11:50:48.554Z</time>
      </trkpt>
      <trkpt lat="41.16564" lon="20.1983">
        <ele>232.653314</ele>
        <time>2022-05-01T11:50:51.554Z</time>
      </trkpt>
      <trkpt lat="41.16557" lon="20.19818">
        <ele>232.770079</ele>
        <time>2022-05-01T11:50:54.559Z</time>
      </trkpt>
      <trkpt lat="41.1655" lon="20.19806">
        <ele>232.886146</ele>
        <time>2022-05-01T11:50:57.563Z</time>
      </trkpt>
      <trkpt lat="41.16543" lon="20.19794">
        <ele>233.002275</ele>
        <time>2022-05-01T11:51:00.535Z</time>
      </trkpt>
      <trkpt lat="41.16536" lon="20.19784">
        <ele>233.114077</ele>
        <time>2022-05-01T11:51:03.561Z</time>
      </trkpt>
      <trkpt lat="41.16528" lon="20.19774">
        <ele>233.227506</ele>
        <time>2022-05-01T11:51:06.547Z</time>
      </trkpt>
      <trkpt lat="41.16519" lon="20.19763">
        <ele>233.354025</ele>
        <time>2022-05-01T11:51:09.552Z</time>
      </trkpt>
      <trkpt lat="41.1651" lon="20.19753">
        <ele>233.474031</ele>
        <time>2022-05-01T11:51:12.556Z</time>
      </trkpt>
      <trkpt lat="41.16502" lon="20.19744">
        <ele>233.591819</ele>
        <time>2022-05-01T11:51:15.554Z</time>
      </trkpt>
      <trkpt lat="41.16492" lon="20.19735">
        <ele>233.715294</ele>
        <time>2022-05-01T11:51:18.552Z</time>
      </trkpt>
      <trkpt lat="41.16481" lon="20.19726">
        <ele>233.847044</ele>
        <time>2022-05-01T11:51:21.547Z</time>
      </trkpt>
      <trkpt lat="41.16469" lon="20.19717">
        <ele>233.98807</ele>
        <time>2022-05-01T11:51:24.556Z</time>
      </trkpt>
      <trkpt lat="41.16461" lon="20.19711">
        <ele>234.08869</ele>
        <time>2022-05-01T11:51:26.566Z</time>
      </trkpt>
      <trkpt lat="41.16452" lon="20.19704">
        <ele>234.18528</ele>
        <time>2022-05-01T11:51:28.559Z</time>
      </trkpt>
      <trkpt lat="41.16443" lon="20.19697">
        <ele>234.288927</ele>
        <time>2022-05-01T11:51:30.556Z</time>
      </trkpt>
      <trkpt lat="41.16434" lon="20.1969">
        <ele>234.394011</ele>
        <time>2022-05-01T11:51:32.545Z</time>
      </trkpt>
      <trkpt lat="41.16425" lon="20.19683">
        <ele>234.496605</ele>
        <time>2022-05-01T11:51:34.557Z</time>
      </trkpt>
      <trkpt lat="41.16415" lon="20.19675">
        <ele>234.601982</ele>
        <time>2022-05-01T11:51:36.543Z</time>
      </trkpt>
      <trkpt lat="41.16405" lon="20.19667">
        <ele>234.714268</ele>
        <time>2022-05-01T11:51:38.585Z</time>
      </trkpt>
      <trkpt lat="41.16395" lon="20.19659">
        <ele>234.832187</ele>
        <time>2022-05-01T11:51:40.536Z</time>
      </trkpt>
      <trkpt lat="41.16384" lon="20.19651">
        <ele>234.953337</ele>
        <time>2022-05-01T11:51:42.547Z</time>
      </trkpt>
      <trkpt lat="41.16373" lon="20.19642">
        <ele>235.074589</ele>
        <time>2022-05-01T11:51:44.587Z</time>
      </trkpt>
      <trkpt lat="41.16361" lon="20.19633">
        <ele>235.204236</ele>
        <time>2022-05-01T11:51:46.557Z</time>
      </trkpt>
      <trkpt lat="41.16349" lon="20.19623">
        <ele>235.345148</ele>
        <time>2022-05-01T11:51:48.556Z</time>
      </trkpt>
      <trkpt lat="41.16337" lon="20.19613">
        <ele>235.484702</ele>
        <time>2022-05-01T11:51:50.591Z</time>
      </trkpt>
      <trkpt lat="41.16324" lon="20.19603">
        <ele>235.627866</ele>
        <time>2022-05-01T11:51:52.551Z</time>
      </trkpt>
      <trkpt lat="41.16311" lon="20.19591">
        <ele>235.779006</ele>
        <time>2022-05-01T11:51:54.556Z</time>
      </trkpt>
      <trkpt lat="41.16297" lon="20.19578">
        <ele>235.563274</ele>
        <time>2022-05-01T11:51:56.590Z</time>
      </trkpt>
      <trkpt lat="41.16284" lon="20.19564">
        <ele>235.120843</ele>
        <time>2022-05-01T11:51:58.549Z</time>
      </trkpt>
      <trkpt lat="41.16271" lon="20.1955">
        <ele>234.668521</ele>
        <time>2022-05-01T11:52:00.558Z</time>
      </trkpt>
      <trkpt lat="41.16258" lon="20.19534">
        <ele>234.217719</ele>
        <time>2022-05-01T11:52:02.604Z</time>
      </trkpt>
      <trkpt lat="41.16246" lon="20.19517">
        <ele>233.749886</ele>
        <time>2022-05-01T11:52:04.560Z</time>
      </trkpt>
      <trkpt lat="41.16234" lon="20.19499">
        <ele>233.281798</ele>
        <time>2022-05-01T11:52:06.557Z</time>
      </trkpt>
      <trkpt lat="41.16228" lon="20.1949">
        <ele>233.041773</ele>
        <time>2022-05-01T11:52:07.555Z</time>
      </trkpt>
      <trkpt lat="41.16222" lon="20.1948">
        <ele>232.798715</ele>
        <time>2022-05-01T11:52:08.546Z</time>
      </trkpt>
      <trkpt lat="41.16216" lon="20.19471">
        <ele>232.552067</ele>
        <time>2022-05-01T11:52:09.564Z</time>
      </trkpt>
      <trkpt lat="41.16209" lon="20.19462">
        <ele>232.2962</ele>
        <time>2022-05-01T11:52:10.572Z</time>
      </trkpt>
      <trkpt lat="41.16202" lon="20.19453">
        <ele>232.035656</ele>
        <time>2022-05-01T11:52:11.551Z</time>
      </trkpt>
      <trkpt lat="41.16195" lon="20.19444">
        <ele>231.771346</ele>
        <time>2022-05-01T11:52:12.571Z</time>
      </trkpt>
      <trkpt lat="41.16187" lon="20.19435">
        <ele>231.503578</ele>
        <time>2022-05-01T11:52:13.573Z</time>
      </trkpt>
      <trkpt lat="41.16179" lon="20.19427">
        <ele>231.234181</ele>
        <time>2022-05-01T11:52:14.543Z</time>
      </trkpt>
      <trkpt lat="41.1617" lon="20.19418">
        <ele>230.672204</ele>
        <time>2022-05-01T11:52:15.589Z</time>
      </trkpt>
      <trkpt lat="41.16162" lon="20.1941">
        <ele>229.89672</ele>
        <time>2022-05-01T11:52:16.560Z</time>
      </trkpt>
      <trkpt lat="41.16153" lon="20.19402">
        <ele>229.118875</ele>
        <time>2022-05-01T11:52:17.557Z</time>
      </trkpt>
      <trkpt lat="41.16145" lon="20.19394">
        <ele>228.337383</ele>
        <time>2022-05-01T11:52:18.538Z</time>
      </trkpt>
      <trkpt lat="41.16137" lon="20.19386">
        <ele>227.558568</ele>
        <time>2022-05-01T11:52:19.573Z</time>
      </trkpt>
      <trkpt lat="41.16128" lon="20.19378">
        <ele>226.798375</ele>
        <time>2022-05-01T11:52:20.549Z</time>
      </trkpt>
      <trkpt lat="41.1612" lon="20.1937">
        <ele>226.050822</ele>
        <time>2022-05-01T11:52:21.571Z</time>
      </trkpt>
      <trkpt lat="41.16112" lon="20.19362">
        <ele>225.29994</ele>
        <time>2022-05-01T11:52:22.554Z</time>
      </trkpt>
      <trkpt lat="41.16104" lon="20.19354">
        <ele>224.543075</ele>
        <time>2022-05-01T11:52:23.544Z</time>
      </trkpt>
      <trkpt lat="41.16096" lon="20.19345">
        <ele>223.763425</ele>
        <time>2022-05-01T11:52:24.571Z</time>
      </trkpt>
      <trkpt lat="41.16087" lon="20.19337">
        <ele>222.989653</ele>
        <time>2022-05-01T11:52:25.565Z</time>
      </trkpt>
      <trkpt lat="41.16079" lon="20.19329">
        <ele>222.234501</ele>
        <time>2022-05-01T11:52:26.548Z</time>
      </trkpt>
      <trkpt lat="41.16071" lon="20.19321">
        <ele>221.468843</ele>
        <time>2022-05-01T11:52:27.566Z</time>
      </trkpt>
      <trkpt lat="41.16063" lon="20.19314">
        <ele>220.746323</ele>
        <time>2022-05-01T11:52:28.582Z</time>
      </trkpt>
      <trkpt lat="41.16048" lon="20.19301">
        <ele>219.466657</ele>
        <time>2022-05-01T11:52:30.556Z</time>
      </trkpt>
      <trkpt lat="41.16038" lon="20.19285">
        <ele>218.272268</ele>
        <time>2022-05-01T11:52:32.541Z</time>
      </trkpt>
      <trkpt lat="41.16034" lon="20.19265">
        <ele>217.028767</ele>
        <time>2022-05-01T11:52:34.547Z</time>
      </trkpt>
      <trkpt lat="41.16036" lon="20.19245">
        <ele>215.699599</ele>
        <time>2022-05-01T11:52:36.557Z</time>
      </trkpt>
      <trkpt lat="41.16039" lon="20.19226">
        <ele>214.477161</ele>
        <time>2022-05-01T11:52:38.556Z</time>
      </trkpt>
      <trkpt lat="41.16039" lon="20.19208">
        <ele>213.345667</ele>
        <time>2022-05-01T11:52:40.561Z</time>
      </trkpt>
      <trkpt lat="41.16039" lon="20.1919">
        <ele>212.240239</ele>
        <time>2022-05-01T11:52:42.556Z</time>
      </trkpt>
      <trkpt lat="41.16039" lon="20.19174">
        <ele>211.179105</ele>
        <time>2022-05-01T11:52:44.554Z</time>
      </trkpt>
      <trkpt lat="41.1604" lon="20.19157">
        <ele>210.11072</ele>
        <time>2022-05-01T11:52:46.548Z</time>
      </trkpt>
      <trkpt lat="41.16039" lon="20.19142">
        <ele>209.150597</ele>
        <time>2022-05-01T11:52:48.551Z</time>
      </trkpt>
      <trkpt lat="41.16039" lon="20.19128">
        <ele>208.259317</ele>
        <time>2022-05-01T11:52:50.557Z</time>
      </trkpt>
      <trkpt lat="41.16038" lon="20.19114">
        <ele>207.365166</ele>
        <time>2022-05-01T11:52:52.540Z</time>
      </trkpt>
      <trkpt lat="41.16037" lon="20.191">
        <ele>206.497923</ele>
        <time>2022-05-01T11:52:54.556Z</time>
      </trkpt>
      <trkpt lat="41.16035" lon="20.19087">
        <ele>205.627076</ele>
        <time>2022-05-01T11:52:56.554Z</time>
      </trkpt>
      <trkpt lat="41.16034" lon="20.19073">
        <ele>204.727567</ele>
        <time>2022-05-01T11:52:58.616Z</time>
      </trkpt>
      <trkpt lat="41.16032" lon="20.19058">
        <ele>203.809212</ele>
        <time>2022-05-01T11:53:00.546Z</time>
      </trkpt>
      <trkpt lat="41.1603" lon="20.19044">
        <ele>202.889947</ele>
        <time>2022-05-01T11:53:02.556Z</time>
      </trkpt>
      <trkpt lat="41.16028" lon="20.1903">
        <ele>202.477237</ele>
        <time>2022-05-01T11:53:04.555Z</time>
      </trkpt>
      <trkpt lat="41.16026" lon="20.19017">
        <ele>202.340782</ele>
        <time>2022-05-01T11:53:06.548Z</time>
      </trkpt>
      <trkpt lat="41.16025" lon="20.19003">
        <ele>202.205699</ele>
        <time>2022-05-01T11:53:08.572Z</time>
      </trkpt>
      <trkpt lat="41.16023" lon="20.18989">
        <ele>202.069698</ele>
        <time>2022-05-01T11:53:10.562Z</time>
      </trkpt>
      <trkpt lat="41.16021" lon="20.18976">
        <ele>201.936053</ele>
        <time>2022-05-01T11:53:12.534Z</time>
      </trkpt>
      <trkpt lat="41.1602" lon="20.18962">
        <ele>201.797528</ele>
        <time>2022-05-01T11:53:14.554Z</time>
      </trkpt>
      <trkpt lat="41.16019" lon="20.18948">
        <ele>201.656705</ele>
        <time>2022-05-01T11:53:16.545Z</time>
      </trkpt>
      <trkpt lat="41.16018" lon="20.18933">
        <ele>201.51131</ele>
        <time>2022-05-01T11:53:18.548Z</time>
      </trkpt>
      <trkpt lat="41.16018" lon="20.18918">
        <ele>201.366199</ele>
        <time>2022-05-01T11:53:20.594Z</time>
      </trkpt>
      <trkpt lat="41.16017" lon="20.18904">
        <ele>201.224118</ele>
        <time>2022-05-01T11:53:22.565Z</time>
      </trkpt>
      <trkpt lat="41.16018" lon="20.1889">
        <ele>201.083024</ele>
        <time>2022-05-01T11:53:24.556Z</time>
      </trkpt>
      <trkpt lat="41.16017" lon="20.18876">
        <ele>200.944609</ele>
        <time>2022-05-01T11:53:26.608Z</time>
      </trkpt>
      <trkpt lat="41.16016" lon="20.18862">
        <ele>200.807842</ele>
        <time>2022-05-01T11:53:28.557Z</time>
      </trkpt>
      <trkpt lat="41.16014" lon="20.18848">
        <ele>200.670099</ele>
        <time>2022-05-01T11:53:30.546Z</time>
      </trkpt>
      <trkpt lat="41.16013" lon="20.18834">
        <ele>200.532151</ele>
        <time>2022-05-01T11:53:32.543Z</time>
      </trkpt>
      <trkpt lat="41.16011" lon="20.18819">
        <ele>200.382308</ele>
        <time>2022-05-01T11:53:34.556Z</time>
      </trkpt>
      <trkpt lat="41.16008" lon="20.18805">
        <ele>200.236124</ele>
        <time>2022-05-01T11:53:36.577Z</time>
      </trkpt>
      <trkpt lat="41.16005" lon="20.18791">
        <ele>200.31776</ele>
        <time>2022-05-01T11:53:38.551Z</time>
      </trkpt>
      <trkpt lat="41.16002" lon="20.18777">
        <ele>200.447908</ele>
        <time>2022-05-01T11:53:40.570Z</time>
      </trkpt>
      <trkpt lat="41.15999" lon="20.18763">
        <ele>200.579076</ele>
        <time>2022-05-01T11:53:42.602Z</time>
      </trkpt>
      <trkpt lat="41.15996" lon="20.18749">
        <ele>200.711017</ele>
        <time>2022-05-01T11:53:44.537Z</time>
      </trkpt>
      <trkpt lat="41.15993" lon="20.18735">
        <ele>200.846667</ele>
        <time>2022-05-01T11:53:46.547Z</time>
      </trkpt>
      <trkpt lat="41.15989" lon="20.1872">
        <ele>200.985986</ele>
        <time>2022-05-01T11:53:48.559Z</time>
      </trkpt>
      <trkpt lat="41.15985" lon="20.18705">
        <ele>201.124387</ele>
        <time>2022-05-01T11:53:50.544Z</time>
      </trkpt>
      <trkpt lat="41.1598" lon="20.18691">
        <ele>201.264992</ele>
        <time>2022-05-01T11:53:52.528Z</time>
      </trkpt>
      <trkpt lat="41.15975" lon="20.18677">
        <ele>201.406545</ele>
        <time>2022-05-01T11:53:54.594Z</time>
      </trkpt>
      <trkpt lat="41.15971" lon="20.18662">
        <ele>201.545793</ele>
        <time>2022-05-01T11:53:56.552Z</time>
      </trkpt>
      <trkpt lat="41.15968" lon="20.18647">
        <ele>201.687806</ele>
        <time>2022-05-01T11:53:58.558Z</time>
      </trkpt>
      <trkpt lat="41.15964" lon="20.18632">
        <ele>201.83262</ele>
        <time>2022-05-01T11:54:00.587Z</time>
      </trkpt>
      <trkpt lat="41.1596" lon="20.18617">
        <ele>201.975656</ele>
        <time>2022-05-01T11:54:02.554Z</time>
      </trkpt>
      <trkpt lat="41.15956" lon="20.18602">
        <ele>202.120387</ele>
        <time>2022-05-01T11:54:04.571Z</time>
      </trkpt>
      <trkpt lat="41.15952" lon="20.18586">
        <ele>202.26721</ele>
        <time>2022-05-01T11:54:06.575Z</time>
      </trkpt>
      <trkpt lat="41.15947" lon="20.18572">
        <ele>202.375718</ele>
        <time>2022-05-01T11:54:08.531Z</time>
      </trkpt>
      <trkpt lat="41.15943" lon="20.18557">
        <ele>202.422732</ele>
        <time>2022-05-01T11:54:10.559Z</time>
      </trkpt>
      <trkpt lat="41.15939" lon="20.18542">
        <ele>202.470204</ele>
        <time>2022-05-01T11:54:12.588Z</time>
      </trkpt>
      <trkpt lat="41.15935" lon="20.18527">
        <ele>202.518047</ele>
        <time>2022-05-01T11:54:14.556Z</time>
      </trkpt>
      <trkpt lat="41.15931" lon="20.18512">
        <ele>202.56533</ele>
        <time>2022-05-01T11:54:16.555Z</time>
      </trkpt>
      <trkpt lat="41.15927" lon="20.18497">
        <ele>202.612207</ele>
        <time>2022-05-01T11:54:18.646Z</time>
      </trkpt>
      <trkpt lat="41.15923" lon="20.18483">
        <ele>202.65949</ele>
        <time>2022-05-01T11:54:20.554Z</time>
      </trkpt>
      <trkpt lat="41.15918" lon="20.18468">
        <ele>202.705949</ele>
        <time>2022-05-01T11:54:22.553Z</time>
      </trkpt>
      <trkpt lat="41.15915" lon="20.18454">
        <ele>202.751566</ele>
        <time>2022-05-01T11:54:24.577Z</time>
      </trkpt>
      <trkpt lat="41.15911" lon="20.18439">
        <ele>202.797024</ele>
        <time>2022-05-01T11:54:26.566Z</time>
      </trkpt>
      <trkpt lat="41.15909" lon="20.18424">
        <ele>202.844003</ele>
        <time>2022-05-01T11:54:28.542Z</time>
      </trkpt>
      <trkpt lat="41.15906" lon="20.18408">
        <ele>202.891819</ele>
        <time>2022-05-01T11:54:30.558Z</time>
      </trkpt>
      <trkpt lat="41.15904" lon="20.18393">
        <ele>202.938916</ele>
        <time>2022-05-01T11:54:32.570Z</time>
      </trkpt>
      <trkpt lat="41.15902" lon="20.18377">
        <ele>202.985931</ele>
        <time>2022-05-01T11:54:34.568Z</time>
      </trkpt>
      <trkpt lat="41.15901" lon="20.18361">
        <ele>203.034821</ele>
        <time>2022-05-01T11:54:36.553Z</time>
      </trkpt>
      <trkpt lat="41.15901" lon="20.18345">
        <ele>203.019214</ele>
        <time>2022-05-01T11:54:38.566Z</time>
      </trkpt>
      <trkpt lat="41.15901" lon="20.18328">
        <ele>202.782621</ele>
        <time>2022-05-01T11:54:40.593Z</time>
      </trkpt>
      <trkpt lat="41.15902" lon="20.18312">
        <ele>202.541582</ele>
        <time>2022-05-01T11:54:42.548Z</time>
      </trkpt>
      <trkpt lat="41.15903" lon="20.18295">
        <ele>202.295577</ele>
        <time>2022-05-01T11:54:44.557Z</time>
      </trkpt>
      <trkpt lat="41.15905" lon="20.18279">
        <ele>202.048566</ele>
        <time>2022-05-01T11:54:46.568Z</time>
      </trkpt>
      <trkpt lat="41.15907" lon="20.18263">
        <ele>201.814616</ele>
        <time>2022-05-01T11:54:48.551Z</time>
      </trkpt>
      <trkpt lat="41.1591" lon="20.18248">
        <ele>201.581811</ele>
        <time>2022-05-01T11:54:50.555Z</time>
      </trkpt>
      <trkpt lat="41.15913" lon="20.18232">
        <ele>201.334706</ele>
        <time>2022-05-01T11:54:52.555Z</time>
      </trkpt>
      <trkpt lat="41.15917" lon="20.18215">
        <ele>201.082806</ele>
        <time>2022-05-01T11:54:54.560Z</time>
      </trkpt>
      <trkpt lat="41.15922" lon="20.182">
        <ele>200.841773</ele>
        <time>2022-05-01T11:54:56.549Z</time>
      </trkpt>
      <trkpt lat="41.15928" lon="20.18185">
        <ele>200.593111</ele>
        <time>2022-05-01T11:54:58.548Z</time>
      </trkpt>
      <trkpt lat="41.15934" lon="20.1817">
        <ele>200.345346</ele>
        <time>2022-05-01T11:55:00.566Z</time>
      </trkpt>
      <trkpt lat="41.15939" lon="20.18156">
        <ele>200.108033</ele>
        <time>2022-05-01T11:55:02.586Z</time>
      </trkpt>
      <trkpt lat="41.15945" lon="20.18141">
        <ele>199.873373</ele>
        <time>2022-05-01T11:55:04.561Z</time>
      </trkpt>
      <trkpt lat="41.1595" lon="20.18127">
        <ele>199.639551</ele>
        <time>2022-05-01T11:55:06.548Z</time>
      </trkpt>
      <trkpt lat="41.15955" lon="20.18113">
        <ele>199.591798</ele>
        <time>2022-05-01T11:55:08.547Z</time>
      </trkpt>
      <trkpt lat="41.1596" lon="20.18099">
        <ele>199.634309</ele>
        <time>2022-05-01T11:55:10.570Z</time>
      </trkpt>
      <trkpt lat="41.15965" lon="20.18085">
        <ele>199.675621</ele>
        <time>2022-05-01T11:55:12.558Z</time>
      </trkpt>
      <trkpt lat="41.15969" lon="20.18071">
        <ele>199.717431</ele>
        <time>2022-05-01T11:55:14.570Z</time>
      </trkpt>
      <trkpt lat="41.15974" lon="20.18056">
        <ele>199.760741</ele>
        <time>2022-05-01T11:55:16.551Z</time>
      </trkpt>
      <trkpt lat="41.15978" lon="20.18041">
        <ele>199.803374</ele>
        <time>2022-05-01T11:55:18.552Z</time>
      </trkpt>
      <trkpt lat="41.15982" lon="20.18027">
        <ele>199.844479</ele>
        <time>2022-05-01T11:55:20.555Z</time>
      </trkpt>
      <trkpt lat="41.15986" lon="20.18014">
        <ele>199.882897</ele>
        <time>2022-05-01T11:55:22.568Z</time>
      </trkpt>
      <trkpt lat="41.15989" lon="20.18001">
        <ele>199.920766</ele>
        <time>2022-05-01T11:55:24.570Z</time>
      </trkpt>
      <trkpt lat="41.15992" lon="20.17988">
        <ele>199.958271</ele>
        <time>2022-05-01T11:55:26.548Z</time>
      </trkpt>
      <trkpt lat="41.15994" lon="20.17974">
        <ele>199.995492</ele>
        <time>2022-05-01T11:55:28.539Z</time>
      </trkpt>
      <trkpt lat="41.15997" lon="20.17961">
        <ele>200.033064</ele>
        <time>2022-05-01T11:55:30.540Z</time>
      </trkpt>
      <trkpt lat="41.15999" lon="20.17948">
        <ele>200.07011</ele>
        <time>2022-05-01T11:55:32.556Z</time>
      </trkpt>
      <trkpt lat="41.16002" lon="20.17935">
        <ele>200.10699</ele>
        <time>2022-05-01T11:55:34.549Z</time>
      </trkpt>
      <trkpt lat="41.16005" lon="20.17922">
        <ele>200.143346</ele>
        <time>2022-05-01T11:55:36.559Z</time>
      </trkpt>
      <trkpt lat="41.16008" lon="20.17909">
        <ele>200.181375</ele>
        <time>2022-05-01T11:55:38.555Z</time>
      </trkpt>
      <trkpt lat="41.16011" lon="20.17893">
        <ele>200.199381</ele>
        <time>2022-05-01T11:55:40.554Z</time>
      </trkpt>
      <trkpt lat="41.16014" lon="20.17878">
        <ele>200.141279</ele>
        <time>2022-05-01T11:55:42.567Z</time>
      </trkpt>
      <trkpt lat="41.16018" lon="20.17862">
        <ele>200.083049</ele>
        <time>2022-05-01T11:55:44.555Z</time>
      </trkpt>
      <trkpt lat="41.16021" lon="20.17846">
        <ele>200.025191</ele>
        <time>2022-05-01T11:55:46.583Z</time>
      </trkpt>
      <trkpt lat="41.16024" lon="20.17831">
        <ele>199.966961</ele>
        <time>2022-05-01T11:55:48.558Z</time>
      </trkpt>
      <trkpt lat="41.16027" lon="20.17815">
        <ele>199.90933</ele>
        <time>2022-05-01T11:55:50.554Z</time>
      </trkpt>
      <trkpt lat="41.1603" lon="20.178">
        <ele>199.853872</ele>
        <time>2022-05-01T11:55:52.564Z</time>
      </trkpt>
      <trkpt lat="41.16032" lon="20.17786">
        <ele>199.800106</ele>
        <time>2022-05-01T11:55:54.569Z</time>
      </trkpt>
      <trkpt lat="41.16034" lon="20.1777">
        <ele>199.74501</ele>
        <time>2022-05-01T11:55:56.566Z</time>
      </trkpt>
      <trkpt lat="41.16035" lon="20.17755">
        <ele>199.690501</ele>
        <time>2022-05-01T11:55:58.546Z</time>
      </trkpt>
      <trkpt lat="41.16037" lon="20.17741">
        <ele>199.636416</ele>
        <time>2022-05-01T11:56:00.552Z</time>
      </trkpt>
      <trkpt lat="41.16038" lon="20.17725">
        <ele>199.581587</ele>
        <time>2022-05-01T11:56:02.556Z</time>
      </trkpt>
      <trkpt lat="41.16038" lon="20.1771">
        <ele>199.527631</ele>
        <time>2022-05-01T11:56:04.547Z</time>
      </trkpt>
      <trkpt lat="41.16039" lon="20.17695">
        <ele>199.472649</ele>
        <time>2022-05-01T11:56:06.573Z</time>
      </trkpt>
      <trkpt lat="41.16039" lon="20.1768">
        <ele>199.419412</ele>
        <time>2022-05-01T11:56:08.586Z</time>
      </trkpt>
      <trkpt lat="41.16039" lon="20.17665">
        <ele>199.366228</ele>
        <time>2022-05-01T11:56:10.534Z</time>
      </trkpt>
      <trkpt lat="41.16039" lon="20.1765">
        <ele>199.269202</ele>
        <time>2022-05-01T11:56:12.575Z</time>
      </trkpt>
      <trkpt lat="41.16039" lon="20.17636">
        <ele>199.162272</ele>
        <time>2022-05-01T11:56:14.585Z</time>
      </trkpt>
      <trkpt lat="41.16038" lon="20.17621">
        <ele>199.060311</ele>
        <time>2022-05-01T11:56:16.551Z</time>
      </trkpt>
      <trkpt lat="41.16038" lon="20.17607">
        <ele>198.959815</ele>
        <time>2022-05-01T11:56:18.566Z</time>
      </trkpt>
      <trkpt lat="41.16037" lon="20.17593">
        <ele>198.856332</ele>
        <time>2022-05-01T11:56:20.588Z</time>
      </trkpt>
      <trkpt lat="41.16037" lon="20.17578">
        <ele>198.751937</ele>
        <time>2022-05-01T11:56:22.569Z</time>
      </trkpt>
      <trkpt lat="41.16035" lon="20.17564">
        <ele>198.647159</ele>
        <time>2022-05-01T11:56:24.539Z</time>
      </trkpt>
      <trkpt lat="41.16033" lon="20.1755">
        <ele>198.542091</ele>
        <time>2022-05-01T11:56:26.581Z</time>
      </trkpt>
      <trkpt lat="41.16031" lon="20.17535">
        <ele>198.433845</ele>
        <time>2022-05-01T11:56:28.543Z</time>
      </trkpt>
      <trkpt lat="41.16028" lon="20.1752">
        <ele>198.323182</ele>
        <time>2022-05-01T11:56:30.546Z</time>
      </trkpt>
      <trkpt lat="41.16026" lon="20.17505">
        <ele>198.212518</ele>
        <time>2022-05-01T11:56:32.555Z</time>
      </trkpt>
      <trkpt lat="41.16023" lon="20.1749">
        <ele>198.100235</ele>
        <time>2022-05-01T11:56:34.548Z</time>
      </trkpt>
      <trkpt lat="41.1602" lon="20.17474">
        <ele>197.987931</ele>
        <time>2022-05-01T11:56:36.551Z</time>
      </trkpt>
      <trkpt lat="41.16017" lon="20.17459">
        <ele>197.873299</ele>
        <time>2022-05-01T11:56:38.579Z</time>
      </trkpt>
      <trkpt lat="41.16013" lon="20.17444">
        <ele>197.758378</ele>
        <time>2022-05-01T11:56:40.560Z</time>
      </trkpt>
      <trkpt lat="41.16009" lon="20.17428">
        <ele>197.641411</ele>
        <time>2022-05-01T11:56:42.550Z</time>
      </trkpt>
      <trkpt lat="41.16005" lon="20.17413">
        <ele>197.761057</ele>
        <time>2022-05-01T11:56:44.547Z</time>
      </trkpt>
      <trkpt lat="41.16001" lon="20.17397">
        <ele>197.88351</ele>
        <time>2022-05-01T11:56:46.551Z</time>
      </trkpt>
      <trkpt lat="41.15996" lon="20.17381">
        <ele>198.008317</ele>
        <time>2022-05-01T11:56:48.591Z</time>
      </trkpt>
      <trkpt lat="41.15991" lon="20.17365">
        <ele>198.13525</ele>
        <time>2022-05-01T11:56:50.568Z</time>
      </trkpt>
      <trkpt lat="41.15986" lon="20.17349">
        <ele>198.261321</ele>
        <time>2022-05-01T11:56:52.547Z</time>
      </trkpt>
      <trkpt lat="41.1598" lon="20.17334">
        <ele>198.38509</ele>
        <time>2022-05-01T11:56:54.556Z</time>
      </trkpt>
      <trkpt lat="41.15975" lon="20.1732">
        <ele>198.50275</ele>
        <time>2022-05-01T11:56:56.554Z</time>
      </trkpt>
      <trkpt lat="41.1597" lon="20.17306">
        <ele>198.618224</ele>
        <time>2022-05-01T11:56:58.571Z</time>
      </trkpt>
      <trkpt lat="41.15964" lon="20.17292">
        <ele>198.732609</ele>
        <time>2022-05-01T11:57:00.572Z</time>
      </trkpt>
      <trkpt lat="41.15959" lon="20.17279">
        <ele>198.843329</ele>
        <time>2022-05-01T11:57:02.554Z</time>
      </trkpt>
      <trkpt lat="41.15954" lon="20.17265">
        <ele>198.95359</ele>
        <time>2022-05-01T11:57:04.552Z</time>
      </trkpt>
      <trkpt lat="41.15948" lon="20.17254">
        <ele>199.053748</ele>
        <time>2022-05-01T11:57:06.597Z</time>
      </trkpt>
      <trkpt lat="41.15942" lon="20.17242">
        <ele>199.159994</ele>
        <time>2022-05-01T11:57:08.565Z</time>
      </trkpt>
      <trkpt lat="41.15936" lon="20.17229">
        <ele>199.271348</ele>
        <time>2022-05-01T11:57:10.567Z</time>
      </trkpt>
      <trkpt lat="41.1593" lon="20.17215">
        <ele>199.386847</ele>
        <time>2022-05-01T11:57:12.561Z</time>
      </trkpt>
      <trkpt lat="41.15924" lon="20.17201">
        <ele>199.422124</ele>
        <time>2022-05-01T11:57:14.569Z</time>
      </trkpt>
      <trkpt lat="41.15917" lon="20.17187">
        <ele>199.453668</ele>
        <time>2022-05-01T11:57:16.597Z</time>
      </trkpt>
      <trkpt lat="41.1591" lon="20.17173">
        <ele>199.485322</ele>
        <time>2022-05-01T11:57:18.551Z</time>
      </trkpt>
      <trkpt lat="41.15903" lon="20.17159">
        <ele>199.518589</ele>
        <time>2022-05-01T11:57:20.551Z</time>
      </trkpt>
      <trkpt lat="41.15895" lon="20.17144">
        <ele>199.551556</ele>
        <time>2022-05-01T11:57:22.551Z</time>
      </trkpt>
      <trkpt lat="41.15888" lon="20.17131">
        <ele>199.582999</ele>
        <time>2022-05-01T11:57:24.541Z</time>
      </trkpt>
      <trkpt lat="41.15881" lon="20.17117">
        <ele>199.613675</ele>
        <time>2022-05-01T11:57:26.555Z</time>
      </trkpt>
      <trkpt lat="41.15874" lon="20.17105">
        <ele>199.642827</ele>
        <time>2022-05-01T11:57:28.561Z</time>
      </trkpt>
      <trkpt lat="41.15868" lon="20.17093">
        <ele>199.670922</ele>
        <time>2022-05-01T11:57:30.559Z</time>
      </trkpt>
      <trkpt lat="41.15862" lon="20.17081">
        <ele>199.699017</ele>
        <time>2022-05-01T11:57:32.574Z</time>
      </trkpt>
      <trkpt lat="41.15855" lon="20.17069">
        <ele>199.726796</ele>
        <time>2022-05-01T11:57:34.555Z</time>
      </trkpt>
      <trkpt lat="41.15849" lon="20.17058">
        <ele>199.753511</ele>
        <time>2022-05-01T11:57:36.573Z</time>
      </trkpt>
      <trkpt lat="41.15843" lon="20.17047">
        <ele>199.779314</ele>
        <time>2022-05-01T11:57:38.582Z</time>
      </trkpt>
      <trkpt lat="41.15836" lon="20.17036">
        <ele>199.804995</ele>
        <time>2022-05-01T11:57:40.545Z</time>
      </trkpt>
      <trkpt lat="41.15829" lon="20.17026">
        <ele>199.831499</ele>
        <time>2022-05-01T11:57:42.553Z</time>
      </trkpt>
      <trkpt lat="41.15822" lon="20.17016">
        <ele>199.813827</ele>
        <time>2022-05-01T11:57:44.563Z</time>
      </trkpt>
      <trkpt lat="41.15816" lon="20.17006">
        <ele>199.745699</ele>
        <time>2022-05-01T11:57:46.552Z</time>
      </trkpt>
      <trkpt lat="41.15809" lon="20.16996">
        <ele>199.677116</ele>
        <time>2022-05-01T11:57:48.552Z</time>
      </trkpt>
      <trkpt lat="41.15802" lon="20.16987">
        <ele>199.609928</ele>
        <time>2022-05-01T11:57:50.575Z</time>
      </trkpt>
      <trkpt lat="41.15795" lon="20.16977">
        <ele>199.541169</ele>
        <time>2022-05-01T11:57:52.546Z</time>
      </trkpt>
      <trkpt lat="41.15787" lon="20.16968">
        <ele>199.472462</ele>
        <time>2022-05-01T11:57:54.552Z</time>
      </trkpt>
      <trkpt lat="41.1578" lon="20.16959">
        <ele>199.404096</ele>
        <time>2022-05-01T11:57:56.541Z</time>
      </trkpt>
      <trkpt lat="41.15772" lon="20.16951">
        <ele>199.338064</ele>
        <time>2022-05-01T11:57:58.562Z</time>
      </trkpt>
      <trkpt lat="41.15765" lon="20.16943">
        <ele>199.275104</ele>
        <time>2022-05-01T11:58:00.585Z</time>
      </trkpt>
      <trkpt lat="41.15758" lon="20.16935">
        <ele>199.213812</ele>
        <time>2022-05-01T11:58:02.540Z</time>
      </trkpt>
      <trkpt lat="41.15751" lon="20.16927">
        <ele>199.150976</ele>
        <time>2022-05-01T11:58:04.548Z</time>
      </trkpt>
      <trkpt lat="41.15744" lon="20.16919">
        <ele>199.084838</ele>
        <time>2022-05-01T11:58:06.557Z</time>
      </trkpt>
      <trkpt lat="41.15736" lon="20.16911">
        <ele>199.016459</ele>
        <time>2022-05-01T11:58:08.543Z</time>
      </trkpt>
      <trkpt lat="41.15727" lon="20.16903">
        <ele>198.946603</ele>
        <time>2022-05-01T11:58:10.566Z</time>
      </trkpt>
      <trkpt lat="41.15719" lon="20.16895">
        <ele>198.874674</ele>
        <time>2022-05-01T11:58:12.559Z</time>
      </trkpt>
      <trkpt lat="41.1571" lon="20.16886">
        <ele>198.797905</ele>
        <time>2022-05-01T11:58:14.566Z</time>
      </trkpt>
      <trkpt lat="41.157" lon="20.16878">
        <ele>198.720582</ele>
        <time>2022-05-01T11:58:16.551Z</time>
      </trkpt>
      <trkpt lat="41.15691" lon="20.16869">
        <ele>198.643458</ele>
        <time>2022-05-01T11:58:18.538Z</time>
      </trkpt>
      <trkpt lat="41.15681" lon="20.1686">
        <ele>198.578473</ele>
        <time>2022-05-01T11:58:20.550Z</time>
      </trkpt>
      <trkpt lat="41.15672" lon="20.16851">
        <ele>198.519768</ele>
        <time>2022-05-01T11:58:22.553Z</time>
      </trkpt>
      <trkpt lat="41.15662" lon="20.16843">
        <ele>198.460435</ele>
        <time>2022-05-01T11:58:24.572Z</time>
      </trkpt>
      <trkpt lat="41.15653" lon="20.16833">
        <ele>198.398453</ele>
        <time>2022-05-01T11:58:26.559Z</time>
      </trkpt>
      <trkpt lat="41.15644" lon="20.16824">
        <ele>198.34259</ele>
        <time>2022-05-01T11:58:28.560Z</time>
      </trkpt>
      <trkpt lat="41.15636" lon="20.16815">
        <ele>198.28625</ele>
        <time>2022-05-01T11:58:30.592Z</time>
      </trkpt>
      <trkpt lat="41.15627" lon="20.16806">
        <ele>198.227822</ele>
        <time>2022-05-01T11:58:32.544Z</time>
      </trkpt>
      <trkpt lat="41.15618" lon="20.16797">
        <ele>198.170558</ele>
        <time>2022-05-01T11:58:34.586Z</time>
      </trkpt>
      <trkpt lat="41.15608" lon="20.16787">
        <ele>198.110371</ele>
        <time>2022-05-01T11:58:36.551Z</time>
      </trkpt>
      <trkpt lat="41.15599" lon="20.16777">
        <ele>198.049141</ele>
        <time>2022-05-01T11:58:38.542Z</time>
      </trkpt>
      <trkpt lat="41.1559" lon="20.16768">
        <ele>197.98885</ele>
        <time>2022-05-01T11:58:40.560Z</time>
      </trkpt>
      <trkpt lat="41.1558" lon="20.16759">
        <ele>197.927552</ele>
        <time>2022-05-01T11:58:42.558Z</time>
      </trkpt>
      <trkpt lat="41.1557" lon="20.16749">
        <ele>197.865196</ele>
        <time>2022-05-01T11:58:44.607Z</time>
      </trkpt>
      <trkpt lat="41.1556" lon="20.1674">
        <ele>197.804123</ele>
        <time>2022-05-01T11:58:46.557Z</time>
      </trkpt>
      <trkpt lat="41.15551" lon="20.16731">
        <ele>197.745346</ele>
        <time>2022-05-01T11:58:48.551Z</time>
      </trkpt>
      <trkpt lat="41.15541" lon="20.16721">
        <ele>197.679664</ele>
        <time>2022-05-01T11:58:50.542Z</time>
      </trkpt>
      <trkpt lat="41.15531" lon="20.16713">
        <ele>197.604968</ele>
        <time>2022-05-01T11:58:52.571Z</time>
      </trkpt>
      <trkpt lat="41.15522" lon="20.16704">
        <ele>197.531817</ele>
        <time>2022-05-01T11:58:54.551Z</time>
      </trkpt>
      <trkpt lat="41.15513" lon="20.16694">
        <ele>197.459291</ele>
        <time>2022-05-01T11:58:56.551Z</time>
      </trkpt>
      <trkpt lat="41.15503" lon="20.16685">
        <ele>197.384989</ele>
        <time>2022-05-01T11:58:58.537Z</time>
      </trkpt>
      <trkpt lat="41.15494" lon="20.16675">
        <ele>197.310968</ele>
        <time>2022-05-01T11:59:00.603Z</time>
      </trkpt>
      <trkpt lat="41.15484" lon="20.16667">
        <ele>197.23938</ele>
        <time>2022-05-01T11:59:02.559Z</time>
      </trkpt>
      <trkpt lat="41.15475" lon="20.16658">
        <ele>197.167481</ele>
        <time>2022-05-01T11:59:04.550Z</time>
      </trkpt>
      <trkpt lat="41.15466" lon="20.16649">
        <ele>197.099934</ele>
        <time>2022-05-01T11:59:06.550Z</time>
      </trkpt>
      <trkpt lat="41.15458" lon="20.1664">
        <ele>197.030248</ele>
        <time>2022-05-01T11:59:08.562Z</time>
      </trkpt>
      <trkpt lat="41.15449" lon="20.16631">
        <ele>196.960354</ele>
        <time>2022-05-01T11:59:10.551Z</time>
      </trkpt>
      <trkpt lat="41.1544" lon="20.16622">
        <ele>196.890378</ele>
        <time>2022-05-01T11:59:12.565Z</time>
      </trkpt>
      <trkpt lat="41.15431" lon="20.16612">
        <ele>196.82011</ele>
        <time>2022-05-01T11:59:14.556Z</time>
      </trkpt>
      <trkpt lat="41.15422" lon="20.16604">
        <ele>196.750618</ele>
        <time>2022-05-01T11:59:16.550Z</time>
      </trkpt>
      <trkpt lat="41.15413" lon="20.16594">
        <ele>196.6779</ele>
        <time>2022-05-01T11:59:18.550Z</time>
      </trkpt>
      <trkpt lat="41.15404" lon="20.16585">
        <ele>196.606649</ele>
        <time>2022-05-01T11:59:20.555Z</time>
      </trkpt>
      <trkpt lat="41.15395" lon="20.16576">
        <ele>196.59186</ele>
        <time>2022-05-01T11:59:22.592Z</time>
      </trkpt>
      <trkpt lat="41.15385" lon="20.16566">
        <ele>196.616773</ele>
        <time>2022-05-01T11:59:24.570Z</time>
      </trkpt>
      <trkpt lat="41.15376" lon="20.16557">
        <ele>196.640372</ele>
        <time>2022-05-01T11:59:26.550Z</time>
      </trkpt>
      <trkpt lat="41.15367" lon="20.16549">
        <ele>196.663256</ele>
        <time>2022-05-01T11:59:28.547Z</time>
      </trkpt>
      <trkpt lat="41.15357" lon="20.1654">
        <ele>196.68675</ele>
        <time>2022-05-01T11:59:30.558Z</time>
      </trkpt>
      <trkpt lat="41.15348" lon="20.16532">
        <ele>196.71015</ele>
        <time>2022-05-01T11:59:32.571Z</time>
      </trkpt>
      <trkpt lat="41.15339" lon="20.16524">
        <ele>196.732184</ele>
        <time>2022-05-01T11:59:34.554Z</time>
      </trkpt>
      <trkpt lat="41.15331" lon="20.16515">
        <ele>196.754217</ele>
        <time>2022-05-01T11:59:36.547Z</time>
      </trkpt>
      <trkpt lat="41.15322" lon="20.16507">
        <ele>196.776432</ele>
        <time>2022-05-01T11:59:38.564Z</time>
      </trkpt>
      <trkpt lat="41.15313" lon="20.16498">
        <ele>196.799073</ele>
        <time>2022-05-01T11:59:40.555Z</time>
      </trkpt>
      <trkpt lat="41.15304" lon="20.16489">
        <ele>196.821525</ele>
        <time>2022-05-01T11:59:42.563Z</time>
      </trkpt>
      <trkpt lat="41.15296" lon="20.16481">
        <ele>196.843666</ele>
        <time>2022-05-01T11:59:44.580Z</time>
      </trkpt>
      <trkpt lat="41.15288" lon="20.16472">
        <ele>196.865504</ele>
        <time>2022-05-01T11:59:46.564Z</time>
      </trkpt>
      <trkpt lat="41.15279" lon="20.16464">
        <ele>196.887904</ele>
        <time>2022-05-01T11:59:48.554Z</time>
      </trkpt>
      <trkpt lat="41.1527" lon="20.16455">
        <ele>196.910211</ele>
        <time>2022-05-01T11:59:50.576Z</time>
      </trkpt>
      <trkpt lat="41.15262" lon="20.16446">
        <ele>196.932633</ele>
        <time>2022-05-01T11:59:52.555Z</time>
      </trkpt>
      <trkpt lat="41.15253" lon="20.16437">
        <ele>196.937627</ele>
        <time>2022-05-01T11:59:54.539Z</time>
      </trkpt>
      <trkpt lat="41.15243" lon="20.16428">
        <ele>196.896874</ele>
        <time>2022-05-01T11:59:56.535Z</time>
      </trkpt>
      <trkpt lat="41.15234" lon="20.1642">
        <ele>196.85601</ele>
        <time>2022-05-01T11:59:58.550Z</time>
      </trkpt>
      <trkpt lat="41.15224" lon="20.16412">
        <ele>196.8156</ele>
        <time>2022-05-01T12:00:00.538Z</time>
      </trkpt>
      <trkpt lat="41.15215" lon="20.16403">
        <ele>196.774745</ele>
        <time>2022-05-01T12:00:02.546Z</time>
      </trkpt>
      <trkpt lat="41.15205" lon="20.16394">
        <ele>196.733294</ele>
        <time>2022-05-01T12:00:04.545Z</time>
      </trkpt>
      <trkpt lat="41.15195" lon="20.16385">
        <ele>196.689014</ele>
        <time>2022-05-01T12:00:06.573Z</time>
      </trkpt>
      <trkpt lat="41.15185" lon="20.16376">
        <ele>196.644887</ele>
        <time>2022-05-01T12:00:08.547Z</time>
      </trkpt>
      <trkpt lat="41.15175" lon="20.16367">
        <ele>196.601358</ele>
        <time>2022-05-01T12:00:10.563Z</time>
      </trkpt>
      <trkpt lat="41.15165" lon="20.16358">
        <ele>196.558846</ele>
        <time>2022-05-01T12:00:12.559Z</time>
      </trkpt>
      <trkpt lat="41.15155" lon="20.16348">
        <ele>196.51586</ele>
        <time>2022-05-01T12:00:14.547Z</time>
      </trkpt>
      <trkpt lat="41.15146" lon="20.16339">
        <ele>196.473607</ele>
        <time>2022-05-01T12:00:16.554Z</time>
      </trkpt>
      <trkpt lat="41.15136" lon="20.1633">
        <ele>196.431261</ele>
        <time>2022-05-01T12:00:18.593Z</time>
      </trkpt>
      <trkpt lat="41.15126" lon="20.16321">
        <ele>196.389168</ele>
        <time>2022-05-01T12:00:20.549Z</time>
      </trkpt>
      <trkpt lat="41.15117" lon="20.16312">
        <ele>196.347102</ele>
        <time>2022-05-01T12:00:22.552Z</time>
      </trkpt>
      <trkpt lat="41.15107" lon="20.16303">
        <ele>196.295285</ele>
        <time>2022-05-01T12:00:24.560Z</time>
      </trkpt>
      <trkpt lat="41.15097" lon="20.16295">
        <ele>196.018314</ele>
        <time>2022-05-01T12:00:26.548Z</time>
      </trkpt>
      <trkpt lat="41.15088" lon="20.16287">
        <ele>195.740453</ele>
        <time>2022-05-01T12:00:28.551Z</time>
      </trkpt>
      <trkpt lat="41.15078" lon="20.16278">
        <ele>195.473581</ele>
        <time>2022-05-01T12:00:30.558Z</time>
      </trkpt>
      <trkpt lat="41.15069" lon="20.1627">
        <ele>195.20541</ele>
        <time>2022-05-01T12:00:32.547Z</time>
      </trkpt>
      <trkpt lat="41.1506" lon="20.1626">
        <ele>194.928228</ele>
        <time>2022-05-01T12:00:34.543Z</time>
      </trkpt>
      <trkpt lat="41.15051" lon="20.16252">
        <ele>194.653174</ele>
        <time>2022-05-01T12:00:36.554Z</time>
      </trkpt>
      <trkpt lat="41.15042" lon="20.16243">
        <ele>194.380063</ele>
        <time>2022-05-01T12:00:38.551Z</time>
      </trkpt>
      <trkpt lat="41.15032" lon="20.16234">
        <ele>194.101211</ele>
        <time>2022-05-01T12:00:40.589Z</time>
      </trkpt>
      <trkpt lat="41.15022" lon="20.16226">
        <ele>193.81936</ele>
        <time>2022-05-01T12:00:42.550Z</time>
      </trkpt>
      <trkpt lat="41.15013" lon="20.16218">
        <ele>193.551468</ele>
        <time>2022-05-01T12:00:44.552Z</time>
      </trkpt>
      <trkpt lat="41.15004" lon="20.1621">
        <ele>193.292605</ele>
        <time>2022-05-01T12:00:46.567Z</time>
      </trkpt>
      <trkpt lat="41.14995" lon="20.16201">
        <ele>193.030993</ele>
        <time>2022-05-01T12:00:48.570Z</time>
      </trkpt>
      <trkpt lat="41.14986" lon="20.16192">
        <ele>192.752734</ele>
        <time>2022-05-01T12:00:50.533Z</time>
      </trkpt>
      <trkpt lat="41.14976" lon="20.16183">
        <ele>192.475729</ele>
        <time>2022-05-01T12:00:52.551Z</time>
      </trkpt>
      <trkpt lat="41.14966" lon="20.16174">
        <ele>192.189862</ele>
        <time>2022-05-01T12:00:54.543Z</time>
      </trkpt>
      <trkpt lat="41.14956" lon="20.16165">
        <ele>191.928486</ele>
        <time>2022-05-01T12:00:56.572Z</time>
      </trkpt>
      <trkpt lat="41.14946" lon="20.16156">
        <ele>191.737539</ele>
        <time>2022-05-01T12:00:58.560Z</time>
      </trkpt>
      <trkpt lat="41.14936" lon="20.16148">
        <ele>191.541804</ele>
        <time>2022-05-01T12:01:00.559Z</time>
      </trkpt>
      <trkpt lat="41.14924" lon="20.16138">
        <ele>191.323362</ele>
        <time>2022-05-01T12:01:02.565Z</time>
      </trkpt>
      <trkpt lat="41.14913" lon="20.16128">
        <ele>191.104312</ele>
        <time>2022-05-01T12:01:04.577Z</time>
      </trkpt>
      <trkpt lat="41.14902" lon="20.16118">
        <ele>190.895975</ele>
        <time>2022-05-01T12:01:06.572Z</time>
      </trkpt>
      <trkpt lat="41.14891" lon="20.16108">
        <ele>190.667639</ele>
        <time>2022-05-01T12:01:08.573Z</time>
      </trkpt>
      <trkpt lat="41.14878" lon="20.16097">
        <ele>190.426567</ele>
        <time>2022-05-01T12:01:10.565Z</time>
      </trkpt>
      <trkpt lat="41.14865" lon="20.16086">
        <ele>190.180688</ele>
        <time>2022-05-01T12:01:12.546Z</time>
      </trkpt>
      <trkpt lat="41.14851" lon="20.16075">
        <ele>189.926262</ele>
        <time>2022-05-01T12:01:14.590Z</time>
      </trkpt>
      <trkpt lat="41.14838" lon="20.16064">
        <ele>189.666402</ele>
        <time>2022-05-01T12:01:16.562Z</time>
      </trkpt>
      <trkpt lat="41.14824" lon="20.16052">
        <ele>189.401267</ele>
        <time>2022-05-01T12:01:18.550Z</time>
      </trkpt>
      <trkpt lat="41.1481" lon="20.1604">
        <ele>189.134839</ele>
        <time>2022-05-01T12:01:20.592Z</time>
      </trkpt>
      <trkpt lat="41.14795" lon="20.16028">
        <ele>188.993704</ele>
        <time>2022-05-01T12:01:22.548Z</time>
      </trkpt>
      <trkpt lat="41.1478" lon="20.16017">
        <ele>188.867317</ele>
        <time>2022-05-01T12:01:24.613Z</time>
      </trkpt>
      <trkpt lat="41.14766" lon="20.16006">
        <ele>188.740885</ele>
        <time>2022-05-01T12:01:26.578Z</time>
      </trkpt>
      <trkpt lat="41.14752" lon="20.15994">
        <ele>188.617978</ele>
        <time>2022-05-01T12:01:28.557Z</time>
      </trkpt>
      <trkpt lat="41.14738" lon="20.15982">
        <ele>188.49384</ele>
        <time>2022-05-01T12:01:30.542Z</time>
      </trkpt>
      <trkpt lat="41.14724" lon="20.1597">
        <ele>188.368136</ele>
        <time>2022-05-01T12:01:32.598Z</time>
      </trkpt>
      <trkpt lat="41.14711" lon="20.15956">
        <ele>188.239054</ele>
        <time>2022-05-01T12:01:34.554Z</time>
      </trkpt>
      <trkpt lat="41.14698" lon="20.15941">
        <ele>188.110143</ele>
        <time>2022-05-01T12:01:36.569Z</time>
      </trkpt>
      <trkpt lat="41.14686" lon="20.15924">
        <ele>187.978012</ele>
        <time>2022-05-01T12:01:38.559Z</time>
      </trkpt>
      <trkpt lat="41.14676" lon="20.15906">
        <ele>187.851506</ele>
        <time>2022-05-01T12:01:40.554Z</time>
      </trkpt>
      <trkpt lat="41.14668" lon="20.15887">
        <ele>187.725653</ele>
        <time>2022-05-01T12:01:42.551Z</time>
      </trkpt>
      <trkpt lat="41.1466" lon="20.15869">
        <ele>187.579987</ele>
        <time>2022-05-01T12:01:44.547Z</time>
      </trkpt>
      <trkpt lat="41.14652" lon="20.15852">
        <ele>187.438427</ele>
        <time>2022-05-01T12:01:46.551Z</time>
      </trkpt>
      <trkpt lat="41.14644" lon="20.15835">
        <ele>187.301389</ele>
        <time>2022-05-01T12:01:48.559Z</time>
      </trkpt>
      <trkpt lat="41.14635" lon="20.15819">
        <ele>187.164114</ele>
        <time>2022-05-01T12:01:50.531Z</time>
      </trkpt>
      <trkpt lat="41.14625" lon="20.15804">
        <ele>187.029578</ele>
        <time>2022-05-01T12:01:52.567Z</time>
      </trkpt>
      <trkpt lat="41.14614" lon="20.1579">
        <ele>186.891635</ele>
        <time>2022-05-01T12:01:54.548Z</time>
      </trkpt>
      <trkpt lat="41.14602" lon="20.15777">
        <ele>186.751527</ele>
        <time>2022-05-01T12:01:56.546Z</time>
      </trkpt>
      <trkpt lat="41.1459" lon="20.15764">
        <ele>186.60973</ele>
        <time>2022-05-01T12:01:58.559Z</time>
      </trkpt>
      <trkpt lat="41.14579" lon="20.15751">
        <ele>186.470919</ele>
        <time>2022-05-01T12:02:00.555Z</time>
      </trkpt>
      <trkpt lat="41.14567" lon="20.15738">
        <ele>186.336673</ele>
        <time>2022-05-01T12:02:02.562Z</time>
      </trkpt>
      <trkpt lat="41.14556" lon="20.15726">
        <ele>186.20471</ele>
        <time>2022-05-01T12:02:04.576Z</time>
      </trkpt>
      <trkpt lat="41.14545" lon="20.15715">
        <ele>186.113354</ele>
        <time>2022-05-01T12:02:06.554Z</time>
      </trkpt>
      <trkpt lat="41.14535" lon="20.15704">
        <ele>186.10211</ele>
        <time>2022-05-01T12:02:08.547Z</time>
      </trkpt>
      <trkpt lat="41.14524" lon="20.15694">
        <ele>186.091362</ele>
        <time>2022-05-01T12:02:10.543Z</time>
      </trkpt>
      <trkpt lat="41.14515" lon="20.15683">
        <ele>186.080721</ele>
        <time>2022-05-01T12:02:12.538Z</time>
      </trkpt>
      <trkpt lat="41.14505" lon="20.15673">
        <ele>186.070379</ele>
        <time>2022-05-01T12:02:14.561Z</time>
      </trkpt>
      <trkpt lat="41.14496" lon="20.15662">
        <ele>186.06012</ele>
        <time>2022-05-01T12:02:16.554Z</time>
      </trkpt>
      <trkpt lat="41.14488" lon="20.1565">
        <ele>186.050312</ele>
        <time>2022-05-01T12:02:18.551Z</time>
      </trkpt>
      <trkpt lat="41.14481" lon="20.15639">
        <ele>186.040649</ele>
        <time>2022-05-01T12:02:20.554Z</time>
      </trkpt>
      <trkpt lat="41.14473" lon="20.15627">
        <ele>186.031109</ele>
        <time>2022-05-01T12:02:22.596Z</time>
      </trkpt>
      <trkpt lat="41.14466" lon="20.15616">
        <ele>186.021965</ele>
        <time>2022-05-01T12:02:24.570Z</time>
      </trkpt>
      <trkpt lat="41.1446" lon="20.15605">
        <ele>186.013034</ele>
        <time>2022-05-01T12:02:26.563Z</time>
      </trkpt>
      <trkpt lat="41.14454" lon="20.15593">
        <ele>186.003994</ele>
        <time>2022-05-01T12:02:28.579Z</time>
      </trkpt>
      <trkpt lat="41.14448" lon="20.15582">
        <ele>185.995461</ele>
        <time>2022-05-01T12:02:30.563Z</time>
      </trkpt>
      <trkpt lat="41.14443" lon="20.1557">
        <ele>185.986804</ele>
        <time>2022-05-01T12:02:32.553Z</time>
      </trkpt>
      <trkpt lat="41.14437" lon="20.15559">
        <ele>185.978019</ele>
        <time>2022-05-01T12:02:34.591Z</time>
      </trkpt>
      <trkpt lat="41.1443" lon="20.15548">
        <ele>185.96929</ele>
        <time>2022-05-01T12:02:36.549Z</time>
      </trkpt>
      <trkpt lat="41.14424" lon="20.15537">
        <ele>185.989442</ele>
        <time>2022-05-01T12:02:38.555Z</time>
      </trkpt>
      <trkpt lat="41.14418" lon="20.15525">
        <ele>186.026491</ele>
        <time>2022-05-01T12:02:40.552Z</time>
      </trkpt>
      <trkpt lat="41.14412" lon="20.15514">
        <ele>186.062861</ele>
        <time>2022-05-01T12:02:42.567Z</time>
      </trkpt>
      <trkpt lat="41.14406" lon="20.15503">
        <ele>186.098809</ele>
        <time>2022-05-01T12:02:44.559Z</time>
      </trkpt>
      <trkpt lat="41.144" lon="20.15493">
        <ele>186.132416</ele>
        <time>2022-05-01T12:02:46.570Z</time>
      </trkpt>
      <trkpt lat="41.14394" lon="20.15484">
        <ele>186.16612</ele>
        <time>2022-05-01T12:02:48.551Z</time>
      </trkpt>
      <trkpt lat="41.14387" lon="20.15474">
        <ele>186.200339</ele>
        <time>2022-05-01T12:02:50.546Z</time>
      </trkpt>
      <trkpt lat="41.1438" lon="20.15466">
        <ele>186.23442</ele>
        <time>2022-05-01T12:02:52.567Z</time>
      </trkpt>
      <trkpt lat="41.14373" lon="20.15457">
        <ele>186.268685</ele>
        <time>2022-05-01T12:02:54.551Z</time>
      </trkpt>
      <trkpt lat="41.14366" lon="20.15447">
        <ele>186.303445</ele>
        <time>2022-05-01T12:02:56.542Z</time>
      </trkpt>
      <trkpt lat="41.14359" lon="20.15438">
        <ele>186.33815</ele>
        <time>2022-05-01T12:02:58.553Z</time>
      </trkpt>
      <trkpt lat="41.14353" lon="20.15429">
        <ele>186.371408</ele>
        <time>2022-05-01T12:03:00.552Z</time>
      </trkpt>
      <trkpt lat="41.14346" lon="20.1542">
        <ele>186.404914</ele>
        <time>2022-05-01T12:03:02.567Z</time>
      </trkpt>
      <trkpt lat="41.1434" lon="20.15411">
        <ele>186.437243</ele>
        <time>2022-05-01T12:03:04.553Z</time>
      </trkpt>
      <trkpt lat="41.14331" lon="20.15399">
        <ele>186.482482</ele>
        <time>2022-05-01T12:03:07.561Z</time>
      </trkpt>
      <trkpt lat="41.14323" lon="20.15386">
        <ele>186.527688</ele>
        <time>2022-05-01T12:03:10.557Z</time>
      </trkpt>
      <trkpt lat="41.14315" lon="20.15374">
        <ele>186.570502</ele>
        <time>2022-05-01T12:03:13.574Z</time>
      </trkpt>
      <trkpt lat="41.14308" lon="20.15361">
        <ele>186.61502</ele>
        <time>2022-05-01T12:03:16.556Z</time>
      </trkpt>
      <trkpt lat="41.14301" lon="20.1535">
        <ele>186.667326</ele>
        <time>2022-05-01T12:03:19.557Z</time>
      </trkpt>
      <trkpt lat="41.14295" lon="20.15337">
        <ele>186.719537</ele>
        <time>2022-05-01T12:03:22.603Z</time>
      </trkpt>
      <trkpt lat="41.14288" lon="20.15324">
        <ele>186.776098</ele>
        <time>2022-05-01T12:03:25.563Z</time>
      </trkpt>
      <trkpt lat="41.14281" lon="20.15311">
        <ele>186.834632</ele>
        <time>2022-05-01T12:03:28.537Z</time>
      </trkpt>
      <trkpt lat="41.14274" lon="20.15297">
        <ele>186.894014</ele>
        <time>2022-05-01T12:03:31.559Z</time>
      </trkpt>
      <trkpt lat="41.14266" lon="20.15283">
        <ele>186.957062</ele>
        <time>2022-05-01T12:03:34.554Z</time>
      </trkpt>
      <trkpt lat="41.14258" lon="20.1527">
        <ele>187.015309</ele>
        <time>2022-05-01T12:03:37.538Z</time>
      </trkpt>
      <trkpt lat="41.14251" lon="20.15258">
        <ele>187.069592</ele>
        <time>2022-05-01T12:03:40.550Z</time>
      </trkpt>
      <trkpt lat="41.14244" lon="20.15244">
        <ele>187.126814</ele>
        <time>2022-05-01T12:03:43.559Z</time>
      </trkpt>
      <trkpt lat="41.14237" lon="20.15231">
        <ele>187.182793</ele>
        <time>2022-05-01T12:03:46.539Z</time>
      </trkpt>
      <trkpt lat="41.14229" lon="20.15219">
        <ele>187.239975</ele>
        <time>2022-05-01T12:03:49.568Z</time>
      </trkpt>
      <trkpt lat="41.14222" lon="20.15207">
        <ele>187.294847</ele>
        <time>2022-05-01T12:03:52.558Z</time>
      </trkpt>
      <trkpt lat="41.14215" lon="20.15195">
        <ele>187.349532</ele>
        <time>2022-05-01T12:03:55.546Z</time>
      </trkpt>
      <trkpt lat="41.14207" lon="20.15184">
        <ele>187.401382</ele>
        <time>2022-05-01T12:03:58.562Z</time>
      </trkpt>
      <trkpt lat="41.142" lon="20.15173">
        <ele>187.507254</ele>
        <time>2022-05-01T12:04:01.556Z</time>
      </trkpt>
      <trkpt lat="41.14193" lon="20.15162">
        <ele>187.937641</ele>
        <time>2022-05-01T12:04:04.541Z</time>
      </trkpt>
      <trkpt lat="41.14186" lon="20.15152">
        <ele>188.349011</ele>
        <time>2022-05-01T12:04:07.589Z</time>
      </trkpt>
      <trkpt lat="41.14178" lon="20.15141">
        <ele>188.790186</ele>
        <time>2022-05-01T12:04:10.562Z</time>
      </trkpt>
      <trkpt lat="41.14171" lon="20.15132">
        <ele>189.192331</ele>
        <time>2022-05-01T12:04:13.579Z</time>
      </trkpt>
      <trkpt lat="41.14163" lon="20.15123">
        <ele>189.597692</ele>
        <time>2022-05-01T12:04:16.580Z</time>
      </trkpt>
      <trkpt lat="41.14155" lon="20.15112">
        <ele>190.036701</ele>
        <time>2022-05-01T12:04:19.555Z</time>
      </trkpt>
      <trkpt lat="41.14147" lon="20.15102">
        <ele>190.467224</ele>
        <time>2022-05-01T12:04:22.543Z</time>
      </trkpt>
      <trkpt lat="41.1414" lon="20.15092">
        <ele>190.891028</ele>
        <time>2022-05-01T12:04:25.554Z</time>
      </trkpt>
      <trkpt lat="41.14133" lon="20.15082">
        <ele>191.320882</ele>
        <time>2022-05-01T12:04:28.556Z</time>
      </trkpt>
      <trkpt lat="41.14125" lon="20.15072">
        <ele>191.745136</ele>
        <time>2022-05-01T12:04:31.573Z</time>
      </trkpt>
      <trkpt lat="41.14118" lon="20.15061">
        <ele>192.161883</ele>
        <time>2022-05-01T12:04:34.571Z</time>
      </trkpt>
      <trkpt lat="41.1411" lon="20.15052">
        <ele>192.570977</ele>
        <time>2022-05-01T12:04:37.557Z</time>
      </trkpt>
      <trkpt lat="41.14103" lon="20.15043">
        <ele>192.955424</ele>
        <time>2022-05-01T12:04:40.575Z</time>
      </trkpt>
      <trkpt lat="41.14096" lon="20.15035">
        <ele>193.331278</ele>
        <time>2022-05-01T12:04:43.556Z</time>
      </trkpt>
      <trkpt lat="41.14089" lon="20.15024">
        <ele>193.756235</ele>
        <time>2022-05-01T12:04:46.539Z</time>
      </trkpt>
      <trkpt lat="41.14081" lon="20.15014">
        <ele>194.190991</ele>
        <time>2022-05-01T12:04:49.550Z</time>
      </trkpt>
      <trkpt lat="41.14075" lon="20.15004">
        <ele>194.562925</ele>
        <time>2022-05-01T12:04:52.581Z</time>
      </trkpt>
      <trkpt lat="41.14068" lon="20.14993">
        <ele>194.452492</ele>
        <time>2022-05-01T12:04:55.593Z</time>
      </trkpt>
      <trkpt lat="41.14061" lon="20.14983">
        <ele>194.349527</ele>
        <time>2022-05-01T12:04:58.555Z</time>
      </trkpt>
      <trkpt lat="41.14055" lon="20.14972">
        <ele>194.238619</ele>
        <time>2022-05-01T12:05:01.563Z</time>
      </trkpt>
      <trkpt lat="41.14047" lon="20.14961">
        <ele>194.122168</ele>
        <time>2022-05-01T12:05:04.607Z</time>
      </trkpt>
      <trkpt lat="41.1404" lon="20.14949">
        <ele>193.998781</ele>
        <time>2022-05-01T12:05:07.588Z</time>
      </trkpt>
      <trkpt lat="41.14032" lon="20.14937">
        <ele>193.874419</ele>
        <time>2022-05-01T12:05:10.557Z</time>
      </trkpt>
      <trkpt lat="41.14024" lon="20.14925">
        <ele>193.744946</ele>
        <time>2022-05-01T12:05:13.543Z</time>
      </trkpt>
      <trkpt lat="41.14015" lon="20.14913">
        <ele>193.621506</ele>
        <time>2022-05-01T12:05:16.563Z</time>
      </trkpt>
      <trkpt lat="41.14006" lon="20.14902">
        <ele>193.492344</ele>
        <time>2022-05-01T12:05:19.565Z</time>
      </trkpt>
      <trkpt lat="41.13997" lon="20.14892">
        <ele>193.364978</ele>
        <time>2022-05-01T12:05:22.557Z</time>
      </trkpt>
      <trkpt lat="41.13987" lon="20.14881">
        <ele>193.233706</ele>
        <time>2022-05-01T12:05:25.543Z</time>
      </trkpt>
      <trkpt lat="41.13978" lon="20.1487">
        <ele>193.10301</ele>
        <time>2022-05-01T12:05:28.572Z</time>
      </trkpt>
      <trkpt lat="41.13969" lon="20.14858">
        <ele>192.971696</ele>
        <time>2022-05-01T12:05:31.543Z</time>
      </trkpt>
      <trkpt lat="41.13959" lon="20.14847">
        <ele>192.835552</ele>
        <time>2022-05-01T12:05:34.570Z</time>
      </trkpt>
      <trkpt lat="41.1395" lon="20.14836">
        <ele>192.712379</ele>
        <time>2022-05-01T12:05:37.616Z</time>
      </trkpt>
      <trkpt lat="41.13942" lon="20.14827">
        <ele>192.608062</ele>
        <time>2022-05-01T12:05:40.557Z</time>
      </trkpt>
      <trkpt lat="41.13934" lon="20.14817">
        <ele>192.510254</ele>
        <time>2022-05-01T12:05:43.546Z</time>
      </trkpt>
      <trkpt lat="41.13926" lon="20.14807">
        <ele>192.412446</ele>
        <time>2022-05-01T12:05:46.549Z</time>
      </trkpt>
      <trkpt lat="41.13917" lon="20.14797">
        <ele>192.305529</ele>
        <time>2022-05-01T12:05:49.536Z</time>
      </trkpt>
      <trkpt lat="41.13909" lon="20.14786">
        <ele>192.201174</ele>
        <time>2022-05-01T12:05:52.554Z</time>
      </trkpt>
      <trkpt lat="41.13901" lon="20.14775">
        <ele>192.092601</ele>
        <time>2022-05-01T12:05:55.555Z</time>
      </trkpt>
      <trkpt lat="41.13892" lon="20.14764">
        <ele>191.984363</ele>
        <time>2022-05-01T12:05:58.567Z</time>
      </trkpt>
      <trkpt lat="41.13884" lon="20.14751">
        <ele>191.87153</ele>
        <time>2022-05-01T12:06:01.555Z</time>
      </trkpt>
      <trkpt lat="41.13876" lon="20.14739">
        <ele>191.758228</ele>
        <time>2022-05-01T12:06:04.563Z</time>
      </trkpt>
      <trkpt lat="41.13869" lon="20.14726">
        <ele>191.647097</ele>
        <time>2022-05-01T12:06:07.555Z</time>
      </trkpt>
      <trkpt lat="41.13861" lon="20.14714">
        <ele>191.535966</ele>
        <time>2022-05-01T12:06:10.584Z</time>
      </trkpt>
      <trkpt lat="41.13854" lon="20.14702">
        <ele>191.431538</ele>
        <time>2022-05-01T12:06:13.558Z</time>
      </trkpt>
      <trkpt lat="41.13846" lon="20.1469">
        <ele>191.324856</ele>
        <time>2022-05-01T12:06:16.560Z</time>
      </trkpt>
      <trkpt lat="41.13839" lon="20.14678">
        <ele>191.21812</ele>
        <time>2022-05-01T12:06:19.554Z</time>
      </trkpt>
      <trkpt lat="41.13831" lon="20.14665">
        <ele>191.103575</ele>
        <time>2022-05-01T12:06:22.549Z</time>
      </trkpt>
      <trkpt lat="41.13825" lon="20.14656">
        <ele>190.976691</ele>
        <time>2022-05-01T12:06:24.563Z</time>
      </trkpt>
      <trkpt lat="41.13818" lon="20.14646">
        <ele>190.751502</ele>
        <time>2022-05-01T12:06:26.551Z</time>
      </trkpt>
      <trkpt lat="41.13811" lon="20.14635">
        <ele>190.509135</ele>
        <time>2022-05-01T12:06:28.561Z</time>
      </trkpt>
      <trkpt lat="41.13803" lon="20.14623">
        <ele>190.2479</ele>
        <time>2022-05-01T12:06:30.559Z</time>
      </trkpt>
      <trkpt lat="41.13794" lon="20.14611">
        <ele>189.97166</ele>
        <time>2022-05-01T12:06:32.561Z</time>
      </trkpt>
      <trkpt lat="41.13785" lon="20.14597">
        <ele>189.672883</ele>
        <time>2022-05-01T12:06:34.552Z</time>
      </trkpt>
      <trkpt lat="41.13776" lon="20.14583">
        <ele>189.361977</ele>
        <time>2022-05-01T12:06:36.558Z</time>
      </trkpt>
      <trkpt lat="41.13766" lon="20.14568">
        <ele>189.031271</ele>
        <time>2022-05-01T12:06:38.553Z</time>
      </trkpt>
      <trkpt lat="41.13756" lon="20.14553">
        <ele>188.705493</ele>
        <time>2022-05-01T12:06:40.560Z</time>
      </trkpt>
      <trkpt lat="41.13746" lon="20.14538">
        <ele>188.374331</ele>
        <time>2022-05-01T12:06:42.547Z</time>
      </trkpt>
      <trkpt lat="41.13736" lon="20.14524">
        <ele>188.04603</ele>
        <time>2022-05-01T12:06:44.557Z</time>
      </trkpt>
      <trkpt lat="41.13725" lon="20.14509">
        <ele>187.708702</ele>
        <time>2022-05-01T12:06:46.560Z</time>
      </trkpt>
      <trkpt lat="41.13714" lon="20.14494">
        <ele>187.354438</ele>
        <time>2022-05-01T12:06:48.552Z</time>
      </trkpt>
      <trkpt lat="41.13701" lon="20.14479">
        <ele>186.868664</ele>
        <time>2022-05-01T12:06:50.545Z</time>
      </trkpt>
      <trkpt lat="41.13689" lon="20.14463">
        <ele>186.150623</ele>
        <time>2022-05-01T12:06:52.567Z</time>
      </trkpt>
      <trkpt lat="41.13676" lon="20.14446">
        <ele>185.417107</ele>
        <time>2022-05-01T12:06:54.555Z</time>
      </trkpt>
      <trkpt lat="41.13663" lon="20.1443">
        <ele>184.677595</ele>
        <time>2022-05-01T12:06:56.537Z</time>
      </trkpt>
      <trkpt lat="41.1365" lon="20.14414">
        <ele>183.939349</ele>
        <time>2022-05-01T12:06:58.551Z</time>
      </trkpt>
      <trkpt lat="41.13637" lon="20.14398">
        <ele>183.198061</ele>
        <time>2022-05-01T12:07:00.542Z</time>
      </trkpt>
      <trkpt lat="41.13631" lon="20.1439">
        <ele>182.819657</ele>
        <time>2022-05-01T12:07:01.565Z</time>
      </trkpt>
      <trkpt lat="41.13624" lon="20.14381">
        <ele>182.441253</ele>
        <time>2022-05-01T12:07:02.584Z</time>
      </trkpt>
      <trkpt lat="41.13611" lon="20.14365">
        <ele>181.6957</ele>
        <time>2022-05-01T12:07:04.555Z</time>
      </trkpt>
      <trkpt lat="41.13604" lon="20.14357">
        <ele>181.32336</ele>
        <time>2022-05-01T12:07:05.558Z</time>
      </trkpt>
      <trkpt lat="41.13598" lon="20.14349">
        <ele>180.942829</ele>
        <time>2022-05-01T12:07:06.566Z</time>
      </trkpt>
      <trkpt lat="41.13591" lon="20.1434">
        <ele>180.553656</ele>
        <time>2022-05-01T12:07:07.552Z</time>
      </trkpt>
      <trkpt lat="41.13584" lon="20.14331">
        <ele>180.160649</ele>
        <time>2022-05-01T12:07:08.596Z</time>
      </trkpt>
      <trkpt lat="41.13577" lon="20.14323">
        <ele>179.773655</ele>
        <time>2022-05-01T12:07:09.546Z</time>
      </trkpt>
      <trkpt lat="41.1357" lon="20.14315">
        <ele>179.403832</ele>
        <time>2022-05-01T12:07:10.562Z</time>
      </trkpt>
      <trkpt lat="41.13564" lon="20.14306">
        <ele>179.046632</ele>
        <time>2022-05-01T12:07:11.555Z</time>
      </trkpt>
      <trkpt lat="41.13557" lon="20.14298">
        <ele>178.691432</ele>
        <time>2022-05-01T12:07:12.569Z</time>
      </trkpt>
      <trkpt lat="41.1355" lon="20.14289">
        <ele>178.333419</ele>
        <time>2022-05-01T12:07:13.566Z</time>
      </trkpt>
      <trkpt lat="41.13543" lon="20.14281">
        <ele>177.978218</ele>
        <time>2022-05-01T12:07:14.569Z</time>
      </trkpt>
      <trkpt lat="41.13537" lon="20.14272">
        <ele>177.623795</ele>
        <time>2022-05-01T12:07:15.540Z</time>
      </trkpt>
      <trkpt lat="41.1353" lon="20.14264">
        <ele>177.274159</ele>
        <time>2022-05-01T12:07:16.539Z</time>
      </trkpt>
      <trkpt lat="41.13524" lon="20.14256">
        <ele>176.926542</ele>
        <time>2022-05-01T12:07:17.560Z</time>
      </trkpt>
      <trkpt lat="41.13511" lon="20.14239">
        <ele>176.244906</ele>
        <time>2022-05-01T12:07:19.616Z</time>
      </trkpt>
      <trkpt lat="41.13498" lon="20.14223">
        <ele>175.568063</ele>
        <time>2022-05-01T12:07:21.570Z</time>
      </trkpt>
      <trkpt lat="41.13486" lon="20.14207">
        <ele>174.896011</ele>
        <time>2022-05-01T12:07:23.552Z</time>
      </trkpt>
      <trkpt lat="41.13474" lon="20.14191">
        <ele>174.239798</ele>
        <time>2022-05-01T12:07:25.563Z</time>
      </trkpt>
      <trkpt lat="41.13462" lon="20.14176">
        <ele>173.60458</ele>
        <time>2022-05-01T12:07:27.554Z</time>
      </trkpt>
      <trkpt lat="41.13452" lon="20.14161">
        <ele>173.019561</ele>
        <time>2022-05-01T12:07:29.567Z</time>
      </trkpt>
      <trkpt lat="41.13442" lon="20.14145">
        <ele>172.531369</ele>
        <time>2022-05-01T12:07:31.559Z</time>
      </trkpt>
      <trkpt lat="41.13432" lon="20.14129">
        <ele>172.182511</ele>
        <time>2022-05-01T12:07:33.565Z</time>
      </trkpt>
      <trkpt lat="41.13423" lon="20.14113">
        <ele>171.848699</ele>
        <time>2022-05-01T12:07:35.557Z</time>
      </trkpt>
      <trkpt lat="41.13414" lon="20.14099">
        <ele>171.525782</ele>
        <time>2022-05-01T12:07:37.555Z</time>
      </trkpt>
      <trkpt lat="41.13406" lon="20.14084">
        <ele>171.209763</ele>
        <time>2022-05-01T12:07:39.555Z</time>
      </trkpt>
      <trkpt lat="41.13397" lon="20.14069">
        <ele>170.892348</ele>
        <time>2022-05-01T12:07:41.592Z</time>
      </trkpt>
      <trkpt lat="41.13389" lon="20.14056">
        <ele>170.588376</ele>
        <time>2022-05-01T12:07:43.569Z</time>
      </trkpt>
      <trkpt lat="41.13381" lon="20.14042">
        <ele>170.294203</ele>
        <time>2022-05-01T12:07:45.531Z</time>
      </trkpt>
      <trkpt lat="41.13373" lon="20.14029">
        <ele>170.006808</ele>
        <time>2022-05-01T12:07:47.550Z</time>
      </trkpt>
      <trkpt lat="41.13365" lon="20.14017">
        <ele>169.736991</ele>
        <time>2022-05-01T12:07:49.565Z</time>
      </trkpt>
      <trkpt lat="41.13358" lon="20.14006">
        <ele>169.473478</ele>
        <time>2022-05-01T12:07:51.567Z</time>
      </trkpt>
      <trkpt lat="41.1335" lon="20.13994">
        <ele>169.216057</ele>
        <time>2022-05-01T12:07:53.566Z</time>
      </trkpt>
      <trkpt lat="41.13343" lon="20.13983">
        <ele>168.964043</ele>
        <time>2022-05-01T12:07:55.557Z</time>
      </trkpt>
      <trkpt lat="41.13336" lon="20.13972">
        <ele>168.721508</ele>
        <time>2022-05-01T12:07:57.567Z</time>
      </trkpt>
      <trkpt lat="41.1333" lon="20.13962">
        <ele>168.603606</ele>
        <time>2022-05-01T12:07:59.556Z</time>
      </trkpt>
      <trkpt lat="41.13324" lon="20.13951">
        <ele>168.588527</ele>
        <time>2022-05-01T12:08:01.551Z</time>
      </trkpt>
      <trkpt lat="41.13318" lon="20.13941">
        <ele>168.573454</ele>
        <time>2022-05-01T12:08:03.541Z</time>
      </trkpt>
      <trkpt lat="41.13312" lon="20.13931">
        <ele>168.5582</ele>
        <time>2022-05-01T12:08:05.545Z</time>
      </trkpt>
      <trkpt lat="41.13305" lon="20.1392">
        <ele>168.542483</ele>
        <time>2022-05-01T12:08:07.543Z</time>
      </trkpt>
      <trkpt lat="41.13299" lon="20.1391">
        <ele>168.527119</ele>
        <time>2022-05-01T12:08:09.580Z</time>
      </trkpt>
      <trkpt lat="41.13293" lon="20.139">
        <ele>168.512882</ele>
        <time>2022-05-01T12:08:11.563Z</time>
      </trkpt>
      <trkpt lat="41.13285" lon="20.13886">
        <ele>168.491795</ele>
        <time>2022-05-01T12:08:14.548Z</time>
      </trkpt>
      <trkpt lat="41.13279" lon="20.13876">
        <ele>168.476726</ele>
        <time>2022-05-01T12:08:16.539Z</time>
      </trkpt>
      <trkpt lat="41.13272" lon="20.13865">
        <ele>168.461286</ele>
        <time>2022-05-01T12:08:18.544Z</time>
      </trkpt>
      <trkpt lat="41.13266" lon="20.13855">
        <ele>168.445846</ele>
        <time>2022-05-01T12:08:20.579Z</time>
      </trkpt>
      <trkpt lat="41.1326" lon="20.13844">
        <ele>168.4304</ele>
        <time>2022-05-01T12:08:22.572Z</time>
      </trkpt>
      <trkpt lat="41.13253" lon="20.13834">
        <ele>168.414402</ele>
        <time>2022-05-01T12:08:24.555Z</time>
      </trkpt>
      <trkpt lat="41.13247" lon="20.13823">
        <ele>168.398762</ele>
        <time>2022-05-01T12:08:26.556Z</time>
      </trkpt>
      <trkpt lat="41.1324" lon="20.13812">
        <ele>168.382659</ele>
        <time>2022-05-01T12:08:28.547Z</time>
      </trkpt>
      <trkpt lat="41.13233" lon="20.13802">
        <ele>168.36628</ele>
        <time>2022-05-01T12:08:30.563Z</time>
      </trkpt>
      <trkpt lat="41.13227" lon="20.13791">
        <ele>168.350275</ele>
        <time>2022-05-01T12:08:32.552Z</time>
      </trkpt>
      <trkpt lat="41.1322" lon="20.1378">
        <ele>168.331362</ele>
        <time>2022-05-01T12:08:34.554Z</time>
      </trkpt>
      <trkpt lat="41.13214" lon="20.1377">
        <ele>168.270628</ele>
        <time>2022-05-01T12:08:36.548Z</time>
      </trkpt>
      <trkpt lat="41.13207" lon="20.13759">
        <ele>168.209976</ele>
        <time>2022-05-01T12:08:38.565Z</time>
      </trkpt>
      <trkpt lat="41.13201" lon="20.13748">
        <ele>168.146468</ele>
        <time>2022-05-01T12:08:40.551Z</time>
      </trkpt>
      <trkpt lat="41.13194" lon="20.13737">
        <ele>168.083312</ele>
        <time>2022-05-01T12:08:42.557Z</time>
      </trkpt>
      <trkpt lat="41.13188" lon="20.13725">
        <ele>168.019789</ele>
        <time>2022-05-01T12:08:44.556Z</time>
      </trkpt>
      <trkpt lat="41.13182" lon="20.13713">
        <ele>167.956537</ele>
        <time>2022-05-01T12:08:46.551Z</time>
      </trkpt>
      <trkpt lat="41.13176" lon="20.13701">
        <ele>167.892042</ele>
        <time>2022-05-01T12:08:48.572Z</time>
      </trkpt>
      <trkpt lat="41.13171" lon="20.13688">
        <ele>167.825842</ele>
        <time>2022-05-01T12:08:50.544Z</time>
      </trkpt>
      <trkpt lat="41.13165" lon="20.13676">
        <ele>167.761576</ele>
        <time>2022-05-01T12:08:52.540Z</time>
      </trkpt>
      <trkpt lat="41.1316" lon="20.13664">
        <ele>167.698843</ele>
        <time>2022-05-01T12:08:54.560Z</time>
      </trkpt>
      <trkpt lat="41.13155" lon="20.13652">
        <ele>167.637788</ele>
        <time>2022-05-01T12:08:56.565Z</time>
      </trkpt>
      <trkpt lat="41.1315" lon="20.13641">
        <ele>167.578781</ele>
        <time>2022-05-01T12:08:58.555Z</time>
      </trkpt>
      <trkpt lat="41.13145" lon="20.13629">
        <ele>167.52063</ele>
        <time>2022-05-01T12:09:00.548Z</time>
      </trkpt>
      <trkpt lat="41.1314" lon="20.13617">
        <ele>167.461234</ele>
        <time>2022-05-01T12:09:02.564Z</time>
      </trkpt>
      <trkpt lat="41.13135" lon="20.13606">
        <ele>167.402803</ele>
        <time>2022-05-01T12:09:04.552Z</time>
      </trkpt>
      <trkpt lat="41.1313" lon="20.13595">
        <ele>167.342718</ele>
        <time>2022-05-01T12:09:06.555Z</time>
      </trkpt>
      <trkpt lat="41.13125" lon="20.13583">
        <ele>167.280977</ele>
        <time>2022-05-01T12:09:08.553Z</time>
      </trkpt>
      <trkpt lat="41.1312" lon="20.13571">
        <ele>167.234133</ele>
        <time>2022-05-01T12:09:10.560Z</time>
      </trkpt>
      <trkpt lat="41.13115" lon="20.1356">
        <ele>167.191658</ele>
        <time>2022-05-01T12:09:12.548Z</time>
      </trkpt>
      <trkpt lat="41.13112" lon="20.13548">
        <ele>167.152546</ele>
        <time>2022-05-01T12:09:14.549Z</time>
      </trkpt>
      <trkpt lat="41.13106" lon="20.13537">
        <ele>167.106912</ele>
        <time>2022-05-01T12:09:16.565Z</time>
      </trkpt>
      <trkpt lat="41.131" lon="20.13525">
        <ele>167.061278</ele>
        <time>2022-05-01T12:09:18.555Z</time>
      </trkpt>
      <trkpt lat="41.13095" lon="20.13513">
        <ele>167.016875</ele>
        <time>2022-05-01T12:09:20.541Z</time>
      </trkpt>
      <trkpt lat="41.1309" lon="20.13501">
        <ele>166.972526</ele>
        <time>2022-05-01T12:09:22.552Z</time>
      </trkpt>
      <trkpt lat="41.13085" lon="20.1349">
        <ele>166.929404</ele>
        <time>2022-05-01T12:09:24.563Z</time>
      </trkpt>
      <trkpt lat="41.1308" lon="20.13479">
        <ele>166.88728</ele>
        <time>2022-05-01T12:09:26.558Z</time>
      </trkpt>
      <trkpt lat="41.13074" lon="20.13468">
        <ele>166.845358</ele>
        <time>2022-05-01T12:09:28.580Z</time>
      </trkpt>
      <trkpt lat="41.13069" lon="20.13458">
        <ele>166.804277</ele>
        <time>2022-05-01T12:09:30.548Z</time>
      </trkpt>
      <trkpt lat="41.13064" lon="20.13447">
        <ele>166.764489</ele>
        <time>2022-05-01T12:09:32.553Z</time>
      </trkpt>
      <trkpt lat="41.13058" lon="20.13437">
        <ele>166.723439</ele>
        <time>2022-05-01T12:09:34.547Z</time>
      </trkpt>
      <trkpt lat="41.13053" lon="20.13427">
        <ele>166.681064</ele>
        <time>2022-05-01T12:09:36.555Z</time>
      </trkpt>
      <trkpt lat="41.13046" lon="20.13416">
        <ele>166.637929</ele>
        <time>2022-05-01T12:09:38.571Z</time>
      </trkpt>
      <trkpt lat="41.13039" lon="20.13406">
        <ele>166.593235</ele>
        <time>2022-05-01T12:09:40.558Z</time>
      </trkpt>
      <trkpt lat="41.13032" lon="20.13396">
        <ele>166.548541</ele>
        <time>2022-05-01T12:09:42.547Z</time>
      </trkpt>
      <trkpt lat="41.13025" lon="20.13386">
        <ele>166.502182</ele>
        <time>2022-05-01T12:09:44.562Z</time>
      </trkpt>
      <trkpt lat="41.13017" lon="20.13376">
        <ele>166.608772</ele>
        <time>2022-05-01T12:09:46.570Z</time>
      </trkpt>
      <trkpt lat="41.13009" lon="20.13366">
        <ele>166.752253</ele>
        <time>2022-05-01T12:09:48.548Z</time>
      </trkpt>
      <trkpt lat="41.13001" lon="20.13357">
        <ele>166.894451</ele>
        <time>2022-05-01T12:09:50.592Z</time>
      </trkpt>
      <trkpt lat="41.12994" lon="20.13348">
        <ele>167.033561</ele>
        <time>2022-05-01T12:09:52.559Z</time>
      </trkpt>
      <trkpt lat="41.12987" lon="20.13338">
        <ele>167.174069</ele>
        <time>2022-05-01T12:09:54.559Z</time>
      </trkpt>
      <trkpt lat="41.1298" lon="20.13327">
        <ele>167.31302</ele>
        <time>2022-05-01T12:09:56.571Z</time>
      </trkpt>
      <trkpt lat="41.12974" lon="20.13317">
        <ele>167.450046</ele>
        <time>2022-05-01T12:09:58.588Z</time>
      </trkpt>
      <trkpt lat="41.12968" lon="20.13306">
        <ele>167.587092</ele>
        <time>2022-05-01T12:10:00.555Z</time>
      </trkpt>
      <trkpt lat="41.12962" lon="20.13295">
        <ele>167.728251</ele>
        <time>2022-05-01T12:10:02.559Z</time>
      </trkpt>
      <trkpt lat="41.12956" lon="20.13284">
        <ele>167.861282</ele>
        <time>2022-05-01T12:10:04.563Z</time>
      </trkpt>
      <trkpt lat="41.12951" lon="20.13273">
        <ele>167.995341</ele>
        <time>2022-05-01T12:10:06.561Z</time>
      </trkpt>
      <trkpt lat="41.12945" lon="20.13261">
        <ele>168.141388</ele>
        <time>2022-05-01T12:10:08.543Z</time>
      </trkpt>
      <trkpt lat="41.1294" lon="20.13249">
        <ele>168.284809</ele>
        <time>2022-05-01T12:10:10.542Z</time>
      </trkpt>
      <trkpt lat="41.12934" lon="20.13237">
        <ele>168.422819</ele>
        <time>2022-05-01T12:10:12.555Z</time>
      </trkpt>
      <trkpt lat="41.12928" lon="20.13227">
        <ele>168.555753</ele>
        <time>2022-05-01T12:10:14.555Z</time>
      </trkpt>
      <trkpt lat="41.12923" lon="20.13216">
        <ele>168.688016</ele>
        <time>2022-05-01T12:10:16.556Z</time>
      </trkpt>
      <trkpt lat="41.12917" lon="20.13206">
        <ele>168.820278</ele>
        <time>2022-05-01T12:10:18.547Z</time>
      </trkpt>
      <trkpt lat="41.12911" lon="20.13196">
        <ele>168.909549</ele>
        <time>2022-05-01T12:10:20.581Z</time>
      </trkpt>
      <trkpt lat="41.12905" lon="20.13186">
        <ele>168.777949</ele>
        <time>2022-05-01T12:10:22.555Z</time>
      </trkpt>
      <trkpt lat="41.12898" lon="20.13176">
        <ele>168.643537</ele>
        <time>2022-05-01T12:10:24.557Z</time>
      </trkpt>
      <trkpt lat="41.12892" lon="20.13167">
        <ele>168.510464</ele>
        <time>2022-05-01T12:10:26.565Z</time>
      </trkpt>
      <trkpt lat="41.12885" lon="20.13158">
        <ele>168.379821</ele>
        <time>2022-05-01T12:10:28.546Z</time>
      </trkpt>
      <trkpt lat="41.12879" lon="20.13147">
        <ele>168.242437</ele>
        <time>2022-05-01T12:10:30.559Z</time>
      </trkpt>
      <trkpt lat="41.12873" lon="20.13136">
        <ele>168.099482</ele>
        <time>2022-05-01T12:10:32.545Z</time>
      </trkpt>
      <trkpt lat="41.12867" lon="20.13124">
        <ele>167.94966</ele>
        <time>2022-05-01T12:10:34.567Z</time>
      </trkpt>
      <trkpt lat="41.12861" lon="20.13112">
        <ele>167.805517</ele>
        <time>2022-05-01T12:10:36.563Z</time>
      </trkpt>
      <trkpt lat="41.12857" lon="20.13097">
        <ele>167.642653</ele>
        <time>2022-05-01T12:10:38.558Z</time>
      </trkpt>
      <trkpt lat="41.12852" lon="20.13082">
        <ele>167.475069</ele>
        <time>2022-05-01T12:10:40.587Z</time>
      </trkpt>
      <trkpt lat="41.12847" lon="20.13067">
        <ele>167.301789</ele>
        <time>2022-05-01T12:10:42.553Z</time>
      </trkpt>
      <trkpt lat="41.12842" lon="20.13052">
        <ele>167.134058</ele>
        <time>2022-05-01T12:10:44.567Z</time>
      </trkpt>
      <trkpt lat="41.12837" lon="20.13037">
        <ele>166.965549</ele>
        <time>2022-05-01T12:10:46.555Z</time>
      </trkpt>
      <trkpt lat="41.12831" lon="20.13022">
        <ele>166.800744</ele>
        <time>2022-05-01T12:10:48.540Z</time>
      </trkpt>
      <trkpt lat="41.12826" lon="20.13008">
        <ele>166.636189</ele>
        <time>2022-05-01T12:10:50.605Z</time>
      </trkpt>
      <trkpt lat="41.12821" lon="20.12994">
        <ele>166.475579</ele>
        <time>2022-05-01T12:10:52.567Z</time>
      </trkpt>
      <trkpt lat="41.12817" lon="20.1298">
        <ele>166.541359</ele>
        <time>2022-05-01T12:10:54.586Z</time>
      </trkpt>
      <trkpt lat="41.12812" lon="20.12966">
        <ele>166.612293</ele>
        <time>2022-05-01T12:10:56.552Z</time>
      </trkpt>
      <trkpt lat="41.12807" lon="20.12951">
        <ele>166.682419</ele>
        <time>2022-05-01T12:10:58.555Z</time>
      </trkpt>
      <trkpt lat="41.12802" lon="20.12937">
        <ele>166.753109</ele>
        <time>2022-05-01T12:11:00.546Z</time>
      </trkpt>
      <trkpt lat="41.12797" lon="20.12923">
        <ele>166.821407</ele>
        <time>2022-05-01T12:11:02.545Z</time>
      </trkpt>
      <trkpt lat="41.12793" lon="20.12909">
        <ele>166.888473</ele>
        <time>2022-05-01T12:11:04.559Z</time>
      </trkpt>
      <trkpt lat="41.12788" lon="20.12895">
        <ele>166.955949</ele>
        <time>2022-05-01T12:11:06.539Z</time>
      </trkpt>
      <trkpt lat="41.12784" lon="20.12881">
        <ele>167.022196</ele>
        <time>2022-05-01T12:11:08.539Z</time>
      </trkpt>
      <trkpt lat="41.1278" lon="20.12868">
        <ele>167.086644</ele>
        <time>2022-05-01T12:11:10.552Z</time>
      </trkpt>
      <trkpt lat="41.12775" lon="20.12855">
        <ele>167.149391</ele>
        <time>2022-05-01T12:11:12.562Z</time>
      </trkpt>
      <trkpt lat="41.12771" lon="20.12842">
        <ele>167.211733</ele>
        <time>2022-05-01T12:11:14.538Z</time>
      </trkpt>
      <trkpt lat="41.12767" lon="20.12829">
        <ele>167.273602</ele>
        <time>2022-05-01T12:11:16.587Z</time>
      </trkpt>
      <trkpt lat="41.12762" lon="20.12817">
        <ele>167.335085</ele>
        <time>2022-05-01T12:11:18.538Z</time>
      </trkpt>
      <trkpt lat="41.12758" lon="20.12805">
        <ele>167.395908</ele>
        <time>2022-05-01T12:11:20.570Z</time>
      </trkpt>
      <trkpt lat="41.12753" lon="20.12791">
        <ele>167.460356</ele>
        <time>2022-05-01T12:11:22.550Z</time>
      </trkpt>
      <trkpt lat="41.12749" lon="20.12778">
        <ele>167.523751</ele>
        <time>2022-05-01T12:11:24.558Z</time>
      </trkpt>
      <trkpt lat="41.12745" lon="20.12765">
        <ele>167.585823</ele>
        <time>2022-05-01T12:11:26.536Z</time>
      </trkpt>
      <trkpt lat="41.1274" lon="20.12752">
        <ele>167.649487</ele>
        <time>2022-05-01T12:11:28.542Z</time>
      </trkpt>
      <trkpt lat="41.12736" lon="20.12738">
        <ele>167.712583</ele>
        <time>2022-05-01T12:11:30.563Z</time>
      </trkpt>
      <trkpt lat="41.12731" lon="20.12725">
        <ele>167.775679</ele>
        <time>2022-05-01T12:11:32.553Z</time>
      </trkpt>
      <trkpt lat="41.12727" lon="20.12711">
        <ele>167.838946</ele>
        <time>2022-05-01T12:11:34.548Z</time>
      </trkpt>
      <trkpt lat="41.12723" lon="20.12698">
        <ele>167.902212</ele>
        <time>2022-05-01T12:11:36.569Z</time>
      </trkpt>
      <trkpt lat="41.12718" lon="20.12684">
        <ele>167.966649</ele>
        <time>2022-05-01T12:11:38.585Z</time>
      </trkpt>
      <trkpt lat="41.12714" lon="20.12671">
        <ele>168.030094</ele>
        <time>2022-05-01T12:11:40.553Z</time>
      </trkpt>
      <trkpt lat="41.12709" lon="20.12657">
        <ele>168.093421</ele>
        <time>2022-05-01T12:11:42.557Z</time>
      </trkpt>
      <trkpt lat="41.12705" lon="20.12644">
        <ele>168.155497</ele>
        <time>2022-05-01T12:11:44.550Z</time>
      </trkpt>
      <trkpt lat="41.12701" lon="20.12631">
        <ele>168.217803</ele>
        <time>2022-05-01T12:11:46.544Z</time>
      </trkpt>
      <trkpt lat="41.12696" lon="20.12618">
        <ele>168.279165</ele>
        <time>2022-05-01T12:11:48.554Z</time>
      </trkpt>
      <trkpt lat="41.12692" lon="20.12605">
        <ele>168.339034</ele>
        <time>2022-05-01T12:11:50.555Z</time>
      </trkpt>
      <trkpt lat="41.12688" lon="20.12593">
        <ele>168.397326</ele>
        <time>2022-05-01T12:11:52.558Z</time>
      </trkpt>
      <trkpt lat="41.12683" lon="20.12581">
        <ele>168.455466</ele>
        <time>2022-05-01T12:11:54.560Z</time>
      </trkpt>
      <trkpt lat="41.12679" lon="20.12569">
        <ele>168.511165</ele>
        <time>2022-05-01T12:11:56.546Z</time>
      </trkpt>
      <trkpt lat="41.12675" lon="20.12557">
        <ele>168.567648</ele>
        <time>2022-05-01T12:11:58.539Z</time>
      </trkpt>
      <trkpt lat="41.12671" lon="20.12545">
        <ele>168.613668</ele>
        <time>2022-05-01T12:12:00.584Z</time>
      </trkpt>
      <trkpt lat="41.12666" lon="20.12534">
        <ele>168.659706</ele>
        <time>2022-05-01T12:12:02.572Z</time>
      </trkpt>
      <trkpt lat="41.12661" lon="20.12523">
        <ele>168.704398</ele>
        <time>2022-05-01T12:12:04.542Z</time>
      </trkpt>
      <trkpt lat="41.12656" lon="20.12511">
        <ele>168.748927</ele>
        <time>2022-05-01T12:12:06.556Z</time>
      </trkpt>
      <trkpt lat="41.12651" lon="20.125">
        <ele>168.792856</ele>
        <time>2022-05-01T12:12:08.553Z</time>
      </trkpt>
      <trkpt lat="41.12647" lon="20.12489">
        <ele>168.837084</ele>
        <time>2022-05-01T12:12:10.596Z</time>
      </trkpt>
      <trkpt lat="41.12641" lon="20.12479">
        <ele>168.880734</ele>
        <time>2022-05-01T12:12:12.562Z</time>
      </trkpt>
      <trkpt lat="41.12636" lon="20.12469">
        <ele>168.923554</ele>
        <time>2022-05-01T12:12:14.544Z</time>
      </trkpt>
      <trkpt lat="41.12631" lon="20.12458">
        <ele>168.965407</ele>
        <time>2022-05-01T12:12:16.572Z</time>
      </trkpt>
      <trkpt lat="41.12624" lon="20.12445">
        <ele>169.024492</ele>
        <time>2022-05-01T12:12:19.546Z</time>
      </trkpt>
      <trkpt lat="41.12617" lon="20.12431">
        <ele>169.081154</ele>
        <time>2022-05-01T12:12:22.573Z</time>
      </trkpt>
      <trkpt lat="41.12611" lon="20.12418">
        <ele>169.135023</ele>
        <time>2022-05-01T12:12:25.570Z</time>
      </trkpt>
      <trkpt lat="41.12605" lon="20.12405">
        <ele>169.184339</ele>
        <time>2022-05-01T12:12:28.547Z</time>
      </trkpt>
      <trkpt lat="41.12598" lon="20.12394">
        <ele>169.233747</ele>
        <time>2022-05-01T12:12:31.547Z</time>
      </trkpt>
      <trkpt lat="41.12593" lon="20.12383">
        <ele>169.27887</ele>
        <time>2022-05-01T12:12:34.547Z</time>
      </trkpt>
      <trkpt lat="41.12588" lon="20.12373">
        <ele>169.321259</ele>
        <time>2022-05-01T12:12:37.539Z</time>
      </trkpt>
      <trkpt lat="41.12582" lon="20.1236">
        <ele>169.374003</ele>
        <time>2022-05-01T12:12:41.540Z</time>
      </trkpt>
      <trkpt lat="41.12577" lon="20.12346">
        <ele>169.659356</ele>
        <time>2022-05-01T12:12:45.580Z</time>
      </trkpt>
      <trkpt lat="41.12571" lon="20.12333">
        <ele>170.083699</ele>
        <time>2022-05-01T12:12:49.564Z</time>
      </trkpt>
      <trkpt lat="41.12567" lon="20.1232">
        <ele>170.487407</ele>
        <time>2022-05-01T12:12:53.552Z</time>
      </trkpt>
      <trkpt lat="41.12563" lon="20.12307">
        <ele>170.87032</ele>
        <time>2022-05-01T12:12:57.555Z</time>
      </trkpt>
      <trkpt lat="41.12559" lon="20.12296">
        <ele>171.214779</ele>
        <time>2022-05-01T12:13:01.535Z</time>
      </trkpt>
      <trkpt lat="41.12555" lon="20.12284">
        <ele>171.580973</ele>
        <time>2022-05-01T12:13:05.556Z</time>
      </trkpt>
      <trkpt lat="41.12551" lon="20.12271">
        <ele>171.955921</ele>
        <time>2022-05-01T12:13:09.563Z</time>
      </trkpt>
      <trkpt lat="41.12546" lon="20.12259">
        <ele>172.343089</ele>
        <time>2022-05-01T12:13:13.537Z</time>
      </trkpt>
      <trkpt lat="41.12542" lon="20.12246">
        <ele>172.714366</ele>
        <time>2022-05-01T12:13:17.559Z</time>
      </trkpt>
      <trkpt lat="41.12538" lon="20.12234">
        <ele>173.102767</ele>
        <time>2022-05-01T12:13:21.550Z</time>
      </trkpt>
      <trkpt lat="41.12533" lon="20.12221">
        <ele>173.503986</ele>
        <time>2022-05-01T12:13:25.559Z</time>
      </trkpt>
      <trkpt lat="41.12528" lon="20.12209">
        <ele>173.870765</ele>
        <time>2022-05-01T12:13:29.552Z</time>
      </trkpt>
      <trkpt lat="41.12523" lon="20.12196">
        <ele>174.277747</ele>
        <time>2022-05-01T12:13:33.552Z</time>
      </trkpt>
      <trkpt lat="41.12517" lon="20.12184">
        <ele>174.66822</ele>
        <time>2022-05-01T12:13:37.558Z</time>
      </trkpt>
      <trkpt lat="41.12512" lon="20.12174">
        <ele>175.003482</ele>
        <time>2022-05-01T12:13:40.550Z</time>
      </trkpt>
      <trkpt lat="41.12507" lon="20.12163">
        <ele>175.354386</ele>
        <time>2022-05-01T12:13:43.558Z</time>
      </trkpt>
      <trkpt lat="41.12502" lon="20.12151">
        <ele>175.751848</ele>
        <time>2022-05-01T12:13:46.560Z</time>
      </trkpt>
      <trkpt lat="41.12495" lon="20.12137">
        <ele>175.903155</ele>
        <time>2022-05-01T12:13:49.540Z</time>
      </trkpt>
      <trkpt lat="41.1249" lon="20.12127">
        <ele>175.712482</ele>
        <time>2022-05-01T12:13:51.547Z</time>
      </trkpt>
      <trkpt lat="41.12485" lon="20.12115">
        <ele>175.504346</ele>
        <time>2022-05-01T12:13:53.548Z</time>
      </trkpt>
      <trkpt lat="41.12478" lon="20.12103">
        <ele>175.275332</ele>
        <time>2022-05-01T12:13:55.544Z</time>
      </trkpt>
      <trkpt lat="41.12472" lon="20.12089">
        <ele>175.02639</ele>
        <time>2022-05-01T12:13:57.550Z</time>
      </trkpt>
      <trkpt lat="41.12465" lon="20.12075">
        <ele>174.760945</ele>
        <time>2022-05-01T12:13:59.561Z</time>
      </trkpt>
      <trkpt lat="41.12458" lon="20.12059">
        <ele>174.480244</ele>
        <time>2022-05-01T12:14:01.539Z</time>
      </trkpt>
      <trkpt lat="41.12452" lon="20.12042">
        <ele>174.185047</ele>
        <time>2022-05-01T12:14:03.588Z</time>
      </trkpt>
      <trkpt lat="41.12446" lon="20.12023">
        <ele>173.871097</ele>
        <time>2022-05-01T12:14:05.554Z</time>
      </trkpt>
      <trkpt lat="41.12442" lon="20.12003">
        <ele>173.561396</ele>
        <time>2022-05-01T12:14:07.554Z</time>
      </trkpt>
      <trkpt lat="41.12439" lon="20.11985">
        <ele>173.270201</ele>
        <time>2022-05-01T12:14:09.553Z</time>
      </trkpt>
      <trkpt lat="41.12436" lon="20.11966">
        <ele>172.970781</ele>
        <time>2022-05-01T12:14:11.554Z</time>
      </trkpt>
      <trkpt lat="41.12434" lon="20.11946">
        <ele>172.662365</ele>
        <time>2022-05-01T12:14:13.553Z</time>
      </trkpt>
      <trkpt lat="41.12434" lon="20.11925">
        <ele>172.343419</ele>
        <time>2022-05-01T12:14:15.560Z</time>
      </trkpt>
      <trkpt lat="41.12432" lon="20.11904">
        <ele>171.860961</ele>
        <time>2022-05-01T12:14:17.555Z</time>
      </trkpt>
      <trkpt lat="41.1243" lon="20.11883">
        <ele>171.372434</ele>
        <time>2022-05-01T12:14:19.543Z</time>
      </trkpt>
      <trkpt lat="41.12429" lon="20.11861">
        <ele>170.869175</ele>
        <time>2022-05-01T12:14:21.544Z</time>
      </trkpt>
      <trkpt lat="41.12427" lon="20.11839">
        <ele>170.347257</ele>
        <time>2022-05-01T12:14:23.560Z</time>
      </trkpt>
      <trkpt lat="41.12425" lon="20.11815">
        <ele>169.805986</ele>
        <time>2022-05-01T12:14:25.550Z</time>
      </trkpt>
      <trkpt lat="41.12424" lon="20.11803">
        <ele>169.530761</ele>
        <time>2022-05-01T12:14:26.545Z</time>
      </trkpt>
      <trkpt lat="41.12423" lon="20.11792">
        <ele>169.254926</ele>
        <time>2022-05-01T12:14:27.539Z</time>
      </trkpt>
      <trkpt lat="41.12422" lon="20.1178">
        <ele>168.978345</ele>
        <time>2022-05-01T12:14:28.538Z</time>
      </trkpt>
      <trkpt lat="41.1242" lon="20.11756">
        <ele>168.428964</ele>
        <time>2022-05-01T12:14:30.531Z</time>
      </trkpt>
      <trkpt lat="41.12419" lon="20.11733">
        <ele>167.895555</ele>
        <time>2022-05-01T12:14:32.542Z</time>
      </trkpt>
      <trkpt lat="41.12417" lon="20.11709">
        <ele>167.352255</ele>
        <time>2022-05-01T12:14:34.555Z</time>
      </trkpt>
      <trkpt lat="41.12415" lon="20.11686">
        <ele>166.833632</ele>
        <time>2022-05-01T12:14:36.544Z</time>
      </trkpt>
      <trkpt lat="41.12414" lon="20.11664">
        <ele>166.785954</ele>
        <time>2022-05-01T12:14:38.534Z</time>
      </trkpt>
      <trkpt lat="41.12412" lon="20.11644">
        <ele>166.742139</ele>
        <time>2022-05-01T12:14:40.546Z</time>
      </trkpt>
      <trkpt lat="41.12411" lon="20.11625">
        <ele>166.700506</ele>
        <time>2022-05-01T12:14:42.549Z</time>
      </trkpt>
      <trkpt lat="41.12408" lon="20.11606">
        <ele>166.65948</ele>
        <time>2022-05-01T12:14:44.559Z</time>
      </trkpt>
      <trkpt lat="41.12404" lon="20.11588">
        <ele>166.619479</ele>
        <time>2022-05-01T12:14:46.602Z</time>
      </trkpt>
      <trkpt lat="41.12401" lon="20.1157">
        <ele>166.580382</ele>
        <time>2022-05-01T12:14:48.543Z</time>
      </trkpt>
      <trkpt lat="41.12397" lon="20.11552">
        <ele>166.539665</ele>
        <time>2022-05-01T12:14:50.546Z</time>
      </trkpt>
      <trkpt lat="41.12394" lon="20.11534">
        <ele>166.500079</ele>
        <time>2022-05-01T12:14:52.550Z</time>
      </trkpt>
      <trkpt lat="41.12391" lon="20.11517">
        <ele>166.462373</ele>
        <time>2022-05-01T12:14:54.554Z</time>
      </trkpt>
      <trkpt lat="41.12388" lon="20.11502">
        <ele>166.427449</ele>
        <time>2022-05-01T12:14:56.548Z</time>
      </trkpt>
      <trkpt lat="41.12385" lon="20.11486">
        <ele>166.392456</ele>
        <time>2022-05-01T12:14:58.549Z</time>
      </trkpt>
      <trkpt lat="41.12382" lon="20.1147">
        <ele>166.357739</ele>
        <time>2022-05-01T12:15:00.547Z</time>
      </trkpt>
      <trkpt lat="41.1238" lon="20.11455">
        <ele>166.323745</ele>
        <time>2022-05-01T12:15:02.556Z</time>
      </trkpt>
      <trkpt lat="41.12377" lon="20.11439">
        <ele>166.390759</ele>
        <time>2022-05-01T12:15:04.533Z</time>
      </trkpt>
      <trkpt lat="41.12375" lon="20.11425">
        <ele>166.462291</ele>
        <time>2022-05-01T12:15:06.550Z</time>
      </trkpt>
      <trkpt lat="41.12373" lon="20.1141">
        <ele>166.534081</ele>
        <time>2022-05-01T12:15:08.590Z</time>
      </trkpt>
      <trkpt lat="41.12371" lon="20.11395">
        <ele>166.606443</ele>
        <time>2022-05-01T12:15:10.555Z</time>
      </trkpt>
      <trkpt lat="41.12369" lon="20.1138">
        <ele>166.677866</ele>
        <time>2022-05-01T12:15:12.567Z</time>
      </trkpt>
      <trkpt lat="41.12367" lon="20.11366">
        <ele>166.747526</ele>
        <time>2022-05-01T12:15:14.584Z</time>
      </trkpt>
      <trkpt lat="41.12366" lon="20.11351">
        <ele>166.815928</ele>
        <time>2022-05-01T12:15:16.555Z</time>
      </trkpt>
      <trkpt lat="41.12363" lon="20.11337">
        <ele>166.886693</ele>
        <time>2022-05-01T12:15:18.570Z</time>
      </trkpt>
      <trkpt lat="41.12361" lon="20.11323">
        <ele>166.954625</ele>
        <time>2022-05-01T12:15:20.543Z</time>
      </trkpt>
      <trkpt lat="41.12359" lon="20.1131">
        <ele>167.018213</ele>
        <time>2022-05-01T12:15:22.559Z</time>
      </trkpt>
      <trkpt lat="41.12357" lon="20.11297">
        <ele>167.082661</ele>
        <time>2022-05-01T12:15:24.565Z</time>
      </trkpt>
      <trkpt lat="41.12354" lon="20.11284">
        <ele>167.147023</ele>
        <time>2022-05-01T12:15:26.549Z</time>
      </trkpt>
      <trkpt lat="41.1235" lon="20.11272">
        <ele>167.209129</ele>
        <time>2022-05-01T12:15:28.570Z</time>
      </trkpt>
      <trkpt lat="41.12347" lon="20.11259">
        <ele>167.272591</ele>
        <time>2022-05-01T12:15:30.550Z</time>
      </trkpt>
      <trkpt lat="41.12344" lon="20.11246">
        <ele>167.338107</ele>
        <time>2022-05-01T12:15:32.566Z</time>
      </trkpt>
      <trkpt lat="41.1234" lon="20.11233">
        <ele>167.404724</ele>
        <time>2022-05-01T12:15:34.555Z</time>
      </trkpt>
      <trkpt lat="41.12336" lon="20.1122">
        <ele>167.453873</ele>
        <time>2022-05-01T12:15:36.547Z</time>
      </trkpt>
      <trkpt lat="41.12332" lon="20.11207">
        <ele>167.437049</ele>
        <time>2022-05-01T12:15:38.557Z</time>
      </trkpt>
      <trkpt lat="41.12328" lon="20.11195">
        <ele>167.420155</ele>
        <time>2022-05-01T12:15:40.546Z</time>
      </trkpt>
      <trkpt lat="41.12322" lon="20.11182">
        <ele>167.402112</ele>
        <time>2022-05-01T12:15:42.539Z</time>
      </trkpt>
      <trkpt lat="41.12317" lon="20.11169">
        <ele>167.383693</ele>
        <time>2022-05-01T12:15:44.552Z</time>
      </trkpt>
      <trkpt lat="41.12311" lon="20.11156">
        <ele>167.365328</ele>
        <time>2022-05-01T12:15:46.559Z</time>
      </trkpt>
      <trkpt lat="41.12306" lon="20.11144">
        <ele>167.347403</ele>
        <time>2022-05-01T12:15:48.567Z</time>
      </trkpt>
      <trkpt lat="41.12302" lon="20.1113">
        <ele>167.328793</ele>
        <time>2022-05-01T12:15:50.514Z</time>
      </trkpt>
      <trkpt lat="41.12297" lon="20.11116">
        <ele>167.310477</ele>
        <time>2022-05-01T12:15:52.569Z</time>
      </trkpt>
      <trkpt lat="41.12293" lon="20.11103">
        <ele>167.292698</ele>
        <time>2022-05-01T12:15:54.559Z</time>
      </trkpt>
      <trkpt lat="41.12288" lon="20.11091">
        <ele>167.275179</ele>
        <time>2022-05-01T12:15:56.531Z</time>
      </trkpt>
      <trkpt lat="41.12283" lon="20.11078">
        <ele>167.257766</ele>
        <time>2022-05-01T12:15:58.565Z</time>
      </trkpt>
      <trkpt lat="41.12279" lon="20.11065">
        <ele>167.240128</ele>
        <time>2022-05-01T12:16:00.532Z</time>
      </trkpt>
      <trkpt lat="41.12274" lon="20.11053">
        <ele>167.222868</ele>
        <time>2022-05-01T12:16:02.549Z</time>
      </trkpt>
      <trkpt lat="41.1227" lon="20.1104">
        <ele>167.205749</ele>
        <time>2022-05-01T12:16:04.554Z</time>
      </trkpt>
      <trkpt lat="41.12266" lon="20.11027">
        <ele>167.188391</ele>
        <time>2022-05-01T12:16:06.550Z</time>
      </trkpt>
      <trkpt lat="41.12263" lon="20.11013">
        <ele>167.170476</ele>
        <time>2022-05-01T12:16:08.556Z</time>
      </trkpt>
      <trkpt lat="41.12259" lon="20.11">
        <ele>167.229711</ele>
        <time>2022-05-01T12:16:10.572Z</time>
      </trkpt>
      <trkpt lat="41.12256" lon="20.10986">
        <ele>167.37088</ele>
        <time>2022-05-01T12:16:12.594Z</time>
      </trkpt>
      <trkpt lat="41.12253" lon="20.10972">
        <ele>167.51064</ele>
        <time>2022-05-01T12:16:14.539Z</time>
      </trkpt>
      <trkpt lat="41.1225" lon="20.10959">
        <ele>167.644817</ele>
        <time>2022-05-01T12:16:16.548Z</time>
      </trkpt>
      <trkpt lat="41.12248" lon="20.10946">
        <ele>167.777015</ele>
        <time>2022-05-01T12:16:18.552Z</time>
      </trkpt>
      <trkpt lat="41.12246" lon="20.10933">
        <ele>167.906959</ele>
        <time>2022-05-01T12:16:20.562Z</time>
      </trkpt>
      <trkpt lat="41.12244" lon="20.1092">
        <ele>168.037656</ele>
        <time>2022-05-01T12:16:22.547Z</time>
      </trkpt>
      <trkpt lat="41.12241" lon="20.10906">
        <ele>168.173014</ele>
        <time>2022-05-01T12:16:24.553Z</time>
      </trkpt>
      <trkpt lat="41.12239" lon="20.10893">
        <ele>168.304575</ele>
        <time>2022-05-01T12:16:26.553Z</time>
      </trkpt>
      <trkpt lat="41.12236" lon="20.1088">
        <ele>168.435945</ele>
        <time>2022-05-01T12:16:28.555Z</time>
      </trkpt>
      <trkpt lat="41.12233" lon="20.10868">
        <ele>168.55967</ele>
        <time>2022-05-01T12:16:30.567Z</time>
      </trkpt>
      <trkpt lat="41.12231" lon="20.10856">
        <ele>168.683152</ele>
        <time>2022-05-01T12:16:32.545Z</time>
      </trkpt>
      <trkpt lat="41.1223" lon="20.10844">
        <ele>168.799998</ele>
        <time>2022-05-01T12:16:34.551Z</time>
      </trkpt>
      <trkpt lat="41.12229" lon="20.10832">
        <ele>168.917737</ele>
        <time>2022-05-01T12:16:36.557Z</time>
      </trkpt>
      <trkpt lat="41.12227" lon="20.10818">
        <ele>169.052255</ele>
        <time>2022-05-01T12:16:38.551Z</time>
      </trkpt>
      <trkpt lat="41.12225" lon="20.10804">
        <ele>169.196624</ele>
        <time>2022-05-01T12:16:40.554Z</time>
      </trkpt>
      <trkpt lat="41.12224" lon="20.1079">
        <ele>169.328823</ele>
        <time>2022-05-01T12:16:42.549Z</time>
      </trkpt>
      <trkpt lat="41.12222" lon="20.10777">
        <ele>169.462602</ele>
        <time>2022-05-01T12:16:44.549Z</time>
      </trkpt>
      <trkpt lat="41.12221" lon="20.10764">
        <ele>169.772654</ele>
        <time>2022-05-01T12:16:46.544Z</time>
      </trkpt>
      <trkpt lat="41.12219" lon="20.10751">
        <ele>170.144343</ele>
        <time>2022-05-01T12:16:48.564Z</time>
      </trkpt>
      <trkpt lat="41.12218" lon="20.10737">
        <ele>170.522255</ele>
        <time>2022-05-01T12:16:50.570Z</time>
      </trkpt>
      <trkpt lat="41.12217" lon="20.10724">
        <ele>170.882418</ele>
        <time>2022-05-01T12:16:52.543Z</time>
      </trkpt>
      <trkpt lat="41.12216" lon="20.10711">
        <ele>171.248471</ele>
        <time>2022-05-01T12:16:54.551Z</time>
      </trkpt>
      <trkpt lat="41.12215" lon="20.10698">
        <ele>171.617678</ele>
        <time>2022-05-01T12:16:56.557Z</time>
      </trkpt>
      <trkpt lat="41.12214" lon="20.10685">
        <ele>171.964788</ele>
        <time>2022-05-01T12:16:58.531Z</time>
      </trkpt>
      <trkpt lat="41.12213" lon="20.10673">
        <ele>172.315593</ele>
        <time>2022-05-01T12:17:00.547Z</time>
      </trkpt>
      <trkpt lat="41.12211" lon="20.1066">
        <ele>172.67905</ele>
        <time>2022-05-01T12:17:02.554Z</time>
      </trkpt>
      <trkpt lat="41.12209" lon="20.10647">
        <ele>173.040386</ele>
        <time>2022-05-01T12:17:04.545Z</time>
      </trkpt>
      <trkpt lat="41.12207" lon="20.10634">
        <ele>173.403077</ele>
        <time>2022-05-01T12:17:06.544Z</time>
      </trkpt>
      <trkpt lat="41.12206" lon="20.10622">
        <ele>173.757156</ele>
        <time>2022-05-01T12:17:08.543Z</time>
      </trkpt>
      <trkpt lat="41.12205" lon="20.1061">
        <ele>174.098326</ele>
        <time>2022-05-01T12:17:10.554Z</time>
      </trkpt>
      <trkpt lat="41.12203" lon="20.10592">
        <ele>174.590972</ele>
        <time>2022-05-01T12:17:13.554Z</time>
      </trkpt>
      <trkpt lat="41.122" lon="20.10575">
        <ele>175.069777</ele>
        <time>2022-05-01T12:17:16.548Z</time>
      </trkpt>
      <trkpt lat="41.12198" lon="20.10559">
        <ele>175.538356</ele>
        <time>2022-05-01T12:17:19.567Z</time>
      </trkpt>
      <trkpt lat="41.12196" lon="20.10541">
        <ele>176.023383</ele>
        <time>2022-05-01T12:17:22.554Z</time>
      </trkpt>
      <trkpt lat="41.12195" lon="20.10525">
        <ele>176.442542</ele>
        <time>2022-05-01T12:17:25.595Z</time>
      </trkpt>
      <trkpt lat="41.12193" lon="20.10508">
        <ele>176.848226</ele>
        <time>2022-05-01T12:17:28.558Z</time>
      </trkpt>
      <trkpt lat="41.12193" lon="20.10491">
        <ele>177.234435</ele>
        <time>2022-05-01T12:17:31.548Z</time>
      </trkpt>
      <trkpt lat="41.12192" lon="20.10476">
        <ele>177.595173</ele>
        <time>2022-05-01T12:17:34.557Z</time>
      </trkpt>
      <trkpt lat="41.12191" lon="20.10462">
        <ele>177.952092</ele>
        <time>2022-05-01T12:17:37.613Z</time>
      </trkpt>
      <trkpt lat="41.12189" lon="20.10446">
        <ele>178.337763</ele>
        <time>2022-05-01T12:17:40.557Z</time>
      </trkpt>
      <trkpt lat="41.12187" lon="20.10431">
        <ele>178.684029</ele>
        <time>2022-05-01T12:17:43.549Z</time>
      </trkpt>
      <trkpt lat="41.12183" lon="20.10416">
        <ele>179.067511</ele>
        <time>2022-05-01T12:17:46.563Z</time>
      </trkpt>
      <trkpt lat="41.12179" lon="20.104">
        <ele>179.473938</ele>
        <time>2022-05-01T12:17:49.628Z</time>
      </trkpt>
      <trkpt lat="41.12175" lon="20.10383">
        <ele>179.888972</ele>
        <time>2022-05-01T12:17:52.583Z</time>
      </trkpt>
      <trkpt lat="41.1217" lon="20.10367">
        <ele>180.298389</ele>
        <time>2022-05-01T12:17:55.570Z</time>
      </trkpt>
      <trkpt lat="41.12166" lon="20.10351">
        <ele>180.703554</ele>
        <time>2022-05-01T12:17:58.592Z</time>
      </trkpt>
      <trkpt lat="41.12163" lon="20.10335">
        <ele>181.09445</ele>
        <time>2022-05-01T12:18:01.563Z</time>
      </trkpt>
      <trkpt lat="41.12159" lon="20.10321">
        <ele>181.46496</ele>
        <time>2022-05-01T12:18:04.577Z</time>
      </trkpt>
      <trkpt lat="41.12159" lon="20.10304">
        <ele>181.774</ele>
        <time>2022-05-01T12:18:07.552Z</time>
      </trkpt>
      <trkpt lat="41.12162" lon="20.10287">
        <ele>181.315981</ele>
        <time>2022-05-01T12:18:10.548Z</time>
      </trkpt>
      <trkpt lat="41.12163" lon="20.10271">
        <ele>180.891127</ele>
        <time>2022-05-01T12:18:13.537Z</time>
      </trkpt>
      <trkpt lat="41.12162" lon="20.10256">
        <ele>180.471578</ele>
        <time>2022-05-01T12:18:16.555Z</time>
      </trkpt>
      <trkpt lat="41.12159" lon="20.10239">
        <ele>180.019898</ele>
        <time>2022-05-01T12:18:19.551Z</time>
      </trkpt>
      <trkpt lat="41.12155" lon="20.10224">
        <ele>179.592442</ele>
        <time>2022-05-01T12:18:22.591Z</time>
      </trkpt>
      <trkpt lat="41.1215" lon="20.1021">
        <ele>179.169475</ele>
        <time>2022-05-01T12:18:25.555Z</time>
      </trkpt>
      <trkpt lat="41.12145" lon="20.10196">
        <ele>178.77013</ele>
        <time>2022-05-01T12:18:28.553Z</time>
      </trkpt>
      <trkpt lat="41.12139" lon="20.10181">
        <ele>178.305104</ele>
        <time>2022-05-01T12:18:31.557Z</time>
      </trkpt>
      <trkpt lat="41.12132" lon="20.10166">
        <ele>177.842815</ele>
        <time>2022-05-01T12:18:34.551Z</time>
      </trkpt>
      <trkpt lat="41.12127" lon="20.1015">
        <ele>177.379038</ele>
        <time>2022-05-01T12:18:37.539Z</time>
      </trkpt>
      <trkpt lat="41.12121" lon="20.10135">
        <ele>176.929504</ele>
        <time>2022-05-01T12:18:40.553Z</time>
      </trkpt>
      <trkpt lat="41.12114" lon="20.1012">
        <ele>176.454454</ele>
        <time>2022-05-01T12:18:43.548Z</time>
      </trkpt>
      <trkpt lat="41.1211" lon="20.10104">
        <ele>176.014519</ele>
        <time>2022-05-01T12:18:46.551Z</time>
      </trkpt>
      <trkpt lat="41.12105" lon="20.10089">
        <ele>175.575026</ele>
        <time>2022-05-01T12:18:49.554Z</time>
      </trkpt>
      <trkpt lat="41.12099" lon="20.10075">
        <ele>175.485805</ele>
        <time>2022-05-01T12:18:52.552Z</time>
      </trkpt>
      <trkpt lat="41.12093" lon="20.10059">
        <ele>175.54543</ele>
        <time>2022-05-01T12:18:55.596Z</time>
      </trkpt>
      <trkpt lat="41.12088" lon="20.10043">
        <ele>175.605079</ele>
        <time>2022-05-01T12:18:58.556Z</time>
      </trkpt>
      <trkpt lat="41.12083" lon="20.10026">
        <ele>175.666608</ele>
        <time>2022-05-01T12:19:01.600Z</time>
      </trkpt>
      <trkpt lat="41.1208" lon="20.10015">
        <ele>175.707579</ele>
        <time>2022-05-01T12:19:03.538Z</time>
      </trkpt>
      <trkpt lat="41.12076" lon="20.10004">
        <ele>175.749027</ele>
        <time>2022-05-01T12:19:05.555Z</time>
      </trkpt>
      <trkpt lat="41.12072" lon="20.09988">
        <ele>175.807505</ele>
        <time>2022-05-01T12:19:08.549Z</time>
      </trkpt>
      <trkpt lat="41.12068" lon="20.09977">
        <ele>175.849282</ele>
        <time>2022-05-01T12:19:10.540Z</time>
      </trkpt>
      <trkpt lat="41.12065" lon="20.09966">
        <ele>175.889963</ele>
        <time>2022-05-01T12:19:12.589Z</time>
      </trkpt>
      <trkpt lat="41.12059" lon="20.0995">
        <ele>175.950159</ele>
        <time>2022-05-01T12:19:15.553Z</time>
      </trkpt>
      <trkpt lat="41.12056" lon="20.09939">
        <ele>175.991617</ele>
        <time>2022-05-01T12:19:17.547Z</time>
      </trkpt>
      <trkpt lat="41.12053" lon="20.09927">
        <ele>176.033076</ele>
        <time>2022-05-01T12:19:19.574Z</time>
      </trkpt>
      <trkpt lat="41.12049" lon="20.09916">
        <ele>176.074203</ele>
        <time>2022-05-01T12:19:21.557Z</time>
      </trkpt>
      <trkpt lat="41.12045" lon="20.09901">
        <ele>176.128824</ele>
        <time>2022-05-01T12:19:24.568Z</time>
      </trkpt>
      <trkpt lat="41.12042" lon="20.09888">
        <ele>176.176901</ele>
        <time>2022-05-01T12:19:27.557Z</time>
      </trkpt>
      <trkpt lat="41.12039" lon="20.09877">
        <ele>176.218037</ele>
        <time>2022-05-01T12:19:30.552Z</time>
      </trkpt>
      <trkpt lat="41.12036" lon="20.09864">
        <ele>176.264313</ele>
        <time>2022-05-01T12:19:33.548Z</time>
      </trkpt>
      <trkpt lat="41.12031" lon="20.0985">
        <ele>176.504973</ele>
        <time>2022-05-01T12:19:36.558Z</time>
      </trkpt>
      <trkpt lat="41.12027" lon="20.09837">
        <ele>176.742094</ele>
        <time>2022-05-01T12:19:39.551Z</time>
      </trkpt>
      <trkpt lat="41.12022" lon="20.09824">
        <ele>176.972313</ele>
        <time>2022-05-01T12:19:42.571Z</time>
      </trkpt>
      <trkpt lat="41.12018" lon="20.09811">
        <ele>177.199877</ele>
        <time>2022-05-01T12:19:45.593Z</time>
      </trkpt>
      <trkpt lat="41.12014" lon="20.09797">
        <ele>177.434924</ele>
        <time>2022-05-01T12:19:48.608Z</time>
      </trkpt>
      <trkpt lat="41.12011" lon="20.09784">
        <ele>177.660132</ele>
        <time>2022-05-01T12:19:51.577Z</time>
      </trkpt>
      <trkpt lat="41.12008" lon="20.09771">
        <ele>177.882613</ele>
        <time>2022-05-01T12:19:54.558Z</time>
      </trkpt>
      <trkpt lat="41.12004" lon="20.09758">
        <ele>178.106295</ele>
        <time>2022-05-01T12:19:57.562Z</time>
      </trkpt>
      <trkpt lat="41.12001" lon="20.09745">
        <ele>178.336931</ele>
        <time>2022-05-01T12:20:00.568Z</time>
      </trkpt>
      <trkpt lat="41.11996" lon="20.0973">
        <ele>178.586538</ele>
        <time>2022-05-01T12:20:03.536Z</time>
      </trkpt>
      <trkpt lat="41.11991" lon="20.09716">
        <ele>178.849347</ele>
        <time>2022-05-01T12:20:06.592Z</time>
      </trkpt>
      <trkpt lat="41.11986" lon="20.09701">
        <ele>179.107078</ele>
        <time>2022-05-01T12:20:09.547Z</time>
      </trkpt>
      <trkpt lat="41.1198" lon="20.09687">
        <ele>179.366998</ele>
        <time>2022-05-01T12:20:12.548Z</time>
      </trkpt>
      <trkpt lat="41.11976" lon="20.09676">
        <ele>179.582273</ele>
        <time>2022-05-01T12:20:14.596Z</time>
      </trkpt>
      <trkpt lat="41.1197" lon="20.09664">
        <ele>179.807983</ele>
        <time>2022-05-01T12:20:16.565Z</time>
      </trkpt>
      <trkpt lat="41.11965" lon="20.0965">
        <ele>180.052246</ele>
        <time>2022-05-01T12:20:18.551Z</time>
      </trkpt>
      <trkpt lat="41.1196" lon="20.09637">
        <ele>180.148222</ele>
        <time>2022-05-01T12:20:20.569Z</time>
      </trkpt>
      <trkpt lat="41.11953" lon="20.09624">
        <ele>180.173481</ele>
        <time>2022-05-01T12:20:22.568Z</time>
      </trkpt>
      <trkpt lat="41.11946" lon="20.0961">
        <ele>180.199195</ele>
        <time>2022-05-01T12:20:24.582Z</time>
      </trkpt>
      <trkpt lat="41.1194" lon="20.09596">
        <ele>180.22365</ele>
        <time>2022-05-01T12:20:26.547Z</time>
      </trkpt>
      <trkpt lat="41.11933" lon="20.09584">
        <ele>180.246938</ele>
        <time>2022-05-01T12:20:28.535Z</time>
      </trkpt>
      <trkpt lat="41.11927" lon="20.09573">
        <ele>180.268013</ele>
        <time>2022-05-01T12:20:30.531Z</time>
      </trkpt>
      <trkpt lat="41.11921" lon="20.09561">
        <ele>180.290458</ele>
        <time>2022-05-01T12:20:32.543Z</time>
      </trkpt>
      <trkpt lat="41.11914" lon="20.0955">
        <ele>180.312513</ele>
        <time>2022-05-01T12:20:34.556Z</time>
      </trkpt>
      <trkpt lat="41.11908" lon="20.09538">
        <ele>180.335456</ele>
        <time>2022-05-01T12:20:36.551Z</time>
      </trkpt>
      <trkpt lat="41.11903" lon="20.09526">
        <ele>180.356307</ele>
        <time>2022-05-01T12:20:38.545Z</time>
      </trkpt>
      <trkpt lat="41.11898" lon="20.09512">
        <ele>180.379195</ele>
        <time>2022-05-01T12:20:40.560Z</time>
      </trkpt>
      <trkpt lat="41.11892" lon="20.09499">
        <ele>180.40315</ele>
        <time>2022-05-01T12:20:42.545Z</time>
      </trkpt>
      <trkpt lat="41.11886" lon="20.09487">
        <ele>180.425688</ele>
        <time>2022-05-01T12:20:44.564Z</time>
      </trkpt>
      <trkpt lat="41.11881" lon="20.09475">
        <ele>180.446365</ele>
        <time>2022-05-01T12:20:46.543Z</time>
      </trkpt>
      <trkpt lat="41.11877" lon="20.09462">
        <ele>180.467599</ele>
        <time>2022-05-01T12:20:48.554Z</time>
      </trkpt>
      <trkpt lat="41.11872" lon="20.09449">
        <ele>180.490633</ele>
        <time>2022-05-01T12:20:50.542Z</time>
      </trkpt>
      <trkpt lat="41.11864" lon="20.09437">
        <ele>180.569761</ele>
        <time>2022-05-01T12:20:52.555Z</time>
      </trkpt>
      <trkpt lat="41.11858" lon="20.09423">
        <ele>180.697651</ele>
        <time>2022-05-01T12:20:54.565Z</time>
      </trkpt>
      <trkpt lat="41.11852" lon="20.09411">
        <ele>180.818344</ele>
        <time>2022-05-01T12:20:56.548Z</time>
      </trkpt>
      <trkpt lat="41.11846" lon="20.09398">
        <ele>180.930445</ele>
        <time>2022-05-01T12:20:58.571Z</time>
      </trkpt>
      <trkpt lat="41.11841" lon="20.09387">
        <ele>181.035039</ele>
        <time>2022-05-01T12:21:00.564Z</time>
      </trkpt>
      <trkpt lat="41.11835" lon="20.09376">
        <ele>181.142346</ele>
        <time>2022-05-01T12:21:02.537Z</time>
      </trkpt>
      <trkpt lat="41.11829" lon="20.09366">
        <ele>181.239665</ele>
        <time>2022-05-01T12:21:04.596Z</time>
      </trkpt>
      <trkpt lat="41.11823" lon="20.09352">
        <ele>181.374839</ele>
        <time>2022-05-01T12:21:07.551Z</time>
      </trkpt>
      <trkpt lat="41.11816" lon="20.09338">
        <ele>181.498384</ele>
        <time>2022-05-01T12:21:10.548Z</time>
      </trkpt>
      <trkpt lat="41.1181" lon="20.09327">
        <ele>181.612596</ele>
        <time>2022-05-01T12:21:13.549Z</time>
      </trkpt>
      <trkpt lat="41.11813" lon="20.09315">
        <ele>181.708195</ele>
        <time>2022-05-01T12:21:17.558Z</time>
      </trkpt>
      <trkpt lat="41.11821" lon="20.09306">
        <ele>181.817353</ele>
        <time>2022-05-01T12:21:21.549Z</time>
      </trkpt>
      <trkpt lat="41.1183" lon="20.09296">
        <ele>181.938909</ele>
        <time>2022-05-01T12:21:24.547Z</time>
      </trkpt>
      <trkpt lat="41.11839" lon="20.09286">
        <ele>182.064303</ele>
        <time>2022-05-01T12:21:27.568Z</time>
      </trkpt>
      <trkpt lat="41.11848" lon="20.09276">
        <ele>182.194229</ele>
        <time>2022-05-01T12:21:30.555Z</time>
      </trkpt>
      <trkpt lat="41.11859" lon="20.09266">
        <ele>182.331438</ele>
        <time>2022-05-01T12:21:33.563Z</time>
      </trkpt>
      <trkpt lat="41.1187" lon="20.09257">
        <ele>182.186195</ele>
        <time>2022-05-01T12:21:36.571Z</time>
      </trkpt>
      <trkpt lat="41.11881" lon="20.0925">
        <ele>181.852878</ele>
        <time>2022-05-01T12:21:39.553Z</time>
      </trkpt>
      <trkpt lat="41.1189" lon="20.09245">
        <ele>181.612125</ele>
        <time>2022-05-01T12:21:41.558Z</time>
      </trkpt>
      <trkpt lat="41.11899" lon="20.09238">
        <ele>181.312599</ele>
        <time>2022-05-01T12:21:44.588Z</time>
      </trkpt>
      <trkpt lat="41.11909" lon="20.09232">
        <ele>181.028874</ele>
        <time>2022-05-01T12:21:47.569Z</time>
      </trkpt>
      <trkpt lat="41.11919" lon="20.09225">
        <ele>180.740539</ele>
        <time>2022-05-01T12:21:50.580Z</time>
      </trkpt>
      <trkpt lat="41.11929" lon="20.09216">
        <ele>180.42477</ele>
        <time>2022-05-01T12:21:53.550Z</time>
      </trkpt>
      <trkpt lat="41.11936" lon="20.09208">
        <ele>180.175084</ele>
        <time>2022-05-01T12:21:56.552Z</time>
      </trkpt>
      <trkpt lat="41.11943" lon="20.092">
        <ele>179.922803</ele>
        <time>2022-05-01T12:21:59.550Z</time>
      </trkpt>
      <trkpt lat="41.1195" lon="20.0919">
        <ele>179.658957</ele>
        <time>2022-05-01T12:22:02.565Z</time>
      </trkpt>
      <trkpt lat="41.11958" lon="20.09179">
        <ele>179.354869</ele>
        <time>2022-05-01T12:22:05.574Z</time>
      </trkpt>
      <trkpt lat="41.11965" lon="20.09169">
        <ele>179.068949</ele>
        <time>2022-05-01T12:22:08.536Z</time>
      </trkpt>
      <trkpt lat="41.11972" lon="20.09159">
        <ele>178.79074</ele>
        <time>2022-05-01T12:22:11.625Z</time>
      </trkpt>
      <trkpt lat="41.11979" lon="20.09148">
        <ele>178.509254</ele>
        <time>2022-05-01T12:22:14.550Z</time>
      </trkpt>
      <trkpt lat="41.11986" lon="20.09138">
        <ele>178.239384</ele>
        <time>2022-05-01T12:22:17.571Z</time>
      </trkpt>
      <trkpt lat="41.11992" lon="20.09128">
        <ele>177.975151</ele>
        <time>2022-05-01T12:22:20.547Z</time>
      </trkpt>
      <trkpt lat="41.11999" lon="20.09118">
        <ele>177.707503</ele>
        <time>2022-05-01T12:22:23.579Z</time>
      </trkpt>
      <trkpt lat="41.12006" lon="20.09108">
        <ele>177.582818</ele>
        <time>2022-05-01T12:22:26.558Z</time>
      </trkpt>
      <trkpt lat="41.12012" lon="20.09099">
        <ele>177.548837</ele>
        <time>2022-05-01T12:22:29.546Z</time>
      </trkpt>
      <trkpt lat="41.12019" lon="20.09089">
        <ele>177.514786</ele>
        <time>2022-05-01T12:22:33.594Z</time>
      </trkpt>
      <trkpt lat="41.12026" lon="20.09078">
        <ele>177.476109</ele>
        <time>2022-05-01T12:22:37.563Z</time>
      </trkpt>
      <trkpt lat="41.12035" lon="20.09068">
        <ele>177.437638</ele>
        <time>2022-05-01T12:22:41.554Z</time>
      </trkpt>
      <trkpt lat="41.12037" lon="20.09056">
        <ele>177.404942</ele>
        <time>2022-05-01T12:22:45.556Z</time>
      </trkpt>
      <trkpt lat="41.12029" lon="20.09046">
        <ele>177.367541</ele>
        <time>2022-05-01T12:22:49.541Z</time>
      </trkpt>
      <trkpt lat="41.12022" lon="20.09038">
        <ele>177.335506</ele>
        <time>2022-05-01T12:22:52.548Z</time>
      </trkpt>
      <trkpt lat="41.12015" lon="20.09027">
        <ele>177.298967</ele>
        <time>2022-05-01T12:22:55.581Z</time>
      </trkpt>
      <trkpt lat="41.12008" lon="20.09016">
        <ele>177.261464</ele>
        <time>2022-05-01T12:22:58.548Z</time>
      </trkpt>
      <trkpt lat="41.12002" lon="20.09006">
        <ele>177.226295</ele>
        <time>2022-05-01T12:23:01.564Z</time>
      </trkpt>
      <trkpt lat="41.11994" lon="20.08996">
        <ele>177.188179</ele>
        <time>2022-05-01T12:23:04.544Z</time>
      </trkpt>
      <trkpt lat="41.11985" lon="20.08986">
        <ele>177.14807</ele>
        <time>2022-05-01T12:23:07.581Z</time>
      </trkpt>
      <trkpt lat="41.11976" lon="20.08976">
        <ele>177.106936</ele>
        <time>2022-05-01T12:23:10.550Z</time>
      </trkpt>
      <trkpt lat="41.11967" lon="20.08966">
        <ele>177.06411</ele>
        <time>2022-05-01T12:23:13.640Z</time>
      </trkpt>
      <trkpt lat="41.11959" lon="20.08955">
        <ele>177.024426</ele>
        <time>2022-05-01T12:23:16.556Z</time>
      </trkpt>
      <trkpt lat="41.1195" lon="20.08944">
        <ele>176.982311</ele>
        <time>2022-05-01T12:23:19.552Z</time>
      </trkpt>
      <trkpt lat="41.1194" lon="20.08935">
        <ele>177.299216</ele>
        <time>2022-05-01T12:23:22.566Z</time>
      </trkpt>
      <trkpt lat="41.11931" lon="20.08926">
        <ele>177.622175</ele>
        <time>2022-05-01T12:23:25.565Z</time>
      </trkpt>
      <trkpt lat="41.11923" lon="20.08915">
        <ele>177.934212</ele>
        <time>2022-05-01T12:23:28.554Z</time>
      </trkpt>
      <trkpt lat="41.11916" lon="20.08908">
        <ele>178.213849</ele>
        <time>2022-05-01T12:23:31.558Z</time>
      </trkpt>
      <trkpt lat="41.11906" lon="20.089">
        <ele>178.539491</ele>
        <time>2022-05-01T12:23:38.583Z</time>
      </trkpt>
      <trkpt lat="41.11898" lon="20.08893">
        <ele>178.809636</ele>
        <time>2022-05-01T12:23:41.602Z</time>
      </trkpt>
      <trkpt lat="41.1189" lon="20.08883">
        <ele>179.116589</ele>
        <time>2022-05-01T12:23:44.537Z</time>
      </trkpt>
      <trkpt lat="41.11881" lon="20.08876">
        <ele>179.428313</ele>
        <time>2022-05-01T12:23:47.564Z</time>
      </trkpt>
      <trkpt lat="41.11873" lon="20.08866">
        <ele>179.725439</ele>
        <time>2022-05-01T12:23:50.550Z</time>
      </trkpt>
      <trkpt lat="41.11864" lon="20.08858">
        <ele>180.039928</ele>
        <time>2022-05-01T12:23:53.543Z</time>
      </trkpt>
      <trkpt lat="41.11856" lon="20.08844">
        <ele>180.422831</ele>
        <time>2022-05-01T12:23:56.562Z</time>
      </trkpt>
      <trkpt lat="41.11853" lon="20.08831">
        <ele>180.706789</ele>
        <time>2022-05-01T12:23:58.555Z</time>
      </trkpt>
      <trkpt lat="41.11848" lon="20.0882">
        <ele>180.976555</ele>
        <time>2022-05-01T12:24:00.567Z</time>
      </trkpt>
      <trkpt lat="41.11843" lon="20.0881">
        <ele>181.261182</ele>
        <time>2022-05-01T12:24:02.530Z</time>
      </trkpt>
      <trkpt lat="41.11835" lon="20.08801">
        <ele>181.543814</ele>
        <time>2022-05-01T12:24:04.556Z</time>
      </trkpt>
      <trkpt lat="41.11828" lon="20.08792">
        <ele>181.836507</ele>
        <time>2022-05-01T12:24:06.587Z</time>
      </trkpt>
      <trkpt lat="41.11819" lon="20.08783">
        <ele>182.134023</ele>
        <time>2022-05-01T12:24:08.558Z</time>
      </trkpt>
      <trkpt lat="41.11811" lon="20.08774">
        <ele>182.134023</ele>
        <time>2022-05-01T12:24:10.554Z</time>
      </trkpt>
      <trkpt lat="41.11803" lon="20.08766">
        <ele>182.134023</ele>
        <time>2022-05-01T12:24:12.560Z</time>
      </trkpt>
      <trkpt lat="41.11793" lon="20.08759">
        <ele>182.134023</ele>
        <time>2022-05-01T12:24:14.541Z</time>
      </trkpt>
      <trkpt lat="41.11784" lon="20.0875">
        <ele>182.134023</ele>
        <time>2022-05-01T12:24:16.539Z</time>
      </trkpt>
      <trkpt lat="41.11773" lon="20.08742">
        <ele>182.134023</ele>
        <time>2022-05-01T12:24:18.573Z</time>
      </trkpt>
      <trkpt lat="41.11764" lon="20.08735">
        <ele>182.134023</ele>
        <time>2022-05-01T12:24:20.542Z</time>
      </trkpt>
      <trkpt lat="41.11757" lon="20.08726">
        <ele>182.134023</ele>
        <time>2022-05-01T12:24:23.588Z</time>
      </trkpt>
      <trkpt lat="41.11757" lon="20.08714">
        <ele>182.134023</ele>
        <time>2022-05-01T12:24:29.544Z</time>
      </trkpt>
      <trkpt lat="41.11762" lon="20.08704">
        <ele>182.134023</ele>
        <time>2022-05-01T12:24:36.584Z</time>
      </trkpt>
      <trkpt lat="41.11764" lon="20.08692">
        <ele>182.134023</ele>
        <time>2022-05-01T12:24:41.552Z</time>
      </trkpt>
      <trkpt lat="41.11767" lon="20.08679">
        <ele>182.134023</ele>
        <time>2022-05-01T12:24:47.580Z</time>
      </trkpt>
      <trkpt lat="41.11772" lon="20.08666">
        <ele>182.134023</ele>
        <time>2022-05-01T12:24:52.543Z</time>
      </trkpt>
      <trkpt lat="41.1178" lon="20.08655">
        <ele>182.134023</ele>
        <time>2022-05-01T12:24:56.569Z</time>
      </trkpt>
      <trkpt lat="41.11786" lon="20.08642">
        <ele>182.134023</ele>
        <time>2022-05-01T12:25:00.549Z</time>
      </trkpt>
      <trkpt lat="41.11784" lon="20.08627">
        <ele>182.134023</ele>
        <time>2022-05-01T12:25:04.565Z</time>
      </trkpt>
      <trkpt lat="41.11782" lon="20.08615">
        <ele>182.134023</ele>
        <time>2022-05-01T12:25:07.570Z</time>
      </trkpt>
      <trkpt lat="41.11778" lon="20.08603">
        <ele>182.134023</ele>
        <time>2022-05-01T12:25:10.556Z</time>
      </trkpt>
      <trkpt lat="41.11774" lon="20.08589">
        <ele>182.134023</ele>
        <time>2022-05-01T12:25:13.557Z</time>
      </trkpt>
      <trkpt lat="41.11767" lon="20.08578">
        <ele>182.134023</ele>
        <time>2022-05-01T12:25:17.558Z</time>
      </trkpt>
      <trkpt lat="41.11757" lon="20.08583">
        <ele>182.134023</ele>
        <time>2022-05-01T12:25:25.580Z</time>
      </trkpt>
      <trkpt lat="41.1175" lon="20.08591">
        <ele>182.134023</ele>
        <time>2022-05-01T12:25:30.547Z</time>
      </trkpt>
      <trkpt lat="41.11746" lon="20.08594">
        <ele>182.134023</ele>
        <time>2022-05-01T12:26:33.963Z</time>
      </trkpt>
    </trkseg>
  </trk>
</gpx>